<?xml version="1.0" encoding="UTF-8" standalone="no" ?>
<gpx xmlns="http://www.topografix.com/GPX/1/1" xmlns:xsi="http://www.w3.org/2001/XMLSchema-instance" xsi:schemaLocation="http://www.topografix.com/GPX/1/1 http://www.topografix.com/GPX/1/1/gpx.xsd" version="1.1" creator="VisuGPX - https://www.visugpx.com">
  <metadata>
    <name>Haringzelles</name>
    <desc><![CDATA[Rando du bois d\'Haringzelles]]></desc>
  </metadata>
  <trk>
    <name><![CDATA[Haringzelles_1]]></name>
    <trkseg>
      <trkpt lat="50.83951" lon="1.59834">
        <ele>53.5</ele>
        <time>2015-04-07T14:32:10.000Z</time>
      </trkpt>
      <trkpt lat="50.83951" lon="1.59834">
        <ele>53.5</ele>
        <time>2015-04-07T14:32:11.000Z</time>
      </trkpt>
      <trkpt lat="50.83951" lon="1.59834">
        <ele>53.5</ele>
        <time>2015-04-07T14:32:12.000Z</time>
      </trkpt>
      <trkpt lat="50.8395" lon="1.59833">
        <ele>53.4</ele>
        <time>2015-04-07T14:32:13.000Z</time>
      </trkpt>
      <trkpt lat="50.8395" lon="1.59833">
        <ele>53.4</ele>
        <time>2015-04-07T14:32:14.000Z</time>
      </trkpt>
      <trkpt lat="50.8395" lon="1.59832">
        <ele>53.4</ele>
        <time>2015-04-07T14:32:15.000Z</time>
      </trkpt>
      <trkpt lat="50.8395" lon="1.59832">
        <ele>53.4</ele>
        <time>2015-04-07T14:32:16.000Z</time>
      </trkpt>
      <trkpt lat="50.83951" lon="1.59831">
        <ele>53.4</ele>
        <time>2015-04-07T14:32:17.000Z</time>
      </trkpt>
      <trkpt lat="50.83952" lon="1.59831">
        <ele>53.5</ele>
        <time>2015-04-07T14:32:18.000Z</time>
      </trkpt>
      <trkpt lat="50.83952" lon="1.59831">
        <ele>53.5</ele>
        <time>2015-04-07T14:32:19.000Z</time>
      </trkpt>
      <trkpt lat="50.83952" lon="1.59831">
        <ele>53.5</ele>
        <time>2015-04-07T14:32:20.000Z</time>
      </trkpt>
      <trkpt lat="50.83952" lon="1.59831">
        <ele>53.5</ele>
        <time>2015-04-07T14:32:21.000Z</time>
      </trkpt>
      <trkpt lat="50.83952" lon="1.59832">
        <ele>53.5</ele>
        <time>2015-04-07T14:32:22.000Z</time>
      </trkpt>
      <trkpt lat="50.83952" lon="1.59832">
        <ele>53.5</ele>
        <time>2015-04-07T14:32:23.000Z</time>
      </trkpt>
      <trkpt lat="50.83952" lon="1.59831">
        <ele>53.5</ele>
        <time>2015-04-07T14:32:24.000Z</time>
      </trkpt>
      <trkpt lat="50.83952" lon="1.59831">
        <ele>53.5</ele>
        <time>2015-04-07T14:32:25.000Z</time>
      </trkpt>
      <trkpt lat="50.83952" lon="1.59832">
        <ele>53.5</ele>
        <time>2015-04-07T14:32:26.000Z</time>
      </trkpt>
      <trkpt lat="50.83952" lon="1.59832">
        <ele>53.5</ele>
        <time>2015-04-07T14:32:27.000Z</time>
      </trkpt>
      <trkpt lat="50.83952" lon="1.59832">
        <ele>53.5</ele>
        <time>2015-04-07T14:32:28.000Z</time>
      </trkpt>
      <trkpt lat="50.83952" lon="1.59833">
        <ele>53.5</ele>
        <time>2015-04-07T14:32:29.000Z</time>
      </trkpt>
      <trkpt lat="50.83952" lon="1.59833">
        <ele>53.6</ele>
        <time>2015-04-07T14:32:30.000Z</time>
      </trkpt>
      <trkpt lat="50.83952" lon="1.59831">
        <ele>53.5</ele>
        <time>2015-04-07T14:32:31.000Z</time>
      </trkpt>
      <trkpt lat="50.83952" lon="1.59831">
        <ele>53.5</ele>
        <time>2015-04-07T14:32:32.000Z</time>
      </trkpt>
      <trkpt lat="50.83952" lon="1.59829">
        <ele>53.5</ele>
        <time>2015-04-07T14:32:33.000Z</time>
      </trkpt>
      <trkpt lat="50.83952" lon="1.59829">
        <ele>53.5</ele>
        <time>2015-04-07T14:32:34.000Z</time>
      </trkpt>
      <trkpt lat="50.83952" lon="1.5983">
        <ele>53.5</ele>
        <time>2015-04-07T14:32:35.000Z</time>
      </trkpt>
      <trkpt lat="50.83952" lon="1.5983">
        <ele>53.5</ele>
        <time>2015-04-07T14:32:36.000Z</time>
      </trkpt>
      <trkpt lat="50.83951" lon="1.59829">
        <ele>53.4</ele>
        <time>2015-04-07T14:32:37.000Z</time>
      </trkpt>
      <trkpt lat="50.83951" lon="1.59829">
        <ele>53.4</ele>
        <time>2015-04-07T14:32:38.000Z</time>
      </trkpt>
      <trkpt lat="50.83951" lon="1.5983">
        <ele>53.5</ele>
        <time>2015-04-07T14:32:39.000Z</time>
      </trkpt>
      <trkpt lat="50.83951" lon="1.5983">
        <ele>53.5</ele>
        <time>2015-04-07T14:32:40.000Z</time>
      </trkpt>
      <trkpt lat="50.83951" lon="1.59829">
        <ele>53.4</ele>
        <time>2015-04-07T14:32:41.000Z</time>
      </trkpt>
      <trkpt lat="50.8395" lon="1.59828">
        <ele>53.4</ele>
        <time>2015-04-07T14:32:42.000Z</time>
      </trkpt>
      <trkpt lat="50.8395" lon="1.59828">
        <ele>53.4</ele>
        <time>2015-04-07T14:32:43.000Z</time>
      </trkpt>
      <trkpt lat="50.8395" lon="1.59828">
        <ele>53.4</ele>
        <time>2015-04-07T14:32:44.000Z</time>
      </trkpt>
      <trkpt lat="50.8395" lon="1.59828">
        <ele>53.4</ele>
        <time>2015-04-07T14:32:45.000Z</time>
      </trkpt>
      <trkpt lat="50.8395" lon="1.59828">
        <ele>53.4</ele>
        <time>2015-04-07T14:32:46.000Z</time>
      </trkpt>
      <trkpt lat="50.8395" lon="1.59828">
        <ele>53.3</ele>
        <time>2015-04-07T14:32:47.000Z</time>
      </trkpt>
      <trkpt lat="50.8395" lon="1.59829">
        <ele>53.4</ele>
        <time>2015-04-07T14:32:48.000Z</time>
      </trkpt>
      <trkpt lat="50.8395" lon="1.59829">
        <ele>53.4</ele>
        <time>2015-04-07T14:32:49.000Z</time>
      </trkpt>
      <trkpt lat="50.8395" lon="1.59829">
        <ele>53.4</ele>
        <time>2015-04-07T14:32:50.000Z</time>
      </trkpt>
      <trkpt lat="50.83949" lon="1.59828">
        <ele>53.3</ele>
        <time>2015-04-07T14:32:51.000Z</time>
      </trkpt>
      <trkpt lat="50.83949" lon="1.59828">
        <ele>53.3</ele>
        <time>2015-04-07T14:32:52.000Z</time>
      </trkpt>
      <trkpt lat="50.83949" lon="1.59828">
        <ele>53.3</ele>
        <time>2015-04-07T14:32:53.000Z</time>
      </trkpt>
      <trkpt lat="50.83948" lon="1.59828">
        <ele>53.3</ele>
        <time>2015-04-07T14:32:54.000Z</time>
      </trkpt>
      <trkpt lat="50.83948" lon="1.59829">
        <ele>53.2</ele>
        <time>2015-04-07T14:32:55.000Z</time>
      </trkpt>
      <trkpt lat="50.83948" lon="1.59829">
        <ele>53.2</ele>
        <time>2015-04-07T14:32:56.000Z</time>
      </trkpt>
      <trkpt lat="50.83947" lon="1.5983">
        <ele>53.2</ele>
        <time>2015-04-07T14:32:57.000Z</time>
      </trkpt>
      <trkpt lat="50.83947" lon="1.5983">
        <ele>53.2</ele>
        <time>2015-04-07T14:32:58.000Z</time>
      </trkpt>
      <trkpt lat="50.83947" lon="1.5983">
        <ele>53.1</ele>
        <time>2015-04-07T14:32:59.000Z</time>
      </trkpt>
      <trkpt lat="50.83946" lon="1.59831">
        <ele>53.1</ele>
        <time>2015-04-07T14:33:00.000Z</time>
      </trkpt>
      <trkpt lat="50.83946" lon="1.59831">
        <ele>53.1</ele>
        <time>2015-04-07T14:33:01.000Z</time>
      </trkpt>
      <trkpt lat="50.83946" lon="1.59831">
        <ele>53.1</ele>
        <time>2015-04-07T14:33:02.000Z</time>
      </trkpt>
      <trkpt lat="50.83945" lon="1.59832">
        <ele>53.1</ele>
        <time>2015-04-07T14:33:03.000Z</time>
      </trkpt>
      <trkpt lat="50.83945" lon="1.59832">
        <ele>53.1</ele>
        <time>2015-04-07T14:33:04.000Z</time>
      </trkpt>
      <trkpt lat="50.83945" lon="1.59833">
        <ele>53</ele>
        <time>2015-04-07T14:33:05.000Z</time>
      </trkpt>
      <trkpt lat="50.83945" lon="1.59833">
        <ele>53</ele>
        <time>2015-04-07T14:33:06.000Z</time>
      </trkpt>
      <trkpt lat="50.83945" lon="1.59833">
        <ele>53</ele>
        <time>2015-04-07T14:33:07.000Z</time>
      </trkpt>
      <trkpt lat="50.83945" lon="1.59833">
        <ele>53</ele>
        <time>2015-04-07T14:33:08.000Z</time>
      </trkpt>
      <trkpt lat="50.83945" lon="1.59833">
        <ele>53</ele>
        <time>2015-04-07T14:33:09.000Z</time>
      </trkpt>
      <trkpt lat="50.83945" lon="1.59833">
        <ele>53</ele>
        <time>2015-04-07T14:33:10.000Z</time>
      </trkpt>
      <trkpt lat="50.83944" lon="1.59833">
        <ele>53</ele>
        <time>2015-04-07T14:33:11.000Z</time>
      </trkpt>
      <trkpt lat="50.83944" lon="1.59833">
        <ele>53</ele>
        <time>2015-04-07T14:33:12.000Z</time>
      </trkpt>
      <trkpt lat="50.83944" lon="1.59833">
        <ele>53</ele>
        <time>2015-04-07T14:33:13.000Z</time>
      </trkpt>
      <trkpt lat="50.83944" lon="1.59833">
        <ele>53</ele>
        <time>2015-04-07T14:33:14.000Z</time>
      </trkpt>
      <trkpt lat="50.83944" lon="1.59833">
        <ele>53</ele>
        <time>2015-04-07T14:33:15.000Z</time>
      </trkpt>
      <trkpt lat="50.83944" lon="1.59833">
        <ele>53</ele>
        <time>2015-04-07T14:33:16.000Z</time>
      </trkpt>
      <trkpt lat="50.83944" lon="1.59833">
        <ele>53</ele>
        <time>2015-04-07T14:33:17.000Z</time>
      </trkpt>
      <trkpt lat="50.83944" lon="1.59833">
        <ele>53</ele>
        <time>2015-04-07T14:33:18.000Z</time>
      </trkpt>
      <trkpt lat="50.83944" lon="1.59833">
        <ele>53</ele>
        <time>2015-04-07T14:33:19.000Z</time>
      </trkpt>
      <trkpt lat="50.83944" lon="1.59833">
        <ele>53</ele>
        <time>2015-04-07T14:33:20.000Z</time>
      </trkpt>
      <trkpt lat="50.83944" lon="1.59833">
        <ele>53</ele>
        <time>2015-04-07T14:33:21.000Z</time>
      </trkpt>
      <trkpt lat="50.83944" lon="1.59833">
        <ele>53</ele>
        <time>2015-04-07T14:33:22.000Z</time>
      </trkpt>
      <trkpt lat="50.83944" lon="1.59833">
        <ele>53</ele>
        <time>2015-04-07T14:33:23.000Z</time>
      </trkpt>
      <trkpt lat="50.83944" lon="1.59833">
        <ele>53</ele>
        <time>2015-04-07T14:33:24.000Z</time>
      </trkpt>
      <trkpt lat="50.83944" lon="1.59833">
        <ele>53</ele>
        <time>2015-04-07T14:33:25.000Z</time>
      </trkpt>
      <trkpt lat="50.83944" lon="1.59833">
        <ele>53</ele>
        <time>2015-04-07T14:33:26.000Z</time>
      </trkpt>
      <trkpt lat="50.83944" lon="1.59833">
        <ele>53</ele>
        <time>2015-04-07T14:33:27.000Z</time>
      </trkpt>
      <trkpt lat="50.83944" lon="1.59833">
        <ele>53</ele>
        <time>2015-04-07T14:33:28.000Z</time>
      </trkpt>
      <trkpt lat="50.83944" lon="1.59833">
        <ele>53</ele>
        <time>2015-04-07T14:33:29.000Z</time>
      </trkpt>
      <trkpt lat="50.83944" lon="1.59833">
        <ele>53</ele>
        <time>2015-04-07T14:33:30.000Z</time>
      </trkpt>
      <trkpt lat="50.83944" lon="1.59833">
        <ele>53</ele>
        <time>2015-04-07T14:33:31.000Z</time>
      </trkpt>
      <trkpt lat="50.83944" lon="1.59833">
        <ele>53</ele>
        <time>2015-04-07T14:33:32.000Z</time>
      </trkpt>
      <trkpt lat="50.83944" lon="1.59833">
        <ele>53</ele>
        <time>2015-04-07T14:33:33.000Z</time>
      </trkpt>
      <trkpt lat="50.83944" lon="1.59833">
        <ele>53</ele>
        <time>2015-04-07T14:33:34.000Z</time>
      </trkpt>
      <trkpt lat="50.83944" lon="1.59833">
        <ele>53</ele>
        <time>2015-04-07T14:33:35.000Z</time>
      </trkpt>
      <trkpt lat="50.83944" lon="1.59833">
        <ele>53</ele>
        <time>2015-04-07T14:33:36.000Z</time>
      </trkpt>
      <trkpt lat="50.83944" lon="1.59833">
        <ele>53</ele>
        <time>2015-04-07T14:33:37.000Z</time>
      </trkpt>
      <trkpt lat="50.83944" lon="1.59833">
        <ele>53</ele>
        <time>2015-04-07T14:33:38.000Z</time>
      </trkpt>
      <trkpt lat="50.83944" lon="1.59833">
        <ele>53</ele>
        <time>2015-04-07T14:33:39.000Z</time>
      </trkpt>
      <trkpt lat="50.83944" lon="1.59833">
        <ele>53</ele>
        <time>2015-04-07T14:33:40.000Z</time>
      </trkpt>
      <trkpt lat="50.83944" lon="1.59833">
        <ele>53</ele>
        <time>2015-04-07T14:33:41.000Z</time>
      </trkpt>
      <trkpt lat="50.83944" lon="1.59833">
        <ele>53</ele>
        <time>2015-04-07T14:33:42.000Z</time>
      </trkpt>
      <trkpt lat="50.83944" lon="1.59833">
        <ele>53</ele>
        <time>2015-04-07T14:33:43.000Z</time>
      </trkpt>
      <trkpt lat="50.83944" lon="1.59833">
        <ele>53</ele>
        <time>2015-04-07T14:33:44.000Z</time>
      </trkpt>
      <trkpt lat="50.83944" lon="1.59833">
        <ele>53</ele>
        <time>2015-04-07T14:33:45.000Z</time>
      </trkpt>
      <trkpt lat="50.83944" lon="1.59833">
        <ele>53</ele>
        <time>2015-04-07T14:33:46.000Z</time>
      </trkpt>
      <trkpt lat="50.83944" lon="1.59833">
        <ele>53</ele>
        <time>2015-04-07T14:33:47.000Z</time>
      </trkpt>
      <trkpt lat="50.83944" lon="1.59833">
        <ele>53</ele>
        <time>2015-04-07T14:33:48.000Z</time>
      </trkpt>
      <trkpt lat="50.83944" lon="1.59833">
        <ele>53</ele>
        <time>2015-04-07T14:33:49.000Z</time>
      </trkpt>
      <trkpt lat="50.83944" lon="1.59833">
        <ele>53</ele>
        <time>2015-04-07T14:33:50.000Z</time>
      </trkpt>
      <trkpt lat="50.83944" lon="1.59833">
        <ele>53</ele>
        <time>2015-04-07T14:33:51.000Z</time>
      </trkpt>
      <trkpt lat="50.83944" lon="1.59833">
        <ele>53</ele>
        <time>2015-04-07T14:33:52.000Z</time>
      </trkpt>
      <trkpt lat="50.83944" lon="1.59833">
        <ele>53</ele>
        <time>2015-04-07T14:33:53.000Z</time>
      </trkpt>
      <trkpt lat="50.83944" lon="1.59833">
        <ele>53</ele>
        <time>2015-04-07T14:33:54.000Z</time>
      </trkpt>
      <trkpt lat="50.83944" lon="1.59833">
        <ele>53</ele>
        <time>2015-04-07T14:33:55.000Z</time>
      </trkpt>
      <trkpt lat="50.83944" lon="1.59833">
        <ele>53</ele>
        <time>2015-04-07T14:33:56.000Z</time>
      </trkpt>
      <trkpt lat="50.83944" lon="1.59833">
        <ele>53</ele>
        <time>2015-04-07T14:33:57.000Z</time>
      </trkpt>
      <trkpt lat="50.83944" lon="1.59833">
        <ele>53</ele>
        <time>2015-04-07T14:33:58.000Z</time>
      </trkpt>
      <trkpt lat="50.83944" lon="1.59833">
        <ele>53</ele>
        <time>2015-04-07T14:33:59.000Z</time>
      </trkpt>
      <trkpt lat="50.83944" lon="1.59833">
        <ele>53</ele>
        <time>2015-04-07T14:34:00.000Z</time>
      </trkpt>
      <trkpt lat="50.83944" lon="1.59833">
        <ele>53</ele>
        <time>2015-04-07T14:34:01.000Z</time>
      </trkpt>
      <trkpt lat="50.83944" lon="1.59833">
        <ele>53</ele>
        <time>2015-04-07T14:34:02.000Z</time>
      </trkpt>
      <trkpt lat="50.83944" lon="1.59833">
        <ele>53</ele>
        <time>2015-04-07T14:34:03.000Z</time>
      </trkpt>
      <trkpt lat="50.83944" lon="1.59833">
        <ele>53</ele>
        <time>2015-04-07T14:34:04.000Z</time>
      </trkpt>
      <trkpt lat="50.83944" lon="1.59833">
        <ele>53</ele>
        <time>2015-04-07T14:34:05.000Z</time>
      </trkpt>
      <trkpt lat="50.83944" lon="1.59833">
        <ele>53</ele>
        <time>2015-04-07T14:34:06.000Z</time>
      </trkpt>
      <trkpt lat="50.83944" lon="1.59833">
        <ele>53</ele>
        <time>2015-04-07T14:34:07.000Z</time>
      </trkpt>
      <trkpt lat="50.83944" lon="1.59833">
        <ele>53</ele>
        <time>2015-04-07T14:34:08.000Z</time>
      </trkpt>
      <trkpt lat="50.83944" lon="1.59833">
        <ele>53</ele>
        <time>2015-04-07T14:34:09.000Z</time>
      </trkpt>
      <trkpt lat="50.83944" lon="1.59833">
        <ele>53</ele>
        <time>2015-04-07T14:34:10.000Z</time>
      </trkpt>
      <trkpt lat="50.83944" lon="1.59833">
        <ele>53</ele>
        <time>2015-04-07T14:34:11.000Z</time>
      </trkpt>
      <trkpt lat="50.83944" lon="1.59833">
        <ele>53</ele>
        <time>2015-04-07T14:34:12.000Z</time>
      </trkpt>
      <trkpt lat="50.83944" lon="1.59833">
        <ele>53</ele>
        <time>2015-04-07T14:34:13.000Z</time>
      </trkpt>
      <trkpt lat="50.83944" lon="1.59833">
        <ele>53</ele>
        <time>2015-04-07T14:34:14.000Z</time>
      </trkpt>
      <trkpt lat="50.83944" lon="1.59833">
        <ele>53</ele>
        <time>2015-04-07T14:34:15.000Z</time>
      </trkpt>
      <trkpt lat="50.83944" lon="1.59833">
        <ele>53</ele>
        <time>2015-04-07T14:34:16.000Z</time>
      </trkpt>
      <trkpt lat="50.83944" lon="1.59833">
        <ele>53</ele>
        <time>2015-04-07T14:34:17.000Z</time>
      </trkpt>
      <trkpt lat="50.83944" lon="1.59833">
        <ele>53</ele>
        <time>2015-04-07T14:34:18.000Z</time>
      </trkpt>
      <trkpt lat="50.83944" lon="1.59833">
        <ele>53</ele>
        <time>2015-04-07T14:34:19.000Z</time>
      </trkpt>
      <trkpt lat="50.83944" lon="1.59833">
        <ele>53</ele>
        <time>2015-04-07T14:34:20.000Z</time>
      </trkpt>
      <trkpt lat="50.83944" lon="1.59833">
        <ele>53</ele>
        <time>2015-04-07T14:34:21.000Z</time>
      </trkpt>
      <trkpt lat="50.83944" lon="1.59833">
        <ele>53</ele>
        <time>2015-04-07T14:34:22.000Z</time>
      </trkpt>
      <trkpt lat="50.83944" lon="1.59833">
        <ele>53</ele>
        <time>2015-04-07T14:34:23.000Z</time>
      </trkpt>
      <trkpt lat="50.83944" lon="1.59833">
        <ele>53</ele>
        <time>2015-04-07T14:34:24.000Z</time>
      </trkpt>
      <trkpt lat="50.83944" lon="1.59833">
        <ele>53</ele>
        <time>2015-04-07T14:34:25.000Z</time>
      </trkpt>
      <trkpt lat="50.83944" lon="1.59833">
        <ele>53</ele>
        <time>2015-04-07T14:34:26.000Z</time>
      </trkpt>
      <trkpt lat="50.83944" lon="1.59833">
        <ele>53</ele>
        <time>2015-04-07T14:34:27.000Z</time>
      </trkpt>
      <trkpt lat="50.83944" lon="1.59833">
        <ele>53</ele>
        <time>2015-04-07T14:34:28.000Z</time>
      </trkpt>
      <trkpt lat="50.83944" lon="1.59833">
        <ele>53</ele>
        <time>2015-04-07T14:34:29.000Z</time>
      </trkpt>
      <trkpt lat="50.83944" lon="1.59833">
        <ele>53</ele>
        <time>2015-04-07T14:34:30.000Z</time>
      </trkpt>
      <trkpt lat="50.83944" lon="1.59833">
        <ele>53</ele>
        <time>2015-04-07T14:34:31.000Z</time>
      </trkpt>
      <trkpt lat="50.83944" lon="1.59833">
        <ele>53</ele>
        <time>2015-04-07T14:34:32.000Z</time>
      </trkpt>
      <trkpt lat="50.83944" lon="1.59833">
        <ele>53</ele>
        <time>2015-04-07T14:34:33.000Z</time>
      </trkpt>
      <trkpt lat="50.83945" lon="1.59834">
        <ele>53</ele>
        <time>2015-04-07T14:34:34.000Z</time>
      </trkpt>
      <trkpt lat="50.83945" lon="1.59834">
        <ele>53</ele>
        <time>2015-04-07T14:34:35.000Z</time>
      </trkpt>
      <trkpt lat="50.83945" lon="1.59834">
        <ele>53</ele>
        <time>2015-04-07T14:34:36.000Z</time>
      </trkpt>
      <trkpt lat="50.83945" lon="1.59834">
        <ele>53</ele>
        <time>2015-04-07T14:34:37.000Z</time>
      </trkpt>
      <trkpt lat="50.83945" lon="1.59834">
        <ele>53</ele>
        <time>2015-04-07T14:34:38.000Z</time>
      </trkpt>
      <trkpt lat="50.83945" lon="1.59834">
        <ele>53</ele>
        <time>2015-04-07T14:34:39.000Z</time>
      </trkpt>
      <trkpt lat="50.83945" lon="1.59834">
        <ele>53</ele>
        <time>2015-04-07T14:34:40.000Z</time>
      </trkpt>
      <trkpt lat="50.83945" lon="1.59835">
        <ele>53.1</ele>
        <time>2015-04-07T14:34:41.000Z</time>
      </trkpt>
      <trkpt lat="50.83945" lon="1.59835">
        <ele>53.1</ele>
        <time>2015-04-07T14:34:42.000Z</time>
      </trkpt>
      <trkpt lat="50.83945" lon="1.59835">
        <ele>53.1</ele>
        <time>2015-04-07T14:34:43.000Z</time>
      </trkpt>
      <trkpt lat="50.83945" lon="1.59835">
        <ele>53.1</ele>
        <time>2015-04-07T14:34:44.000Z</time>
      </trkpt>
      <trkpt lat="50.83945" lon="1.59835">
        <ele>53.1</ele>
        <time>2015-04-07T14:34:45.000Z</time>
      </trkpt>
      <trkpt lat="50.83945" lon="1.59835">
        <ele>53.1</ele>
        <time>2015-04-07T14:34:46.000Z</time>
      </trkpt>
      <trkpt lat="50.83945" lon="1.59835">
        <ele>53.1</ele>
        <time>2015-04-07T14:34:47.000Z</time>
      </trkpt>
      <trkpt lat="50.83944" lon="1.59835">
        <ele>53.1</ele>
        <time>2015-04-07T14:34:48.000Z</time>
      </trkpt>
      <trkpt lat="50.83944" lon="1.59835">
        <ele>53.1</ele>
        <time>2015-04-07T14:34:49.000Z</time>
      </trkpt>
      <trkpt lat="50.83944" lon="1.59835">
        <ele>53.1</ele>
        <time>2015-04-07T14:34:50.000Z</time>
      </trkpt>
      <trkpt lat="50.83944" lon="1.59835">
        <ele>53.1</ele>
        <time>2015-04-07T14:34:51.000Z</time>
      </trkpt>
      <trkpt lat="50.83944" lon="1.59835">
        <ele>53.1</ele>
        <time>2015-04-07T14:34:52.000Z</time>
      </trkpt>
      <trkpt lat="50.83944" lon="1.59835">
        <ele>53.1</ele>
        <time>2015-04-07T14:34:53.000Z</time>
      </trkpt>
      <trkpt lat="50.83944" lon="1.59835">
        <ele>53.1</ele>
        <time>2015-04-07T14:34:54.000Z</time>
      </trkpt>
      <trkpt lat="50.83944" lon="1.59835">
        <ele>53.1</ele>
        <time>2015-04-07T14:34:55.000Z</time>
      </trkpt>
      <trkpt lat="50.83944" lon="1.59835">
        <ele>53.1</ele>
        <time>2015-04-07T14:34:56.000Z</time>
      </trkpt>
      <trkpt lat="50.83944" lon="1.59835">
        <ele>53.1</ele>
        <time>2015-04-07T14:34:57.000Z</time>
      </trkpt>
      <trkpt lat="50.83944" lon="1.59835">
        <ele>53.1</ele>
        <time>2015-04-07T14:34:58.000Z</time>
      </trkpt>
      <trkpt lat="50.83944" lon="1.59835">
        <ele>53.1</ele>
        <time>2015-04-07T14:34:59.000Z</time>
      </trkpt>
      <trkpt lat="50.83944" lon="1.59835">
        <ele>53.1</ele>
        <time>2015-04-07T14:35:00.000Z</time>
      </trkpt>
      <trkpt lat="50.83944" lon="1.59835">
        <ele>53.1</ele>
        <time>2015-04-07T14:35:01.000Z</time>
      </trkpt>
      <trkpt lat="50.83944" lon="1.59835">
        <ele>53.1</ele>
        <time>2015-04-07T14:35:02.000Z</time>
      </trkpt>
      <trkpt lat="50.83944" lon="1.59835">
        <ele>53.1</ele>
        <time>2015-04-07T14:35:03.000Z</time>
      </trkpt>
      <trkpt lat="50.83944" lon="1.59835">
        <ele>53.1</ele>
        <time>2015-04-07T14:35:04.000Z</time>
      </trkpt>
      <trkpt lat="50.83944" lon="1.59835">
        <ele>53.1</ele>
        <time>2015-04-07T14:35:05.000Z</time>
      </trkpt>
      <trkpt lat="50.83944" lon="1.59835">
        <ele>53.1</ele>
        <time>2015-04-07T14:35:06.000Z</time>
      </trkpt>
      <trkpt lat="50.83944" lon="1.59835">
        <ele>53.1</ele>
        <time>2015-04-07T14:35:07.000Z</time>
      </trkpt>
      <trkpt lat="50.83944" lon="1.59835">
        <ele>53.1</ele>
        <time>2015-04-07T14:35:08.000Z</time>
      </trkpt>
      <trkpt lat="50.83944" lon="1.59835">
        <ele>53.1</ele>
        <time>2015-04-07T14:35:09.000Z</time>
      </trkpt>
      <trkpt lat="50.83944" lon="1.59835">
        <ele>53.1</ele>
        <time>2015-04-07T14:35:10.000Z</time>
      </trkpt>
      <trkpt lat="50.83944" lon="1.59835">
        <ele>53.1</ele>
        <time>2015-04-07T14:35:11.000Z</time>
      </trkpt>
      <trkpt lat="50.83944" lon="1.59835">
        <ele>53.1</ele>
        <time>2015-04-07T14:35:12.000Z</time>
      </trkpt>
      <trkpt lat="50.83944" lon="1.59835">
        <ele>53.1</ele>
        <time>2015-04-07T14:35:13.000Z</time>
      </trkpt>
      <trkpt lat="50.83944" lon="1.59835">
        <ele>53.1</ele>
        <time>2015-04-07T14:35:14.000Z</time>
      </trkpt>
      <trkpt lat="50.83944" lon="1.59835">
        <ele>53.1</ele>
        <time>2015-04-07T14:35:15.000Z</time>
      </trkpt>
      <trkpt lat="50.83944" lon="1.59835">
        <ele>53.1</ele>
        <time>2015-04-07T14:35:16.000Z</time>
      </trkpt>
      <trkpt lat="50.83944" lon="1.59835">
        <ele>53.1</ele>
        <time>2015-04-07T14:35:17.000Z</time>
      </trkpt>
      <trkpt lat="50.83944" lon="1.59835">
        <ele>53.1</ele>
        <time>2015-04-07T14:35:18.000Z</time>
      </trkpt>
      <trkpt lat="50.83944" lon="1.59835">
        <ele>53.1</ele>
        <time>2015-04-07T14:35:19.000Z</time>
      </trkpt>
      <trkpt lat="50.83944" lon="1.59835">
        <ele>53.1</ele>
        <time>2015-04-07T14:35:20.000Z</time>
      </trkpt>
      <trkpt lat="50.83944" lon="1.59835">
        <ele>53.1</ele>
        <time>2015-04-07T14:35:21.000Z</time>
      </trkpt>
      <trkpt lat="50.83944" lon="1.59835">
        <ele>53.1</ele>
        <time>2015-04-07T14:35:22.000Z</time>
      </trkpt>
      <trkpt lat="50.83944" lon="1.59835">
        <ele>53.1</ele>
        <time>2015-04-07T14:35:23.000Z</time>
      </trkpt>
      <trkpt lat="50.83944" lon="1.59835">
        <ele>53.1</ele>
        <time>2015-04-07T14:35:24.000Z</time>
      </trkpt>
      <trkpt lat="50.83944" lon="1.59835">
        <ele>53.1</ele>
        <time>2015-04-07T14:35:25.000Z</time>
      </trkpt>
      <trkpt lat="50.83944" lon="1.59835">
        <ele>53.1</ele>
        <time>2015-04-07T14:35:26.000Z</time>
      </trkpt>
      <trkpt lat="50.83944" lon="1.59835">
        <ele>53.1</ele>
        <time>2015-04-07T14:35:27.000Z</time>
      </trkpt>
      <trkpt lat="50.83944" lon="1.59835">
        <ele>53.1</ele>
        <time>2015-04-07T14:35:28.000Z</time>
      </trkpt>
      <trkpt lat="50.83944" lon="1.59836">
        <ele>53.1</ele>
        <time>2015-04-07T14:35:29.000Z</time>
      </trkpt>
      <trkpt lat="50.83944" lon="1.59836">
        <ele>53.1</ele>
        <time>2015-04-07T14:35:30.000Z</time>
      </trkpt>
      <trkpt lat="50.83944" lon="1.59836">
        <ele>53.1</ele>
        <time>2015-04-07T14:35:31.000Z</time>
      </trkpt>
      <trkpt lat="50.83944" lon="1.59836">
        <ele>53.1</ele>
        <time>2015-04-07T14:35:32.000Z</time>
      </trkpt>
      <trkpt lat="50.83944" lon="1.59836">
        <ele>53.1</ele>
        <time>2015-04-07T14:35:33.000Z</time>
      </trkpt>
      <trkpt lat="50.83944" lon="1.59836">
        <ele>53.1</ele>
        <time>2015-04-07T14:35:34.000Z</time>
      </trkpt>
      <trkpt lat="50.83944" lon="1.59836">
        <ele>53.1</ele>
        <time>2015-04-07T14:35:35.000Z</time>
      </trkpt>
      <trkpt lat="50.83944" lon="1.59836">
        <ele>53.1</ele>
        <time>2015-04-07T14:35:36.000Z</time>
      </trkpt>
      <trkpt lat="50.83944" lon="1.59836">
        <ele>53.1</ele>
        <time>2015-04-07T14:35:37.000Z</time>
      </trkpt>
      <trkpt lat="50.83944" lon="1.59836">
        <ele>53.1</ele>
        <time>2015-04-07T14:35:38.000Z</time>
      </trkpt>
      <trkpt lat="50.83944" lon="1.59835">
        <ele>53.1</ele>
        <time>2015-04-07T14:35:39.000Z</time>
      </trkpt>
      <trkpt lat="50.83944" lon="1.59835">
        <ele>53.1</ele>
        <time>2015-04-07T14:35:40.000Z</time>
      </trkpt>
      <trkpt lat="50.83944" lon="1.59834">
        <ele>53</ele>
        <time>2015-04-07T14:35:41.000Z</time>
      </trkpt>
      <trkpt lat="50.83944" lon="1.59834">
        <ele>53</ele>
        <time>2015-04-07T14:35:42.000Z</time>
      </trkpt>
      <trkpt lat="50.83944" lon="1.59834">
        <ele>53</ele>
        <time>2015-04-07T14:35:43.000Z</time>
      </trkpt>
      <trkpt lat="50.83944" lon="1.59834">
        <ele>53</ele>
        <time>2015-04-07T14:35:44.000Z</time>
      </trkpt>
      <trkpt lat="50.83944" lon="1.59834">
        <ele>53</ele>
        <time>2015-04-07T14:35:45.000Z</time>
      </trkpt>
      <trkpt lat="50.83944" lon="1.59834">
        <ele>53</ele>
        <time>2015-04-07T14:35:46.000Z</time>
      </trkpt>
      <trkpt lat="50.83944" lon="1.59834">
        <ele>53</ele>
        <time>2015-04-07T14:35:47.000Z</time>
      </trkpt>
      <trkpt lat="50.83944" lon="1.59834">
        <ele>53</ele>
        <time>2015-04-07T14:35:48.000Z</time>
      </trkpt>
      <trkpt lat="50.83944" lon="1.59834">
        <ele>53</ele>
        <time>2015-04-07T14:35:49.000Z</time>
      </trkpt>
      <trkpt lat="50.83944" lon="1.59834">
        <ele>53</ele>
        <time>2015-04-07T14:35:50.000Z</time>
      </trkpt>
      <trkpt lat="50.83944" lon="1.59834">
        <ele>53</ele>
        <time>2015-04-07T14:35:51.000Z</time>
      </trkpt>
      <trkpt lat="50.83944" lon="1.59834">
        <ele>53</ele>
        <time>2015-04-07T14:35:52.000Z</time>
      </trkpt>
      <trkpt lat="50.83944" lon="1.59834">
        <ele>53</ele>
        <time>2015-04-07T14:35:53.000Z</time>
      </trkpt>
      <trkpt lat="50.83944" lon="1.59834">
        <ele>53</ele>
        <time>2015-04-07T14:35:54.000Z</time>
      </trkpt>
      <trkpt lat="50.83944" lon="1.59834">
        <ele>53</ele>
        <time>2015-04-07T14:35:55.000Z</time>
      </trkpt>
      <trkpt lat="50.83944" lon="1.59834">
        <ele>53</ele>
        <time>2015-04-07T14:35:56.000Z</time>
      </trkpt>
      <trkpt lat="50.83944" lon="1.59834">
        <ele>53</ele>
        <time>2015-04-07T14:35:57.000Z</time>
      </trkpt>
      <trkpt lat="50.83944" lon="1.59834">
        <ele>53</ele>
        <time>2015-04-07T14:35:58.000Z</time>
      </trkpt>
      <trkpt lat="50.83944" lon="1.59834">
        <ele>53</ele>
        <time>2015-04-07T14:35:59.000Z</time>
      </trkpt>
      <trkpt lat="50.83944" lon="1.59834">
        <ele>53</ele>
        <time>2015-04-07T14:36:00.000Z</time>
      </trkpt>
      <trkpt lat="50.83944" lon="1.59834">
        <ele>53</ele>
        <time>2015-04-07T14:36:01.000Z</time>
      </trkpt>
      <trkpt lat="50.83944" lon="1.59835">
        <ele>53</ele>
        <time>2015-04-07T14:36:02.000Z</time>
      </trkpt>
      <trkpt lat="50.83944" lon="1.59835">
        <ele>53</ele>
        <time>2015-04-07T14:36:03.000Z</time>
      </trkpt>
      <trkpt lat="50.83944" lon="1.59835">
        <ele>53</ele>
        <time>2015-04-07T14:36:04.000Z</time>
      </trkpt>
      <trkpt lat="50.83944" lon="1.59835">
        <ele>53</ele>
        <time>2015-04-07T14:36:05.000Z</time>
      </trkpt>
      <trkpt lat="50.83944" lon="1.59835">
        <ele>53</ele>
        <time>2015-04-07T14:36:06.000Z</time>
      </trkpt>
      <trkpt lat="50.83944" lon="1.59835">
        <ele>53</ele>
        <time>2015-04-07T14:36:07.000Z</time>
      </trkpt>
      <trkpt lat="50.83944" lon="1.59835">
        <ele>53</ele>
        <time>2015-04-07T14:36:08.000Z</time>
      </trkpt>
      <trkpt lat="50.83944" lon="1.59835">
        <ele>53</ele>
        <time>2015-04-07T14:36:09.000Z</time>
      </trkpt>
      <trkpt lat="50.83944" lon="1.59835">
        <ele>53</ele>
        <time>2015-04-07T14:36:10.000Z</time>
      </trkpt>
      <trkpt lat="50.83944" lon="1.59835">
        <ele>53</ele>
        <time>2015-04-07T14:36:11.000Z</time>
      </trkpt>
      <trkpt lat="50.83944" lon="1.59835">
        <ele>53</ele>
        <time>2015-04-07T14:36:12.000Z</time>
      </trkpt>
      <trkpt lat="50.83944" lon="1.59835">
        <ele>53</ele>
        <time>2015-04-07T14:36:13.000Z</time>
      </trkpt>
      <trkpt lat="50.83944" lon="1.59835">
        <ele>53</ele>
        <time>2015-04-07T14:36:14.000Z</time>
      </trkpt>
      <trkpt lat="50.83944" lon="1.59835">
        <ele>53</ele>
        <time>2015-04-07T14:36:15.000Z</time>
      </trkpt>
      <trkpt lat="50.83944" lon="1.59835">
        <ele>53</ele>
        <time>2015-04-07T14:36:16.000Z</time>
      </trkpt>
      <trkpt lat="50.83944" lon="1.59835">
        <ele>53</ele>
        <time>2015-04-07T14:36:17.000Z</time>
      </trkpt>
      <trkpt lat="50.83944" lon="1.59835">
        <ele>53</ele>
        <time>2015-04-07T14:36:18.000Z</time>
      </trkpt>
      <trkpt lat="50.83944" lon="1.59835">
        <ele>53</ele>
        <time>2015-04-07T14:36:19.000Z</time>
      </trkpt>
      <trkpt lat="50.83944" lon="1.59835">
        <ele>53.1</ele>
        <time>2015-04-07T14:36:20.000Z</time>
      </trkpt>
      <trkpt lat="50.83944" lon="1.59835">
        <ele>53.1</ele>
        <time>2015-04-07T14:36:21.000Z</time>
      </trkpt>
      <trkpt lat="50.83944" lon="1.59835">
        <ele>53.1</ele>
        <time>2015-04-07T14:36:22.000Z</time>
      </trkpt>
      <trkpt lat="50.83943" lon="1.59836">
        <ele>53.1</ele>
        <time>2015-04-07T14:36:23.000Z</time>
      </trkpt>
      <trkpt lat="50.83943" lon="1.59836">
        <ele>53.1</ele>
        <time>2015-04-07T14:36:24.000Z</time>
      </trkpt>
      <trkpt lat="50.83943" lon="1.59836">
        <ele>53.1</ele>
        <time>2015-04-07T14:36:25.000Z</time>
      </trkpt>
      <trkpt lat="50.83943" lon="1.59836">
        <ele>53.1</ele>
        <time>2015-04-07T14:36:26.000Z</time>
      </trkpt>
      <trkpt lat="50.83943" lon="1.59836">
        <ele>53.1</ele>
        <time>2015-04-07T14:36:27.000Z</time>
      </trkpt>
      <trkpt lat="50.83944" lon="1.59836">
        <ele>53.1</ele>
        <time>2015-04-07T14:36:28.000Z</time>
      </trkpt>
      <trkpt lat="50.83944" lon="1.59836">
        <ele>53.1</ele>
        <time>2015-04-07T14:36:29.000Z</time>
      </trkpt>
      <trkpt lat="50.83944" lon="1.59836">
        <ele>53.1</ele>
        <time>2015-04-07T14:36:30.000Z</time>
      </trkpt>
      <trkpt lat="50.83944" lon="1.59836">
        <ele>53.1</ele>
        <time>2015-04-07T14:36:31.000Z</time>
      </trkpt>
      <trkpt lat="50.83944" lon="1.59836">
        <ele>53.1</ele>
        <time>2015-04-07T14:36:32.000Z</time>
      </trkpt>
      <trkpt lat="50.83944" lon="1.59836">
        <ele>53.1</ele>
        <time>2015-04-07T14:36:33.000Z</time>
      </trkpt>
      <trkpt lat="50.83944" lon="1.59836">
        <ele>53.1</ele>
        <time>2015-04-07T14:36:34.000Z</time>
      </trkpt>
      <trkpt lat="50.83944" lon="1.59836">
        <ele>53.1</ele>
        <time>2015-04-07T14:36:35.000Z</time>
      </trkpt>
      <trkpt lat="50.83944" lon="1.59836">
        <ele>53.1</ele>
        <time>2015-04-07T14:36:36.000Z</time>
      </trkpt>
      <trkpt lat="50.83944" lon="1.59836">
        <ele>53.1</ele>
        <time>2015-04-07T14:36:37.000Z</time>
      </trkpt>
      <trkpt lat="50.83944" lon="1.59836">
        <ele>53.1</ele>
        <time>2015-04-07T14:36:38.000Z</time>
      </trkpt>
      <trkpt lat="50.83944" lon="1.59836">
        <ele>53.1</ele>
        <time>2015-04-07T14:36:39.000Z</time>
      </trkpt>
      <trkpt lat="50.83943" lon="1.59836">
        <ele>53.1</ele>
        <time>2015-04-07T14:36:40.000Z</time>
      </trkpt>
      <trkpt lat="50.83943" lon="1.59836">
        <ele>53.1</ele>
        <time>2015-04-07T14:36:41.000Z</time>
      </trkpt>
      <trkpt lat="50.83943" lon="1.59836">
        <ele>53.1</ele>
        <time>2015-04-07T14:36:42.000Z</time>
      </trkpt>
      <trkpt lat="50.83943" lon="1.59836">
        <ele>53.1</ele>
        <time>2015-04-07T14:36:43.000Z</time>
      </trkpt>
      <trkpt lat="50.83943" lon="1.59836">
        <ele>53.1</ele>
        <time>2015-04-07T14:36:44.000Z</time>
      </trkpt>
      <trkpt lat="50.83943" lon="1.59836">
        <ele>53.1</ele>
        <time>2015-04-07T14:36:45.000Z</time>
      </trkpt>
      <trkpt lat="50.83943" lon="1.59836">
        <ele>53.1</ele>
        <time>2015-04-07T14:36:46.000Z</time>
      </trkpt>
      <trkpt lat="50.83943" lon="1.59836">
        <ele>53.1</ele>
        <time>2015-04-07T14:36:47.000Z</time>
      </trkpt>
      <trkpt lat="50.83943" lon="1.59836">
        <ele>53.1</ele>
        <time>2015-04-07T14:36:48.000Z</time>
      </trkpt>
      <trkpt lat="50.83943" lon="1.59836">
        <ele>53.1</ele>
        <time>2015-04-07T14:36:49.000Z</time>
      </trkpt>
      <trkpt lat="50.83943" lon="1.59836">
        <ele>53.1</ele>
        <time>2015-04-07T14:36:50.000Z</time>
      </trkpt>
      <trkpt lat="50.83943" lon="1.59836">
        <ele>53.1</ele>
        <time>2015-04-07T14:36:51.000Z</time>
      </trkpt>
      <trkpt lat="50.83943" lon="1.59836">
        <ele>53.1</ele>
        <time>2015-04-07T14:36:52.000Z</time>
      </trkpt>
      <trkpt lat="50.83943" lon="1.59836">
        <ele>53.1</ele>
        <time>2015-04-07T14:36:53.000Z</time>
      </trkpt>
      <trkpt lat="50.83943" lon="1.59836">
        <ele>53.1</ele>
        <time>2015-04-07T14:36:54.000Z</time>
      </trkpt>
      <trkpt lat="50.83943" lon="1.59836">
        <ele>53.1</ele>
        <time>2015-04-07T14:36:55.000Z</time>
      </trkpt>
      <trkpt lat="50.83943" lon="1.59836">
        <ele>53.1</ele>
        <time>2015-04-07T14:36:56.000Z</time>
      </trkpt>
      <trkpt lat="50.83943" lon="1.59836">
        <ele>53.1</ele>
        <time>2015-04-07T14:36:57.000Z</time>
      </trkpt>
      <trkpt lat="50.83943" lon="1.59836">
        <ele>53.1</ele>
        <time>2015-04-07T14:36:58.000Z</time>
      </trkpt>
      <trkpt lat="50.83943" lon="1.59836">
        <ele>53.1</ele>
        <time>2015-04-07T14:36:59.000Z</time>
      </trkpt>
      <trkpt lat="50.83943" lon="1.59836">
        <ele>53.1</ele>
        <time>2015-04-07T14:37:00.000Z</time>
      </trkpt>
      <trkpt lat="50.83943" lon="1.59836">
        <ele>53.1</ele>
        <time>2015-04-07T14:37:01.000Z</time>
      </trkpt>
      <trkpt lat="50.83943" lon="1.59836">
        <ele>53.1</ele>
        <time>2015-04-07T14:37:02.000Z</time>
      </trkpt>
      <trkpt lat="50.83943" lon="1.59836">
        <ele>53.1</ele>
        <time>2015-04-07T14:37:03.000Z</time>
      </trkpt>
      <trkpt lat="50.83943" lon="1.59836">
        <ele>53.1</ele>
        <time>2015-04-07T14:37:04.000Z</time>
      </trkpt>
      <trkpt lat="50.83943" lon="1.59836">
        <ele>53.1</ele>
        <time>2015-04-07T14:37:05.000Z</time>
      </trkpt>
      <trkpt lat="50.83943" lon="1.59836">
        <ele>53.1</ele>
        <time>2015-04-07T14:37:06.000Z</time>
      </trkpt>
      <trkpt lat="50.83943" lon="1.59836">
        <ele>53.1</ele>
        <time>2015-04-07T14:37:07.000Z</time>
      </trkpt>
      <trkpt lat="50.83943" lon="1.59836">
        <ele>53.1</ele>
        <time>2015-04-07T14:37:08.000Z</time>
      </trkpt>
      <trkpt lat="50.83943" lon="1.59836">
        <ele>53.1</ele>
        <time>2015-04-07T14:37:09.000Z</time>
      </trkpt>
      <trkpt lat="50.83943" lon="1.59836">
        <ele>53.1</ele>
        <time>2015-04-07T14:37:10.000Z</time>
      </trkpt>
      <trkpt lat="50.83943" lon="1.59836">
        <ele>53.1</ele>
        <time>2015-04-07T14:37:11.000Z</time>
      </trkpt>
      <trkpt lat="50.83943" lon="1.59836">
        <ele>53.1</ele>
        <time>2015-04-07T14:37:12.000Z</time>
      </trkpt>
      <trkpt lat="50.83943" lon="1.59836">
        <ele>53.1</ele>
        <time>2015-04-07T14:37:13.000Z</time>
      </trkpt>
      <trkpt lat="50.83943" lon="1.59836">
        <ele>53.1</ele>
        <time>2015-04-07T14:37:14.000Z</time>
      </trkpt>
      <trkpt lat="50.83944" lon="1.59836">
        <ele>53.1</ele>
        <time>2015-04-07T14:37:15.000Z</time>
      </trkpt>
      <trkpt lat="50.83944" lon="1.59836">
        <ele>53.1</ele>
        <time>2015-04-07T14:37:16.000Z</time>
      </trkpt>
      <trkpt lat="50.83944" lon="1.59836">
        <ele>53.1</ele>
        <time>2015-04-07T14:37:17.000Z</time>
      </trkpt>
      <trkpt lat="50.83944" lon="1.59836">
        <ele>53.1</ele>
        <time>2015-04-07T14:37:18.000Z</time>
      </trkpt>
      <trkpt lat="50.83944" lon="1.59836">
        <ele>53.1</ele>
        <time>2015-04-07T14:37:19.000Z</time>
      </trkpt>
      <trkpt lat="50.83944" lon="1.59835">
        <ele>53.1</ele>
        <time>2015-04-07T14:37:20.000Z</time>
      </trkpt>
      <trkpt lat="50.83945" lon="1.59835">
        <ele>53.1</ele>
        <time>2015-04-07T14:37:21.000Z</time>
      </trkpt>
      <trkpt lat="50.83945" lon="1.59834">
        <ele>53.1</ele>
        <time>2015-04-07T14:37:22.000Z</time>
      </trkpt>
      <trkpt lat="50.83946" lon="1.59834">
        <ele>53.1</ele>
        <time>2015-04-07T14:37:23.000Z</time>
      </trkpt>
      <trkpt lat="50.83946" lon="1.59833">
        <ele>53.1</ele>
        <time>2015-04-07T14:37:24.000Z</time>
      </trkpt>
      <trkpt lat="50.83947" lon="1.59832">
        <ele>53.2</ele>
        <time>2015-04-07T14:37:25.000Z</time>
      </trkpt>
      <trkpt lat="50.83947" lon="1.59832">
        <ele>53.2</ele>
        <time>2015-04-07T14:37:26.000Z</time>
      </trkpt>
      <trkpt lat="50.83948" lon="1.59831">
        <ele>53.2</ele>
        <time>2015-04-07T14:37:27.000Z</time>
      </trkpt>
      <trkpt lat="50.83949" lon="1.5983">
        <ele>53.3</ele>
        <time>2015-04-07T14:37:28.000Z</time>
      </trkpt>
      <trkpt lat="50.83949" lon="1.5983">
        <ele>53.3</ele>
        <time>2015-04-07T14:37:29.000Z</time>
      </trkpt>
      <trkpt lat="50.8395" lon="1.59829">
        <ele>53.4</ele>
        <time>2015-04-07T14:37:30.000Z</time>
      </trkpt>
      <trkpt lat="50.83951" lon="1.59829">
        <ele>53.4</ele>
        <time>2015-04-07T14:37:31.000Z</time>
      </trkpt>
      <trkpt lat="50.83952" lon="1.59828">
        <ele>53.5</ele>
        <time>2015-04-07T14:37:32.000Z</time>
      </trkpt>
      <trkpt lat="50.83952" lon="1.59828">
        <ele>53.5</ele>
        <time>2015-04-07T14:37:33.000Z</time>
      </trkpt>
      <trkpt lat="50.83953" lon="1.59828">
        <ele>53.5</ele>
        <time>2015-04-07T14:37:34.000Z</time>
      </trkpt>
      <trkpt lat="50.83954" lon="1.59827">
        <ele>53.6</ele>
        <time>2015-04-07T14:37:35.000Z</time>
      </trkpt>
      <trkpt lat="50.83955" lon="1.59827">
        <ele>53.6</ele>
        <time>2015-04-07T14:37:36.000Z</time>
      </trkpt>
      <trkpt lat="50.83955" lon="1.59827">
        <ele>53.7</ele>
        <time>2015-04-07T14:37:37.000Z</time>
      </trkpt>
      <trkpt lat="50.83956" lon="1.59826">
        <ele>53.7</ele>
        <time>2015-04-07T14:37:38.000Z</time>
      </trkpt>
      <trkpt lat="50.83957" lon="1.59826">
        <ele>53.8</ele>
        <time>2015-04-07T14:37:39.000Z</time>
      </trkpt>
      <trkpt lat="50.83958" lon="1.59825">
        <ele>53.8</ele>
        <time>2015-04-07T14:37:40.000Z</time>
      </trkpt>
      <trkpt lat="50.83959" lon="1.59825">
        <ele>53.9</ele>
        <time>2015-04-07T14:37:41.000Z</time>
      </trkpt>
      <trkpt lat="50.8396" lon="1.59824">
        <ele>53.9</ele>
        <time>2015-04-07T14:37:42.000Z</time>
      </trkpt>
      <trkpt lat="50.83962" lon="1.59821">
        <ele>54</ele>
        <time>2015-04-07T14:37:43.000Z</time>
      </trkpt>
      <trkpt lat="50.83962" lon="1.59821">
        <ele>54</ele>
        <time>2015-04-07T14:37:44.000Z</time>
      </trkpt>
      <trkpt lat="50.83962" lon="1.5982">
        <ele>54</ele>
        <time>2015-04-07T14:37:45.000Z</time>
      </trkpt>
      <trkpt lat="50.83962" lon="1.5982">
        <ele>54</ele>
        <time>2015-04-07T14:37:46.000Z</time>
      </trkpt>
      <trkpt lat="50.83964" lon="1.59819">
        <ele>54</ele>
        <time>2015-04-07T14:37:47.000Z</time>
      </trkpt>
      <trkpt lat="50.83964" lon="1.59819">
        <ele>54</ele>
        <time>2015-04-07T14:37:48.000Z</time>
      </trkpt>
      <trkpt lat="50.83964" lon="1.59819">
        <ele>54</ele>
        <time>2015-04-07T14:37:49.000Z</time>
      </trkpt>
      <trkpt lat="50.83964" lon="1.59818">
        <ele>54</ele>
        <time>2015-04-07T14:37:50.000Z</time>
      </trkpt>
      <trkpt lat="50.83965" lon="1.59818">
        <ele>54.1</ele>
        <time>2015-04-07T14:37:51.000Z</time>
      </trkpt>
      <trkpt lat="50.83965" lon="1.59817">
        <ele>54.1</ele>
        <time>2015-04-07T14:37:52.000Z</time>
      </trkpt>
      <trkpt lat="50.83966" lon="1.59817">
        <ele>54.1</ele>
        <time>2015-04-07T14:37:53.000Z</time>
      </trkpt>
      <trkpt lat="50.83967" lon="1.59816">
        <ele>54.1</ele>
        <time>2015-04-07T14:37:54.000Z</time>
      </trkpt>
      <trkpt lat="50.83968" lon="1.59816">
        <ele>54.1</ele>
        <time>2015-04-07T14:37:55.000Z</time>
      </trkpt>
      <trkpt lat="50.83968" lon="1.59815">
        <ele>54.2</ele>
        <time>2015-04-07T14:37:56.000Z</time>
      </trkpt>
      <trkpt lat="50.83969" lon="1.59815">
        <ele>54.2</ele>
        <time>2015-04-07T14:37:57.000Z</time>
      </trkpt>
      <trkpt lat="50.8397" lon="1.59814">
        <ele>54.2</ele>
        <time>2015-04-07T14:37:58.000Z</time>
      </trkpt>
      <trkpt lat="50.83971" lon="1.59814">
        <ele>54.2</ele>
        <time>2015-04-07T14:37:59.000Z</time>
      </trkpt>
      <trkpt lat="50.83971" lon="1.59814">
        <ele>54.3</ele>
        <time>2015-04-07T14:38:00.000Z</time>
      </trkpt>
      <trkpt lat="50.83972" lon="1.59813">
        <ele>54.3</ele>
        <time>2015-04-07T14:38:01.000Z</time>
      </trkpt>
      <trkpt lat="50.83973" lon="1.59813">
        <ele>54.3</ele>
        <time>2015-04-07T14:38:02.000Z</time>
      </trkpt>
      <trkpt lat="50.83974" lon="1.59813">
        <ele>54.3</ele>
        <time>2015-04-07T14:38:03.000Z</time>
      </trkpt>
      <trkpt lat="50.83976" lon="1.59811">
        <ele>54.3</ele>
        <time>2015-04-07T14:38:04.000Z</time>
      </trkpt>
      <trkpt lat="50.83976" lon="1.59811">
        <ele>54.3</ele>
        <time>2015-04-07T14:38:05.000Z</time>
      </trkpt>
      <trkpt lat="50.83976" lon="1.5981">
        <ele>54.3</ele>
        <time>2015-04-07T14:38:06.000Z</time>
      </trkpt>
      <trkpt lat="50.83977" lon="1.5981">
        <ele>54.3</ele>
        <time>2015-04-07T14:38:07.000Z</time>
      </trkpt>
      <trkpt lat="50.83977" lon="1.59809">
        <ele>54.3</ele>
        <time>2015-04-07T14:38:08.000Z</time>
      </trkpt>
      <trkpt lat="50.83978" lon="1.59808">
        <ele>54.3</ele>
        <time>2015-04-07T14:38:09.000Z</time>
      </trkpt>
      <trkpt lat="50.83978" lon="1.59808">
        <ele>54.3</ele>
        <time>2015-04-07T14:38:10.000Z</time>
      </trkpt>
      <trkpt lat="50.83979" lon="1.59807">
        <ele>54.3</ele>
        <time>2015-04-07T14:38:11.000Z</time>
      </trkpt>
      <trkpt lat="50.83979" lon="1.59806">
        <ele>54.3</ele>
        <time>2015-04-07T14:38:12.000Z</time>
      </trkpt>
      <trkpt lat="50.8398" lon="1.59806">
        <ele>54.3</ele>
        <time>2015-04-07T14:38:13.000Z</time>
      </trkpt>
      <trkpt lat="50.8398" lon="1.59805">
        <ele>54.3</ele>
        <time>2015-04-07T14:38:14.000Z</time>
      </trkpt>
      <trkpt lat="50.83981" lon="1.59804">
        <ele>54.3</ele>
        <time>2015-04-07T14:38:15.000Z</time>
      </trkpt>
      <trkpt lat="50.83981" lon="1.59803">
        <ele>54.3</ele>
        <time>2015-04-07T14:38:16.000Z</time>
      </trkpt>
      <trkpt lat="50.83981" lon="1.59803">
        <ele>54.3</ele>
        <time>2015-04-07T14:38:17.000Z</time>
      </trkpt>
      <trkpt lat="50.83982" lon="1.59802">
        <ele>54.3</ele>
        <time>2015-04-07T14:38:18.000Z</time>
      </trkpt>
      <trkpt lat="50.83985" lon="1.598">
        <ele>54.3</ele>
        <time>2015-04-07T14:38:19.000Z</time>
      </trkpt>
      <trkpt lat="50.83985" lon="1.598">
        <ele>54.3</ele>
        <time>2015-04-07T14:38:20.000Z</time>
      </trkpt>
      <trkpt lat="50.83985" lon="1.59799">
        <ele>54.3</ele>
        <time>2015-04-07T14:38:21.000Z</time>
      </trkpt>
      <trkpt lat="50.83985" lon="1.59799">
        <ele>54.3</ele>
        <time>2015-04-07T14:38:22.000Z</time>
      </trkpt>
      <trkpt lat="50.83985" lon="1.59798">
        <ele>54.3</ele>
        <time>2015-04-07T14:38:23.000Z</time>
      </trkpt>
      <trkpt lat="50.83986" lon="1.59797">
        <ele>54.3</ele>
        <time>2015-04-07T14:38:24.000Z</time>
      </trkpt>
      <trkpt lat="50.83986" lon="1.59796">
        <ele>54.3</ele>
        <time>2015-04-07T14:38:25.000Z</time>
      </trkpt>
      <trkpt lat="50.83987" lon="1.59795">
        <ele>54.3</ele>
        <time>2015-04-07T14:38:26.000Z</time>
      </trkpt>
      <trkpt lat="50.83987" lon="1.59794">
        <ele>54.3</ele>
        <time>2015-04-07T14:38:27.000Z</time>
      </trkpt>
      <trkpt lat="50.83988" lon="1.59793">
        <ele>54.3</ele>
        <time>2015-04-07T14:38:28.000Z</time>
      </trkpt>
      <trkpt lat="50.83988" lon="1.59792">
        <ele>54.3</ele>
        <time>2015-04-07T14:38:29.000Z</time>
      </trkpt>
      <trkpt lat="50.83988" lon="1.59791">
        <ele>54.3</ele>
        <time>2015-04-07T14:38:30.000Z</time>
      </trkpt>
      <trkpt lat="50.83988" lon="1.5979">
        <ele>54.4</ele>
        <time>2015-04-07T14:38:31.000Z</time>
      </trkpt>
      <trkpt lat="50.83989" lon="1.5979">
        <ele>54.4</ele>
        <time>2015-04-07T14:38:32.000Z</time>
      </trkpt>
      <trkpt lat="50.83989" lon="1.59789">
        <ele>54.4</ele>
        <time>2015-04-07T14:38:33.000Z</time>
      </trkpt>
      <trkpt lat="50.8399" lon="1.59788">
        <ele>54.4</ele>
        <time>2015-04-07T14:38:34.000Z</time>
      </trkpt>
      <trkpt lat="50.8399" lon="1.59787">
        <ele>54.4</ele>
        <time>2015-04-07T14:38:35.000Z</time>
      </trkpt>
      <trkpt lat="50.8399" lon="1.59786">
        <ele>54.4</ele>
        <time>2015-04-07T14:38:36.000Z</time>
      </trkpt>
      <trkpt lat="50.83991" lon="1.59785">
        <ele>54.4</ele>
        <time>2015-04-07T14:38:37.000Z</time>
      </trkpt>
      <trkpt lat="50.83991" lon="1.59784">
        <ele>54.4</ele>
        <time>2015-04-07T14:38:38.000Z</time>
      </trkpt>
      <trkpt lat="50.83991" lon="1.59783">
        <ele>54.4</ele>
        <time>2015-04-07T14:38:39.000Z</time>
      </trkpt>
      <trkpt lat="50.83991" lon="1.59782">
        <ele>54.4</ele>
        <time>2015-04-07T14:38:40.000Z</time>
      </trkpt>
      <trkpt lat="50.83993" lon="1.5978">
        <ele>54.5</ele>
        <time>2015-04-07T14:38:41.000Z</time>
      </trkpt>
      <trkpt lat="50.83993" lon="1.5978">
        <ele>54.5</ele>
        <time>2015-04-07T14:38:42.000Z</time>
      </trkpt>
      <trkpt lat="50.83993" lon="1.5978">
        <ele>54.5</ele>
        <time>2015-04-07T14:38:43.000Z</time>
      </trkpt>
      <trkpt lat="50.83993" lon="1.59779">
        <ele>54.5</ele>
        <time>2015-04-07T14:38:44.000Z</time>
      </trkpt>
      <trkpt lat="50.83993" lon="1.59779">
        <ele>54.5</ele>
        <time>2015-04-07T14:38:45.000Z</time>
      </trkpt>
      <trkpt lat="50.83993" lon="1.59778">
        <ele>54.5</ele>
        <time>2015-04-07T14:38:46.000Z</time>
      </trkpt>
      <trkpt lat="50.83993" lon="1.59778">
        <ele>54.5</ele>
        <time>2015-04-07T14:38:47.000Z</time>
      </trkpt>
      <trkpt lat="50.83993" lon="1.59778">
        <ele>54.5</ele>
        <time>2015-04-07T14:38:48.000Z</time>
      </trkpt>
      <trkpt lat="50.83993" lon="1.59778">
        <ele>54.5</ele>
        <time>2015-04-07T14:38:49.000Z</time>
      </trkpt>
      <trkpt lat="50.83993" lon="1.59778">
        <ele>54.5</ele>
        <time>2015-04-07T14:38:50.000Z</time>
      </trkpt>
      <trkpt lat="50.83993" lon="1.59778">
        <ele>54.5</ele>
        <time>2015-04-07T14:38:51.000Z</time>
      </trkpt>
      <trkpt lat="50.83993" lon="1.59778">
        <ele>54.5</ele>
        <time>2015-04-07T14:38:52.000Z</time>
      </trkpt>
      <trkpt lat="50.83994" lon="1.59778">
        <ele>54.5</ele>
        <time>2015-04-07T14:38:53.000Z</time>
      </trkpt>
      <trkpt lat="50.83994" lon="1.59778">
        <ele>54.6</ele>
        <time>2015-04-07T14:38:54.000Z</time>
      </trkpt>
      <trkpt lat="50.83994" lon="1.59778">
        <ele>54.6</ele>
        <time>2015-04-07T14:38:55.000Z</time>
      </trkpt>
      <trkpt lat="50.83995" lon="1.59779">
        <ele>54.6</ele>
        <time>2015-04-07T14:38:56.000Z</time>
      </trkpt>
      <trkpt lat="50.83995" lon="1.59779">
        <ele>54.7</ele>
        <time>2015-04-07T14:38:57.000Z</time>
      </trkpt>
      <trkpt lat="50.83996" lon="1.59779">
        <ele>54.7</ele>
        <time>2015-04-07T14:38:58.000Z</time>
      </trkpt>
      <trkpt lat="50.83997" lon="1.59778">
        <ele>54.8</ele>
        <time>2015-04-07T14:38:59.000Z</time>
      </trkpt>
      <trkpt lat="50.83997" lon="1.59778">
        <ele>54.8</ele>
        <time>2015-04-07T14:39:00.000Z</time>
      </trkpt>
      <trkpt lat="50.83997" lon="1.59778">
        <ele>54.8</ele>
        <time>2015-04-07T14:39:01.000Z</time>
      </trkpt>
      <trkpt lat="50.83997" lon="1.59778">
        <ele>54.8</ele>
        <time>2015-04-07T14:39:02.000Z</time>
      </trkpt>
      <trkpt lat="50.83997" lon="1.59778">
        <ele>54.8</ele>
        <time>2015-04-07T14:39:03.000Z</time>
      </trkpt>
      <trkpt lat="50.83997" lon="1.59778">
        <ele>54.8</ele>
        <time>2015-04-07T14:39:04.000Z</time>
      </trkpt>
      <trkpt lat="50.83997" lon="1.59778">
        <ele>54.8</ele>
        <time>2015-04-07T14:39:05.000Z</time>
      </trkpt>
      <trkpt lat="50.83997" lon="1.59778">
        <ele>54.8</ele>
        <time>2015-04-07T14:39:06.000Z</time>
      </trkpt>
      <trkpt lat="50.83997" lon="1.59777">
        <ele>54.8</ele>
        <time>2015-04-07T14:39:07.000Z</time>
      </trkpt>
      <trkpt lat="50.83997" lon="1.59777">
        <ele>54.9</ele>
        <time>2015-04-07T14:39:08.000Z</time>
      </trkpt>
      <trkpt lat="50.83997" lon="1.59776">
        <ele>54.9</ele>
        <time>2015-04-07T14:39:09.000Z</time>
      </trkpt>
      <trkpt lat="50.83997" lon="1.59776">
        <ele>54.9</ele>
        <time>2015-04-07T14:39:10.000Z</time>
      </trkpt>
      <trkpt lat="50.83997" lon="1.59776">
        <ele>54.9</ele>
        <time>2015-04-07T14:39:11.000Z</time>
      </trkpt>
      <trkpt lat="50.83997" lon="1.59776">
        <ele>54.9</ele>
        <time>2015-04-07T14:39:12.000Z</time>
      </trkpt>
      <trkpt lat="50.83997" lon="1.59776">
        <ele>54.9</ele>
        <time>2015-04-07T14:39:13.000Z</time>
      </trkpt>
      <trkpt lat="50.83997" lon="1.59776">
        <ele>54.9</ele>
        <time>2015-04-07T14:39:14.000Z</time>
      </trkpt>
      <trkpt lat="50.83997" lon="1.59776">
        <ele>55</ele>
        <time>2015-04-07T14:39:15.000Z</time>
      </trkpt>
      <trkpt lat="50.83997" lon="1.59775">
        <ele>55</ele>
        <time>2015-04-07T14:39:16.000Z</time>
      </trkpt>
      <trkpt lat="50.83997" lon="1.59775">
        <ele>55</ele>
        <time>2015-04-07T14:39:17.000Z</time>
      </trkpt>
      <trkpt lat="50.83997" lon="1.59775">
        <ele>55.1</ele>
        <time>2015-04-07T14:39:18.000Z</time>
      </trkpt>
      <trkpt lat="50.83997" lon="1.59775">
        <ele>55.1</ele>
        <time>2015-04-07T14:39:19.000Z</time>
      </trkpt>
      <trkpt lat="50.83997" lon="1.59775">
        <ele>55.1</ele>
        <time>2015-04-07T14:39:20.000Z</time>
      </trkpt>
      <trkpt lat="50.83997" lon="1.59775">
        <ele>55.1</ele>
        <time>2015-04-07T14:39:21.000Z</time>
      </trkpt>
      <trkpt lat="50.83997" lon="1.59775">
        <ele>55</ele>
        <time>2015-04-07T14:39:22.000Z</time>
      </trkpt>
      <trkpt lat="50.83997" lon="1.59776">
        <ele>55</ele>
        <time>2015-04-07T14:39:23.000Z</time>
      </trkpt>
      <trkpt lat="50.83998" lon="1.59776">
        <ele>55</ele>
        <time>2015-04-07T14:39:24.000Z</time>
      </trkpt>
      <trkpt lat="50.83998" lon="1.59777">
        <ele>54.9</ele>
        <time>2015-04-07T14:39:25.000Z</time>
      </trkpt>
      <trkpt lat="50.83998" lon="1.59777">
        <ele>54.9</ele>
        <time>2015-04-07T14:39:26.000Z</time>
      </trkpt>
      <trkpt lat="50.83998" lon="1.59779">
        <ele>54.9</ele>
        <time>2015-04-07T14:39:27.000Z</time>
      </trkpt>
      <trkpt lat="50.83998" lon="1.59779">
        <ele>54.9</ele>
        <time>2015-04-07T14:39:28.000Z</time>
      </trkpt>
      <trkpt lat="50.83998" lon="1.59779">
        <ele>54.9</ele>
        <time>2015-04-07T14:39:29.000Z</time>
      </trkpt>
      <trkpt lat="50.83998" lon="1.59779">
        <ele>54.9</ele>
        <time>2015-04-07T14:39:30.000Z</time>
      </trkpt>
      <trkpt lat="50.83998" lon="1.59779">
        <ele>54.9</ele>
        <time>2015-04-07T14:39:31.000Z</time>
      </trkpt>
      <trkpt lat="50.83998" lon="1.59779">
        <ele>54.9</ele>
        <time>2015-04-07T14:39:32.000Z</time>
      </trkpt>
      <trkpt lat="50.83998" lon="1.59779">
        <ele>54.9</ele>
        <time>2015-04-07T14:39:33.000Z</time>
      </trkpt>
      <trkpt lat="50.83998" lon="1.5978">
        <ele>54.9</ele>
        <time>2015-04-07T14:39:34.000Z</time>
      </trkpt>
      <trkpt lat="50.83998" lon="1.5978">
        <ele>54.9</ele>
        <time>2015-04-07T14:39:35.000Z</time>
      </trkpt>
      <trkpt lat="50.83998" lon="1.5978">
        <ele>54.9</ele>
        <time>2015-04-07T14:39:36.000Z</time>
      </trkpt>
      <trkpt lat="50.83998" lon="1.59781">
        <ele>54.9</ele>
        <time>2015-04-07T14:39:37.000Z</time>
      </trkpt>
      <trkpt lat="50.83999" lon="1.59782">
        <ele>54.9</ele>
        <time>2015-04-07T14:39:38.000Z</time>
      </trkpt>
      <trkpt lat="50.83999" lon="1.59782">
        <ele>54.9</ele>
        <time>2015-04-07T14:39:39.000Z</time>
      </trkpt>
      <trkpt lat="50.83999" lon="1.59783">
        <ele>54.9</ele>
        <time>2015-04-07T14:39:40.000Z</time>
      </trkpt>
      <trkpt lat="50.83999" lon="1.59784">
        <ele>54.9</ele>
        <time>2015-04-07T14:39:41.000Z</time>
      </trkpt>
      <trkpt lat="50.83999" lon="1.59785">
        <ele>54.9</ele>
        <time>2015-04-07T14:39:42.000Z</time>
      </trkpt>
      <trkpt lat="50.83999" lon="1.59785">
        <ele>54.9</ele>
        <time>2015-04-07T14:39:43.000Z</time>
      </trkpt>
      <trkpt lat="50.83999" lon="1.59786">
        <ele>55</ele>
        <time>2015-04-07T14:39:44.000Z</time>
      </trkpt>
      <trkpt lat="50.84" lon="1.59787">
        <ele>55</ele>
        <time>2015-04-07T14:39:45.000Z</time>
      </trkpt>
      <trkpt lat="50.84001" lon="1.59787">
        <ele>55.1</ele>
        <time>2015-04-07T14:39:46.000Z</time>
      </trkpt>
      <trkpt lat="50.84001" lon="1.59788">
        <ele>55.1</ele>
        <time>2015-04-07T14:39:47.000Z</time>
      </trkpt>
      <trkpt lat="50.84002" lon="1.59789">
        <ele>55.2</ele>
        <time>2015-04-07T14:39:48.000Z</time>
      </trkpt>
      <trkpt lat="50.84002" lon="1.59789">
        <ele>55.2</ele>
        <time>2015-04-07T14:39:49.000Z</time>
      </trkpt>
      <trkpt lat="50.84003" lon="1.5979">
        <ele>55.3</ele>
        <time>2015-04-07T14:39:50.000Z</time>
      </trkpt>
      <trkpt lat="50.84003" lon="1.5979">
        <ele>55.3</ele>
        <time>2015-04-07T14:39:51.000Z</time>
      </trkpt>
      <trkpt lat="50.84004" lon="1.59791">
        <ele>55.4</ele>
        <time>2015-04-07T14:39:52.000Z</time>
      </trkpt>
      <trkpt lat="50.84006" lon="1.59791">
        <ele>55.5</ele>
        <time>2015-04-07T14:39:53.000Z</time>
      </trkpt>
      <trkpt lat="50.84006" lon="1.59791">
        <ele>55.5</ele>
        <time>2015-04-07T14:39:54.000Z</time>
      </trkpt>
      <trkpt lat="50.84006" lon="1.59791">
        <ele>55.6</ele>
        <time>2015-04-07T14:39:55.000Z</time>
      </trkpt>
      <trkpt lat="50.84006" lon="1.59791">
        <ele>55.6</ele>
        <time>2015-04-07T14:39:56.000Z</time>
      </trkpt>
      <trkpt lat="50.84007" lon="1.59791">
        <ele>55.6</ele>
        <time>2015-04-07T14:39:57.000Z</time>
      </trkpt>
      <trkpt lat="50.84008" lon="1.59793">
        <ele>55.7</ele>
        <time>2015-04-07T14:39:58.000Z</time>
      </trkpt>
      <trkpt lat="50.84008" lon="1.59793">
        <ele>55.7</ele>
        <time>2015-04-07T14:39:59.000Z</time>
      </trkpt>
      <trkpt lat="50.84008" lon="1.59793">
        <ele>55.7</ele>
        <time>2015-04-07T14:40:00.000Z</time>
      </trkpt>
      <trkpt lat="50.84009" lon="1.59793">
        <ele>55.7</ele>
        <time>2015-04-07T14:40:01.000Z</time>
      </trkpt>
      <trkpt lat="50.84009" lon="1.59793">
        <ele>55.8</ele>
        <time>2015-04-07T14:40:02.000Z</time>
      </trkpt>
      <trkpt lat="50.8401" lon="1.59794">
        <ele>55.8</ele>
        <time>2015-04-07T14:40:03.000Z</time>
      </trkpt>
      <trkpt lat="50.84011" lon="1.59794">
        <ele>55.8</ele>
        <time>2015-04-07T14:40:04.000Z</time>
      </trkpt>
      <trkpt lat="50.84012" lon="1.59795">
        <ele>55.9</ele>
        <time>2015-04-07T14:40:05.000Z</time>
      </trkpt>
      <trkpt lat="50.84013" lon="1.59796">
        <ele>56</ele>
        <time>2015-04-07T14:40:06.000Z</time>
      </trkpt>
      <trkpt lat="50.84014" lon="1.59797">
        <ele>56</ele>
        <time>2015-04-07T14:40:07.000Z</time>
      </trkpt>
      <trkpt lat="50.84016" lon="1.59798">
        <ele>56.1</ele>
        <time>2015-04-07T14:40:08.000Z</time>
      </trkpt>
      <trkpt lat="50.84017" lon="1.59799">
        <ele>56.1</ele>
        <time>2015-04-07T14:40:09.000Z</time>
      </trkpt>
      <trkpt lat="50.84018" lon="1.59799">
        <ele>56.1</ele>
        <time>2015-04-07T14:40:10.000Z</time>
      </trkpt>
      <trkpt lat="50.84019" lon="1.598">
        <ele>56.1</ele>
        <time>2015-04-07T14:40:11.000Z</time>
      </trkpt>
      <trkpt lat="50.8402" lon="1.59801">
        <ele>56.1</ele>
        <time>2015-04-07T14:40:12.000Z</time>
      </trkpt>
      <trkpt lat="50.84022" lon="1.59802">
        <ele>56.1</ele>
        <time>2015-04-07T14:40:13.000Z</time>
      </trkpt>
      <trkpt lat="50.84023" lon="1.59803">
        <ele>56.1</ele>
        <time>2015-04-07T14:40:14.000Z</time>
      </trkpt>
      <trkpt lat="50.84024" lon="1.59804">
        <ele>56</ele>
        <time>2015-04-07T14:40:15.000Z</time>
      </trkpt>
      <trkpt lat="50.84025" lon="1.59804">
        <ele>56</ele>
        <time>2015-04-07T14:40:16.000Z</time>
      </trkpt>
      <trkpt lat="50.84026" lon="1.59805">
        <ele>56</ele>
        <time>2015-04-07T14:40:17.000Z</time>
      </trkpt>
      <trkpt lat="50.84027" lon="1.59805">
        <ele>56</ele>
        <time>2015-04-07T14:40:18.000Z</time>
      </trkpt>
      <trkpt lat="50.84028" lon="1.59805">
        <ele>56</ele>
        <time>2015-04-07T14:40:19.000Z</time>
      </trkpt>
      <trkpt lat="50.84031" lon="1.59805">
        <ele>56.3</ele>
        <time>2015-04-07T14:40:20.000Z</time>
      </trkpt>
      <trkpt lat="50.84032" lon="1.59805">
        <ele>56.3</ele>
        <time>2015-04-07T14:40:21.000Z</time>
      </trkpt>
      <trkpt lat="50.84032" lon="1.59805">
        <ele>56.3</ele>
        <time>2015-04-07T14:40:22.000Z</time>
      </trkpt>
      <trkpt lat="50.84032" lon="1.59805">
        <ele>56.4</ele>
        <time>2015-04-07T14:40:23.000Z</time>
      </trkpt>
      <trkpt lat="50.84033" lon="1.59805">
        <ele>56.4</ele>
        <time>2015-04-07T14:40:24.000Z</time>
      </trkpt>
      <trkpt lat="50.84034" lon="1.59805">
        <ele>56.5</ele>
        <time>2015-04-07T14:40:25.000Z</time>
      </trkpt>
      <trkpt lat="50.84034" lon="1.59805">
        <ele>56.5</ele>
        <time>2015-04-07T14:40:26.000Z</time>
      </trkpt>
      <trkpt lat="50.84035" lon="1.59805">
        <ele>56.5</ele>
        <time>2015-04-07T14:40:27.000Z</time>
      </trkpt>
      <trkpt lat="50.84036" lon="1.59806">
        <ele>56.6</ele>
        <time>2015-04-07T14:40:28.000Z</time>
      </trkpt>
      <trkpt lat="50.84037" lon="1.59806">
        <ele>56.7</ele>
        <time>2015-04-07T14:40:29.000Z</time>
      </trkpt>
      <trkpt lat="50.84038" lon="1.59806">
        <ele>56.8</ele>
        <time>2015-04-07T14:40:30.000Z</time>
      </trkpt>
      <trkpt lat="50.84039" lon="1.59807">
        <ele>56.9</ele>
        <time>2015-04-07T14:40:31.000Z</time>
      </trkpt>
      <trkpt lat="50.8404" lon="1.59807">
        <ele>57</ele>
        <time>2015-04-07T14:40:32.000Z</time>
      </trkpt>
      <trkpt lat="50.84041" lon="1.59807">
        <ele>57</ele>
        <time>2015-04-07T14:40:33.000Z</time>
      </trkpt>
      <trkpt lat="50.84042" lon="1.59808">
        <ele>57.1</ele>
        <time>2015-04-07T14:40:34.000Z</time>
      </trkpt>
      <trkpt lat="50.84044" lon="1.59808">
        <ele>57.2</ele>
        <time>2015-04-07T14:40:35.000Z</time>
      </trkpt>
      <trkpt lat="50.84045" lon="1.59808">
        <ele>57.3</ele>
        <time>2015-04-07T14:40:36.000Z</time>
      </trkpt>
      <trkpt lat="50.84046" lon="1.59808">
        <ele>57.4</ele>
        <time>2015-04-07T14:40:37.000Z</time>
      </trkpt>
      <trkpt lat="50.84047" lon="1.59808">
        <ele>57.5</ele>
        <time>2015-04-07T14:40:38.000Z</time>
      </trkpt>
      <trkpt lat="50.84049" lon="1.59808">
        <ele>57.6</ele>
        <time>2015-04-07T14:40:39.000Z</time>
      </trkpt>
      <trkpt lat="50.8405" lon="1.59808">
        <ele>57.6</ele>
        <time>2015-04-07T14:40:40.000Z</time>
      </trkpt>
      <trkpt lat="50.84051" lon="1.59808">
        <ele>57.7</ele>
        <time>2015-04-07T14:40:41.000Z</time>
      </trkpt>
      <trkpt lat="50.84052" lon="1.59808">
        <ele>57.8</ele>
        <time>2015-04-07T14:40:42.000Z</time>
      </trkpt>
      <trkpt lat="50.84054" lon="1.59808">
        <ele>57.9</ele>
        <time>2015-04-07T14:40:43.000Z</time>
      </trkpt>
      <trkpt lat="50.84055" lon="1.59808">
        <ele>58</ele>
        <time>2015-04-07T14:40:44.000Z</time>
      </trkpt>
      <trkpt lat="50.84056" lon="1.59809">
        <ele>58</ele>
        <time>2015-04-07T14:40:45.000Z</time>
      </trkpt>
      <trkpt lat="50.84057" lon="1.59809">
        <ele>58.1</ele>
        <time>2015-04-07T14:40:46.000Z</time>
      </trkpt>
      <trkpt lat="50.84058" lon="1.59809">
        <ele>58.1</ele>
        <time>2015-04-07T14:40:47.000Z</time>
      </trkpt>
      <trkpt lat="50.8406" lon="1.59809">
        <ele>58.1</ele>
        <time>2015-04-07T14:40:48.000Z</time>
      </trkpt>
      <trkpt lat="50.84061" lon="1.59809">
        <ele>58.2</ele>
        <time>2015-04-07T14:40:49.000Z</time>
      </trkpt>
      <trkpt lat="50.84062" lon="1.5981">
        <ele>58.2</ele>
        <time>2015-04-07T14:40:50.000Z</time>
      </trkpt>
      <trkpt lat="50.84063" lon="1.5981">
        <ele>58.2</ele>
        <time>2015-04-07T14:40:51.000Z</time>
      </trkpt>
      <trkpt lat="50.84064" lon="1.5981">
        <ele>58.3</ele>
        <time>2015-04-07T14:40:52.000Z</time>
      </trkpt>
      <trkpt lat="50.84066" lon="1.59811">
        <ele>58.3</ele>
        <time>2015-04-07T14:40:53.000Z</time>
      </trkpt>
      <trkpt lat="50.84067" lon="1.59811">
        <ele>58.3</ele>
        <time>2015-04-07T14:40:54.000Z</time>
      </trkpt>
      <trkpt lat="50.84069" lon="1.59811">
        <ele>58.4</ele>
        <time>2015-04-07T14:40:55.000Z</time>
      </trkpt>
      <trkpt lat="50.8407" lon="1.59812">
        <ele>58.4</ele>
        <time>2015-04-07T14:40:56.000Z</time>
      </trkpt>
      <trkpt lat="50.84072" lon="1.59812">
        <ele>58.5</ele>
        <time>2015-04-07T14:40:57.000Z</time>
      </trkpt>
      <trkpt lat="50.84074" lon="1.59813">
        <ele>58.5</ele>
        <time>2015-04-07T14:40:58.000Z</time>
      </trkpt>
      <trkpt lat="50.84075" lon="1.59814">
        <ele>58.5</ele>
        <time>2015-04-07T14:40:59.000Z</time>
      </trkpt>
      <trkpt lat="50.84077" lon="1.59814">
        <ele>58.5</ele>
        <time>2015-04-07T14:41:00.000Z</time>
      </trkpt>
      <trkpt lat="50.84078" lon="1.59815">
        <ele>58.5</ele>
        <time>2015-04-07T14:41:01.000Z</time>
      </trkpt>
      <trkpt lat="50.84079" lon="1.59815">
        <ele>58.6</ele>
        <time>2015-04-07T14:41:02.000Z</time>
      </trkpt>
      <trkpt lat="50.84081" lon="1.59816">
        <ele>58.6</ele>
        <time>2015-04-07T14:41:03.000Z</time>
      </trkpt>
      <trkpt lat="50.84086" lon="1.59816">
        <ele>58.7</ele>
        <time>2015-04-07T14:41:04.000Z</time>
      </trkpt>
      <trkpt lat="50.84087" lon="1.59816">
        <ele>58.7</ele>
        <time>2015-04-07T14:41:05.000Z</time>
      </trkpt>
      <trkpt lat="50.84087" lon="1.59816">
        <ele>58.7</ele>
        <time>2015-04-07T14:41:06.000Z</time>
      </trkpt>
      <trkpt lat="50.84088" lon="1.59816">
        <ele>58.7</ele>
        <time>2015-04-07T14:41:07.000Z</time>
      </trkpt>
      <trkpt lat="50.84089" lon="1.59816">
        <ele>58.7</ele>
        <time>2015-04-07T14:41:08.000Z</time>
      </trkpt>
      <trkpt lat="50.8409" lon="1.59816">
        <ele>58.7</ele>
        <time>2015-04-07T14:41:09.000Z</time>
      </trkpt>
      <trkpt lat="50.84094" lon="1.59814">
        <ele>58.8</ele>
        <time>2015-04-07T14:41:10.000Z</time>
      </trkpt>
      <trkpt lat="50.84094" lon="1.59814">
        <ele>58.8</ele>
        <time>2015-04-07T14:41:11.000Z</time>
      </trkpt>
      <trkpt lat="50.84094" lon="1.59812">
        <ele>58.9</ele>
        <time>2015-04-07T14:41:12.000Z</time>
      </trkpt>
      <trkpt lat="50.84094" lon="1.59812">
        <ele>58.9</ele>
        <time>2015-04-07T14:41:13.000Z</time>
      </trkpt>
      <trkpt lat="50.84094" lon="1.59811">
        <ele>58.9</ele>
        <time>2015-04-07T14:41:14.000Z</time>
      </trkpt>
      <trkpt lat="50.84093" lon="1.5981">
        <ele>58.9</ele>
        <time>2015-04-07T14:41:15.000Z</time>
      </trkpt>
      <trkpt lat="50.84093" lon="1.59809">
        <ele>58.9</ele>
        <time>2015-04-07T14:41:16.000Z</time>
      </trkpt>
      <trkpt lat="50.84093" lon="1.59808">
        <ele>58.9</ele>
        <time>2015-04-07T14:41:17.000Z</time>
      </trkpt>
      <trkpt lat="50.84093" lon="1.59804">
        <ele>59</ele>
        <time>2015-04-07T14:41:18.000Z</time>
      </trkpt>
      <trkpt lat="50.84093" lon="1.59804">
        <ele>59</ele>
        <time>2015-04-07T14:41:19.000Z</time>
      </trkpt>
      <trkpt lat="50.84093" lon="1.59804">
        <ele>59</ele>
        <time>2015-04-07T14:41:20.000Z</time>
      </trkpt>
      <trkpt lat="50.84093" lon="1.59803">
        <ele>59</ele>
        <time>2015-04-07T14:41:21.000Z</time>
      </trkpt>
      <trkpt lat="50.84093" lon="1.59802">
        <ele>59</ele>
        <time>2015-04-07T14:41:22.000Z</time>
      </trkpt>
      <trkpt lat="50.84093" lon="1.598">
        <ele>59</ele>
        <time>2015-04-07T14:41:23.000Z</time>
      </trkpt>
      <trkpt lat="50.84094" lon="1.59799">
        <ele>59</ele>
        <time>2015-04-07T14:41:24.000Z</time>
      </trkpt>
      <trkpt lat="50.84094" lon="1.59797">
        <ele>59</ele>
        <time>2015-04-07T14:41:25.000Z</time>
      </trkpt>
      <trkpt lat="50.84094" lon="1.59796">
        <ele>59</ele>
        <time>2015-04-07T14:41:26.000Z</time>
      </trkpt>
      <trkpt lat="50.84095" lon="1.59795">
        <ele>59</ele>
        <time>2015-04-07T14:41:27.000Z</time>
      </trkpt>
      <trkpt lat="50.84095" lon="1.59793">
        <ele>59</ele>
        <time>2015-04-07T14:41:28.000Z</time>
      </trkpt>
      <trkpt lat="50.84095" lon="1.59792">
        <ele>59</ele>
        <time>2015-04-07T14:41:29.000Z</time>
      </trkpt>
      <trkpt lat="50.84093" lon="1.59788">
        <ele>59</ele>
        <time>2015-04-07T14:41:30.000Z</time>
      </trkpt>
      <trkpt lat="50.84093" lon="1.59788">
        <ele>59</ele>
        <time>2015-04-07T14:41:31.000Z</time>
      </trkpt>
      <trkpt lat="50.84093" lon="1.59787">
        <ele>59</ele>
        <time>2015-04-07T14:41:32.000Z</time>
      </trkpt>
      <trkpt lat="50.84092" lon="1.59787">
        <ele>59</ele>
        <time>2015-04-07T14:41:33.000Z</time>
      </trkpt>
      <trkpt lat="50.84091" lon="1.59786">
        <ele>59</ele>
        <time>2015-04-07T14:41:34.000Z</time>
      </trkpt>
      <trkpt lat="50.84091" lon="1.59785">
        <ele>59</ele>
        <time>2015-04-07T14:41:35.000Z</time>
      </trkpt>
      <trkpt lat="50.8409" lon="1.59785">
        <ele>59</ele>
        <time>2015-04-07T14:41:36.000Z</time>
      </trkpt>
      <trkpt lat="50.84089" lon="1.59784">
        <ele>59</ele>
        <time>2015-04-07T14:41:37.000Z</time>
      </trkpt>
      <trkpt lat="50.84089" lon="1.59783">
        <ele>59</ele>
        <time>2015-04-07T14:41:38.000Z</time>
      </trkpt>
      <trkpt lat="50.84088" lon="1.59782">
        <ele>59</ele>
        <time>2015-04-07T14:41:39.000Z</time>
      </trkpt>
      <trkpt lat="50.84087" lon="1.59781">
        <ele>59</ele>
        <time>2015-04-07T14:41:40.000Z</time>
      </trkpt>
      <trkpt lat="50.84086" lon="1.5978">
        <ele>59</ele>
        <time>2015-04-07T14:41:41.000Z</time>
      </trkpt>
      <trkpt lat="50.84086" lon="1.59779">
        <ele>59</ele>
        <time>2015-04-07T14:41:42.000Z</time>
      </trkpt>
      <trkpt lat="50.84085" lon="1.59777">
        <ele>59</ele>
        <time>2015-04-07T14:41:43.000Z</time>
      </trkpt>
      <trkpt lat="50.84085" lon="1.59775">
        <ele>58.9</ele>
        <time>2015-04-07T14:41:44.000Z</time>
      </trkpt>
      <trkpt lat="50.84084" lon="1.59773">
        <ele>58.8</ele>
        <time>2015-04-07T14:41:45.000Z</time>
      </trkpt>
      <trkpt lat="50.84083" lon="1.59771">
        <ele>58.8</ele>
        <time>2015-04-07T14:41:46.000Z</time>
      </trkpt>
      <trkpt lat="50.84082" lon="1.59769">
        <ele>58.7</ele>
        <time>2015-04-07T14:41:47.000Z</time>
      </trkpt>
      <trkpt lat="50.84082" lon="1.59767">
        <ele>58.7</ele>
        <time>2015-04-07T14:41:48.000Z</time>
      </trkpt>
      <trkpt lat="50.84081" lon="1.59765">
        <ele>58.7</ele>
        <time>2015-04-07T14:41:49.000Z</time>
      </trkpt>
      <trkpt lat="50.8408" lon="1.59764">
        <ele>58.7</ele>
        <time>2015-04-07T14:41:50.000Z</time>
      </trkpt>
      <trkpt lat="50.84079" lon="1.59762">
        <ele>58.7</ele>
        <time>2015-04-07T14:41:51.000Z</time>
      </trkpt>
      <trkpt lat="50.84078" lon="1.59761">
        <ele>58.7</ele>
        <time>2015-04-07T14:41:52.000Z</time>
      </trkpt>
      <trkpt lat="50.84077" lon="1.5976">
        <ele>58.7</ele>
        <time>2015-04-07T14:41:53.000Z</time>
      </trkpt>
      <trkpt lat="50.84076" lon="1.59758">
        <ele>58.7</ele>
        <time>2015-04-07T14:41:54.000Z</time>
      </trkpt>
      <trkpt lat="50.84075" lon="1.59757">
        <ele>58.8</ele>
        <time>2015-04-07T14:41:55.000Z</time>
      </trkpt>
      <trkpt lat="50.84074" lon="1.59755">
        <ele>58.8</ele>
        <time>2015-04-07T14:41:56.000Z</time>
      </trkpt>
      <trkpt lat="50.84073" lon="1.59754">
        <ele>58.8</ele>
        <time>2015-04-07T14:41:57.000Z</time>
      </trkpt>
      <trkpt lat="50.84072" lon="1.59752">
        <ele>58.9</ele>
        <time>2015-04-07T14:41:58.000Z</time>
      </trkpt>
      <trkpt lat="50.84071" lon="1.59751">
        <ele>58.9</ele>
        <time>2015-04-07T14:41:59.000Z</time>
      </trkpt>
      <trkpt lat="50.84071" lon="1.5975">
        <ele>58.9</ele>
        <time>2015-04-07T14:42:00.000Z</time>
      </trkpt>
      <trkpt lat="50.8407" lon="1.59748">
        <ele>58.9</ele>
        <time>2015-04-07T14:42:01.000Z</time>
      </trkpt>
      <trkpt lat="50.84069" lon="1.59747">
        <ele>58.9</ele>
        <time>2015-04-07T14:42:02.000Z</time>
      </trkpt>
      <trkpt lat="50.84068" lon="1.59746">
        <ele>58.9</ele>
        <time>2015-04-07T14:42:03.000Z</time>
      </trkpt>
      <trkpt lat="50.84067" lon="1.59745">
        <ele>58.9</ele>
        <time>2015-04-07T14:42:04.000Z</time>
      </trkpt>
      <trkpt lat="50.84066" lon="1.59744">
        <ele>58.9</ele>
        <time>2015-04-07T14:42:05.000Z</time>
      </trkpt>
      <trkpt lat="50.84065" lon="1.59743">
        <ele>58.9</ele>
        <time>2015-04-07T14:42:06.000Z</time>
      </trkpt>
      <trkpt lat="50.84064" lon="1.59741">
        <ele>58.8</ele>
        <time>2015-04-07T14:42:07.000Z</time>
      </trkpt>
      <trkpt lat="50.84061" lon="1.59733">
        <ele>58.5</ele>
        <time>2015-04-07T14:42:08.000Z</time>
      </trkpt>
      <trkpt lat="50.84061" lon="1.59733">
        <ele>58.5</ele>
        <time>2015-04-07T14:42:09.000Z</time>
      </trkpt>
      <trkpt lat="50.8406" lon="1.59732">
        <ele>58.5</ele>
        <time>2015-04-07T14:42:10.000Z</time>
      </trkpt>
      <trkpt lat="50.8406" lon="1.59731">
        <ele>58.4</ele>
        <time>2015-04-07T14:42:11.000Z</time>
      </trkpt>
      <trkpt lat="50.8406" lon="1.59729">
        <ele>58.3</ele>
        <time>2015-04-07T14:42:12.000Z</time>
      </trkpt>
      <trkpt lat="50.84059" lon="1.59727">
        <ele>58.2</ele>
        <time>2015-04-07T14:42:13.000Z</time>
      </trkpt>
      <trkpt lat="50.84058" lon="1.59726">
        <ele>58.1</ele>
        <time>2015-04-07T14:42:14.000Z</time>
      </trkpt>
      <trkpt lat="50.84058" lon="1.59724">
        <ele>58</ele>
        <time>2015-04-07T14:42:15.000Z</time>
      </trkpt>
      <trkpt lat="50.84057" lon="1.59722">
        <ele>57.9</ele>
        <time>2015-04-07T14:42:16.000Z</time>
      </trkpt>
      <trkpt lat="50.84056" lon="1.5972">
        <ele>57.9</ele>
        <time>2015-04-07T14:42:17.000Z</time>
      </trkpt>
      <trkpt lat="50.84055" lon="1.59718">
        <ele>57.9</ele>
        <time>2015-04-07T14:42:18.000Z</time>
      </trkpt>
      <trkpt lat="50.84054" lon="1.59716">
        <ele>57.9</ele>
        <time>2015-04-07T14:42:19.000Z</time>
      </trkpt>
      <trkpt lat="50.84053" lon="1.59714">
        <ele>57.9</ele>
        <time>2015-04-07T14:42:20.000Z</time>
      </trkpt>
      <trkpt lat="50.84053" lon="1.59712">
        <ele>57.8</ele>
        <time>2015-04-07T14:42:21.000Z</time>
      </trkpt>
      <trkpt lat="50.84052" lon="1.5971">
        <ele>57.8</ele>
        <time>2015-04-07T14:42:22.000Z</time>
      </trkpt>
      <trkpt lat="50.84052" lon="1.59708">
        <ele>57.7</ele>
        <time>2015-04-07T14:42:23.000Z</time>
      </trkpt>
      <trkpt lat="50.84052" lon="1.59706">
        <ele>57.7</ele>
        <time>2015-04-07T14:42:24.000Z</time>
      </trkpt>
      <trkpt lat="50.84052" lon="1.59704">
        <ele>57.6</ele>
        <time>2015-04-07T14:42:25.000Z</time>
      </trkpt>
      <trkpt lat="50.84051" lon="1.59703">
        <ele>57.6</ele>
        <time>2015-04-07T14:42:26.000Z</time>
      </trkpt>
      <trkpt lat="50.84051" lon="1.597">
        <ele>57.5</ele>
        <time>2015-04-07T14:42:27.000Z</time>
      </trkpt>
      <trkpt lat="50.84051" lon="1.597">
        <ele>57.5</ele>
        <time>2015-04-07T14:42:28.000Z</time>
      </trkpt>
      <trkpt lat="50.84051" lon="1.597">
        <ele>57.5</ele>
        <time>2015-04-07T14:42:29.000Z</time>
      </trkpt>
      <trkpt lat="50.84051" lon="1.59701">
        <ele>57.6</ele>
        <time>2015-04-07T14:42:30.000Z</time>
      </trkpt>
      <trkpt lat="50.84051" lon="1.59702">
        <ele>57.6</ele>
        <time>2015-04-07T14:42:31.000Z</time>
      </trkpt>
      <trkpt lat="50.84051" lon="1.59704">
        <ele>57.7</ele>
        <time>2015-04-07T14:42:32.000Z</time>
      </trkpt>
      <trkpt lat="50.84051" lon="1.59705">
        <ele>57.7</ele>
        <time>2015-04-07T14:42:33.000Z</time>
      </trkpt>
      <trkpt lat="50.8405" lon="1.59707">
        <ele>57.8</ele>
        <time>2015-04-07T14:42:34.000Z</time>
      </trkpt>
      <trkpt lat="50.8405" lon="1.59708">
        <ele>57.9</ele>
        <time>2015-04-07T14:42:35.000Z</time>
      </trkpt>
      <trkpt lat="50.84049" lon="1.5971">
        <ele>58</ele>
        <time>2015-04-07T14:42:36.000Z</time>
      </trkpt>
      <trkpt lat="50.84049" lon="1.59711">
        <ele>58.1</ele>
        <time>2015-04-07T14:42:37.000Z</time>
      </trkpt>
      <trkpt lat="50.84048" lon="1.59712">
        <ele>58.1</ele>
        <time>2015-04-07T14:42:38.000Z</time>
      </trkpt>
      <trkpt lat="50.84048" lon="1.59713">
        <ele>58.2</ele>
        <time>2015-04-07T14:42:39.000Z</time>
      </trkpt>
      <trkpt lat="50.84047" lon="1.59714">
        <ele>58.3</ele>
        <time>2015-04-07T14:42:40.000Z</time>
      </trkpt>
      <trkpt lat="50.84047" lon="1.59715">
        <ele>58.4</ele>
        <time>2015-04-07T14:42:41.000Z</time>
      </trkpt>
      <trkpt lat="50.84047" lon="1.59716">
        <ele>58.4</ele>
        <time>2015-04-07T14:42:42.000Z</time>
      </trkpt>
      <trkpt lat="50.84046" lon="1.59717">
        <ele>58.5</ele>
        <time>2015-04-07T14:42:43.000Z</time>
      </trkpt>
      <trkpt lat="50.84045" lon="1.59718">
        <ele>58.6</ele>
        <time>2015-04-07T14:42:44.000Z</time>
      </trkpt>
      <trkpt lat="50.84045" lon="1.59719">
        <ele>58.7</ele>
        <time>2015-04-07T14:42:45.000Z</time>
      </trkpt>
      <trkpt lat="50.84044" lon="1.5972">
        <ele>58.7</ele>
        <time>2015-04-07T14:42:46.000Z</time>
      </trkpt>
      <trkpt lat="50.84044" lon="1.59721">
        <ele>58.8</ele>
        <time>2015-04-07T14:42:47.000Z</time>
      </trkpt>
      <trkpt lat="50.84044" lon="1.59723">
        <ele>58.9</ele>
        <time>2015-04-07T14:42:48.000Z</time>
      </trkpt>
      <trkpt lat="50.84043" lon="1.59724">
        <ele>59</ele>
        <time>2015-04-07T14:42:49.000Z</time>
      </trkpt>
      <trkpt lat="50.84043" lon="1.59725">
        <ele>59.1</ele>
        <time>2015-04-07T14:42:50.000Z</time>
      </trkpt>
      <trkpt lat="50.84042" lon="1.59726">
        <ele>59.1</ele>
        <time>2015-04-07T14:42:51.000Z</time>
      </trkpt>
      <trkpt lat="50.84042" lon="1.59727">
        <ele>59.2</ele>
        <time>2015-04-07T14:42:52.000Z</time>
      </trkpt>
      <trkpt lat="50.84042" lon="1.59727">
        <ele>59.3</ele>
        <time>2015-04-07T14:42:53.000Z</time>
      </trkpt>
      <trkpt lat="50.84041" lon="1.59728">
        <ele>59.4</ele>
        <time>2015-04-07T14:42:54.000Z</time>
      </trkpt>
      <trkpt lat="50.84041" lon="1.59729">
        <ele>59.4</ele>
        <time>2015-04-07T14:42:55.000Z</time>
      </trkpt>
      <trkpt lat="50.8404" lon="1.59731">
        <ele>59.6</ele>
        <time>2015-04-07T14:42:56.000Z</time>
      </trkpt>
      <trkpt lat="50.8404" lon="1.59731">
        <ele>59.6</ele>
        <time>2015-04-07T14:42:57.000Z</time>
      </trkpt>
      <trkpt lat="50.8404" lon="1.59731">
        <ele>59.6</ele>
        <time>2015-04-07T14:42:58.000Z</time>
      </trkpt>
      <trkpt lat="50.8404" lon="1.59731">
        <ele>59.6</ele>
        <time>2015-04-07T14:42:59.000Z</time>
      </trkpt>
      <trkpt lat="50.8404" lon="1.59731">
        <ele>59.6</ele>
        <time>2015-04-07T14:43:00.000Z</time>
      </trkpt>
      <trkpt lat="50.8404" lon="1.59731">
        <ele>59.6</ele>
        <time>2015-04-07T14:43:01.000Z</time>
      </trkpt>
      <trkpt lat="50.8404" lon="1.59731">
        <ele>59.6</ele>
        <time>2015-04-07T14:43:02.000Z</time>
      </trkpt>
      <trkpt lat="50.8404" lon="1.59731">
        <ele>59.6</ele>
        <time>2015-04-07T14:43:03.000Z</time>
      </trkpt>
      <trkpt lat="50.8404" lon="1.59731">
        <ele>59.6</ele>
        <time>2015-04-07T14:43:04.000Z</time>
      </trkpt>
      <trkpt lat="50.8404" lon="1.59731">
        <ele>59.6</ele>
        <time>2015-04-07T14:43:05.000Z</time>
      </trkpt>
      <trkpt lat="50.8404" lon="1.59731">
        <ele>59.6</ele>
        <time>2015-04-07T14:43:06.000Z</time>
      </trkpt>
      <trkpt lat="50.8404" lon="1.59731">
        <ele>59.6</ele>
        <time>2015-04-07T14:43:07.000Z</time>
      </trkpt>
      <trkpt lat="50.8404" lon="1.59731">
        <ele>59.6</ele>
        <time>2015-04-07T14:43:08.000Z</time>
      </trkpt>
      <trkpt lat="50.8404" lon="1.59731">
        <ele>59.6</ele>
        <time>2015-04-07T14:43:09.000Z</time>
      </trkpt>
      <trkpt lat="50.8404" lon="1.59731">
        <ele>59.6</ele>
        <time>2015-04-07T14:43:10.000Z</time>
      </trkpt>
      <trkpt lat="50.8404" lon="1.59731">
        <ele>59.6</ele>
        <time>2015-04-07T14:43:11.000Z</time>
      </trkpt>
      <trkpt lat="50.8404" lon="1.59731">
        <ele>59.6</ele>
        <time>2015-04-07T14:43:12.000Z</time>
      </trkpt>
      <trkpt lat="50.8404" lon="1.59731">
        <ele>59.6</ele>
        <time>2015-04-07T14:43:13.000Z</time>
      </trkpt>
      <trkpt lat="50.8404" lon="1.59731">
        <ele>59.6</ele>
        <time>2015-04-07T14:43:14.000Z</time>
      </trkpt>
      <trkpt lat="50.8404" lon="1.59731">
        <ele>59.6</ele>
        <time>2015-04-07T14:43:15.000Z</time>
      </trkpt>
      <trkpt lat="50.8404" lon="1.59731">
        <ele>59.6</ele>
        <time>2015-04-07T14:43:16.000Z</time>
      </trkpt>
      <trkpt lat="50.8404" lon="1.59731">
        <ele>59.6</ele>
        <time>2015-04-07T14:43:17.000Z</time>
      </trkpt>
      <trkpt lat="50.8404" lon="1.59731">
        <ele>59.6</ele>
        <time>2015-04-07T14:43:18.000Z</time>
      </trkpt>
      <trkpt lat="50.8404" lon="1.59731">
        <ele>59.6</ele>
        <time>2015-04-07T14:43:19.000Z</time>
      </trkpt>
      <trkpt lat="50.8404" lon="1.59731">
        <ele>59.6</ele>
        <time>2015-04-07T14:43:20.000Z</time>
      </trkpt>
      <trkpt lat="50.8404" lon="1.59731">
        <ele>59.6</ele>
        <time>2015-04-07T14:43:21.000Z</time>
      </trkpt>
      <trkpt lat="50.8404" lon="1.59731">
        <ele>59.6</ele>
        <time>2015-04-07T14:43:22.000Z</time>
      </trkpt>
      <trkpt lat="50.8404" lon="1.59731">
        <ele>59.6</ele>
        <time>2015-04-07T14:43:23.000Z</time>
      </trkpt>
      <trkpt lat="50.8404" lon="1.5973">
        <ele>59.6</ele>
        <time>2015-04-07T14:43:24.000Z</time>
      </trkpt>
      <trkpt lat="50.8404" lon="1.5973">
        <ele>59.6</ele>
        <time>2015-04-07T14:43:25.000Z</time>
      </trkpt>
      <trkpt lat="50.84039" lon="1.59731">
        <ele>59.6</ele>
        <time>2015-04-07T14:43:26.000Z</time>
      </trkpt>
      <trkpt lat="50.84039" lon="1.59731">
        <ele>59.6</ele>
        <time>2015-04-07T14:43:27.000Z</time>
      </trkpt>
      <trkpt lat="50.84039" lon="1.59731">
        <ele>59.6</ele>
        <time>2015-04-07T14:43:28.000Z</time>
      </trkpt>
      <trkpt lat="50.84039" lon="1.59731">
        <ele>59.6</ele>
        <time>2015-04-07T14:43:29.000Z</time>
      </trkpt>
      <trkpt lat="50.84039" lon="1.59731">
        <ele>59.6</ele>
        <time>2015-04-07T14:43:30.000Z</time>
      </trkpt>
      <trkpt lat="50.84039" lon="1.59731">
        <ele>59.6</ele>
        <time>2015-04-07T14:43:31.000Z</time>
      </trkpt>
      <trkpt lat="50.84039" lon="1.59731">
        <ele>59.6</ele>
        <time>2015-04-07T14:43:32.000Z</time>
      </trkpt>
      <trkpt lat="50.84039" lon="1.59731">
        <ele>59.6</ele>
        <time>2015-04-07T14:43:33.000Z</time>
      </trkpt>
      <trkpt lat="50.84039" lon="1.59731">
        <ele>59.6</ele>
        <time>2015-04-07T14:43:34.000Z</time>
      </trkpt>
      <trkpt lat="50.84039" lon="1.59731">
        <ele>59.7</ele>
        <time>2015-04-07T14:43:35.000Z</time>
      </trkpt>
      <trkpt lat="50.84039" lon="1.59731">
        <ele>59.7</ele>
        <time>2015-04-07T14:43:36.000Z</time>
      </trkpt>
      <trkpt lat="50.84039" lon="1.59733">
        <ele>59.7</ele>
        <time>2015-04-07T14:43:37.000Z</time>
      </trkpt>
      <trkpt lat="50.84039" lon="1.59733">
        <ele>59.7</ele>
        <time>2015-04-07T14:43:38.000Z</time>
      </trkpt>
      <trkpt lat="50.84039" lon="1.59734">
        <ele>59.8</ele>
        <time>2015-04-07T14:43:39.000Z</time>
      </trkpt>
      <trkpt lat="50.84039" lon="1.59734">
        <ele>59.8</ele>
        <time>2015-04-07T14:43:40.000Z</time>
      </trkpt>
      <trkpt lat="50.84039" lon="1.59734">
        <ele>59.8</ele>
        <time>2015-04-07T14:43:41.000Z</time>
      </trkpt>
      <trkpt lat="50.84039" lon="1.59734">
        <ele>59.8</ele>
        <time>2015-04-07T14:43:42.000Z</time>
      </trkpt>
      <trkpt lat="50.84039" lon="1.59734">
        <ele>59.8</ele>
        <time>2015-04-07T14:43:43.000Z</time>
      </trkpt>
      <trkpt lat="50.84039" lon="1.59734">
        <ele>59.8</ele>
        <time>2015-04-07T14:43:44.000Z</time>
      </trkpt>
      <trkpt lat="50.84039" lon="1.59734">
        <ele>59.8</ele>
        <time>2015-04-07T14:43:45.000Z</time>
      </trkpt>
      <trkpt lat="50.84039" lon="1.59734">
        <ele>59.8</ele>
        <time>2015-04-07T14:43:46.000Z</time>
      </trkpt>
      <trkpt lat="50.84039" lon="1.59734">
        <ele>59.8</ele>
        <time>2015-04-07T14:43:47.000Z</time>
      </trkpt>
      <trkpt lat="50.84038" lon="1.59734">
        <ele>59.8</ele>
        <time>2015-04-07T14:43:48.000Z</time>
      </trkpt>
      <trkpt lat="50.84038" lon="1.59734">
        <ele>59.8</ele>
        <time>2015-04-07T14:43:49.000Z</time>
      </trkpt>
      <trkpt lat="50.84038" lon="1.59733">
        <ele>59.8</ele>
        <time>2015-04-07T14:43:50.000Z</time>
      </trkpt>
      <trkpt lat="50.84038" lon="1.59733">
        <ele>59.8</ele>
        <time>2015-04-07T14:43:51.000Z</time>
      </trkpt>
      <trkpt lat="50.84038" lon="1.59731">
        <ele>59.7</ele>
        <time>2015-04-07T14:43:52.000Z</time>
      </trkpt>
      <trkpt lat="50.84038" lon="1.59731">
        <ele>59.7</ele>
        <time>2015-04-07T14:43:53.000Z</time>
      </trkpt>
      <trkpt lat="50.84038" lon="1.59731">
        <ele>59.7</ele>
        <time>2015-04-07T14:43:54.000Z</time>
      </trkpt>
      <trkpt lat="50.84038" lon="1.59731">
        <ele>59.7</ele>
        <time>2015-04-07T14:43:55.000Z</time>
      </trkpt>
      <trkpt lat="50.84038" lon="1.59731">
        <ele>59.7</ele>
        <time>2015-04-07T14:43:56.000Z</time>
      </trkpt>
      <trkpt lat="50.84038" lon="1.59731">
        <ele>59.7</ele>
        <time>2015-04-07T14:43:57.000Z</time>
      </trkpt>
      <trkpt lat="50.84038" lon="1.59731">
        <ele>59.7</ele>
        <time>2015-04-07T14:43:58.000Z</time>
      </trkpt>
      <trkpt lat="50.84038" lon="1.59731">
        <ele>59.7</ele>
        <time>2015-04-07T14:43:59.000Z</time>
      </trkpt>
      <trkpt lat="50.84038" lon="1.59731">
        <ele>59.7</ele>
        <time>2015-04-07T14:44:00.000Z</time>
      </trkpt>
      <trkpt lat="50.84038" lon="1.59731">
        <ele>59.7</ele>
        <time>2015-04-07T14:44:01.000Z</time>
      </trkpt>
      <trkpt lat="50.84039" lon="1.59731">
        <ele>59.7</ele>
        <time>2015-04-07T14:44:02.000Z</time>
      </trkpt>
      <trkpt lat="50.84039" lon="1.59731">
        <ele>59.6</ele>
        <time>2015-04-07T14:44:03.000Z</time>
      </trkpt>
      <trkpt lat="50.84039" lon="1.5973">
        <ele>59.6</ele>
        <time>2015-04-07T14:44:04.000Z</time>
      </trkpt>
      <trkpt lat="50.84039" lon="1.5973">
        <ele>59.6</ele>
        <time>2015-04-07T14:44:05.000Z</time>
      </trkpt>
      <trkpt lat="50.8404" lon="1.5973">
        <ele>59.5</ele>
        <time>2015-04-07T14:44:06.000Z</time>
      </trkpt>
      <trkpt lat="50.8404" lon="1.59729">
        <ele>59.5</ele>
        <time>2015-04-07T14:44:07.000Z</time>
      </trkpt>
      <trkpt lat="50.8404" lon="1.59729">
        <ele>59.4</ele>
        <time>2015-04-07T14:44:08.000Z</time>
      </trkpt>
      <trkpt lat="50.84041" lon="1.59728">
        <ele>59.4</ele>
        <time>2015-04-07T14:44:09.000Z</time>
      </trkpt>
      <trkpt lat="50.84041" lon="1.59728">
        <ele>59.3</ele>
        <time>2015-04-07T14:44:10.000Z</time>
      </trkpt>
      <trkpt lat="50.84041" lon="1.59727">
        <ele>59.3</ele>
        <time>2015-04-07T14:44:11.000Z</time>
      </trkpt>
      <trkpt lat="50.84041" lon="1.59726">
        <ele>59.2</ele>
        <time>2015-04-07T14:44:12.000Z</time>
      </trkpt>
      <trkpt lat="50.84042" lon="1.59725">
        <ele>59.2</ele>
        <time>2015-04-07T14:44:13.000Z</time>
      </trkpt>
      <trkpt lat="50.84042" lon="1.59724">
        <ele>59.1</ele>
        <time>2015-04-07T14:44:14.000Z</time>
      </trkpt>
      <trkpt lat="50.84042" lon="1.59723">
        <ele>59</ele>
        <time>2015-04-07T14:44:15.000Z</time>
      </trkpt>
      <trkpt lat="50.84042" lon="1.59723">
        <ele>59</ele>
        <time>2015-04-07T14:44:16.000Z</time>
      </trkpt>
      <trkpt lat="50.84043" lon="1.5972">
        <ele>58.9</ele>
        <time>2015-04-07T14:44:17.000Z</time>
      </trkpt>
      <trkpt lat="50.84043" lon="1.5972">
        <ele>58.9</ele>
        <time>2015-04-07T14:44:18.000Z</time>
      </trkpt>
      <trkpt lat="50.84043" lon="1.5972">
        <ele>58.8</ele>
        <time>2015-04-07T14:44:19.000Z</time>
      </trkpt>
      <trkpt lat="50.84043" lon="1.5972">
        <ele>58.8</ele>
        <time>2015-04-07T14:44:20.000Z</time>
      </trkpt>
      <trkpt lat="50.84044" lon="1.5972">
        <ele>58.8</ele>
        <time>2015-04-07T14:44:21.000Z</time>
      </trkpt>
      <trkpt lat="50.84044" lon="1.59719">
        <ele>58.7</ele>
        <time>2015-04-07T14:44:22.000Z</time>
      </trkpt>
      <trkpt lat="50.84044" lon="1.59719">
        <ele>58.7</ele>
        <time>2015-04-07T14:44:23.000Z</time>
      </trkpt>
      <trkpt lat="50.84045" lon="1.59719">
        <ele>58.7</ele>
        <time>2015-04-07T14:44:24.000Z</time>
      </trkpt>
      <trkpt lat="50.84045" lon="1.59718">
        <ele>58.6</ele>
        <time>2015-04-07T14:44:25.000Z</time>
      </trkpt>
      <trkpt lat="50.84046" lon="1.59717">
        <ele>58.5</ele>
        <time>2015-04-07T14:44:26.000Z</time>
      </trkpt>
      <trkpt lat="50.84046" lon="1.59717">
        <ele>58.5</ele>
        <time>2015-04-07T14:44:27.000Z</time>
      </trkpt>
      <trkpt lat="50.84047" lon="1.59716">
        <ele>58.4</ele>
        <time>2015-04-07T14:44:28.000Z</time>
      </trkpt>
      <trkpt lat="50.84048" lon="1.59715">
        <ele>58.3</ele>
        <time>2015-04-07T14:44:29.000Z</time>
      </trkpt>
      <trkpt lat="50.84048" lon="1.59714">
        <ele>58.2</ele>
        <time>2015-04-07T14:44:30.000Z</time>
      </trkpt>
      <trkpt lat="50.84049" lon="1.59713">
        <ele>58.2</ele>
        <time>2015-04-07T14:44:31.000Z</time>
      </trkpt>
      <trkpt lat="50.84049" lon="1.59713">
        <ele>58.1</ele>
        <time>2015-04-07T14:44:32.000Z</time>
      </trkpt>
      <trkpt lat="50.8405" lon="1.59712">
        <ele>58</ele>
        <time>2015-04-07T14:44:33.000Z</time>
      </trkpt>
      <trkpt lat="50.8405" lon="1.59711">
        <ele>58</ele>
        <time>2015-04-07T14:44:34.000Z</time>
      </trkpt>
      <trkpt lat="50.8405" lon="1.59709">
        <ele>57.9</ele>
        <time>2015-04-07T14:44:35.000Z</time>
      </trkpt>
      <trkpt lat="50.84051" lon="1.59708">
        <ele>57.8</ele>
        <time>2015-04-07T14:44:36.000Z</time>
      </trkpt>
      <trkpt lat="50.84051" lon="1.59706">
        <ele>57.8</ele>
        <time>2015-04-07T14:44:37.000Z</time>
      </trkpt>
      <trkpt lat="50.84051" lon="1.59705">
        <ele>57.7</ele>
        <time>2015-04-07T14:44:38.000Z</time>
      </trkpt>
      <trkpt lat="50.8405" lon="1.59703">
        <ele>57.7</ele>
        <time>2015-04-07T14:44:39.000Z</time>
      </trkpt>
      <trkpt lat="50.8405" lon="1.59701">
        <ele>57.6</ele>
        <time>2015-04-07T14:44:40.000Z</time>
      </trkpt>
      <trkpt lat="50.8405" lon="1.597">
        <ele>57.6</ele>
        <time>2015-04-07T14:44:41.000Z</time>
      </trkpt>
      <trkpt lat="50.84049" lon="1.59698">
        <ele>57.6</ele>
        <time>2015-04-07T14:44:42.000Z</time>
      </trkpt>
      <trkpt lat="50.84049" lon="1.59696">
        <ele>57.5</ele>
        <time>2015-04-07T14:44:43.000Z</time>
      </trkpt>
      <trkpt lat="50.84048" lon="1.59695">
        <ele>57.5</ele>
        <time>2015-04-07T14:44:44.000Z</time>
      </trkpt>
      <trkpt lat="50.84048" lon="1.59693">
        <ele>57.5</ele>
        <time>2015-04-07T14:44:45.000Z</time>
      </trkpt>
      <trkpt lat="50.84047" lon="1.59692">
        <ele>57.5</ele>
        <time>2015-04-07T14:44:46.000Z</time>
      </trkpt>
      <trkpt lat="50.84047" lon="1.5969">
        <ele>57.4</ele>
        <time>2015-04-07T14:44:47.000Z</time>
      </trkpt>
      <trkpt lat="50.84046" lon="1.59689">
        <ele>57.4</ele>
        <time>2015-04-07T14:44:48.000Z</time>
      </trkpt>
      <trkpt lat="50.84046" lon="1.59687">
        <ele>57.4</ele>
        <time>2015-04-07T14:44:49.000Z</time>
      </trkpt>
      <trkpt lat="50.84045" lon="1.59686">
        <ele>57.3</ele>
        <time>2015-04-07T14:44:50.000Z</time>
      </trkpt>
      <trkpt lat="50.84044" lon="1.59685">
        <ele>57.3</ele>
        <time>2015-04-07T14:44:51.000Z</time>
      </trkpt>
      <trkpt lat="50.84044" lon="1.59684">
        <ele>57.3</ele>
        <time>2015-04-07T14:44:52.000Z</time>
      </trkpt>
      <trkpt lat="50.84043" lon="1.59682">
        <ele>57.3</ele>
        <time>2015-04-07T14:44:53.000Z</time>
      </trkpt>
      <trkpt lat="50.84042" lon="1.59681">
        <ele>57.2</ele>
        <time>2015-04-07T14:44:54.000Z</time>
      </trkpt>
      <trkpt lat="50.84042" lon="1.5968">
        <ele>57.2</ele>
        <time>2015-04-07T14:44:55.000Z</time>
      </trkpt>
      <trkpt lat="50.84041" lon="1.59678">
        <ele>57.2</ele>
        <time>2015-04-07T14:44:56.000Z</time>
      </trkpt>
      <trkpt lat="50.84041" lon="1.59677">
        <ele>57.1</ele>
        <time>2015-04-07T14:44:57.000Z</time>
      </trkpt>
      <trkpt lat="50.8404" lon="1.59676">
        <ele>57.1</ele>
        <time>2015-04-07T14:44:58.000Z</time>
      </trkpt>
      <trkpt lat="50.8404" lon="1.59676">
        <ele>57.1</ele>
        <time>2015-04-07T14:44:59.000Z</time>
      </trkpt>
      <trkpt lat="50.84039" lon="1.59675">
        <ele>57.1</ele>
        <time>2015-04-07T14:45:00.000Z</time>
      </trkpt>
      <trkpt lat="50.84038" lon="1.59674">
        <ele>57</ele>
        <time>2015-04-07T14:45:01.000Z</time>
      </trkpt>
      <trkpt lat="50.84037" lon="1.59673">
        <ele>57</ele>
        <time>2015-04-07T14:45:02.000Z</time>
      </trkpt>
      <trkpt lat="50.84037" lon="1.59672">
        <ele>57</ele>
        <time>2015-04-07T14:45:03.000Z</time>
      </trkpt>
      <trkpt lat="50.84036" lon="1.59671">
        <ele>56.9</ele>
        <time>2015-04-07T14:45:04.000Z</time>
      </trkpt>
      <trkpt lat="50.84035" lon="1.5967">
        <ele>56.9</ele>
        <time>2015-04-07T14:45:05.000Z</time>
      </trkpt>
      <trkpt lat="50.84035" lon="1.59669">
        <ele>56.9</ele>
        <time>2015-04-07T14:45:06.000Z</time>
      </trkpt>
      <trkpt lat="50.84034" lon="1.59667">
        <ele>56.8</ele>
        <time>2015-04-07T14:45:07.000Z</time>
      </trkpt>
      <trkpt lat="50.84033" lon="1.59666">
        <ele>56.8</ele>
        <time>2015-04-07T14:45:08.000Z</time>
      </trkpt>
      <trkpt lat="50.84032" lon="1.59665">
        <ele>56.7</ele>
        <time>2015-04-07T14:45:09.000Z</time>
      </trkpt>
      <trkpt lat="50.84031" lon="1.59663">
        <ele>56.7</ele>
        <time>2015-04-07T14:45:10.000Z</time>
      </trkpt>
      <trkpt lat="50.8403" lon="1.59662">
        <ele>56.6</ele>
        <time>2015-04-07T14:45:11.000Z</time>
      </trkpt>
      <trkpt lat="50.8403" lon="1.5966">
        <ele>56.5</ele>
        <time>2015-04-07T14:45:12.000Z</time>
      </trkpt>
      <trkpt lat="50.84029" lon="1.59659">
        <ele>56.4</ele>
        <time>2015-04-07T14:45:13.000Z</time>
      </trkpt>
      <trkpt lat="50.84029" lon="1.59657">
        <ele>56.3</ele>
        <time>2015-04-07T14:45:14.000Z</time>
      </trkpt>
      <trkpt lat="50.84028" lon="1.59655">
        <ele>56.2</ele>
        <time>2015-04-07T14:45:15.000Z</time>
      </trkpt>
      <trkpt lat="50.84028" lon="1.59654">
        <ele>56.1</ele>
        <time>2015-04-07T14:45:16.000Z</time>
      </trkpt>
      <trkpt lat="50.84028" lon="1.59652">
        <ele>56</ele>
        <time>2015-04-07T14:45:17.000Z</time>
      </trkpt>
      <trkpt lat="50.84028" lon="1.59651">
        <ele>55.9</ele>
        <time>2015-04-07T14:45:18.000Z</time>
      </trkpt>
      <trkpt lat="50.84027" lon="1.59649">
        <ele>55.7</ele>
        <time>2015-04-07T14:45:19.000Z</time>
      </trkpt>
      <trkpt lat="50.84027" lon="1.59648">
        <ele>55.6</ele>
        <time>2015-04-07T14:45:20.000Z</time>
      </trkpt>
      <trkpt lat="50.84027" lon="1.59646">
        <ele>55.5</ele>
        <time>2015-04-07T14:45:21.000Z</time>
      </trkpt>
      <trkpt lat="50.84027" lon="1.59645">
        <ele>55.4</ele>
        <time>2015-04-07T14:45:22.000Z</time>
      </trkpt>
      <trkpt lat="50.84026" lon="1.59643">
        <ele>55.3</ele>
        <time>2015-04-07T14:45:23.000Z</time>
      </trkpt>
      <trkpt lat="50.84026" lon="1.59642">
        <ele>55.1</ele>
        <time>2015-04-07T14:45:24.000Z</time>
      </trkpt>
      <trkpt lat="50.84026" lon="1.5964">
        <ele>55</ele>
        <time>2015-04-07T14:45:25.000Z</time>
      </trkpt>
      <trkpt lat="50.84026" lon="1.59638">
        <ele>54.9</ele>
        <time>2015-04-07T14:45:26.000Z</time>
      </trkpt>
      <trkpt lat="50.84025" lon="1.59637">
        <ele>54.9</ele>
        <time>2015-04-07T14:45:27.000Z</time>
      </trkpt>
      <trkpt lat="50.84025" lon="1.59635">
        <ele>54.9</ele>
        <time>2015-04-07T14:45:28.000Z</time>
      </trkpt>
      <trkpt lat="50.84025" lon="1.59633">
        <ele>54.9</ele>
        <time>2015-04-07T14:45:29.000Z</time>
      </trkpt>
      <trkpt lat="50.84025" lon="1.59631">
        <ele>54.9</ele>
        <time>2015-04-07T14:45:30.000Z</time>
      </trkpt>
      <trkpt lat="50.84024" lon="1.5963">
        <ele>54.8</ele>
        <time>2015-04-07T14:45:31.000Z</time>
      </trkpt>
      <trkpt lat="50.84024" lon="1.59628">
        <ele>54.8</ele>
        <time>2015-04-07T14:45:32.000Z</time>
      </trkpt>
      <trkpt lat="50.84024" lon="1.59626">
        <ele>54.8</ele>
        <time>2015-04-07T14:45:33.000Z</time>
      </trkpt>
      <trkpt lat="50.84024" lon="1.59625">
        <ele>54.8</ele>
        <time>2015-04-07T14:45:34.000Z</time>
      </trkpt>
      <trkpt lat="50.84023" lon="1.59623">
        <ele>54.8</ele>
        <time>2015-04-07T14:45:35.000Z</time>
      </trkpt>
      <trkpt lat="50.84023" lon="1.59622">
        <ele>54.7</ele>
        <time>2015-04-07T14:45:36.000Z</time>
      </trkpt>
      <trkpt lat="50.84023" lon="1.5962">
        <ele>54.7</ele>
        <time>2015-04-07T14:45:37.000Z</time>
      </trkpt>
      <trkpt lat="50.84023" lon="1.59618">
        <ele>54.7</ele>
        <time>2015-04-07T14:45:38.000Z</time>
      </trkpt>
      <trkpt lat="50.84023" lon="1.59617">
        <ele>54.7</ele>
        <time>2015-04-07T14:45:39.000Z</time>
      </trkpt>
      <trkpt lat="50.84023" lon="1.59615">
        <ele>54.7</ele>
        <time>2015-04-07T14:45:40.000Z</time>
      </trkpt>
      <trkpt lat="50.84022" lon="1.59614">
        <ele>54.6</ele>
        <time>2015-04-07T14:45:41.000Z</time>
      </trkpt>
      <trkpt lat="50.84022" lon="1.59612">
        <ele>54.6</ele>
        <time>2015-04-07T14:45:42.000Z</time>
      </trkpt>
      <trkpt lat="50.84022" lon="1.5961">
        <ele>54.6</ele>
        <time>2015-04-07T14:45:43.000Z</time>
      </trkpt>
      <trkpt lat="50.84021" lon="1.59609">
        <ele>54.5</ele>
        <time>2015-04-07T14:45:44.000Z</time>
      </trkpt>
      <trkpt lat="50.84021" lon="1.59607">
        <ele>54.5</ele>
        <time>2015-04-07T14:45:45.000Z</time>
      </trkpt>
      <trkpt lat="50.8402" lon="1.59605">
        <ele>54.4</ele>
        <time>2015-04-07T14:45:46.000Z</time>
      </trkpt>
      <trkpt lat="50.8402" lon="1.59604">
        <ele>54.4</ele>
        <time>2015-04-07T14:45:47.000Z</time>
      </trkpt>
      <trkpt lat="50.84019" lon="1.59602">
        <ele>54.4</ele>
        <time>2015-04-07T14:45:48.000Z</time>
      </trkpt>
      <trkpt lat="50.84019" lon="1.596">
        <ele>54.4</ele>
        <time>2015-04-07T14:45:49.000Z</time>
      </trkpt>
      <trkpt lat="50.84019" lon="1.59598">
        <ele>54.4</ele>
        <time>2015-04-07T14:45:50.000Z</time>
      </trkpt>
      <trkpt lat="50.84019" lon="1.59597">
        <ele>54.4</ele>
        <time>2015-04-07T14:45:51.000Z</time>
      </trkpt>
      <trkpt lat="50.84019" lon="1.59595">
        <ele>54.3</ele>
        <time>2015-04-07T14:45:52.000Z</time>
      </trkpt>
      <trkpt lat="50.84018" lon="1.59593">
        <ele>54.3</ele>
        <time>2015-04-07T14:45:53.000Z</time>
      </trkpt>
      <trkpt lat="50.84018" lon="1.59592">
        <ele>54.3</ele>
        <time>2015-04-07T14:45:54.000Z</time>
      </trkpt>
      <trkpt lat="50.84017" lon="1.5959">
        <ele>54.2</ele>
        <time>2015-04-07T14:45:55.000Z</time>
      </trkpt>
      <trkpt lat="50.84017" lon="1.59588">
        <ele>54.2</ele>
        <time>2015-04-07T14:45:56.000Z</time>
      </trkpt>
      <trkpt lat="50.84016" lon="1.59587">
        <ele>54.2</ele>
        <time>2015-04-07T14:45:57.000Z</time>
      </trkpt>
      <trkpt lat="50.84016" lon="1.59585">
        <ele>54.1</ele>
        <time>2015-04-07T14:45:58.000Z</time>
      </trkpt>
      <trkpt lat="50.84015" lon="1.59583">
        <ele>54.1</ele>
        <time>2015-04-07T14:45:59.000Z</time>
      </trkpt>
      <trkpt lat="50.84015" lon="1.59582">
        <ele>54.1</ele>
        <time>2015-04-07T14:46:00.000Z</time>
      </trkpt>
      <trkpt lat="50.84015" lon="1.5958">
        <ele>54</ele>
        <time>2015-04-07T14:46:01.000Z</time>
      </trkpt>
      <trkpt lat="50.84014" lon="1.59579">
        <ele>53.9</ele>
        <time>2015-04-07T14:46:02.000Z</time>
      </trkpt>
      <trkpt lat="50.84013" lon="1.59577">
        <ele>53.9</ele>
        <time>2015-04-07T14:46:03.000Z</time>
      </trkpt>
      <trkpt lat="50.84013" lon="1.59576">
        <ele>53.8</ele>
        <time>2015-04-07T14:46:04.000Z</time>
      </trkpt>
      <trkpt lat="50.84012" lon="1.59574">
        <ele>53.8</ele>
        <time>2015-04-07T14:46:05.000Z</time>
      </trkpt>
      <trkpt lat="50.84011" lon="1.5957">
        <ele>53.6</ele>
        <time>2015-04-07T14:46:06.000Z</time>
      </trkpt>
      <trkpt lat="50.84011" lon="1.5957">
        <ele>53.6</ele>
        <time>2015-04-07T14:46:07.000Z</time>
      </trkpt>
      <trkpt lat="50.84011" lon="1.5957">
        <ele>53.6</ele>
        <time>2015-04-07T14:46:08.000Z</time>
      </trkpt>
      <trkpt lat="50.84011" lon="1.5957">
        <ele>53.6</ele>
        <time>2015-04-07T14:46:09.000Z</time>
      </trkpt>
      <trkpt lat="50.84011" lon="1.5957">
        <ele>53.6</ele>
        <time>2015-04-07T14:46:10.000Z</time>
      </trkpt>
      <trkpt lat="50.84012" lon="1.59569">
        <ele>53.6</ele>
        <time>2015-04-07T14:46:11.000Z</time>
      </trkpt>
      <trkpt lat="50.84012" lon="1.59569">
        <ele>53.6</ele>
        <time>2015-04-07T14:46:12.000Z</time>
      </trkpt>
      <trkpt lat="50.84012" lon="1.59569">
        <ele>53.6</ele>
        <time>2015-04-07T14:46:13.000Z</time>
      </trkpt>
      <trkpt lat="50.84012" lon="1.59569">
        <ele>53.6</ele>
        <time>2015-04-07T14:46:14.000Z</time>
      </trkpt>
      <trkpt lat="50.84012" lon="1.59568">
        <ele>53.6</ele>
        <time>2015-04-07T14:46:15.000Z</time>
      </trkpt>
      <trkpt lat="50.84012" lon="1.59567">
        <ele>53.6</ele>
        <time>2015-04-07T14:46:16.000Z</time>
      </trkpt>
      <trkpt lat="50.84012" lon="1.59566">
        <ele>53.6</ele>
        <time>2015-04-07T14:46:17.000Z</time>
      </trkpt>
      <trkpt lat="50.84011" lon="1.59565">
        <ele>53.6</ele>
        <time>2015-04-07T14:46:18.000Z</time>
      </trkpt>
      <trkpt lat="50.84011" lon="1.59564">
        <ele>53.5</ele>
        <time>2015-04-07T14:46:19.000Z</time>
      </trkpt>
      <trkpt lat="50.84011" lon="1.59562">
        <ele>53.5</ele>
        <time>2015-04-07T14:46:20.000Z</time>
      </trkpt>
      <trkpt lat="50.84012" lon="1.59561">
        <ele>53.5</ele>
        <time>2015-04-07T14:46:21.000Z</time>
      </trkpt>
      <trkpt lat="50.84012" lon="1.59559">
        <ele>53.5</ele>
        <time>2015-04-07T14:46:22.000Z</time>
      </trkpt>
      <trkpt lat="50.84012" lon="1.59558">
        <ele>53.5</ele>
        <time>2015-04-07T14:46:23.000Z</time>
      </trkpt>
      <trkpt lat="50.84012" lon="1.59556">
        <ele>53.4</ele>
        <time>2015-04-07T14:46:24.000Z</time>
      </trkpt>
      <trkpt lat="50.84012" lon="1.59555">
        <ele>53.4</ele>
        <time>2015-04-07T14:46:25.000Z</time>
      </trkpt>
      <trkpt lat="50.84013" lon="1.59553">
        <ele>53.4</ele>
        <time>2015-04-07T14:46:26.000Z</time>
      </trkpt>
      <trkpt lat="50.84013" lon="1.59551">
        <ele>53.3</ele>
        <time>2015-04-07T14:46:27.000Z</time>
      </trkpt>
      <trkpt lat="50.84013" lon="1.5955">
        <ele>53.3</ele>
        <time>2015-04-07T14:46:28.000Z</time>
      </trkpt>
      <trkpt lat="50.84013" lon="1.59548">
        <ele>53.2</ele>
        <time>2015-04-07T14:46:29.000Z</time>
      </trkpt>
      <trkpt lat="50.84013" lon="1.59546">
        <ele>53.1</ele>
        <time>2015-04-07T14:46:30.000Z</time>
      </trkpt>
      <trkpt lat="50.84013" lon="1.59544">
        <ele>53.1</ele>
        <time>2015-04-07T14:46:31.000Z</time>
      </trkpt>
      <trkpt lat="50.84013" lon="1.59542">
        <ele>53</ele>
        <time>2015-04-07T14:46:32.000Z</time>
      </trkpt>
      <trkpt lat="50.84014" lon="1.5954">
        <ele>52.9</ele>
        <time>2015-04-07T14:46:33.000Z</time>
      </trkpt>
      <trkpt lat="50.84014" lon="1.59538">
        <ele>52.9</ele>
        <time>2015-04-07T14:46:34.000Z</time>
      </trkpt>
      <trkpt lat="50.84014" lon="1.59537">
        <ele>52.8</ele>
        <time>2015-04-07T14:46:35.000Z</time>
      </trkpt>
      <trkpt lat="50.84014" lon="1.59535">
        <ele>52.7</ele>
        <time>2015-04-07T14:46:36.000Z</time>
      </trkpt>
      <trkpt lat="50.84013" lon="1.59533">
        <ele>52.7</ele>
        <time>2015-04-07T14:46:37.000Z</time>
      </trkpt>
      <trkpt lat="50.84013" lon="1.59531">
        <ele>52.6</ele>
        <time>2015-04-07T14:46:38.000Z</time>
      </trkpt>
      <trkpt lat="50.84013" lon="1.59529">
        <ele>52.5</ele>
        <time>2015-04-07T14:46:39.000Z</time>
      </trkpt>
      <trkpt lat="50.84013" lon="1.59527">
        <ele>52.5</ele>
        <time>2015-04-07T14:46:40.000Z</time>
      </trkpt>
      <trkpt lat="50.84013" lon="1.59525">
        <ele>52.5</ele>
        <time>2015-04-07T14:46:41.000Z</time>
      </trkpt>
      <trkpt lat="50.84013" lon="1.59524">
        <ele>52.5</ele>
        <time>2015-04-07T14:46:42.000Z</time>
      </trkpt>
      <trkpt lat="50.84012" lon="1.59522">
        <ele>52.4</ele>
        <time>2015-04-07T14:46:43.000Z</time>
      </trkpt>
      <trkpt lat="50.84012" lon="1.5952">
        <ele>52.4</ele>
        <time>2015-04-07T14:46:44.000Z</time>
      </trkpt>
      <trkpt lat="50.84012" lon="1.59518">
        <ele>52.4</ele>
        <time>2015-04-07T14:46:45.000Z</time>
      </trkpt>
      <trkpt lat="50.84011" lon="1.59516">
        <ele>52.4</ele>
        <time>2015-04-07T14:46:46.000Z</time>
      </trkpt>
      <trkpt lat="50.84011" lon="1.59515">
        <ele>52.4</ele>
        <time>2015-04-07T14:46:47.000Z</time>
      </trkpt>
      <trkpt lat="50.84011" lon="1.59513">
        <ele>52.4</ele>
        <time>2015-04-07T14:46:48.000Z</time>
      </trkpt>
      <trkpt lat="50.8401" lon="1.59511">
        <ele>52.4</ele>
        <time>2015-04-07T14:46:49.000Z</time>
      </trkpt>
      <trkpt lat="50.8401" lon="1.59509">
        <ele>52.4</ele>
        <time>2015-04-07T14:46:50.000Z</time>
      </trkpt>
      <trkpt lat="50.8401" lon="1.59508">
        <ele>52.4</ele>
        <time>2015-04-07T14:46:51.000Z</time>
      </trkpt>
      <trkpt lat="50.8401" lon="1.59506">
        <ele>52.3</ele>
        <time>2015-04-07T14:46:52.000Z</time>
      </trkpt>
      <trkpt lat="50.84009" lon="1.59504">
        <ele>52.3</ele>
        <time>2015-04-07T14:46:53.000Z</time>
      </trkpt>
      <trkpt lat="50.84009" lon="1.59502">
        <ele>52.3</ele>
        <time>2015-04-07T14:46:54.000Z</time>
      </trkpt>
      <trkpt lat="50.84009" lon="1.595">
        <ele>52.3</ele>
        <time>2015-04-07T14:46:55.000Z</time>
      </trkpt>
      <trkpt lat="50.84009" lon="1.59498">
        <ele>52.4</ele>
        <time>2015-04-07T14:46:56.000Z</time>
      </trkpt>
      <trkpt lat="50.84008" lon="1.59496">
        <ele>52.4</ele>
        <time>2015-04-07T14:46:57.000Z</time>
      </trkpt>
      <trkpt lat="50.84008" lon="1.59495">
        <ele>52.5</ele>
        <time>2015-04-07T14:46:58.000Z</time>
      </trkpt>
      <trkpt lat="50.84008" lon="1.59493">
        <ele>52.6</ele>
        <time>2015-04-07T14:46:59.000Z</time>
      </trkpt>
      <trkpt lat="50.84008" lon="1.59491">
        <ele>52.7</ele>
        <time>2015-04-07T14:47:00.000Z</time>
      </trkpt>
      <trkpt lat="50.84007" lon="1.59489">
        <ele>52.7</ele>
        <time>2015-04-07T14:47:01.000Z</time>
      </trkpt>
      <trkpt lat="50.84007" lon="1.59487">
        <ele>52.8</ele>
        <time>2015-04-07T14:47:02.000Z</time>
      </trkpt>
      <trkpt lat="50.84007" lon="1.59485">
        <ele>52.9</ele>
        <time>2015-04-07T14:47:03.000Z</time>
      </trkpt>
      <trkpt lat="50.84006" lon="1.59483">
        <ele>53</ele>
        <time>2015-04-07T14:47:04.000Z</time>
      </trkpt>
      <trkpt lat="50.84006" lon="1.59481">
        <ele>53.1</ele>
        <time>2015-04-07T14:47:05.000Z</time>
      </trkpt>
      <trkpt lat="50.84006" lon="1.5948">
        <ele>53.2</ele>
        <time>2015-04-07T14:47:06.000Z</time>
      </trkpt>
      <trkpt lat="50.84005" lon="1.59478">
        <ele>53.3</ele>
        <time>2015-04-07T14:47:07.000Z</time>
      </trkpt>
      <trkpt lat="50.84005" lon="1.59477">
        <ele>53.4</ele>
        <time>2015-04-07T14:47:08.000Z</time>
      </trkpt>
      <trkpt lat="50.84004" lon="1.59475">
        <ele>53.5</ele>
        <time>2015-04-07T14:47:09.000Z</time>
      </trkpt>
      <trkpt lat="50.84004" lon="1.59474">
        <ele>53.6</ele>
        <time>2015-04-07T14:47:10.000Z</time>
      </trkpt>
      <trkpt lat="50.84004" lon="1.59472">
        <ele>53.7</ele>
        <time>2015-04-07T14:47:11.000Z</time>
      </trkpt>
      <trkpt lat="50.84003" lon="1.59471">
        <ele>53.7</ele>
        <time>2015-04-07T14:47:12.000Z</time>
      </trkpt>
      <trkpt lat="50.84003" lon="1.59469">
        <ele>53.7</ele>
        <time>2015-04-07T14:47:13.000Z</time>
      </trkpt>
      <trkpt lat="50.84002" lon="1.59468">
        <ele>53.7</ele>
        <time>2015-04-07T14:47:14.000Z</time>
      </trkpt>
      <trkpt lat="50.84002" lon="1.59467">
        <ele>53.7</ele>
        <time>2015-04-07T14:47:15.000Z</time>
      </trkpt>
      <trkpt lat="50.84002" lon="1.59466">
        <ele>53.7</ele>
        <time>2015-04-07T14:47:16.000Z</time>
      </trkpt>
      <trkpt lat="50.84001" lon="1.59462">
        <ele>53.6</ele>
        <time>2015-04-07T14:47:17.000Z</time>
      </trkpt>
      <trkpt lat="50.84001" lon="1.59462">
        <ele>53.6</ele>
        <time>2015-04-07T14:47:18.000Z</time>
      </trkpt>
      <trkpt lat="50.84001" lon="1.59463">
        <ele>53.6</ele>
        <time>2015-04-07T14:47:19.000Z</time>
      </trkpt>
      <trkpt lat="50.84001" lon="1.59463">
        <ele>53.6</ele>
        <time>2015-04-07T14:47:20.000Z</time>
      </trkpt>
      <trkpt lat="50.84001" lon="1.59463">
        <ele>53.6</ele>
        <time>2015-04-07T14:47:21.000Z</time>
      </trkpt>
      <trkpt lat="50.84001" lon="1.59463">
        <ele>53.6</ele>
        <time>2015-04-07T14:47:22.000Z</time>
      </trkpt>
      <trkpt lat="50.84001" lon="1.59463">
        <ele>53.6</ele>
        <time>2015-04-07T14:47:23.000Z</time>
      </trkpt>
      <trkpt lat="50.84001" lon="1.59463">
        <ele>53.6</ele>
        <time>2015-04-07T14:47:24.000Z</time>
      </trkpt>
      <trkpt lat="50.84001" lon="1.59463">
        <ele>53.6</ele>
        <time>2015-04-07T14:47:25.000Z</time>
      </trkpt>
      <trkpt lat="50.84001" lon="1.59463">
        <ele>53.6</ele>
        <time>2015-04-07T14:47:26.000Z</time>
      </trkpt>
      <trkpt lat="50.84001" lon="1.59463">
        <ele>53.6</ele>
        <time>2015-04-07T14:47:27.000Z</time>
      </trkpt>
      <trkpt lat="50.84001" lon="1.59463">
        <ele>53.6</ele>
        <time>2015-04-07T14:47:28.000Z</time>
      </trkpt>
      <trkpt lat="50.84001" lon="1.59463">
        <ele>53.6</ele>
        <time>2015-04-07T14:47:29.000Z</time>
      </trkpt>
      <trkpt lat="50.84001" lon="1.59463">
        <ele>53.6</ele>
        <time>2015-04-07T14:47:30.000Z</time>
      </trkpt>
      <trkpt lat="50.84001" lon="1.59464">
        <ele>53.6</ele>
        <time>2015-04-07T14:47:31.000Z</time>
      </trkpt>
      <trkpt lat="50.84001" lon="1.59464">
        <ele>53.6</ele>
        <time>2015-04-07T14:47:32.000Z</time>
      </trkpt>
      <trkpt lat="50.84001" lon="1.59464">
        <ele>53.6</ele>
        <time>2015-04-07T14:47:33.000Z</time>
      </trkpt>
      <trkpt lat="50.84001" lon="1.59464">
        <ele>53.6</ele>
        <time>2015-04-07T14:47:34.000Z</time>
      </trkpt>
      <trkpt lat="50.84001" lon="1.59464">
        <ele>53.6</ele>
        <time>2015-04-07T14:47:35.000Z</time>
      </trkpt>
      <trkpt lat="50.84001" lon="1.59464">
        <ele>53.6</ele>
        <time>2015-04-07T14:47:36.000Z</time>
      </trkpt>
      <trkpt lat="50.84001" lon="1.59464">
        <ele>53.6</ele>
        <time>2015-04-07T14:47:37.000Z</time>
      </trkpt>
      <trkpt lat="50.84001" lon="1.59464">
        <ele>53.6</ele>
        <time>2015-04-07T14:47:38.000Z</time>
      </trkpt>
      <trkpt lat="50.84001" lon="1.59464">
        <ele>53.6</ele>
        <time>2015-04-07T14:47:39.000Z</time>
      </trkpt>
      <trkpt lat="50.84001" lon="1.59464">
        <ele>53.6</ele>
        <time>2015-04-07T14:47:40.000Z</time>
      </trkpt>
      <trkpt lat="50.84001" lon="1.59464">
        <ele>53.6</ele>
        <time>2015-04-07T14:47:41.000Z</time>
      </trkpt>
      <trkpt lat="50.84001" lon="1.59464">
        <ele>53.6</ele>
        <time>2015-04-07T14:47:42.000Z</time>
      </trkpt>
      <trkpt lat="50.84001" lon="1.59464">
        <ele>53.6</ele>
        <time>2015-04-07T14:47:43.000Z</time>
      </trkpt>
      <trkpt lat="50.84001" lon="1.59464">
        <ele>53.6</ele>
        <time>2015-04-07T14:47:44.000Z</time>
      </trkpt>
      <trkpt lat="50.84001" lon="1.59464">
        <ele>53.6</ele>
        <time>2015-04-07T14:47:45.000Z</time>
      </trkpt>
      <trkpt lat="50.84001" lon="1.59464">
        <ele>53.6</ele>
        <time>2015-04-07T14:47:46.000Z</time>
      </trkpt>
      <trkpt lat="50.84001" lon="1.59464">
        <ele>53.6</ele>
        <time>2015-04-07T14:47:47.000Z</time>
      </trkpt>
      <trkpt lat="50.84001" lon="1.59464">
        <ele>53.6</ele>
        <time>2015-04-07T14:47:48.000Z</time>
      </trkpt>
      <trkpt lat="50.84001" lon="1.59463">
        <ele>53.6</ele>
        <time>2015-04-07T14:47:49.000Z</time>
      </trkpt>
      <trkpt lat="50.84001" lon="1.59463">
        <ele>53.6</ele>
        <time>2015-04-07T14:47:50.000Z</time>
      </trkpt>
      <trkpt lat="50.84001" lon="1.59463">
        <ele>53.6</ele>
        <time>2015-04-07T14:47:51.000Z</time>
      </trkpt>
      <trkpt lat="50.84001" lon="1.59463">
        <ele>53.6</ele>
        <time>2015-04-07T14:47:52.000Z</time>
      </trkpt>
      <trkpt lat="50.84001" lon="1.59464">
        <ele>53.6</ele>
        <time>2015-04-07T14:47:53.000Z</time>
      </trkpt>
      <trkpt lat="50.84001" lon="1.59464">
        <ele>53.6</ele>
        <time>2015-04-07T14:47:54.000Z</time>
      </trkpt>
      <trkpt lat="50.84001" lon="1.59464">
        <ele>53.6</ele>
        <time>2015-04-07T14:47:55.000Z</time>
      </trkpt>
      <trkpt lat="50.84001" lon="1.59464">
        <ele>53.6</ele>
        <time>2015-04-07T14:47:56.000Z</time>
      </trkpt>
      <trkpt lat="50.84001" lon="1.59464">
        <ele>53.6</ele>
        <time>2015-04-07T14:47:57.000Z</time>
      </trkpt>
      <trkpt lat="50.84001" lon="1.59464">
        <ele>53.6</ele>
        <time>2015-04-07T14:47:58.000Z</time>
      </trkpt>
      <trkpt lat="50.84001" lon="1.59464">
        <ele>53.6</ele>
        <time>2015-04-07T14:47:59.000Z</time>
      </trkpt>
      <trkpt lat="50.84001" lon="1.59464">
        <ele>53.6</ele>
        <time>2015-04-07T14:48:00.000Z</time>
      </trkpt>
      <trkpt lat="50.84001" lon="1.59464">
        <ele>53.6</ele>
        <time>2015-04-07T14:48:01.000Z</time>
      </trkpt>
      <trkpt lat="50.84001" lon="1.59464">
        <ele>53.6</ele>
        <time>2015-04-07T14:48:02.000Z</time>
      </trkpt>
      <trkpt lat="50.84001" lon="1.59464">
        <ele>53.6</ele>
        <time>2015-04-07T14:48:03.000Z</time>
      </trkpt>
      <trkpt lat="50.84001" lon="1.59464">
        <ele>53.6</ele>
        <time>2015-04-07T14:48:04.000Z</time>
      </trkpt>
      <trkpt lat="50.84001" lon="1.59464">
        <ele>53.6</ele>
        <time>2015-04-07T14:48:05.000Z</time>
      </trkpt>
      <trkpt lat="50.84001" lon="1.59464">
        <ele>53.6</ele>
        <time>2015-04-07T14:48:06.000Z</time>
      </trkpt>
      <trkpt lat="50.84001" lon="1.59463">
        <ele>53.6</ele>
        <time>2015-04-07T14:48:07.000Z</time>
      </trkpt>
      <trkpt lat="50.84001" lon="1.59463">
        <ele>53.6</ele>
        <time>2015-04-07T14:48:08.000Z</time>
      </trkpt>
      <trkpt lat="50.84002" lon="1.59463">
        <ele>53.6</ele>
        <time>2015-04-07T14:48:09.000Z</time>
      </trkpt>
      <trkpt lat="50.84002" lon="1.59463">
        <ele>53.6</ele>
        <time>2015-04-07T14:48:10.000Z</time>
      </trkpt>
      <trkpt lat="50.84002" lon="1.59465">
        <ele>53.6</ele>
        <time>2015-04-07T14:48:11.000Z</time>
      </trkpt>
      <trkpt lat="50.84002" lon="1.59465">
        <ele>53.6</ele>
        <time>2015-04-07T14:48:12.000Z</time>
      </trkpt>
      <trkpt lat="50.84002" lon="1.59465">
        <ele>53.6</ele>
        <time>2015-04-07T14:48:13.000Z</time>
      </trkpt>
      <trkpt lat="50.84003" lon="1.59466">
        <ele>53.6</ele>
        <time>2015-04-07T14:48:14.000Z</time>
      </trkpt>
      <trkpt lat="50.84003" lon="1.59467">
        <ele>53.6</ele>
        <time>2015-04-07T14:48:15.000Z</time>
      </trkpt>
      <trkpt lat="50.84003" lon="1.59468">
        <ele>53.6</ele>
        <time>2015-04-07T14:48:16.000Z</time>
      </trkpt>
      <trkpt lat="50.84004" lon="1.59468">
        <ele>53.6</ele>
        <time>2015-04-07T14:48:17.000Z</time>
      </trkpt>
      <trkpt lat="50.84004" lon="1.59469">
        <ele>53.7</ele>
        <time>2015-04-07T14:48:18.000Z</time>
      </trkpt>
      <trkpt lat="50.84004" lon="1.59471">
        <ele>53.7</ele>
        <time>2015-04-07T14:48:19.000Z</time>
      </trkpt>
      <trkpt lat="50.84004" lon="1.59472">
        <ele>53.7</ele>
        <time>2015-04-07T14:48:20.000Z</time>
      </trkpt>
      <trkpt lat="50.84005" lon="1.59473">
        <ele>53.6</ele>
        <time>2015-04-07T14:48:21.000Z</time>
      </trkpt>
      <trkpt lat="50.84005" lon="1.59474">
        <ele>53.5</ele>
        <time>2015-04-07T14:48:22.000Z</time>
      </trkpt>
      <trkpt lat="50.84005" lon="1.59475">
        <ele>53.4</ele>
        <time>2015-04-07T14:48:23.000Z</time>
      </trkpt>
      <trkpt lat="50.84006" lon="1.59477">
        <ele>53.4</ele>
        <time>2015-04-07T14:48:24.000Z</time>
      </trkpt>
      <trkpt lat="50.84006" lon="1.59478">
        <ele>53.3</ele>
        <time>2015-04-07T14:48:25.000Z</time>
      </trkpt>
      <trkpt lat="50.84006" lon="1.59479">
        <ele>53.2</ele>
        <time>2015-04-07T14:48:26.000Z</time>
      </trkpt>
      <trkpt lat="50.84007" lon="1.59481">
        <ele>53.1</ele>
        <time>2015-04-07T14:48:27.000Z</time>
      </trkpt>
      <trkpt lat="50.84007" lon="1.59482">
        <ele>53</ele>
        <time>2015-04-07T14:48:28.000Z</time>
      </trkpt>
      <trkpt lat="50.84007" lon="1.59484">
        <ele>53</ele>
        <time>2015-04-07T14:48:29.000Z</time>
      </trkpt>
      <trkpt lat="50.84007" lon="1.59485">
        <ele>52.9</ele>
        <time>2015-04-07T14:48:30.000Z</time>
      </trkpt>
      <trkpt lat="50.84008" lon="1.59487">
        <ele>52.8</ele>
        <time>2015-04-07T14:48:31.000Z</time>
      </trkpt>
      <trkpt lat="50.84008" lon="1.59489">
        <ele>52.8</ele>
        <time>2015-04-07T14:48:32.000Z</time>
      </trkpt>
      <trkpt lat="50.84008" lon="1.5949">
        <ele>52.7</ele>
        <time>2015-04-07T14:48:33.000Z</time>
      </trkpt>
      <trkpt lat="50.84008" lon="1.59492">
        <ele>52.6</ele>
        <time>2015-04-07T14:48:34.000Z</time>
      </trkpt>
      <trkpt lat="50.84009" lon="1.59493">
        <ele>52.6</ele>
        <time>2015-04-07T14:48:35.000Z</time>
      </trkpt>
      <trkpt lat="50.84009" lon="1.59495">
        <ele>52.5</ele>
        <time>2015-04-07T14:48:36.000Z</time>
      </trkpt>
      <trkpt lat="50.84009" lon="1.59496">
        <ele>52.5</ele>
        <time>2015-04-07T14:48:37.000Z</time>
      </trkpt>
      <trkpt lat="50.8401" lon="1.59498">
        <ele>52.4</ele>
        <time>2015-04-07T14:48:38.000Z</time>
      </trkpt>
      <trkpt lat="50.8401" lon="1.59499">
        <ele>52.4</ele>
        <time>2015-04-07T14:48:39.000Z</time>
      </trkpt>
      <trkpt lat="50.8401" lon="1.59501">
        <ele>52.4</ele>
        <time>2015-04-07T14:48:40.000Z</time>
      </trkpt>
      <trkpt lat="50.8401" lon="1.59503">
        <ele>52.4</ele>
        <time>2015-04-07T14:48:41.000Z</time>
      </trkpt>
      <trkpt lat="50.84011" lon="1.59504">
        <ele>52.4</ele>
        <time>2015-04-07T14:48:42.000Z</time>
      </trkpt>
      <trkpt lat="50.84011" lon="1.59506">
        <ele>52.4</ele>
        <time>2015-04-07T14:48:43.000Z</time>
      </trkpt>
      <trkpt lat="50.84011" lon="1.59507">
        <ele>52.4</ele>
        <time>2015-04-07T14:48:44.000Z</time>
      </trkpt>
      <trkpt lat="50.84011" lon="1.59509">
        <ele>52.4</ele>
        <time>2015-04-07T14:48:45.000Z</time>
      </trkpt>
      <trkpt lat="50.84011" lon="1.59511">
        <ele>52.4</ele>
        <time>2015-04-07T14:48:46.000Z</time>
      </trkpt>
      <trkpt lat="50.84011" lon="1.59512">
        <ele>52.4</ele>
        <time>2015-04-07T14:48:47.000Z</time>
      </trkpt>
      <trkpt lat="50.84012" lon="1.59514">
        <ele>52.4</ele>
        <time>2015-04-07T14:48:48.000Z</time>
      </trkpt>
      <trkpt lat="50.84012" lon="1.59515">
        <ele>52.4</ele>
        <time>2015-04-07T14:48:49.000Z</time>
      </trkpt>
      <trkpt lat="50.84012" lon="1.59517">
        <ele>52.4</ele>
        <time>2015-04-07T14:48:50.000Z</time>
      </trkpt>
      <trkpt lat="50.84012" lon="1.59518">
        <ele>52.4</ele>
        <time>2015-04-07T14:48:51.000Z</time>
      </trkpt>
      <trkpt lat="50.84012" lon="1.5952">
        <ele>52.4</ele>
        <time>2015-04-07T14:48:52.000Z</time>
      </trkpt>
      <trkpt lat="50.84013" lon="1.59521">
        <ele>52.5</ele>
        <time>2015-04-07T14:48:53.000Z</time>
      </trkpt>
      <trkpt lat="50.84013" lon="1.59523">
        <ele>52.5</ele>
        <time>2015-04-07T14:48:54.000Z</time>
      </trkpt>
      <trkpt lat="50.84013" lon="1.59524">
        <ele>52.5</ele>
        <time>2015-04-07T14:48:55.000Z</time>
      </trkpt>
      <trkpt lat="50.84013" lon="1.59526">
        <ele>52.5</ele>
        <time>2015-04-07T14:48:56.000Z</time>
      </trkpt>
      <trkpt lat="50.84013" lon="1.59527">
        <ele>52.5</ele>
        <time>2015-04-07T14:48:57.000Z</time>
      </trkpt>
      <trkpt lat="50.84014" lon="1.59529">
        <ele>52.5</ele>
        <time>2015-04-07T14:48:58.000Z</time>
      </trkpt>
      <trkpt lat="50.84014" lon="1.5953">
        <ele>52.6</ele>
        <time>2015-04-07T14:48:59.000Z</time>
      </trkpt>
      <trkpt lat="50.84014" lon="1.59532">
        <ele>52.6</ele>
        <time>2015-04-07T14:49:00.000Z</time>
      </trkpt>
      <trkpt lat="50.84014" lon="1.59533">
        <ele>52.7</ele>
        <time>2015-04-07T14:49:01.000Z</time>
      </trkpt>
      <trkpt lat="50.84014" lon="1.59535">
        <ele>52.8</ele>
        <time>2015-04-07T14:49:02.000Z</time>
      </trkpt>
      <trkpt lat="50.84014" lon="1.59536">
        <ele>52.8</ele>
        <time>2015-04-07T14:49:03.000Z</time>
      </trkpt>
      <trkpt lat="50.84014" lon="1.59538">
        <ele>52.9</ele>
        <time>2015-04-07T14:49:04.000Z</time>
      </trkpt>
      <trkpt lat="50.84014" lon="1.59539">
        <ele>52.9</ele>
        <time>2015-04-07T14:49:05.000Z</time>
      </trkpt>
      <trkpt lat="50.84015" lon="1.59541">
        <ele>53</ele>
        <time>2015-04-07T14:49:06.000Z</time>
      </trkpt>
      <trkpt lat="50.84015" lon="1.59542">
        <ele>53</ele>
        <time>2015-04-07T14:49:07.000Z</time>
      </trkpt>
      <trkpt lat="50.84014" lon="1.59544">
        <ele>53.1</ele>
        <time>2015-04-07T14:49:08.000Z</time>
      </trkpt>
      <trkpt lat="50.84014" lon="1.59545">
        <ele>53.1</ele>
        <time>2015-04-07T14:49:09.000Z</time>
      </trkpt>
      <trkpt lat="50.84014" lon="1.59546">
        <ele>53.2</ele>
        <time>2015-04-07T14:49:10.000Z</time>
      </trkpt>
      <trkpt lat="50.84014" lon="1.59548">
        <ele>53.2</ele>
        <time>2015-04-07T14:49:11.000Z</time>
      </trkpt>
      <trkpt lat="50.84013" lon="1.59549">
        <ele>53.2</ele>
        <time>2015-04-07T14:49:12.000Z</time>
      </trkpt>
      <trkpt lat="50.84013" lon="1.5955">
        <ele>53.3</ele>
        <time>2015-04-07T14:49:13.000Z</time>
      </trkpt>
      <trkpt lat="50.84013" lon="1.59551">
        <ele>53.3</ele>
        <time>2015-04-07T14:49:14.000Z</time>
      </trkpt>
      <trkpt lat="50.84012" lon="1.59552">
        <ele>53.3</ele>
        <time>2015-04-07T14:49:15.000Z</time>
      </trkpt>
      <trkpt lat="50.84012" lon="1.59553">
        <ele>53.4</ele>
        <time>2015-04-07T14:49:16.000Z</time>
      </trkpt>
      <trkpt lat="50.84012" lon="1.59554">
        <ele>53.4</ele>
        <time>2015-04-07T14:49:17.000Z</time>
      </trkpt>
      <trkpt lat="50.84012" lon="1.59554">
        <ele>53.4</ele>
        <time>2015-04-07T14:49:18.000Z</time>
      </trkpt>
      <trkpt lat="50.84012" lon="1.59555">
        <ele>53.4</ele>
        <time>2015-04-07T14:49:19.000Z</time>
      </trkpt>
      <trkpt lat="50.84012" lon="1.59555">
        <ele>53.4</ele>
        <time>2015-04-07T14:49:20.000Z</time>
      </trkpt>
      <trkpt lat="50.84012" lon="1.59556">
        <ele>53.4</ele>
        <time>2015-04-07T14:49:21.000Z</time>
      </trkpt>
      <trkpt lat="50.84012" lon="1.59555">
        <ele>53.4</ele>
        <time>2015-04-07T14:49:22.000Z</time>
      </trkpt>
      <trkpt lat="50.84012" lon="1.59555">
        <ele>53.4</ele>
        <time>2015-04-07T14:49:23.000Z</time>
      </trkpt>
      <trkpt lat="50.84012" lon="1.59555">
        <ele>53.4</ele>
        <time>2015-04-07T14:49:24.000Z</time>
      </trkpt>
      <trkpt lat="50.84012" lon="1.59555">
        <ele>53.4</ele>
        <time>2015-04-07T14:49:25.000Z</time>
      </trkpt>
      <trkpt lat="50.84012" lon="1.59555">
        <ele>53.4</ele>
        <time>2015-04-07T14:49:26.000Z</time>
      </trkpt>
      <trkpt lat="50.84012" lon="1.59555">
        <ele>53.4</ele>
        <time>2015-04-07T14:49:27.000Z</time>
      </trkpt>
      <trkpt lat="50.84012" lon="1.59555">
        <ele>53.4</ele>
        <time>2015-04-07T14:49:28.000Z</time>
      </trkpt>
      <trkpt lat="50.84012" lon="1.59555">
        <ele>53.4</ele>
        <time>2015-04-07T14:49:29.000Z</time>
      </trkpt>
      <trkpt lat="50.84012" lon="1.59556">
        <ele>53.4</ele>
        <time>2015-04-07T14:49:30.000Z</time>
      </trkpt>
      <trkpt lat="50.84012" lon="1.59556">
        <ele>53.4</ele>
        <time>2015-04-07T14:49:31.000Z</time>
      </trkpt>
      <trkpt lat="50.84012" lon="1.59556">
        <ele>53.4</ele>
        <time>2015-04-07T14:49:32.000Z</time>
      </trkpt>
      <trkpt lat="50.84012" lon="1.59556">
        <ele>53.4</ele>
        <time>2015-04-07T14:49:33.000Z</time>
      </trkpt>
      <trkpt lat="50.84012" lon="1.59556">
        <ele>53.4</ele>
        <time>2015-04-07T14:49:34.000Z</time>
      </trkpt>
      <trkpt lat="50.84012" lon="1.59556">
        <ele>53.4</ele>
        <time>2015-04-07T14:49:35.000Z</time>
      </trkpt>
      <trkpt lat="50.84012" lon="1.59556">
        <ele>53.4</ele>
        <time>2015-04-07T14:49:36.000Z</time>
      </trkpt>
      <trkpt lat="50.84012" lon="1.59556">
        <ele>53.4</ele>
        <time>2015-04-07T14:49:37.000Z</time>
      </trkpt>
      <trkpt lat="50.84012" lon="1.59556">
        <ele>53.4</ele>
        <time>2015-04-07T14:49:38.000Z</time>
      </trkpt>
      <trkpt lat="50.84012" lon="1.59556">
        <ele>53.4</ele>
        <time>2015-04-07T14:49:39.000Z</time>
      </trkpt>
      <trkpt lat="50.84012" lon="1.59556">
        <ele>53.4</ele>
        <time>2015-04-07T14:49:40.000Z</time>
      </trkpt>
      <trkpt lat="50.84012" lon="1.59556">
        <ele>53.4</ele>
        <time>2015-04-07T14:49:41.000Z</time>
      </trkpt>
      <trkpt lat="50.84012" lon="1.59556">
        <ele>53.4</ele>
        <time>2015-04-07T14:49:42.000Z</time>
      </trkpt>
      <trkpt lat="50.84012" lon="1.59557">
        <ele>53.5</ele>
        <time>2015-04-07T14:49:43.000Z</time>
      </trkpt>
      <trkpt lat="50.84012" lon="1.59557">
        <ele>53.5</ele>
        <time>2015-04-07T14:49:44.000Z</time>
      </trkpt>
      <trkpt lat="50.84012" lon="1.59557">
        <ele>53.4</ele>
        <time>2015-04-07T14:49:45.000Z</time>
      </trkpt>
      <trkpt lat="50.84012" lon="1.59557">
        <ele>53.4</ele>
        <time>2015-04-07T14:49:46.000Z</time>
      </trkpt>
      <trkpt lat="50.84012" lon="1.59557">
        <ele>53.4</ele>
        <time>2015-04-07T14:49:47.000Z</time>
      </trkpt>
      <trkpt lat="50.84012" lon="1.59557">
        <ele>53.4</ele>
        <time>2015-04-07T14:49:48.000Z</time>
      </trkpt>
      <trkpt lat="50.84012" lon="1.59557">
        <ele>53.4</ele>
        <time>2015-04-07T14:49:49.000Z</time>
      </trkpt>
      <trkpt lat="50.84012" lon="1.59557">
        <ele>53.4</ele>
        <time>2015-04-07T14:49:50.000Z</time>
      </trkpt>
      <trkpt lat="50.84012" lon="1.59557">
        <ele>53.4</ele>
        <time>2015-04-07T14:49:51.000Z</time>
      </trkpt>
      <trkpt lat="50.84012" lon="1.59556">
        <ele>53.4</ele>
        <time>2015-04-07T14:49:52.000Z</time>
      </trkpt>
      <trkpt lat="50.84012" lon="1.59556">
        <ele>53.4</ele>
        <time>2015-04-07T14:49:53.000Z</time>
      </trkpt>
      <trkpt lat="50.84012" lon="1.59556">
        <ele>53.4</ele>
        <time>2015-04-07T14:49:54.000Z</time>
      </trkpt>
      <trkpt lat="50.84012" lon="1.59556">
        <ele>53.4</ele>
        <time>2015-04-07T14:49:55.000Z</time>
      </trkpt>
      <trkpt lat="50.84012" lon="1.59556">
        <ele>53.4</ele>
        <time>2015-04-07T14:49:56.000Z</time>
      </trkpt>
      <trkpt lat="50.84012" lon="1.59556">
        <ele>53.4</ele>
        <time>2015-04-07T14:49:57.000Z</time>
      </trkpt>
      <trkpt lat="50.84012" lon="1.59556">
        <ele>53.4</ele>
        <time>2015-04-07T14:49:58.000Z</time>
      </trkpt>
      <trkpt lat="50.84012" lon="1.59556">
        <ele>53.4</ele>
        <time>2015-04-07T14:49:59.000Z</time>
      </trkpt>
      <trkpt lat="50.84012" lon="1.59556">
        <ele>53.4</ele>
        <time>2015-04-07T14:50:00.000Z</time>
      </trkpt>
      <trkpt lat="50.84012" lon="1.59556">
        <ele>53.4</ele>
        <time>2015-04-07T14:50:01.000Z</time>
      </trkpt>
      <trkpt lat="50.84012" lon="1.59556">
        <ele>53.4</ele>
        <time>2015-04-07T14:50:02.000Z</time>
      </trkpt>
      <trkpt lat="50.84012" lon="1.59556">
        <ele>53.4</ele>
        <time>2015-04-07T14:50:03.000Z</time>
      </trkpt>
      <trkpt lat="50.84012" lon="1.59556">
        <ele>53.4</ele>
        <time>2015-04-07T14:50:04.000Z</time>
      </trkpt>
      <trkpt lat="50.84012" lon="1.59556">
        <ele>53.4</ele>
        <time>2015-04-07T14:50:05.000Z</time>
      </trkpt>
      <trkpt lat="50.84012" lon="1.59556">
        <ele>53.4</ele>
        <time>2015-04-07T14:50:06.000Z</time>
      </trkpt>
      <trkpt lat="50.84012" lon="1.59556">
        <ele>53.4</ele>
        <time>2015-04-07T14:50:07.000Z</time>
      </trkpt>
      <trkpt lat="50.84012" lon="1.59556">
        <ele>53.4</ele>
        <time>2015-04-07T14:50:08.000Z</time>
      </trkpt>
      <trkpt lat="50.84012" lon="1.59556">
        <ele>53.4</ele>
        <time>2015-04-07T14:50:09.000Z</time>
      </trkpt>
      <trkpt lat="50.84012" lon="1.59556">
        <ele>53.4</ele>
        <time>2015-04-07T14:50:10.000Z</time>
      </trkpt>
      <trkpt lat="50.84012" lon="1.59556">
        <ele>53.4</ele>
        <time>2015-04-07T14:50:11.000Z</time>
      </trkpt>
      <trkpt lat="50.84012" lon="1.59556">
        <ele>53.4</ele>
        <time>2015-04-07T14:50:12.000Z</time>
      </trkpt>
      <trkpt lat="50.84012" lon="1.59556">
        <ele>53.4</ele>
        <time>2015-04-07T14:50:13.000Z</time>
      </trkpt>
      <trkpt lat="50.84012" lon="1.59556">
        <ele>53.4</ele>
        <time>2015-04-07T14:50:14.000Z</time>
      </trkpt>
      <trkpt lat="50.84012" lon="1.59556">
        <ele>53.4</ele>
        <time>2015-04-07T14:50:15.000Z</time>
      </trkpt>
      <trkpt lat="50.84012" lon="1.59556">
        <ele>53.4</ele>
        <time>2015-04-07T14:50:16.000Z</time>
      </trkpt>
      <trkpt lat="50.84012" lon="1.59556">
        <ele>53.4</ele>
        <time>2015-04-07T14:50:17.000Z</time>
      </trkpt>
      <trkpt lat="50.84012" lon="1.59556">
        <ele>53.4</ele>
        <time>2015-04-07T14:50:18.000Z</time>
      </trkpt>
      <trkpt lat="50.84012" lon="1.59556">
        <ele>53.4</ele>
        <time>2015-04-07T14:50:19.000Z</time>
      </trkpt>
      <trkpt lat="50.84012" lon="1.59556">
        <ele>53.4</ele>
        <time>2015-04-07T14:50:20.000Z</time>
      </trkpt>
      <trkpt lat="50.84012" lon="1.59556">
        <ele>53.4</ele>
        <time>2015-04-07T14:50:21.000Z</time>
      </trkpt>
      <trkpt lat="50.84012" lon="1.59556">
        <ele>53.4</ele>
        <time>2015-04-07T14:50:22.000Z</time>
      </trkpt>
      <trkpt lat="50.84012" lon="1.59556">
        <ele>53.4</ele>
        <time>2015-04-07T14:50:23.000Z</time>
      </trkpt>
      <trkpt lat="50.84012" lon="1.59556">
        <ele>53.4</ele>
        <time>2015-04-07T14:50:24.000Z</time>
      </trkpt>
      <trkpt lat="50.84012" lon="1.59556">
        <ele>53.4</ele>
        <time>2015-04-07T14:50:25.000Z</time>
      </trkpt>
      <trkpt lat="50.84012" lon="1.59557">
        <ele>53.4</ele>
        <time>2015-04-07T14:50:26.000Z</time>
      </trkpt>
      <trkpt lat="50.84012" lon="1.59557">
        <ele>53.4</ele>
        <time>2015-04-07T14:50:27.000Z</time>
      </trkpt>
      <trkpt lat="50.84012" lon="1.59557">
        <ele>53.4</ele>
        <time>2015-04-07T14:50:28.000Z</time>
      </trkpt>
      <trkpt lat="50.84012" lon="1.59557">
        <ele>53.4</ele>
        <time>2015-04-07T14:50:29.000Z</time>
      </trkpt>
      <trkpt lat="50.84012" lon="1.59557">
        <ele>53.4</ele>
        <time>2015-04-07T14:50:30.000Z</time>
      </trkpt>
      <trkpt lat="50.84012" lon="1.59557">
        <ele>53.4</ele>
        <time>2015-04-07T14:50:31.000Z</time>
      </trkpt>
      <trkpt lat="50.84012" lon="1.59557">
        <ele>53.4</ele>
        <time>2015-04-07T14:50:32.000Z</time>
      </trkpt>
      <trkpt lat="50.84012" lon="1.59557">
        <ele>53.4</ele>
        <time>2015-04-07T14:50:33.000Z</time>
      </trkpt>
      <trkpt lat="50.84012" lon="1.59557">
        <ele>53.4</ele>
        <time>2015-04-07T14:50:34.000Z</time>
      </trkpt>
      <trkpt lat="50.84012" lon="1.59557">
        <ele>53.4</ele>
        <time>2015-04-07T14:50:35.000Z</time>
      </trkpt>
      <trkpt lat="50.84012" lon="1.59557">
        <ele>53.4</ele>
        <time>2015-04-07T14:50:36.000Z</time>
      </trkpt>
      <trkpt lat="50.84012" lon="1.59556">
        <ele>53.4</ele>
        <time>2015-04-07T14:50:37.000Z</time>
      </trkpt>
      <trkpt lat="50.84012" lon="1.59556">
        <ele>53.4</ele>
        <time>2015-04-07T14:50:38.000Z</time>
      </trkpt>
      <trkpt lat="50.84012" lon="1.59555">
        <ele>53.4</ele>
        <time>2015-04-07T14:50:39.000Z</time>
      </trkpt>
      <trkpt lat="50.84012" lon="1.59555">
        <ele>53.4</ele>
        <time>2015-04-07T14:50:40.000Z</time>
      </trkpt>
      <trkpt lat="50.84012" lon="1.59555">
        <ele>53.4</ele>
        <time>2015-04-07T14:50:41.000Z</time>
      </trkpt>
      <trkpt lat="50.84012" lon="1.59555">
        <ele>53.4</ele>
        <time>2015-04-07T14:50:42.000Z</time>
      </trkpt>
      <trkpt lat="50.84012" lon="1.59555">
        <ele>53.4</ele>
        <time>2015-04-07T14:50:43.000Z</time>
      </trkpt>
      <trkpt lat="50.84012" lon="1.59555">
        <ele>53.4</ele>
        <time>2015-04-07T14:50:44.000Z</time>
      </trkpt>
      <trkpt lat="50.84012" lon="1.59556">
        <ele>53.4</ele>
        <time>2015-04-07T14:50:45.000Z</time>
      </trkpt>
      <trkpt lat="50.84012" lon="1.59557">
        <ele>53.4</ele>
        <time>2015-04-07T14:50:46.000Z</time>
      </trkpt>
      <trkpt lat="50.84012" lon="1.59557">
        <ele>53.4</ele>
        <time>2015-04-07T14:50:47.000Z</time>
      </trkpt>
      <trkpt lat="50.84012" lon="1.59558">
        <ele>53.5</ele>
        <time>2015-04-07T14:50:48.000Z</time>
      </trkpt>
      <trkpt lat="50.84012" lon="1.59559">
        <ele>53.5</ele>
        <time>2015-04-07T14:50:49.000Z</time>
      </trkpt>
      <trkpt lat="50.84012" lon="1.5956">
        <ele>53.5</ele>
        <time>2015-04-07T14:50:50.000Z</time>
      </trkpt>
      <trkpt lat="50.84012" lon="1.5956">
        <ele>53.5</ele>
        <time>2015-04-07T14:50:51.000Z</time>
      </trkpt>
      <trkpt lat="50.84013" lon="1.59561">
        <ele>53.6</ele>
        <time>2015-04-07T14:50:52.000Z</time>
      </trkpt>
      <trkpt lat="50.84013" lon="1.59563">
        <ele>53.6</ele>
        <time>2015-04-07T14:50:53.000Z</time>
      </trkpt>
      <trkpt lat="50.84014" lon="1.59564">
        <ele>53.6</ele>
        <time>2015-04-07T14:50:54.000Z</time>
      </trkpt>
      <trkpt lat="50.84014" lon="1.59565">
        <ele>53.7</ele>
        <time>2015-04-07T14:50:55.000Z</time>
      </trkpt>
      <trkpt lat="50.84015" lon="1.59566">
        <ele>53.7</ele>
        <time>2015-04-07T14:50:56.000Z</time>
      </trkpt>
      <trkpt lat="50.84015" lon="1.59567">
        <ele>53.8</ele>
        <time>2015-04-07T14:50:57.000Z</time>
      </trkpt>
      <trkpt lat="50.84016" lon="1.59568">
        <ele>53.8</ele>
        <time>2015-04-07T14:50:58.000Z</time>
      </trkpt>
      <trkpt lat="50.84017" lon="1.59569">
        <ele>53.9</ele>
        <time>2015-04-07T14:50:59.000Z</time>
      </trkpt>
      <trkpt lat="50.84018" lon="1.5957">
        <ele>54</ele>
        <time>2015-04-07T14:51:00.000Z</time>
      </trkpt>
      <trkpt lat="50.84019" lon="1.59571">
        <ele>54.1</ele>
        <time>2015-04-07T14:51:01.000Z</time>
      </trkpt>
      <trkpt lat="50.8402" lon="1.59572">
        <ele>54.1</ele>
        <time>2015-04-07T14:51:02.000Z</time>
      </trkpt>
      <trkpt lat="50.84021" lon="1.59573">
        <ele>54.2</ele>
        <time>2015-04-07T14:51:03.000Z</time>
      </trkpt>
      <trkpt lat="50.84021" lon="1.59574">
        <ele>54.3</ele>
        <time>2015-04-07T14:51:04.000Z</time>
      </trkpt>
      <trkpt lat="50.84022" lon="1.59574">
        <ele>54.4</ele>
        <time>2015-04-07T14:51:05.000Z</time>
      </trkpt>
      <trkpt lat="50.84023" lon="1.59575">
        <ele>54.4</ele>
        <time>2015-04-07T14:51:06.000Z</time>
      </trkpt>
      <trkpt lat="50.84024" lon="1.59576">
        <ele>54.5</ele>
        <time>2015-04-07T14:51:07.000Z</time>
      </trkpt>
      <trkpt lat="50.84025" lon="1.59577">
        <ele>54.6</ele>
        <time>2015-04-07T14:51:08.000Z</time>
      </trkpt>
      <trkpt lat="50.84026" lon="1.59577">
        <ele>54.7</ele>
        <time>2015-04-07T14:51:09.000Z</time>
      </trkpt>
      <trkpt lat="50.84027" lon="1.59578">
        <ele>54.7</ele>
        <time>2015-04-07T14:51:10.000Z</time>
      </trkpt>
      <trkpt lat="50.84028" lon="1.59579">
        <ele>54.8</ele>
        <time>2015-04-07T14:51:11.000Z</time>
      </trkpt>
      <trkpt lat="50.84028" lon="1.5958">
        <ele>54.9</ele>
        <time>2015-04-07T14:51:12.000Z</time>
      </trkpt>
      <trkpt lat="50.84029" lon="1.59581">
        <ele>54.9</ele>
        <time>2015-04-07T14:51:13.000Z</time>
      </trkpt>
      <trkpt lat="50.8403" lon="1.59582">
        <ele>54.9</ele>
        <time>2015-04-07T14:51:14.000Z</time>
      </trkpt>
      <trkpt lat="50.8403" lon="1.59583">
        <ele>55</ele>
        <time>2015-04-07T14:51:15.000Z</time>
      </trkpt>
      <trkpt lat="50.84031" lon="1.59584">
        <ele>55</ele>
        <time>2015-04-07T14:51:16.000Z</time>
      </trkpt>
      <trkpt lat="50.84032" lon="1.59585">
        <ele>55</ele>
        <time>2015-04-07T14:51:17.000Z</time>
      </trkpt>
      <trkpt lat="50.84032" lon="1.59586">
        <ele>55</ele>
        <time>2015-04-07T14:51:18.000Z</time>
      </trkpt>
      <trkpt lat="50.84032" lon="1.59587">
        <ele>55</ele>
        <time>2015-04-07T14:51:19.000Z</time>
      </trkpt>
      <trkpt lat="50.84033" lon="1.59588">
        <ele>55</ele>
        <time>2015-04-07T14:51:20.000Z</time>
      </trkpt>
      <trkpt lat="50.84033" lon="1.5959">
        <ele>55</ele>
        <time>2015-04-07T14:51:21.000Z</time>
      </trkpt>
      <trkpt lat="50.84033" lon="1.59591">
        <ele>55</ele>
        <time>2015-04-07T14:51:22.000Z</time>
      </trkpt>
      <trkpt lat="50.84034" lon="1.59592">
        <ele>55</ele>
        <time>2015-04-07T14:51:23.000Z</time>
      </trkpt>
      <trkpt lat="50.84034" lon="1.59594">
        <ele>55</ele>
        <time>2015-04-07T14:51:24.000Z</time>
      </trkpt>
      <trkpt lat="50.84034" lon="1.59595">
        <ele>55</ele>
        <time>2015-04-07T14:51:25.000Z</time>
      </trkpt>
      <trkpt lat="50.84035" lon="1.59596">
        <ele>55</ele>
        <time>2015-04-07T14:51:26.000Z</time>
      </trkpt>
      <trkpt lat="50.84035" lon="1.59598">
        <ele>55</ele>
        <time>2015-04-07T14:51:27.000Z</time>
      </trkpt>
      <trkpt lat="50.84035" lon="1.59599">
        <ele>55</ele>
        <time>2015-04-07T14:51:28.000Z</time>
      </trkpt>
      <trkpt lat="50.84035" lon="1.59601">
        <ele>55</ele>
        <time>2015-04-07T14:51:29.000Z</time>
      </trkpt>
      <trkpt lat="50.84036" lon="1.59602">
        <ele>55</ele>
        <time>2015-04-07T14:51:30.000Z</time>
      </trkpt>
      <trkpt lat="50.84036" lon="1.59604">
        <ele>55</ele>
        <time>2015-04-07T14:51:31.000Z</time>
      </trkpt>
      <trkpt lat="50.84036" lon="1.59605">
        <ele>55</ele>
        <time>2015-04-07T14:51:32.000Z</time>
      </trkpt>
      <trkpt lat="50.84036" lon="1.59606">
        <ele>55</ele>
        <time>2015-04-07T14:51:33.000Z</time>
      </trkpt>
      <trkpt lat="50.84037" lon="1.59607">
        <ele>55</ele>
        <time>2015-04-07T14:51:34.000Z</time>
      </trkpt>
      <trkpt lat="50.84037" lon="1.59609">
        <ele>55</ele>
        <time>2015-04-07T14:51:35.000Z</time>
      </trkpt>
      <trkpt lat="50.84037" lon="1.5961">
        <ele>55</ele>
        <time>2015-04-07T14:51:36.000Z</time>
      </trkpt>
      <trkpt lat="50.84037" lon="1.59611">
        <ele>55</ele>
        <time>2015-04-07T14:51:37.000Z</time>
      </trkpt>
      <trkpt lat="50.84037" lon="1.59612">
        <ele>55</ele>
        <time>2015-04-07T14:51:38.000Z</time>
      </trkpt>
      <trkpt lat="50.84038" lon="1.59615">
        <ele>55</ele>
        <time>2015-04-07T14:51:39.000Z</time>
      </trkpt>
      <trkpt lat="50.84038" lon="1.59615">
        <ele>55</ele>
        <time>2015-04-07T14:51:40.000Z</time>
      </trkpt>
      <trkpt lat="50.84038" lon="1.59615">
        <ele>55</ele>
        <time>2015-04-07T14:51:41.000Z</time>
      </trkpt>
      <trkpt lat="50.84038" lon="1.59615">
        <ele>55.1</ele>
        <time>2015-04-07T14:51:42.000Z</time>
      </trkpt>
      <trkpt lat="50.84038" lon="1.59615">
        <ele>55.1</ele>
        <time>2015-04-07T14:51:43.000Z</time>
      </trkpt>
      <trkpt lat="50.84038" lon="1.59616">
        <ele>55.1</ele>
        <time>2015-04-07T14:51:44.000Z</time>
      </trkpt>
      <trkpt lat="50.84039" lon="1.59616">
        <ele>55.1</ele>
        <time>2015-04-07T14:51:45.000Z</time>
      </trkpt>
      <trkpt lat="50.84039" lon="1.59617">
        <ele>55.1</ele>
        <time>2015-04-07T14:51:46.000Z</time>
      </trkpt>
      <trkpt lat="50.84039" lon="1.59617">
        <ele>55.1</ele>
        <time>2015-04-07T14:51:47.000Z</time>
      </trkpt>
      <trkpt lat="50.84039" lon="1.59617">
        <ele>55.1</ele>
        <time>2015-04-07T14:51:48.000Z</time>
      </trkpt>
      <trkpt lat="50.84039" lon="1.59617">
        <ele>55.1</ele>
        <time>2015-04-07T14:51:49.000Z</time>
      </trkpt>
      <trkpt lat="50.84039" lon="1.59617">
        <ele>55.1</ele>
        <time>2015-04-07T14:51:50.000Z</time>
      </trkpt>
      <trkpt lat="50.84039" lon="1.59617">
        <ele>55.1</ele>
        <time>2015-04-07T14:51:51.000Z</time>
      </trkpt>
      <trkpt lat="50.84039" lon="1.59617">
        <ele>55.1</ele>
        <time>2015-04-07T14:51:52.000Z</time>
      </trkpt>
      <trkpt lat="50.84039" lon="1.59617">
        <ele>55.1</ele>
        <time>2015-04-07T14:51:53.000Z</time>
      </trkpt>
      <trkpt lat="50.84039" lon="1.59617">
        <ele>55.1</ele>
        <time>2015-04-07T14:51:54.000Z</time>
      </trkpt>
      <trkpt lat="50.84039" lon="1.59617">
        <ele>55.1</ele>
        <time>2015-04-07T14:51:55.000Z</time>
      </trkpt>
      <trkpt lat="50.84039" lon="1.59617">
        <ele>55.1</ele>
        <time>2015-04-07T14:51:56.000Z</time>
      </trkpt>
      <trkpt lat="50.84039" lon="1.59617">
        <ele>55.1</ele>
        <time>2015-04-07T14:51:57.000Z</time>
      </trkpt>
      <trkpt lat="50.84039" lon="1.59617">
        <ele>55.1</ele>
        <time>2015-04-07T14:51:58.000Z</time>
      </trkpt>
      <trkpt lat="50.84039" lon="1.59617">
        <ele>55.1</ele>
        <time>2015-04-07T14:51:59.000Z</time>
      </trkpt>
      <trkpt lat="50.84039" lon="1.59617">
        <ele>55.1</ele>
        <time>2015-04-07T14:52:00.000Z</time>
      </trkpt>
      <trkpt lat="50.84039" lon="1.59617">
        <ele>55.1</ele>
        <time>2015-04-07T14:52:01.000Z</time>
      </trkpt>
      <trkpt lat="50.84039" lon="1.59617">
        <ele>55.1</ele>
        <time>2015-04-07T14:52:02.000Z</time>
      </trkpt>
      <trkpt lat="50.84039" lon="1.59617">
        <ele>55.1</ele>
        <time>2015-04-07T14:52:03.000Z</time>
      </trkpt>
      <trkpt lat="50.84039" lon="1.59617">
        <ele>55.1</ele>
        <time>2015-04-07T14:52:04.000Z</time>
      </trkpt>
      <trkpt lat="50.84039" lon="1.59617">
        <ele>55.1</ele>
        <time>2015-04-07T14:52:05.000Z</time>
      </trkpt>
      <trkpt lat="50.84039" lon="1.59617">
        <ele>55.1</ele>
        <time>2015-04-07T14:52:06.000Z</time>
      </trkpt>
      <trkpt lat="50.84039" lon="1.59617">
        <ele>55.1</ele>
        <time>2015-04-07T14:52:07.000Z</time>
      </trkpt>
      <trkpt lat="50.84039" lon="1.59617">
        <ele>55.1</ele>
        <time>2015-04-07T14:52:08.000Z</time>
      </trkpt>
      <trkpt lat="50.84039" lon="1.59617">
        <ele>55.1</ele>
        <time>2015-04-07T14:52:09.000Z</time>
      </trkpt>
      <trkpt lat="50.84039" lon="1.59617">
        <ele>55.1</ele>
        <time>2015-04-07T14:52:10.000Z</time>
      </trkpt>
      <trkpt lat="50.84039" lon="1.59617">
        <ele>55.1</ele>
        <time>2015-04-07T14:52:11.000Z</time>
      </trkpt>
      <trkpt lat="50.8404" lon="1.59617">
        <ele>55.1</ele>
        <time>2015-04-07T14:52:12.000Z</time>
      </trkpt>
      <trkpt lat="50.8404" lon="1.59618">
        <ele>55.1</ele>
        <time>2015-04-07T14:52:13.000Z</time>
      </trkpt>
      <trkpt lat="50.8404" lon="1.59618">
        <ele>55.1</ele>
        <time>2015-04-07T14:52:14.000Z</time>
      </trkpt>
      <trkpt lat="50.84039" lon="1.59618">
        <ele>55.1</ele>
        <time>2015-04-07T14:52:15.000Z</time>
      </trkpt>
      <trkpt lat="50.84039" lon="1.59618">
        <ele>55.1</ele>
        <time>2015-04-07T14:52:16.000Z</time>
      </trkpt>
      <trkpt lat="50.84039" lon="1.59617">
        <ele>55.1</ele>
        <time>2015-04-07T14:52:17.000Z</time>
      </trkpt>
      <trkpt lat="50.84039" lon="1.59617">
        <ele>55.1</ele>
        <time>2015-04-07T14:52:18.000Z</time>
      </trkpt>
      <trkpt lat="50.84038" lon="1.59616">
        <ele>55.1</ele>
        <time>2015-04-07T14:52:19.000Z</time>
      </trkpt>
      <trkpt lat="50.84038" lon="1.59614">
        <ele>55</ele>
        <time>2015-04-07T14:52:20.000Z</time>
      </trkpt>
      <trkpt lat="50.84038" lon="1.59614">
        <ele>55</ele>
        <time>2015-04-07T14:52:21.000Z</time>
      </trkpt>
      <trkpt lat="50.84039" lon="1.59614">
        <ele>55</ele>
        <time>2015-04-07T14:52:22.000Z</time>
      </trkpt>
      <trkpt lat="50.84039" lon="1.59614">
        <ele>55</ele>
        <time>2015-04-07T14:52:23.000Z</time>
      </trkpt>
      <trkpt lat="50.84039" lon="1.59614">
        <ele>55</ele>
        <time>2015-04-07T14:52:24.000Z</time>
      </trkpt>
      <trkpt lat="50.84039" lon="1.59614">
        <ele>55</ele>
        <time>2015-04-07T14:52:25.000Z</time>
      </trkpt>
      <trkpt lat="50.84039" lon="1.59614">
        <ele>55</ele>
        <time>2015-04-07T14:52:26.000Z</time>
      </trkpt>
      <trkpt lat="50.84039" lon="1.59614">
        <ele>55</ele>
        <time>2015-04-07T14:52:27.000Z</time>
      </trkpt>
      <trkpt lat="50.84039" lon="1.59614">
        <ele>55</ele>
        <time>2015-04-07T14:52:28.000Z</time>
      </trkpt>
      <trkpt lat="50.84039" lon="1.59614">
        <ele>55</ele>
        <time>2015-04-07T14:52:29.000Z</time>
      </trkpt>
      <trkpt lat="50.84039" lon="1.59614">
        <ele>55</ele>
        <time>2015-04-07T14:52:30.000Z</time>
      </trkpt>
      <trkpt lat="50.84039" lon="1.59614">
        <ele>55</ele>
        <time>2015-04-07T14:52:31.000Z</time>
      </trkpt>
      <trkpt lat="50.84039" lon="1.59614">
        <ele>55</ele>
        <time>2015-04-07T14:52:32.000Z</time>
      </trkpt>
      <trkpt lat="50.84039" lon="1.59614">
        <ele>55</ele>
        <time>2015-04-07T14:52:33.000Z</time>
      </trkpt>
      <trkpt lat="50.84039" lon="1.59614">
        <ele>55</ele>
        <time>2015-04-07T14:52:34.000Z</time>
      </trkpt>
      <trkpt lat="50.84039" lon="1.59614">
        <ele>55</ele>
        <time>2015-04-07T14:52:35.000Z</time>
      </trkpt>
      <trkpt lat="50.84039" lon="1.59614">
        <ele>55.1</ele>
        <time>2015-04-07T14:52:36.000Z</time>
      </trkpt>
      <trkpt lat="50.84039" lon="1.59615">
        <ele>55.1</ele>
        <time>2015-04-07T14:52:37.000Z</time>
      </trkpt>
      <trkpt lat="50.84039" lon="1.59615">
        <ele>55.1</ele>
        <time>2015-04-07T14:52:38.000Z</time>
      </trkpt>
      <trkpt lat="50.84039" lon="1.59615">
        <ele>55.1</ele>
        <time>2015-04-07T14:52:39.000Z</time>
      </trkpt>
      <trkpt lat="50.84039" lon="1.59615">
        <ele>55.1</ele>
        <time>2015-04-07T14:52:40.000Z</time>
      </trkpt>
      <trkpt lat="50.84039" lon="1.59615">
        <ele>55.1</ele>
        <time>2015-04-07T14:52:41.000Z</time>
      </trkpt>
      <trkpt lat="50.84039" lon="1.59615">
        <ele>55.1</ele>
        <time>2015-04-07T14:52:42.000Z</time>
      </trkpt>
      <trkpt lat="50.84039" lon="1.59615">
        <ele>55.1</ele>
        <time>2015-04-07T14:52:43.000Z</time>
      </trkpt>
      <trkpt lat="50.84039" lon="1.59615">
        <ele>55.1</ele>
        <time>2015-04-07T14:52:44.000Z</time>
      </trkpt>
      <trkpt lat="50.84039" lon="1.59615">
        <ele>55.1</ele>
        <time>2015-04-07T14:52:45.000Z</time>
      </trkpt>
      <trkpt lat="50.84039" lon="1.59615">
        <ele>55.1</ele>
        <time>2015-04-07T14:52:46.000Z</time>
      </trkpt>
      <trkpt lat="50.84039" lon="1.59615">
        <ele>55.1</ele>
        <time>2015-04-07T14:52:47.000Z</time>
      </trkpt>
      <trkpt lat="50.84039" lon="1.59614">
        <ele>55</ele>
        <time>2015-04-07T14:52:48.000Z</time>
      </trkpt>
      <trkpt lat="50.84039" lon="1.59614">
        <ele>55</ele>
        <time>2015-04-07T14:52:49.000Z</time>
      </trkpt>
      <trkpt lat="50.84039" lon="1.59614">
        <ele>55</ele>
        <time>2015-04-07T14:52:50.000Z</time>
      </trkpt>
      <trkpt lat="50.84039" lon="1.59614">
        <ele>55</ele>
        <time>2015-04-07T14:52:51.000Z</time>
      </trkpt>
      <trkpt lat="50.84039" lon="1.59614">
        <ele>55</ele>
        <time>2015-04-07T14:52:52.000Z</time>
      </trkpt>
      <trkpt lat="50.84039" lon="1.59615">
        <ele>55.1</ele>
        <time>2015-04-07T14:52:53.000Z</time>
      </trkpt>
      <trkpt lat="50.84039" lon="1.59615">
        <ele>55.1</ele>
        <time>2015-04-07T14:52:54.000Z</time>
      </trkpt>
      <trkpt lat="50.84039" lon="1.59615">
        <ele>55.1</ele>
        <time>2015-04-07T14:52:55.000Z</time>
      </trkpt>
      <trkpt lat="50.84039" lon="1.59615">
        <ele>55.1</ele>
        <time>2015-04-07T14:52:56.000Z</time>
      </trkpt>
      <trkpt lat="50.84039" lon="1.59615">
        <ele>55.1</ele>
        <time>2015-04-07T14:52:57.000Z</time>
      </trkpt>
      <trkpt lat="50.8404" lon="1.59616">
        <ele>55.1</ele>
        <time>2015-04-07T14:52:58.000Z</time>
      </trkpt>
      <trkpt lat="50.8404" lon="1.59616">
        <ele>55.1</ele>
        <time>2015-04-07T14:52:59.000Z</time>
      </trkpt>
      <trkpt lat="50.8404" lon="1.59617">
        <ele>55.1</ele>
        <time>2015-04-07T14:53:00.000Z</time>
      </trkpt>
      <trkpt lat="50.8404" lon="1.59617">
        <ele>55.1</ele>
        <time>2015-04-07T14:53:01.000Z</time>
      </trkpt>
      <trkpt lat="50.8404" lon="1.59618">
        <ele>55.1</ele>
        <time>2015-04-07T14:53:02.000Z</time>
      </trkpt>
      <trkpt lat="50.8404" lon="1.59618">
        <ele>55.1</ele>
        <time>2015-04-07T14:53:03.000Z</time>
      </trkpt>
      <trkpt lat="50.8404" lon="1.59619">
        <ele>55.1</ele>
        <time>2015-04-07T14:53:04.000Z</time>
      </trkpt>
      <trkpt lat="50.8404" lon="1.5962">
        <ele>55.1</ele>
        <time>2015-04-07T14:53:05.000Z</time>
      </trkpt>
      <trkpt lat="50.8404" lon="1.59621">
        <ele>55.2</ele>
        <time>2015-04-07T14:53:06.000Z</time>
      </trkpt>
      <trkpt lat="50.8404" lon="1.59622">
        <ele>55.2</ele>
        <time>2015-04-07T14:53:07.000Z</time>
      </trkpt>
      <trkpt lat="50.8404" lon="1.59623">
        <ele>55.2</ele>
        <time>2015-04-07T14:53:08.000Z</time>
      </trkpt>
      <trkpt lat="50.8404" lon="1.59624">
        <ele>55.2</ele>
        <time>2015-04-07T14:53:09.000Z</time>
      </trkpt>
      <trkpt lat="50.8404" lon="1.59625">
        <ele>55.2</ele>
        <time>2015-04-07T14:53:10.000Z</time>
      </trkpt>
      <trkpt lat="50.8404" lon="1.59626">
        <ele>55.2</ele>
        <time>2015-04-07T14:53:11.000Z</time>
      </trkpt>
      <trkpt lat="50.8404" lon="1.59627">
        <ele>55.3</ele>
        <time>2015-04-07T14:53:12.000Z</time>
      </trkpt>
      <trkpt lat="50.8404" lon="1.59628">
        <ele>55.3</ele>
        <time>2015-04-07T14:53:13.000Z</time>
      </trkpt>
      <trkpt lat="50.8404" lon="1.59629">
        <ele>55.3</ele>
        <time>2015-04-07T14:53:14.000Z</time>
      </trkpt>
      <trkpt lat="50.8404" lon="1.5963">
        <ele>55.3</ele>
        <time>2015-04-07T14:53:15.000Z</time>
      </trkpt>
      <trkpt lat="50.8404" lon="1.59631">
        <ele>55.3</ele>
        <time>2015-04-07T14:53:16.000Z</time>
      </trkpt>
      <trkpt lat="50.84039" lon="1.59632">
        <ele>55.3</ele>
        <time>2015-04-07T14:53:17.000Z</time>
      </trkpt>
      <trkpt lat="50.84039" lon="1.59633">
        <ele>55.3</ele>
        <time>2015-04-07T14:53:18.000Z</time>
      </trkpt>
      <trkpt lat="50.84039" lon="1.59634">
        <ele>55.3</ele>
        <time>2015-04-07T14:53:19.000Z</time>
      </trkpt>
      <trkpt lat="50.84038" lon="1.59634">
        <ele>55.3</ele>
        <time>2015-04-07T14:53:20.000Z</time>
      </trkpt>
      <trkpt lat="50.84037" lon="1.59635">
        <ele>55.3</ele>
        <time>2015-04-07T14:53:21.000Z</time>
      </trkpt>
      <trkpt lat="50.84036" lon="1.59635">
        <ele>55.3</ele>
        <time>2015-04-07T14:53:22.000Z</time>
      </trkpt>
      <trkpt lat="50.84035" lon="1.59635">
        <ele>55.2</ele>
        <time>2015-04-07T14:53:23.000Z</time>
      </trkpt>
      <trkpt lat="50.84032" lon="1.59636">
        <ele>55.1</ele>
        <time>2015-04-07T14:53:24.000Z</time>
      </trkpt>
      <trkpt lat="50.84032" lon="1.59637">
        <ele>55.1</ele>
        <time>2015-04-07T14:53:25.000Z</time>
      </trkpt>
      <trkpt lat="50.84032" lon="1.59637">
        <ele>55.1</ele>
        <time>2015-04-07T14:53:26.000Z</time>
      </trkpt>
      <trkpt lat="50.84031" lon="1.59638">
        <ele>55.1</ele>
        <time>2015-04-07T14:53:27.000Z</time>
      </trkpt>
      <trkpt lat="50.84031" lon="1.59639">
        <ele>55.1</ele>
        <time>2015-04-07T14:53:28.000Z</time>
      </trkpt>
      <trkpt lat="50.84031" lon="1.5964">
        <ele>55.2</ele>
        <time>2015-04-07T14:53:29.000Z</time>
      </trkpt>
      <trkpt lat="50.84031" lon="1.59641">
        <ele>55.3</ele>
        <time>2015-04-07T14:53:30.000Z</time>
      </trkpt>
      <trkpt lat="50.84031" lon="1.59642">
        <ele>55.3</ele>
        <time>2015-04-07T14:53:31.000Z</time>
      </trkpt>
      <trkpt lat="50.84031" lon="1.59644">
        <ele>55.4</ele>
        <time>2015-04-07T14:53:32.000Z</time>
      </trkpt>
      <trkpt lat="50.84031" lon="1.59645">
        <ele>55.5</ele>
        <time>2015-04-07T14:53:33.000Z</time>
      </trkpt>
      <trkpt lat="50.84031" lon="1.59647">
        <ele>55.6</ele>
        <time>2015-04-07T14:53:34.000Z</time>
      </trkpt>
      <trkpt lat="50.84031" lon="1.59648">
        <ele>55.7</ele>
        <time>2015-04-07T14:53:35.000Z</time>
      </trkpt>
      <trkpt lat="50.84031" lon="1.59649">
        <ele>55.8</ele>
        <time>2015-04-07T14:53:36.000Z</time>
      </trkpt>
      <trkpt lat="50.84031" lon="1.59651">
        <ele>55.9</ele>
        <time>2015-04-07T14:53:37.000Z</time>
      </trkpt>
      <trkpt lat="50.84031" lon="1.59652">
        <ele>56</ele>
        <time>2015-04-07T14:53:38.000Z</time>
      </trkpt>
      <trkpt lat="50.84031" lon="1.59654">
        <ele>56</ele>
        <time>2015-04-07T14:53:39.000Z</time>
      </trkpt>
      <trkpt lat="50.84032" lon="1.59655">
        <ele>56.2</ele>
        <time>2015-04-07T14:53:40.000Z</time>
      </trkpt>
      <trkpt lat="50.84032" lon="1.59657">
        <ele>56.3</ele>
        <time>2015-04-07T14:53:41.000Z</time>
      </trkpt>
      <trkpt lat="50.84032" lon="1.59658">
        <ele>56.3</ele>
        <time>2015-04-07T14:53:42.000Z</time>
      </trkpt>
      <trkpt lat="50.84033" lon="1.5966">
        <ele>56.4</ele>
        <time>2015-04-07T14:53:43.000Z</time>
      </trkpt>
      <trkpt lat="50.84033" lon="1.59662">
        <ele>56.5</ele>
        <time>2015-04-07T14:53:44.000Z</time>
      </trkpt>
      <trkpt lat="50.84034" lon="1.59663">
        <ele>56.6</ele>
        <time>2015-04-07T14:53:45.000Z</time>
      </trkpt>
      <trkpt lat="50.84035" lon="1.59665">
        <ele>56.6</ele>
        <time>2015-04-07T14:53:46.000Z</time>
      </trkpt>
      <trkpt lat="50.84035" lon="1.59666">
        <ele>56.7</ele>
        <time>2015-04-07T14:53:47.000Z</time>
      </trkpt>
      <trkpt lat="50.84036" lon="1.59668">
        <ele>56.8</ele>
        <time>2015-04-07T14:53:48.000Z</time>
      </trkpt>
      <trkpt lat="50.84037" lon="1.59669">
        <ele>56.8</ele>
        <time>2015-04-07T14:53:49.000Z</time>
      </trkpt>
      <trkpt lat="50.84038" lon="1.5967">
        <ele>56.9</ele>
        <time>2015-04-07T14:53:50.000Z</time>
      </trkpt>
      <trkpt lat="50.84039" lon="1.59672">
        <ele>56.9</ele>
        <time>2015-04-07T14:53:51.000Z</time>
      </trkpt>
      <trkpt lat="50.8404" lon="1.59673">
        <ele>56.9</ele>
        <time>2015-04-07T14:53:52.000Z</time>
      </trkpt>
      <trkpt lat="50.84041" lon="1.59674">
        <ele>56.9</ele>
        <time>2015-04-07T14:53:53.000Z</time>
      </trkpt>
      <trkpt lat="50.84042" lon="1.59675">
        <ele>57</ele>
        <time>2015-04-07T14:53:54.000Z</time>
      </trkpt>
      <trkpt lat="50.84043" lon="1.59677">
        <ele>57</ele>
        <time>2015-04-07T14:53:55.000Z</time>
      </trkpt>
      <trkpt lat="50.84044" lon="1.59678">
        <ele>57</ele>
        <time>2015-04-07T14:53:56.000Z</time>
      </trkpt>
      <trkpt lat="50.84045" lon="1.59679">
        <ele>57</ele>
        <time>2015-04-07T14:53:57.000Z</time>
      </trkpt>
      <trkpt lat="50.84046" lon="1.59681">
        <ele>57</ele>
        <time>2015-04-07T14:53:58.000Z</time>
      </trkpt>
      <trkpt lat="50.84047" lon="1.59682">
        <ele>57</ele>
        <time>2015-04-07T14:53:59.000Z</time>
      </trkpt>
      <trkpt lat="50.84048" lon="1.59683">
        <ele>57.1</ele>
        <time>2015-04-07T14:54:00.000Z</time>
      </trkpt>
      <trkpt lat="50.84049" lon="1.59685">
        <ele>57.1</ele>
        <time>2015-04-07T14:54:01.000Z</time>
      </trkpt>
      <trkpt lat="50.84049" lon="1.59686">
        <ele>57.1</ele>
        <time>2015-04-07T14:54:02.000Z</time>
      </trkpt>
      <trkpt lat="50.8405" lon="1.59688">
        <ele>57.1</ele>
        <time>2015-04-07T14:54:03.000Z</time>
      </trkpt>
      <trkpt lat="50.84051" lon="1.59689">
        <ele>57.1</ele>
        <time>2015-04-07T14:54:04.000Z</time>
      </trkpt>
      <trkpt lat="50.84052" lon="1.59691">
        <ele>57.1</ele>
        <time>2015-04-07T14:54:05.000Z</time>
      </trkpt>
      <trkpt lat="50.84052" lon="1.59692">
        <ele>57.1</ele>
        <time>2015-04-07T14:54:06.000Z</time>
      </trkpt>
      <trkpt lat="50.84053" lon="1.59693">
        <ele>57.1</ele>
        <time>2015-04-07T14:54:07.000Z</time>
      </trkpt>
      <trkpt lat="50.84054" lon="1.59695">
        <ele>57.2</ele>
        <time>2015-04-07T14:54:08.000Z</time>
      </trkpt>
      <trkpt lat="50.84054" lon="1.59696">
        <ele>57.2</ele>
        <time>2015-04-07T14:54:09.000Z</time>
      </trkpt>
      <trkpt lat="50.84054" lon="1.59698">
        <ele>57.2</ele>
        <time>2015-04-07T14:54:10.000Z</time>
      </trkpt>
      <trkpt lat="50.84055" lon="1.597">
        <ele>57.2</ele>
        <time>2015-04-07T14:54:11.000Z</time>
      </trkpt>
      <trkpt lat="50.84055" lon="1.59701">
        <ele>57.3</ele>
        <time>2015-04-07T14:54:12.000Z</time>
      </trkpt>
      <trkpt lat="50.84056" lon="1.59702">
        <ele>57.3</ele>
        <time>2015-04-07T14:54:13.000Z</time>
      </trkpt>
      <trkpt lat="50.84056" lon="1.59704">
        <ele>57.3</ele>
        <time>2015-04-07T14:54:14.000Z</time>
      </trkpt>
      <trkpt lat="50.84056" lon="1.59705">
        <ele>57.4</ele>
        <time>2015-04-07T14:54:15.000Z</time>
      </trkpt>
      <trkpt lat="50.84057" lon="1.59707">
        <ele>57.4</ele>
        <time>2015-04-07T14:54:16.000Z</time>
      </trkpt>
      <trkpt lat="50.84057" lon="1.59708">
        <ele>57.5</ele>
        <time>2015-04-07T14:54:17.000Z</time>
      </trkpt>
      <trkpt lat="50.84058" lon="1.59709">
        <ele>57.5</ele>
        <time>2015-04-07T14:54:18.000Z</time>
      </trkpt>
      <trkpt lat="50.84058" lon="1.59711">
        <ele>57.5</ele>
        <time>2015-04-07T14:54:19.000Z</time>
      </trkpt>
      <trkpt lat="50.84059" lon="1.59712">
        <ele>57.6</ele>
        <time>2015-04-07T14:54:20.000Z</time>
      </trkpt>
      <trkpt lat="50.8406" lon="1.59714">
        <ele>57.6</ele>
        <time>2015-04-07T14:54:21.000Z</time>
      </trkpt>
      <trkpt lat="50.8406" lon="1.59715">
        <ele>57.6</ele>
        <time>2015-04-07T14:54:22.000Z</time>
      </trkpt>
      <trkpt lat="50.8406" lon="1.59717">
        <ele>57.7</ele>
        <time>2015-04-07T14:54:23.000Z</time>
      </trkpt>
      <trkpt lat="50.84061" lon="1.59718">
        <ele>57.7</ele>
        <time>2015-04-07T14:54:24.000Z</time>
      </trkpt>
      <trkpt lat="50.84061" lon="1.5972">
        <ele>57.7</ele>
        <time>2015-04-07T14:54:25.000Z</time>
      </trkpt>
      <trkpt lat="50.84061" lon="1.59721">
        <ele>57.8</ele>
        <time>2015-04-07T14:54:26.000Z</time>
      </trkpt>
      <trkpt lat="50.84062" lon="1.59723">
        <ele>57.8</ele>
        <time>2015-04-07T14:54:27.000Z</time>
      </trkpt>
      <trkpt lat="50.84062" lon="1.59724">
        <ele>57.9</ele>
        <time>2015-04-07T14:54:28.000Z</time>
      </trkpt>
      <trkpt lat="50.84062" lon="1.59725">
        <ele>58</ele>
        <time>2015-04-07T14:54:29.000Z</time>
      </trkpt>
      <trkpt lat="50.84062" lon="1.59726">
        <ele>58</ele>
        <time>2015-04-07T14:54:30.000Z</time>
      </trkpt>
      <trkpt lat="50.84063" lon="1.59728">
        <ele>58.1</ele>
        <time>2015-04-07T14:54:31.000Z</time>
      </trkpt>
      <trkpt lat="50.84063" lon="1.59729">
        <ele>58.1</ele>
        <time>2015-04-07T14:54:32.000Z</time>
      </trkpt>
      <trkpt lat="50.84064" lon="1.59729">
        <ele>58.1</ele>
        <time>2015-04-07T14:54:33.000Z</time>
      </trkpt>
      <trkpt lat="50.84065" lon="1.5973">
        <ele>58.2</ele>
        <time>2015-04-07T14:54:34.000Z</time>
      </trkpt>
      <trkpt lat="50.84065" lon="1.59731">
        <ele>58.2</ele>
        <time>2015-04-07T14:54:35.000Z</time>
      </trkpt>
      <trkpt lat="50.84066" lon="1.59732">
        <ele>58.2</ele>
        <time>2015-04-07T14:54:36.000Z</time>
      </trkpt>
      <trkpt lat="50.84067" lon="1.59733">
        <ele>58.2</ele>
        <time>2015-04-07T14:54:37.000Z</time>
      </trkpt>
      <trkpt lat="50.84068" lon="1.59734">
        <ele>58.3</ele>
        <time>2015-04-07T14:54:38.000Z</time>
      </trkpt>
      <trkpt lat="50.84068" lon="1.59736">
        <ele>58.3</ele>
        <time>2015-04-07T14:54:39.000Z</time>
      </trkpt>
      <trkpt lat="50.84069" lon="1.59737">
        <ele>58.3</ele>
        <time>2015-04-07T14:54:40.000Z</time>
      </trkpt>
      <trkpt lat="50.84069" lon="1.59738">
        <ele>58.4</ele>
        <time>2015-04-07T14:54:41.000Z</time>
      </trkpt>
      <trkpt lat="50.8407" lon="1.59739">
        <ele>58.4</ele>
        <time>2015-04-07T14:54:42.000Z</time>
      </trkpt>
      <trkpt lat="50.84071" lon="1.5974">
        <ele>58.4</ele>
        <time>2015-04-07T14:54:43.000Z</time>
      </trkpt>
      <trkpt lat="50.84071" lon="1.59742">
        <ele>58.4</ele>
        <time>2015-04-07T14:54:44.000Z</time>
      </trkpt>
      <trkpt lat="50.84072" lon="1.59743">
        <ele>58.5</ele>
        <time>2015-04-07T14:54:45.000Z</time>
      </trkpt>
      <trkpt lat="50.84073" lon="1.59744">
        <ele>58.5</ele>
        <time>2015-04-07T14:54:46.000Z</time>
      </trkpt>
      <trkpt lat="50.84073" lon="1.59745">
        <ele>58.5</ele>
        <time>2015-04-07T14:54:47.000Z</time>
      </trkpt>
      <trkpt lat="50.84074" lon="1.59747">
        <ele>58.5</ele>
        <time>2015-04-07T14:54:48.000Z</time>
      </trkpt>
      <trkpt lat="50.84075" lon="1.59748">
        <ele>58.5</ele>
        <time>2015-04-07T14:54:49.000Z</time>
      </trkpt>
      <trkpt lat="50.84075" lon="1.5975">
        <ele>58.6</ele>
        <time>2015-04-07T14:54:50.000Z</time>
      </trkpt>
      <trkpt lat="50.84076" lon="1.59751">
        <ele>58.6</ele>
        <time>2015-04-07T14:54:51.000Z</time>
      </trkpt>
      <trkpt lat="50.84076" lon="1.59753">
        <ele>58.6</ele>
        <time>2015-04-07T14:54:52.000Z</time>
      </trkpt>
      <trkpt lat="50.84076" lon="1.59754">
        <ele>58.6</ele>
        <time>2015-04-07T14:54:53.000Z</time>
      </trkpt>
      <trkpt lat="50.84077" lon="1.59755">
        <ele>58.6</ele>
        <time>2015-04-07T14:54:54.000Z</time>
      </trkpt>
      <trkpt lat="50.84077" lon="1.59757">
        <ele>58.6</ele>
        <time>2015-04-07T14:54:55.000Z</time>
      </trkpt>
      <trkpt lat="50.84077" lon="1.59758">
        <ele>58.7</ele>
        <time>2015-04-07T14:54:56.000Z</time>
      </trkpt>
      <trkpt lat="50.84078" lon="1.59759">
        <ele>58.7</ele>
        <time>2015-04-07T14:54:57.000Z</time>
      </trkpt>
      <trkpt lat="50.84078" lon="1.59761">
        <ele>58.7</ele>
        <time>2015-04-07T14:54:58.000Z</time>
      </trkpt>
      <trkpt lat="50.84078" lon="1.59762">
        <ele>58.7</ele>
        <time>2015-04-07T14:54:59.000Z</time>
      </trkpt>
      <trkpt lat="50.84079" lon="1.59764">
        <ele>58.7</ele>
        <time>2015-04-07T14:55:00.000Z</time>
      </trkpt>
      <trkpt lat="50.84079" lon="1.59765">
        <ele>58.8</ele>
        <time>2015-04-07T14:55:01.000Z</time>
      </trkpt>
      <trkpt lat="50.8408" lon="1.59767">
        <ele>58.8</ele>
        <time>2015-04-07T14:55:02.000Z</time>
      </trkpt>
      <trkpt lat="50.84081" lon="1.59768">
        <ele>58.8</ele>
        <time>2015-04-07T14:55:03.000Z</time>
      </trkpt>
      <trkpt lat="50.84081" lon="1.59769">
        <ele>58.8</ele>
        <time>2015-04-07T14:55:04.000Z</time>
      </trkpt>
      <trkpt lat="50.84082" lon="1.5977">
        <ele>58.8</ele>
        <time>2015-04-07T14:55:05.000Z</time>
      </trkpt>
      <trkpt lat="50.84083" lon="1.59771">
        <ele>58.8</ele>
        <time>2015-04-07T14:55:06.000Z</time>
      </trkpt>
      <trkpt lat="50.84084" lon="1.59772">
        <ele>58.8</ele>
        <time>2015-04-07T14:55:07.000Z</time>
      </trkpt>
      <trkpt lat="50.84084" lon="1.59773">
        <ele>58.8</ele>
        <time>2015-04-07T14:55:08.000Z</time>
      </trkpt>
      <trkpt lat="50.84085" lon="1.59773">
        <ele>58.8</ele>
        <time>2015-04-07T14:55:09.000Z</time>
      </trkpt>
      <trkpt lat="50.84086" lon="1.59774">
        <ele>58.9</ele>
        <time>2015-04-07T14:55:10.000Z</time>
      </trkpt>
      <trkpt lat="50.84086" lon="1.59775">
        <ele>58.9</ele>
        <time>2015-04-07T14:55:11.000Z</time>
      </trkpt>
      <trkpt lat="50.84087" lon="1.59775">
        <ele>58.9</ele>
        <time>2015-04-07T14:55:12.000Z</time>
      </trkpt>
      <trkpt lat="50.84088" lon="1.59776">
        <ele>58.9</ele>
        <time>2015-04-07T14:55:13.000Z</time>
      </trkpt>
      <trkpt lat="50.84091" lon="1.59778">
        <ele>59</ele>
        <time>2015-04-07T14:55:14.000Z</time>
      </trkpt>
      <trkpt lat="50.84091" lon="1.59778">
        <ele>59</ele>
        <time>2015-04-07T14:55:15.000Z</time>
      </trkpt>
      <trkpt lat="50.84091" lon="1.59779">
        <ele>59</ele>
        <time>2015-04-07T14:55:16.000Z</time>
      </trkpt>
      <trkpt lat="50.84092" lon="1.5978">
        <ele>59</ele>
        <time>2015-04-07T14:55:17.000Z</time>
      </trkpt>
      <trkpt lat="50.84092" lon="1.59781">
        <ele>59</ele>
        <time>2015-04-07T14:55:18.000Z</time>
      </trkpt>
      <trkpt lat="50.84092" lon="1.59782">
        <ele>59</ele>
        <time>2015-04-07T14:55:19.000Z</time>
      </trkpt>
      <trkpt lat="50.84092" lon="1.59784">
        <ele>59</ele>
        <time>2015-04-07T14:55:20.000Z</time>
      </trkpt>
      <trkpt lat="50.84092" lon="1.59785">
        <ele>59</ele>
        <time>2015-04-07T14:55:21.000Z</time>
      </trkpt>
      <trkpt lat="50.84092" lon="1.59786">
        <ele>59</ele>
        <time>2015-04-07T14:55:22.000Z</time>
      </trkpt>
      <trkpt lat="50.84091" lon="1.59788">
        <ele>59</ele>
        <time>2015-04-07T14:55:23.000Z</time>
      </trkpt>
      <trkpt lat="50.84091" lon="1.59789">
        <ele>59</ele>
        <time>2015-04-07T14:55:24.000Z</time>
      </trkpt>
      <trkpt lat="50.84091" lon="1.59792">
        <ele>59</ele>
        <time>2015-04-07T14:55:25.000Z</time>
      </trkpt>
      <trkpt lat="50.84091" lon="1.59792">
        <ele>59</ele>
        <time>2015-04-07T14:55:26.000Z</time>
      </trkpt>
      <trkpt lat="50.84091" lon="1.59792">
        <ele>59</ele>
        <time>2015-04-07T14:55:27.000Z</time>
      </trkpt>
      <trkpt lat="50.84091" lon="1.59792">
        <ele>59</ele>
        <time>2015-04-07T14:55:28.000Z</time>
      </trkpt>
      <trkpt lat="50.84091" lon="1.59793">
        <ele>59</ele>
        <time>2015-04-07T14:55:29.000Z</time>
      </trkpt>
      <trkpt lat="50.84091" lon="1.59794">
        <ele>59</ele>
        <time>2015-04-07T14:55:30.000Z</time>
      </trkpt>
      <trkpt lat="50.84092" lon="1.59795">
        <ele>59</ele>
        <time>2015-04-07T14:55:31.000Z</time>
      </trkpt>
      <trkpt lat="50.84092" lon="1.59795">
        <ele>59</ele>
        <time>2015-04-07T14:55:32.000Z</time>
      </trkpt>
      <trkpt lat="50.84092" lon="1.59795">
        <ele>59</ele>
        <time>2015-04-07T14:55:33.000Z</time>
      </trkpt>
      <trkpt lat="50.84092" lon="1.59798">
        <ele>59</ele>
        <time>2015-04-07T14:55:34.000Z</time>
      </trkpt>
      <trkpt lat="50.84092" lon="1.59798">
        <ele>59</ele>
        <time>2015-04-07T14:55:35.000Z</time>
      </trkpt>
      <trkpt lat="50.84092" lon="1.59798">
        <ele>59</ele>
        <time>2015-04-07T14:55:36.000Z</time>
      </trkpt>
      <trkpt lat="50.84092" lon="1.59799">
        <ele>59</ele>
        <time>2015-04-07T14:55:37.000Z</time>
      </trkpt>
      <trkpt lat="50.84092" lon="1.598">
        <ele>59</ele>
        <time>2015-04-07T14:55:38.000Z</time>
      </trkpt>
      <trkpt lat="50.84093" lon="1.59801">
        <ele>59</ele>
        <time>2015-04-07T14:55:39.000Z</time>
      </trkpt>
      <trkpt lat="50.84093" lon="1.59801">
        <ele>59</ele>
        <time>2015-04-07T14:55:40.000Z</time>
      </trkpt>
      <trkpt lat="50.84093" lon="1.59802">
        <ele>59</ele>
        <time>2015-04-07T14:55:41.000Z</time>
      </trkpt>
      <trkpt lat="50.84093" lon="1.59803">
        <ele>59</ele>
        <time>2015-04-07T14:55:42.000Z</time>
      </trkpt>
      <trkpt lat="50.84093" lon="1.59804">
        <ele>59</ele>
        <time>2015-04-07T14:55:43.000Z</time>
      </trkpt>
      <trkpt lat="50.84094" lon="1.59805">
        <ele>59</ele>
        <time>2015-04-07T14:55:44.000Z</time>
      </trkpt>
      <trkpt lat="50.84094" lon="1.59805">
        <ele>59</ele>
        <time>2015-04-07T14:55:45.000Z</time>
      </trkpt>
      <trkpt lat="50.84094" lon="1.59806">
        <ele>59</ele>
        <time>2015-04-07T14:55:46.000Z</time>
      </trkpt>
      <trkpt lat="50.84094" lon="1.59807">
        <ele>59</ele>
        <time>2015-04-07T14:55:47.000Z</time>
      </trkpt>
      <trkpt lat="50.84094" lon="1.59808">
        <ele>58.9</ele>
        <time>2015-04-07T14:55:48.000Z</time>
      </trkpt>
      <trkpt lat="50.84094" lon="1.59809">
        <ele>58.9</ele>
        <time>2015-04-07T14:55:49.000Z</time>
      </trkpt>
      <trkpt lat="50.84093" lon="1.5981">
        <ele>58.9</ele>
        <time>2015-04-07T14:55:50.000Z</time>
      </trkpt>
      <trkpt lat="50.84093" lon="1.59811">
        <ele>58.9</ele>
        <time>2015-04-07T14:55:51.000Z</time>
      </trkpt>
      <trkpt lat="50.84091" lon="1.59813">
        <ele>58.8</ele>
        <time>2015-04-07T14:55:52.000Z</time>
      </trkpt>
      <trkpt lat="50.8409" lon="1.59813">
        <ele>58.8</ele>
        <time>2015-04-07T14:55:53.000Z</time>
      </trkpt>
      <trkpt lat="50.8409" lon="1.59813">
        <ele>58.8</ele>
        <time>2015-04-07T14:55:54.000Z</time>
      </trkpt>
      <trkpt lat="50.84089" lon="1.59813">
        <ele>58.8</ele>
        <time>2015-04-07T14:55:55.000Z</time>
      </trkpt>
      <trkpt lat="50.84088" lon="1.59814">
        <ele>58.8</ele>
        <time>2015-04-07T14:55:56.000Z</time>
      </trkpt>
      <trkpt lat="50.84088" lon="1.59814">
        <ele>58.7</ele>
        <time>2015-04-07T14:55:57.000Z</time>
      </trkpt>
      <trkpt lat="50.84085" lon="1.59815">
        <ele>58.7</ele>
        <time>2015-04-07T14:55:58.000Z</time>
      </trkpt>
      <trkpt lat="50.84085" lon="1.59815">
        <ele>58.7</ele>
        <time>2015-04-07T14:55:59.000Z</time>
      </trkpt>
      <trkpt lat="50.84085" lon="1.59815">
        <ele>58.7</ele>
        <time>2015-04-07T14:56:00.000Z</time>
      </trkpt>
      <trkpt lat="50.84085" lon="1.59817">
        <ele>58.6</ele>
        <time>2015-04-07T14:56:01.000Z</time>
      </trkpt>
      <trkpt lat="50.84085" lon="1.59817">
        <ele>58.6</ele>
        <time>2015-04-07T14:56:02.000Z</time>
      </trkpt>
      <trkpt lat="50.84085" lon="1.59817">
        <ele>58.6</ele>
        <time>2015-04-07T14:56:03.000Z</time>
      </trkpt>
      <trkpt lat="50.84084" lon="1.59818">
        <ele>58.6</ele>
        <time>2015-04-07T14:56:04.000Z</time>
      </trkpt>
      <trkpt lat="50.84084" lon="1.59818">
        <ele>58.6</ele>
        <time>2015-04-07T14:56:05.000Z</time>
      </trkpt>
      <trkpt lat="50.84084" lon="1.59819">
        <ele>58.5</ele>
        <time>2015-04-07T14:56:06.000Z</time>
      </trkpt>
      <trkpt lat="50.84084" lon="1.5982">
        <ele>58.5</ele>
        <time>2015-04-07T14:56:07.000Z</time>
      </trkpt>
      <trkpt lat="50.84084" lon="1.59821">
        <ele>58.5</ele>
        <time>2015-04-07T14:56:08.000Z</time>
      </trkpt>
      <trkpt lat="50.84084" lon="1.59822">
        <ele>58.4</ele>
        <time>2015-04-07T14:56:09.000Z</time>
      </trkpt>
      <trkpt lat="50.84084" lon="1.59822">
        <ele>58.4</ele>
        <time>2015-04-07T14:56:10.000Z</time>
      </trkpt>
      <trkpt lat="50.84083" lon="1.59823">
        <ele>58.4</ele>
        <time>2015-04-07T14:56:11.000Z</time>
      </trkpt>
      <trkpt lat="50.84083" lon="1.59824">
        <ele>58.3</ele>
        <time>2015-04-07T14:56:12.000Z</time>
      </trkpt>
      <trkpt lat="50.84083" lon="1.59824">
        <ele>58.3</ele>
        <time>2015-04-07T14:56:13.000Z</time>
      </trkpt>
      <trkpt lat="50.84083" lon="1.59825">
        <ele>58.3</ele>
        <time>2015-04-07T14:56:14.000Z</time>
      </trkpt>
      <trkpt lat="50.84083" lon="1.59826">
        <ele>58.3</ele>
        <time>2015-04-07T14:56:15.000Z</time>
      </trkpt>
      <trkpt lat="50.84083" lon="1.59827">
        <ele>58.2</ele>
        <time>2015-04-07T14:56:16.000Z</time>
      </trkpt>
      <trkpt lat="50.84084" lon="1.59828">
        <ele>58.2</ele>
        <time>2015-04-07T14:56:17.000Z</time>
      </trkpt>
      <trkpt lat="50.84084" lon="1.59829">
        <ele>58.2</ele>
        <time>2015-04-07T14:56:18.000Z</time>
      </trkpt>
      <trkpt lat="50.84084" lon="1.59831">
        <ele>58.1</ele>
        <time>2015-04-07T14:56:19.000Z</time>
      </trkpt>
      <trkpt lat="50.84084" lon="1.59832">
        <ele>58.1</ele>
        <time>2015-04-07T14:56:20.000Z</time>
      </trkpt>
      <trkpt lat="50.84084" lon="1.59833">
        <ele>58</ele>
        <time>2015-04-07T14:56:21.000Z</time>
      </trkpt>
      <trkpt lat="50.84084" lon="1.59834">
        <ele>58</ele>
        <time>2015-04-07T14:56:22.000Z</time>
      </trkpt>
      <trkpt lat="50.84084" lon="1.59836">
        <ele>58</ele>
        <time>2015-04-07T14:56:23.000Z</time>
      </trkpt>
      <trkpt lat="50.84084" lon="1.59837">
        <ele>58</ele>
        <time>2015-04-07T14:56:24.000Z</time>
      </trkpt>
      <trkpt lat="50.84085" lon="1.59838">
        <ele>58</ele>
        <time>2015-04-07T14:56:25.000Z</time>
      </trkpt>
      <trkpt lat="50.84085" lon="1.5984">
        <ele>58</ele>
        <time>2015-04-07T14:56:26.000Z</time>
      </trkpt>
      <trkpt lat="50.84085" lon="1.59841">
        <ele>58.1</ele>
        <time>2015-04-07T14:56:27.000Z</time>
      </trkpt>
      <trkpt lat="50.84085" lon="1.59843">
        <ele>58.1</ele>
        <time>2015-04-07T14:56:28.000Z</time>
      </trkpt>
      <trkpt lat="50.84085" lon="1.59844">
        <ele>58.1</ele>
        <time>2015-04-07T14:56:29.000Z</time>
      </trkpt>
      <trkpt lat="50.84086" lon="1.59845">
        <ele>58.1</ele>
        <time>2015-04-07T14:56:30.000Z</time>
      </trkpt>
      <trkpt lat="50.84086" lon="1.59846">
        <ele>58.1</ele>
        <time>2015-04-07T14:56:31.000Z</time>
      </trkpt>
      <trkpt lat="50.84086" lon="1.5985">
        <ele>58.1</ele>
        <time>2015-04-07T14:56:32.000Z</time>
      </trkpt>
      <trkpt lat="50.84086" lon="1.5985">
        <ele>58.1</ele>
        <time>2015-04-07T14:56:33.000Z</time>
      </trkpt>
      <trkpt lat="50.84086" lon="1.5985">
        <ele>58.1</ele>
        <time>2015-04-07T14:56:34.000Z</time>
      </trkpt>
      <trkpt lat="50.84086" lon="1.5985">
        <ele>58.1</ele>
        <time>2015-04-07T14:56:35.000Z</time>
      </trkpt>
      <trkpt lat="50.84086" lon="1.5985">
        <ele>58.1</ele>
        <time>2015-04-07T14:56:36.000Z</time>
      </trkpt>
      <trkpt lat="50.84086" lon="1.5985">
        <ele>58.1</ele>
        <time>2015-04-07T14:56:37.000Z</time>
      </trkpt>
      <trkpt lat="50.84086" lon="1.5985">
        <ele>58.1</ele>
        <time>2015-04-07T14:56:38.000Z</time>
      </trkpt>
      <trkpt lat="50.84086" lon="1.5985">
        <ele>58.1</ele>
        <time>2015-04-07T14:56:39.000Z</time>
      </trkpt>
      <trkpt lat="50.84086" lon="1.5985">
        <ele>58.1</ele>
        <time>2015-04-07T14:56:40.000Z</time>
      </trkpt>
      <trkpt lat="50.84086" lon="1.5985">
        <ele>58.1</ele>
        <time>2015-04-07T14:56:41.000Z</time>
      </trkpt>
      <trkpt lat="50.84086" lon="1.5985">
        <ele>58.1</ele>
        <time>2015-04-07T14:56:42.000Z</time>
      </trkpt>
      <trkpt lat="50.84086" lon="1.5985">
        <ele>58.1</ele>
        <time>2015-04-07T14:56:43.000Z</time>
      </trkpt>
      <trkpt lat="50.84086" lon="1.5985">
        <ele>58.1</ele>
        <time>2015-04-07T14:56:44.000Z</time>
      </trkpt>
      <trkpt lat="50.84087" lon="1.5985">
        <ele>58.1</ele>
        <time>2015-04-07T14:56:45.000Z</time>
      </trkpt>
      <trkpt lat="50.84087" lon="1.59851">
        <ele>58.1</ele>
        <time>2015-04-07T14:56:46.000Z</time>
      </trkpt>
      <trkpt lat="50.84087" lon="1.59851">
        <ele>58.1</ele>
        <time>2015-04-07T14:56:47.000Z</time>
      </trkpt>
      <trkpt lat="50.84088" lon="1.59851">
        <ele>58.2</ele>
        <time>2015-04-07T14:56:48.000Z</time>
      </trkpt>
      <trkpt lat="50.84088" lon="1.59852">
        <ele>58.2</ele>
        <time>2015-04-07T14:56:49.000Z</time>
      </trkpt>
      <trkpt lat="50.84089" lon="1.59852">
        <ele>58.2</ele>
        <time>2015-04-07T14:56:50.000Z</time>
      </trkpt>
      <trkpt lat="50.8409" lon="1.59853">
        <ele>58.2</ele>
        <time>2015-04-07T14:56:51.000Z</time>
      </trkpt>
      <trkpt lat="50.8409" lon="1.59853">
        <ele>58.2</ele>
        <time>2015-04-07T14:56:52.000Z</time>
      </trkpt>
      <trkpt lat="50.84091" lon="1.59853">
        <ele>58.3</ele>
        <time>2015-04-07T14:56:53.000Z</time>
      </trkpt>
      <trkpt lat="50.84094" lon="1.59854">
        <ele>58.4</ele>
        <time>2015-04-07T14:56:54.000Z</time>
      </trkpt>
      <trkpt lat="50.84094" lon="1.59854">
        <ele>58.4</ele>
        <time>2015-04-07T14:56:55.000Z</time>
      </trkpt>
      <trkpt lat="50.84095" lon="1.59854">
        <ele>58.4</ele>
        <time>2015-04-07T14:56:56.000Z</time>
      </trkpt>
      <trkpt lat="50.84095" lon="1.59854">
        <ele>58.4</ele>
        <time>2015-04-07T14:56:57.000Z</time>
      </trkpt>
      <trkpt lat="50.84096" lon="1.59854">
        <ele>58.5</ele>
        <time>2015-04-07T14:56:58.000Z</time>
      </trkpt>
      <trkpt lat="50.84097" lon="1.59855">
        <ele>58.5</ele>
        <time>2015-04-07T14:56:59.000Z</time>
      </trkpt>
      <trkpt lat="50.84098" lon="1.59856">
        <ele>58.5</ele>
        <time>2015-04-07T14:57:00.000Z</time>
      </trkpt>
      <trkpt lat="50.84099" lon="1.59856">
        <ele>58.5</ele>
        <time>2015-04-07T14:57:01.000Z</time>
      </trkpt>
      <trkpt lat="50.84099" lon="1.59857">
        <ele>58.6</ele>
        <time>2015-04-07T14:57:02.000Z</time>
      </trkpt>
      <trkpt lat="50.841" lon="1.59858">
        <ele>58.6</ele>
        <time>2015-04-07T14:57:03.000Z</time>
      </trkpt>
      <trkpt lat="50.84101" lon="1.59859">
        <ele>58.6</ele>
        <time>2015-04-07T14:57:04.000Z</time>
      </trkpt>
      <trkpt lat="50.84102" lon="1.5986">
        <ele>58.7</ele>
        <time>2015-04-07T14:57:05.000Z</time>
      </trkpt>
      <trkpt lat="50.84103" lon="1.59861">
        <ele>58.7</ele>
        <time>2015-04-07T14:57:06.000Z</time>
      </trkpt>
      <trkpt lat="50.84104" lon="1.59862">
        <ele>58.8</ele>
        <time>2015-04-07T14:57:07.000Z</time>
      </trkpt>
      <trkpt lat="50.84105" lon="1.59863">
        <ele>58.8</ele>
        <time>2015-04-07T14:57:08.000Z</time>
      </trkpt>
      <trkpt lat="50.84106" lon="1.59864">
        <ele>58.8</ele>
        <time>2015-04-07T14:57:09.000Z</time>
      </trkpt>
      <trkpt lat="50.84109" lon="1.59868">
        <ele>59</ele>
        <time>2015-04-07T14:57:10.000Z</time>
      </trkpt>
      <trkpt lat="50.84109" lon="1.59868">
        <ele>59</ele>
        <time>2015-04-07T14:57:11.000Z</time>
      </trkpt>
      <trkpt lat="50.84109" lon="1.59869">
        <ele>59</ele>
        <time>2015-04-07T14:57:12.000Z</time>
      </trkpt>
      <trkpt lat="50.84109" lon="1.59869">
        <ele>58.9</ele>
        <time>2015-04-07T14:57:13.000Z</time>
      </trkpt>
      <trkpt lat="50.84109" lon="1.5987">
        <ele>58.9</ele>
        <time>2015-04-07T14:57:14.000Z</time>
      </trkpt>
      <trkpt lat="50.84109" lon="1.59872">
        <ele>59</ele>
        <time>2015-04-07T14:57:15.000Z</time>
      </trkpt>
      <trkpt lat="50.84109" lon="1.59873">
        <ele>59</ele>
        <time>2015-04-07T14:57:16.000Z</time>
      </trkpt>
      <trkpt lat="50.84109" lon="1.59874">
        <ele>59</ele>
        <time>2015-04-07T14:57:17.000Z</time>
      </trkpt>
      <trkpt lat="50.84109" lon="1.5988">
        <ele>59</ele>
        <time>2015-04-07T14:57:18.000Z</time>
      </trkpt>
      <trkpt lat="50.84109" lon="1.5988">
        <ele>59</ele>
        <time>2015-04-07T14:57:19.000Z</time>
      </trkpt>
      <trkpt lat="50.84109" lon="1.59881">
        <ele>59</ele>
        <time>2015-04-07T14:57:20.000Z</time>
      </trkpt>
      <trkpt lat="50.8411" lon="1.59882">
        <ele>59</ele>
        <time>2015-04-07T14:57:21.000Z</time>
      </trkpt>
      <trkpt lat="50.8411" lon="1.59883">
        <ele>59</ele>
        <time>2015-04-07T14:57:22.000Z</time>
      </trkpt>
      <trkpt lat="50.84111" lon="1.59885">
        <ele>59</ele>
        <time>2015-04-07T14:57:23.000Z</time>
      </trkpt>
      <trkpt lat="50.84111" lon="1.59886">
        <ele>59</ele>
        <time>2015-04-07T14:57:24.000Z</time>
      </trkpt>
      <trkpt lat="50.84112" lon="1.59887">
        <ele>59</ele>
        <time>2015-04-07T14:57:25.000Z</time>
      </trkpt>
      <trkpt lat="50.84112" lon="1.59889">
        <ele>59</ele>
        <time>2015-04-07T14:57:26.000Z</time>
      </trkpt>
      <trkpt lat="50.84112" lon="1.5989">
        <ele>59</ele>
        <time>2015-04-07T14:57:27.000Z</time>
      </trkpt>
      <trkpt lat="50.84113" lon="1.59891">
        <ele>59</ele>
        <time>2015-04-07T14:57:28.000Z</time>
      </trkpt>
      <trkpt lat="50.84113" lon="1.59892">
        <ele>59</ele>
        <time>2015-04-07T14:57:29.000Z</time>
      </trkpt>
      <trkpt lat="50.84113" lon="1.59894">
        <ele>59</ele>
        <time>2015-04-07T14:57:30.000Z</time>
      </trkpt>
      <trkpt lat="50.84114" lon="1.59895">
        <ele>59</ele>
        <time>2015-04-07T14:57:31.000Z</time>
      </trkpt>
      <trkpt lat="50.84114" lon="1.59896">
        <ele>59</ele>
        <time>2015-04-07T14:57:32.000Z</time>
      </trkpt>
      <trkpt lat="50.84114" lon="1.59898">
        <ele>59</ele>
        <time>2015-04-07T14:57:33.000Z</time>
      </trkpt>
      <trkpt lat="50.84115" lon="1.59899">
        <ele>59</ele>
        <time>2015-04-07T14:57:34.000Z</time>
      </trkpt>
      <trkpt lat="50.84115" lon="1.599">
        <ele>59</ele>
        <time>2015-04-07T14:57:35.000Z</time>
      </trkpt>
      <trkpt lat="50.84116" lon="1.59901">
        <ele>59</ele>
        <time>2015-04-07T14:57:36.000Z</time>
      </trkpt>
      <trkpt lat="50.84116" lon="1.59903">
        <ele>59</ele>
        <time>2015-04-07T14:57:37.000Z</time>
      </trkpt>
      <trkpt lat="50.84117" lon="1.59903">
        <ele>59</ele>
        <time>2015-04-07T14:57:38.000Z</time>
      </trkpt>
      <trkpt lat="50.84118" lon="1.59904">
        <ele>59</ele>
        <time>2015-04-07T14:57:39.000Z</time>
      </trkpt>
      <trkpt lat="50.84119" lon="1.59905">
        <ele>59</ele>
        <time>2015-04-07T14:57:40.000Z</time>
      </trkpt>
      <trkpt lat="50.84119" lon="1.59906">
        <ele>59</ele>
        <time>2015-04-07T14:57:41.000Z</time>
      </trkpt>
      <trkpt lat="50.8412" lon="1.59906">
        <ele>59</ele>
        <time>2015-04-07T14:57:42.000Z</time>
      </trkpt>
      <trkpt lat="50.84123" lon="1.59908">
        <ele>59</ele>
        <time>2015-04-07T14:57:43.000Z</time>
      </trkpt>
      <trkpt lat="50.84123" lon="1.59908">
        <ele>59</ele>
        <time>2015-04-07T14:57:44.000Z</time>
      </trkpt>
      <trkpt lat="50.84123" lon="1.59908">
        <ele>59</ele>
        <time>2015-04-07T14:57:45.000Z</time>
      </trkpt>
      <trkpt lat="50.84124" lon="1.59909">
        <ele>59</ele>
        <time>2015-04-07T14:57:46.000Z</time>
      </trkpt>
      <trkpt lat="50.84124" lon="1.59909">
        <ele>59</ele>
        <time>2015-04-07T14:57:47.000Z</time>
      </trkpt>
      <trkpt lat="50.84124" lon="1.59909">
        <ele>59</ele>
        <time>2015-04-07T14:57:48.000Z</time>
      </trkpt>
      <trkpt lat="50.84125" lon="1.5991">
        <ele>59</ele>
        <time>2015-04-07T14:57:49.000Z</time>
      </trkpt>
      <trkpt lat="50.84125" lon="1.5991">
        <ele>59</ele>
        <time>2015-04-07T14:57:50.000Z</time>
      </trkpt>
      <trkpt lat="50.84126" lon="1.59911">
        <ele>59</ele>
        <time>2015-04-07T14:57:51.000Z</time>
      </trkpt>
      <trkpt lat="50.84126" lon="1.59912">
        <ele>59</ele>
        <time>2015-04-07T14:57:52.000Z</time>
      </trkpt>
      <trkpt lat="50.84127" lon="1.59915">
        <ele>59</ele>
        <time>2015-04-07T14:57:53.000Z</time>
      </trkpt>
      <trkpt lat="50.84127" lon="1.59915">
        <ele>59</ele>
        <time>2015-04-07T14:57:54.000Z</time>
      </trkpt>
      <trkpt lat="50.84128" lon="1.59916">
        <ele>59</ele>
        <time>2015-04-07T14:57:55.000Z</time>
      </trkpt>
      <trkpt lat="50.84128" lon="1.59917">
        <ele>59</ele>
        <time>2015-04-07T14:57:56.000Z</time>
      </trkpt>
      <trkpt lat="50.84128" lon="1.59917">
        <ele>59</ele>
        <time>2015-04-07T14:57:57.000Z</time>
      </trkpt>
      <trkpt lat="50.84129" lon="1.59918">
        <ele>59</ele>
        <time>2015-04-07T14:57:58.000Z</time>
      </trkpt>
      <trkpt lat="50.84129" lon="1.59919">
        <ele>59</ele>
        <time>2015-04-07T14:57:59.000Z</time>
      </trkpt>
      <trkpt lat="50.8413" lon="1.5992">
        <ele>59</ele>
        <time>2015-04-07T14:58:00.000Z</time>
      </trkpt>
      <trkpt lat="50.84131" lon="1.59921">
        <ele>59</ele>
        <time>2015-04-07T14:58:01.000Z</time>
      </trkpt>
      <trkpt lat="50.84132" lon="1.59923">
        <ele>59.1</ele>
        <time>2015-04-07T14:58:02.000Z</time>
      </trkpt>
      <trkpt lat="50.84132" lon="1.59924">
        <ele>59.1</ele>
        <time>2015-04-07T14:58:03.000Z</time>
      </trkpt>
      <trkpt lat="50.84133" lon="1.59926">
        <ele>59.1</ele>
        <time>2015-04-07T14:58:04.000Z</time>
      </trkpt>
      <trkpt lat="50.84133" lon="1.59928">
        <ele>59.1</ele>
        <time>2015-04-07T14:58:05.000Z</time>
      </trkpt>
      <trkpt lat="50.84133" lon="1.5993">
        <ele>59.1</ele>
        <time>2015-04-07T14:58:06.000Z</time>
      </trkpt>
      <trkpt lat="50.84134" lon="1.59932">
        <ele>59.1</ele>
        <time>2015-04-07T14:58:07.000Z</time>
      </trkpt>
      <trkpt lat="50.84133" lon="1.59933">
        <ele>59.1</ele>
        <time>2015-04-07T14:58:08.000Z</time>
      </trkpt>
      <trkpt lat="50.84133" lon="1.59935">
        <ele>59.1</ele>
        <time>2015-04-07T14:58:09.000Z</time>
      </trkpt>
      <trkpt lat="50.84133" lon="1.59937">
        <ele>59.2</ele>
        <time>2015-04-07T14:58:10.000Z</time>
      </trkpt>
      <trkpt lat="50.84133" lon="1.59939">
        <ele>59.2</ele>
        <time>2015-04-07T14:58:11.000Z</time>
      </trkpt>
      <trkpt lat="50.84133" lon="1.59941">
        <ele>59.2</ele>
        <time>2015-04-07T14:58:12.000Z</time>
      </trkpt>
      <trkpt lat="50.84132" lon="1.59942">
        <ele>59.2</ele>
        <time>2015-04-07T14:58:13.000Z</time>
      </trkpt>
      <trkpt lat="50.84132" lon="1.59944">
        <ele>59.2</ele>
        <time>2015-04-07T14:58:14.000Z</time>
      </trkpt>
      <trkpt lat="50.84132" lon="1.59946">
        <ele>59.3</ele>
        <time>2015-04-07T14:58:15.000Z</time>
      </trkpt>
      <trkpt lat="50.84131" lon="1.59947">
        <ele>59.3</ele>
        <time>2015-04-07T14:58:16.000Z</time>
      </trkpt>
      <trkpt lat="50.84131" lon="1.59949">
        <ele>59.3</ele>
        <time>2015-04-07T14:58:17.000Z</time>
      </trkpt>
      <trkpt lat="50.8413" lon="1.5995">
        <ele>59.3</ele>
        <time>2015-04-07T14:58:18.000Z</time>
      </trkpt>
      <trkpt lat="50.8413" lon="1.59951">
        <ele>59.3</ele>
        <time>2015-04-07T14:58:19.000Z</time>
      </trkpt>
      <trkpt lat="50.8413" lon="1.59953">
        <ele>59.3</ele>
        <time>2015-04-07T14:58:20.000Z</time>
      </trkpt>
      <trkpt lat="50.8413" lon="1.59954">
        <ele>59.3</ele>
        <time>2015-04-07T14:58:21.000Z</time>
      </trkpt>
      <trkpt lat="50.84129" lon="1.59955">
        <ele>59.3</ele>
        <time>2015-04-07T14:58:22.000Z</time>
      </trkpt>
      <trkpt lat="50.84129" lon="1.59956">
        <ele>59.4</ele>
        <time>2015-04-07T14:58:23.000Z</time>
      </trkpt>
      <trkpt lat="50.84129" lon="1.59957">
        <ele>59.4</ele>
        <time>2015-04-07T14:58:24.000Z</time>
      </trkpt>
      <trkpt lat="50.84128" lon="1.59958">
        <ele>59.4</ele>
        <time>2015-04-07T14:58:25.000Z</time>
      </trkpt>
      <trkpt lat="50.84126" lon="1.59961">
        <ele>59.5</ele>
        <time>2015-04-07T14:58:26.000Z</time>
      </trkpt>
      <trkpt lat="50.84126" lon="1.59961">
        <ele>59.5</ele>
        <time>2015-04-07T14:58:27.000Z</time>
      </trkpt>
      <trkpt lat="50.84126" lon="1.59962">
        <ele>59.5</ele>
        <time>2015-04-07T14:58:28.000Z</time>
      </trkpt>
      <trkpt lat="50.84126" lon="1.59962">
        <ele>59.5</ele>
        <time>2015-04-07T14:58:29.000Z</time>
      </trkpt>
      <trkpt lat="50.84126" lon="1.59962">
        <ele>59.5</ele>
        <time>2015-04-07T14:58:30.000Z</time>
      </trkpt>
      <trkpt lat="50.84125" lon="1.59963">
        <ele>59.5</ele>
        <time>2015-04-07T14:58:31.000Z</time>
      </trkpt>
      <trkpt lat="50.84124" lon="1.59963">
        <ele>59.5</ele>
        <time>2015-04-07T14:58:32.000Z</time>
      </trkpt>
      <trkpt lat="50.84123" lon="1.59964">
        <ele>59.6</ele>
        <time>2015-04-07T14:58:33.000Z</time>
      </trkpt>
      <trkpt lat="50.84123" lon="1.59964">
        <ele>59.6</ele>
        <time>2015-04-07T14:58:34.000Z</time>
      </trkpt>
      <trkpt lat="50.84122" lon="1.59965">
        <ele>59.6</ele>
        <time>2015-04-07T14:58:35.000Z</time>
      </trkpt>
      <trkpt lat="50.84121" lon="1.59965">
        <ele>59.6</ele>
        <time>2015-04-07T14:58:36.000Z</time>
      </trkpt>
      <trkpt lat="50.84121" lon="1.59966">
        <ele>59.7</ele>
        <time>2015-04-07T14:58:37.000Z</time>
      </trkpt>
      <trkpt lat="50.8412" lon="1.59966">
        <ele>59.7</ele>
        <time>2015-04-07T14:58:38.000Z</time>
      </trkpt>
      <trkpt lat="50.84119" lon="1.59967">
        <ele>59.7</ele>
        <time>2015-04-07T14:58:39.000Z</time>
      </trkpt>
      <trkpt lat="50.84119" lon="1.59967">
        <ele>59.7</ele>
        <time>2015-04-07T14:58:40.000Z</time>
      </trkpt>
      <trkpt lat="50.84116" lon="1.59968">
        <ele>59.8</ele>
        <time>2015-04-07T14:58:41.000Z</time>
      </trkpt>
      <trkpt lat="50.84116" lon="1.59968">
        <ele>59.8</ele>
        <time>2015-04-07T14:58:42.000Z</time>
      </trkpt>
      <trkpt lat="50.84115" lon="1.59968">
        <ele>59.9</ele>
        <time>2015-04-07T14:58:43.000Z</time>
      </trkpt>
      <trkpt lat="50.84115" lon="1.59968">
        <ele>59.9</ele>
        <time>2015-04-07T14:58:44.000Z</time>
      </trkpt>
      <trkpt lat="50.84114" lon="1.59968">
        <ele>59.9</ele>
        <time>2015-04-07T14:58:45.000Z</time>
      </trkpt>
      <trkpt lat="50.84114" lon="1.59969">
        <ele>59.9</ele>
        <time>2015-04-07T14:58:46.000Z</time>
      </trkpt>
      <trkpt lat="50.84113" lon="1.59969">
        <ele>59.9</ele>
        <time>2015-04-07T14:58:47.000Z</time>
      </trkpt>
      <trkpt lat="50.84112" lon="1.5997">
        <ele>60</ele>
        <time>2015-04-07T14:58:48.000Z</time>
      </trkpt>
      <trkpt lat="50.84112" lon="1.5997">
        <ele>60</ele>
        <time>2015-04-07T14:58:49.000Z</time>
      </trkpt>
      <trkpt lat="50.84111" lon="1.5997">
        <ele>60</ele>
        <time>2015-04-07T14:58:50.000Z</time>
      </trkpt>
      <trkpt lat="50.84111" lon="1.5997">
        <ele>60</ele>
        <time>2015-04-07T14:58:51.000Z</time>
      </trkpt>
      <trkpt lat="50.8411" lon="1.5997">
        <ele>60.1</ele>
        <time>2015-04-07T14:58:52.000Z</time>
      </trkpt>
      <trkpt lat="50.8411" lon="1.59971">
        <ele>60.1</ele>
        <time>2015-04-07T14:58:53.000Z</time>
      </trkpt>
      <trkpt lat="50.84108" lon="1.59971">
        <ele>60.2</ele>
        <time>2015-04-07T14:58:54.000Z</time>
      </trkpt>
      <trkpt lat="50.84108" lon="1.59971">
        <ele>60.2</ele>
        <time>2015-04-07T14:58:55.000Z</time>
      </trkpt>
      <trkpt lat="50.84108" lon="1.59972">
        <ele>60.2</ele>
        <time>2015-04-07T14:58:56.000Z</time>
      </trkpt>
      <trkpt lat="50.84108" lon="1.59972">
        <ele>60.2</ele>
        <time>2015-04-07T14:58:57.000Z</time>
      </trkpt>
      <trkpt lat="50.84107" lon="1.59973">
        <ele>60.3</ele>
        <time>2015-04-07T14:58:58.000Z</time>
      </trkpt>
      <trkpt lat="50.84107" lon="1.59973">
        <ele>60.3</ele>
        <time>2015-04-07T14:58:59.000Z</time>
      </trkpt>
      <trkpt lat="50.84107" lon="1.59973">
        <ele>60.3</ele>
        <time>2015-04-07T14:59:00.000Z</time>
      </trkpt>
      <trkpt lat="50.84107" lon="1.59973">
        <ele>60.3</ele>
        <time>2015-04-07T14:59:01.000Z</time>
      </trkpt>
      <trkpt lat="50.84108" lon="1.59973">
        <ele>60.3</ele>
        <time>2015-04-07T14:59:02.000Z</time>
      </trkpt>
      <trkpt lat="50.84108" lon="1.59974">
        <ele>60.3</ele>
        <time>2015-04-07T14:59:03.000Z</time>
      </trkpt>
      <trkpt lat="50.84108" lon="1.59974">
        <ele>60.2</ele>
        <time>2015-04-07T14:59:04.000Z</time>
      </trkpt>
      <trkpt lat="50.84109" lon="1.59974">
        <ele>60.2</ele>
        <time>2015-04-07T14:59:05.000Z</time>
      </trkpt>
      <trkpt lat="50.84109" lon="1.59975">
        <ele>60.2</ele>
        <time>2015-04-07T14:59:06.000Z</time>
      </trkpt>
      <trkpt lat="50.84109" lon="1.59975">
        <ele>60.2</ele>
        <time>2015-04-07T14:59:07.000Z</time>
      </trkpt>
      <trkpt lat="50.84111" lon="1.59975">
        <ele>60.1</ele>
        <time>2015-04-07T14:59:08.000Z</time>
      </trkpt>
      <trkpt lat="50.84111" lon="1.59975">
        <ele>60.1</ele>
        <time>2015-04-07T14:59:09.000Z</time>
      </trkpt>
      <trkpt lat="50.84111" lon="1.59975">
        <ele>60.1</ele>
        <time>2015-04-07T14:59:10.000Z</time>
      </trkpt>
      <trkpt lat="50.84111" lon="1.59978">
        <ele>60.2</ele>
        <time>2015-04-07T14:59:11.000Z</time>
      </trkpt>
      <trkpt lat="50.84111" lon="1.59978">
        <ele>60.2</ele>
        <time>2015-04-07T14:59:12.000Z</time>
      </trkpt>
      <trkpt lat="50.84111" lon="1.59978">
        <ele>60.2</ele>
        <time>2015-04-07T14:59:13.000Z</time>
      </trkpt>
      <trkpt lat="50.84111" lon="1.59978">
        <ele>60.2</ele>
        <time>2015-04-07T14:59:14.000Z</time>
      </trkpt>
      <trkpt lat="50.84111" lon="1.59979">
        <ele>60.2</ele>
        <time>2015-04-07T14:59:15.000Z</time>
      </trkpt>
      <trkpt lat="50.8411" lon="1.59981">
        <ele>60.4</ele>
        <time>2015-04-07T14:59:16.000Z</time>
      </trkpt>
      <trkpt lat="50.84109" lon="1.59981">
        <ele>60.4</ele>
        <time>2015-04-07T14:59:17.000Z</time>
      </trkpt>
      <trkpt lat="50.84109" lon="1.59981">
        <ele>60.4</ele>
        <time>2015-04-07T14:59:18.000Z</time>
      </trkpt>
      <trkpt lat="50.84108" lon="1.59982">
        <ele>60.4</ele>
        <time>2015-04-07T14:59:19.000Z</time>
      </trkpt>
      <trkpt lat="50.84108" lon="1.59982">
        <ele>60.4</ele>
        <time>2015-04-07T14:59:20.000Z</time>
      </trkpt>
      <trkpt lat="50.84108" lon="1.59982">
        <ele>60.4</ele>
        <time>2015-04-07T14:59:21.000Z</time>
      </trkpt>
      <trkpt lat="50.84108" lon="1.59982">
        <ele>60.4</ele>
        <time>2015-04-07T14:59:22.000Z</time>
      </trkpt>
      <trkpt lat="50.84107" lon="1.59982">
        <ele>60.4</ele>
        <time>2015-04-07T14:59:23.000Z</time>
      </trkpt>
      <trkpt lat="50.84107" lon="1.59983">
        <ele>60.4</ele>
        <time>2015-04-07T14:59:24.000Z</time>
      </trkpt>
      <trkpt lat="50.84107" lon="1.59983">
        <ele>60.4</ele>
        <time>2015-04-07T14:59:25.000Z</time>
      </trkpt>
      <trkpt lat="50.84107" lon="1.59983">
        <ele>60.5</ele>
        <time>2015-04-07T14:59:26.000Z</time>
      </trkpt>
      <trkpt lat="50.84107" lon="1.59984">
        <ele>60.5</ele>
        <time>2015-04-07T14:59:27.000Z</time>
      </trkpt>
      <trkpt lat="50.84107" lon="1.59984">
        <ele>60.5</ele>
        <time>2015-04-07T14:59:28.000Z</time>
      </trkpt>
      <trkpt lat="50.84107" lon="1.59984">
        <ele>60.5</ele>
        <time>2015-04-07T14:59:29.000Z</time>
      </trkpt>
      <trkpt lat="50.84107" lon="1.59984">
        <ele>60.5</ele>
        <time>2015-04-07T14:59:30.000Z</time>
      </trkpt>
      <trkpt lat="50.84107" lon="1.59985">
        <ele>60.5</ele>
        <time>2015-04-07T14:59:31.000Z</time>
      </trkpt>
      <trkpt lat="50.84107" lon="1.59985">
        <ele>60.5</ele>
        <time>2015-04-07T14:59:32.000Z</time>
      </trkpt>
      <trkpt lat="50.84107" lon="1.59985">
        <ele>60.5</ele>
        <time>2015-04-07T14:59:33.000Z</time>
      </trkpt>
      <trkpt lat="50.84107" lon="1.59985">
        <ele>60.5</ele>
        <time>2015-04-07T14:59:34.000Z</time>
      </trkpt>
      <trkpt lat="50.84107" lon="1.59985">
        <ele>60.5</ele>
        <time>2015-04-07T14:59:35.000Z</time>
      </trkpt>
      <trkpt lat="50.84107" lon="1.59985">
        <ele>60.5</ele>
        <time>2015-04-07T14:59:36.000Z</time>
      </trkpt>
      <trkpt lat="50.84107" lon="1.59984">
        <ele>60.5</ele>
        <time>2015-04-07T14:59:37.000Z</time>
      </trkpt>
      <trkpt lat="50.84107" lon="1.59984">
        <ele>60.5</ele>
        <time>2015-04-07T14:59:38.000Z</time>
      </trkpt>
      <trkpt lat="50.84107" lon="1.59984">
        <ele>60.5</ele>
        <time>2015-04-07T14:59:39.000Z</time>
      </trkpt>
      <trkpt lat="50.84107" lon="1.59985">
        <ele>60.5</ele>
        <time>2015-04-07T14:59:40.000Z</time>
      </trkpt>
      <trkpt lat="50.84107" lon="1.59985">
        <ele>60.5</ele>
        <time>2015-04-07T14:59:41.000Z</time>
      </trkpt>
      <trkpt lat="50.84107" lon="1.59986">
        <ele>60.5</ele>
        <time>2015-04-07T14:59:42.000Z</time>
      </trkpt>
      <trkpt lat="50.84107" lon="1.59986">
        <ele>60.5</ele>
        <time>2015-04-07T14:59:43.000Z</time>
      </trkpt>
      <trkpt lat="50.84107" lon="1.59987">
        <ele>60.5</ele>
        <time>2015-04-07T14:59:44.000Z</time>
      </trkpt>
      <trkpt lat="50.84107" lon="1.59987">
        <ele>60.5</ele>
        <time>2015-04-07T14:59:45.000Z</time>
      </trkpt>
      <trkpt lat="50.84106" lon="1.59987">
        <ele>60.5</ele>
        <time>2015-04-07T14:59:46.000Z</time>
      </trkpt>
      <trkpt lat="50.84106" lon="1.59986">
        <ele>60.5</ele>
        <time>2015-04-07T14:59:47.000Z</time>
      </trkpt>
      <trkpt lat="50.84106" lon="1.59985">
        <ele>60.5</ele>
        <time>2015-04-07T14:59:48.000Z</time>
      </trkpt>
      <trkpt lat="50.84106" lon="1.59984">
        <ele>60.5</ele>
        <time>2015-04-07T14:59:49.000Z</time>
      </trkpt>
      <trkpt lat="50.84106" lon="1.59984">
        <ele>60.5</ele>
        <time>2015-04-07T14:59:50.000Z</time>
      </trkpt>
      <trkpt lat="50.84106" lon="1.59984">
        <ele>60.5</ele>
        <time>2015-04-07T14:59:51.000Z</time>
      </trkpt>
      <trkpt lat="50.84106" lon="1.59984">
        <ele>60.5</ele>
        <time>2015-04-07T14:59:52.000Z</time>
      </trkpt>
      <trkpt lat="50.84106" lon="1.59984">
        <ele>60.5</ele>
        <time>2015-04-07T14:59:53.000Z</time>
      </trkpt>
      <trkpt lat="50.84106" lon="1.59983">
        <ele>60.5</ele>
        <time>2015-04-07T14:59:54.000Z</time>
      </trkpt>
      <trkpt lat="50.84106" lon="1.59983">
        <ele>60.5</ele>
        <time>2015-04-07T14:59:55.000Z</time>
      </trkpt>
      <trkpt lat="50.84106" lon="1.59983">
        <ele>60.5</ele>
        <time>2015-04-07T14:59:56.000Z</time>
      </trkpt>
      <trkpt lat="50.84107" lon="1.59983">
        <ele>60.5</ele>
        <time>2015-04-07T14:59:57.000Z</time>
      </trkpt>
      <trkpt lat="50.84107" lon="1.59983">
        <ele>60.5</ele>
        <time>2015-04-07T14:59:58.000Z</time>
      </trkpt>
      <trkpt lat="50.84107" lon="1.59983">
        <ele>60.5</ele>
        <time>2015-04-07T14:59:59.000Z</time>
      </trkpt>
      <trkpt lat="50.84107" lon="1.59983">
        <ele>60.5</ele>
        <time>2015-04-07T15:00:00.000Z</time>
      </trkpt>
      <trkpt lat="50.84107" lon="1.59983">
        <ele>60.5</ele>
        <time>2015-04-07T15:00:01.000Z</time>
      </trkpt>
      <trkpt lat="50.84107" lon="1.59983">
        <ele>60.5</ele>
        <time>2015-04-07T15:00:02.000Z</time>
      </trkpt>
      <trkpt lat="50.84107" lon="1.59983">
        <ele>60.5</ele>
        <time>2015-04-07T15:00:03.000Z</time>
      </trkpt>
      <trkpt lat="50.84107" lon="1.59983">
        <ele>60.5</ele>
        <time>2015-04-07T15:00:04.000Z</time>
      </trkpt>
      <trkpt lat="50.84107" lon="1.59983">
        <ele>60.5</ele>
        <time>2015-04-07T15:00:05.000Z</time>
      </trkpt>
      <trkpt lat="50.84106" lon="1.59984">
        <ele>60.5</ele>
        <time>2015-04-07T15:00:06.000Z</time>
      </trkpt>
      <trkpt lat="50.84106" lon="1.59983">
        <ele>60.5</ele>
        <time>2015-04-07T15:00:07.000Z</time>
      </trkpt>
      <trkpt lat="50.84106" lon="1.59982">
        <ele>60.5</ele>
        <time>2015-04-07T15:00:08.000Z</time>
      </trkpt>
      <trkpt lat="50.84106" lon="1.59982">
        <ele>60.5</ele>
        <time>2015-04-07T15:00:09.000Z</time>
      </trkpt>
      <trkpt lat="50.84106" lon="1.59982">
        <ele>60.5</ele>
        <time>2015-04-07T15:00:10.000Z</time>
      </trkpt>
      <trkpt lat="50.84106" lon="1.59982">
        <ele>60.5</ele>
        <time>2015-04-07T15:00:11.000Z</time>
      </trkpt>
      <trkpt lat="50.84106" lon="1.59982">
        <ele>60.5</ele>
        <time>2015-04-07T15:00:12.000Z</time>
      </trkpt>
      <trkpt lat="50.84106" lon="1.59982">
        <ele>60.5</ele>
        <time>2015-04-07T15:00:13.000Z</time>
      </trkpt>
      <trkpt lat="50.84106" lon="1.5998">
        <ele>60.4</ele>
        <time>2015-04-07T15:00:14.000Z</time>
      </trkpt>
      <trkpt lat="50.84106" lon="1.5998">
        <ele>60.4</ele>
        <time>2015-04-07T15:00:15.000Z</time>
      </trkpt>
      <trkpt lat="50.84106" lon="1.59979">
        <ele>60.4</ele>
        <time>2015-04-07T15:00:16.000Z</time>
      </trkpt>
      <trkpt lat="50.84106" lon="1.59978">
        <ele>60.4</ele>
        <time>2015-04-07T15:00:17.000Z</time>
      </trkpt>
      <trkpt lat="50.84103" lon="1.59976">
        <ele>60.5</ele>
        <time>2015-04-07T15:00:18.000Z</time>
      </trkpt>
      <trkpt lat="50.84103" lon="1.59976">
        <ele>60.5</ele>
        <time>2015-04-07T15:00:19.000Z</time>
      </trkpt>
      <trkpt lat="50.84102" lon="1.59976">
        <ele>60.6</ele>
        <time>2015-04-07T15:00:20.000Z</time>
      </trkpt>
      <trkpt lat="50.84102" lon="1.59976">
        <ele>60.6</ele>
        <time>2015-04-07T15:00:21.000Z</time>
      </trkpt>
      <trkpt lat="50.84103" lon="1.59977">
        <ele>60.6</ele>
        <time>2015-04-07T15:00:22.000Z</time>
      </trkpt>
      <trkpt lat="50.84103" lon="1.59977">
        <ele>60.6</ele>
        <time>2015-04-07T15:00:23.000Z</time>
      </trkpt>
      <trkpt lat="50.84103" lon="1.59977">
        <ele>60.6</ele>
        <time>2015-04-07T15:00:24.000Z</time>
      </trkpt>
      <trkpt lat="50.84103" lon="1.59978">
        <ele>60.5</ele>
        <time>2015-04-07T15:00:25.000Z</time>
      </trkpt>
      <trkpt lat="50.84103" lon="1.59978">
        <ele>60.5</ele>
        <time>2015-04-07T15:00:26.000Z</time>
      </trkpt>
      <trkpt lat="50.84103" lon="1.59978">
        <ele>60.5</ele>
        <time>2015-04-07T15:00:27.000Z</time>
      </trkpt>
      <trkpt lat="50.84103" lon="1.59978">
        <ele>60.5</ele>
        <time>2015-04-07T15:00:28.000Z</time>
      </trkpt>
      <trkpt lat="50.84103" lon="1.59978">
        <ele>60.5</ele>
        <time>2015-04-07T15:00:29.000Z</time>
      </trkpt>
      <trkpt lat="50.84103" lon="1.59978">
        <ele>60.5</ele>
        <time>2015-04-07T15:00:30.000Z</time>
      </trkpt>
      <trkpt lat="50.84103" lon="1.59978">
        <ele>60.5</ele>
        <time>2015-04-07T15:00:31.000Z</time>
      </trkpt>
      <trkpt lat="50.84103" lon="1.59979">
        <ele>60.5</ele>
        <time>2015-04-07T15:00:32.000Z</time>
      </trkpt>
      <trkpt lat="50.84103" lon="1.59979">
        <ele>60.5</ele>
        <time>2015-04-07T15:00:33.000Z</time>
      </trkpt>
      <trkpt lat="50.84103" lon="1.59979">
        <ele>60.5</ele>
        <time>2015-04-07T15:00:34.000Z</time>
      </trkpt>
      <trkpt lat="50.84103" lon="1.59979">
        <ele>60.5</ele>
        <time>2015-04-07T15:00:35.000Z</time>
      </trkpt>
      <trkpt lat="50.84103" lon="1.59979">
        <ele>60.5</ele>
        <time>2015-04-07T15:00:36.000Z</time>
      </trkpt>
      <trkpt lat="50.84103" lon="1.59979">
        <ele>60.5</ele>
        <time>2015-04-07T15:00:37.000Z</time>
      </trkpt>
      <trkpt lat="50.84102" lon="1.59979">
        <ele>60.6</ele>
        <time>2015-04-07T15:00:38.000Z</time>
      </trkpt>
      <trkpt lat="50.84102" lon="1.59979">
        <ele>60.6</ele>
        <time>2015-04-07T15:00:39.000Z</time>
      </trkpt>
      <trkpt lat="50.84102" lon="1.59978">
        <ele>60.6</ele>
        <time>2015-04-07T15:00:40.000Z</time>
      </trkpt>
      <trkpt lat="50.84102" lon="1.59978">
        <ele>60.6</ele>
        <time>2015-04-07T15:00:41.000Z</time>
      </trkpt>
      <trkpt lat="50.84101" lon="1.59977">
        <ele>60.6</ele>
        <time>2015-04-07T15:00:42.000Z</time>
      </trkpt>
      <trkpt lat="50.84101" lon="1.59977">
        <ele>60.6</ele>
        <time>2015-04-07T15:00:43.000Z</time>
      </trkpt>
      <trkpt lat="50.84101" lon="1.59977">
        <ele>60.7</ele>
        <time>2015-04-07T15:00:44.000Z</time>
      </trkpt>
      <trkpt lat="50.84101" lon="1.59975">
        <ele>60.7</ele>
        <time>2015-04-07T15:00:45.000Z</time>
      </trkpt>
      <trkpt lat="50.84101" lon="1.59975">
        <ele>60.7</ele>
        <time>2015-04-07T15:00:46.000Z</time>
      </trkpt>
      <trkpt lat="50.84101" lon="1.59975">
        <ele>60.7</ele>
        <time>2015-04-07T15:00:47.000Z</time>
      </trkpt>
      <trkpt lat="50.84101" lon="1.59975">
        <ele>60.7</ele>
        <time>2015-04-07T15:00:48.000Z</time>
      </trkpt>
      <trkpt lat="50.84101" lon="1.59974">
        <ele>60.7</ele>
        <time>2015-04-07T15:00:49.000Z</time>
      </trkpt>
      <trkpt lat="50.84101" lon="1.59974">
        <ele>60.7</ele>
        <time>2015-04-07T15:00:50.000Z</time>
      </trkpt>
      <trkpt lat="50.84101" lon="1.59974">
        <ele>60.7</ele>
        <time>2015-04-07T15:00:51.000Z</time>
      </trkpt>
      <trkpt lat="50.84101" lon="1.59974">
        <ele>60.7</ele>
        <time>2015-04-07T15:00:52.000Z</time>
      </trkpt>
      <trkpt lat="50.841" lon="1.59975">
        <ele>60.7</ele>
        <time>2015-04-07T15:00:53.000Z</time>
      </trkpt>
      <trkpt lat="50.841" lon="1.59975">
        <ele>60.7</ele>
        <time>2015-04-07T15:00:54.000Z</time>
      </trkpt>
      <trkpt lat="50.84101" lon="1.59975">
        <ele>60.7</ele>
        <time>2015-04-07T15:00:55.000Z</time>
      </trkpt>
      <trkpt lat="50.84101" lon="1.59975">
        <ele>60.7</ele>
        <time>2015-04-07T15:00:56.000Z</time>
      </trkpt>
      <trkpt lat="50.84101" lon="1.59975">
        <ele>60.7</ele>
        <time>2015-04-07T15:00:57.000Z</time>
      </trkpt>
      <trkpt lat="50.84101" lon="1.59974">
        <ele>60.7</ele>
        <time>2015-04-07T15:00:58.000Z</time>
      </trkpt>
      <trkpt lat="50.84101" lon="1.59973">
        <ele>60.7</ele>
        <time>2015-04-07T15:00:59.000Z</time>
      </trkpt>
      <trkpt lat="50.84101" lon="1.59972">
        <ele>60.7</ele>
        <time>2015-04-07T15:01:00.000Z</time>
      </trkpt>
      <trkpt lat="50.84101" lon="1.5997">
        <ele>60.7</ele>
        <time>2015-04-07T15:01:01.000Z</time>
      </trkpt>
      <trkpt lat="50.84101" lon="1.5997">
        <ele>60.7</ele>
        <time>2015-04-07T15:01:02.000Z</time>
      </trkpt>
      <trkpt lat="50.84101" lon="1.59969">
        <ele>60.7</ele>
        <time>2015-04-07T15:01:03.000Z</time>
      </trkpt>
      <trkpt lat="50.84101" lon="1.59969">
        <ele>60.7</ele>
        <time>2015-04-07T15:01:04.000Z</time>
      </trkpt>
      <trkpt lat="50.84101" lon="1.59969">
        <ele>60.7</ele>
        <time>2015-04-07T15:01:05.000Z</time>
      </trkpt>
      <trkpt lat="50.84101" lon="1.59969">
        <ele>60.7</ele>
        <time>2015-04-07T15:01:06.000Z</time>
      </trkpt>
      <trkpt lat="50.84102" lon="1.59968">
        <ele>60.6</ele>
        <time>2015-04-07T15:01:07.000Z</time>
      </trkpt>
      <trkpt lat="50.84102" lon="1.59968">
        <ele>60.6</ele>
        <time>2015-04-07T15:01:08.000Z</time>
      </trkpt>
      <trkpt lat="50.84102" lon="1.59968">
        <ele>60.6</ele>
        <time>2015-04-07T15:01:09.000Z</time>
      </trkpt>
      <trkpt lat="50.84102" lon="1.59968">
        <ele>60.6</ele>
        <time>2015-04-07T15:01:10.000Z</time>
      </trkpt>
      <trkpt lat="50.84103" lon="1.59968">
        <ele>60.6</ele>
        <time>2015-04-07T15:01:11.000Z</time>
      </trkpt>
      <trkpt lat="50.84103" lon="1.59969">
        <ele>60.5</ele>
        <time>2015-04-07T15:01:12.000Z</time>
      </trkpt>
      <trkpt lat="50.84104" lon="1.59969">
        <ele>60.5</ele>
        <time>2015-04-07T15:01:13.000Z</time>
      </trkpt>
      <trkpt lat="50.84104" lon="1.59968">
        <ele>60.5</ele>
        <time>2015-04-07T15:01:14.000Z</time>
      </trkpt>
      <trkpt lat="50.84105" lon="1.59968">
        <ele>60.4</ele>
        <time>2015-04-07T15:01:15.000Z</time>
      </trkpt>
      <trkpt lat="50.84106" lon="1.59968">
        <ele>60.4</ele>
        <time>2015-04-07T15:01:16.000Z</time>
      </trkpt>
      <trkpt lat="50.84107" lon="1.59968">
        <ele>60.3</ele>
        <time>2015-04-07T15:01:17.000Z</time>
      </trkpt>
      <trkpt lat="50.84108" lon="1.59968">
        <ele>60.2</ele>
        <time>2015-04-07T15:01:18.000Z</time>
      </trkpt>
      <trkpt lat="50.84109" lon="1.59968">
        <ele>60.2</ele>
        <time>2015-04-07T15:01:19.000Z</time>
      </trkpt>
      <trkpt lat="50.8411" lon="1.59968">
        <ele>60.1</ele>
        <time>2015-04-07T15:01:20.000Z</time>
      </trkpt>
      <trkpt lat="50.84114" lon="1.59971">
        <ele>59.9</ele>
        <time>2015-04-07T15:01:21.000Z</time>
      </trkpt>
      <trkpt lat="50.84114" lon="1.59971">
        <ele>59.9</ele>
        <time>2015-04-07T15:01:22.000Z</time>
      </trkpt>
      <trkpt lat="50.84115" lon="1.59971">
        <ele>59.9</ele>
        <time>2015-04-07T15:01:23.000Z</time>
      </trkpt>
      <trkpt lat="50.84116" lon="1.59971">
        <ele>59.8</ele>
        <time>2015-04-07T15:01:24.000Z</time>
      </trkpt>
      <trkpt lat="50.84116" lon="1.59971">
        <ele>59.8</ele>
        <time>2015-04-07T15:01:25.000Z</time>
      </trkpt>
      <trkpt lat="50.84117" lon="1.59971">
        <ele>59.8</ele>
        <time>2015-04-07T15:01:26.000Z</time>
      </trkpt>
      <trkpt lat="50.84118" lon="1.59971">
        <ele>59.7</ele>
        <time>2015-04-07T15:01:27.000Z</time>
      </trkpt>
      <trkpt lat="50.84119" lon="1.59972">
        <ele>59.7</ele>
        <time>2015-04-07T15:01:28.000Z</time>
      </trkpt>
      <trkpt lat="50.8412" lon="1.59972">
        <ele>59.7</ele>
        <time>2015-04-07T15:01:29.000Z</time>
      </trkpt>
      <trkpt lat="50.84121" lon="1.59972">
        <ele>59.6</ele>
        <time>2015-04-07T15:01:30.000Z</time>
      </trkpt>
      <trkpt lat="50.84122" lon="1.59973">
        <ele>59.6</ele>
        <time>2015-04-07T15:01:31.000Z</time>
      </trkpt>
      <trkpt lat="50.84124" lon="1.59974">
        <ele>59.6</ele>
        <time>2015-04-07T15:01:32.000Z</time>
      </trkpt>
      <trkpt lat="50.84125" lon="1.59975">
        <ele>59.5</ele>
        <time>2015-04-07T15:01:33.000Z</time>
      </trkpt>
      <trkpt lat="50.84127" lon="1.59976">
        <ele>59.5</ele>
        <time>2015-04-07T15:01:34.000Z</time>
      </trkpt>
      <trkpt lat="50.84128" lon="1.59977">
        <ele>59.5</ele>
        <time>2015-04-07T15:01:35.000Z</time>
      </trkpt>
      <trkpt lat="50.84129" lon="1.59978">
        <ele>59.4</ele>
        <time>2015-04-07T15:01:36.000Z</time>
      </trkpt>
      <trkpt lat="50.84129" lon="1.5998">
        <ele>59.4</ele>
        <time>2015-04-07T15:01:37.000Z</time>
      </trkpt>
      <trkpt lat="50.8413" lon="1.59981">
        <ele>59.4</ele>
        <time>2015-04-07T15:01:38.000Z</time>
      </trkpt>
      <trkpt lat="50.8413" lon="1.59983">
        <ele>59.4</ele>
        <time>2015-04-07T15:01:39.000Z</time>
      </trkpt>
      <trkpt lat="50.8413" lon="1.59989">
        <ele>59.5</ele>
        <time>2015-04-07T15:01:40.000Z</time>
      </trkpt>
      <trkpt lat="50.8413" lon="1.59989">
        <ele>59.5</ele>
        <time>2015-04-07T15:01:41.000Z</time>
      </trkpt>
      <trkpt lat="50.8413" lon="1.59989">
        <ele>59.5</ele>
        <time>2015-04-07T15:01:42.000Z</time>
      </trkpt>
      <trkpt lat="50.8413" lon="1.5999">
        <ele>59.6</ele>
        <time>2015-04-07T15:01:43.000Z</time>
      </trkpt>
      <trkpt lat="50.8413" lon="1.59991">
        <ele>59.6</ele>
        <time>2015-04-07T15:01:44.000Z</time>
      </trkpt>
      <trkpt lat="50.84129" lon="1.59996">
        <ele>59.7</ele>
        <time>2015-04-07T15:01:45.000Z</time>
      </trkpt>
      <trkpt lat="50.84129" lon="1.59997">
        <ele>59.7</ele>
        <time>2015-04-07T15:01:46.000Z</time>
      </trkpt>
      <trkpt lat="50.84129" lon="1.59997">
        <ele>59.7</ele>
        <time>2015-04-07T15:01:47.000Z</time>
      </trkpt>
      <trkpt lat="50.84129" lon="1.59998">
        <ele>59.7</ele>
        <time>2015-04-07T15:01:48.000Z</time>
      </trkpt>
      <trkpt lat="50.84128" lon="1.59999">
        <ele>59.8</ele>
        <time>2015-04-07T15:01:49.000Z</time>
      </trkpt>
      <trkpt lat="50.84128" lon="1.6">
        <ele>59.8</ele>
        <time>2015-04-07T15:01:50.000Z</time>
      </trkpt>
      <trkpt lat="50.84127" lon="1.60001">
        <ele>59.8</ele>
        <time>2015-04-07T15:01:51.000Z</time>
      </trkpt>
      <trkpt lat="50.84127" lon="1.60003">
        <ele>59.9</ele>
        <time>2015-04-07T15:01:52.000Z</time>
      </trkpt>
      <trkpt lat="50.84126" lon="1.60004">
        <ele>59.9</ele>
        <time>2015-04-07T15:01:53.000Z</time>
      </trkpt>
      <trkpt lat="50.84125" lon="1.60006">
        <ele>59.9</ele>
        <time>2015-04-07T15:01:54.000Z</time>
      </trkpt>
      <trkpt lat="50.84125" lon="1.60007">
        <ele>59.9</ele>
        <time>2015-04-07T15:01:55.000Z</time>
      </trkpt>
      <trkpt lat="50.84124" lon="1.60008">
        <ele>59.9</ele>
        <time>2015-04-07T15:01:56.000Z</time>
      </trkpt>
      <trkpt lat="50.84124" lon="1.60009">
        <ele>59.9</ele>
        <time>2015-04-07T15:01:57.000Z</time>
      </trkpt>
      <trkpt lat="50.84122" lon="1.60012">
        <ele>59.9</ele>
        <time>2015-04-07T15:01:58.000Z</time>
      </trkpt>
      <trkpt lat="50.84122" lon="1.60012">
        <ele>59.9</ele>
        <time>2015-04-07T15:01:59.000Z</time>
      </trkpt>
      <trkpt lat="50.84122" lon="1.60012">
        <ele>59.8</ele>
        <time>2015-04-07T15:02:00.000Z</time>
      </trkpt>
      <trkpt lat="50.84122" lon="1.60013">
        <ele>59.8</ele>
        <time>2015-04-07T15:02:01.000Z</time>
      </trkpt>
      <trkpt lat="50.84123" lon="1.60013">
        <ele>59.8</ele>
        <time>2015-04-07T15:02:02.000Z</time>
      </trkpt>
      <trkpt lat="50.84123" lon="1.60014">
        <ele>59.8</ele>
        <time>2015-04-07T15:02:03.000Z</time>
      </trkpt>
      <trkpt lat="50.84125" lon="1.60015">
        <ele>59.7</ele>
        <time>2015-04-07T15:02:04.000Z</time>
      </trkpt>
      <trkpt lat="50.84125" lon="1.60015">
        <ele>59.7</ele>
        <time>2015-04-07T15:02:05.000Z</time>
      </trkpt>
      <trkpt lat="50.84125" lon="1.60015">
        <ele>59.7</ele>
        <time>2015-04-07T15:02:06.000Z</time>
      </trkpt>
      <trkpt lat="50.84125" lon="1.60018">
        <ele>59.7</ele>
        <time>2015-04-07T15:02:07.000Z</time>
      </trkpt>
      <trkpt lat="50.84125" lon="1.60018">
        <ele>59.7</ele>
        <time>2015-04-07T15:02:08.000Z</time>
      </trkpt>
      <trkpt lat="50.84125" lon="1.60019">
        <ele>59.7</ele>
        <time>2015-04-07T15:02:09.000Z</time>
      </trkpt>
      <trkpt lat="50.84125" lon="1.60021">
        <ele>59.6</ele>
        <time>2015-04-07T15:02:10.000Z</time>
      </trkpt>
      <trkpt lat="50.84125" lon="1.60021">
        <ele>59.6</ele>
        <time>2015-04-07T15:02:11.000Z</time>
      </trkpt>
      <trkpt lat="50.84125" lon="1.60021">
        <ele>59.6</ele>
        <time>2015-04-07T15:02:12.000Z</time>
      </trkpt>
      <trkpt lat="50.84124" lon="1.60023">
        <ele>59.6</ele>
        <time>2015-04-07T15:02:13.000Z</time>
      </trkpt>
      <trkpt lat="50.84124" lon="1.60023">
        <ele>59.6</ele>
        <time>2015-04-07T15:02:14.000Z</time>
      </trkpt>
      <trkpt lat="50.84124" lon="1.60024">
        <ele>59.6</ele>
        <time>2015-04-07T15:02:15.000Z</time>
      </trkpt>
      <trkpt lat="50.84124" lon="1.60026">
        <ele>59.5</ele>
        <time>2015-04-07T15:02:16.000Z</time>
      </trkpt>
      <trkpt lat="50.84124" lon="1.60026">
        <ele>59.5</ele>
        <time>2015-04-07T15:02:17.000Z</time>
      </trkpt>
      <trkpt lat="50.84124" lon="1.60027">
        <ele>59.5</ele>
        <time>2015-04-07T15:02:18.000Z</time>
      </trkpt>
      <trkpt lat="50.84124" lon="1.60027">
        <ele>59.5</ele>
        <time>2015-04-07T15:02:19.000Z</time>
      </trkpt>
      <trkpt lat="50.84124" lon="1.60027">
        <ele>59.5</ele>
        <time>2015-04-07T15:02:20.000Z</time>
      </trkpt>
      <trkpt lat="50.84124" lon="1.60027">
        <ele>59.5</ele>
        <time>2015-04-07T15:02:21.000Z</time>
      </trkpt>
      <trkpt lat="50.84124" lon="1.60028">
        <ele>59.5</ele>
        <time>2015-04-07T15:02:22.000Z</time>
      </trkpt>
      <trkpt lat="50.84125" lon="1.60028">
        <ele>59.5</ele>
        <time>2015-04-07T15:02:23.000Z</time>
      </trkpt>
      <trkpt lat="50.84125" lon="1.60029">
        <ele>59.5</ele>
        <time>2015-04-07T15:02:24.000Z</time>
      </trkpt>
      <trkpt lat="50.84125" lon="1.60029">
        <ele>59.5</ele>
        <time>2015-04-07T15:02:25.000Z</time>
      </trkpt>
      <trkpt lat="50.84125" lon="1.6003">
        <ele>59.5</ele>
        <time>2015-04-07T15:02:26.000Z</time>
      </trkpt>
      <trkpt lat="50.84125" lon="1.60031">
        <ele>59.5</ele>
        <time>2015-04-07T15:02:27.000Z</time>
      </trkpt>
      <trkpt lat="50.84125" lon="1.60032">
        <ele>59.6</ele>
        <time>2015-04-07T15:02:28.000Z</time>
      </trkpt>
      <trkpt lat="50.84124" lon="1.60033">
        <ele>59.6</ele>
        <time>2015-04-07T15:02:29.000Z</time>
      </trkpt>
      <trkpt lat="50.84124" lon="1.60035">
        <ele>59.6</ele>
        <time>2015-04-07T15:02:30.000Z</time>
      </trkpt>
      <trkpt lat="50.84124" lon="1.60036">
        <ele>59.6</ele>
        <time>2015-04-07T15:02:31.000Z</time>
      </trkpt>
      <trkpt lat="50.84124" lon="1.60037">
        <ele>59.6</ele>
        <time>2015-04-07T15:02:32.000Z</time>
      </trkpt>
      <trkpt lat="50.84124" lon="1.60038">
        <ele>59.7</ele>
        <time>2015-04-07T15:02:33.000Z</time>
      </trkpt>
      <trkpt lat="50.84124" lon="1.6004">
        <ele>59.7</ele>
        <time>2015-04-07T15:02:34.000Z</time>
      </trkpt>
      <trkpt lat="50.84123" lon="1.60041">
        <ele>59.7</ele>
        <time>2015-04-07T15:02:35.000Z</time>
      </trkpt>
      <trkpt lat="50.84123" lon="1.60042">
        <ele>59.7</ele>
        <time>2015-04-07T15:02:36.000Z</time>
      </trkpt>
      <trkpt lat="50.84123" lon="1.60044">
        <ele>59.8</ele>
        <time>2015-04-07T15:02:37.000Z</time>
      </trkpt>
      <trkpt lat="50.84122" lon="1.60047">
        <ele>59.8</ele>
        <time>2015-04-07T15:02:38.000Z</time>
      </trkpt>
      <trkpt lat="50.84122" lon="1.60047">
        <ele>59.8</ele>
        <time>2015-04-07T15:02:39.000Z</time>
      </trkpt>
      <trkpt lat="50.84122" lon="1.60047">
        <ele>59.8</ele>
        <time>2015-04-07T15:02:40.000Z</time>
      </trkpt>
      <trkpt lat="50.84122" lon="1.60048">
        <ele>59.8</ele>
        <time>2015-04-07T15:02:41.000Z</time>
      </trkpt>
      <trkpt lat="50.84122" lon="1.60048">
        <ele>59.8</ele>
        <time>2015-04-07T15:02:42.000Z</time>
      </trkpt>
      <trkpt lat="50.84122" lon="1.60048">
        <ele>59.8</ele>
        <time>2015-04-07T15:02:43.000Z</time>
      </trkpt>
      <trkpt lat="50.84122" lon="1.60049">
        <ele>59.9</ele>
        <time>2015-04-07T15:02:44.000Z</time>
      </trkpt>
      <trkpt lat="50.84122" lon="1.6005">
        <ele>59.9</ele>
        <time>2015-04-07T15:02:45.000Z</time>
      </trkpt>
      <trkpt lat="50.84122" lon="1.6005">
        <ele>59.9</ele>
        <time>2015-04-07T15:02:46.000Z</time>
      </trkpt>
      <trkpt lat="50.84122" lon="1.60049">
        <ele>59.9</ele>
        <time>2015-04-07T15:02:47.000Z</time>
      </trkpt>
      <trkpt lat="50.84122" lon="1.60049">
        <ele>59.9</ele>
        <time>2015-04-07T15:02:48.000Z</time>
      </trkpt>
      <trkpt lat="50.84122" lon="1.60049">
        <ele>59.8</ele>
        <time>2015-04-07T15:02:49.000Z</time>
      </trkpt>
      <trkpt lat="50.84121" lon="1.60048">
        <ele>59.8</ele>
        <time>2015-04-07T15:02:50.000Z</time>
      </trkpt>
      <trkpt lat="50.84121" lon="1.60048">
        <ele>59.8</ele>
        <time>2015-04-07T15:02:51.000Z</time>
      </trkpt>
      <trkpt lat="50.8412" lon="1.60048">
        <ele>59.8</ele>
        <time>2015-04-07T15:02:52.000Z</time>
      </trkpt>
      <trkpt lat="50.8412" lon="1.60048">
        <ele>59.8</ele>
        <time>2015-04-07T15:02:53.000Z</time>
      </trkpt>
      <trkpt lat="50.84121" lon="1.60048">
        <ele>59.8</ele>
        <time>2015-04-07T15:02:54.000Z</time>
      </trkpt>
      <trkpt lat="50.84121" lon="1.60048">
        <ele>59.8</ele>
        <time>2015-04-07T15:02:55.000Z</time>
      </trkpt>
      <trkpt lat="50.84122" lon="1.60047">
        <ele>59.8</ele>
        <time>2015-04-07T15:02:56.000Z</time>
      </trkpt>
      <trkpt lat="50.84122" lon="1.60047">
        <ele>59.8</ele>
        <time>2015-04-07T15:02:57.000Z</time>
      </trkpt>
      <trkpt lat="50.84122" lon="1.60047">
        <ele>59.8</ele>
        <time>2015-04-07T15:02:58.000Z</time>
      </trkpt>
      <trkpt lat="50.84123" lon="1.60048">
        <ele>59.8</ele>
        <time>2015-04-07T15:02:59.000Z</time>
      </trkpt>
      <trkpt lat="50.84123" lon="1.60048">
        <ele>59.8</ele>
        <time>2015-04-07T15:03:00.000Z</time>
      </trkpt>
      <trkpt lat="50.84123" lon="1.60048">
        <ele>59.8</ele>
        <time>2015-04-07T15:03:01.000Z</time>
      </trkpt>
      <trkpt lat="50.84123" lon="1.60048">
        <ele>59.8</ele>
        <time>2015-04-07T15:03:02.000Z</time>
      </trkpt>
      <trkpt lat="50.84123" lon="1.60048">
        <ele>59.8</ele>
        <time>2015-04-07T15:03:03.000Z</time>
      </trkpt>
      <trkpt lat="50.84123" lon="1.60048">
        <ele>59.8</ele>
        <time>2015-04-07T15:03:04.000Z</time>
      </trkpt>
      <trkpt lat="50.84123" lon="1.60048">
        <ele>59.8</ele>
        <time>2015-04-07T15:03:05.000Z</time>
      </trkpt>
      <trkpt lat="50.84123" lon="1.60048">
        <ele>59.8</ele>
        <time>2015-04-07T15:03:06.000Z</time>
      </trkpt>
      <trkpt lat="50.84123" lon="1.60048">
        <ele>59.8</ele>
        <time>2015-04-07T15:03:07.000Z</time>
      </trkpt>
      <trkpt lat="50.84122" lon="1.60047">
        <ele>59.8</ele>
        <time>2015-04-07T15:03:08.000Z</time>
      </trkpt>
      <trkpt lat="50.84123" lon="1.60047">
        <ele>59.8</ele>
        <time>2015-04-07T15:03:09.000Z</time>
      </trkpt>
      <trkpt lat="50.84123" lon="1.60046">
        <ele>59.8</ele>
        <time>2015-04-07T15:03:10.000Z</time>
      </trkpt>
      <trkpt lat="50.84122" lon="1.60044">
        <ele>59.7</ele>
        <time>2015-04-07T15:03:11.000Z</time>
      </trkpt>
      <trkpt lat="50.84122" lon="1.60044">
        <ele>59.8</ele>
        <time>2015-04-07T15:03:12.000Z</time>
      </trkpt>
      <trkpt lat="50.84122" lon="1.60044">
        <ele>59.8</ele>
        <time>2015-04-07T15:03:13.000Z</time>
      </trkpt>
      <trkpt lat="50.84122" lon="1.60045">
        <ele>59.8</ele>
        <time>2015-04-07T15:03:14.000Z</time>
      </trkpt>
      <trkpt lat="50.84121" lon="1.60045">
        <ele>59.8</ele>
        <time>2015-04-07T15:03:15.000Z</time>
      </trkpt>
      <trkpt lat="50.84121" lon="1.60045">
        <ele>59.8</ele>
        <time>2015-04-07T15:03:16.000Z</time>
      </trkpt>
      <trkpt lat="50.84121" lon="1.60045">
        <ele>59.8</ele>
        <time>2015-04-07T15:03:17.000Z</time>
      </trkpt>
      <trkpt lat="50.84121" lon="1.60045">
        <ele>59.8</ele>
        <time>2015-04-07T15:03:18.000Z</time>
      </trkpt>
      <trkpt lat="50.84121" lon="1.60045">
        <ele>59.8</ele>
        <time>2015-04-07T15:03:19.000Z</time>
      </trkpt>
      <trkpt lat="50.84121" lon="1.60045">
        <ele>59.8</ele>
        <time>2015-04-07T15:03:20.000Z</time>
      </trkpt>
      <trkpt lat="50.84121" lon="1.60045">
        <ele>59.8</ele>
        <time>2015-04-07T15:03:21.000Z</time>
      </trkpt>
      <trkpt lat="50.84121" lon="1.60045">
        <ele>59.8</ele>
        <time>2015-04-07T15:03:22.000Z</time>
      </trkpt>
      <trkpt lat="50.84121" lon="1.60045">
        <ele>59.8</ele>
        <time>2015-04-07T15:03:23.000Z</time>
      </trkpt>
      <trkpt lat="50.84122" lon="1.60044">
        <ele>59.7</ele>
        <time>2015-04-07T15:03:24.000Z</time>
      </trkpt>
      <trkpt lat="50.84122" lon="1.60044">
        <ele>59.7</ele>
        <time>2015-04-07T15:03:25.000Z</time>
      </trkpt>
      <trkpt lat="50.84122" lon="1.60043">
        <ele>59.7</ele>
        <time>2015-04-07T15:03:26.000Z</time>
      </trkpt>
      <trkpt lat="50.84122" lon="1.60043">
        <ele>59.7</ele>
        <time>2015-04-07T15:03:27.000Z</time>
      </trkpt>
      <trkpt lat="50.84122" lon="1.60042">
        <ele>59.7</ele>
        <time>2015-04-07T15:03:28.000Z</time>
      </trkpt>
      <trkpt lat="50.84122" lon="1.6004">
        <ele>59.7</ele>
        <time>2015-04-07T15:03:29.000Z</time>
      </trkpt>
      <trkpt lat="50.84122" lon="1.60039">
        <ele>59.7</ele>
        <time>2015-04-07T15:03:30.000Z</time>
      </trkpt>
      <trkpt lat="50.84122" lon="1.60038">
        <ele>59.6</ele>
        <time>2015-04-07T15:03:31.000Z</time>
      </trkpt>
      <trkpt lat="50.84123" lon="1.60037">
        <ele>59.6</ele>
        <time>2015-04-07T15:03:32.000Z</time>
      </trkpt>
      <trkpt lat="50.84123" lon="1.60036">
        <ele>59.6</ele>
        <time>2015-04-07T15:03:33.000Z</time>
      </trkpt>
      <trkpt lat="50.84123" lon="1.60034">
        <ele>59.6</ele>
        <time>2015-04-07T15:03:34.000Z</time>
      </trkpt>
      <trkpt lat="50.84123" lon="1.60033">
        <ele>59.5</ele>
        <time>2015-04-07T15:03:35.000Z</time>
      </trkpt>
      <trkpt lat="50.84123" lon="1.60032">
        <ele>59.5</ele>
        <time>2015-04-07T15:03:36.000Z</time>
      </trkpt>
      <trkpt lat="50.84122" lon="1.6003">
        <ele>59.5</ele>
        <time>2015-04-07T15:03:37.000Z</time>
      </trkpt>
      <trkpt lat="50.84122" lon="1.60029">
        <ele>59.4</ele>
        <time>2015-04-07T15:03:38.000Z</time>
      </trkpt>
      <trkpt lat="50.84122" lon="1.60028">
        <ele>59.4</ele>
        <time>2015-04-07T15:03:39.000Z</time>
      </trkpt>
      <trkpt lat="50.84121" lon="1.60026">
        <ele>59.4</ele>
        <time>2015-04-07T15:03:40.000Z</time>
      </trkpt>
      <trkpt lat="50.84122" lon="1.60025">
        <ele>59.5</ele>
        <time>2015-04-07T15:03:41.000Z</time>
      </trkpt>
      <trkpt lat="50.84122" lon="1.60024">
        <ele>59.5</ele>
        <time>2015-04-07T15:03:42.000Z</time>
      </trkpt>
      <trkpt lat="50.84122" lon="1.60023">
        <ele>59.5</ele>
        <time>2015-04-07T15:03:43.000Z</time>
      </trkpt>
      <trkpt lat="50.84122" lon="1.60023">
        <ele>59.6</ele>
        <time>2015-04-07T15:03:44.000Z</time>
      </trkpt>
      <trkpt lat="50.84123" lon="1.60019">
        <ele>59.7</ele>
        <time>2015-04-07T15:03:45.000Z</time>
      </trkpt>
      <trkpt lat="50.84123" lon="1.60018">
        <ele>59.7</ele>
        <time>2015-04-07T15:03:46.000Z</time>
      </trkpt>
      <trkpt lat="50.84123" lon="1.60018">
        <ele>59.7</ele>
        <time>2015-04-07T15:03:47.000Z</time>
      </trkpt>
      <trkpt lat="50.84124" lon="1.60017">
        <ele>59.7</ele>
        <time>2015-04-07T15:03:48.000Z</time>
      </trkpt>
      <trkpt lat="50.84124" lon="1.60016">
        <ele>59.7</ele>
        <time>2015-04-07T15:03:49.000Z</time>
      </trkpt>
      <trkpt lat="50.84124" lon="1.60015">
        <ele>59.7</ele>
        <time>2015-04-07T15:03:50.000Z</time>
      </trkpt>
      <trkpt lat="50.84124" lon="1.60014">
        <ele>59.8</ele>
        <time>2015-04-07T15:03:51.000Z</time>
      </trkpt>
      <trkpt lat="50.84125" lon="1.60012">
        <ele>59.8</ele>
        <time>2015-04-07T15:03:52.000Z</time>
      </trkpt>
      <trkpt lat="50.84125" lon="1.60011">
        <ele>59.8</ele>
        <time>2015-04-07T15:03:53.000Z</time>
      </trkpt>
      <trkpt lat="50.84125" lon="1.6001">
        <ele>59.8</ele>
        <time>2015-04-07T15:03:54.000Z</time>
      </trkpt>
      <trkpt lat="50.84125" lon="1.60008">
        <ele>59.8</ele>
        <time>2015-04-07T15:03:55.000Z</time>
      </trkpt>
      <trkpt lat="50.84126" lon="1.60007">
        <ele>59.9</ele>
        <time>2015-04-07T15:03:56.000Z</time>
      </trkpt>
      <trkpt lat="50.84126" lon="1.60005">
        <ele>59.9</ele>
        <time>2015-04-07T15:03:57.000Z</time>
      </trkpt>
      <trkpt lat="50.84125" lon="1.60004">
        <ele>59.9</ele>
        <time>2015-04-07T15:03:58.000Z</time>
      </trkpt>
      <trkpt lat="50.84125" lon="1.60002">
        <ele>59.9</ele>
        <time>2015-04-07T15:03:59.000Z</time>
      </trkpt>
      <trkpt lat="50.84126" lon="1.60001">
        <ele>60</ele>
        <time>2015-04-07T15:04:00.000Z</time>
      </trkpt>
      <trkpt lat="50.84126" lon="1.59999">
        <ele>59.9</ele>
        <time>2015-04-07T15:04:01.000Z</time>
      </trkpt>
      <trkpt lat="50.84126" lon="1.59997">
        <ele>59.9</ele>
        <time>2015-04-07T15:04:02.000Z</time>
      </trkpt>
      <trkpt lat="50.84125" lon="1.59995">
        <ele>59.9</ele>
        <time>2015-04-07T15:04:03.000Z</time>
      </trkpt>
      <trkpt lat="50.84125" lon="1.59993">
        <ele>59.9</ele>
        <time>2015-04-07T15:04:04.000Z</time>
      </trkpt>
      <trkpt lat="50.84125" lon="1.59991">
        <ele>59.8</ele>
        <time>2015-04-07T15:04:05.000Z</time>
      </trkpt>
      <trkpt lat="50.84125" lon="1.59989">
        <ele>59.8</ele>
        <time>2015-04-07T15:04:06.000Z</time>
      </trkpt>
      <trkpt lat="50.84125" lon="1.59987">
        <ele>59.7</ele>
        <time>2015-04-07T15:04:07.000Z</time>
      </trkpt>
      <trkpt lat="50.84126" lon="1.59985">
        <ele>59.7</ele>
        <time>2015-04-07T15:04:08.000Z</time>
      </trkpt>
      <trkpt lat="50.84126" lon="1.59983">
        <ele>59.6</ele>
        <time>2015-04-07T15:04:09.000Z</time>
      </trkpt>
      <trkpt lat="50.84126" lon="1.59981">
        <ele>59.6</ele>
        <time>2015-04-07T15:04:10.000Z</time>
      </trkpt>
      <trkpt lat="50.84126" lon="1.59979">
        <ele>59.6</ele>
        <time>2015-04-07T15:04:11.000Z</time>
      </trkpt>
      <trkpt lat="50.84127" lon="1.59977">
        <ele>59.5</ele>
        <time>2015-04-07T15:04:12.000Z</time>
      </trkpt>
      <trkpt lat="50.84127" lon="1.59976">
        <ele>59.5</ele>
        <time>2015-04-07T15:04:13.000Z</time>
      </trkpt>
      <trkpt lat="50.84127" lon="1.59974">
        <ele>59.5</ele>
        <time>2015-04-07T15:04:14.000Z</time>
      </trkpt>
      <trkpt lat="50.84127" lon="1.59973">
        <ele>59.4</ele>
        <time>2015-04-07T15:04:15.000Z</time>
      </trkpt>
      <trkpt lat="50.84128" lon="1.59971">
        <ele>59.4</ele>
        <time>2015-04-07T15:04:16.000Z</time>
      </trkpt>
      <trkpt lat="50.84128" lon="1.59969">
        <ele>59.4</ele>
        <time>2015-04-07T15:04:17.000Z</time>
      </trkpt>
      <trkpt lat="50.84128" lon="1.59968">
        <ele>59.4</ele>
        <time>2015-04-07T15:04:18.000Z</time>
      </trkpt>
      <trkpt lat="50.84129" lon="1.59966">
        <ele>59.4</ele>
        <time>2015-04-07T15:04:19.000Z</time>
      </trkpt>
      <trkpt lat="50.84129" lon="1.59964">
        <ele>59.4</ele>
        <time>2015-04-07T15:04:20.000Z</time>
      </trkpt>
      <trkpt lat="50.84129" lon="1.59963">
        <ele>59.4</ele>
        <time>2015-04-07T15:04:21.000Z</time>
      </trkpt>
      <trkpt lat="50.84129" lon="1.59961">
        <ele>59.4</ele>
        <time>2015-04-07T15:04:22.000Z</time>
      </trkpt>
      <trkpt lat="50.84129" lon="1.59959">
        <ele>59.4</ele>
        <time>2015-04-07T15:04:23.000Z</time>
      </trkpt>
      <trkpt lat="50.8413" lon="1.59952">
        <ele>59.3</ele>
        <time>2015-04-07T15:04:24.000Z</time>
      </trkpt>
      <trkpt lat="50.8413" lon="1.59952">
        <ele>59.3</ele>
        <time>2015-04-07T15:04:25.000Z</time>
      </trkpt>
      <trkpt lat="50.8413" lon="1.59951">
        <ele>59.3</ele>
        <time>2015-04-07T15:04:26.000Z</time>
      </trkpt>
      <trkpt lat="50.8413" lon="1.5995">
        <ele>59.3</ele>
        <time>2015-04-07T15:04:27.000Z</time>
      </trkpt>
      <trkpt lat="50.8413" lon="1.59949">
        <ele>59.3</ele>
        <time>2015-04-07T15:04:28.000Z</time>
      </trkpt>
      <trkpt lat="50.84129" lon="1.59947">
        <ele>59.3</ele>
        <time>2015-04-07T15:04:29.000Z</time>
      </trkpt>
      <trkpt lat="50.84129" lon="1.59945">
        <ele>59.4</ele>
        <time>2015-04-07T15:04:30.000Z</time>
      </trkpt>
      <trkpt lat="50.84129" lon="1.59944">
        <ele>59.3</ele>
        <time>2015-04-07T15:04:31.000Z</time>
      </trkpt>
      <trkpt lat="50.84129" lon="1.59942">
        <ele>59.3</ele>
        <time>2015-04-07T15:04:32.000Z</time>
      </trkpt>
      <trkpt lat="50.84129" lon="1.59941">
        <ele>59.3</ele>
        <time>2015-04-07T15:04:33.000Z</time>
      </trkpt>
      <trkpt lat="50.84129" lon="1.59939">
        <ele>59.3</ele>
        <time>2015-04-07T15:04:34.000Z</time>
      </trkpt>
      <trkpt lat="50.84129" lon="1.59937">
        <ele>59.3</ele>
        <time>2015-04-07T15:04:35.000Z</time>
      </trkpt>
      <trkpt lat="50.84129" lon="1.59936">
        <ele>59.2</ele>
        <time>2015-04-07T15:04:36.000Z</time>
      </trkpt>
      <trkpt lat="50.84129" lon="1.59934">
        <ele>59.2</ele>
        <time>2015-04-07T15:04:37.000Z</time>
      </trkpt>
      <trkpt lat="50.84129" lon="1.59932">
        <ele>59.2</ele>
        <time>2015-04-07T15:04:38.000Z</time>
      </trkpt>
      <trkpt lat="50.84129" lon="1.59931">
        <ele>59.2</ele>
        <time>2015-04-07T15:04:39.000Z</time>
      </trkpt>
      <trkpt lat="50.8413" lon="1.5993">
        <ele>59.2</ele>
        <time>2015-04-07T15:04:40.000Z</time>
      </trkpt>
      <trkpt lat="50.8413" lon="1.59928">
        <ele>59.1</ele>
        <time>2015-04-07T15:04:41.000Z</time>
      </trkpt>
      <trkpt lat="50.84131" lon="1.59927">
        <ele>59.1</ele>
        <time>2015-04-07T15:04:42.000Z</time>
      </trkpt>
      <trkpt lat="50.84131" lon="1.59925">
        <ele>59.1</ele>
        <time>2015-04-07T15:04:43.000Z</time>
      </trkpt>
      <trkpt lat="50.84132" lon="1.59924">
        <ele>59.1</ele>
        <time>2015-04-07T15:04:44.000Z</time>
      </trkpt>
      <trkpt lat="50.84133" lon="1.59923">
        <ele>59</ele>
        <time>2015-04-07T15:04:45.000Z</time>
      </trkpt>
      <trkpt lat="50.84134" lon="1.59921">
        <ele>59</ele>
        <time>2015-04-07T15:04:46.000Z</time>
      </trkpt>
      <trkpt lat="50.84135" lon="1.5992">
        <ele>59</ele>
        <time>2015-04-07T15:04:47.000Z</time>
      </trkpt>
      <trkpt lat="50.84136" lon="1.59918">
        <ele>59</ele>
        <time>2015-04-07T15:04:48.000Z</time>
      </trkpt>
      <trkpt lat="50.84137" lon="1.59917">
        <ele>59</ele>
        <time>2015-04-07T15:04:49.000Z</time>
      </trkpt>
      <trkpt lat="50.84138" lon="1.59916">
        <ele>59</ele>
        <time>2015-04-07T15:04:50.000Z</time>
      </trkpt>
      <trkpt lat="50.84139" lon="1.59914">
        <ele>59</ele>
        <time>2015-04-07T15:04:51.000Z</time>
      </trkpt>
      <trkpt lat="50.8414" lon="1.59912">
        <ele>59</ele>
        <time>2015-04-07T15:04:52.000Z</time>
      </trkpt>
      <trkpt lat="50.84141" lon="1.59911">
        <ele>59</ele>
        <time>2015-04-07T15:04:53.000Z</time>
      </trkpt>
      <trkpt lat="50.84141" lon="1.5991">
        <ele>59</ele>
        <time>2015-04-07T15:04:54.000Z</time>
      </trkpt>
      <trkpt lat="50.84142" lon="1.59908">
        <ele>59</ele>
        <time>2015-04-07T15:04:55.000Z</time>
      </trkpt>
      <trkpt lat="50.84143" lon="1.59907">
        <ele>59</ele>
        <time>2015-04-07T15:04:56.000Z</time>
      </trkpt>
      <trkpt lat="50.84144" lon="1.59906">
        <ele>59</ele>
        <time>2015-04-07T15:04:57.000Z</time>
      </trkpt>
      <trkpt lat="50.84144" lon="1.59904">
        <ele>59</ele>
        <time>2015-04-07T15:04:58.000Z</time>
      </trkpt>
      <trkpt lat="50.84145" lon="1.59903">
        <ele>59</ele>
        <time>2015-04-07T15:04:59.000Z</time>
      </trkpt>
      <trkpt lat="50.84146" lon="1.59902">
        <ele>59</ele>
        <time>2015-04-07T15:05:00.000Z</time>
      </trkpt>
      <trkpt lat="50.84146" lon="1.59901">
        <ele>59</ele>
        <time>2015-04-07T15:05:01.000Z</time>
      </trkpt>
      <trkpt lat="50.84147" lon="1.59899">
        <ele>59</ele>
        <time>2015-04-07T15:05:02.000Z</time>
      </trkpt>
      <trkpt lat="50.84148" lon="1.59898">
        <ele>59</ele>
        <time>2015-04-07T15:05:03.000Z</time>
      </trkpt>
      <trkpt lat="50.84149" lon="1.59897">
        <ele>59</ele>
        <time>2015-04-07T15:05:04.000Z</time>
      </trkpt>
      <trkpt lat="50.8415" lon="1.59896">
        <ele>59</ele>
        <time>2015-04-07T15:05:05.000Z</time>
      </trkpt>
      <trkpt lat="50.8415" lon="1.59894">
        <ele>59</ele>
        <time>2015-04-07T15:05:06.000Z</time>
      </trkpt>
      <trkpt lat="50.84151" lon="1.59893">
        <ele>59</ele>
        <time>2015-04-07T15:05:07.000Z</time>
      </trkpt>
      <trkpt lat="50.84152" lon="1.59892">
        <ele>59</ele>
        <time>2015-04-07T15:05:08.000Z</time>
      </trkpt>
      <trkpt lat="50.84153" lon="1.59891">
        <ele>59</ele>
        <time>2015-04-07T15:05:09.000Z</time>
      </trkpt>
      <trkpt lat="50.84154" lon="1.59891">
        <ele>59</ele>
        <time>2015-04-07T15:05:10.000Z</time>
      </trkpt>
      <trkpt lat="50.84155" lon="1.5989">
        <ele>59</ele>
        <time>2015-04-07T15:05:11.000Z</time>
      </trkpt>
      <trkpt lat="50.84156" lon="1.5989">
        <ele>59</ele>
        <time>2015-04-07T15:05:12.000Z</time>
      </trkpt>
      <trkpt lat="50.84158" lon="1.5989">
        <ele>59</ele>
        <time>2015-04-07T15:05:13.000Z</time>
      </trkpt>
      <trkpt lat="50.84159" lon="1.59889">
        <ele>59</ele>
        <time>2015-04-07T15:05:14.000Z</time>
      </trkpt>
      <trkpt lat="50.8416" lon="1.59889">
        <ele>59</ele>
        <time>2015-04-07T15:05:15.000Z</time>
      </trkpt>
      <trkpt lat="50.84162" lon="1.59889">
        <ele>59</ele>
        <time>2015-04-07T15:05:16.000Z</time>
      </trkpt>
      <trkpt lat="50.84163" lon="1.59889">
        <ele>59</ele>
        <time>2015-04-07T15:05:17.000Z</time>
      </trkpt>
      <trkpt lat="50.84164" lon="1.59889">
        <ele>59</ele>
        <time>2015-04-07T15:05:18.000Z</time>
      </trkpt>
      <trkpt lat="50.84165" lon="1.59889">
        <ele>59</ele>
        <time>2015-04-07T15:05:19.000Z</time>
      </trkpt>
      <trkpt lat="50.84166" lon="1.59889">
        <ele>59</ele>
        <time>2015-04-07T15:05:20.000Z</time>
      </trkpt>
      <trkpt lat="50.84167" lon="1.59888">
        <ele>59</ele>
        <time>2015-04-07T15:05:21.000Z</time>
      </trkpt>
      <trkpt lat="50.84171" lon="1.59888">
        <ele>58.8</ele>
        <time>2015-04-07T15:05:22.000Z</time>
      </trkpt>
      <trkpt lat="50.84171" lon="1.59888">
        <ele>58.8</ele>
        <time>2015-04-07T15:05:23.000Z</time>
      </trkpt>
      <trkpt lat="50.84171" lon="1.59887">
        <ele>58.8</ele>
        <time>2015-04-07T15:05:24.000Z</time>
      </trkpt>
      <trkpt lat="50.84172" lon="1.59887">
        <ele>58.7</ele>
        <time>2015-04-07T15:05:25.000Z</time>
      </trkpt>
      <trkpt lat="50.84173" lon="1.59887">
        <ele>58.7</ele>
        <time>2015-04-07T15:05:26.000Z</time>
      </trkpt>
      <trkpt lat="50.84174" lon="1.59887">
        <ele>58.7</ele>
        <time>2015-04-07T15:05:27.000Z</time>
      </trkpt>
      <trkpt lat="50.84175" lon="1.59887">
        <ele>58.7</ele>
        <time>2015-04-07T15:05:28.000Z</time>
      </trkpt>
      <trkpt lat="50.84176" lon="1.59887">
        <ele>58.6</ele>
        <time>2015-04-07T15:05:29.000Z</time>
      </trkpt>
      <trkpt lat="50.84176" lon="1.59887">
        <ele>58.6</ele>
        <time>2015-04-07T15:05:30.000Z</time>
      </trkpt>
      <trkpt lat="50.84177" lon="1.59887">
        <ele>58.5</ele>
        <time>2015-04-07T15:05:31.000Z</time>
      </trkpt>
      <trkpt lat="50.84178" lon="1.59886">
        <ele>58.5</ele>
        <time>2015-04-07T15:05:32.000Z</time>
      </trkpt>
      <trkpt lat="50.84183" lon="1.59886">
        <ele>58.3</ele>
        <time>2015-04-07T15:05:33.000Z</time>
      </trkpt>
      <trkpt lat="50.84183" lon="1.59886">
        <ele>58.3</ele>
        <time>2015-04-07T15:05:34.000Z</time>
      </trkpt>
      <trkpt lat="50.84183" lon="1.59885">
        <ele>58.3</ele>
        <time>2015-04-07T15:05:35.000Z</time>
      </trkpt>
      <trkpt lat="50.84184" lon="1.59885">
        <ele>58.3</ele>
        <time>2015-04-07T15:05:36.000Z</time>
      </trkpt>
      <trkpt lat="50.84184" lon="1.59885">
        <ele>58.2</ele>
        <time>2015-04-07T15:05:37.000Z</time>
      </trkpt>
      <trkpt lat="50.84185" lon="1.59884">
        <ele>58.2</ele>
        <time>2015-04-07T15:05:38.000Z</time>
      </trkpt>
      <trkpt lat="50.84186" lon="1.59884">
        <ele>58.1</ele>
        <time>2015-04-07T15:05:39.000Z</time>
      </trkpt>
      <trkpt lat="50.84187" lon="1.59883">
        <ele>58.1</ele>
        <time>2015-04-07T15:05:40.000Z</time>
      </trkpt>
      <trkpt lat="50.84188" lon="1.59883">
        <ele>58</ele>
        <time>2015-04-07T15:05:41.000Z</time>
      </trkpt>
      <trkpt lat="50.84189" lon="1.59882">
        <ele>58</ele>
        <time>2015-04-07T15:05:42.000Z</time>
      </trkpt>
      <trkpt lat="50.84189" lon="1.59882">
        <ele>57.9</ele>
        <time>2015-04-07T15:05:43.000Z</time>
      </trkpt>
      <trkpt lat="50.8419" lon="1.59881">
        <ele>57.9</ele>
        <time>2015-04-07T15:05:44.000Z</time>
      </trkpt>
      <trkpt lat="50.84191" lon="1.59881">
        <ele>57.8</ele>
        <time>2015-04-07T15:05:45.000Z</time>
      </trkpt>
      <trkpt lat="50.84192" lon="1.5988">
        <ele>57.8</ele>
        <time>2015-04-07T15:05:46.000Z</time>
      </trkpt>
      <trkpt lat="50.84193" lon="1.59879">
        <ele>57.7</ele>
        <time>2015-04-07T15:05:47.000Z</time>
      </trkpt>
      <trkpt lat="50.84193" lon="1.59878">
        <ele>57.7</ele>
        <time>2015-04-07T15:05:48.000Z</time>
      </trkpt>
      <trkpt lat="50.84194" lon="1.59878">
        <ele>57.6</ele>
        <time>2015-04-07T15:05:49.000Z</time>
      </trkpt>
      <trkpt lat="50.84195" lon="1.59877">
        <ele>57.6</ele>
        <time>2015-04-07T15:05:50.000Z</time>
      </trkpt>
      <trkpt lat="50.84196" lon="1.59877">
        <ele>57.6</ele>
        <time>2015-04-07T15:05:51.000Z</time>
      </trkpt>
      <trkpt lat="50.84197" lon="1.59876">
        <ele>57.6</ele>
        <time>2015-04-07T15:05:52.000Z</time>
      </trkpt>
      <trkpt lat="50.84198" lon="1.59875">
        <ele>57.6</ele>
        <time>2015-04-07T15:05:53.000Z</time>
      </trkpt>
      <trkpt lat="50.84199" lon="1.59875">
        <ele>57.6</ele>
        <time>2015-04-07T15:05:54.000Z</time>
      </trkpt>
      <trkpt lat="50.84199" lon="1.59875">
        <ele>57.6</ele>
        <time>2015-04-07T15:05:55.000Z</time>
      </trkpt>
      <trkpt lat="50.84201" lon="1.59874">
        <ele>57.6</ele>
        <time>2015-04-07T15:05:56.000Z</time>
      </trkpt>
      <trkpt lat="50.84202" lon="1.59874">
        <ele>57.6</ele>
        <time>2015-04-07T15:05:57.000Z</time>
      </trkpt>
      <trkpt lat="50.84203" lon="1.59874">
        <ele>57.6</ele>
        <time>2015-04-07T15:05:58.000Z</time>
      </trkpt>
      <trkpt lat="50.84204" lon="1.59874">
        <ele>57.6</ele>
        <time>2015-04-07T15:05:59.000Z</time>
      </trkpt>
      <trkpt lat="50.84205" lon="1.59874">
        <ele>57.7</ele>
        <time>2015-04-07T15:06:00.000Z</time>
      </trkpt>
      <trkpt lat="50.84207" lon="1.59874">
        <ele>57.7</ele>
        <time>2015-04-07T15:06:01.000Z</time>
      </trkpt>
      <trkpt lat="50.84208" lon="1.59874">
        <ele>57.7</ele>
        <time>2015-04-07T15:06:02.000Z</time>
      </trkpt>
      <trkpt lat="50.84209" lon="1.59874">
        <ele>57.8</ele>
        <time>2015-04-07T15:06:03.000Z</time>
      </trkpt>
      <trkpt lat="50.84211" lon="1.59874">
        <ele>57.8</ele>
        <time>2015-04-07T15:06:04.000Z</time>
      </trkpt>
      <trkpt lat="50.84212" lon="1.59874">
        <ele>57.8</ele>
        <time>2015-04-07T15:06:05.000Z</time>
      </trkpt>
      <trkpt lat="50.84213" lon="1.59874">
        <ele>57.8</ele>
        <time>2015-04-07T15:06:06.000Z</time>
      </trkpt>
      <trkpt lat="50.84214" lon="1.59875">
        <ele>57.8</ele>
        <time>2015-04-07T15:06:07.000Z</time>
      </trkpt>
      <trkpt lat="50.84215" lon="1.59875">
        <ele>57.9</ele>
        <time>2015-04-07T15:06:08.000Z</time>
      </trkpt>
      <trkpt lat="50.84217" lon="1.59875">
        <ele>57.9</ele>
        <time>2015-04-07T15:06:09.000Z</time>
      </trkpt>
      <trkpt lat="50.84218" lon="1.59876">
        <ele>57.9</ele>
        <time>2015-04-07T15:06:10.000Z</time>
      </trkpt>
      <trkpt lat="50.84219" lon="1.59876">
        <ele>57.9</ele>
        <time>2015-04-07T15:06:11.000Z</time>
      </trkpt>
      <trkpt lat="50.84219" lon="1.59877">
        <ele>58</ele>
        <time>2015-04-07T15:06:12.000Z</time>
      </trkpt>
      <trkpt lat="50.8422" lon="1.59877">
        <ele>58</ele>
        <time>2015-04-07T15:06:13.000Z</time>
      </trkpt>
      <trkpt lat="50.84221" lon="1.59878">
        <ele>58</ele>
        <time>2015-04-07T15:06:14.000Z</time>
      </trkpt>
      <trkpt lat="50.84221" lon="1.59879">
        <ele>58</ele>
        <time>2015-04-07T15:06:15.000Z</time>
      </trkpt>
      <trkpt lat="50.84222" lon="1.59879">
        <ele>58</ele>
        <time>2015-04-07T15:06:16.000Z</time>
      </trkpt>
      <trkpt lat="50.84223" lon="1.5988">
        <ele>58</ele>
        <time>2015-04-07T15:06:17.000Z</time>
      </trkpt>
      <trkpt lat="50.84224" lon="1.59881">
        <ele>58</ele>
        <time>2015-04-07T15:06:18.000Z</time>
      </trkpt>
      <trkpt lat="50.84225" lon="1.59881">
        <ele>58</ele>
        <time>2015-04-07T15:06:19.000Z</time>
      </trkpt>
      <trkpt lat="50.84226" lon="1.59882">
        <ele>58</ele>
        <time>2015-04-07T15:06:20.000Z</time>
      </trkpt>
      <trkpt lat="50.84228" lon="1.59883">
        <ele>58</ele>
        <time>2015-04-07T15:06:21.000Z</time>
      </trkpt>
      <trkpt lat="50.84229" lon="1.59884">
        <ele>58</ele>
        <time>2015-04-07T15:06:22.000Z</time>
      </trkpt>
      <trkpt lat="50.8423" lon="1.59885">
        <ele>58</ele>
        <time>2015-04-07T15:06:23.000Z</time>
      </trkpt>
      <trkpt lat="50.84231" lon="1.59886">
        <ele>58</ele>
        <time>2015-04-07T15:06:24.000Z</time>
      </trkpt>
      <trkpt lat="50.84232" lon="1.59887">
        <ele>58</ele>
        <time>2015-04-07T15:06:25.000Z</time>
      </trkpt>
      <trkpt lat="50.84233" lon="1.59887">
        <ele>58</ele>
        <time>2015-04-07T15:06:26.000Z</time>
      </trkpt>
      <trkpt lat="50.84234" lon="1.59888">
        <ele>58</ele>
        <time>2015-04-07T15:06:27.000Z</time>
      </trkpt>
      <trkpt lat="50.84235" lon="1.59889">
        <ele>58</ele>
        <time>2015-04-07T15:06:28.000Z</time>
      </trkpt>
      <trkpt lat="50.84236" lon="1.5989">
        <ele>58</ele>
        <time>2015-04-07T15:06:29.000Z</time>
      </trkpt>
      <trkpt lat="50.84237" lon="1.59891">
        <ele>58</ele>
        <time>2015-04-07T15:06:30.000Z</time>
      </trkpt>
      <trkpt lat="50.84238" lon="1.59892">
        <ele>58</ele>
        <time>2015-04-07T15:06:31.000Z</time>
      </trkpt>
      <trkpt lat="50.84239" lon="1.59893">
        <ele>58</ele>
        <time>2015-04-07T15:06:32.000Z</time>
      </trkpt>
      <trkpt lat="50.8424" lon="1.59894">
        <ele>58</ele>
        <time>2015-04-07T15:06:33.000Z</time>
      </trkpt>
      <trkpt lat="50.84243" lon="1.59897">
        <ele>58</ele>
        <time>2015-04-07T15:06:34.000Z</time>
      </trkpt>
      <trkpt lat="50.84244" lon="1.59897">
        <ele>58</ele>
        <time>2015-04-07T15:06:35.000Z</time>
      </trkpt>
      <trkpt lat="50.84245" lon="1.59896">
        <ele>58</ele>
        <time>2015-04-07T15:06:36.000Z</time>
      </trkpt>
      <trkpt lat="50.84245" lon="1.59896">
        <ele>58</ele>
        <time>2015-04-07T15:06:37.000Z</time>
      </trkpt>
      <trkpt lat="50.84245" lon="1.59896">
        <ele>58</ele>
        <time>2015-04-07T15:06:38.000Z</time>
      </trkpt>
      <trkpt lat="50.84246" lon="1.59896">
        <ele>58</ele>
        <time>2015-04-07T15:06:39.000Z</time>
      </trkpt>
      <trkpt lat="50.84247" lon="1.59896">
        <ele>58</ele>
        <time>2015-04-07T15:06:40.000Z</time>
      </trkpt>
      <trkpt lat="50.84247" lon="1.59895">
        <ele>58</ele>
        <time>2015-04-07T15:06:41.000Z</time>
      </trkpt>
      <trkpt lat="50.84248" lon="1.59895">
        <ele>58</ele>
        <time>2015-04-07T15:06:42.000Z</time>
      </trkpt>
      <trkpt lat="50.84249" lon="1.59895">
        <ele>58</ele>
        <time>2015-04-07T15:06:43.000Z</time>
      </trkpt>
      <trkpt lat="50.84249" lon="1.59895">
        <ele>58</ele>
        <time>2015-04-07T15:06:44.000Z</time>
      </trkpt>
      <trkpt lat="50.84251" lon="1.59894">
        <ele>58</ele>
        <time>2015-04-07T15:06:45.000Z</time>
      </trkpt>
      <trkpt lat="50.84251" lon="1.59894">
        <ele>58</ele>
        <time>2015-04-07T15:06:46.000Z</time>
      </trkpt>
      <trkpt lat="50.84251" lon="1.59894">
        <ele>58</ele>
        <time>2015-04-07T15:06:47.000Z</time>
      </trkpt>
      <trkpt lat="50.84251" lon="1.59893">
        <ele>58</ele>
        <time>2015-04-07T15:06:48.000Z</time>
      </trkpt>
      <trkpt lat="50.84252" lon="1.59893">
        <ele>58</ele>
        <time>2015-04-07T15:06:49.000Z</time>
      </trkpt>
      <trkpt lat="50.84253" lon="1.59893">
        <ele>58</ele>
        <time>2015-04-07T15:06:50.000Z</time>
      </trkpt>
      <trkpt lat="50.84253" lon="1.59893">
        <ele>58</ele>
        <time>2015-04-07T15:06:51.000Z</time>
      </trkpt>
      <trkpt lat="50.84254" lon="1.59892">
        <ele>58</ele>
        <time>2015-04-07T15:06:52.000Z</time>
      </trkpt>
      <trkpt lat="50.84256" lon="1.59892">
        <ele>58</ele>
        <time>2015-04-07T15:06:53.000Z</time>
      </trkpt>
      <trkpt lat="50.84257" lon="1.59892">
        <ele>58</ele>
        <time>2015-04-07T15:06:54.000Z</time>
      </trkpt>
      <trkpt lat="50.84258" lon="1.59892">
        <ele>58</ele>
        <time>2015-04-07T15:06:55.000Z</time>
      </trkpt>
      <trkpt lat="50.84262" lon="1.59892">
        <ele>58.1</ele>
        <time>2015-04-07T15:06:56.000Z</time>
      </trkpt>
      <trkpt lat="50.84262" lon="1.59892">
        <ele>58.1</ele>
        <time>2015-04-07T15:06:57.000Z</time>
      </trkpt>
      <trkpt lat="50.84263" lon="1.59892">
        <ele>58.1</ele>
        <time>2015-04-07T15:06:58.000Z</time>
      </trkpt>
      <trkpt lat="50.84263" lon="1.59892">
        <ele>58.1</ele>
        <time>2015-04-07T15:06:59.000Z</time>
      </trkpt>
      <trkpt lat="50.84266" lon="1.59891">
        <ele>58</ele>
        <time>2015-04-07T15:07:00.000Z</time>
      </trkpt>
      <trkpt lat="50.84266" lon="1.59891">
        <ele>58</ele>
        <time>2015-04-07T15:07:01.000Z</time>
      </trkpt>
      <trkpt lat="50.84267" lon="1.59891">
        <ele>58</ele>
        <time>2015-04-07T15:07:02.000Z</time>
      </trkpt>
      <trkpt lat="50.84267" lon="1.59891">
        <ele>58</ele>
        <time>2015-04-07T15:07:03.000Z</time>
      </trkpt>
      <trkpt lat="50.84268" lon="1.5989">
        <ele>58</ele>
        <time>2015-04-07T15:07:04.000Z</time>
      </trkpt>
      <trkpt lat="50.84269" lon="1.5989">
        <ele>58</ele>
        <time>2015-04-07T15:07:05.000Z</time>
      </trkpt>
      <trkpt lat="50.8427" lon="1.59889">
        <ele>58</ele>
        <time>2015-04-07T15:07:06.000Z</time>
      </trkpt>
      <trkpt lat="50.8427" lon="1.59889">
        <ele>58</ele>
        <time>2015-04-07T15:07:07.000Z</time>
      </trkpt>
      <trkpt lat="50.84271" lon="1.59888">
        <ele>58</ele>
        <time>2015-04-07T15:07:08.000Z</time>
      </trkpt>
      <trkpt lat="50.84272" lon="1.59888">
        <ele>58</ele>
        <time>2015-04-07T15:07:09.000Z</time>
      </trkpt>
      <trkpt lat="50.84272" lon="1.59887">
        <ele>57.9</ele>
        <time>2015-04-07T15:07:10.000Z</time>
      </trkpt>
      <trkpt lat="50.84273" lon="1.59886">
        <ele>57.9</ele>
        <time>2015-04-07T15:07:11.000Z</time>
      </trkpt>
      <trkpt lat="50.84274" lon="1.59885">
        <ele>57.9</ele>
        <time>2015-04-07T15:07:12.000Z</time>
      </trkpt>
      <trkpt lat="50.84274" lon="1.59885">
        <ele>57.9</ele>
        <time>2015-04-07T15:07:13.000Z</time>
      </trkpt>
      <trkpt lat="50.84275" lon="1.59884">
        <ele>57.8</ele>
        <time>2015-04-07T15:07:14.000Z</time>
      </trkpt>
      <trkpt lat="50.84276" lon="1.59883">
        <ele>57.8</ele>
        <time>2015-04-07T15:07:15.000Z</time>
      </trkpt>
      <trkpt lat="50.84276" lon="1.59882">
        <ele>57.8</ele>
        <time>2015-04-07T15:07:16.000Z</time>
      </trkpt>
      <trkpt lat="50.84277" lon="1.59881">
        <ele>57.7</ele>
        <time>2015-04-07T15:07:17.000Z</time>
      </trkpt>
      <trkpt lat="50.8428" lon="1.59878">
        <ele>57.6</ele>
        <time>2015-04-07T15:07:18.000Z</time>
      </trkpt>
      <trkpt lat="50.8428" lon="1.59878">
        <ele>57.6</ele>
        <time>2015-04-07T15:07:19.000Z</time>
      </trkpt>
      <trkpt lat="50.84281" lon="1.59878">
        <ele>57.6</ele>
        <time>2015-04-07T15:07:20.000Z</time>
      </trkpt>
      <trkpt lat="50.84281" lon="1.59877">
        <ele>57.6</ele>
        <time>2015-04-07T15:07:21.000Z</time>
      </trkpt>
      <trkpt lat="50.84282" lon="1.59877">
        <ele>57.6</ele>
        <time>2015-04-07T15:07:22.000Z</time>
      </trkpt>
      <trkpt lat="50.84282" lon="1.59877">
        <ele>57.6</ele>
        <time>2015-04-07T15:07:23.000Z</time>
      </trkpt>
      <trkpt lat="50.84283" lon="1.59877">
        <ele>57.6</ele>
        <time>2015-04-07T15:07:24.000Z</time>
      </trkpt>
      <trkpt lat="50.84284" lon="1.59876">
        <ele>57.5</ele>
        <time>2015-04-07T15:07:25.000Z</time>
      </trkpt>
      <trkpt lat="50.84288" lon="1.59875">
        <ele>57.5</ele>
        <time>2015-04-07T15:07:26.000Z</time>
      </trkpt>
      <trkpt lat="50.84288" lon="1.59875">
        <ele>57.5</ele>
        <time>2015-04-07T15:07:27.000Z</time>
      </trkpt>
      <trkpt lat="50.84289" lon="1.59875">
        <ele>57.5</ele>
        <time>2015-04-07T15:07:28.000Z</time>
      </trkpt>
      <trkpt lat="50.8429" lon="1.59875">
        <ele>57.5</ele>
        <time>2015-04-07T15:07:29.000Z</time>
      </trkpt>
      <trkpt lat="50.84291" lon="1.59875">
        <ele>57.5</ele>
        <time>2015-04-07T15:07:30.000Z</time>
      </trkpt>
      <trkpt lat="50.84292" lon="1.59875">
        <ele>57.5</ele>
        <time>2015-04-07T15:07:31.000Z</time>
      </trkpt>
      <trkpt lat="50.84293" lon="1.59875">
        <ele>57.5</ele>
        <time>2015-04-07T15:07:32.000Z</time>
      </trkpt>
      <trkpt lat="50.84294" lon="1.59875">
        <ele>57.5</ele>
        <time>2015-04-07T15:07:33.000Z</time>
      </trkpt>
      <trkpt lat="50.84295" lon="1.59875">
        <ele>57.5</ele>
        <time>2015-04-07T15:07:34.000Z</time>
      </trkpt>
      <trkpt lat="50.84296" lon="1.59875">
        <ele>57.5</ele>
        <time>2015-04-07T15:07:35.000Z</time>
      </trkpt>
      <trkpt lat="50.84297" lon="1.59875">
        <ele>57.5</ele>
        <time>2015-04-07T15:07:36.000Z</time>
      </trkpt>
      <trkpt lat="50.84298" lon="1.59875">
        <ele>57.5</ele>
        <time>2015-04-07T15:07:37.000Z</time>
      </trkpt>
      <trkpt lat="50.84299" lon="1.59876">
        <ele>57.5</ele>
        <time>2015-04-07T15:07:38.000Z</time>
      </trkpt>
      <trkpt lat="50.843" lon="1.59876">
        <ele>57.5</ele>
        <time>2015-04-07T15:07:39.000Z</time>
      </trkpt>
      <trkpt lat="50.84302" lon="1.59877">
        <ele>57.6</ele>
        <time>2015-04-07T15:07:40.000Z</time>
      </trkpt>
      <trkpt lat="50.84303" lon="1.59877">
        <ele>57.6</ele>
        <time>2015-04-07T15:07:41.000Z</time>
      </trkpt>
      <trkpt lat="50.84304" lon="1.59878">
        <ele>57.6</ele>
        <time>2015-04-07T15:07:42.000Z</time>
      </trkpt>
      <trkpt lat="50.84305" lon="1.59878">
        <ele>57.6</ele>
        <time>2015-04-07T15:07:43.000Z</time>
      </trkpt>
      <trkpt lat="50.8431" lon="1.59877">
        <ele>57.8</ele>
        <time>2015-04-07T15:07:44.000Z</time>
      </trkpt>
      <trkpt lat="50.8431" lon="1.59877">
        <ele>57.8</ele>
        <time>2015-04-07T15:07:45.000Z</time>
      </trkpt>
      <trkpt lat="50.84311" lon="1.59877">
        <ele>57.8</ele>
        <time>2015-04-07T15:07:46.000Z</time>
      </trkpt>
      <trkpt lat="50.84312" lon="1.59877">
        <ele>57.8</ele>
        <time>2015-04-07T15:07:47.000Z</time>
      </trkpt>
      <trkpt lat="50.84312" lon="1.59877">
        <ele>57.8</ele>
        <time>2015-04-07T15:07:48.000Z</time>
      </trkpt>
      <trkpt lat="50.84313" lon="1.59877">
        <ele>57.8</ele>
        <time>2015-04-07T15:07:49.000Z</time>
      </trkpt>
      <trkpt lat="50.84315" lon="1.59876">
        <ele>57.9</ele>
        <time>2015-04-07T15:07:50.000Z</time>
      </trkpt>
      <trkpt lat="50.84316" lon="1.59876">
        <ele>57.9</ele>
        <time>2015-04-07T15:07:51.000Z</time>
      </trkpt>
      <trkpt lat="50.84316" lon="1.59876">
        <ele>57.9</ele>
        <time>2015-04-07T15:07:52.000Z</time>
      </trkpt>
      <trkpt lat="50.84316" lon="1.59876">
        <ele>57.9</ele>
        <time>2015-04-07T15:07:53.000Z</time>
      </trkpt>
      <trkpt lat="50.84317" lon="1.59876">
        <ele>57.9</ele>
        <time>2015-04-07T15:07:54.000Z</time>
      </trkpt>
      <trkpt lat="50.84317" lon="1.59876">
        <ele>58</ele>
        <time>2015-04-07T15:07:55.000Z</time>
      </trkpt>
      <trkpt lat="50.84318" lon="1.59876">
        <ele>58</ele>
        <time>2015-04-07T15:07:56.000Z</time>
      </trkpt>
      <trkpt lat="50.84319" lon="1.59876">
        <ele>58</ele>
        <time>2015-04-07T15:07:57.000Z</time>
      </trkpt>
      <trkpt lat="50.8432" lon="1.59877">
        <ele>58.1</ele>
        <time>2015-04-07T15:07:58.000Z</time>
      </trkpt>
      <trkpt lat="50.8432" lon="1.59877">
        <ele>58.1</ele>
        <time>2015-04-07T15:07:59.000Z</time>
      </trkpt>
      <trkpt lat="50.84321" lon="1.59878">
        <ele>58.2</ele>
        <time>2015-04-07T15:08:00.000Z</time>
      </trkpt>
      <trkpt lat="50.84322" lon="1.59878">
        <ele>58.2</ele>
        <time>2015-04-07T15:08:01.000Z</time>
      </trkpt>
      <trkpt lat="50.84323" lon="1.59879">
        <ele>58.3</ele>
        <time>2015-04-07T15:08:02.000Z</time>
      </trkpt>
      <trkpt lat="50.84325" lon="1.5988">
        <ele>58.4</ele>
        <time>2015-04-07T15:08:03.000Z</time>
      </trkpt>
      <trkpt lat="50.84325" lon="1.5988">
        <ele>58.4</ele>
        <time>2015-04-07T15:08:04.000Z</time>
      </trkpt>
      <trkpt lat="50.84325" lon="1.59879">
        <ele>58.4</ele>
        <time>2015-04-07T15:08:05.000Z</time>
      </trkpt>
      <trkpt lat="50.84326" lon="1.59879">
        <ele>58.4</ele>
        <time>2015-04-07T15:08:06.000Z</time>
      </trkpt>
      <trkpt lat="50.84326" lon="1.59878">
        <ele>58.4</ele>
        <time>2015-04-07T15:08:07.000Z</time>
      </trkpt>
      <trkpt lat="50.84326" lon="1.59878">
        <ele>58.3</ele>
        <time>2015-04-07T15:08:08.000Z</time>
      </trkpt>
      <trkpt lat="50.84326" lon="1.59877">
        <ele>58.3</ele>
        <time>2015-04-07T15:08:09.000Z</time>
      </trkpt>
      <trkpt lat="50.84327" lon="1.59876">
        <ele>58.3</ele>
        <time>2015-04-07T15:08:10.000Z</time>
      </trkpt>
      <trkpt lat="50.84327" lon="1.59876">
        <ele>58.3</ele>
        <time>2015-04-07T15:08:11.000Z</time>
      </trkpt>
      <trkpt lat="50.84328" lon="1.59875">
        <ele>58.3</ele>
        <time>2015-04-07T15:08:12.000Z</time>
      </trkpt>
      <trkpt lat="50.84329" lon="1.59873">
        <ele>58.3</ele>
        <time>2015-04-07T15:08:13.000Z</time>
      </trkpt>
      <trkpt lat="50.84329" lon="1.59873">
        <ele>58.3</ele>
        <time>2015-04-07T15:08:14.000Z</time>
      </trkpt>
      <trkpt lat="50.84329" lon="1.59873">
        <ele>58.3</ele>
        <time>2015-04-07T15:08:15.000Z</time>
      </trkpt>
      <trkpt lat="50.84329" lon="1.59872">
        <ele>58.2</ele>
        <time>2015-04-07T15:08:16.000Z</time>
      </trkpt>
      <trkpt lat="50.84329" lon="1.59871">
        <ele>58.2</ele>
        <time>2015-04-07T15:08:17.000Z</time>
      </trkpt>
      <trkpt lat="50.84329" lon="1.5987">
        <ele>58.2</ele>
        <time>2015-04-07T15:08:18.000Z</time>
      </trkpt>
      <trkpt lat="50.84329" lon="1.59869">
        <ele>58.1</ele>
        <time>2015-04-07T15:08:19.000Z</time>
      </trkpt>
      <trkpt lat="50.84328" lon="1.59868">
        <ele>58.1</ele>
        <time>2015-04-07T15:08:20.000Z</time>
      </trkpt>
      <trkpt lat="50.84328" lon="1.59866">
        <ele>58</ele>
        <time>2015-04-07T15:08:21.000Z</time>
      </trkpt>
      <trkpt lat="50.84328" lon="1.59865">
        <ele>57.9</ele>
        <time>2015-04-07T15:08:22.000Z</time>
      </trkpt>
      <trkpt lat="50.84327" lon="1.59864">
        <ele>57.9</ele>
        <time>2015-04-07T15:08:23.000Z</time>
      </trkpt>
      <trkpt lat="50.84327" lon="1.59862">
        <ele>57.8</ele>
        <time>2015-04-07T15:08:24.000Z</time>
      </trkpt>
      <trkpt lat="50.84326" lon="1.59861">
        <ele>57.7</ele>
        <time>2015-04-07T15:08:25.000Z</time>
      </trkpt>
      <trkpt lat="50.84326" lon="1.59859">
        <ele>57.7</ele>
        <time>2015-04-07T15:08:26.000Z</time>
      </trkpt>
      <trkpt lat="50.84325" lon="1.59858">
        <ele>57.7</ele>
        <time>2015-04-07T15:08:27.000Z</time>
      </trkpt>
      <trkpt lat="50.84325" lon="1.59856">
        <ele>57.7</ele>
        <time>2015-04-07T15:08:28.000Z</time>
      </trkpt>
      <trkpt lat="50.84325" lon="1.59855">
        <ele>57.7</ele>
        <time>2015-04-07T15:08:29.000Z</time>
      </trkpt>
      <trkpt lat="50.84324" lon="1.59853">
        <ele>57.7</ele>
        <time>2015-04-07T15:08:30.000Z</time>
      </trkpt>
      <trkpt lat="50.84324" lon="1.59852">
        <ele>57.7</ele>
        <time>2015-04-07T15:08:31.000Z</time>
      </trkpt>
      <trkpt lat="50.84324" lon="1.59851">
        <ele>57.7</ele>
        <time>2015-04-07T15:08:32.000Z</time>
      </trkpt>
      <trkpt lat="50.84323" lon="1.5985">
        <ele>57.6</ele>
        <time>2015-04-07T15:08:33.000Z</time>
      </trkpt>
      <trkpt lat="50.84323" lon="1.59849">
        <ele>57.6</ele>
        <time>2015-04-07T15:08:34.000Z</time>
      </trkpt>
      <trkpt lat="50.84322" lon="1.59847">
        <ele>57.6</ele>
        <time>2015-04-07T15:08:35.000Z</time>
      </trkpt>
      <trkpt lat="50.84322" lon="1.59846">
        <ele>57.6</ele>
        <time>2015-04-07T15:08:36.000Z</time>
      </trkpt>
      <trkpt lat="50.84321" lon="1.59845">
        <ele>57.6</ele>
        <time>2015-04-07T15:08:37.000Z</time>
      </trkpt>
      <trkpt lat="50.84321" lon="1.59844">
        <ele>57.5</ele>
        <time>2015-04-07T15:08:38.000Z</time>
      </trkpt>
      <trkpt lat="50.8432" lon="1.59843">
        <ele>57.5</ele>
        <time>2015-04-07T15:08:39.000Z</time>
      </trkpt>
      <trkpt lat="50.8432" lon="1.59842">
        <ele>57.5</ele>
        <time>2015-04-07T15:08:40.000Z</time>
      </trkpt>
      <trkpt lat="50.84319" lon="1.59841">
        <ele>57.5</ele>
        <time>2015-04-07T15:08:41.000Z</time>
      </trkpt>
      <trkpt lat="50.84319" lon="1.5984">
        <ele>57.5</ele>
        <time>2015-04-07T15:08:42.000Z</time>
      </trkpt>
      <trkpt lat="50.84318" lon="1.59839">
        <ele>57.5</ele>
        <time>2015-04-07T15:08:43.000Z</time>
      </trkpt>
      <trkpt lat="50.84318" lon="1.59837">
        <ele>57.5</ele>
        <time>2015-04-07T15:08:44.000Z</time>
      </trkpt>
      <trkpt lat="50.84318" lon="1.59836">
        <ele>57.4</ele>
        <time>2015-04-07T15:08:45.000Z</time>
      </trkpt>
      <trkpt lat="50.84317" lon="1.59835">
        <ele>57.4</ele>
        <time>2015-04-07T15:08:46.000Z</time>
      </trkpt>
      <trkpt lat="50.84317" lon="1.59834">
        <ele>57.4</ele>
        <time>2015-04-07T15:08:47.000Z</time>
      </trkpt>
      <trkpt lat="50.84316" lon="1.59832">
        <ele>57.4</ele>
        <time>2015-04-07T15:08:48.000Z</time>
      </trkpt>
      <trkpt lat="50.84316" lon="1.59831">
        <ele>57.4</ele>
        <time>2015-04-07T15:08:49.000Z</time>
      </trkpt>
      <trkpt lat="50.84315" lon="1.59829">
        <ele>57.3</ele>
        <time>2015-04-07T15:08:50.000Z</time>
      </trkpt>
      <trkpt lat="50.84314" lon="1.59828">
        <ele>57.3</ele>
        <time>2015-04-07T15:08:51.000Z</time>
      </trkpt>
      <trkpt lat="50.84314" lon="1.59826">
        <ele>57.3</ele>
        <time>2015-04-07T15:08:52.000Z</time>
      </trkpt>
      <trkpt lat="50.84313" lon="1.59825">
        <ele>57.3</ele>
        <time>2015-04-07T15:08:53.000Z</time>
      </trkpt>
      <trkpt lat="50.84313" lon="1.59823">
        <ele>57.3</ele>
        <time>2015-04-07T15:08:54.000Z</time>
      </trkpt>
      <trkpt lat="50.84312" lon="1.59822">
        <ele>57.2</ele>
        <time>2015-04-07T15:08:55.000Z</time>
      </trkpt>
      <trkpt lat="50.84312" lon="1.5982">
        <ele>57.2</ele>
        <time>2015-04-07T15:08:56.000Z</time>
      </trkpt>
      <trkpt lat="50.84312" lon="1.59818">
        <ele>57.2</ele>
        <time>2015-04-07T15:08:57.000Z</time>
      </trkpt>
      <trkpt lat="50.84311" lon="1.59816">
        <ele>57.2</ele>
        <time>2015-04-07T15:08:58.000Z</time>
      </trkpt>
      <trkpt lat="50.84311" lon="1.59815">
        <ele>57.2</ele>
        <time>2015-04-07T15:08:59.000Z</time>
      </trkpt>
      <trkpt lat="50.8431" lon="1.59813">
        <ele>57.2</ele>
        <time>2015-04-07T15:09:00.000Z</time>
      </trkpt>
      <trkpt lat="50.8431" lon="1.59811">
        <ele>57.2</ele>
        <time>2015-04-07T15:09:01.000Z</time>
      </trkpt>
      <trkpt lat="50.8431" lon="1.5981">
        <ele>57.2</ele>
        <time>2015-04-07T15:09:02.000Z</time>
      </trkpt>
      <trkpt lat="50.84309" lon="1.59808">
        <ele>57.1</ele>
        <time>2015-04-07T15:09:03.000Z</time>
      </trkpt>
      <trkpt lat="50.84309" lon="1.59806">
        <ele>57.1</ele>
        <time>2015-04-07T15:09:04.000Z</time>
      </trkpt>
      <trkpt lat="50.84309" lon="1.59805">
        <ele>57.1</ele>
        <time>2015-04-07T15:09:05.000Z</time>
      </trkpt>
      <trkpt lat="50.84308" lon="1.59803">
        <ele>57</ele>
        <time>2015-04-07T15:09:06.000Z</time>
      </trkpt>
      <trkpt lat="50.84308" lon="1.59802">
        <ele>57</ele>
        <time>2015-04-07T15:09:07.000Z</time>
      </trkpt>
      <trkpt lat="50.84308" lon="1.598">
        <ele>56.9</ele>
        <time>2015-04-07T15:09:08.000Z</time>
      </trkpt>
      <trkpt lat="50.84307" lon="1.59799">
        <ele>56.8</ele>
        <time>2015-04-07T15:09:09.000Z</time>
      </trkpt>
      <trkpt lat="50.84307" lon="1.59797">
        <ele>56.8</ele>
        <time>2015-04-07T15:09:10.000Z</time>
      </trkpt>
      <trkpt lat="50.84307" lon="1.59795">
        <ele>56.7</ele>
        <time>2015-04-07T15:09:11.000Z</time>
      </trkpt>
      <trkpt lat="50.84307" lon="1.59794">
        <ele>56.6</ele>
        <time>2015-04-07T15:09:12.000Z</time>
      </trkpt>
      <trkpt lat="50.84306" lon="1.59792">
        <ele>56.5</ele>
        <time>2015-04-07T15:09:13.000Z</time>
      </trkpt>
      <trkpt lat="50.84306" lon="1.5979">
        <ele>56.5</ele>
        <time>2015-04-07T15:09:14.000Z</time>
      </trkpt>
      <trkpt lat="50.84306" lon="1.59788">
        <ele>56.4</ele>
        <time>2015-04-07T15:09:15.000Z</time>
      </trkpt>
      <trkpt lat="50.84306" lon="1.59786">
        <ele>56.3</ele>
        <time>2015-04-07T15:09:16.000Z</time>
      </trkpt>
      <trkpt lat="50.84305" lon="1.59785">
        <ele>56.2</ele>
        <time>2015-04-07T15:09:17.000Z</time>
      </trkpt>
      <trkpt lat="50.84305" lon="1.59783">
        <ele>56.2</ele>
        <time>2015-04-07T15:09:18.000Z</time>
      </trkpt>
      <trkpt lat="50.84304" lon="1.59781">
        <ele>56.1</ele>
        <time>2015-04-07T15:09:19.000Z</time>
      </trkpt>
      <trkpt lat="50.84303" lon="1.59778">
        <ele>56</ele>
        <time>2015-04-07T15:09:20.000Z</time>
      </trkpt>
      <trkpt lat="50.84303" lon="1.59776">
        <ele>56</ele>
        <time>2015-04-07T15:09:21.000Z</time>
      </trkpt>
      <trkpt lat="50.84302" lon="1.59775">
        <ele>55.9</ele>
        <time>2015-04-07T15:09:22.000Z</time>
      </trkpt>
      <trkpt lat="50.84302" lon="1.59773">
        <ele>55.8</ele>
        <time>2015-04-07T15:09:23.000Z</time>
      </trkpt>
      <trkpt lat="50.84301" lon="1.59771">
        <ele>55.8</ele>
        <time>2015-04-07T15:09:24.000Z</time>
      </trkpt>
      <trkpt lat="50.84301" lon="1.59769">
        <ele>55.7</ele>
        <time>2015-04-07T15:09:25.000Z</time>
      </trkpt>
      <trkpt lat="50.843" lon="1.59767">
        <ele>55.7</ele>
        <time>2015-04-07T15:09:26.000Z</time>
      </trkpt>
      <trkpt lat="50.843" lon="1.59765">
        <ele>55.6</ele>
        <time>2015-04-07T15:09:27.000Z</time>
      </trkpt>
      <trkpt lat="50.843" lon="1.59764">
        <ele>55.6</ele>
        <time>2015-04-07T15:09:28.000Z</time>
      </trkpt>
      <trkpt lat="50.84299" lon="1.59762">
        <ele>55.5</ele>
        <time>2015-04-07T15:09:29.000Z</time>
      </trkpt>
      <trkpt lat="50.84299" lon="1.5976">
        <ele>55.5</ele>
        <time>2015-04-07T15:09:30.000Z</time>
      </trkpt>
      <trkpt lat="50.84299" lon="1.59758">
        <ele>55.4</ele>
        <time>2015-04-07T15:09:31.000Z</time>
      </trkpt>
      <trkpt lat="50.843" lon="1.59756">
        <ele>55.4</ele>
        <time>2015-04-07T15:09:32.000Z</time>
      </trkpt>
      <trkpt lat="50.843" lon="1.59755">
        <ele>55.3</ele>
        <time>2015-04-07T15:09:33.000Z</time>
      </trkpt>
      <trkpt lat="50.84301" lon="1.59754">
        <ele>55.3</ele>
        <time>2015-04-07T15:09:34.000Z</time>
      </trkpt>
      <trkpt lat="50.84302" lon="1.59752">
        <ele>55.2</ele>
        <time>2015-04-07T15:09:35.000Z</time>
      </trkpt>
      <trkpt lat="50.84303" lon="1.59752">
        <ele>55.1</ele>
        <time>2015-04-07T15:09:36.000Z</time>
      </trkpt>
      <trkpt lat="50.84304" lon="1.59751">
        <ele>55.1</ele>
        <time>2015-04-07T15:09:37.000Z</time>
      </trkpt>
      <trkpt lat="50.84305" lon="1.5975">
        <ele>55</ele>
        <time>2015-04-07T15:09:38.000Z</time>
      </trkpt>
      <trkpt lat="50.84306" lon="1.59749">
        <ele>55</ele>
        <time>2015-04-07T15:09:39.000Z</time>
      </trkpt>
      <trkpt lat="50.84307" lon="1.59749">
        <ele>55</ele>
        <time>2015-04-07T15:09:40.000Z</time>
      </trkpt>
      <trkpt lat="50.84309" lon="1.59748">
        <ele>55.1</ele>
        <time>2015-04-07T15:09:41.000Z</time>
      </trkpt>
      <trkpt lat="50.8431" lon="1.59748">
        <ele>55.1</ele>
        <time>2015-04-07T15:09:42.000Z</time>
      </trkpt>
      <trkpt lat="50.84311" lon="1.59747">
        <ele>55.1</ele>
        <time>2015-04-07T15:09:43.000Z</time>
      </trkpt>
      <trkpt lat="50.84312" lon="1.59747">
        <ele>55.1</ele>
        <time>2015-04-07T15:09:44.000Z</time>
      </trkpt>
      <trkpt lat="50.84314" lon="1.59747">
        <ele>55.1</ele>
        <time>2015-04-07T15:09:45.000Z</time>
      </trkpt>
      <trkpt lat="50.84315" lon="1.59746">
        <ele>55.1</ele>
        <time>2015-04-07T15:09:46.000Z</time>
      </trkpt>
      <trkpt lat="50.84316" lon="1.59746">
        <ele>55.1</ele>
        <time>2015-04-07T15:09:47.000Z</time>
      </trkpt>
      <trkpt lat="50.84317" lon="1.59746">
        <ele>55.1</ele>
        <time>2015-04-07T15:09:48.000Z</time>
      </trkpt>
      <trkpt lat="50.84318" lon="1.59745">
        <ele>55.1</ele>
        <time>2015-04-07T15:09:49.000Z</time>
      </trkpt>
      <trkpt lat="50.84319" lon="1.59745">
        <ele>55.1</ele>
        <time>2015-04-07T15:09:50.000Z</time>
      </trkpt>
      <trkpt lat="50.8432" lon="1.59745">
        <ele>55.1</ele>
        <time>2015-04-07T15:09:51.000Z</time>
      </trkpt>
      <trkpt lat="50.84321" lon="1.59744">
        <ele>55.1</ele>
        <time>2015-04-07T15:09:52.000Z</time>
      </trkpt>
      <trkpt lat="50.84322" lon="1.59744">
        <ele>55.1</ele>
        <time>2015-04-07T15:09:53.000Z</time>
      </trkpt>
      <trkpt lat="50.84324" lon="1.59744">
        <ele>55.1</ele>
        <time>2015-04-07T15:09:54.000Z</time>
      </trkpt>
      <trkpt lat="50.84325" lon="1.59743">
        <ele>55.1</ele>
        <time>2015-04-07T15:09:55.000Z</time>
      </trkpt>
      <trkpt lat="50.84326" lon="1.59743">
        <ele>55.1</ele>
        <time>2015-04-07T15:09:56.000Z</time>
      </trkpt>
      <trkpt lat="50.84327" lon="1.59742">
        <ele>55.1</ele>
        <time>2015-04-07T15:09:57.000Z</time>
      </trkpt>
      <trkpt lat="50.84329" lon="1.59742">
        <ele>55</ele>
        <time>2015-04-07T15:09:58.000Z</time>
      </trkpt>
      <trkpt lat="50.8433" lon="1.59742">
        <ele>55</ele>
        <time>2015-04-07T15:09:59.000Z</time>
      </trkpt>
      <trkpt lat="50.84331" lon="1.59742">
        <ele>55</ele>
        <time>2015-04-07T15:10:00.000Z</time>
      </trkpt>
      <trkpt lat="50.84332" lon="1.59741">
        <ele>55</ele>
        <time>2015-04-07T15:10:01.000Z</time>
      </trkpt>
      <trkpt lat="50.84334" lon="1.59741">
        <ele>55</ele>
        <time>2015-04-07T15:10:02.000Z</time>
      </trkpt>
      <trkpt lat="50.84335" lon="1.59741">
        <ele>55</ele>
        <time>2015-04-07T15:10:03.000Z</time>
      </trkpt>
      <trkpt lat="50.84336" lon="1.5974">
        <ele>55</ele>
        <time>2015-04-07T15:10:04.000Z</time>
      </trkpt>
      <trkpt lat="50.84337" lon="1.5974">
        <ele>55</ele>
        <time>2015-04-07T15:10:05.000Z</time>
      </trkpt>
      <trkpt lat="50.84338" lon="1.5974">
        <ele>54.9</ele>
        <time>2015-04-07T15:10:06.000Z</time>
      </trkpt>
      <trkpt lat="50.84339" lon="1.59739">
        <ele>54.9</ele>
        <time>2015-04-07T15:10:07.000Z</time>
      </trkpt>
      <trkpt lat="50.84341" lon="1.59739">
        <ele>54.9</ele>
        <time>2015-04-07T15:10:08.000Z</time>
      </trkpt>
      <trkpt lat="50.84342" lon="1.59738">
        <ele>54.9</ele>
        <time>2015-04-07T15:10:09.000Z</time>
      </trkpt>
      <trkpt lat="50.84343" lon="1.59738">
        <ele>54.9</ele>
        <time>2015-04-07T15:10:10.000Z</time>
      </trkpt>
      <trkpt lat="50.84344" lon="1.59738">
        <ele>54.8</ele>
        <time>2015-04-07T15:10:11.000Z</time>
      </trkpt>
      <trkpt lat="50.84345" lon="1.59738">
        <ele>54.8</ele>
        <time>2015-04-07T15:10:12.000Z</time>
      </trkpt>
      <trkpt lat="50.84346" lon="1.59737">
        <ele>54.8</ele>
        <time>2015-04-07T15:10:13.000Z</time>
      </trkpt>
      <trkpt lat="50.84347" lon="1.59737">
        <ele>54.8</ele>
        <time>2015-04-07T15:10:14.000Z</time>
      </trkpt>
      <trkpt lat="50.84348" lon="1.59737">
        <ele>54.7</ele>
        <time>2015-04-07T15:10:15.000Z</time>
      </trkpt>
      <trkpt lat="50.8435" lon="1.59736">
        <ele>54.7</ele>
        <time>2015-04-07T15:10:16.000Z</time>
      </trkpt>
      <trkpt lat="50.84351" lon="1.59736">
        <ele>54.7</ele>
        <time>2015-04-07T15:10:17.000Z</time>
      </trkpt>
      <trkpt lat="50.84352" lon="1.59736">
        <ele>54.7</ele>
        <time>2015-04-07T15:10:18.000Z</time>
      </trkpt>
      <trkpt lat="50.84353" lon="1.59736">
        <ele>54.6</ele>
        <time>2015-04-07T15:10:19.000Z</time>
      </trkpt>
      <trkpt lat="50.84354" lon="1.59735">
        <ele>54.6</ele>
        <time>2015-04-07T15:10:20.000Z</time>
      </trkpt>
      <trkpt lat="50.84355" lon="1.59735">
        <ele>54.6</ele>
        <time>2015-04-07T15:10:21.000Z</time>
      </trkpt>
      <trkpt lat="50.84356" lon="1.59735">
        <ele>54.5</ele>
        <time>2015-04-07T15:10:22.000Z</time>
      </trkpt>
      <trkpt lat="50.84357" lon="1.59734">
        <ele>54.5</ele>
        <time>2015-04-07T15:10:23.000Z</time>
      </trkpt>
      <trkpt lat="50.84358" lon="1.59734">
        <ele>54.5</ele>
        <time>2015-04-07T15:10:24.000Z</time>
      </trkpt>
      <trkpt lat="50.84359" lon="1.59734">
        <ele>54.5</ele>
        <time>2015-04-07T15:10:25.000Z</time>
      </trkpt>
      <trkpt lat="50.8436" lon="1.59734">
        <ele>54.4</ele>
        <time>2015-04-07T15:10:26.000Z</time>
      </trkpt>
      <trkpt lat="50.84361" lon="1.59733">
        <ele>54.4</ele>
        <time>2015-04-07T15:10:27.000Z</time>
      </trkpt>
      <trkpt lat="50.84362" lon="1.59733">
        <ele>54.3</ele>
        <time>2015-04-07T15:10:28.000Z</time>
      </trkpt>
      <trkpt lat="50.84363" lon="1.59733">
        <ele>54.2</ele>
        <time>2015-04-07T15:10:29.000Z</time>
      </trkpt>
      <trkpt lat="50.84364" lon="1.59733">
        <ele>54.2</ele>
        <time>2015-04-07T15:10:30.000Z</time>
      </trkpt>
      <trkpt lat="50.84366" lon="1.59732">
        <ele>54.1</ele>
        <time>2015-04-07T15:10:31.000Z</time>
      </trkpt>
      <trkpt lat="50.84367" lon="1.59732">
        <ele>54</ele>
        <time>2015-04-07T15:10:32.000Z</time>
      </trkpt>
      <trkpt lat="50.84368" lon="1.59732">
        <ele>53.9</ele>
        <time>2015-04-07T15:10:33.000Z</time>
      </trkpt>
      <trkpt lat="50.84369" lon="1.59731">
        <ele>53.8</ele>
        <time>2015-04-07T15:10:34.000Z</time>
      </trkpt>
      <trkpt lat="50.8437" lon="1.59731">
        <ele>53.6</ele>
        <time>2015-04-07T15:10:35.000Z</time>
      </trkpt>
      <trkpt lat="50.84371" lon="1.5973">
        <ele>53.5</ele>
        <time>2015-04-07T15:10:36.000Z</time>
      </trkpt>
      <trkpt lat="50.84373" lon="1.5973">
        <ele>53.4</ele>
        <time>2015-04-07T15:10:37.000Z</time>
      </trkpt>
      <trkpt lat="50.84374" lon="1.5973">
        <ele>53.2</ele>
        <time>2015-04-07T15:10:38.000Z</time>
      </trkpt>
      <trkpt lat="50.84375" lon="1.59729">
        <ele>53.1</ele>
        <time>2015-04-07T15:10:39.000Z</time>
      </trkpt>
      <trkpt lat="50.84377" lon="1.59729">
        <ele>52.9</ele>
        <time>2015-04-07T15:10:40.000Z</time>
      </trkpt>
      <trkpt lat="50.84378" lon="1.59728">
        <ele>52.8</ele>
        <time>2015-04-07T15:10:41.000Z</time>
      </trkpt>
      <trkpt lat="50.84379" lon="1.59727">
        <ele>52.6</ele>
        <time>2015-04-07T15:10:42.000Z</time>
      </trkpt>
      <trkpt lat="50.84381" lon="1.59727">
        <ele>52.4</ele>
        <time>2015-04-07T15:10:43.000Z</time>
      </trkpt>
      <trkpt lat="50.84382" lon="1.59727">
        <ele>52.2</ele>
        <time>2015-04-07T15:10:44.000Z</time>
      </trkpt>
      <trkpt lat="50.84384" lon="1.59726">
        <ele>52.1</ele>
        <time>2015-04-07T15:10:45.000Z</time>
      </trkpt>
      <trkpt lat="50.84385" lon="1.59726">
        <ele>51.9</ele>
        <time>2015-04-07T15:10:46.000Z</time>
      </trkpt>
      <trkpt lat="50.84386" lon="1.59726">
        <ele>51.8</ele>
        <time>2015-04-07T15:10:47.000Z</time>
      </trkpt>
      <trkpt lat="50.84387" lon="1.59725">
        <ele>51.6</ele>
        <time>2015-04-07T15:10:48.000Z</time>
      </trkpt>
      <trkpt lat="50.84388" lon="1.59725">
        <ele>51.5</ele>
        <time>2015-04-07T15:10:49.000Z</time>
      </trkpt>
      <trkpt lat="50.84389" lon="1.59725">
        <ele>51.4</ele>
        <time>2015-04-07T15:10:50.000Z</time>
      </trkpt>
      <trkpt lat="50.8439" lon="1.59725">
        <ele>51.3</ele>
        <time>2015-04-07T15:10:51.000Z</time>
      </trkpt>
      <trkpt lat="50.84391" lon="1.59724">
        <ele>51.2</ele>
        <time>2015-04-07T15:10:52.000Z</time>
      </trkpt>
      <trkpt lat="50.84392" lon="1.59724">
        <ele>51.1</ele>
        <time>2015-04-07T15:10:53.000Z</time>
      </trkpt>
      <trkpt lat="50.84393" lon="1.59724">
        <ele>51</ele>
        <time>2015-04-07T15:10:54.000Z</time>
      </trkpt>
      <trkpt lat="50.84394" lon="1.59723">
        <ele>51</ele>
        <time>2015-04-07T15:10:55.000Z</time>
      </trkpt>
      <trkpt lat="50.84395" lon="1.59723">
        <ele>50.9</ele>
        <time>2015-04-07T15:10:56.000Z</time>
      </trkpt>
      <trkpt lat="50.84396" lon="1.59723">
        <ele>50.8</ele>
        <time>2015-04-07T15:10:57.000Z</time>
      </trkpt>
      <trkpt lat="50.84397" lon="1.59722">
        <ele>50.7</ele>
        <time>2015-04-07T15:10:58.000Z</time>
      </trkpt>
      <trkpt lat="50.84398" lon="1.59722">
        <ele>50.7</ele>
        <time>2015-04-07T15:10:59.000Z</time>
      </trkpt>
      <trkpt lat="50.84399" lon="1.59722">
        <ele>50.6</ele>
        <time>2015-04-07T15:11:00.000Z</time>
      </trkpt>
      <trkpt lat="50.844" lon="1.59721">
        <ele>50.6</ele>
        <time>2015-04-07T15:11:01.000Z</time>
      </trkpt>
      <trkpt lat="50.84402" lon="1.59721">
        <ele>50.6</ele>
        <time>2015-04-07T15:11:02.000Z</time>
      </trkpt>
      <trkpt lat="50.84403" lon="1.5972">
        <ele>50.5</ele>
        <time>2015-04-07T15:11:03.000Z</time>
      </trkpt>
      <trkpt lat="50.84404" lon="1.5972">
        <ele>50.5</ele>
        <time>2015-04-07T15:11:04.000Z</time>
      </trkpt>
      <trkpt lat="50.84404" lon="1.59719">
        <ele>50.5</ele>
        <time>2015-04-07T15:11:05.000Z</time>
      </trkpt>
      <trkpt lat="50.84405" lon="1.59719">
        <ele>50.5</ele>
        <time>2015-04-07T15:11:06.000Z</time>
      </trkpt>
      <trkpt lat="50.84406" lon="1.59718">
        <ele>50.4</ele>
        <time>2015-04-07T15:11:07.000Z</time>
      </trkpt>
      <trkpt lat="50.84407" lon="1.59717">
        <ele>50.4</ele>
        <time>2015-04-07T15:11:08.000Z</time>
      </trkpt>
      <trkpt lat="50.84408" lon="1.59715">
        <ele>50.4</ele>
        <time>2015-04-07T15:11:09.000Z</time>
      </trkpt>
      <trkpt lat="50.84408" lon="1.59714">
        <ele>50.4</ele>
        <time>2015-04-07T15:11:10.000Z</time>
      </trkpt>
      <trkpt lat="50.84409" lon="1.59712">
        <ele>50.4</ele>
        <time>2015-04-07T15:11:11.000Z</time>
      </trkpt>
      <trkpt lat="50.84409" lon="1.59711">
        <ele>50.4</ele>
        <time>2015-04-07T15:11:12.000Z</time>
      </trkpt>
      <trkpt lat="50.8441" lon="1.59709">
        <ele>50.4</ele>
        <time>2015-04-07T15:11:13.000Z</time>
      </trkpt>
      <trkpt lat="50.8441" lon="1.59708">
        <ele>50.4</ele>
        <time>2015-04-07T15:11:14.000Z</time>
      </trkpt>
      <trkpt lat="50.8441" lon="1.59706">
        <ele>50.4</ele>
        <time>2015-04-07T15:11:15.000Z</time>
      </trkpt>
      <trkpt lat="50.84411" lon="1.597">
        <ele>50.4</ele>
        <time>2015-04-07T15:11:16.000Z</time>
      </trkpt>
      <trkpt lat="50.84411" lon="1.59699">
        <ele>50.4</ele>
        <time>2015-04-07T15:11:17.000Z</time>
      </trkpt>
      <trkpt lat="50.84411" lon="1.59699">
        <ele>50.4</ele>
        <time>2015-04-07T15:11:18.000Z</time>
      </trkpt>
      <trkpt lat="50.84411" lon="1.59697">
        <ele>50.4</ele>
        <time>2015-04-07T15:11:19.000Z</time>
      </trkpt>
      <trkpt lat="50.84411" lon="1.59696">
        <ele>50.4</ele>
        <time>2015-04-07T15:11:20.000Z</time>
      </trkpt>
      <trkpt lat="50.8441" lon="1.59694">
        <ele>50.4</ele>
        <time>2015-04-07T15:11:21.000Z</time>
      </trkpt>
      <trkpt lat="50.8441" lon="1.59693">
        <ele>50.4</ele>
        <time>2015-04-07T15:11:22.000Z</time>
      </trkpt>
      <trkpt lat="50.8441" lon="1.59691">
        <ele>50.3</ele>
        <time>2015-04-07T15:11:23.000Z</time>
      </trkpt>
      <trkpt lat="50.8441" lon="1.59689">
        <ele>50.3</ele>
        <time>2015-04-07T15:11:24.000Z</time>
      </trkpt>
      <trkpt lat="50.84409" lon="1.59687">
        <ele>50.2</ele>
        <time>2015-04-07T15:11:25.000Z</time>
      </trkpt>
      <trkpt lat="50.84409" lon="1.59686">
        <ele>50.1</ele>
        <time>2015-04-07T15:11:26.000Z</time>
      </trkpt>
      <trkpt lat="50.84409" lon="1.59684">
        <ele>50.1</ele>
        <time>2015-04-07T15:11:27.000Z</time>
      </trkpt>
      <trkpt lat="50.84408" lon="1.59682">
        <ele>50</ele>
        <time>2015-04-07T15:11:28.000Z</time>
      </trkpt>
      <trkpt lat="50.84408" lon="1.5968">
        <ele>49.9</ele>
        <time>2015-04-07T15:11:29.000Z</time>
      </trkpt>
      <trkpt lat="50.84408" lon="1.59678">
        <ele>49.9</ele>
        <time>2015-04-07T15:11:30.000Z</time>
      </trkpt>
      <trkpt lat="50.84407" lon="1.59676">
        <ele>49.8</ele>
        <time>2015-04-07T15:11:31.000Z</time>
      </trkpt>
      <trkpt lat="50.84407" lon="1.59674">
        <ele>49.7</ele>
        <time>2015-04-07T15:11:32.000Z</time>
      </trkpt>
      <trkpt lat="50.84406" lon="1.59673">
        <ele>49.7</ele>
        <time>2015-04-07T15:11:33.000Z</time>
      </trkpt>
      <trkpt lat="50.84406" lon="1.59671">
        <ele>49.6</ele>
        <time>2015-04-07T15:11:34.000Z</time>
      </trkpt>
      <trkpt lat="50.84406" lon="1.59669">
        <ele>49.5</ele>
        <time>2015-04-07T15:11:35.000Z</time>
      </trkpt>
      <trkpt lat="50.84405" lon="1.59667">
        <ele>49.4</ele>
        <time>2015-04-07T15:11:36.000Z</time>
      </trkpt>
      <trkpt lat="50.84405" lon="1.59665">
        <ele>49.4</ele>
        <time>2015-04-07T15:11:37.000Z</time>
      </trkpt>
      <trkpt lat="50.84404" lon="1.59664">
        <ele>49.3</ele>
        <time>2015-04-07T15:11:38.000Z</time>
      </trkpt>
      <trkpt lat="50.84404" lon="1.59662">
        <ele>49.2</ele>
        <time>2015-04-07T15:11:39.000Z</time>
      </trkpt>
      <trkpt lat="50.84404" lon="1.5966">
        <ele>49.1</ele>
        <time>2015-04-07T15:11:40.000Z</time>
      </trkpt>
      <trkpt lat="50.84404" lon="1.59658">
        <ele>49</ele>
        <time>2015-04-07T15:11:41.000Z</time>
      </trkpt>
      <trkpt lat="50.84403" lon="1.59657">
        <ele>48.9</ele>
        <time>2015-04-07T15:11:42.000Z</time>
      </trkpt>
      <trkpt lat="50.84403" lon="1.59655">
        <ele>48.8</ele>
        <time>2015-04-07T15:11:43.000Z</time>
      </trkpt>
      <trkpt lat="50.84403" lon="1.59653">
        <ele>48.8</ele>
        <time>2015-04-07T15:11:44.000Z</time>
      </trkpt>
      <trkpt lat="50.84402" lon="1.59651">
        <ele>48.7</ele>
        <time>2015-04-07T15:11:45.000Z</time>
      </trkpt>
      <trkpt lat="50.84402" lon="1.59649">
        <ele>48.6</ele>
        <time>2015-04-07T15:11:46.000Z</time>
      </trkpt>
      <trkpt lat="50.84402" lon="1.59647">
        <ele>48.5</ele>
        <time>2015-04-07T15:11:47.000Z</time>
      </trkpt>
      <trkpt lat="50.84402" lon="1.59646">
        <ele>48.4</ele>
        <time>2015-04-07T15:11:48.000Z</time>
      </trkpt>
      <trkpt lat="50.84401" lon="1.59644">
        <ele>48.3</ele>
        <time>2015-04-07T15:11:49.000Z</time>
      </trkpt>
      <trkpt lat="50.84401" lon="1.59642">
        <ele>48.2</ele>
        <time>2015-04-07T15:11:50.000Z</time>
      </trkpt>
      <trkpt lat="50.84401" lon="1.59641">
        <ele>48.1</ele>
        <time>2015-04-07T15:11:51.000Z</time>
      </trkpt>
      <trkpt lat="50.84401" lon="1.59639">
        <ele>48</ele>
        <time>2015-04-07T15:11:52.000Z</time>
      </trkpt>
      <trkpt lat="50.84402" lon="1.59637">
        <ele>47.9</ele>
        <time>2015-04-07T15:11:53.000Z</time>
      </trkpt>
      <trkpt lat="50.84402" lon="1.59636">
        <ele>47.7</ele>
        <time>2015-04-07T15:11:54.000Z</time>
      </trkpt>
      <trkpt lat="50.84402" lon="1.59634">
        <ele>47.6</ele>
        <time>2015-04-07T15:11:55.000Z</time>
      </trkpt>
      <trkpt lat="50.84402" lon="1.59633">
        <ele>47.5</ele>
        <time>2015-04-07T15:11:56.000Z</time>
      </trkpt>
      <trkpt lat="50.84402" lon="1.59632">
        <ele>47.4</ele>
        <time>2015-04-07T15:11:57.000Z</time>
      </trkpt>
      <trkpt lat="50.84401" lon="1.59631">
        <ele>47.3</ele>
        <time>2015-04-07T15:11:58.000Z</time>
      </trkpt>
      <trkpt lat="50.84401" lon="1.5963">
        <ele>47.2</ele>
        <time>2015-04-07T15:11:59.000Z</time>
      </trkpt>
      <trkpt lat="50.844" lon="1.59629">
        <ele>47.1</ele>
        <time>2015-04-07T15:12:00.000Z</time>
      </trkpt>
      <trkpt lat="50.84399" lon="1.59628">
        <ele>47</ele>
        <time>2015-04-07T15:12:01.000Z</time>
      </trkpt>
      <trkpt lat="50.84399" lon="1.59626">
        <ele>46.9</ele>
        <time>2015-04-07T15:12:02.000Z</time>
      </trkpt>
      <trkpt lat="50.84398" lon="1.59625">
        <ele>46.8</ele>
        <time>2015-04-07T15:12:03.000Z</time>
      </trkpt>
      <trkpt lat="50.84397" lon="1.59623">
        <ele>46.7</ele>
        <time>2015-04-07T15:12:04.000Z</time>
      </trkpt>
      <trkpt lat="50.84397" lon="1.59622">
        <ele>46.6</ele>
        <time>2015-04-07T15:12:05.000Z</time>
      </trkpt>
      <trkpt lat="50.84396" lon="1.5962">
        <ele>46.5</ele>
        <time>2015-04-07T15:12:06.000Z</time>
      </trkpt>
      <trkpt lat="50.84396" lon="1.59618">
        <ele>46.3</ele>
        <time>2015-04-07T15:12:07.000Z</time>
      </trkpt>
      <trkpt lat="50.84396" lon="1.59617">
        <ele>46.2</ele>
        <time>2015-04-07T15:12:08.000Z</time>
      </trkpt>
      <trkpt lat="50.84395" lon="1.59615">
        <ele>46.1</ele>
        <time>2015-04-07T15:12:09.000Z</time>
      </trkpt>
      <trkpt lat="50.84395" lon="1.59613">
        <ele>45.9</ele>
        <time>2015-04-07T15:12:10.000Z</time>
      </trkpt>
      <trkpt lat="50.84394" lon="1.59611">
        <ele>45.8</ele>
        <time>2015-04-07T15:12:11.000Z</time>
      </trkpt>
      <trkpt lat="50.84394" lon="1.59609">
        <ele>45.8</ele>
        <time>2015-04-07T15:12:12.000Z</time>
      </trkpt>
      <trkpt lat="50.84394" lon="1.59608">
        <ele>45.7</ele>
        <time>2015-04-07T15:12:13.000Z</time>
      </trkpt>
      <trkpt lat="50.84393" lon="1.59606">
        <ele>45.6</ele>
        <time>2015-04-07T15:12:14.000Z</time>
      </trkpt>
      <trkpt lat="50.84393" lon="1.59604">
        <ele>45.6</ele>
        <time>2015-04-07T15:12:15.000Z</time>
      </trkpt>
      <trkpt lat="50.84393" lon="1.59602">
        <ele>45.5</ele>
        <time>2015-04-07T15:12:16.000Z</time>
      </trkpt>
      <trkpt lat="50.84393" lon="1.596">
        <ele>45.5</ele>
        <time>2015-04-07T15:12:17.000Z</time>
      </trkpt>
      <trkpt lat="50.84392" lon="1.59599">
        <ele>45.4</ele>
        <time>2015-04-07T15:12:18.000Z</time>
      </trkpt>
      <trkpt lat="50.84392" lon="1.59597">
        <ele>45.4</ele>
        <time>2015-04-07T15:12:19.000Z</time>
      </trkpt>
      <trkpt lat="50.84392" lon="1.59595">
        <ele>45.3</ele>
        <time>2015-04-07T15:12:20.000Z</time>
      </trkpt>
      <trkpt lat="50.84392" lon="1.59594">
        <ele>45.3</ele>
        <time>2015-04-07T15:12:21.000Z</time>
      </trkpt>
      <trkpt lat="50.84391" lon="1.59592">
        <ele>45.2</ele>
        <time>2015-04-07T15:12:22.000Z</time>
      </trkpt>
      <trkpt lat="50.84391" lon="1.5959">
        <ele>45.2</ele>
        <time>2015-04-07T15:12:23.000Z</time>
      </trkpt>
      <trkpt lat="50.84391" lon="1.59588">
        <ele>45.1</ele>
        <time>2015-04-07T15:12:24.000Z</time>
      </trkpt>
      <trkpt lat="50.84391" lon="1.59587">
        <ele>45.1</ele>
        <time>2015-04-07T15:12:25.000Z</time>
      </trkpt>
      <trkpt lat="50.8439" lon="1.59585">
        <ele>45</ele>
        <time>2015-04-07T15:12:26.000Z</time>
      </trkpt>
      <trkpt lat="50.8439" lon="1.59583">
        <ele>44.9</ele>
        <time>2015-04-07T15:12:27.000Z</time>
      </trkpt>
      <trkpt lat="50.8439" lon="1.59582">
        <ele>44.8</ele>
        <time>2015-04-07T15:12:28.000Z</time>
      </trkpt>
      <trkpt lat="50.8439" lon="1.5958">
        <ele>44.7</ele>
        <time>2015-04-07T15:12:29.000Z</time>
      </trkpt>
      <trkpt lat="50.84389" lon="1.59578">
        <ele>44.6</ele>
        <time>2015-04-07T15:12:30.000Z</time>
      </trkpt>
      <trkpt lat="50.84389" lon="1.59577">
        <ele>44.5</ele>
        <time>2015-04-07T15:12:31.000Z</time>
      </trkpt>
      <trkpt lat="50.84389" lon="1.59575">
        <ele>44.4</ele>
        <time>2015-04-07T15:12:32.000Z</time>
      </trkpt>
      <trkpt lat="50.84389" lon="1.59573">
        <ele>44.3</ele>
        <time>2015-04-07T15:12:33.000Z</time>
      </trkpt>
      <trkpt lat="50.84388" lon="1.59571">
        <ele>44.2</ele>
        <time>2015-04-07T15:12:34.000Z</time>
      </trkpt>
      <trkpt lat="50.84388" lon="1.59569">
        <ele>44.1</ele>
        <time>2015-04-07T15:12:35.000Z</time>
      </trkpt>
      <trkpt lat="50.84388" lon="1.59568">
        <ele>44</ele>
        <time>2015-04-07T15:12:36.000Z</time>
      </trkpt>
      <trkpt lat="50.84388" lon="1.59566">
        <ele>43.9</ele>
        <time>2015-04-07T15:12:37.000Z</time>
      </trkpt>
      <trkpt lat="50.84388" lon="1.59564">
        <ele>43.8</ele>
        <time>2015-04-07T15:12:38.000Z</time>
      </trkpt>
      <trkpt lat="50.84387" lon="1.59563">
        <ele>43.7</ele>
        <time>2015-04-07T15:12:39.000Z</time>
      </trkpt>
      <trkpt lat="50.84387" lon="1.59561">
        <ele>43.6</ele>
        <time>2015-04-07T15:12:40.000Z</time>
      </trkpt>
      <trkpt lat="50.84387" lon="1.59559">
        <ele>43.6</ele>
        <time>2015-04-07T15:12:41.000Z</time>
      </trkpt>
      <trkpt lat="50.84387" lon="1.59558">
        <ele>43.5</ele>
        <time>2015-04-07T15:12:42.000Z</time>
      </trkpt>
      <trkpt lat="50.84386" lon="1.59556">
        <ele>43.4</ele>
        <time>2015-04-07T15:12:43.000Z</time>
      </trkpt>
      <trkpt lat="50.84386" lon="1.59554">
        <ele>43.4</ele>
        <time>2015-04-07T15:12:44.000Z</time>
      </trkpt>
      <trkpt lat="50.84386" lon="1.59552">
        <ele>43.3</ele>
        <time>2015-04-07T15:12:45.000Z</time>
      </trkpt>
      <trkpt lat="50.84385" lon="1.59551">
        <ele>43.3</ele>
        <time>2015-04-07T15:12:46.000Z</time>
      </trkpt>
      <trkpt lat="50.84385" lon="1.59549">
        <ele>43.3</ele>
        <time>2015-04-07T15:12:47.000Z</time>
      </trkpt>
      <trkpt lat="50.84385" lon="1.59547">
        <ele>43.3</ele>
        <time>2015-04-07T15:12:48.000Z</time>
      </trkpt>
      <trkpt lat="50.84385" lon="1.59546">
        <ele>43.2</ele>
        <time>2015-04-07T15:12:49.000Z</time>
      </trkpt>
      <trkpt lat="50.84384" lon="1.59544">
        <ele>43.2</ele>
        <time>2015-04-07T15:12:50.000Z</time>
      </trkpt>
      <trkpt lat="50.84384" lon="1.59542">
        <ele>43.2</ele>
        <time>2015-04-07T15:12:51.000Z</time>
      </trkpt>
      <trkpt lat="50.84384" lon="1.5954">
        <ele>43.2</ele>
        <time>2015-04-07T15:12:52.000Z</time>
      </trkpt>
      <trkpt lat="50.84384" lon="1.59538">
        <ele>43.1</ele>
        <time>2015-04-07T15:12:53.000Z</time>
      </trkpt>
      <trkpt lat="50.84383" lon="1.59537">
        <ele>43.1</ele>
        <time>2015-04-07T15:12:54.000Z</time>
      </trkpt>
      <trkpt lat="50.84383" lon="1.59535">
        <ele>43.1</ele>
        <time>2015-04-07T15:12:55.000Z</time>
      </trkpt>
      <trkpt lat="50.84383" lon="1.59533">
        <ele>43.1</ele>
        <time>2015-04-07T15:12:56.000Z</time>
      </trkpt>
      <trkpt lat="50.84383" lon="1.59531">
        <ele>43</ele>
        <time>2015-04-07T15:12:57.000Z</time>
      </trkpt>
      <trkpt lat="50.84382" lon="1.5953">
        <ele>43</ele>
        <time>2015-04-07T15:12:58.000Z</time>
      </trkpt>
      <trkpt lat="50.84382" lon="1.59528">
        <ele>43</ele>
        <time>2015-04-07T15:12:59.000Z</time>
      </trkpt>
      <trkpt lat="50.84382" lon="1.59526">
        <ele>42.9</ele>
        <time>2015-04-07T15:13:00.000Z</time>
      </trkpt>
      <trkpt lat="50.84382" lon="1.59525">
        <ele>42.9</ele>
        <time>2015-04-07T15:13:01.000Z</time>
      </trkpt>
      <trkpt lat="50.84382" lon="1.59523">
        <ele>42.9</ele>
        <time>2015-04-07T15:13:02.000Z</time>
      </trkpt>
      <trkpt lat="50.84381" lon="1.59521">
        <ele>42.8</ele>
        <time>2015-04-07T15:13:03.000Z</time>
      </trkpt>
      <trkpt lat="50.84381" lon="1.59519">
        <ele>42.8</ele>
        <time>2015-04-07T15:13:04.000Z</time>
      </trkpt>
      <trkpt lat="50.84381" lon="1.59517">
        <ele>42.8</ele>
        <time>2015-04-07T15:13:05.000Z</time>
      </trkpt>
      <trkpt lat="50.84381" lon="1.59516">
        <ele>42.7</ele>
        <time>2015-04-07T15:13:06.000Z</time>
      </trkpt>
      <trkpt lat="50.8438" lon="1.59514">
        <ele>42.7</ele>
        <time>2015-04-07T15:13:07.000Z</time>
      </trkpt>
      <trkpt lat="50.8438" lon="1.59512">
        <ele>42.7</ele>
        <time>2015-04-07T15:13:08.000Z</time>
      </trkpt>
      <trkpt lat="50.8438" lon="1.59511">
        <ele>42.7</ele>
        <time>2015-04-07T15:13:09.000Z</time>
      </trkpt>
      <trkpt lat="50.8438" lon="1.59509">
        <ele>42.6</ele>
        <time>2015-04-07T15:13:10.000Z</time>
      </trkpt>
      <trkpt lat="50.84379" lon="1.59507">
        <ele>42.6</ele>
        <time>2015-04-07T15:13:11.000Z</time>
      </trkpt>
      <trkpt lat="50.84379" lon="1.59505">
        <ele>42.6</ele>
        <time>2015-04-07T15:13:12.000Z</time>
      </trkpt>
      <trkpt lat="50.84379" lon="1.59503">
        <ele>42.6</ele>
        <time>2015-04-07T15:13:13.000Z</time>
      </trkpt>
      <trkpt lat="50.84379" lon="1.59502">
        <ele>42.5</ele>
        <time>2015-04-07T15:13:14.000Z</time>
      </trkpt>
      <trkpt lat="50.84379" lon="1.595">
        <ele>42.5</ele>
        <time>2015-04-07T15:13:15.000Z</time>
      </trkpt>
      <trkpt lat="50.84378" lon="1.59498">
        <ele>42.5</ele>
        <time>2015-04-07T15:13:16.000Z</time>
      </trkpt>
      <trkpt lat="50.84378" lon="1.59497">
        <ele>42.4</ele>
        <time>2015-04-07T15:13:17.000Z</time>
      </trkpt>
      <trkpt lat="50.84378" lon="1.59495">
        <ele>42.4</ele>
        <time>2015-04-07T15:13:18.000Z</time>
      </trkpt>
      <trkpt lat="50.84378" lon="1.59493">
        <ele>42.4</ele>
        <time>2015-04-07T15:13:19.000Z</time>
      </trkpt>
      <trkpt lat="50.84377" lon="1.59491">
        <ele>42.4</ele>
        <time>2015-04-07T15:13:20.000Z</time>
      </trkpt>
      <trkpt lat="50.84377" lon="1.5949">
        <ele>42.3</ele>
        <time>2015-04-07T15:13:21.000Z</time>
      </trkpt>
      <trkpt lat="50.84377" lon="1.59488">
        <ele>42.3</ele>
        <time>2015-04-07T15:13:22.000Z</time>
      </trkpt>
      <trkpt lat="50.84377" lon="1.59486">
        <ele>42.3</ele>
        <time>2015-04-07T15:13:23.000Z</time>
      </trkpt>
      <trkpt lat="50.84376" lon="1.59484">
        <ele>42.2</ele>
        <time>2015-04-07T15:13:24.000Z</time>
      </trkpt>
      <trkpt lat="50.84376" lon="1.59482">
        <ele>42.2</ele>
        <time>2015-04-07T15:13:25.000Z</time>
      </trkpt>
      <trkpt lat="50.84376" lon="1.59481">
        <ele>42.2</ele>
        <time>2015-04-07T15:13:26.000Z</time>
      </trkpt>
      <trkpt lat="50.84376" lon="1.59479">
        <ele>42.2</ele>
        <time>2015-04-07T15:13:27.000Z</time>
      </trkpt>
      <trkpt lat="50.84375" lon="1.59477">
        <ele>42.1</ele>
        <time>2015-04-07T15:13:28.000Z</time>
      </trkpt>
      <trkpt lat="50.84375" lon="1.59475">
        <ele>42.1</ele>
        <time>2015-04-07T15:13:29.000Z</time>
      </trkpt>
      <trkpt lat="50.84375" lon="1.59474">
        <ele>42.1</ele>
        <time>2015-04-07T15:13:30.000Z</time>
      </trkpt>
      <trkpt lat="50.84375" lon="1.59472">
        <ele>42</ele>
        <time>2015-04-07T15:13:31.000Z</time>
      </trkpt>
      <trkpt lat="50.84375" lon="1.5947">
        <ele>42</ele>
        <time>2015-04-07T15:13:32.000Z</time>
      </trkpt>
      <trkpt lat="50.84374" lon="1.59468">
        <ele>42</ele>
        <time>2015-04-07T15:13:33.000Z</time>
      </trkpt>
      <trkpt lat="50.84374" lon="1.59466">
        <ele>42</ele>
        <time>2015-04-07T15:13:34.000Z</time>
      </trkpt>
      <trkpt lat="50.84374" lon="1.59465">
        <ele>42</ele>
        <time>2015-04-07T15:13:35.000Z</time>
      </trkpt>
      <trkpt lat="50.84374" lon="1.59463">
        <ele>42</ele>
        <time>2015-04-07T15:13:36.000Z</time>
      </trkpt>
      <trkpt lat="50.84374" lon="1.59461">
        <ele>41.9</ele>
        <time>2015-04-07T15:13:37.000Z</time>
      </trkpt>
      <trkpt lat="50.84374" lon="1.59459">
        <ele>41.9</ele>
        <time>2015-04-07T15:13:38.000Z</time>
      </trkpt>
      <trkpt lat="50.84374" lon="1.59457">
        <ele>41.9</ele>
        <time>2015-04-07T15:13:39.000Z</time>
      </trkpt>
      <trkpt lat="50.84374" lon="1.59455">
        <ele>41.8</ele>
        <time>2015-04-07T15:13:40.000Z</time>
      </trkpt>
      <trkpt lat="50.84374" lon="1.59454">
        <ele>41.8</ele>
        <time>2015-04-07T15:13:41.000Z</time>
      </trkpt>
      <trkpt lat="50.84374" lon="1.59452">
        <ele>41.8</ele>
        <time>2015-04-07T15:13:42.000Z</time>
      </trkpt>
      <trkpt lat="50.84374" lon="1.5945">
        <ele>41.8</ele>
        <time>2015-04-07T15:13:43.000Z</time>
      </trkpt>
      <trkpt lat="50.84374" lon="1.59448">
        <ele>41.7</ele>
        <time>2015-04-07T15:13:44.000Z</time>
      </trkpt>
      <trkpt lat="50.84374" lon="1.59446">
        <ele>41.7</ele>
        <time>2015-04-07T15:13:45.000Z</time>
      </trkpt>
      <trkpt lat="50.84373" lon="1.59445">
        <ele>41.7</ele>
        <time>2015-04-07T15:13:46.000Z</time>
      </trkpt>
      <trkpt lat="50.84373" lon="1.59443">
        <ele>41.6</ele>
        <time>2015-04-07T15:13:47.000Z</time>
      </trkpt>
      <trkpt lat="50.84373" lon="1.59441">
        <ele>41.6</ele>
        <time>2015-04-07T15:13:48.000Z</time>
      </trkpt>
      <trkpt lat="50.84373" lon="1.59439">
        <ele>41.5</ele>
        <time>2015-04-07T15:13:49.000Z</time>
      </trkpt>
      <trkpt lat="50.84373" lon="1.59437">
        <ele>41.5</ele>
        <time>2015-04-07T15:13:50.000Z</time>
      </trkpt>
      <trkpt lat="50.84373" lon="1.59435">
        <ele>41.4</ele>
        <time>2015-04-07T15:13:51.000Z</time>
      </trkpt>
      <trkpt lat="50.84373" lon="1.59434">
        <ele>41.4</ele>
        <time>2015-04-07T15:13:52.000Z</time>
      </trkpt>
      <trkpt lat="50.84373" lon="1.59432">
        <ele>41.3</ele>
        <time>2015-04-07T15:13:53.000Z</time>
      </trkpt>
      <trkpt lat="50.84373" lon="1.5943">
        <ele>41.2</ele>
        <time>2015-04-07T15:13:54.000Z</time>
      </trkpt>
      <trkpt lat="50.84372" lon="1.59428">
        <ele>41.2</ele>
        <time>2015-04-07T15:13:55.000Z</time>
      </trkpt>
      <trkpt lat="50.84372" lon="1.59426">
        <ele>41.1</ele>
        <time>2015-04-07T15:13:56.000Z</time>
      </trkpt>
      <trkpt lat="50.84372" lon="1.59424">
        <ele>41.1</ele>
        <time>2015-04-07T15:13:57.000Z</time>
      </trkpt>
      <trkpt lat="50.84372" lon="1.59422">
        <ele>41</ele>
        <time>2015-04-07T15:13:58.000Z</time>
      </trkpt>
      <trkpt lat="50.84372" lon="1.5942">
        <ele>41</ele>
        <time>2015-04-07T15:13:59.000Z</time>
      </trkpt>
      <trkpt lat="50.84372" lon="1.59419">
        <ele>40.9</ele>
        <time>2015-04-07T15:14:00.000Z</time>
      </trkpt>
      <trkpt lat="50.84372" lon="1.59417">
        <ele>40.8</ele>
        <time>2015-04-07T15:14:01.000Z</time>
      </trkpt>
      <trkpt lat="50.84372" lon="1.59415">
        <ele>40.8</ele>
        <time>2015-04-07T15:14:02.000Z</time>
      </trkpt>
      <trkpt lat="50.84372" lon="1.59413">
        <ele>40.7</ele>
        <time>2015-04-07T15:14:03.000Z</time>
      </trkpt>
      <trkpt lat="50.84372" lon="1.59411">
        <ele>40.7</ele>
        <time>2015-04-07T15:14:04.000Z</time>
      </trkpt>
      <trkpt lat="50.84372" lon="1.5941">
        <ele>40.6</ele>
        <time>2015-04-07T15:14:05.000Z</time>
      </trkpt>
      <trkpt lat="50.84372" lon="1.59408">
        <ele>40.5</ele>
        <time>2015-04-07T15:14:06.000Z</time>
      </trkpt>
      <trkpt lat="50.84372" lon="1.59406">
        <ele>40.5</ele>
        <time>2015-04-07T15:14:07.000Z</time>
      </trkpt>
      <trkpt lat="50.84372" lon="1.59404">
        <ele>40.4</ele>
        <time>2015-04-07T15:14:08.000Z</time>
      </trkpt>
      <trkpt lat="50.84372" lon="1.59402">
        <ele>40.3</ele>
        <time>2015-04-07T15:14:09.000Z</time>
      </trkpt>
      <trkpt lat="50.84372" lon="1.594">
        <ele>40.3</ele>
        <time>2015-04-07T15:14:10.000Z</time>
      </trkpt>
      <trkpt lat="50.84372" lon="1.59398">
        <ele>40.2</ele>
        <time>2015-04-07T15:14:11.000Z</time>
      </trkpt>
      <trkpt lat="50.84372" lon="1.59397">
        <ele>40.1</ele>
        <time>2015-04-07T15:14:12.000Z</time>
      </trkpt>
      <trkpt lat="50.84372" lon="1.59395">
        <ele>40</ele>
        <time>2015-04-07T15:14:13.000Z</time>
      </trkpt>
      <trkpt lat="50.84372" lon="1.59393">
        <ele>40</ele>
        <time>2015-04-07T15:14:14.000Z</time>
      </trkpt>
      <trkpt lat="50.84372" lon="1.59391">
        <ele>39.9</ele>
        <time>2015-04-07T15:14:15.000Z</time>
      </trkpt>
      <trkpt lat="50.84372" lon="1.59389">
        <ele>39.8</ele>
        <time>2015-04-07T15:14:16.000Z</time>
      </trkpt>
      <trkpt lat="50.84372" lon="1.59388">
        <ele>39.8</ele>
        <time>2015-04-07T15:14:17.000Z</time>
      </trkpt>
      <trkpt lat="50.84372" lon="1.59386">
        <ele>39.8</ele>
        <time>2015-04-07T15:14:18.000Z</time>
      </trkpt>
      <trkpt lat="50.84372" lon="1.59385">
        <ele>39.7</ele>
        <time>2015-04-07T15:14:19.000Z</time>
      </trkpt>
      <trkpt lat="50.84372" lon="1.59383">
        <ele>39.7</ele>
        <time>2015-04-07T15:14:20.000Z</time>
      </trkpt>
      <trkpt lat="50.84372" lon="1.59381">
        <ele>39.7</ele>
        <time>2015-04-07T15:14:21.000Z</time>
      </trkpt>
      <trkpt lat="50.84372" lon="1.59379">
        <ele>39.6</ele>
        <time>2015-04-07T15:14:22.000Z</time>
      </trkpt>
      <trkpt lat="50.84372" lon="1.59377">
        <ele>39.6</ele>
        <time>2015-04-07T15:14:23.000Z</time>
      </trkpt>
      <trkpt lat="50.84372" lon="1.59375">
        <ele>39.6</ele>
        <time>2015-04-07T15:14:24.000Z</time>
      </trkpt>
      <trkpt lat="50.84372" lon="1.59373">
        <ele>39.6</ele>
        <time>2015-04-07T15:14:25.000Z</time>
      </trkpt>
      <trkpt lat="50.84372" lon="1.59371">
        <ele>39.6</ele>
        <time>2015-04-07T15:14:26.000Z</time>
      </trkpt>
      <trkpt lat="50.84372" lon="1.59369">
        <ele>39.5</ele>
        <time>2015-04-07T15:14:27.000Z</time>
      </trkpt>
      <trkpt lat="50.84372" lon="1.59368">
        <ele>39.5</ele>
        <time>2015-04-07T15:14:28.000Z</time>
      </trkpt>
      <trkpt lat="50.84372" lon="1.59366">
        <ele>39.5</ele>
        <time>2015-04-07T15:14:29.000Z</time>
      </trkpt>
      <trkpt lat="50.84372" lon="1.59364">
        <ele>39.5</ele>
        <time>2015-04-07T15:14:30.000Z</time>
      </trkpt>
      <trkpt lat="50.84372" lon="1.59362">
        <ele>39.4</ele>
        <time>2015-04-07T15:14:31.000Z</time>
      </trkpt>
      <trkpt lat="50.84372" lon="1.5936">
        <ele>39.4</ele>
        <time>2015-04-07T15:14:32.000Z</time>
      </trkpt>
      <trkpt lat="50.84372" lon="1.59358">
        <ele>39.2</ele>
        <time>2015-04-07T15:14:33.000Z</time>
      </trkpt>
      <trkpt lat="50.84372" lon="1.59356">
        <ele>39.1</ele>
        <time>2015-04-07T15:14:34.000Z</time>
      </trkpt>
      <trkpt lat="50.84372" lon="1.59354">
        <ele>39</ele>
        <time>2015-04-07T15:14:35.000Z</time>
      </trkpt>
      <trkpt lat="50.84372" lon="1.59352">
        <ele>38.9</ele>
        <time>2015-04-07T15:14:36.000Z</time>
      </trkpt>
      <trkpt lat="50.84372" lon="1.5935">
        <ele>38.8</ele>
        <time>2015-04-07T15:14:37.000Z</time>
      </trkpt>
      <trkpt lat="50.84372" lon="1.59349">
        <ele>38.8</ele>
        <time>2015-04-07T15:14:38.000Z</time>
      </trkpt>
      <trkpt lat="50.84372" lon="1.59347">
        <ele>38.7</ele>
        <time>2015-04-07T15:14:39.000Z</time>
      </trkpt>
      <trkpt lat="50.84372" lon="1.59345">
        <ele>38.6</ele>
        <time>2015-04-07T15:14:40.000Z</time>
      </trkpt>
      <trkpt lat="50.84372" lon="1.59343">
        <ele>38.4</ele>
        <time>2015-04-07T15:14:41.000Z</time>
      </trkpt>
      <trkpt lat="50.84371" lon="1.59341">
        <ele>38.3</ele>
        <time>2015-04-07T15:14:42.000Z</time>
      </trkpt>
      <trkpt lat="50.84371" lon="1.59339">
        <ele>38.2</ele>
        <time>2015-04-07T15:14:43.000Z</time>
      </trkpt>
      <trkpt lat="50.84371" lon="1.59337">
        <ele>38.1</ele>
        <time>2015-04-07T15:14:44.000Z</time>
      </trkpt>
      <trkpt lat="50.84371" lon="1.59335">
        <ele>38</ele>
        <time>2015-04-07T15:14:45.000Z</time>
      </trkpt>
      <trkpt lat="50.84371" lon="1.59333">
        <ele>37.9</ele>
        <time>2015-04-07T15:14:46.000Z</time>
      </trkpt>
      <trkpt lat="50.84371" lon="1.59331">
        <ele>37.9</ele>
        <time>2015-04-07T15:14:47.000Z</time>
      </trkpt>
      <trkpt lat="50.84371" lon="1.5933">
        <ele>37.8</ele>
        <time>2015-04-07T15:14:48.000Z</time>
      </trkpt>
      <trkpt lat="50.84371" lon="1.59328">
        <ele>37.7</ele>
        <time>2015-04-07T15:14:49.000Z</time>
      </trkpt>
      <trkpt lat="50.84371" lon="1.59325">
        <ele>37.7</ele>
        <time>2015-04-07T15:14:50.000Z</time>
      </trkpt>
      <trkpt lat="50.84371" lon="1.59323">
        <ele>37.6</ele>
        <time>2015-04-07T15:14:51.000Z</time>
      </trkpt>
      <trkpt lat="50.84371" lon="1.59321">
        <ele>37.5</ele>
        <time>2015-04-07T15:14:52.000Z</time>
      </trkpt>
      <trkpt lat="50.84371" lon="1.59319">
        <ele>37.4</ele>
        <time>2015-04-07T15:14:53.000Z</time>
      </trkpt>
      <trkpt lat="50.84371" lon="1.59317">
        <ele>37.4</ele>
        <time>2015-04-07T15:14:54.000Z</time>
      </trkpt>
      <trkpt lat="50.84371" lon="1.59315">
        <ele>37.3</ele>
        <time>2015-04-07T15:14:55.000Z</time>
      </trkpt>
      <trkpt lat="50.84371" lon="1.59313">
        <ele>37.3</ele>
        <time>2015-04-07T15:14:56.000Z</time>
      </trkpt>
      <trkpt lat="50.84371" lon="1.59311">
        <ele>37.2</ele>
        <time>2015-04-07T15:14:57.000Z</time>
      </trkpt>
      <trkpt lat="50.8437" lon="1.59309">
        <ele>37.1</ele>
        <time>2015-04-07T15:14:58.000Z</time>
      </trkpt>
      <trkpt lat="50.8437" lon="1.59307">
        <ele>37</ele>
        <time>2015-04-07T15:14:59.000Z</time>
      </trkpt>
      <trkpt lat="50.8437" lon="1.59305">
        <ele>37</ele>
        <time>2015-04-07T15:15:00.000Z</time>
      </trkpt>
      <trkpt lat="50.8437" lon="1.59303">
        <ele>36.8</ele>
        <time>2015-04-07T15:15:01.000Z</time>
      </trkpt>
      <trkpt lat="50.8437" lon="1.59301">
        <ele>36.7</ele>
        <time>2015-04-07T15:15:02.000Z</time>
      </trkpt>
      <trkpt lat="50.8437" lon="1.59299">
        <ele>36.6</ele>
        <time>2015-04-07T15:15:03.000Z</time>
      </trkpt>
      <trkpt lat="50.8437" lon="1.59297">
        <ele>36.5</ele>
        <time>2015-04-07T15:15:04.000Z</time>
      </trkpt>
      <trkpt lat="50.8437" lon="1.59295">
        <ele>36.4</ele>
        <time>2015-04-07T15:15:05.000Z</time>
      </trkpt>
      <trkpt lat="50.8437" lon="1.59293">
        <ele>36.3</ele>
        <time>2015-04-07T15:15:06.000Z</time>
      </trkpt>
      <trkpt lat="50.8437" lon="1.59291">
        <ele>36.2</ele>
        <time>2015-04-07T15:15:07.000Z</time>
      </trkpt>
      <trkpt lat="50.8437" lon="1.59289">
        <ele>36</ele>
        <time>2015-04-07T15:15:08.000Z</time>
      </trkpt>
      <trkpt lat="50.8437" lon="1.59287">
        <ele>35.9</ele>
        <time>2015-04-07T15:15:09.000Z</time>
      </trkpt>
      <trkpt lat="50.8437" lon="1.59284">
        <ele>35.8</ele>
        <time>2015-04-07T15:15:10.000Z</time>
      </trkpt>
      <trkpt lat="50.8437" lon="1.59282">
        <ele>35.7</ele>
        <time>2015-04-07T15:15:11.000Z</time>
      </trkpt>
      <trkpt lat="50.8437" lon="1.5928">
        <ele>35.5</ele>
        <time>2015-04-07T15:15:12.000Z</time>
      </trkpt>
      <trkpt lat="50.8437" lon="1.59278">
        <ele>35.4</ele>
        <time>2015-04-07T15:15:13.000Z</time>
      </trkpt>
      <trkpt lat="50.8437" lon="1.59276">
        <ele>35.3</ele>
        <time>2015-04-07T15:15:14.000Z</time>
      </trkpt>
      <trkpt lat="50.8437" lon="1.59274">
        <ele>35.2</ele>
        <time>2015-04-07T15:15:15.000Z</time>
      </trkpt>
      <trkpt lat="50.8437" lon="1.59272">
        <ele>35.2</ele>
        <time>2015-04-07T15:15:16.000Z</time>
      </trkpt>
      <trkpt lat="50.8437" lon="1.5927">
        <ele>35.1</ele>
        <time>2015-04-07T15:15:17.000Z</time>
      </trkpt>
      <trkpt lat="50.8437" lon="1.59268">
        <ele>35</ele>
        <time>2015-04-07T15:15:18.000Z</time>
      </trkpt>
      <trkpt lat="50.8437" lon="1.59266">
        <ele>35</ele>
        <time>2015-04-07T15:15:19.000Z</time>
      </trkpt>
      <trkpt lat="50.84369" lon="1.59264">
        <ele>34.9</ele>
        <time>2015-04-07T15:15:20.000Z</time>
      </trkpt>
      <trkpt lat="50.84369" lon="1.59262">
        <ele>34.8</ele>
        <time>2015-04-07T15:15:21.000Z</time>
      </trkpt>
      <trkpt lat="50.84369" lon="1.5926">
        <ele>34.8</ele>
        <time>2015-04-07T15:15:22.000Z</time>
      </trkpt>
      <trkpt lat="50.84369" lon="1.59257">
        <ele>34.7</ele>
        <time>2015-04-07T15:15:23.000Z</time>
      </trkpt>
      <trkpt lat="50.84369" lon="1.59255">
        <ele>34.6</ele>
        <time>2015-04-07T15:15:24.000Z</time>
      </trkpt>
      <trkpt lat="50.84369" lon="1.59253">
        <ele>34.5</ele>
        <time>2015-04-07T15:15:25.000Z</time>
      </trkpt>
      <trkpt lat="50.84369" lon="1.59251">
        <ele>34.5</ele>
        <time>2015-04-07T15:15:26.000Z</time>
      </trkpt>
      <trkpt lat="50.84369" lon="1.59249">
        <ele>34.4</ele>
        <time>2015-04-07T15:15:27.000Z</time>
      </trkpt>
      <trkpt lat="50.84369" lon="1.59247">
        <ele>34.3</ele>
        <time>2015-04-07T15:15:28.000Z</time>
      </trkpt>
      <trkpt lat="50.84369" lon="1.59245">
        <ele>34.3</ele>
        <time>2015-04-07T15:15:29.000Z</time>
      </trkpt>
      <trkpt lat="50.84369" lon="1.59243">
        <ele>34.2</ele>
        <time>2015-04-07T15:15:30.000Z</time>
      </trkpt>
      <trkpt lat="50.84368" lon="1.59241">
        <ele>34.1</ele>
        <time>2015-04-07T15:15:31.000Z</time>
      </trkpt>
      <trkpt lat="50.84368" lon="1.59239">
        <ele>34.1</ele>
        <time>2015-04-07T15:15:32.000Z</time>
      </trkpt>
      <trkpt lat="50.84368" lon="1.59237">
        <ele>34</ele>
        <time>2015-04-07T15:15:33.000Z</time>
      </trkpt>
      <trkpt lat="50.84368" lon="1.59235">
        <ele>33.9</ele>
        <time>2015-04-07T15:15:34.000Z</time>
      </trkpt>
      <trkpt lat="50.84368" lon="1.59233">
        <ele>33.9</ele>
        <time>2015-04-07T15:15:35.000Z</time>
      </trkpt>
      <trkpt lat="50.84368" lon="1.59231">
        <ele>33.8</ele>
        <time>2015-04-07T15:15:36.000Z</time>
      </trkpt>
      <trkpt lat="50.84368" lon="1.59229">
        <ele>33.7</ele>
        <time>2015-04-07T15:15:37.000Z</time>
      </trkpt>
      <trkpt lat="50.84368" lon="1.59227">
        <ele>33.7</ele>
        <time>2015-04-07T15:15:38.000Z</time>
      </trkpt>
      <trkpt lat="50.84368" lon="1.59225">
        <ele>33.6</ele>
        <time>2015-04-07T15:15:39.000Z</time>
      </trkpt>
      <trkpt lat="50.84367" lon="1.59223">
        <ele>33.6</ele>
        <time>2015-04-07T15:15:40.000Z</time>
      </trkpt>
      <trkpt lat="50.84367" lon="1.59221">
        <ele>33.5</ele>
        <time>2015-04-07T15:15:41.000Z</time>
      </trkpt>
      <trkpt lat="50.84367" lon="1.59219">
        <ele>33.5</ele>
        <time>2015-04-07T15:15:42.000Z</time>
      </trkpt>
      <trkpt lat="50.84367" lon="1.59216">
        <ele>33.4</ele>
        <time>2015-04-07T15:15:43.000Z</time>
      </trkpt>
      <trkpt lat="50.84367" lon="1.59214">
        <ele>33.3</ele>
        <time>2015-04-07T15:15:44.000Z</time>
      </trkpt>
      <trkpt lat="50.84367" lon="1.59212">
        <ele>33.3</ele>
        <time>2015-04-07T15:15:45.000Z</time>
      </trkpt>
      <trkpt lat="50.84367" lon="1.5921">
        <ele>33.2</ele>
        <time>2015-04-07T15:15:46.000Z</time>
      </trkpt>
      <trkpt lat="50.84367" lon="1.59208">
        <ele>33.2</ele>
        <time>2015-04-07T15:15:47.000Z</time>
      </trkpt>
      <trkpt lat="50.84367" lon="1.59206">
        <ele>33.1</ele>
        <time>2015-04-07T15:15:48.000Z</time>
      </trkpt>
      <trkpt lat="50.84366" lon="1.59204">
        <ele>33.1</ele>
        <time>2015-04-07T15:15:49.000Z</time>
      </trkpt>
      <trkpt lat="50.84366" lon="1.59202">
        <ele>33</ele>
        <time>2015-04-07T15:15:50.000Z</time>
      </trkpt>
      <trkpt lat="50.84366" lon="1.592">
        <ele>33</ele>
        <time>2015-04-07T15:15:51.000Z</time>
      </trkpt>
      <trkpt lat="50.84366" lon="1.59198">
        <ele>32.9</ele>
        <time>2015-04-07T15:15:52.000Z</time>
      </trkpt>
      <trkpt lat="50.84366" lon="1.59197">
        <ele>32.9</ele>
        <time>2015-04-07T15:15:53.000Z</time>
      </trkpt>
      <trkpt lat="50.84366" lon="1.59195">
        <ele>32.8</ele>
        <time>2015-04-07T15:15:54.000Z</time>
      </trkpt>
      <trkpt lat="50.84366" lon="1.59193">
        <ele>32.8</ele>
        <time>2015-04-07T15:15:55.000Z</time>
      </trkpt>
      <trkpt lat="50.84366" lon="1.59191">
        <ele>32.7</ele>
        <time>2015-04-07T15:15:56.000Z</time>
      </trkpt>
      <trkpt lat="50.84366" lon="1.59189">
        <ele>32.6</ele>
        <time>2015-04-07T15:15:57.000Z</time>
      </trkpt>
      <trkpt lat="50.84366" lon="1.59187">
        <ele>32.6</ele>
        <time>2015-04-07T15:15:58.000Z</time>
      </trkpt>
      <trkpt lat="50.84366" lon="1.59185">
        <ele>32.5</ele>
        <time>2015-04-07T15:15:59.000Z</time>
      </trkpt>
      <trkpt lat="50.84366" lon="1.59183">
        <ele>32.4</ele>
        <time>2015-04-07T15:16:00.000Z</time>
      </trkpt>
      <trkpt lat="50.84365" lon="1.59181">
        <ele>32.4</ele>
        <time>2015-04-07T15:16:01.000Z</time>
      </trkpt>
      <trkpt lat="50.84365" lon="1.59179">
        <ele>32.3</ele>
        <time>2015-04-07T15:16:02.000Z</time>
      </trkpt>
      <trkpt lat="50.84365" lon="1.59177">
        <ele>32.2</ele>
        <time>2015-04-07T15:16:03.000Z</time>
      </trkpt>
      <trkpt lat="50.84365" lon="1.59176">
        <ele>32.2</ele>
        <time>2015-04-07T15:16:04.000Z</time>
      </trkpt>
      <trkpt lat="50.84365" lon="1.59174">
        <ele>32.1</ele>
        <time>2015-04-07T15:16:05.000Z</time>
      </trkpt>
      <trkpt lat="50.84365" lon="1.59172">
        <ele>32</ele>
        <time>2015-04-07T15:16:06.000Z</time>
      </trkpt>
      <trkpt lat="50.84365" lon="1.5917">
        <ele>32</ele>
        <time>2015-04-07T15:16:07.000Z</time>
      </trkpt>
      <trkpt lat="50.84365" lon="1.59168">
        <ele>31.9</ele>
        <time>2015-04-07T15:16:08.000Z</time>
      </trkpt>
      <trkpt lat="50.84365" lon="1.59166">
        <ele>31.9</ele>
        <time>2015-04-07T15:16:09.000Z</time>
      </trkpt>
      <trkpt lat="50.84364" lon="1.59164">
        <ele>31.9</ele>
        <time>2015-04-07T15:16:10.000Z</time>
      </trkpt>
      <trkpt lat="50.84364" lon="1.59161">
        <ele>31.9</ele>
        <time>2015-04-07T15:16:11.000Z</time>
      </trkpt>
      <trkpt lat="50.84364" lon="1.59159">
        <ele>31.9</ele>
        <time>2015-04-07T15:16:12.000Z</time>
      </trkpt>
      <trkpt lat="50.84364" lon="1.59157">
        <ele>31.9</ele>
        <time>2015-04-07T15:16:13.000Z</time>
      </trkpt>
      <trkpt lat="50.84364" lon="1.59155">
        <ele>31.9</ele>
        <time>2015-04-07T15:16:14.000Z</time>
      </trkpt>
      <trkpt lat="50.84364" lon="1.59154">
        <ele>31.9</ele>
        <time>2015-04-07T15:16:15.000Z</time>
      </trkpt>
      <trkpt lat="50.84364" lon="1.59152">
        <ele>31.9</ele>
        <time>2015-04-07T15:16:16.000Z</time>
      </trkpt>
      <trkpt lat="50.84364" lon="1.5915">
        <ele>31.9</ele>
        <time>2015-04-07T15:16:17.000Z</time>
      </trkpt>
      <trkpt lat="50.84364" lon="1.59148">
        <ele>31.9</ele>
        <time>2015-04-07T15:16:18.000Z</time>
      </trkpt>
      <trkpt lat="50.84364" lon="1.59146">
        <ele>31.9</ele>
        <time>2015-04-07T15:16:19.000Z</time>
      </trkpt>
      <trkpt lat="50.84364" lon="1.59145">
        <ele>31.9</ele>
        <time>2015-04-07T15:16:20.000Z</time>
      </trkpt>
      <trkpt lat="50.84364" lon="1.59143">
        <ele>31.9</ele>
        <time>2015-04-07T15:16:21.000Z</time>
      </trkpt>
      <trkpt lat="50.84364" lon="1.59141">
        <ele>31.9</ele>
        <time>2015-04-07T15:16:22.000Z</time>
      </trkpt>
      <trkpt lat="50.84364" lon="1.59139">
        <ele>31.9</ele>
        <time>2015-04-07T15:16:23.000Z</time>
      </trkpt>
      <trkpt lat="50.84364" lon="1.59137">
        <ele>31.8</ele>
        <time>2015-04-07T15:16:24.000Z</time>
      </trkpt>
      <trkpt lat="50.84364" lon="1.59135">
        <ele>31.8</ele>
        <time>2015-04-07T15:16:25.000Z</time>
      </trkpt>
      <trkpt lat="50.84364" lon="1.59133">
        <ele>31.7</ele>
        <time>2015-04-07T15:16:26.000Z</time>
      </trkpt>
      <trkpt lat="50.84364" lon="1.59131">
        <ele>31.6</ele>
        <time>2015-04-07T15:16:27.000Z</time>
      </trkpt>
      <trkpt lat="50.84364" lon="1.59129">
        <ele>31.5</ele>
        <time>2015-04-07T15:16:28.000Z</time>
      </trkpt>
      <trkpt lat="50.84363" lon="1.59127">
        <ele>31.5</ele>
        <time>2015-04-07T15:16:29.000Z</time>
      </trkpt>
      <trkpt lat="50.84363" lon="1.59125">
        <ele>31.4</ele>
        <time>2015-04-07T15:16:30.000Z</time>
      </trkpt>
      <trkpt lat="50.84363" lon="1.59123">
        <ele>31.3</ele>
        <time>2015-04-07T15:16:31.000Z</time>
      </trkpt>
      <trkpt lat="50.84363" lon="1.59121">
        <ele>31.3</ele>
        <time>2015-04-07T15:16:32.000Z</time>
      </trkpt>
      <trkpt lat="50.84363" lon="1.59119">
        <ele>31.2</ele>
        <time>2015-04-07T15:16:33.000Z</time>
      </trkpt>
      <trkpt lat="50.84363" lon="1.59117">
        <ele>31.1</ele>
        <time>2015-04-07T15:16:34.000Z</time>
      </trkpt>
      <trkpt lat="50.84363" lon="1.59115">
        <ele>31.1</ele>
        <time>2015-04-07T15:16:35.000Z</time>
      </trkpt>
      <trkpt lat="50.84363" lon="1.59113">
        <ele>31</ele>
        <time>2015-04-07T15:16:36.000Z</time>
      </trkpt>
      <trkpt lat="50.84363" lon="1.59111">
        <ele>30.9</ele>
        <time>2015-04-07T15:16:37.000Z</time>
      </trkpt>
      <trkpt lat="50.84363" lon="1.59109">
        <ele>30.9</ele>
        <time>2015-04-07T15:16:38.000Z</time>
      </trkpt>
      <trkpt lat="50.84362" lon="1.59107">
        <ele>30.8</ele>
        <time>2015-04-07T15:16:39.000Z</time>
      </trkpt>
      <trkpt lat="50.84362" lon="1.59105">
        <ele>30.7</ele>
        <time>2015-04-07T15:16:40.000Z</time>
      </trkpt>
      <trkpt lat="50.84362" lon="1.59103">
        <ele>30.7</ele>
        <time>2015-04-07T15:16:41.000Z</time>
      </trkpt>
      <trkpt lat="50.84362" lon="1.59101">
        <ele>30.6</ele>
        <time>2015-04-07T15:16:42.000Z</time>
      </trkpt>
      <trkpt lat="50.84362" lon="1.59099">
        <ele>30.5</ele>
        <time>2015-04-07T15:16:43.000Z</time>
      </trkpt>
      <trkpt lat="50.84362" lon="1.59097">
        <ele>30.5</ele>
        <time>2015-04-07T15:16:44.000Z</time>
      </trkpt>
      <trkpt lat="50.84362" lon="1.59095">
        <ele>30.4</ele>
        <time>2015-04-07T15:16:45.000Z</time>
      </trkpt>
      <trkpt lat="50.84362" lon="1.59093">
        <ele>30.3</ele>
        <time>2015-04-07T15:16:46.000Z</time>
      </trkpt>
      <trkpt lat="50.84361" lon="1.59091">
        <ele>30.3</ele>
        <time>2015-04-07T15:16:47.000Z</time>
      </trkpt>
      <trkpt lat="50.84361" lon="1.59089">
        <ele>30.2</ele>
        <time>2015-04-07T15:16:48.000Z</time>
      </trkpt>
      <trkpt lat="50.84361" lon="1.59087">
        <ele>30.1</ele>
        <time>2015-04-07T15:16:49.000Z</time>
      </trkpt>
      <trkpt lat="50.84361" lon="1.59085">
        <ele>30</ele>
        <time>2015-04-07T15:16:50.000Z</time>
      </trkpt>
      <trkpt lat="50.84361" lon="1.59083">
        <ele>30</ele>
        <time>2015-04-07T15:16:51.000Z</time>
      </trkpt>
      <trkpt lat="50.84361" lon="1.59081">
        <ele>30</ele>
        <time>2015-04-07T15:16:52.000Z</time>
      </trkpt>
      <trkpt lat="50.84361" lon="1.59079">
        <ele>30</ele>
        <time>2015-04-07T15:16:53.000Z</time>
      </trkpt>
      <trkpt lat="50.84361" lon="1.59076">
        <ele>30</ele>
        <time>2015-04-07T15:16:54.000Z</time>
      </trkpt>
      <trkpt lat="50.84361" lon="1.59075">
        <ele>30.1</ele>
        <time>2015-04-07T15:16:55.000Z</time>
      </trkpt>
      <trkpt lat="50.84361" lon="1.59073">
        <ele>30.1</ele>
        <time>2015-04-07T15:16:56.000Z</time>
      </trkpt>
      <trkpt lat="50.84361" lon="1.59071">
        <ele>30.1</ele>
        <time>2015-04-07T15:16:57.000Z</time>
      </trkpt>
      <trkpt lat="50.84361" lon="1.59069">
        <ele>30</ele>
        <time>2015-04-07T15:16:58.000Z</time>
      </trkpt>
      <trkpt lat="50.84361" lon="1.59067">
        <ele>30.1</ele>
        <time>2015-04-07T15:16:59.000Z</time>
      </trkpt>
      <trkpt lat="50.84361" lon="1.59065">
        <ele>30.1</ele>
        <time>2015-04-07T15:17:00.000Z</time>
      </trkpt>
      <trkpt lat="50.84361" lon="1.59063">
        <ele>30.1</ele>
        <time>2015-04-07T15:17:01.000Z</time>
      </trkpt>
      <trkpt lat="50.84361" lon="1.59061">
        <ele>30.1</ele>
        <time>2015-04-07T15:17:02.000Z</time>
      </trkpt>
      <trkpt lat="50.84361" lon="1.59059">
        <ele>30.1</ele>
        <time>2015-04-07T15:17:03.000Z</time>
      </trkpt>
      <trkpt lat="50.84361" lon="1.59058">
        <ele>30</ele>
        <time>2015-04-07T15:17:04.000Z</time>
      </trkpt>
      <trkpt lat="50.84361" lon="1.59056">
        <ele>30</ele>
        <time>2015-04-07T15:17:05.000Z</time>
      </trkpt>
      <trkpt lat="50.84361" lon="1.59054">
        <ele>30.1</ele>
        <time>2015-04-07T15:17:06.000Z</time>
      </trkpt>
      <trkpt lat="50.84361" lon="1.59052">
        <ele>30.1</ele>
        <time>2015-04-07T15:17:07.000Z</time>
      </trkpt>
      <trkpt lat="50.8436" lon="1.5905">
        <ele>30.1</ele>
        <time>2015-04-07T15:17:08.000Z</time>
      </trkpt>
      <trkpt lat="50.8436" lon="1.59048">
        <ele>30.1</ele>
        <time>2015-04-07T15:17:09.000Z</time>
      </trkpt>
      <trkpt lat="50.8436" lon="1.59046">
        <ele>30.1</ele>
        <time>2015-04-07T15:17:10.000Z</time>
      </trkpt>
      <trkpt lat="50.8436" lon="1.59044">
        <ele>30.1</ele>
        <time>2015-04-07T15:17:11.000Z</time>
      </trkpt>
      <trkpt lat="50.8436" lon="1.59043">
        <ele>30.1</ele>
        <time>2015-04-07T15:17:12.000Z</time>
      </trkpt>
      <trkpt lat="50.8436" lon="1.59041">
        <ele>30.1</ele>
        <time>2015-04-07T15:17:13.000Z</time>
      </trkpt>
      <trkpt lat="50.8436" lon="1.59039">
        <ele>30.2</ele>
        <time>2015-04-07T15:17:14.000Z</time>
      </trkpt>
      <trkpt lat="50.84359" lon="1.59036">
        <ele>30.2</ele>
        <time>2015-04-07T15:17:15.000Z</time>
      </trkpt>
      <trkpt lat="50.84359" lon="1.59034">
        <ele>30.2</ele>
        <time>2015-04-07T15:17:16.000Z</time>
      </trkpt>
      <trkpt lat="50.84359" lon="1.59032">
        <ele>30.2</ele>
        <time>2015-04-07T15:17:17.000Z</time>
      </trkpt>
      <trkpt lat="50.84359" lon="1.5903">
        <ele>30.2</ele>
        <time>2015-04-07T15:17:18.000Z</time>
      </trkpt>
      <trkpt lat="50.84359" lon="1.59028">
        <ele>30.2</ele>
        <time>2015-04-07T15:17:19.000Z</time>
      </trkpt>
      <trkpt lat="50.84359" lon="1.59027">
        <ele>30.2</ele>
        <time>2015-04-07T15:17:20.000Z</time>
      </trkpt>
      <trkpt lat="50.84359" lon="1.59025">
        <ele>30.2</ele>
        <time>2015-04-07T15:17:21.000Z</time>
      </trkpt>
      <trkpt lat="50.84359" lon="1.59023">
        <ele>30.1</ele>
        <time>2015-04-07T15:17:22.000Z</time>
      </trkpt>
      <trkpt lat="50.84359" lon="1.59021">
        <ele>30</ele>
        <time>2015-04-07T15:17:23.000Z</time>
      </trkpt>
      <trkpt lat="50.84359" lon="1.59019">
        <ele>30</ele>
        <time>2015-04-07T15:17:24.000Z</time>
      </trkpt>
      <trkpt lat="50.84359" lon="1.59017">
        <ele>29.9</ele>
        <time>2015-04-07T15:17:25.000Z</time>
      </trkpt>
      <trkpt lat="50.84359" lon="1.59015">
        <ele>29.9</ele>
        <time>2015-04-07T15:17:26.000Z</time>
      </trkpt>
      <trkpt lat="50.84359" lon="1.59013">
        <ele>29.8</ele>
        <time>2015-04-07T15:17:27.000Z</time>
      </trkpt>
      <trkpt lat="50.84359" lon="1.59011">
        <ele>29.7</ele>
        <time>2015-04-07T15:17:28.000Z</time>
      </trkpt>
      <trkpt lat="50.84359" lon="1.59009">
        <ele>29.7</ele>
        <time>2015-04-07T15:17:29.000Z</time>
      </trkpt>
      <trkpt lat="50.84359" lon="1.59007">
        <ele>29.6</ele>
        <time>2015-04-07T15:17:30.000Z</time>
      </trkpt>
      <trkpt lat="50.84358" lon="1.59005">
        <ele>29.5</ele>
        <time>2015-04-07T15:17:31.000Z</time>
      </trkpt>
      <trkpt lat="50.84358" lon="1.59003">
        <ele>29.5</ele>
        <time>2015-04-07T15:17:32.000Z</time>
      </trkpt>
      <trkpt lat="50.84358" lon="1.59001">
        <ele>29.4</ele>
        <time>2015-04-07T15:17:33.000Z</time>
      </trkpt>
      <trkpt lat="50.84359" lon="1.58999">
        <ele>29.4</ele>
        <time>2015-04-07T15:17:34.000Z</time>
      </trkpt>
      <trkpt lat="50.84358" lon="1.58997">
        <ele>29.4</ele>
        <time>2015-04-07T15:17:35.000Z</time>
      </trkpt>
      <trkpt lat="50.84358" lon="1.58995">
        <ele>29.4</ele>
        <time>2015-04-07T15:17:36.000Z</time>
      </trkpt>
      <trkpt lat="50.84358" lon="1.58993">
        <ele>29.4</ele>
        <time>2015-04-07T15:17:37.000Z</time>
      </trkpt>
      <trkpt lat="50.84358" lon="1.58991">
        <ele>29.4</ele>
        <time>2015-04-07T15:17:38.000Z</time>
      </trkpt>
      <trkpt lat="50.84358" lon="1.58989">
        <ele>29.4</ele>
        <time>2015-04-07T15:17:39.000Z</time>
      </trkpt>
      <trkpt lat="50.84358" lon="1.58987">
        <ele>29.4</ele>
        <time>2015-04-07T15:17:40.000Z</time>
      </trkpt>
      <trkpt lat="50.84358" lon="1.58985">
        <ele>29.4</ele>
        <time>2015-04-07T15:17:41.000Z</time>
      </trkpt>
      <trkpt lat="50.84358" lon="1.58983">
        <ele>29.4</ele>
        <time>2015-04-07T15:17:42.000Z</time>
      </trkpt>
      <trkpt lat="50.84358" lon="1.58981">
        <ele>29.4</ele>
        <time>2015-04-07T15:17:43.000Z</time>
      </trkpt>
      <trkpt lat="50.84358" lon="1.5898">
        <ele>29.4</ele>
        <time>2015-04-07T15:17:44.000Z</time>
      </trkpt>
      <trkpt lat="50.84357" lon="1.58978">
        <ele>29.4</ele>
        <time>2015-04-07T15:17:45.000Z</time>
      </trkpt>
      <trkpt lat="50.84357" lon="1.58976">
        <ele>29.4</ele>
        <time>2015-04-07T15:17:46.000Z</time>
      </trkpt>
      <trkpt lat="50.84357" lon="1.58974">
        <ele>29.4</ele>
        <time>2015-04-07T15:17:47.000Z</time>
      </trkpt>
      <trkpt lat="50.84357" lon="1.58972">
        <ele>29.4</ele>
        <time>2015-04-07T15:17:48.000Z</time>
      </trkpt>
      <trkpt lat="50.84358" lon="1.5897">
        <ele>29.3</ele>
        <time>2015-04-07T15:17:49.000Z</time>
      </trkpt>
      <trkpt lat="50.84358" lon="1.58968">
        <ele>29.3</ele>
        <time>2015-04-07T15:17:50.000Z</time>
      </trkpt>
      <trkpt lat="50.84358" lon="1.58966">
        <ele>29.2</ele>
        <time>2015-04-07T15:17:51.000Z</time>
      </trkpt>
      <trkpt lat="50.84358" lon="1.58964">
        <ele>29.1</ele>
        <time>2015-04-07T15:17:52.000Z</time>
      </trkpt>
      <trkpt lat="50.84358" lon="1.58962">
        <ele>29</ele>
        <time>2015-04-07T15:17:53.000Z</time>
      </trkpt>
      <trkpt lat="50.84358" lon="1.5896">
        <ele>29</ele>
        <time>2015-04-07T15:17:54.000Z</time>
      </trkpt>
      <trkpt lat="50.84358" lon="1.58958">
        <ele>28.9</ele>
        <time>2015-04-07T15:17:55.000Z</time>
      </trkpt>
      <trkpt lat="50.84358" lon="1.58956">
        <ele>28.9</ele>
        <time>2015-04-07T15:17:56.000Z</time>
      </trkpt>
      <trkpt lat="50.84358" lon="1.58954">
        <ele>28.8</ele>
        <time>2015-04-07T15:17:57.000Z</time>
      </trkpt>
      <trkpt lat="50.84358" lon="1.58952">
        <ele>28.7</ele>
        <time>2015-04-07T15:17:58.000Z</time>
      </trkpt>
      <trkpt lat="50.84357" lon="1.5895">
        <ele>28.7</ele>
        <time>2015-04-07T15:17:59.000Z</time>
      </trkpt>
      <trkpt lat="50.84357" lon="1.58948">
        <ele>28.7</ele>
        <time>2015-04-07T15:18:00.000Z</time>
      </trkpt>
      <trkpt lat="50.84357" lon="1.58946">
        <ele>28.6</ele>
        <time>2015-04-07T15:18:01.000Z</time>
      </trkpt>
      <trkpt lat="50.84357" lon="1.58944">
        <ele>28.6</ele>
        <time>2015-04-07T15:18:02.000Z</time>
      </trkpt>
      <trkpt lat="50.84357" lon="1.58942">
        <ele>28.5</ele>
        <time>2015-04-07T15:18:03.000Z</time>
      </trkpt>
      <trkpt lat="50.84357" lon="1.5894">
        <ele>28.5</ele>
        <time>2015-04-07T15:18:04.000Z</time>
      </trkpt>
      <trkpt lat="50.84357" lon="1.58937">
        <ele>28.4</ele>
        <time>2015-04-07T15:18:05.000Z</time>
      </trkpt>
      <trkpt lat="50.84357" lon="1.58935">
        <ele>28.3</ele>
        <time>2015-04-07T15:18:06.000Z</time>
      </trkpt>
      <trkpt lat="50.84356" lon="1.58933">
        <ele>28.3</ele>
        <time>2015-04-07T15:18:07.000Z</time>
      </trkpt>
      <trkpt lat="50.84356" lon="1.58931">
        <ele>28.2</ele>
        <time>2015-04-07T15:18:08.000Z</time>
      </trkpt>
      <trkpt lat="50.84356" lon="1.58929">
        <ele>28.2</ele>
        <time>2015-04-07T15:18:09.000Z</time>
      </trkpt>
      <trkpt lat="50.84356" lon="1.58927">
        <ele>28.1</ele>
        <time>2015-04-07T15:18:10.000Z</time>
      </trkpt>
      <trkpt lat="50.84356" lon="1.58925">
        <ele>28.1</ele>
        <time>2015-04-07T15:18:11.000Z</time>
      </trkpt>
      <trkpt lat="50.84356" lon="1.58923">
        <ele>28</ele>
        <time>2015-04-07T15:18:12.000Z</time>
      </trkpt>
      <trkpt lat="50.84356" lon="1.58921">
        <ele>28</ele>
        <time>2015-04-07T15:18:13.000Z</time>
      </trkpt>
      <trkpt lat="50.84355" lon="1.58919">
        <ele>27.9</ele>
        <time>2015-04-07T15:18:14.000Z</time>
      </trkpt>
      <trkpt lat="50.84355" lon="1.58917">
        <ele>27.9</ele>
        <time>2015-04-07T15:18:15.000Z</time>
      </trkpt>
      <trkpt lat="50.84355" lon="1.58915">
        <ele>27.8</ele>
        <time>2015-04-07T15:18:16.000Z</time>
      </trkpt>
      <trkpt lat="50.84355" lon="1.58913">
        <ele>27.7</ele>
        <time>2015-04-07T15:18:17.000Z</time>
      </trkpt>
      <trkpt lat="50.84355" lon="1.58911">
        <ele>27.6</ele>
        <time>2015-04-07T15:18:18.000Z</time>
      </trkpt>
      <trkpt lat="50.84355" lon="1.58908">
        <ele>27.6</ele>
        <time>2015-04-07T15:18:19.000Z</time>
      </trkpt>
      <trkpt lat="50.84355" lon="1.58906">
        <ele>27.5</ele>
        <time>2015-04-07T15:18:20.000Z</time>
      </trkpt>
      <trkpt lat="50.84355" lon="1.58904">
        <ele>27.4</ele>
        <time>2015-04-07T15:18:21.000Z</time>
      </trkpt>
      <trkpt lat="50.84354" lon="1.58902">
        <ele>27.3</ele>
        <time>2015-04-07T15:18:22.000Z</time>
      </trkpt>
      <trkpt lat="50.84354" lon="1.589">
        <ele>27.2</ele>
        <time>2015-04-07T15:18:23.000Z</time>
      </trkpt>
      <trkpt lat="50.84354" lon="1.58898">
        <ele>27.2</ele>
        <time>2015-04-07T15:18:24.000Z</time>
      </trkpt>
      <trkpt lat="50.84354" lon="1.58896">
        <ele>27.1</ele>
        <time>2015-04-07T15:18:25.000Z</time>
      </trkpt>
      <trkpt lat="50.84353" lon="1.58894">
        <ele>27.1</ele>
        <time>2015-04-07T15:18:26.000Z</time>
      </trkpt>
      <trkpt lat="50.84353" lon="1.58892">
        <ele>27</ele>
        <time>2015-04-07T15:18:27.000Z</time>
      </trkpt>
      <trkpt lat="50.84353" lon="1.5889">
        <ele>26.9</ele>
        <time>2015-04-07T15:18:28.000Z</time>
      </trkpt>
      <trkpt lat="50.84353" lon="1.58888">
        <ele>26.8</ele>
        <time>2015-04-07T15:18:29.000Z</time>
      </trkpt>
      <trkpt lat="50.84353" lon="1.58886">
        <ele>26.8</ele>
        <time>2015-04-07T15:18:30.000Z</time>
      </trkpt>
      <trkpt lat="50.84352" lon="1.58884">
        <ele>26.7</ele>
        <time>2015-04-07T15:18:31.000Z</time>
      </trkpt>
      <trkpt lat="50.84352" lon="1.58882">
        <ele>26.6</ele>
        <time>2015-04-07T15:18:32.000Z</time>
      </trkpt>
      <trkpt lat="50.84352" lon="1.5888">
        <ele>26.5</ele>
        <time>2015-04-07T15:18:33.000Z</time>
      </trkpt>
      <trkpt lat="50.84352" lon="1.58878">
        <ele>26.5</ele>
        <time>2015-04-07T15:18:34.000Z</time>
      </trkpt>
      <trkpt lat="50.84352" lon="1.58876">
        <ele>26.4</ele>
        <time>2015-04-07T15:18:35.000Z</time>
      </trkpt>
      <trkpt lat="50.84353" lon="1.58874">
        <ele>26.2</ele>
        <time>2015-04-07T15:18:36.000Z</time>
      </trkpt>
      <trkpt lat="50.84353" lon="1.58872">
        <ele>26.1</ele>
        <time>2015-04-07T15:18:37.000Z</time>
      </trkpt>
      <trkpt lat="50.84353" lon="1.5887">
        <ele>26</ele>
        <time>2015-04-07T15:18:38.000Z</time>
      </trkpt>
      <trkpt lat="50.84353" lon="1.58868">
        <ele>25.9</ele>
        <time>2015-04-07T15:18:39.000Z</time>
      </trkpt>
      <trkpt lat="50.84353" lon="1.58866">
        <ele>25.8</ele>
        <time>2015-04-07T15:18:40.000Z</time>
      </trkpt>
      <trkpt lat="50.84353" lon="1.58864">
        <ele>25.7</ele>
        <time>2015-04-07T15:18:41.000Z</time>
      </trkpt>
      <trkpt lat="50.84353" lon="1.58862">
        <ele>25.6</ele>
        <time>2015-04-07T15:18:42.000Z</time>
      </trkpt>
      <trkpt lat="50.84353" lon="1.58859">
        <ele>25.5</ele>
        <time>2015-04-07T15:18:43.000Z</time>
      </trkpt>
      <trkpt lat="50.84353" lon="1.58857">
        <ele>25.5</ele>
        <time>2015-04-07T15:18:44.000Z</time>
      </trkpt>
      <trkpt lat="50.84353" lon="1.58855">
        <ele>25.4</ele>
        <time>2015-04-07T15:18:45.000Z</time>
      </trkpt>
      <trkpt lat="50.84353" lon="1.58853">
        <ele>25.3</ele>
        <time>2015-04-07T15:18:46.000Z</time>
      </trkpt>
      <trkpt lat="50.84353" lon="1.58851">
        <ele>25.2</ele>
        <time>2015-04-07T15:18:47.000Z</time>
      </trkpt>
      <trkpt lat="50.84353" lon="1.58849">
        <ele>25.1</ele>
        <time>2015-04-07T15:18:48.000Z</time>
      </trkpt>
      <trkpt lat="50.84353" lon="1.58847">
        <ele>25.1</ele>
        <time>2015-04-07T15:18:49.000Z</time>
      </trkpt>
      <trkpt lat="50.84353" lon="1.58845">
        <ele>25</ele>
        <time>2015-04-07T15:18:50.000Z</time>
      </trkpt>
      <trkpt lat="50.84353" lon="1.58843">
        <ele>24.9</ele>
        <time>2015-04-07T15:18:51.000Z</time>
      </trkpt>
      <trkpt lat="50.84353" lon="1.58841">
        <ele>24.8</ele>
        <time>2015-04-07T15:18:52.000Z</time>
      </trkpt>
      <trkpt lat="50.84354" lon="1.58839">
        <ele>24.7</ele>
        <time>2015-04-07T15:18:53.000Z</time>
      </trkpt>
      <trkpt lat="50.84354" lon="1.58837">
        <ele>24.7</ele>
        <time>2015-04-07T15:18:54.000Z</time>
      </trkpt>
      <trkpt lat="50.84354" lon="1.58834">
        <ele>24.6</ele>
        <time>2015-04-07T15:18:55.000Z</time>
      </trkpt>
      <trkpt lat="50.84354" lon="1.58832">
        <ele>24.5</ele>
        <time>2015-04-07T15:18:56.000Z</time>
      </trkpt>
      <trkpt lat="50.84354" lon="1.5883">
        <ele>24.5</ele>
        <time>2015-04-07T15:18:57.000Z</time>
      </trkpt>
      <trkpt lat="50.84354" lon="1.58828">
        <ele>24.5</ele>
        <time>2015-04-07T15:18:58.000Z</time>
      </trkpt>
      <trkpt lat="50.84354" lon="1.58826">
        <ele>24.5</ele>
        <time>2015-04-07T15:18:59.000Z</time>
      </trkpt>
      <trkpt lat="50.84354" lon="1.58825">
        <ele>24.5</ele>
        <time>2015-04-07T15:19:00.000Z</time>
      </trkpt>
      <trkpt lat="50.84355" lon="1.58823">
        <ele>24.5</ele>
        <time>2015-04-07T15:19:01.000Z</time>
      </trkpt>
      <trkpt lat="50.84355" lon="1.58821">
        <ele>24.4</ele>
        <time>2015-04-07T15:19:02.000Z</time>
      </trkpt>
      <trkpt lat="50.84355" lon="1.58819">
        <ele>24.4</ele>
        <time>2015-04-07T15:19:03.000Z</time>
      </trkpt>
      <trkpt lat="50.84356" lon="1.58817">
        <ele>24.4</ele>
        <time>2015-04-07T15:19:04.000Z</time>
      </trkpt>
      <trkpt lat="50.84356" lon="1.58815">
        <ele>24.4</ele>
        <time>2015-04-07T15:19:05.000Z</time>
      </trkpt>
      <trkpt lat="50.84357" lon="1.58813">
        <ele>24.3</ele>
        <time>2015-04-07T15:19:06.000Z</time>
      </trkpt>
      <trkpt lat="50.84357" lon="1.58811">
        <ele>24.3</ele>
        <time>2015-04-07T15:19:07.000Z</time>
      </trkpt>
      <trkpt lat="50.84357" lon="1.58809">
        <ele>24.3</ele>
        <time>2015-04-07T15:19:08.000Z</time>
      </trkpt>
      <trkpt lat="50.84357" lon="1.58807">
        <ele>24.3</ele>
        <time>2015-04-07T15:19:09.000Z</time>
      </trkpt>
      <trkpt lat="50.84358" lon="1.58806">
        <ele>24.2</ele>
        <time>2015-04-07T15:19:10.000Z</time>
      </trkpt>
      <trkpt lat="50.84358" lon="1.58804">
        <ele>24.2</ele>
        <time>2015-04-07T15:19:11.000Z</time>
      </trkpt>
      <trkpt lat="50.84359" lon="1.58802">
        <ele>24.2</ele>
        <time>2015-04-07T15:19:12.000Z</time>
      </trkpt>
      <trkpt lat="50.84359" lon="1.588">
        <ele>24.2</ele>
        <time>2015-04-07T15:19:13.000Z</time>
      </trkpt>
      <trkpt lat="50.84359" lon="1.58798">
        <ele>24.2</ele>
        <time>2015-04-07T15:19:14.000Z</time>
      </trkpt>
      <trkpt lat="50.84359" lon="1.58796">
        <ele>24.2</ele>
        <time>2015-04-07T15:19:15.000Z</time>
      </trkpt>
      <trkpt lat="50.8436" lon="1.58795">
        <ele>24.1</ele>
        <time>2015-04-07T15:19:16.000Z</time>
      </trkpt>
      <trkpt lat="50.8436" lon="1.58793">
        <ele>24.1</ele>
        <time>2015-04-07T15:19:17.000Z</time>
      </trkpt>
      <trkpt lat="50.8436" lon="1.58791">
        <ele>24.1</ele>
        <time>2015-04-07T15:19:18.000Z</time>
      </trkpt>
      <trkpt lat="50.8436" lon="1.58789">
        <ele>24.1</ele>
        <time>2015-04-07T15:19:19.000Z</time>
      </trkpt>
      <trkpt lat="50.8436" lon="1.58787">
        <ele>24.1</ele>
        <time>2015-04-07T15:19:20.000Z</time>
      </trkpt>
      <trkpt lat="50.84361" lon="1.58785">
        <ele>24.1</ele>
        <time>2015-04-07T15:19:21.000Z</time>
      </trkpt>
      <trkpt lat="50.84361" lon="1.58783">
        <ele>24.1</ele>
        <time>2015-04-07T15:19:22.000Z</time>
      </trkpt>
      <trkpt lat="50.84361" lon="1.58781">
        <ele>24</ele>
        <time>2015-04-07T15:19:23.000Z</time>
      </trkpt>
      <trkpt lat="50.84361" lon="1.58779">
        <ele>24</ele>
        <time>2015-04-07T15:19:24.000Z</time>
      </trkpt>
      <trkpt lat="50.84361" lon="1.58777">
        <ele>24</ele>
        <time>2015-04-07T15:19:25.000Z</time>
      </trkpt>
      <trkpt lat="50.84361" lon="1.58775">
        <ele>24</ele>
        <time>2015-04-07T15:19:26.000Z</time>
      </trkpt>
      <trkpt lat="50.84361" lon="1.58773">
        <ele>23.9</ele>
        <time>2015-04-07T15:19:27.000Z</time>
      </trkpt>
      <trkpt lat="50.84362" lon="1.58771">
        <ele>23.9</ele>
        <time>2015-04-07T15:19:28.000Z</time>
      </trkpt>
      <trkpt lat="50.84362" lon="1.58769">
        <ele>23.9</ele>
        <time>2015-04-07T15:19:29.000Z</time>
      </trkpt>
      <trkpt lat="50.84362" lon="1.58767">
        <ele>23.8</ele>
        <time>2015-04-07T15:19:30.000Z</time>
      </trkpt>
      <trkpt lat="50.84362" lon="1.58765">
        <ele>23.8</ele>
        <time>2015-04-07T15:19:31.000Z</time>
      </trkpt>
      <trkpt lat="50.84363" lon="1.58764">
        <ele>23.7</ele>
        <time>2015-04-07T15:19:32.000Z</time>
      </trkpt>
      <trkpt lat="50.84363" lon="1.58762">
        <ele>23.7</ele>
        <time>2015-04-07T15:19:33.000Z</time>
      </trkpt>
      <trkpt lat="50.84363" lon="1.5876">
        <ele>23.7</ele>
        <time>2015-04-07T15:19:34.000Z</time>
      </trkpt>
      <trkpt lat="50.84363" lon="1.58758">
        <ele>23.6</ele>
        <time>2015-04-07T15:19:35.000Z</time>
      </trkpt>
      <trkpt lat="50.84364" lon="1.58756">
        <ele>23.6</ele>
        <time>2015-04-07T15:19:36.000Z</time>
      </trkpt>
      <trkpt lat="50.84364" lon="1.58754">
        <ele>23.6</ele>
        <time>2015-04-07T15:19:37.000Z</time>
      </trkpt>
      <trkpt lat="50.84364" lon="1.58752">
        <ele>23.5</ele>
        <time>2015-04-07T15:19:38.000Z</time>
      </trkpt>
      <trkpt lat="50.84365" lon="1.5875">
        <ele>23.5</ele>
        <time>2015-04-07T15:19:39.000Z</time>
      </trkpt>
      <trkpt lat="50.84365" lon="1.58748">
        <ele>23.5</ele>
        <time>2015-04-07T15:19:40.000Z</time>
      </trkpt>
      <trkpt lat="50.84365" lon="1.58746">
        <ele>23.4</ele>
        <time>2015-04-07T15:19:41.000Z</time>
      </trkpt>
      <trkpt lat="50.84365" lon="1.58744">
        <ele>23.4</ele>
        <time>2015-04-07T15:19:42.000Z</time>
      </trkpt>
      <trkpt lat="50.84366" lon="1.58742">
        <ele>23.4</ele>
        <time>2015-04-07T15:19:43.000Z</time>
      </trkpt>
      <trkpt lat="50.84366" lon="1.5874">
        <ele>23.3</ele>
        <time>2015-04-07T15:19:44.000Z</time>
      </trkpt>
      <trkpt lat="50.84366" lon="1.58738">
        <ele>23.3</ele>
        <time>2015-04-07T15:19:45.000Z</time>
      </trkpt>
      <trkpt lat="50.84367" lon="1.58736">
        <ele>23.3</ele>
        <time>2015-04-07T15:19:46.000Z</time>
      </trkpt>
      <trkpt lat="50.84367" lon="1.58735">
        <ele>23.3</ele>
        <time>2015-04-07T15:19:47.000Z</time>
      </trkpt>
      <trkpt lat="50.84367" lon="1.58733">
        <ele>23.2</ele>
        <time>2015-04-07T15:19:48.000Z</time>
      </trkpt>
      <trkpt lat="50.84368" lon="1.58731">
        <ele>23.2</ele>
        <time>2015-04-07T15:19:49.000Z</time>
      </trkpt>
      <trkpt lat="50.84368" lon="1.58729">
        <ele>23.2</ele>
        <time>2015-04-07T15:19:50.000Z</time>
      </trkpt>
      <trkpt lat="50.84368" lon="1.58727">
        <ele>23.2</ele>
        <time>2015-04-07T15:19:51.000Z</time>
      </trkpt>
      <trkpt lat="50.84369" lon="1.58725">
        <ele>23.1</ele>
        <time>2015-04-07T15:19:52.000Z</time>
      </trkpt>
      <trkpt lat="50.84369" lon="1.58723">
        <ele>23.1</ele>
        <time>2015-04-07T15:19:53.000Z</time>
      </trkpt>
      <trkpt lat="50.8437" lon="1.58721">
        <ele>23</ele>
        <time>2015-04-07T15:19:54.000Z</time>
      </trkpt>
      <trkpt lat="50.8437" lon="1.58719">
        <ele>22.9</ele>
        <time>2015-04-07T15:19:55.000Z</time>
      </trkpt>
      <trkpt lat="50.84371" lon="1.58717">
        <ele>22.8</ele>
        <time>2015-04-07T15:19:56.000Z</time>
      </trkpt>
      <trkpt lat="50.84371" lon="1.58716">
        <ele>22.7</ele>
        <time>2015-04-07T15:19:57.000Z</time>
      </trkpt>
      <trkpt lat="50.84371" lon="1.58714">
        <ele>22.6</ele>
        <time>2015-04-07T15:19:58.000Z</time>
      </trkpt>
      <trkpt lat="50.84372" lon="1.58713">
        <ele>22.5</ele>
        <time>2015-04-07T15:19:59.000Z</time>
      </trkpt>
      <trkpt lat="50.84372" lon="1.58711">
        <ele>22.4</ele>
        <time>2015-04-07T15:20:00.000Z</time>
      </trkpt>
      <trkpt lat="50.84372" lon="1.58709">
        <ele>22.3</ele>
        <time>2015-04-07T15:20:01.000Z</time>
      </trkpt>
      <trkpt lat="50.84373" lon="1.58707">
        <ele>22.2</ele>
        <time>2015-04-07T15:20:02.000Z</time>
      </trkpt>
      <trkpt lat="50.84373" lon="1.58706">
        <ele>22.1</ele>
        <time>2015-04-07T15:20:03.000Z</time>
      </trkpt>
      <trkpt lat="50.84374" lon="1.58704">
        <ele>22</ele>
        <time>2015-04-07T15:20:04.000Z</time>
      </trkpt>
      <trkpt lat="50.84374" lon="1.58702">
        <ele>21.9</ele>
        <time>2015-04-07T15:20:05.000Z</time>
      </trkpt>
      <trkpt lat="50.84374" lon="1.587">
        <ele>21.8</ele>
        <time>2015-04-07T15:20:06.000Z</time>
      </trkpt>
      <trkpt lat="50.84375" lon="1.58698">
        <ele>21.7</ele>
        <time>2015-04-07T15:20:07.000Z</time>
      </trkpt>
      <trkpt lat="50.84375" lon="1.58696">
        <ele>21.5</ele>
        <time>2015-04-07T15:20:08.000Z</time>
      </trkpt>
      <trkpt lat="50.84376" lon="1.58694">
        <ele>21.4</ele>
        <time>2015-04-07T15:20:09.000Z</time>
      </trkpt>
      <trkpt lat="50.84376" lon="1.58692">
        <ele>21.3</ele>
        <time>2015-04-07T15:20:10.000Z</time>
      </trkpt>
      <trkpt lat="50.84376" lon="1.5869">
        <ele>21.2</ele>
        <time>2015-04-07T15:20:11.000Z</time>
      </trkpt>
      <trkpt lat="50.84377" lon="1.58688">
        <ele>21.1</ele>
        <time>2015-04-07T15:20:12.000Z</time>
      </trkpt>
      <trkpt lat="50.84377" lon="1.58686">
        <ele>21</ele>
        <time>2015-04-07T15:20:13.000Z</time>
      </trkpt>
      <trkpt lat="50.84377" lon="1.58685">
        <ele>20.9</ele>
        <time>2015-04-07T15:20:14.000Z</time>
      </trkpt>
      <trkpt lat="50.84378" lon="1.58683">
        <ele>20.8</ele>
        <time>2015-04-07T15:20:15.000Z</time>
      </trkpt>
      <trkpt lat="50.84378" lon="1.58681">
        <ele>20.7</ele>
        <time>2015-04-07T15:20:16.000Z</time>
      </trkpt>
      <trkpt lat="50.84379" lon="1.5868">
        <ele>20.6</ele>
        <time>2015-04-07T15:20:17.000Z</time>
      </trkpt>
      <trkpt lat="50.84379" lon="1.58678">
        <ele>20.5</ele>
        <time>2015-04-07T15:20:18.000Z</time>
      </trkpt>
      <trkpt lat="50.84379" lon="1.58676">
        <ele>20.4</ele>
        <time>2015-04-07T15:20:19.000Z</time>
      </trkpt>
      <trkpt lat="50.8438" lon="1.58674">
        <ele>20.2</ele>
        <time>2015-04-07T15:20:20.000Z</time>
      </trkpt>
      <trkpt lat="50.8438" lon="1.58672">
        <ele>20.1</ele>
        <time>2015-04-07T15:20:21.000Z</time>
      </trkpt>
      <trkpt lat="50.8438" lon="1.5867">
        <ele>20</ele>
        <time>2015-04-07T15:20:22.000Z</time>
      </trkpt>
      <trkpt lat="50.84381" lon="1.58668">
        <ele>19.9</ele>
        <time>2015-04-07T15:20:23.000Z</time>
      </trkpt>
      <trkpt lat="50.84381" lon="1.58666">
        <ele>19.8</ele>
        <time>2015-04-07T15:20:24.000Z</time>
      </trkpt>
      <trkpt lat="50.84381" lon="1.58664">
        <ele>19.7</ele>
        <time>2015-04-07T15:20:25.000Z</time>
      </trkpt>
      <trkpt lat="50.84382" lon="1.58662">
        <ele>19.6</ele>
        <time>2015-04-07T15:20:26.000Z</time>
      </trkpt>
      <trkpt lat="50.84382" lon="1.5866">
        <ele>19.5</ele>
        <time>2015-04-07T15:20:27.000Z</time>
      </trkpt>
      <trkpt lat="50.84383" lon="1.58658">
        <ele>19.4</ele>
        <time>2015-04-07T15:20:28.000Z</time>
      </trkpt>
      <trkpt lat="50.84383" lon="1.58656">
        <ele>19.3</ele>
        <time>2015-04-07T15:20:29.000Z</time>
      </trkpt>
      <trkpt lat="50.84383" lon="1.58655">
        <ele>19.2</ele>
        <time>2015-04-07T15:20:30.000Z</time>
      </trkpt>
      <trkpt lat="50.84384" lon="1.58653">
        <ele>19.1</ele>
        <time>2015-04-07T15:20:31.000Z</time>
      </trkpt>
      <trkpt lat="50.84384" lon="1.58651">
        <ele>18.9</ele>
        <time>2015-04-07T15:20:32.000Z</time>
      </trkpt>
      <trkpt lat="50.84384" lon="1.58649">
        <ele>18.8</ele>
        <time>2015-04-07T15:20:33.000Z</time>
      </trkpt>
      <trkpt lat="50.84385" lon="1.58647">
        <ele>18.7</ele>
        <time>2015-04-07T15:20:34.000Z</time>
      </trkpt>
      <trkpt lat="50.84385" lon="1.58645">
        <ele>18.6</ele>
        <time>2015-04-07T15:20:35.000Z</time>
      </trkpt>
      <trkpt lat="50.84385" lon="1.58643">
        <ele>18.5</ele>
        <time>2015-04-07T15:20:36.000Z</time>
      </trkpt>
      <trkpt lat="50.84386" lon="1.58641">
        <ele>18.4</ele>
        <time>2015-04-07T15:20:37.000Z</time>
      </trkpt>
      <trkpt lat="50.84386" lon="1.58639">
        <ele>18.3</ele>
        <time>2015-04-07T15:20:38.000Z</time>
      </trkpt>
      <trkpt lat="50.84387" lon="1.58637">
        <ele>18.2</ele>
        <time>2015-04-07T15:20:39.000Z</time>
      </trkpt>
      <trkpt lat="50.84387" lon="1.58635">
        <ele>18.1</ele>
        <time>2015-04-07T15:20:40.000Z</time>
      </trkpt>
      <trkpt lat="50.84387" lon="1.58633">
        <ele>18</ele>
        <time>2015-04-07T15:20:41.000Z</time>
      </trkpt>
      <trkpt lat="50.84387" lon="1.58631">
        <ele>17.9</ele>
        <time>2015-04-07T15:20:42.000Z</time>
      </trkpt>
      <trkpt lat="50.84388" lon="1.58629">
        <ele>17.8</ele>
        <time>2015-04-07T15:20:43.000Z</time>
      </trkpt>
      <trkpt lat="50.84388" lon="1.58627">
        <ele>17.7</ele>
        <time>2015-04-07T15:20:44.000Z</time>
      </trkpt>
      <trkpt lat="50.84388" lon="1.58625">
        <ele>17.6</ele>
        <time>2015-04-07T15:20:45.000Z</time>
      </trkpt>
      <trkpt lat="50.84388" lon="1.58624">
        <ele>17.5</ele>
        <time>2015-04-07T15:20:46.000Z</time>
      </trkpt>
      <trkpt lat="50.84388" lon="1.58622">
        <ele>17.4</ele>
        <time>2015-04-07T15:20:47.000Z</time>
      </trkpt>
      <trkpt lat="50.84389" lon="1.5862">
        <ele>17.3</ele>
        <time>2015-04-07T15:20:48.000Z</time>
      </trkpt>
      <trkpt lat="50.84389" lon="1.58618">
        <ele>17.3</ele>
        <time>2015-04-07T15:20:49.000Z</time>
      </trkpt>
      <trkpt lat="50.84389" lon="1.58616">
        <ele>17.2</ele>
        <time>2015-04-07T15:20:50.000Z</time>
      </trkpt>
      <trkpt lat="50.84389" lon="1.58614">
        <ele>17.1</ele>
        <time>2015-04-07T15:20:51.000Z</time>
      </trkpt>
      <trkpt lat="50.84389" lon="1.58612">
        <ele>17</ele>
        <time>2015-04-07T15:20:52.000Z</time>
      </trkpt>
      <trkpt lat="50.84389" lon="1.5861">
        <ele>16.9</ele>
        <time>2015-04-07T15:20:53.000Z</time>
      </trkpt>
      <trkpt lat="50.84389" lon="1.58608">
        <ele>16.7</ele>
        <time>2015-04-07T15:20:54.000Z</time>
      </trkpt>
      <trkpt lat="50.84389" lon="1.58606">
        <ele>16.4</ele>
        <time>2015-04-07T15:20:55.000Z</time>
      </trkpt>
      <trkpt lat="50.84389" lon="1.58604">
        <ele>16.2</ele>
        <time>2015-04-07T15:20:56.000Z</time>
      </trkpt>
      <trkpt lat="50.84389" lon="1.58602">
        <ele>16</ele>
        <time>2015-04-07T15:20:57.000Z</time>
      </trkpt>
      <trkpt lat="50.84389" lon="1.586">
        <ele>15.8</ele>
        <time>2015-04-07T15:20:58.000Z</time>
      </trkpt>
      <trkpt lat="50.84389" lon="1.58598">
        <ele>15.6</ele>
        <time>2015-04-07T15:20:59.000Z</time>
      </trkpt>
      <trkpt lat="50.84389" lon="1.58596">
        <ele>15.5</ele>
        <time>2015-04-07T15:21:00.000Z</time>
      </trkpt>
      <trkpt lat="50.84388" lon="1.58594">
        <ele>15.3</ele>
        <time>2015-04-07T15:21:01.000Z</time>
      </trkpt>
      <trkpt lat="50.84388" lon="1.58592">
        <ele>15.1</ele>
        <time>2015-04-07T15:21:02.000Z</time>
      </trkpt>
      <trkpt lat="50.84388" lon="1.5859">
        <ele>14.9</ele>
        <time>2015-04-07T15:21:03.000Z</time>
      </trkpt>
      <trkpt lat="50.84388" lon="1.58588">
        <ele>14.7</ele>
        <time>2015-04-07T15:21:04.000Z</time>
      </trkpt>
      <trkpt lat="50.84388" lon="1.58587">
        <ele>14.5</ele>
        <time>2015-04-07T15:21:05.000Z</time>
      </trkpt>
      <trkpt lat="50.84388" lon="1.58585">
        <ele>14.4</ele>
        <time>2015-04-07T15:21:06.000Z</time>
      </trkpt>
      <trkpt lat="50.84388" lon="1.58583">
        <ele>14.2</ele>
        <time>2015-04-07T15:21:07.000Z</time>
      </trkpt>
      <trkpt lat="50.84388" lon="1.58581">
        <ele>13.9</ele>
        <time>2015-04-07T15:21:08.000Z</time>
      </trkpt>
      <trkpt lat="50.84388" lon="1.5858">
        <ele>13.7</ele>
        <time>2015-04-07T15:21:09.000Z</time>
      </trkpt>
      <trkpt lat="50.84388" lon="1.58578">
        <ele>13.4</ele>
        <time>2015-04-07T15:21:10.000Z</time>
      </trkpt>
      <trkpt lat="50.84388" lon="1.58576">
        <ele>13.2</ele>
        <time>2015-04-07T15:21:11.000Z</time>
      </trkpt>
      <trkpt lat="50.84387" lon="1.58574">
        <ele>12.9</ele>
        <time>2015-04-07T15:21:12.000Z</time>
      </trkpt>
      <trkpt lat="50.84387" lon="1.58572">
        <ele>12.7</ele>
        <time>2015-04-07T15:21:13.000Z</time>
      </trkpt>
      <trkpt lat="50.84387" lon="1.5857">
        <ele>12.4</ele>
        <time>2015-04-07T15:21:14.000Z</time>
      </trkpt>
      <trkpt lat="50.84387" lon="1.58568">
        <ele>12.2</ele>
        <time>2015-04-07T15:21:15.000Z</time>
      </trkpt>
      <trkpt lat="50.84387" lon="1.58566">
        <ele>12</ele>
        <time>2015-04-07T15:21:16.000Z</time>
      </trkpt>
      <trkpt lat="50.84387" lon="1.58564">
        <ele>11.8</ele>
        <time>2015-04-07T15:21:17.000Z</time>
      </trkpt>
      <trkpt lat="50.84387" lon="1.58563">
        <ele>11.6</ele>
        <time>2015-04-07T15:21:18.000Z</time>
      </trkpt>
      <trkpt lat="50.84387" lon="1.58561">
        <ele>11.4</ele>
        <time>2015-04-07T15:21:19.000Z</time>
      </trkpt>
      <trkpt lat="50.84387" lon="1.58559">
        <ele>11.2</ele>
        <time>2015-04-07T15:21:20.000Z</time>
      </trkpt>
      <trkpt lat="50.84386" lon="1.58558">
        <ele>11</ele>
        <time>2015-04-07T15:21:21.000Z</time>
      </trkpt>
      <trkpt lat="50.84386" lon="1.58556">
        <ele>10.8</ele>
        <time>2015-04-07T15:21:22.000Z</time>
      </trkpt>
      <trkpt lat="50.84386" lon="1.58554">
        <ele>10.7</ele>
        <time>2015-04-07T15:21:23.000Z</time>
      </trkpt>
      <trkpt lat="50.84386" lon="1.58552">
        <ele>10.7</ele>
        <time>2015-04-07T15:21:24.000Z</time>
      </trkpt>
      <trkpt lat="50.84386" lon="1.5855">
        <ele>10.7</ele>
        <time>2015-04-07T15:21:25.000Z</time>
      </trkpt>
      <trkpt lat="50.84386" lon="1.58549">
        <ele>10.7</ele>
        <time>2015-04-07T15:21:26.000Z</time>
      </trkpt>
      <trkpt lat="50.84385" lon="1.58547">
        <ele>10.6</ele>
        <time>2015-04-07T15:21:27.000Z</time>
      </trkpt>
      <trkpt lat="50.84385" lon="1.58546">
        <ele>10.6</ele>
        <time>2015-04-07T15:21:28.000Z</time>
      </trkpt>
      <trkpt lat="50.84385" lon="1.58544">
        <ele>10.5</ele>
        <time>2015-04-07T15:21:29.000Z</time>
      </trkpt>
      <trkpt lat="50.84385" lon="1.58543">
        <ele>10.5</ele>
        <time>2015-04-07T15:21:30.000Z</time>
      </trkpt>
      <trkpt lat="50.84385" lon="1.58541">
        <ele>10.4</ele>
        <time>2015-04-07T15:21:31.000Z</time>
      </trkpt>
      <trkpt lat="50.84385" lon="1.5854">
        <ele>10.4</ele>
        <time>2015-04-07T15:21:32.000Z</time>
      </trkpt>
      <trkpt lat="50.84385" lon="1.58539">
        <ele>10.4</ele>
        <time>2015-04-07T15:21:33.000Z</time>
      </trkpt>
      <trkpt lat="50.84385" lon="1.58537">
        <ele>10.3</ele>
        <time>2015-04-07T15:21:34.000Z</time>
      </trkpt>
      <trkpt lat="50.84385" lon="1.58536">
        <ele>10.3</ele>
        <time>2015-04-07T15:21:35.000Z</time>
      </trkpt>
      <trkpt lat="50.84384" lon="1.58534">
        <ele>10.3</ele>
        <time>2015-04-07T15:21:36.000Z</time>
      </trkpt>
      <trkpt lat="50.84384" lon="1.58533">
        <ele>10.2</ele>
        <time>2015-04-07T15:21:37.000Z</time>
      </trkpt>
      <trkpt lat="50.84384" lon="1.58531">
        <ele>10.2</ele>
        <time>2015-04-07T15:21:38.000Z</time>
      </trkpt>
      <trkpt lat="50.84384" lon="1.5853">
        <ele>10.2</ele>
        <time>2015-04-07T15:21:39.000Z</time>
      </trkpt>
      <trkpt lat="50.84384" lon="1.58529">
        <ele>10.1</ele>
        <time>2015-04-07T15:21:40.000Z</time>
      </trkpt>
      <trkpt lat="50.84384" lon="1.58528">
        <ele>10.1</ele>
        <time>2015-04-07T15:21:41.000Z</time>
      </trkpt>
      <trkpt lat="50.84384" lon="1.58526">
        <ele>9.9</ele>
        <time>2015-04-07T15:21:42.000Z</time>
      </trkpt>
      <trkpt lat="50.84384" lon="1.58525">
        <ele>9.7</ele>
        <time>2015-04-07T15:21:43.000Z</time>
      </trkpt>
      <trkpt lat="50.84384" lon="1.58524">
        <ele>9.6</ele>
        <time>2015-04-07T15:21:44.000Z</time>
      </trkpt>
      <trkpt lat="50.84384" lon="1.58522">
        <ele>9.4</ele>
        <time>2015-04-07T15:21:45.000Z</time>
      </trkpt>
      <trkpt lat="50.84384" lon="1.58522">
        <ele>9.3</ele>
        <time>2015-04-07T15:21:46.000Z</time>
      </trkpt>
      <trkpt lat="50.84384" lon="1.58521">
        <ele>9.2</ele>
        <time>2015-04-07T15:21:47.000Z</time>
      </trkpt>
      <trkpt lat="50.84384" lon="1.5852">
        <ele>9.1</ele>
        <time>2015-04-07T15:21:48.000Z</time>
      </trkpt>
      <trkpt lat="50.84384" lon="1.58519">
        <ele>9</ele>
        <time>2015-04-07T15:21:49.000Z</time>
      </trkpt>
      <trkpt lat="50.84384" lon="1.58518">
        <ele>8.9</ele>
        <time>2015-04-07T15:21:50.000Z</time>
      </trkpt>
      <trkpt lat="50.84384" lon="1.58518">
        <ele>8.9</ele>
        <time>2015-04-07T15:21:51.000Z</time>
      </trkpt>
      <trkpt lat="50.84384" lon="1.58517">
        <ele>8.8</ele>
        <time>2015-04-07T15:21:52.000Z</time>
      </trkpt>
      <trkpt lat="50.84384" lon="1.58516">
        <ele>8.7</ele>
        <time>2015-04-07T15:21:53.000Z</time>
      </trkpt>
      <trkpt lat="50.84383" lon="1.58516">
        <ele>8.7</ele>
        <time>2015-04-07T15:21:54.000Z</time>
      </trkpt>
      <trkpt lat="50.84383" lon="1.58515">
        <ele>8.6</ele>
        <time>2015-04-07T15:21:55.000Z</time>
      </trkpt>
      <trkpt lat="50.84383" lon="1.58514">
        <ele>8.5</ele>
        <time>2015-04-07T15:21:56.000Z</time>
      </trkpt>
      <trkpt lat="50.84382" lon="1.58513">
        <ele>8.5</ele>
        <time>2015-04-07T15:21:57.000Z</time>
      </trkpt>
      <trkpt lat="50.84382" lon="1.58512">
        <ele>8.4</ele>
        <time>2015-04-07T15:21:58.000Z</time>
      </trkpt>
      <trkpt lat="50.84382" lon="1.58511">
        <ele>8.2</ele>
        <time>2015-04-07T15:21:59.000Z</time>
      </trkpt>
      <trkpt lat="50.84382" lon="1.5851">
        <ele>8.1</ele>
        <time>2015-04-07T15:22:00.000Z</time>
      </trkpt>
      <trkpt lat="50.84382" lon="1.58509">
        <ele>8</ele>
        <time>2015-04-07T15:22:01.000Z</time>
      </trkpt>
      <trkpt lat="50.84382" lon="1.58508">
        <ele>7.8</ele>
        <time>2015-04-07T15:22:02.000Z</time>
      </trkpt>
      <trkpt lat="50.84382" lon="1.58507">
        <ele>7.7</ele>
        <time>2015-04-07T15:22:03.000Z</time>
      </trkpt>
      <trkpt lat="50.84382" lon="1.58505">
        <ele>7.5</ele>
        <time>2015-04-07T15:22:04.000Z</time>
      </trkpt>
      <trkpt lat="50.84381" lon="1.58502">
        <ele>7</ele>
        <time>2015-04-07T15:22:05.000Z</time>
      </trkpt>
      <trkpt lat="50.84381" lon="1.58502">
        <ele>7</ele>
        <time>2015-04-07T15:22:06.000Z</time>
      </trkpt>
      <trkpt lat="50.84382" lon="1.58502">
        <ele>7</ele>
        <time>2015-04-07T15:22:07.000Z</time>
      </trkpt>
      <trkpt lat="50.84382" lon="1.58501">
        <ele>6.9</ele>
        <time>2015-04-07T15:22:08.000Z</time>
      </trkpt>
      <trkpt lat="50.84382" lon="1.58501">
        <ele>6.9</ele>
        <time>2015-04-07T15:22:09.000Z</time>
      </trkpt>
      <trkpt lat="50.84382" lon="1.58501">
        <ele>6.9</ele>
        <time>2015-04-07T15:22:10.000Z</time>
      </trkpt>
      <trkpt lat="50.84382" lon="1.585">
        <ele>6.8</ele>
        <time>2015-04-07T15:22:11.000Z</time>
      </trkpt>
      <trkpt lat="50.84381" lon="1.585">
        <ele>6.7</ele>
        <time>2015-04-07T15:22:12.000Z</time>
      </trkpt>
      <trkpt lat="50.84381" lon="1.58499">
        <ele>6.7</ele>
        <time>2015-04-07T15:22:13.000Z</time>
      </trkpt>
      <trkpt lat="50.84381" lon="1.58499">
        <ele>6.6</ele>
        <time>2015-04-07T15:22:14.000Z</time>
      </trkpt>
      <trkpt lat="50.84381" lon="1.58498">
        <ele>6.5</ele>
        <time>2015-04-07T15:22:15.000Z</time>
      </trkpt>
      <trkpt lat="50.84381" lon="1.58497">
        <ele>6.4</ele>
        <time>2015-04-07T15:22:16.000Z</time>
      </trkpt>
      <trkpt lat="50.84381" lon="1.58496">
        <ele>6.3</ele>
        <time>2015-04-07T15:22:17.000Z</time>
      </trkpt>
      <trkpt lat="50.8438" lon="1.58496">
        <ele>6.2</ele>
        <time>2015-04-07T15:22:18.000Z</time>
      </trkpt>
      <trkpt lat="50.8438" lon="1.58495">
        <ele>6.1</ele>
        <time>2015-04-07T15:22:19.000Z</time>
      </trkpt>
      <trkpt lat="50.84379" lon="1.58495">
        <ele>6.1</ele>
        <time>2015-04-07T15:22:20.000Z</time>
      </trkpt>
      <trkpt lat="50.84379" lon="1.58494">
        <ele>6</ele>
        <time>2015-04-07T15:22:21.000Z</time>
      </trkpt>
      <trkpt lat="50.84378" lon="1.58494">
        <ele>5.9</ele>
        <time>2015-04-07T15:22:22.000Z</time>
      </trkpt>
      <trkpt lat="50.84378" lon="1.58493">
        <ele>5.9</ele>
        <time>2015-04-07T15:22:23.000Z</time>
      </trkpt>
      <trkpt lat="50.84378" lon="1.58492">
        <ele>5.8</ele>
        <time>2015-04-07T15:22:24.000Z</time>
      </trkpt>
      <trkpt lat="50.84377" lon="1.58491">
        <ele>5.7</ele>
        <time>2015-04-07T15:22:25.000Z</time>
      </trkpt>
      <trkpt lat="50.84377" lon="1.5849">
        <ele>5.5</ele>
        <time>2015-04-07T15:22:26.000Z</time>
      </trkpt>
      <trkpt lat="50.84377" lon="1.58489">
        <ele>5.4</ele>
        <time>2015-04-07T15:22:27.000Z</time>
      </trkpt>
      <trkpt lat="50.84377" lon="1.58488">
        <ele>5.3</ele>
        <time>2015-04-07T15:22:28.000Z</time>
      </trkpt>
      <trkpt lat="50.84377" lon="1.58487">
        <ele>5.2</ele>
        <time>2015-04-07T15:22:29.000Z</time>
      </trkpt>
      <trkpt lat="50.84377" lon="1.58486">
        <ele>5.1</ele>
        <time>2015-04-07T15:22:30.000Z</time>
      </trkpt>
      <trkpt lat="50.84377" lon="1.58485">
        <ele>5</ele>
        <time>2015-04-07T15:22:31.000Z</time>
      </trkpt>
      <trkpt lat="50.84376" lon="1.58484">
        <ele>4.9</ele>
        <time>2015-04-07T15:22:32.000Z</time>
      </trkpt>
      <trkpt lat="50.84376" lon="1.58483">
        <ele>4.8</ele>
        <time>2015-04-07T15:22:33.000Z</time>
      </trkpt>
      <trkpt lat="50.84376" lon="1.58482">
        <ele>4.6</ele>
        <time>2015-04-07T15:22:34.000Z</time>
      </trkpt>
      <trkpt lat="50.84376" lon="1.58482">
        <ele>4.5</ele>
        <time>2015-04-07T15:22:35.000Z</time>
      </trkpt>
      <trkpt lat="50.84376" lon="1.58481">
        <ele>4.5</ele>
        <time>2015-04-07T15:22:36.000Z</time>
      </trkpt>
      <trkpt lat="50.84376" lon="1.58479">
        <ele>4.3</ele>
        <time>2015-04-07T15:22:37.000Z</time>
      </trkpt>
      <trkpt lat="50.84376" lon="1.58479">
        <ele>4.3</ele>
        <time>2015-04-07T15:22:38.000Z</time>
      </trkpt>
      <trkpt lat="50.84376" lon="1.58479">
        <ele>4.3</ele>
        <time>2015-04-07T15:22:39.000Z</time>
      </trkpt>
      <trkpt lat="50.84376" lon="1.58479">
        <ele>4.3</ele>
        <time>2015-04-07T15:22:40.000Z</time>
      </trkpt>
      <trkpt lat="50.84376" lon="1.58479">
        <ele>4.3</ele>
        <time>2015-04-07T15:22:41.000Z</time>
      </trkpt>
      <trkpt lat="50.84376" lon="1.58479">
        <ele>4.3</ele>
        <time>2015-04-07T15:22:42.000Z</time>
      </trkpt>
      <trkpt lat="50.84376" lon="1.58479">
        <ele>4.3</ele>
        <time>2015-04-07T15:22:43.000Z</time>
      </trkpt>
      <trkpt lat="50.84376" lon="1.58479">
        <ele>4.3</ele>
        <time>2015-04-07T15:22:44.000Z</time>
      </trkpt>
      <trkpt lat="50.84376" lon="1.58479">
        <ele>4.3</ele>
        <time>2015-04-07T15:22:45.000Z</time>
      </trkpt>
      <trkpt lat="50.84376" lon="1.58479">
        <ele>4.3</ele>
        <time>2015-04-07T15:22:46.000Z</time>
      </trkpt>
      <trkpt lat="50.84376" lon="1.58479">
        <ele>4.3</ele>
        <time>2015-04-07T15:22:47.000Z</time>
      </trkpt>
      <trkpt lat="50.84376" lon="1.58479">
        <ele>4.3</ele>
        <time>2015-04-07T15:22:48.000Z</time>
      </trkpt>
      <trkpt lat="50.84376" lon="1.58479">
        <ele>4.2</ele>
        <time>2015-04-07T15:22:49.000Z</time>
      </trkpt>
      <trkpt lat="50.84376" lon="1.58479">
        <ele>4.2</ele>
        <time>2015-04-07T15:22:50.000Z</time>
      </trkpt>
      <trkpt lat="50.84376" lon="1.58479">
        <ele>4.2</ele>
        <time>2015-04-07T15:22:51.000Z</time>
      </trkpt>
      <trkpt lat="50.84376" lon="1.58479">
        <ele>4.2</ele>
        <time>2015-04-07T15:22:52.000Z</time>
      </trkpt>
      <trkpt lat="50.84376" lon="1.58479">
        <ele>4.2</ele>
        <time>2015-04-07T15:22:53.000Z</time>
      </trkpt>
      <trkpt lat="50.84376" lon="1.58479">
        <ele>4.2</ele>
        <time>2015-04-07T15:22:54.000Z</time>
      </trkpt>
      <trkpt lat="50.84376" lon="1.58478">
        <ele>4.2</ele>
        <time>2015-04-07T15:22:55.000Z</time>
      </trkpt>
      <trkpt lat="50.84376" lon="1.58479">
        <ele>4.2</ele>
        <time>2015-04-07T15:22:56.000Z</time>
      </trkpt>
      <trkpt lat="50.84376" lon="1.58479">
        <ele>4.2</ele>
        <time>2015-04-07T15:22:57.000Z</time>
      </trkpt>
      <trkpt lat="50.84376" lon="1.58479">
        <ele>4.2</ele>
        <time>2015-04-07T15:22:58.000Z</time>
      </trkpt>
      <trkpt lat="50.84376" lon="1.58479">
        <ele>4.2</ele>
        <time>2015-04-07T15:22:59.000Z</time>
      </trkpt>
      <trkpt lat="50.84376" lon="1.58479">
        <ele>4.2</ele>
        <time>2015-04-07T15:23:00.000Z</time>
      </trkpt>
      <trkpt lat="50.84376" lon="1.58479">
        <ele>4.2</ele>
        <time>2015-04-07T15:23:01.000Z</time>
      </trkpt>
      <trkpt lat="50.84376" lon="1.58479">
        <ele>4.2</ele>
        <time>2015-04-07T15:23:02.000Z</time>
      </trkpt>
      <trkpt lat="50.84376" lon="1.58479">
        <ele>4.2</ele>
        <time>2015-04-07T15:23:03.000Z</time>
      </trkpt>
      <trkpt lat="50.84376" lon="1.58479">
        <ele>4.2</ele>
        <time>2015-04-07T15:23:04.000Z</time>
      </trkpt>
      <trkpt lat="50.84376" lon="1.58479">
        <ele>4.2</ele>
        <time>2015-04-07T15:23:05.000Z</time>
      </trkpt>
      <trkpt lat="50.84376" lon="1.58479">
        <ele>4.2</ele>
        <time>2015-04-07T15:23:06.000Z</time>
      </trkpt>
      <trkpt lat="50.84376" lon="1.58479">
        <ele>4.2</ele>
        <time>2015-04-07T15:23:07.000Z</time>
      </trkpt>
      <trkpt lat="50.84376" lon="1.58479">
        <ele>4.2</ele>
        <time>2015-04-07T15:23:08.000Z</time>
      </trkpt>
      <trkpt lat="50.84376" lon="1.58479">
        <ele>4.2</ele>
        <time>2015-04-07T15:23:09.000Z</time>
      </trkpt>
      <trkpt lat="50.84376" lon="1.58479">
        <ele>4.2</ele>
        <time>2015-04-07T15:23:10.000Z</time>
      </trkpt>
      <trkpt lat="50.84376" lon="1.58479">
        <ele>4.2</ele>
        <time>2015-04-07T15:23:11.000Z</time>
      </trkpt>
      <trkpt lat="50.84376" lon="1.58479">
        <ele>4.3</ele>
        <time>2015-04-07T15:23:12.000Z</time>
      </trkpt>
      <trkpt lat="50.84376" lon="1.58479">
        <ele>4.3</ele>
        <time>2015-04-07T15:23:13.000Z</time>
      </trkpt>
      <trkpt lat="50.84376" lon="1.58479">
        <ele>4.3</ele>
        <time>2015-04-07T15:23:14.000Z</time>
      </trkpt>
      <trkpt lat="50.84376" lon="1.58479">
        <ele>4.3</ele>
        <time>2015-04-07T15:23:15.000Z</time>
      </trkpt>
      <trkpt lat="50.84376" lon="1.58479">
        <ele>4.3</ele>
        <time>2015-04-07T15:23:16.000Z</time>
      </trkpt>
      <trkpt lat="50.84376" lon="1.58479">
        <ele>4.2</ele>
        <time>2015-04-07T15:23:17.000Z</time>
      </trkpt>
      <trkpt lat="50.84376" lon="1.58479">
        <ele>4.2</ele>
        <time>2015-04-07T15:23:18.000Z</time>
      </trkpt>
      <trkpt lat="50.84376" lon="1.58479">
        <ele>4.2</ele>
        <time>2015-04-07T15:23:19.000Z</time>
      </trkpt>
      <trkpt lat="50.84376" lon="1.58479">
        <ele>4.2</ele>
        <time>2015-04-07T15:23:20.000Z</time>
      </trkpt>
      <trkpt lat="50.84376" lon="1.58479">
        <ele>4.2</ele>
        <time>2015-04-07T15:23:21.000Z</time>
      </trkpt>
      <trkpt lat="50.84376" lon="1.58479">
        <ele>4.2</ele>
        <time>2015-04-07T15:23:22.000Z</time>
      </trkpt>
      <trkpt lat="50.84376" lon="1.58479">
        <ele>4.2</ele>
        <time>2015-04-07T15:23:23.000Z</time>
      </trkpt>
      <trkpt lat="50.84376" lon="1.58479">
        <ele>4.2</ele>
        <time>2015-04-07T15:23:24.000Z</time>
      </trkpt>
      <trkpt lat="50.84376" lon="1.58479">
        <ele>4.2</ele>
        <time>2015-04-07T15:23:25.000Z</time>
      </trkpt>
      <trkpt lat="50.84376" lon="1.58479">
        <ele>4.2</ele>
        <time>2015-04-07T15:23:26.000Z</time>
      </trkpt>
      <trkpt lat="50.84376" lon="1.58479">
        <ele>4.2</ele>
        <time>2015-04-07T15:23:27.000Z</time>
      </trkpt>
      <trkpt lat="50.84376" lon="1.58479">
        <ele>4.2</ele>
        <time>2015-04-07T15:23:28.000Z</time>
      </trkpt>
      <trkpt lat="50.84376" lon="1.58479">
        <ele>4.2</ele>
        <time>2015-04-07T15:23:29.000Z</time>
      </trkpt>
      <trkpt lat="50.84376" lon="1.58479">
        <ele>4.2</ele>
        <time>2015-04-07T15:23:30.000Z</time>
      </trkpt>
      <trkpt lat="50.84376" lon="1.58479">
        <ele>4.2</ele>
        <time>2015-04-07T15:23:31.000Z</time>
      </trkpt>
      <trkpt lat="50.84376" lon="1.58479">
        <ele>4.2</ele>
        <time>2015-04-07T15:23:32.000Z</time>
      </trkpt>
      <trkpt lat="50.84376" lon="1.58479">
        <ele>4.2</ele>
        <time>2015-04-07T15:23:33.000Z</time>
      </trkpt>
      <trkpt lat="50.84376" lon="1.58479">
        <ele>4.2</ele>
        <time>2015-04-07T15:23:34.000Z</time>
      </trkpt>
      <trkpt lat="50.84376" lon="1.58479">
        <ele>4.2</ele>
        <time>2015-04-07T15:23:35.000Z</time>
      </trkpt>
      <trkpt lat="50.84376" lon="1.58479">
        <ele>4.2</ele>
        <time>2015-04-07T15:23:36.000Z</time>
      </trkpt>
      <trkpt lat="50.84375" lon="1.58479">
        <ele>4.2</ele>
        <time>2015-04-07T15:23:37.000Z</time>
      </trkpt>
      <trkpt lat="50.84375" lon="1.58479">
        <ele>4.2</ele>
        <time>2015-04-07T15:23:38.000Z</time>
      </trkpt>
      <trkpt lat="50.84376" lon="1.58479">
        <ele>4.2</ele>
        <time>2015-04-07T15:23:39.000Z</time>
      </trkpt>
      <trkpt lat="50.84376" lon="1.58479">
        <ele>4.2</ele>
        <time>2015-04-07T15:23:40.000Z</time>
      </trkpt>
      <trkpt lat="50.84376" lon="1.58479">
        <ele>4.2</ele>
        <time>2015-04-07T15:23:41.000Z</time>
      </trkpt>
      <trkpt lat="50.84376" lon="1.58479">
        <ele>4.2</ele>
        <time>2015-04-07T15:23:42.000Z</time>
      </trkpt>
      <trkpt lat="50.84376" lon="1.58479">
        <ele>4.2</ele>
        <time>2015-04-07T15:23:43.000Z</time>
      </trkpt>
      <trkpt lat="50.84376" lon="1.58479">
        <ele>4.2</ele>
        <time>2015-04-07T15:23:44.000Z</time>
      </trkpt>
      <trkpt lat="50.84376" lon="1.58479">
        <ele>4.2</ele>
        <time>2015-04-07T15:23:45.000Z</time>
      </trkpt>
      <trkpt lat="50.84376" lon="1.58479">
        <ele>4.2</ele>
        <time>2015-04-07T15:23:46.000Z</time>
      </trkpt>
      <trkpt lat="50.84376" lon="1.58479">
        <ele>4.2</ele>
        <time>2015-04-07T15:23:47.000Z</time>
      </trkpt>
      <trkpt lat="50.84376" lon="1.58479">
        <ele>4.2</ele>
        <time>2015-04-07T15:23:48.000Z</time>
      </trkpt>
      <trkpt lat="50.84376" lon="1.58479">
        <ele>4.2</ele>
        <time>2015-04-07T15:23:49.000Z</time>
      </trkpt>
      <trkpt lat="50.84376" lon="1.58479">
        <ele>4.2</ele>
        <time>2015-04-07T15:23:50.000Z</time>
      </trkpt>
      <trkpt lat="50.84376" lon="1.58479">
        <ele>4.2</ele>
        <time>2015-04-07T15:23:51.000Z</time>
      </trkpt>
      <trkpt lat="50.84376" lon="1.58479">
        <ele>4.2</ele>
        <time>2015-04-07T15:23:52.000Z</time>
      </trkpt>
      <trkpt lat="50.84376" lon="1.58479">
        <ele>4.2</ele>
        <time>2015-04-07T15:23:53.000Z</time>
      </trkpt>
      <trkpt lat="50.84376" lon="1.58479">
        <ele>4.2</ele>
        <time>2015-04-07T15:23:54.000Z</time>
      </trkpt>
      <trkpt lat="50.84376" lon="1.58478">
        <ele>4.2</ele>
        <time>2015-04-07T15:23:55.000Z</time>
      </trkpt>
      <trkpt lat="50.84376" lon="1.58478">
        <ele>4.2</ele>
        <time>2015-04-07T15:23:56.000Z</time>
      </trkpt>
      <trkpt lat="50.84376" lon="1.58478">
        <ele>4.2</ele>
        <time>2015-04-07T15:23:57.000Z</time>
      </trkpt>
      <trkpt lat="50.84376" lon="1.58478">
        <ele>4.2</ele>
        <time>2015-04-07T15:23:58.000Z</time>
      </trkpt>
      <trkpt lat="50.84376" lon="1.58478">
        <ele>4.2</ele>
        <time>2015-04-07T15:23:59.000Z</time>
      </trkpt>
      <trkpt lat="50.84376" lon="1.58478">
        <ele>4.2</ele>
        <time>2015-04-07T15:24:00.000Z</time>
      </trkpt>
      <trkpt lat="50.84376" lon="1.58478">
        <ele>4.2</ele>
        <time>2015-04-07T15:24:01.000Z</time>
      </trkpt>
      <trkpt lat="50.84376" lon="1.58478">
        <ele>4.2</ele>
        <time>2015-04-07T15:24:02.000Z</time>
      </trkpt>
      <trkpt lat="50.84376" lon="1.58478">
        <ele>4.2</ele>
        <time>2015-04-07T15:24:03.000Z</time>
      </trkpt>
      <trkpt lat="50.84376" lon="1.58478">
        <ele>4.2</ele>
        <time>2015-04-07T15:24:04.000Z</time>
      </trkpt>
      <trkpt lat="50.84376" lon="1.58478">
        <ele>4.2</ele>
        <time>2015-04-07T15:24:05.000Z</time>
      </trkpt>
      <trkpt lat="50.84376" lon="1.58478">
        <ele>4.2</ele>
        <time>2015-04-07T15:24:06.000Z</time>
      </trkpt>
      <trkpt lat="50.84376" lon="1.58478">
        <ele>4.2</ele>
        <time>2015-04-07T15:24:07.000Z</time>
      </trkpt>
      <trkpt lat="50.84376" lon="1.58478">
        <ele>4.2</ele>
        <time>2015-04-07T15:24:08.000Z</time>
      </trkpt>
      <trkpt lat="50.84376" lon="1.58478">
        <ele>4.2</ele>
        <time>2015-04-07T15:24:09.000Z</time>
      </trkpt>
      <trkpt lat="50.84376" lon="1.58478">
        <ele>4.2</ele>
        <time>2015-04-07T15:24:10.000Z</time>
      </trkpt>
      <trkpt lat="50.84376" lon="1.58478">
        <ele>4.2</ele>
        <time>2015-04-07T15:24:11.000Z</time>
      </trkpt>
      <trkpt lat="50.84376" lon="1.58478">
        <ele>4.2</ele>
        <time>2015-04-07T15:24:12.000Z</time>
      </trkpt>
      <trkpt lat="50.84376" lon="1.58478">
        <ele>4.2</ele>
        <time>2015-04-07T15:24:13.000Z</time>
      </trkpt>
      <trkpt lat="50.84377" lon="1.58479">
        <ele>4.3</ele>
        <time>2015-04-07T15:24:14.000Z</time>
      </trkpt>
      <trkpt lat="50.84377" lon="1.58479">
        <ele>4.3</ele>
        <time>2015-04-07T15:24:15.000Z</time>
      </trkpt>
      <trkpt lat="50.84378" lon="1.58479">
        <ele>4.4</ele>
        <time>2015-04-07T15:24:16.000Z</time>
      </trkpt>
      <trkpt lat="50.84378" lon="1.5848">
        <ele>4.4</ele>
        <time>2015-04-07T15:24:17.000Z</time>
      </trkpt>
      <trkpt lat="50.84378" lon="1.5848">
        <ele>4.4</ele>
        <time>2015-04-07T15:24:18.000Z</time>
      </trkpt>
      <trkpt lat="50.84378" lon="1.5848">
        <ele>4.4</ele>
        <time>2015-04-07T15:24:19.000Z</time>
      </trkpt>
      <trkpt lat="50.84379" lon="1.58481">
        <ele>4.5</ele>
        <time>2015-04-07T15:24:20.000Z</time>
      </trkpt>
      <trkpt lat="50.84379" lon="1.58481">
        <ele>4.5</ele>
        <time>2015-04-07T15:24:21.000Z</time>
      </trkpt>
      <trkpt lat="50.84379" lon="1.58481">
        <ele>4.5</ele>
        <time>2015-04-07T15:24:22.000Z</time>
      </trkpt>
      <trkpt lat="50.84379" lon="1.58481">
        <ele>4.6</ele>
        <time>2015-04-07T15:24:23.000Z</time>
      </trkpt>
      <trkpt lat="50.84379" lon="1.58481">
        <ele>4.6</ele>
        <time>2015-04-07T15:24:24.000Z</time>
      </trkpt>
      <trkpt lat="50.84379" lon="1.58481">
        <ele>4.6</ele>
        <time>2015-04-07T15:24:25.000Z</time>
      </trkpt>
      <trkpt lat="50.84379" lon="1.58481">
        <ele>4.6</ele>
        <time>2015-04-07T15:24:26.000Z</time>
      </trkpt>
      <trkpt lat="50.84379" lon="1.58481">
        <ele>4.6</ele>
        <time>2015-04-07T15:24:27.000Z</time>
      </trkpt>
      <trkpt lat="50.84379" lon="1.58481">
        <ele>4.6</ele>
        <time>2015-04-07T15:24:28.000Z</time>
      </trkpt>
      <trkpt lat="50.84379" lon="1.58481">
        <ele>4.6</ele>
        <time>2015-04-07T15:24:29.000Z</time>
      </trkpt>
      <trkpt lat="50.84379" lon="1.58481">
        <ele>4.6</ele>
        <time>2015-04-07T15:24:30.000Z</time>
      </trkpt>
      <trkpt lat="50.84379" lon="1.58481">
        <ele>4.6</ele>
        <time>2015-04-07T15:24:31.000Z</time>
      </trkpt>
      <trkpt lat="50.84379" lon="1.58481">
        <ele>4.6</ele>
        <time>2015-04-07T15:24:32.000Z</time>
      </trkpt>
      <trkpt lat="50.84378" lon="1.58481">
        <ele>4.5</ele>
        <time>2015-04-07T15:24:33.000Z</time>
      </trkpt>
      <trkpt lat="50.84378" lon="1.58481">
        <ele>4.5</ele>
        <time>2015-04-07T15:24:34.000Z</time>
      </trkpt>
      <trkpt lat="50.84378" lon="1.58481">
        <ele>4.6</ele>
        <time>2015-04-07T15:24:35.000Z</time>
      </trkpt>
      <trkpt lat="50.84378" lon="1.58481">
        <ele>4.6</ele>
        <time>2015-04-07T15:24:36.000Z</time>
      </trkpt>
      <trkpt lat="50.84378" lon="1.58481">
        <ele>4.6</ele>
        <time>2015-04-07T15:24:37.000Z</time>
      </trkpt>
      <trkpt lat="50.84378" lon="1.58482">
        <ele>4.6</ele>
        <time>2015-04-07T15:24:38.000Z</time>
      </trkpt>
      <trkpt lat="50.84378" lon="1.58482">
        <ele>4.6</ele>
        <time>2015-04-07T15:24:39.000Z</time>
      </trkpt>
      <trkpt lat="50.84378" lon="1.58482">
        <ele>4.6</ele>
        <time>2015-04-07T15:24:40.000Z</time>
      </trkpt>
      <trkpt lat="50.84378" lon="1.58482">
        <ele>4.6</ele>
        <time>2015-04-07T15:24:41.000Z</time>
      </trkpt>
      <trkpt lat="50.84378" lon="1.58482">
        <ele>4.6</ele>
        <time>2015-04-07T15:24:42.000Z</time>
      </trkpt>
      <trkpt lat="50.84378" lon="1.58482">
        <ele>4.7</ele>
        <time>2015-04-07T15:24:43.000Z</time>
      </trkpt>
      <trkpt lat="50.84378" lon="1.58482">
        <ele>4.7</ele>
        <time>2015-04-07T15:24:44.000Z</time>
      </trkpt>
      <trkpt lat="50.84378" lon="1.58482">
        <ele>4.7</ele>
        <time>2015-04-07T15:24:45.000Z</time>
      </trkpt>
      <trkpt lat="50.84378" lon="1.58482">
        <ele>4.7</ele>
        <time>2015-04-07T15:24:46.000Z</time>
      </trkpt>
      <trkpt lat="50.84378" lon="1.58482">
        <ele>4.7</ele>
        <time>2015-04-07T15:24:47.000Z</time>
      </trkpt>
      <trkpt lat="50.84378" lon="1.58482">
        <ele>4.7</ele>
        <time>2015-04-07T15:24:48.000Z</time>
      </trkpt>
      <trkpt lat="50.84378" lon="1.58483">
        <ele>4.7</ele>
        <time>2015-04-07T15:24:49.000Z</time>
      </trkpt>
      <trkpt lat="50.84378" lon="1.58483">
        <ele>4.7</ele>
        <time>2015-04-07T15:24:50.000Z</time>
      </trkpt>
      <trkpt lat="50.84378" lon="1.58483">
        <ele>4.8</ele>
        <time>2015-04-07T15:24:51.000Z</time>
      </trkpt>
      <trkpt lat="50.84378" lon="1.58484">
        <ele>4.8</ele>
        <time>2015-04-07T15:24:52.000Z</time>
      </trkpt>
      <trkpt lat="50.84377" lon="1.58484">
        <ele>4.9</ele>
        <time>2015-04-07T15:24:53.000Z</time>
      </trkpt>
      <trkpt lat="50.84377" lon="1.58485">
        <ele>5</ele>
        <time>2015-04-07T15:24:54.000Z</time>
      </trkpt>
      <trkpt lat="50.84377" lon="1.58486">
        <ele>5.1</ele>
        <time>2015-04-07T15:24:55.000Z</time>
      </trkpt>
      <trkpt lat="50.84377" lon="1.58487">
        <ele>5.2</ele>
        <time>2015-04-07T15:24:56.000Z</time>
      </trkpt>
      <trkpt lat="50.84376" lon="1.58488">
        <ele>5.3</ele>
        <time>2015-04-07T15:24:57.000Z</time>
      </trkpt>
      <trkpt lat="50.84376" lon="1.58489">
        <ele>5.4</ele>
        <time>2015-04-07T15:24:58.000Z</time>
      </trkpt>
      <trkpt lat="50.84376" lon="1.5849">
        <ele>5.5</ele>
        <time>2015-04-07T15:24:59.000Z</time>
      </trkpt>
      <trkpt lat="50.84375" lon="1.58491">
        <ele>5.6</ele>
        <time>2015-04-07T15:25:00.000Z</time>
      </trkpt>
      <trkpt lat="50.84375" lon="1.58492">
        <ele>5.7</ele>
        <time>2015-04-07T15:25:01.000Z</time>
      </trkpt>
      <trkpt lat="50.84374" lon="1.58493">
        <ele>5.7</ele>
        <time>2015-04-07T15:25:02.000Z</time>
      </trkpt>
      <trkpt lat="50.84373" lon="1.58496">
        <ele>6</ele>
        <time>2015-04-07T15:25:03.000Z</time>
      </trkpt>
      <trkpt lat="50.84373" lon="1.58496">
        <ele>6</ele>
        <time>2015-04-07T15:25:04.000Z</time>
      </trkpt>
      <trkpt lat="50.84373" lon="1.58496">
        <ele>6</ele>
        <time>2015-04-07T15:25:05.000Z</time>
      </trkpt>
      <trkpt lat="50.84373" lon="1.58496">
        <ele>6</ele>
        <time>2015-04-07T15:25:06.000Z</time>
      </trkpt>
      <trkpt lat="50.84373" lon="1.58496">
        <ele>5.9</ele>
        <time>2015-04-07T15:25:07.000Z</time>
      </trkpt>
      <trkpt lat="50.84373" lon="1.58495">
        <ele>5.9</ele>
        <time>2015-04-07T15:25:08.000Z</time>
      </trkpt>
      <trkpt lat="50.84373" lon="1.58495">
        <ele>5.9</ele>
        <time>2015-04-07T15:25:09.000Z</time>
      </trkpt>
      <trkpt lat="50.84373" lon="1.58495">
        <ele>5.9</ele>
        <time>2015-04-07T15:25:10.000Z</time>
      </trkpt>
      <trkpt lat="50.84373" lon="1.58495">
        <ele>5.9</ele>
        <time>2015-04-07T15:25:11.000Z</time>
      </trkpt>
      <trkpt lat="50.84373" lon="1.58495">
        <ele>5.9</ele>
        <time>2015-04-07T15:25:12.000Z</time>
      </trkpt>
      <trkpt lat="50.84373" lon="1.58495">
        <ele>5.9</ele>
        <time>2015-04-07T15:25:13.000Z</time>
      </trkpt>
      <trkpt lat="50.84373" lon="1.58495">
        <ele>5.9</ele>
        <time>2015-04-07T15:25:14.000Z</time>
      </trkpt>
      <trkpt lat="50.84373" lon="1.58495">
        <ele>5.9</ele>
        <time>2015-04-07T15:25:15.000Z</time>
      </trkpt>
      <trkpt lat="50.84373" lon="1.58495">
        <ele>5.9</ele>
        <time>2015-04-07T15:25:16.000Z</time>
      </trkpt>
      <trkpt lat="50.84373" lon="1.58496">
        <ele>6</ele>
        <time>2015-04-07T15:25:17.000Z</time>
      </trkpt>
      <trkpt lat="50.84373" lon="1.58496">
        <ele>6</ele>
        <time>2015-04-07T15:25:18.000Z</time>
      </trkpt>
      <trkpt lat="50.84373" lon="1.58497">
        <ele>6.1</ele>
        <time>2015-04-07T15:25:19.000Z</time>
      </trkpt>
      <trkpt lat="50.84373" lon="1.58498">
        <ele>6.2</ele>
        <time>2015-04-07T15:25:20.000Z</time>
      </trkpt>
      <trkpt lat="50.84373" lon="1.58499">
        <ele>6.3</ele>
        <time>2015-04-07T15:25:21.000Z</time>
      </trkpt>
      <trkpt lat="50.84373" lon="1.585">
        <ele>6.4</ele>
        <time>2015-04-07T15:25:22.000Z</time>
      </trkpt>
      <trkpt lat="50.84373" lon="1.58501">
        <ele>6.6</ele>
        <time>2015-04-07T15:25:23.000Z</time>
      </trkpt>
      <trkpt lat="50.84373" lon="1.58502">
        <ele>6.8</ele>
        <time>2015-04-07T15:25:24.000Z</time>
      </trkpt>
      <trkpt lat="50.84373" lon="1.58503">
        <ele>7.1</ele>
        <time>2015-04-07T15:25:25.000Z</time>
      </trkpt>
      <trkpt lat="50.84373" lon="1.58505">
        <ele>7.4</ele>
        <time>2015-04-07T15:25:26.000Z</time>
      </trkpt>
      <trkpt lat="50.84373" lon="1.58506">
        <ele>7.7</ele>
        <time>2015-04-07T15:25:27.000Z</time>
      </trkpt>
      <trkpt lat="50.84373" lon="1.58507">
        <ele>8</ele>
        <time>2015-04-07T15:25:28.000Z</time>
      </trkpt>
      <trkpt lat="50.84373" lon="1.58509">
        <ele>8.4</ele>
        <time>2015-04-07T15:25:29.000Z</time>
      </trkpt>
      <trkpt lat="50.84372" lon="1.58511">
        <ele>8.7</ele>
        <time>2015-04-07T15:25:30.000Z</time>
      </trkpt>
      <trkpt lat="50.8437" lon="1.58515">
        <ele>9.9</ele>
        <time>2015-04-07T15:25:31.000Z</time>
      </trkpt>
      <trkpt lat="50.8437" lon="1.58515">
        <ele>9.9</ele>
        <time>2015-04-07T15:25:32.000Z</time>
      </trkpt>
      <trkpt lat="50.8437" lon="1.58515">
        <ele>10</ele>
        <time>2015-04-07T15:25:33.000Z</time>
      </trkpt>
      <trkpt lat="50.8437" lon="1.58516">
        <ele>10.3</ele>
        <time>2015-04-07T15:25:34.000Z</time>
      </trkpt>
      <trkpt lat="50.8437" lon="1.58516">
        <ele>10.3</ele>
        <time>2015-04-07T15:25:35.000Z</time>
      </trkpt>
      <trkpt lat="50.8437" lon="1.58517">
        <ele>10.3</ele>
        <time>2015-04-07T15:25:36.000Z</time>
      </trkpt>
      <trkpt lat="50.8437" lon="1.58517">
        <ele>10.4</ele>
        <time>2015-04-07T15:25:37.000Z</time>
      </trkpt>
      <trkpt lat="50.8437" lon="1.58517">
        <ele>10.4</ele>
        <time>2015-04-07T15:25:38.000Z</time>
      </trkpt>
      <trkpt lat="50.84371" lon="1.58518">
        <ele>10.5</ele>
        <time>2015-04-07T15:25:39.000Z</time>
      </trkpt>
      <trkpt lat="50.84371" lon="1.58518">
        <ele>10.6</ele>
        <time>2015-04-07T15:25:40.000Z</time>
      </trkpt>
      <trkpt lat="50.84372" lon="1.58519">
        <ele>10.6</ele>
        <time>2015-04-07T15:25:41.000Z</time>
      </trkpt>
      <trkpt lat="50.84372" lon="1.58519">
        <ele>10.7</ele>
        <time>2015-04-07T15:25:42.000Z</time>
      </trkpt>
      <trkpt lat="50.84372" lon="1.5852">
        <ele>10.9</ele>
        <time>2015-04-07T15:25:43.000Z</time>
      </trkpt>
      <trkpt lat="50.84373" lon="1.58522">
        <ele>11.1</ele>
        <time>2015-04-07T15:25:44.000Z</time>
      </trkpt>
      <trkpt lat="50.84373" lon="1.58522">
        <ele>11.1</ele>
        <time>2015-04-07T15:25:45.000Z</time>
      </trkpt>
      <trkpt lat="50.84373" lon="1.58522">
        <ele>11.1</ele>
        <time>2015-04-07T15:25:46.000Z</time>
      </trkpt>
      <trkpt lat="50.84373" lon="1.58522">
        <ele>11.1</ele>
        <time>2015-04-07T15:25:47.000Z</time>
      </trkpt>
      <trkpt lat="50.84373" lon="1.58522">
        <ele>11.1</ele>
        <time>2015-04-07T15:25:48.000Z</time>
      </trkpt>
      <trkpt lat="50.84373" lon="1.58522">
        <ele>11.1</ele>
        <time>2015-04-07T15:25:49.000Z</time>
      </trkpt>
      <trkpt lat="50.84373" lon="1.58522">
        <ele>11.1</ele>
        <time>2015-04-07T15:25:50.000Z</time>
      </trkpt>
      <trkpt lat="50.84373" lon="1.58522">
        <ele>11.1</ele>
        <time>2015-04-07T15:25:51.000Z</time>
      </trkpt>
      <trkpt lat="50.84373" lon="1.58521">
        <ele>11</ele>
        <time>2015-04-07T15:25:52.000Z</time>
      </trkpt>
      <trkpt lat="50.84373" lon="1.58521">
        <ele>11</ele>
        <time>2015-04-07T15:25:53.000Z</time>
      </trkpt>
      <trkpt lat="50.84373" lon="1.58521">
        <ele>11</ele>
        <time>2015-04-07T15:25:54.000Z</time>
      </trkpt>
      <trkpt lat="50.84373" lon="1.58521">
        <ele>11</ele>
        <time>2015-04-07T15:25:55.000Z</time>
      </trkpt>
      <trkpt lat="50.84373" lon="1.58521">
        <ele>10.9</ele>
        <time>2015-04-07T15:25:56.000Z</time>
      </trkpt>
      <trkpt lat="50.84373" lon="1.58521">
        <ele>10.9</ele>
        <time>2015-04-07T15:25:57.000Z</time>
      </trkpt>
      <trkpt lat="50.84373" lon="1.58521">
        <ele>10.9</ele>
        <time>2015-04-07T15:25:58.000Z</time>
      </trkpt>
      <trkpt lat="50.84373" lon="1.58521">
        <ele>10.9</ele>
        <time>2015-04-07T15:25:59.000Z</time>
      </trkpt>
      <trkpt lat="50.84373" lon="1.58521">
        <ele>10.9</ele>
        <time>2015-04-07T15:26:00.000Z</time>
      </trkpt>
      <trkpt lat="50.84373" lon="1.58521">
        <ele>10.9</ele>
        <time>2015-04-07T15:26:01.000Z</time>
      </trkpt>
      <trkpt lat="50.84373" lon="1.58521">
        <ele>10.9</ele>
        <time>2015-04-07T15:26:02.000Z</time>
      </trkpt>
      <trkpt lat="50.84373" lon="1.58521">
        <ele>10.9</ele>
        <time>2015-04-07T15:26:03.000Z</time>
      </trkpt>
      <trkpt lat="50.84373" lon="1.58521">
        <ele>10.9</ele>
        <time>2015-04-07T15:26:04.000Z</time>
      </trkpt>
      <trkpt lat="50.84373" lon="1.58521">
        <ele>10.9</ele>
        <time>2015-04-07T15:26:05.000Z</time>
      </trkpt>
      <trkpt lat="50.84373" lon="1.58521">
        <ele>10.9</ele>
        <time>2015-04-07T15:26:06.000Z</time>
      </trkpt>
      <trkpt lat="50.84373" lon="1.5852">
        <ele>10.9</ele>
        <time>2015-04-07T15:26:07.000Z</time>
      </trkpt>
      <trkpt lat="50.84373" lon="1.5852">
        <ele>10.9</ele>
        <time>2015-04-07T15:26:08.000Z</time>
      </trkpt>
      <trkpt lat="50.84373" lon="1.5852">
        <ele>10.9</ele>
        <time>2015-04-07T15:26:09.000Z</time>
      </trkpt>
      <trkpt lat="50.84373" lon="1.5852">
        <ele>10.9</ele>
        <time>2015-04-07T15:26:10.000Z</time>
      </trkpt>
      <trkpt lat="50.84373" lon="1.58521">
        <ele>10.9</ele>
        <time>2015-04-07T15:26:11.000Z</time>
      </trkpt>
      <trkpt lat="50.84373" lon="1.58521">
        <ele>10.9</ele>
        <time>2015-04-07T15:26:12.000Z</time>
      </trkpt>
      <trkpt lat="50.84373" lon="1.58521">
        <ele>10.9</ele>
        <time>2015-04-07T15:26:13.000Z</time>
      </trkpt>
      <trkpt lat="50.84373" lon="1.58521">
        <ele>10.9</ele>
        <time>2015-04-07T15:26:14.000Z</time>
      </trkpt>
      <trkpt lat="50.84373" lon="1.5852">
        <ele>10.9</ele>
        <time>2015-04-07T15:26:15.000Z</time>
      </trkpt>
      <trkpt lat="50.84373" lon="1.5852">
        <ele>10.9</ele>
        <time>2015-04-07T15:26:16.000Z</time>
      </trkpt>
      <trkpt lat="50.84373" lon="1.5852">
        <ele>10.9</ele>
        <time>2015-04-07T15:26:17.000Z</time>
      </trkpt>
      <trkpt lat="50.84373" lon="1.58521">
        <ele>10.9</ele>
        <time>2015-04-07T15:26:18.000Z</time>
      </trkpt>
      <trkpt lat="50.84373" lon="1.58521">
        <ele>10.9</ele>
        <time>2015-04-07T15:26:19.000Z</time>
      </trkpt>
      <trkpt lat="50.84373" lon="1.58521">
        <ele>10.9</ele>
        <time>2015-04-07T15:26:20.000Z</time>
      </trkpt>
      <trkpt lat="50.84373" lon="1.58521">
        <ele>10.9</ele>
        <time>2015-04-07T15:26:21.000Z</time>
      </trkpt>
      <trkpt lat="50.84373" lon="1.58521">
        <ele>10.9</ele>
        <time>2015-04-07T15:26:22.000Z</time>
      </trkpt>
      <trkpt lat="50.84373" lon="1.5852">
        <ele>10.9</ele>
        <time>2015-04-07T15:26:23.000Z</time>
      </trkpt>
      <trkpt lat="50.84373" lon="1.5852">
        <ele>10.9</ele>
        <time>2015-04-07T15:26:24.000Z</time>
      </trkpt>
      <trkpt lat="50.84373" lon="1.5852">
        <ele>10.8</ele>
        <time>2015-04-07T15:26:25.000Z</time>
      </trkpt>
      <trkpt lat="50.84373" lon="1.5852">
        <ele>10.9</ele>
        <time>2015-04-07T15:26:26.000Z</time>
      </trkpt>
      <trkpt lat="50.84373" lon="1.5852">
        <ele>10.9</ele>
        <time>2015-04-07T15:26:27.000Z</time>
      </trkpt>
      <trkpt lat="50.84373" lon="1.58521">
        <ele>10.9</ele>
        <time>2015-04-07T15:26:28.000Z</time>
      </trkpt>
      <trkpt lat="50.84373" lon="1.58521">
        <ele>10.9</ele>
        <time>2015-04-07T15:26:29.000Z</time>
      </trkpt>
      <trkpt lat="50.84373" lon="1.5852">
        <ele>10.8</ele>
        <time>2015-04-07T15:26:30.000Z</time>
      </trkpt>
      <trkpt lat="50.84373" lon="1.5852">
        <ele>10.8</ele>
        <time>2015-04-07T15:26:31.000Z</time>
      </trkpt>
      <trkpt lat="50.84373" lon="1.58521">
        <ele>10.9</ele>
        <time>2015-04-07T15:26:32.000Z</time>
      </trkpt>
      <trkpt lat="50.84373" lon="1.58521">
        <ele>10.9</ele>
        <time>2015-04-07T15:26:33.000Z</time>
      </trkpt>
      <trkpt lat="50.84373" lon="1.58521">
        <ele>10.9</ele>
        <time>2015-04-07T15:26:34.000Z</time>
      </trkpt>
      <trkpt lat="50.84373" lon="1.58521">
        <ele>10.9</ele>
        <time>2015-04-07T15:26:35.000Z</time>
      </trkpt>
      <trkpt lat="50.84373" lon="1.58521">
        <ele>10.9</ele>
        <time>2015-04-07T15:26:36.000Z</time>
      </trkpt>
      <trkpt lat="50.84373" lon="1.58521">
        <ele>10.9</ele>
        <time>2015-04-07T15:26:37.000Z</time>
      </trkpt>
      <trkpt lat="50.84373" lon="1.58521">
        <ele>10.9</ele>
        <time>2015-04-07T15:26:38.000Z</time>
      </trkpt>
      <trkpt lat="50.84373" lon="1.58521">
        <ele>10.9</ele>
        <time>2015-04-07T15:26:39.000Z</time>
      </trkpt>
      <trkpt lat="50.84373" lon="1.58521">
        <ele>10.9</ele>
        <time>2015-04-07T15:26:40.000Z</time>
      </trkpt>
      <trkpt lat="50.84373" lon="1.58521">
        <ele>10.9</ele>
        <time>2015-04-07T15:26:41.000Z</time>
      </trkpt>
      <trkpt lat="50.84373" lon="1.58521">
        <ele>10.9</ele>
        <time>2015-04-07T15:26:42.000Z</time>
      </trkpt>
      <trkpt lat="50.84373" lon="1.58521">
        <ele>10.9</ele>
        <time>2015-04-07T15:26:43.000Z</time>
      </trkpt>
      <trkpt lat="50.84373" lon="1.58521">
        <ele>10.8</ele>
        <time>2015-04-07T15:26:44.000Z</time>
      </trkpt>
      <trkpt lat="50.84373" lon="1.58521">
        <ele>10.8</ele>
        <time>2015-04-07T15:26:45.000Z</time>
      </trkpt>
      <trkpt lat="50.84373" lon="1.5852">
        <ele>10.8</ele>
        <time>2015-04-07T15:26:46.000Z</time>
      </trkpt>
      <trkpt lat="50.84373" lon="1.5852">
        <ele>10.8</ele>
        <time>2015-04-07T15:26:47.000Z</time>
      </trkpt>
      <trkpt lat="50.84373" lon="1.5852">
        <ele>10.8</ele>
        <time>2015-04-07T15:26:48.000Z</time>
      </trkpt>
      <trkpt lat="50.84373" lon="1.5852">
        <ele>10.8</ele>
        <time>2015-04-07T15:26:49.000Z</time>
      </trkpt>
      <trkpt lat="50.84373" lon="1.5852">
        <ele>10.8</ele>
        <time>2015-04-07T15:26:50.000Z</time>
      </trkpt>
      <trkpt lat="50.84373" lon="1.5852">
        <ele>10.8</ele>
        <time>2015-04-07T15:26:51.000Z</time>
      </trkpt>
      <trkpt lat="50.84373" lon="1.58521">
        <ele>10.8</ele>
        <time>2015-04-07T15:26:52.000Z</time>
      </trkpt>
      <trkpt lat="50.84373" lon="1.58521">
        <ele>10.8</ele>
        <time>2015-04-07T15:26:53.000Z</time>
      </trkpt>
      <trkpt lat="50.84373" lon="1.58521">
        <ele>10.8</ele>
        <time>2015-04-07T15:26:54.000Z</time>
      </trkpt>
      <trkpt lat="50.84373" lon="1.58521">
        <ele>10.8</ele>
        <time>2015-04-07T15:26:55.000Z</time>
      </trkpt>
      <trkpt lat="50.84373" lon="1.58521">
        <ele>10.8</ele>
        <time>2015-04-07T15:26:56.000Z</time>
      </trkpt>
      <trkpt lat="50.84373" lon="1.58521">
        <ele>10.8</ele>
        <time>2015-04-07T15:26:57.000Z</time>
      </trkpt>
      <trkpt lat="50.84373" lon="1.58521">
        <ele>10.8</ele>
        <time>2015-04-07T15:26:58.000Z</time>
      </trkpt>
      <trkpt lat="50.84373" lon="1.58521">
        <ele>10.8</ele>
        <time>2015-04-07T15:26:59.000Z</time>
      </trkpt>
      <trkpt lat="50.84373" lon="1.58521">
        <ele>10.8</ele>
        <time>2015-04-07T15:27:00.000Z</time>
      </trkpt>
      <trkpt lat="50.84373" lon="1.58521">
        <ele>10.8</ele>
        <time>2015-04-07T15:27:01.000Z</time>
      </trkpt>
      <trkpt lat="50.84373" lon="1.58521">
        <ele>10.8</ele>
        <time>2015-04-07T15:27:02.000Z</time>
      </trkpt>
      <trkpt lat="50.84373" lon="1.58521">
        <ele>10.8</ele>
        <time>2015-04-07T15:27:03.000Z</time>
      </trkpt>
      <trkpt lat="50.84373" lon="1.58521">
        <ele>10.8</ele>
        <time>2015-04-07T15:27:04.000Z</time>
      </trkpt>
      <trkpt lat="50.84373" lon="1.58521">
        <ele>10.8</ele>
        <time>2015-04-07T15:27:05.000Z</time>
      </trkpt>
      <trkpt lat="50.84373" lon="1.58521">
        <ele>10.8</ele>
        <time>2015-04-07T15:27:06.000Z</time>
      </trkpt>
      <trkpt lat="50.84373" lon="1.5852">
        <ele>10.8</ele>
        <time>2015-04-07T15:27:07.000Z</time>
      </trkpt>
      <trkpt lat="50.84373" lon="1.5852">
        <ele>10.8</ele>
        <time>2015-04-07T15:27:08.000Z</time>
      </trkpt>
      <trkpt lat="50.84373" lon="1.58521">
        <ele>10.8</ele>
        <time>2015-04-07T15:27:09.000Z</time>
      </trkpt>
      <trkpt lat="50.84373" lon="1.58521">
        <ele>10.8</ele>
        <time>2015-04-07T15:27:10.000Z</time>
      </trkpt>
      <trkpt lat="50.84373" lon="1.58521">
        <ele>10.8</ele>
        <time>2015-04-07T15:27:11.000Z</time>
      </trkpt>
      <trkpt lat="50.84373" lon="1.58521">
        <ele>10.8</ele>
        <time>2015-04-07T15:27:12.000Z</time>
      </trkpt>
      <trkpt lat="50.84373" lon="1.58521">
        <ele>10.8</ele>
        <time>2015-04-07T15:27:13.000Z</time>
      </trkpt>
      <trkpt lat="50.84374" lon="1.58522">
        <ele>11</ele>
        <time>2015-04-07T15:27:14.000Z</time>
      </trkpt>
      <trkpt lat="50.84374" lon="1.58522">
        <ele>11</ele>
        <time>2015-04-07T15:27:15.000Z</time>
      </trkpt>
      <trkpt lat="50.84374" lon="1.58522">
        <ele>11</ele>
        <time>2015-04-07T15:27:16.000Z</time>
      </trkpt>
      <trkpt lat="50.84374" lon="1.58522">
        <ele>11</ele>
        <time>2015-04-07T15:27:17.000Z</time>
      </trkpt>
      <trkpt lat="50.84374" lon="1.58522">
        <ele>11</ele>
        <time>2015-04-07T15:27:18.000Z</time>
      </trkpt>
      <trkpt lat="50.84374" lon="1.58522">
        <ele>11</ele>
        <time>2015-04-07T15:27:19.000Z</time>
      </trkpt>
      <trkpt lat="50.84374" lon="1.58522">
        <ele>11</ele>
        <time>2015-04-07T15:27:20.000Z</time>
      </trkpt>
      <trkpt lat="50.84374" lon="1.58522">
        <ele>11</ele>
        <time>2015-04-07T15:27:21.000Z</time>
      </trkpt>
      <trkpt lat="50.84374" lon="1.58522">
        <ele>11</ele>
        <time>2015-04-07T15:27:22.000Z</time>
      </trkpt>
      <trkpt lat="50.84374" lon="1.58522">
        <ele>11</ele>
        <time>2015-04-07T15:27:23.000Z</time>
      </trkpt>
      <trkpt lat="50.84374" lon="1.58523">
        <ele>11.1</ele>
        <time>2015-04-07T15:27:24.000Z</time>
      </trkpt>
      <trkpt lat="50.84374" lon="1.58523">
        <ele>11.1</ele>
        <time>2015-04-07T15:27:25.000Z</time>
      </trkpt>
      <trkpt lat="50.84374" lon="1.58523">
        <ele>11.2</ele>
        <time>2015-04-07T15:27:26.000Z</time>
      </trkpt>
      <trkpt lat="50.84374" lon="1.58524">
        <ele>11.3</ele>
        <time>2015-04-07T15:27:27.000Z</time>
      </trkpt>
      <trkpt lat="50.84374" lon="1.58525">
        <ele>11.7</ele>
        <time>2015-04-07T15:27:28.000Z</time>
      </trkpt>
      <trkpt lat="50.84374" lon="1.58525">
        <ele>11.7</ele>
        <time>2015-04-07T15:27:29.000Z</time>
      </trkpt>
      <trkpt lat="50.84374" lon="1.58526">
        <ele>11.9</ele>
        <time>2015-04-07T15:27:30.000Z</time>
      </trkpt>
      <trkpt lat="50.84374" lon="1.58526">
        <ele>11.9</ele>
        <time>2015-04-07T15:27:31.000Z</time>
      </trkpt>
      <trkpt lat="50.84374" lon="1.58527">
        <ele>12</ele>
        <time>2015-04-07T15:27:32.000Z</time>
      </trkpt>
      <trkpt lat="50.84374" lon="1.58527">
        <ele>12.1</ele>
        <time>2015-04-07T15:27:33.000Z</time>
      </trkpt>
      <trkpt lat="50.84374" lon="1.58528">
        <ele>12.3</ele>
        <time>2015-04-07T15:27:34.000Z</time>
      </trkpt>
      <trkpt lat="50.84374" lon="1.58529">
        <ele>12.4</ele>
        <time>2015-04-07T15:27:35.000Z</time>
      </trkpt>
      <trkpt lat="50.84373" lon="1.5853">
        <ele>12.5</ele>
        <time>2015-04-07T15:27:36.000Z</time>
      </trkpt>
      <trkpt lat="50.84373" lon="1.5853">
        <ele>12.6</ele>
        <time>2015-04-07T15:27:37.000Z</time>
      </trkpt>
      <trkpt lat="50.84373" lon="1.58531">
        <ele>12.7</ele>
        <time>2015-04-07T15:27:38.000Z</time>
      </trkpt>
      <trkpt lat="50.84373" lon="1.58532">
        <ele>12.8</ele>
        <time>2015-04-07T15:27:39.000Z</time>
      </trkpt>
      <trkpt lat="50.84373" lon="1.58533">
        <ele>12.9</ele>
        <time>2015-04-07T15:27:40.000Z</time>
      </trkpt>
      <trkpt lat="50.84373" lon="1.58534">
        <ele>12.9</ele>
        <time>2015-04-07T15:27:41.000Z</time>
      </trkpt>
      <trkpt lat="50.84372" lon="1.58537">
        <ele>13.4</ele>
        <time>2015-04-07T15:27:42.000Z</time>
      </trkpt>
      <trkpt lat="50.84372" lon="1.58537">
        <ele>13.4</ele>
        <time>2015-04-07T15:27:43.000Z</time>
      </trkpt>
      <trkpt lat="50.84372" lon="1.58537">
        <ele>13.4</ele>
        <time>2015-04-07T15:27:44.000Z</time>
      </trkpt>
      <trkpt lat="50.84372" lon="1.58538">
        <ele>13.4</ele>
        <time>2015-04-07T15:27:45.000Z</time>
      </trkpt>
      <trkpt lat="50.84372" lon="1.58538">
        <ele>13.4</ele>
        <time>2015-04-07T15:27:46.000Z</time>
      </trkpt>
      <trkpt lat="50.84372" lon="1.58538">
        <ele>13.4</ele>
        <time>2015-04-07T15:27:47.000Z</time>
      </trkpt>
      <trkpt lat="50.84372" lon="1.58538">
        <ele>13.5</ele>
        <time>2015-04-07T15:27:48.000Z</time>
      </trkpt>
      <trkpt lat="50.84372" lon="1.58539">
        <ele>13.5</ele>
        <time>2015-04-07T15:27:49.000Z</time>
      </trkpt>
      <trkpt lat="50.84372" lon="1.58539">
        <ele>13.5</ele>
        <time>2015-04-07T15:27:50.000Z</time>
      </trkpt>
      <trkpt lat="50.84372" lon="1.58539">
        <ele>13.6</ele>
        <time>2015-04-07T15:27:51.000Z</time>
      </trkpt>
      <trkpt lat="50.84372" lon="1.58539">
        <ele>13.6</ele>
        <time>2015-04-07T15:27:52.000Z</time>
      </trkpt>
      <trkpt lat="50.84372" lon="1.5854">
        <ele>13.6</ele>
        <time>2015-04-07T15:27:53.000Z</time>
      </trkpt>
      <trkpt lat="50.84372" lon="1.5854">
        <ele>13.7</ele>
        <time>2015-04-07T15:27:54.000Z</time>
      </trkpt>
      <trkpt lat="50.84372" lon="1.5854">
        <ele>13.7</ele>
        <time>2015-04-07T15:27:55.000Z</time>
      </trkpt>
      <trkpt lat="50.84372" lon="1.5854">
        <ele>13.7</ele>
        <time>2015-04-07T15:27:56.000Z</time>
      </trkpt>
      <trkpt lat="50.84372" lon="1.58541">
        <ele>13.7</ele>
        <time>2015-04-07T15:27:57.000Z</time>
      </trkpt>
      <trkpt lat="50.84372" lon="1.58541">
        <ele>13.7</ele>
        <time>2015-04-07T15:27:58.000Z</time>
      </trkpt>
      <trkpt lat="50.84372" lon="1.58541">
        <ele>13.8</ele>
        <time>2015-04-07T15:27:59.000Z</time>
      </trkpt>
      <trkpt lat="50.84371" lon="1.58541">
        <ele>14.1</ele>
        <time>2015-04-07T15:28:00.000Z</time>
      </trkpt>
      <trkpt lat="50.84371" lon="1.58541">
        <ele>14.1</ele>
        <time>2015-04-07T15:28:01.000Z</time>
      </trkpt>
      <trkpt lat="50.8437" lon="1.58541">
        <ele>14.1</ele>
        <time>2015-04-07T15:28:02.000Z</time>
      </trkpt>
      <trkpt lat="50.8437" lon="1.58541">
        <ele>14.1</ele>
        <time>2015-04-07T15:28:03.000Z</time>
      </trkpt>
      <trkpt lat="50.8437" lon="1.58541">
        <ele>14.2</ele>
        <time>2015-04-07T15:28:04.000Z</time>
      </trkpt>
      <trkpt lat="50.8437" lon="1.58541">
        <ele>14.2</ele>
        <time>2015-04-07T15:28:05.000Z</time>
      </trkpt>
      <trkpt lat="50.84369" lon="1.5854">
        <ele>14.4</ele>
        <time>2015-04-07T15:28:06.000Z</time>
      </trkpt>
      <trkpt lat="50.84369" lon="1.5854">
        <ele>14.4</ele>
        <time>2015-04-07T15:28:07.000Z</time>
      </trkpt>
      <trkpt lat="50.84368" lon="1.5854">
        <ele>14.5</ele>
        <time>2015-04-07T15:28:08.000Z</time>
      </trkpt>
      <trkpt lat="50.84368" lon="1.5854">
        <ele>14.5</ele>
        <time>2015-04-07T15:28:09.000Z</time>
      </trkpt>
      <trkpt lat="50.84368" lon="1.5854">
        <ele>14.6</ele>
        <time>2015-04-07T15:28:10.000Z</time>
      </trkpt>
      <trkpt lat="50.84368" lon="1.5854">
        <ele>14.6</ele>
        <time>2015-04-07T15:28:11.000Z</time>
      </trkpt>
      <trkpt lat="50.84366" lon="1.5854">
        <ele>15.1</ele>
        <time>2015-04-07T15:28:12.000Z</time>
      </trkpt>
      <trkpt lat="50.84366" lon="1.58541">
        <ele>15.1</ele>
        <time>2015-04-07T15:28:13.000Z</time>
      </trkpt>
      <trkpt lat="50.84366" lon="1.58541">
        <ele>15.2</ele>
        <time>2015-04-07T15:28:14.000Z</time>
      </trkpt>
      <trkpt lat="50.84366" lon="1.58541">
        <ele>15.3</ele>
        <time>2015-04-07T15:28:15.000Z</time>
      </trkpt>
      <trkpt lat="50.84365" lon="1.58542">
        <ele>15.4</ele>
        <time>2015-04-07T15:28:16.000Z</time>
      </trkpt>
      <trkpt lat="50.84365" lon="1.58543">
        <ele>15.6</ele>
        <time>2015-04-07T15:28:17.000Z</time>
      </trkpt>
      <trkpt lat="50.84365" lon="1.58544">
        <ele>15.7</ele>
        <time>2015-04-07T15:28:18.000Z</time>
      </trkpt>
      <trkpt lat="50.84365" lon="1.58544">
        <ele>15.9</ele>
        <time>2015-04-07T15:28:19.000Z</time>
      </trkpt>
      <trkpt lat="50.84363" lon="1.58546">
        <ele>16.4</ele>
        <time>2015-04-07T15:28:20.000Z</time>
      </trkpt>
      <trkpt lat="50.84363" lon="1.58546">
        <ele>16.4</ele>
        <time>2015-04-07T15:28:21.000Z</time>
      </trkpt>
      <trkpt lat="50.84364" lon="1.58546">
        <ele>16.3</ele>
        <time>2015-04-07T15:28:22.000Z</time>
      </trkpt>
      <trkpt lat="50.84364" lon="1.58546">
        <ele>16.3</ele>
        <time>2015-04-07T15:28:23.000Z</time>
      </trkpt>
      <trkpt lat="50.84364" lon="1.58546">
        <ele>16.3</ele>
        <time>2015-04-07T15:28:24.000Z</time>
      </trkpt>
      <trkpt lat="50.84364" lon="1.58546">
        <ele>16.3</ele>
        <time>2015-04-07T15:28:25.000Z</time>
      </trkpt>
      <trkpt lat="50.84364" lon="1.58546">
        <ele>16.3</ele>
        <time>2015-04-07T15:28:26.000Z</time>
      </trkpt>
      <trkpt lat="50.84364" lon="1.58546">
        <ele>16.3</ele>
        <time>2015-04-07T15:28:27.000Z</time>
      </trkpt>
      <trkpt lat="50.84364" lon="1.58546">
        <ele>16.3</ele>
        <time>2015-04-07T15:28:28.000Z</time>
      </trkpt>
      <trkpt lat="50.84364" lon="1.58546">
        <ele>16.3</ele>
        <time>2015-04-07T15:28:29.000Z</time>
      </trkpt>
      <trkpt lat="50.84364" lon="1.58546">
        <ele>16.3</ele>
        <time>2015-04-07T15:28:30.000Z</time>
      </trkpt>
      <trkpt lat="50.84364" lon="1.58546">
        <ele>16.3</ele>
        <time>2015-04-07T15:28:31.000Z</time>
      </trkpt>
      <trkpt lat="50.84363" lon="1.58546">
        <ele>16.4</ele>
        <time>2015-04-07T15:28:32.000Z</time>
      </trkpt>
      <trkpt lat="50.84363" lon="1.58546">
        <ele>16.4</ele>
        <time>2015-04-07T15:28:33.000Z</time>
      </trkpt>
      <trkpt lat="50.84363" lon="1.58546">
        <ele>16.4</ele>
        <time>2015-04-07T15:28:34.000Z</time>
      </trkpt>
      <trkpt lat="50.84363" lon="1.58547">
        <ele>16.5</ele>
        <time>2015-04-07T15:28:35.000Z</time>
      </trkpt>
      <trkpt lat="50.84363" lon="1.58547">
        <ele>16.6</ele>
        <time>2015-04-07T15:28:36.000Z</time>
      </trkpt>
      <trkpt lat="50.84363" lon="1.58548">
        <ele>16.8</ele>
        <time>2015-04-07T15:28:37.000Z</time>
      </trkpt>
      <trkpt lat="50.84362" lon="1.58548">
        <ele>16.9</ele>
        <time>2015-04-07T15:28:38.000Z</time>
      </trkpt>
      <trkpt lat="50.84362" lon="1.58549">
        <ele>17.1</ele>
        <time>2015-04-07T15:28:39.000Z</time>
      </trkpt>
      <trkpt lat="50.84362" lon="1.5855">
        <ele>17.3</ele>
        <time>2015-04-07T15:28:40.000Z</time>
      </trkpt>
      <trkpt lat="50.84361" lon="1.58551">
        <ele>17.4</ele>
        <time>2015-04-07T15:28:41.000Z</time>
      </trkpt>
      <trkpt lat="50.84361" lon="1.58552">
        <ele>17.5</ele>
        <time>2015-04-07T15:28:42.000Z</time>
      </trkpt>
      <trkpt lat="50.84361" lon="1.58552">
        <ele>17.6</ele>
        <time>2015-04-07T15:28:43.000Z</time>
      </trkpt>
      <trkpt lat="50.84361" lon="1.58553">
        <ele>17.7</ele>
        <time>2015-04-07T15:28:44.000Z</time>
      </trkpt>
      <trkpt lat="50.84361" lon="1.58554">
        <ele>17.8</ele>
        <time>2015-04-07T15:28:45.000Z</time>
      </trkpt>
      <trkpt lat="50.84361" lon="1.58555">
        <ele>17.9</ele>
        <time>2015-04-07T15:28:46.000Z</time>
      </trkpt>
      <trkpt lat="50.84361" lon="1.58555">
        <ele>17.9</ele>
        <time>2015-04-07T15:28:47.000Z</time>
      </trkpt>
      <trkpt lat="50.84361" lon="1.58555">
        <ele>17.9</ele>
        <time>2015-04-07T15:28:48.000Z</time>
      </trkpt>
      <trkpt lat="50.84361" lon="1.58555">
        <ele>17.9</ele>
        <time>2015-04-07T15:28:49.000Z</time>
      </trkpt>
      <trkpt lat="50.84361" lon="1.58555">
        <ele>17.9</ele>
        <time>2015-04-07T15:28:50.000Z</time>
      </trkpt>
      <trkpt lat="50.84361" lon="1.58555">
        <ele>17.9</ele>
        <time>2015-04-07T15:28:51.000Z</time>
      </trkpt>
      <trkpt lat="50.84361" lon="1.58555">
        <ele>17.9</ele>
        <time>2015-04-07T15:28:52.000Z</time>
      </trkpt>
      <trkpt lat="50.84361" lon="1.58555">
        <ele>17.9</ele>
        <time>2015-04-07T15:28:53.000Z</time>
      </trkpt>
      <trkpt lat="50.84361" lon="1.58555">
        <ele>17.9</ele>
        <time>2015-04-07T15:28:54.000Z</time>
      </trkpt>
      <trkpt lat="50.84361" lon="1.58555">
        <ele>17.9</ele>
        <time>2015-04-07T15:28:55.000Z</time>
      </trkpt>
      <trkpt lat="50.84361" lon="1.58555">
        <ele>17.9</ele>
        <time>2015-04-07T15:28:56.000Z</time>
      </trkpt>
      <trkpt lat="50.84361" lon="1.58555">
        <ele>17.9</ele>
        <time>2015-04-07T15:28:57.000Z</time>
      </trkpt>
      <trkpt lat="50.84361" lon="1.58555">
        <ele>17.9</ele>
        <time>2015-04-07T15:28:58.000Z</time>
      </trkpt>
      <trkpt lat="50.84361" lon="1.58555">
        <ele>17.9</ele>
        <time>2015-04-07T15:28:59.000Z</time>
      </trkpt>
      <trkpt lat="50.84361" lon="1.58555">
        <ele>17.9</ele>
        <time>2015-04-07T15:29:00.000Z</time>
      </trkpt>
      <trkpt lat="50.84361" lon="1.58555">
        <ele>17.9</ele>
        <time>2015-04-07T15:29:01.000Z</time>
      </trkpt>
      <trkpt lat="50.84361" lon="1.58555">
        <ele>17.9</ele>
        <time>2015-04-07T15:29:02.000Z</time>
      </trkpt>
      <trkpt lat="50.84361" lon="1.58555">
        <ele>17.9</ele>
        <time>2015-04-07T15:29:03.000Z</time>
      </trkpt>
      <trkpt lat="50.84361" lon="1.58555">
        <ele>17.9</ele>
        <time>2015-04-07T15:29:04.000Z</time>
      </trkpt>
      <trkpt lat="50.84361" lon="1.58555">
        <ele>17.9</ele>
        <time>2015-04-07T15:29:05.000Z</time>
      </trkpt>
      <trkpt lat="50.84361" lon="1.58555">
        <ele>17.9</ele>
        <time>2015-04-07T15:29:06.000Z</time>
      </trkpt>
      <trkpt lat="50.84361" lon="1.58555">
        <ele>17.9</ele>
        <time>2015-04-07T15:29:07.000Z</time>
      </trkpt>
      <trkpt lat="50.84361" lon="1.58555">
        <ele>17.9</ele>
        <time>2015-04-07T15:29:08.000Z</time>
      </trkpt>
      <trkpt lat="50.84361" lon="1.58555">
        <ele>17.9</ele>
        <time>2015-04-07T15:29:09.000Z</time>
      </trkpt>
      <trkpt lat="50.84361" lon="1.58556">
        <ele>17.9</ele>
        <time>2015-04-07T15:29:10.000Z</time>
      </trkpt>
      <trkpt lat="50.84361" lon="1.58556">
        <ele>17.9</ele>
        <time>2015-04-07T15:29:11.000Z</time>
      </trkpt>
      <trkpt lat="50.84361" lon="1.58556">
        <ele>18</ele>
        <time>2015-04-07T15:29:12.000Z</time>
      </trkpt>
      <trkpt lat="50.84361" lon="1.58556">
        <ele>18</ele>
        <time>2015-04-07T15:29:13.000Z</time>
      </trkpt>
      <trkpt lat="50.84361" lon="1.58557">
        <ele>18.1</ele>
        <time>2015-04-07T15:29:14.000Z</time>
      </trkpt>
      <trkpt lat="50.8436" lon="1.58558">
        <ele>18.2</ele>
        <time>2015-04-07T15:29:15.000Z</time>
      </trkpt>
      <trkpt lat="50.84359" lon="1.58558">
        <ele>18.3</ele>
        <time>2015-04-07T15:29:16.000Z</time>
      </trkpt>
      <trkpt lat="50.84359" lon="1.58559">
        <ele>18.4</ele>
        <time>2015-04-07T15:29:17.000Z</time>
      </trkpt>
      <trkpt lat="50.84358" lon="1.5856">
        <ele>18.5</ele>
        <time>2015-04-07T15:29:18.000Z</time>
      </trkpt>
      <trkpt lat="50.84357" lon="1.5856">
        <ele>18.6</ele>
        <time>2015-04-07T15:29:19.000Z</time>
      </trkpt>
      <trkpt lat="50.84356" lon="1.58561">
        <ele>18.7</ele>
        <time>2015-04-07T15:29:20.000Z</time>
      </trkpt>
      <trkpt lat="50.84355" lon="1.58562">
        <ele>18.9</ele>
        <time>2015-04-07T15:29:21.000Z</time>
      </trkpt>
      <trkpt lat="50.84354" lon="1.58563">
        <ele>19</ele>
        <time>2015-04-07T15:29:22.000Z</time>
      </trkpt>
      <trkpt lat="50.84353" lon="1.58563">
        <ele>19.1</ele>
        <time>2015-04-07T15:29:23.000Z</time>
      </trkpt>
      <trkpt lat="50.84352" lon="1.58564">
        <ele>19.3</ele>
        <time>2015-04-07T15:29:24.000Z</time>
      </trkpt>
      <trkpt lat="50.84351" lon="1.58565">
        <ele>19.4</ele>
        <time>2015-04-07T15:29:25.000Z</time>
      </trkpt>
      <trkpt lat="50.8435" lon="1.58565">
        <ele>19.5</ele>
        <time>2015-04-07T15:29:26.000Z</time>
      </trkpt>
      <trkpt lat="50.84349" lon="1.58566">
        <ele>19.7</ele>
        <time>2015-04-07T15:29:27.000Z</time>
      </trkpt>
      <trkpt lat="50.84348" lon="1.58566">
        <ele>19.8</ele>
        <time>2015-04-07T15:29:28.000Z</time>
      </trkpt>
      <trkpt lat="50.84347" lon="1.58567">
        <ele>19.9</ele>
        <time>2015-04-07T15:29:29.000Z</time>
      </trkpt>
      <trkpt lat="50.84346" lon="1.58568">
        <ele>20.1</ele>
        <time>2015-04-07T15:29:30.000Z</time>
      </trkpt>
      <trkpt lat="50.84345" lon="1.58569">
        <ele>20.2</ele>
        <time>2015-04-07T15:29:31.000Z</time>
      </trkpt>
      <trkpt lat="50.84344" lon="1.58569">
        <ele>20.4</ele>
        <time>2015-04-07T15:29:32.000Z</time>
      </trkpt>
      <trkpt lat="50.84343" lon="1.5857">
        <ele>20.5</ele>
        <time>2015-04-07T15:29:33.000Z</time>
      </trkpt>
      <trkpt lat="50.84341" lon="1.58571">
        <ele>20.7</ele>
        <time>2015-04-07T15:29:34.000Z</time>
      </trkpt>
      <trkpt lat="50.8434" lon="1.58572">
        <ele>20.8</ele>
        <time>2015-04-07T15:29:35.000Z</time>
      </trkpt>
      <trkpt lat="50.84339" lon="1.58572">
        <ele>21</ele>
        <time>2015-04-07T15:29:36.000Z</time>
      </trkpt>
      <trkpt lat="50.84338" lon="1.58573">
        <ele>21.2</ele>
        <time>2015-04-07T15:29:37.000Z</time>
      </trkpt>
      <trkpt lat="50.84336" lon="1.58573">
        <ele>21.3</ele>
        <time>2015-04-07T15:29:38.000Z</time>
      </trkpt>
      <trkpt lat="50.84335" lon="1.58574">
        <ele>21.5</ele>
        <time>2015-04-07T15:29:39.000Z</time>
      </trkpt>
      <trkpt lat="50.84334" lon="1.58574">
        <ele>21.6</ele>
        <time>2015-04-07T15:29:40.000Z</time>
      </trkpt>
      <trkpt lat="50.84333" lon="1.58575">
        <ele>21.7</ele>
        <time>2015-04-07T15:29:41.000Z</time>
      </trkpt>
      <trkpt lat="50.84331" lon="1.58575">
        <ele>21.8</ele>
        <time>2015-04-07T15:29:42.000Z</time>
      </trkpt>
      <trkpt lat="50.8433" lon="1.58576">
        <ele>21.9</ele>
        <time>2015-04-07T15:29:43.000Z</time>
      </trkpt>
      <trkpt lat="50.84329" lon="1.58576">
        <ele>22</ele>
        <time>2015-04-07T15:29:44.000Z</time>
      </trkpt>
      <trkpt lat="50.84328" lon="1.58577">
        <ele>22.1</ele>
        <time>2015-04-07T15:29:45.000Z</time>
      </trkpt>
      <trkpt lat="50.84327" lon="1.58577">
        <ele>22.2</ele>
        <time>2015-04-07T15:29:46.000Z</time>
      </trkpt>
      <trkpt lat="50.84326" lon="1.58578">
        <ele>22.3</ele>
        <time>2015-04-07T15:29:47.000Z</time>
      </trkpt>
      <trkpt lat="50.84325" lon="1.58579">
        <ele>22.4</ele>
        <time>2015-04-07T15:29:48.000Z</time>
      </trkpt>
      <trkpt lat="50.84324" lon="1.58579">
        <ele>22.5</ele>
        <time>2015-04-07T15:29:49.000Z</time>
      </trkpt>
      <trkpt lat="50.84323" lon="1.5858">
        <ele>22.6</ele>
        <time>2015-04-07T15:29:50.000Z</time>
      </trkpt>
      <trkpt lat="50.84322" lon="1.5858">
        <ele>22.7</ele>
        <time>2015-04-07T15:29:51.000Z</time>
      </trkpt>
      <trkpt lat="50.84321" lon="1.58581">
        <ele>22.8</ele>
        <time>2015-04-07T15:29:52.000Z</time>
      </trkpt>
      <trkpt lat="50.8432" lon="1.58581">
        <ele>22.9</ele>
        <time>2015-04-07T15:29:53.000Z</time>
      </trkpt>
      <trkpt lat="50.84318" lon="1.58582">
        <ele>23</ele>
        <time>2015-04-07T15:29:54.000Z</time>
      </trkpt>
      <trkpt lat="50.84317" lon="1.58582">
        <ele>23.1</ele>
        <time>2015-04-07T15:29:55.000Z</time>
      </trkpt>
      <trkpt lat="50.84316" lon="1.58583">
        <ele>23.3</ele>
        <time>2015-04-07T15:29:56.000Z</time>
      </trkpt>
      <trkpt lat="50.84315" lon="1.58584">
        <ele>23.4</ele>
        <time>2015-04-07T15:29:57.000Z</time>
      </trkpt>
      <trkpt lat="50.84313" lon="1.58584">
        <ele>23.5</ele>
        <time>2015-04-07T15:29:58.000Z</time>
      </trkpt>
      <trkpt lat="50.84312" lon="1.58585">
        <ele>23.7</ele>
        <time>2015-04-07T15:29:59.000Z</time>
      </trkpt>
      <trkpt lat="50.84311" lon="1.58586">
        <ele>23.8</ele>
        <time>2015-04-07T15:30:00.000Z</time>
      </trkpt>
      <trkpt lat="50.8431" lon="1.58586">
        <ele>23.9</ele>
        <time>2015-04-07T15:30:01.000Z</time>
      </trkpt>
      <trkpt lat="50.84309" lon="1.58587">
        <ele>24</ele>
        <time>2015-04-07T15:30:02.000Z</time>
      </trkpt>
      <trkpt lat="50.84307" lon="1.58587">
        <ele>24.2</ele>
        <time>2015-04-07T15:30:03.000Z</time>
      </trkpt>
      <trkpt lat="50.84306" lon="1.58588">
        <ele>24.3</ele>
        <time>2015-04-07T15:30:04.000Z</time>
      </trkpt>
      <trkpt lat="50.84305" lon="1.58589">
        <ele>24.4</ele>
        <time>2015-04-07T15:30:05.000Z</time>
      </trkpt>
      <trkpt lat="50.84304" lon="1.58589">
        <ele>24.6</ele>
        <time>2015-04-07T15:30:06.000Z</time>
      </trkpt>
      <trkpt lat="50.84303" lon="1.5859">
        <ele>24.7</ele>
        <time>2015-04-07T15:30:07.000Z</time>
      </trkpt>
      <trkpt lat="50.84302" lon="1.58591">
        <ele>24.9</ele>
        <time>2015-04-07T15:30:08.000Z</time>
      </trkpt>
      <trkpt lat="50.84301" lon="1.58591">
        <ele>25</ele>
        <time>2015-04-07T15:30:09.000Z</time>
      </trkpt>
      <trkpt lat="50.84299" lon="1.58592">
        <ele>25.1</ele>
        <time>2015-04-07T15:30:10.000Z</time>
      </trkpt>
      <trkpt lat="50.84298" lon="1.58592">
        <ele>25.3</ele>
        <time>2015-04-07T15:30:11.000Z</time>
      </trkpt>
      <trkpt lat="50.84297" lon="1.58593">
        <ele>25.4</ele>
        <time>2015-04-07T15:30:12.000Z</time>
      </trkpt>
      <trkpt lat="50.84296" lon="1.58593">
        <ele>25.5</ele>
        <time>2015-04-07T15:30:13.000Z</time>
      </trkpt>
      <trkpt lat="50.84294" lon="1.58594">
        <ele>25.7</ele>
        <time>2015-04-07T15:30:14.000Z</time>
      </trkpt>
      <trkpt lat="50.84293" lon="1.58595">
        <ele>25.8</ele>
        <time>2015-04-07T15:30:15.000Z</time>
      </trkpt>
      <trkpt lat="50.84292" lon="1.58595">
        <ele>25.9</ele>
        <time>2015-04-07T15:30:16.000Z</time>
      </trkpt>
      <trkpt lat="50.84291" lon="1.58596">
        <ele>26</ele>
        <time>2015-04-07T15:30:17.000Z</time>
      </trkpt>
      <trkpt lat="50.8429" lon="1.58597">
        <ele>26.1</ele>
        <time>2015-04-07T15:30:18.000Z</time>
      </trkpt>
      <trkpt lat="50.84289" lon="1.58597">
        <ele>26.2</ele>
        <time>2015-04-07T15:30:19.000Z</time>
      </trkpt>
      <trkpt lat="50.84288" lon="1.58598">
        <ele>26.3</ele>
        <time>2015-04-07T15:30:20.000Z</time>
      </trkpt>
      <trkpt lat="50.84287" lon="1.58599">
        <ele>26.3</ele>
        <time>2015-04-07T15:30:21.000Z</time>
      </trkpt>
      <trkpt lat="50.84286" lon="1.58599">
        <ele>26.4</ele>
        <time>2015-04-07T15:30:22.000Z</time>
      </trkpt>
      <trkpt lat="50.84286" lon="1.586">
        <ele>26.5</ele>
        <time>2015-04-07T15:30:23.000Z</time>
      </trkpt>
      <trkpt lat="50.84285" lon="1.586">
        <ele>26.5</ele>
        <time>2015-04-07T15:30:24.000Z</time>
      </trkpt>
      <trkpt lat="50.84284" lon="1.58601">
        <ele>26.6</ele>
        <time>2015-04-07T15:30:25.000Z</time>
      </trkpt>
      <trkpt lat="50.84283" lon="1.58601">
        <ele>26.7</ele>
        <time>2015-04-07T15:30:26.000Z</time>
      </trkpt>
      <trkpt lat="50.84282" lon="1.58601">
        <ele>26.7</ele>
        <time>2015-04-07T15:30:27.000Z</time>
      </trkpt>
      <trkpt lat="50.84282" lon="1.58602">
        <ele>26.8</ele>
        <time>2015-04-07T15:30:28.000Z</time>
      </trkpt>
      <trkpt lat="50.84281" lon="1.58602">
        <ele>26.8</ele>
        <time>2015-04-07T15:30:29.000Z</time>
      </trkpt>
      <trkpt lat="50.84277" lon="1.58604">
        <ele>27.1</ele>
        <time>2015-04-07T15:30:30.000Z</time>
      </trkpt>
      <trkpt lat="50.84276" lon="1.58604">
        <ele>27.1</ele>
        <time>2015-04-07T15:30:31.000Z</time>
      </trkpt>
      <trkpt lat="50.84276" lon="1.58604">
        <ele>27.1</ele>
        <time>2015-04-07T15:30:32.000Z</time>
      </trkpt>
      <trkpt lat="50.84275" lon="1.58604">
        <ele>27.2</ele>
        <time>2015-04-07T15:30:33.000Z</time>
      </trkpt>
      <trkpt lat="50.84275" lon="1.58604">
        <ele>27.2</ele>
        <time>2015-04-07T15:30:34.000Z</time>
      </trkpt>
      <trkpt lat="50.84274" lon="1.58605">
        <ele>27.3</ele>
        <time>2015-04-07T15:30:35.000Z</time>
      </trkpt>
      <trkpt lat="50.84273" lon="1.58605">
        <ele>27.3</ele>
        <time>2015-04-07T15:30:36.000Z</time>
      </trkpt>
      <trkpt lat="50.84273" lon="1.58606">
        <ele>27.4</ele>
        <time>2015-04-07T15:30:37.000Z</time>
      </trkpt>
      <trkpt lat="50.84272" lon="1.58606">
        <ele>27.5</ele>
        <time>2015-04-07T15:30:38.000Z</time>
      </trkpt>
      <trkpt lat="50.84271" lon="1.58607">
        <ele>27.6</ele>
        <time>2015-04-07T15:30:39.000Z</time>
      </trkpt>
      <trkpt lat="50.8427" lon="1.58607">
        <ele>27.7</ele>
        <time>2015-04-07T15:30:40.000Z</time>
      </trkpt>
      <trkpt lat="50.84269" lon="1.58607">
        <ele>27.7</ele>
        <time>2015-04-07T15:30:41.000Z</time>
      </trkpt>
      <trkpt lat="50.84269" lon="1.58608">
        <ele>27.8</ele>
        <time>2015-04-07T15:30:42.000Z</time>
      </trkpt>
      <trkpt lat="50.84268" lon="1.58608">
        <ele>27.9</ele>
        <time>2015-04-07T15:30:43.000Z</time>
      </trkpt>
      <trkpt lat="50.84267" lon="1.58609">
        <ele>28</ele>
        <time>2015-04-07T15:30:44.000Z</time>
      </trkpt>
      <trkpt lat="50.84266" lon="1.58609">
        <ele>28.1</ele>
        <time>2015-04-07T15:30:45.000Z</time>
      </trkpt>
      <trkpt lat="50.84265" lon="1.5861">
        <ele>28.3</ele>
        <time>2015-04-07T15:30:46.000Z</time>
      </trkpt>
      <trkpt lat="50.84265" lon="1.5861">
        <ele>28.4</ele>
        <time>2015-04-07T15:30:47.000Z</time>
      </trkpt>
      <trkpt lat="50.84264" lon="1.58611">
        <ele>28.5</ele>
        <time>2015-04-07T15:30:48.000Z</time>
      </trkpt>
      <trkpt lat="50.84263" lon="1.58611">
        <ele>28.6</ele>
        <time>2015-04-07T15:30:49.000Z</time>
      </trkpt>
      <trkpt lat="50.84262" lon="1.58612">
        <ele>28.7</ele>
        <time>2015-04-07T15:30:50.000Z</time>
      </trkpt>
      <trkpt lat="50.84261" lon="1.58612">
        <ele>28.9</ele>
        <time>2015-04-07T15:30:51.000Z</time>
      </trkpt>
      <trkpt lat="50.8426" lon="1.58613">
        <ele>29</ele>
        <time>2015-04-07T15:30:52.000Z</time>
      </trkpt>
      <trkpt lat="50.84259" lon="1.58613">
        <ele>29.1</ele>
        <time>2015-04-07T15:30:53.000Z</time>
      </trkpt>
      <trkpt lat="50.84259" lon="1.58614">
        <ele>29.2</ele>
        <time>2015-04-07T15:30:54.000Z</time>
      </trkpt>
      <trkpt lat="50.84258" lon="1.58614">
        <ele>29.3</ele>
        <time>2015-04-07T15:30:55.000Z</time>
      </trkpt>
      <trkpt lat="50.84257" lon="1.58614">
        <ele>29.4</ele>
        <time>2015-04-07T15:30:56.000Z</time>
      </trkpt>
      <trkpt lat="50.84256" lon="1.58615">
        <ele>29.5</ele>
        <time>2015-04-07T15:30:57.000Z</time>
      </trkpt>
      <trkpt lat="50.84255" lon="1.58615">
        <ele>29.6</ele>
        <time>2015-04-07T15:30:58.000Z</time>
      </trkpt>
      <trkpt lat="50.84255" lon="1.58616">
        <ele>29.7</ele>
        <time>2015-04-07T15:30:59.000Z</time>
      </trkpt>
      <trkpt lat="50.84254" lon="1.58616">
        <ele>29.8</ele>
        <time>2015-04-07T15:31:00.000Z</time>
      </trkpt>
      <trkpt lat="50.84253" lon="1.58617">
        <ele>29.9</ele>
        <time>2015-04-07T15:31:01.000Z</time>
      </trkpt>
      <trkpt lat="50.84252" lon="1.58617">
        <ele>30</ele>
        <time>2015-04-07T15:31:02.000Z</time>
      </trkpt>
      <trkpt lat="50.84251" lon="1.58618">
        <ele>30.1</ele>
        <time>2015-04-07T15:31:03.000Z</time>
      </trkpt>
      <trkpt lat="50.84251" lon="1.58618">
        <ele>30.2</ele>
        <time>2015-04-07T15:31:04.000Z</time>
      </trkpt>
      <trkpt lat="50.8425" lon="1.58618">
        <ele>30.3</ele>
        <time>2015-04-07T15:31:05.000Z</time>
      </trkpt>
      <trkpt lat="50.84249" lon="1.58619">
        <ele>30.4</ele>
        <time>2015-04-07T15:31:06.000Z</time>
      </trkpt>
      <trkpt lat="50.84249" lon="1.58619">
        <ele>30.4</ele>
        <time>2015-04-07T15:31:07.000Z</time>
      </trkpt>
      <trkpt lat="50.84248" lon="1.58619">
        <ele>30.5</ele>
        <time>2015-04-07T15:31:08.000Z</time>
      </trkpt>
      <trkpt lat="50.84247" lon="1.5862">
        <ele>30.6</ele>
        <time>2015-04-07T15:31:09.000Z</time>
      </trkpt>
      <trkpt lat="50.84246" lon="1.5862">
        <ele>30.7</ele>
        <time>2015-04-07T15:31:10.000Z</time>
      </trkpt>
      <trkpt lat="50.84246" lon="1.58621">
        <ele>30.8</ele>
        <time>2015-04-07T15:31:11.000Z</time>
      </trkpt>
      <trkpt lat="50.84245" lon="1.58621">
        <ele>30.9</ele>
        <time>2015-04-07T15:31:12.000Z</time>
      </trkpt>
      <trkpt lat="50.84244" lon="1.58622">
        <ele>31</ele>
        <time>2015-04-07T15:31:13.000Z</time>
      </trkpt>
      <trkpt lat="50.84243" lon="1.58622">
        <ele>31.1</ele>
        <time>2015-04-07T15:31:14.000Z</time>
      </trkpt>
      <trkpt lat="50.84242" lon="1.58623">
        <ele>31.3</ele>
        <time>2015-04-07T15:31:15.000Z</time>
      </trkpt>
      <trkpt lat="50.84242" lon="1.58623">
        <ele>31.4</ele>
        <time>2015-04-07T15:31:16.000Z</time>
      </trkpt>
      <trkpt lat="50.84241" lon="1.58624">
        <ele>31.5</ele>
        <time>2015-04-07T15:31:17.000Z</time>
      </trkpt>
      <trkpt lat="50.8424" lon="1.58624">
        <ele>31.6</ele>
        <time>2015-04-07T15:31:18.000Z</time>
      </trkpt>
      <trkpt lat="50.84239" lon="1.58625">
        <ele>31.7</ele>
        <time>2015-04-07T15:31:19.000Z</time>
      </trkpt>
      <trkpt lat="50.84238" lon="1.58625">
        <ele>31.8</ele>
        <time>2015-04-07T15:31:20.000Z</time>
      </trkpt>
      <trkpt lat="50.84238" lon="1.58626">
        <ele>31.8</ele>
        <time>2015-04-07T15:31:21.000Z</time>
      </trkpt>
      <trkpt lat="50.84237" lon="1.58626">
        <ele>31.9</ele>
        <time>2015-04-07T15:31:22.000Z</time>
      </trkpt>
      <trkpt lat="50.84236" lon="1.58626">
        <ele>32</ele>
        <time>2015-04-07T15:31:23.000Z</time>
      </trkpt>
      <trkpt lat="50.84236" lon="1.58627">
        <ele>32.1</ele>
        <time>2015-04-07T15:31:24.000Z</time>
      </trkpt>
      <trkpt lat="50.84235" lon="1.58627">
        <ele>32.2</ele>
        <time>2015-04-07T15:31:25.000Z</time>
      </trkpt>
      <trkpt lat="50.84234" lon="1.58628">
        <ele>32.3</ele>
        <time>2015-04-07T15:31:26.000Z</time>
      </trkpt>
      <trkpt lat="50.84233" lon="1.58628">
        <ele>32.4</ele>
        <time>2015-04-07T15:31:27.000Z</time>
      </trkpt>
      <trkpt lat="50.84232" lon="1.58629">
        <ele>32.5</ele>
        <time>2015-04-07T15:31:28.000Z</time>
      </trkpt>
      <trkpt lat="50.84232" lon="1.58629">
        <ele>32.6</ele>
        <time>2015-04-07T15:31:29.000Z</time>
      </trkpt>
      <trkpt lat="50.84231" lon="1.5863">
        <ele>32.7</ele>
        <time>2015-04-07T15:31:30.000Z</time>
      </trkpt>
      <trkpt lat="50.8423" lon="1.5863">
        <ele>32.8</ele>
        <time>2015-04-07T15:31:31.000Z</time>
      </trkpt>
      <trkpt lat="50.84229" lon="1.58631">
        <ele>32.9</ele>
        <time>2015-04-07T15:31:32.000Z</time>
      </trkpt>
      <trkpt lat="50.84229" lon="1.58631">
        <ele>33</ele>
        <time>2015-04-07T15:31:33.000Z</time>
      </trkpt>
      <trkpt lat="50.84228" lon="1.58632">
        <ele>33.1</ele>
        <time>2015-04-07T15:31:34.000Z</time>
      </trkpt>
      <trkpt lat="50.84227" lon="1.58632">
        <ele>33.2</ele>
        <time>2015-04-07T15:31:35.000Z</time>
      </trkpt>
      <trkpt lat="50.84226" lon="1.58633">
        <ele>33.3</ele>
        <time>2015-04-07T15:31:36.000Z</time>
      </trkpt>
      <trkpt lat="50.84226" lon="1.58634">
        <ele>33.4</ele>
        <time>2015-04-07T15:31:37.000Z</time>
      </trkpt>
      <trkpt lat="50.84225" lon="1.58634">
        <ele>33.5</ele>
        <time>2015-04-07T15:31:38.000Z</time>
      </trkpt>
      <trkpt lat="50.84224" lon="1.58634">
        <ele>33.7</ele>
        <time>2015-04-07T15:31:39.000Z</time>
      </trkpt>
      <trkpt lat="50.84223" lon="1.58635">
        <ele>33.8</ele>
        <time>2015-04-07T15:31:40.000Z</time>
      </trkpt>
      <trkpt lat="50.84222" lon="1.58635">
        <ele>33.9</ele>
        <time>2015-04-07T15:31:41.000Z</time>
      </trkpt>
      <trkpt lat="50.84219" lon="1.58637">
        <ele>34.2</ele>
        <time>2015-04-07T15:31:42.000Z</time>
      </trkpt>
      <trkpt lat="50.84219" lon="1.58637">
        <ele>34.3</ele>
        <time>2015-04-07T15:31:43.000Z</time>
      </trkpt>
      <trkpt lat="50.84219" lon="1.58637">
        <ele>34.3</ele>
        <time>2015-04-07T15:31:44.000Z</time>
      </trkpt>
      <trkpt lat="50.84219" lon="1.58638">
        <ele>34.3</ele>
        <time>2015-04-07T15:31:45.000Z</time>
      </trkpt>
      <trkpt lat="50.84218" lon="1.58638">
        <ele>34.4</ele>
        <time>2015-04-07T15:31:46.000Z</time>
      </trkpt>
      <trkpt lat="50.84218" lon="1.58638">
        <ele>34.5</ele>
        <time>2015-04-07T15:31:47.000Z</time>
      </trkpt>
      <trkpt lat="50.84217" lon="1.58639">
        <ele>34.5</ele>
        <time>2015-04-07T15:31:48.000Z</time>
      </trkpt>
      <trkpt lat="50.84217" lon="1.58639">
        <ele>34.6</ele>
        <time>2015-04-07T15:31:49.000Z</time>
      </trkpt>
      <trkpt lat="50.84216" lon="1.5864">
        <ele>34.7</ele>
        <time>2015-04-07T15:31:50.000Z</time>
      </trkpt>
      <trkpt lat="50.84215" lon="1.5864">
        <ele>34.8</ele>
        <time>2015-04-07T15:31:51.000Z</time>
      </trkpt>
      <trkpt lat="50.84215" lon="1.58641">
        <ele>34.9</ele>
        <time>2015-04-07T15:31:52.000Z</time>
      </trkpt>
      <trkpt lat="50.84214" lon="1.58642">
        <ele>35</ele>
        <time>2015-04-07T15:31:53.000Z</time>
      </trkpt>
      <trkpt lat="50.84213" lon="1.58642">
        <ele>35.1</ele>
        <time>2015-04-07T15:31:54.000Z</time>
      </trkpt>
      <trkpt lat="50.84212" lon="1.58643">
        <ele>35.2</ele>
        <time>2015-04-07T15:31:55.000Z</time>
      </trkpt>
      <trkpt lat="50.84211" lon="1.58643">
        <ele>35.3</ele>
        <time>2015-04-07T15:31:56.000Z</time>
      </trkpt>
      <trkpt lat="50.84211" lon="1.58644">
        <ele>35.4</ele>
        <time>2015-04-07T15:31:57.000Z</time>
      </trkpt>
      <trkpt lat="50.8421" lon="1.58644">
        <ele>35.5</ele>
        <time>2015-04-07T15:31:58.000Z</time>
      </trkpt>
      <trkpt lat="50.84209" lon="1.58645">
        <ele>35.7</ele>
        <time>2015-04-07T15:31:59.000Z</time>
      </trkpt>
      <trkpt lat="50.84208" lon="1.58645">
        <ele>35.8</ele>
        <time>2015-04-07T15:32:00.000Z</time>
      </trkpt>
      <trkpt lat="50.84207" lon="1.58645">
        <ele>35.9</ele>
        <time>2015-04-07T15:32:01.000Z</time>
      </trkpt>
      <trkpt lat="50.84206" lon="1.58646">
        <ele>36</ele>
        <time>2015-04-07T15:32:02.000Z</time>
      </trkpt>
      <trkpt lat="50.84205" lon="1.58646">
        <ele>36.1</ele>
        <time>2015-04-07T15:32:03.000Z</time>
      </trkpt>
      <trkpt lat="50.84204" lon="1.58647">
        <ele>36.2</ele>
        <time>2015-04-07T15:32:04.000Z</time>
      </trkpt>
      <trkpt lat="50.84203" lon="1.58647">
        <ele>36.3</ele>
        <time>2015-04-07T15:32:05.000Z</time>
      </trkpt>
      <trkpt lat="50.84202" lon="1.58648">
        <ele>36.5</ele>
        <time>2015-04-07T15:32:06.000Z</time>
      </trkpt>
      <trkpt lat="50.84201" lon="1.58648">
        <ele>36.6</ele>
        <time>2015-04-07T15:32:07.000Z</time>
      </trkpt>
      <trkpt lat="50.842" lon="1.58648">
        <ele>36.7</ele>
        <time>2015-04-07T15:32:08.000Z</time>
      </trkpt>
      <trkpt lat="50.842" lon="1.58648">
        <ele>36.8</ele>
        <time>2015-04-07T15:32:09.000Z</time>
      </trkpt>
      <trkpt lat="50.84199" lon="1.58648">
        <ele>36.9</ele>
        <time>2015-04-07T15:32:10.000Z</time>
      </trkpt>
      <trkpt lat="50.84198" lon="1.58649">
        <ele>37</ele>
        <time>2015-04-07T15:32:11.000Z</time>
      </trkpt>
      <trkpt lat="50.84197" lon="1.58649">
        <ele>37.1</ele>
        <time>2015-04-07T15:32:12.000Z</time>
      </trkpt>
      <trkpt lat="50.84196" lon="1.58649">
        <ele>37.2</ele>
        <time>2015-04-07T15:32:13.000Z</time>
      </trkpt>
      <trkpt lat="50.84196" lon="1.58649">
        <ele>37.2</ele>
        <time>2015-04-07T15:32:14.000Z</time>
      </trkpt>
      <trkpt lat="50.84195" lon="1.58649">
        <ele>37.3</ele>
        <time>2015-04-07T15:32:15.000Z</time>
      </trkpt>
      <trkpt lat="50.84194" lon="1.58649">
        <ele>37.4</ele>
        <time>2015-04-07T15:32:16.000Z</time>
      </trkpt>
      <trkpt lat="50.84194" lon="1.5865">
        <ele>37.4</ele>
        <time>2015-04-07T15:32:17.000Z</time>
      </trkpt>
      <trkpt lat="50.84193" lon="1.5865">
        <ele>37.4</ele>
        <time>2015-04-07T15:32:18.000Z</time>
      </trkpt>
      <trkpt lat="50.84192" lon="1.5865">
        <ele>37.5</ele>
        <time>2015-04-07T15:32:19.000Z</time>
      </trkpt>
      <trkpt lat="50.84192" lon="1.5865">
        <ele>37.5</ele>
        <time>2015-04-07T15:32:20.000Z</time>
      </trkpt>
      <trkpt lat="50.84191" lon="1.58651">
        <ele>37.5</ele>
        <time>2015-04-07T15:32:21.000Z</time>
      </trkpt>
      <trkpt lat="50.8419" lon="1.58651">
        <ele>37.6</ele>
        <time>2015-04-07T15:32:22.000Z</time>
      </trkpt>
      <trkpt lat="50.84189" lon="1.58652">
        <ele>37.6</ele>
        <time>2015-04-07T15:32:23.000Z</time>
      </trkpt>
      <trkpt lat="50.84189" lon="1.58652">
        <ele>37.7</ele>
        <time>2015-04-07T15:32:24.000Z</time>
      </trkpt>
      <trkpt lat="50.84188" lon="1.58652">
        <ele>37.7</ele>
        <time>2015-04-07T15:32:25.000Z</time>
      </trkpt>
      <trkpt lat="50.84187" lon="1.58653">
        <ele>37.8</ele>
        <time>2015-04-07T15:32:26.000Z</time>
      </trkpt>
      <trkpt lat="50.84187" lon="1.58653">
        <ele>37.8</ele>
        <time>2015-04-07T15:32:27.000Z</time>
      </trkpt>
      <trkpt lat="50.84186" lon="1.58654">
        <ele>37.8</ele>
        <time>2015-04-07T15:32:28.000Z</time>
      </trkpt>
      <trkpt lat="50.84185" lon="1.58654">
        <ele>37.9</ele>
        <time>2015-04-07T15:32:29.000Z</time>
      </trkpt>
      <trkpt lat="50.84184" lon="1.58655">
        <ele>37.9</ele>
        <time>2015-04-07T15:32:30.000Z</time>
      </trkpt>
      <trkpt lat="50.84183" lon="1.58655">
        <ele>38</ele>
        <time>2015-04-07T15:32:31.000Z</time>
      </trkpt>
      <trkpt lat="50.84183" lon="1.58656">
        <ele>38</ele>
        <time>2015-04-07T15:32:32.000Z</time>
      </trkpt>
      <trkpt lat="50.84182" lon="1.58656">
        <ele>38.1</ele>
        <time>2015-04-07T15:32:33.000Z</time>
      </trkpt>
      <trkpt lat="50.84181" lon="1.58657">
        <ele>38.1</ele>
        <time>2015-04-07T15:32:34.000Z</time>
      </trkpt>
      <trkpt lat="50.84181" lon="1.58657">
        <ele>38.2</ele>
        <time>2015-04-07T15:32:35.000Z</time>
      </trkpt>
      <trkpt lat="50.8418" lon="1.58658">
        <ele>38.2</ele>
        <time>2015-04-07T15:32:36.000Z</time>
      </trkpt>
      <trkpt lat="50.84179" lon="1.58658">
        <ele>38.3</ele>
        <time>2015-04-07T15:32:37.000Z</time>
      </trkpt>
      <trkpt lat="50.84178" lon="1.58659">
        <ele>38.3</ele>
        <time>2015-04-07T15:32:38.000Z</time>
      </trkpt>
      <trkpt lat="50.84178" lon="1.5866">
        <ele>38.3</ele>
        <time>2015-04-07T15:32:39.000Z</time>
      </trkpt>
      <trkpt lat="50.84177" lon="1.5866">
        <ele>38.4</ele>
        <time>2015-04-07T15:32:40.000Z</time>
      </trkpt>
      <trkpt lat="50.84176" lon="1.58661">
        <ele>38.5</ele>
        <time>2015-04-07T15:32:41.000Z</time>
      </trkpt>
      <trkpt lat="50.84175" lon="1.58661">
        <ele>38.5</ele>
        <time>2015-04-07T15:32:42.000Z</time>
      </trkpt>
      <trkpt lat="50.84174" lon="1.58662">
        <ele>38.6</ele>
        <time>2015-04-07T15:32:43.000Z</time>
      </trkpt>
      <trkpt lat="50.84174" lon="1.58663">
        <ele>38.6</ele>
        <time>2015-04-07T15:32:44.000Z</time>
      </trkpt>
      <trkpt lat="50.84173" lon="1.58663">
        <ele>38.7</ele>
        <time>2015-04-07T15:32:45.000Z</time>
      </trkpt>
      <trkpt lat="50.84172" lon="1.58664">
        <ele>38.7</ele>
        <time>2015-04-07T15:32:46.000Z</time>
      </trkpt>
      <trkpt lat="50.84171" lon="1.58664">
        <ele>38.8</ele>
        <time>2015-04-07T15:32:47.000Z</time>
      </trkpt>
      <trkpt lat="50.8417" lon="1.58665">
        <ele>38.8</ele>
        <time>2015-04-07T15:32:48.000Z</time>
      </trkpt>
      <trkpt lat="50.84169" lon="1.58666">
        <ele>38.9</ele>
        <time>2015-04-07T15:32:49.000Z</time>
      </trkpt>
      <trkpt lat="50.84168" lon="1.58666">
        <ele>39</ele>
        <time>2015-04-07T15:32:50.000Z</time>
      </trkpt>
      <trkpt lat="50.84167" lon="1.58667">
        <ele>39</ele>
        <time>2015-04-07T15:32:51.000Z</time>
      </trkpt>
      <trkpt lat="50.84166" lon="1.58668">
        <ele>39.1</ele>
        <time>2015-04-07T15:32:52.000Z</time>
      </trkpt>
      <trkpt lat="50.84165" lon="1.58669">
        <ele>39.1</ele>
        <time>2015-04-07T15:32:53.000Z</time>
      </trkpt>
      <trkpt lat="50.84164" lon="1.5867">
        <ele>39.1</ele>
        <time>2015-04-07T15:32:54.000Z</time>
      </trkpt>
      <trkpt lat="50.84163" lon="1.58671">
        <ele>39.2</ele>
        <time>2015-04-07T15:32:55.000Z</time>
      </trkpt>
      <trkpt lat="50.84162" lon="1.58671">
        <ele>39.2</ele>
        <time>2015-04-07T15:32:56.000Z</time>
      </trkpt>
      <trkpt lat="50.84161" lon="1.58672">
        <ele>39.2</ele>
        <time>2015-04-07T15:32:57.000Z</time>
      </trkpt>
      <trkpt lat="50.8416" lon="1.58673">
        <ele>39.3</ele>
        <time>2015-04-07T15:32:58.000Z</time>
      </trkpt>
      <trkpt lat="50.84159" lon="1.58673">
        <ele>39.3</ele>
        <time>2015-04-07T15:32:59.000Z</time>
      </trkpt>
      <trkpt lat="50.84158" lon="1.58674">
        <ele>39.4</ele>
        <time>2015-04-07T15:33:00.000Z</time>
      </trkpt>
      <trkpt lat="50.84157" lon="1.58675">
        <ele>39.4</ele>
        <time>2015-04-07T15:33:01.000Z</time>
      </trkpt>
      <trkpt lat="50.84156" lon="1.58675">
        <ele>39.4</ele>
        <time>2015-04-07T15:33:02.000Z</time>
      </trkpt>
      <trkpt lat="50.84155" lon="1.58676">
        <ele>39.5</ele>
        <time>2015-04-07T15:33:03.000Z</time>
      </trkpt>
      <trkpt lat="50.84154" lon="1.58677">
        <ele>39.5</ele>
        <time>2015-04-07T15:33:04.000Z</time>
      </trkpt>
      <trkpt lat="50.84153" lon="1.58677">
        <ele>39.6</ele>
        <time>2015-04-07T15:33:05.000Z</time>
      </trkpt>
      <trkpt lat="50.84152" lon="1.58678">
        <ele>39.6</ele>
        <time>2015-04-07T15:33:06.000Z</time>
      </trkpt>
      <trkpt lat="50.84151" lon="1.58678">
        <ele>39.7</ele>
        <time>2015-04-07T15:33:07.000Z</time>
      </trkpt>
      <trkpt lat="50.8415" lon="1.58679">
        <ele>39.7</ele>
        <time>2015-04-07T15:33:08.000Z</time>
      </trkpt>
      <trkpt lat="50.84149" lon="1.5868">
        <ele>39.8</ele>
        <time>2015-04-07T15:33:09.000Z</time>
      </trkpt>
      <trkpt lat="50.84148" lon="1.5868">
        <ele>39.8</ele>
        <time>2015-04-07T15:33:10.000Z</time>
      </trkpt>
      <trkpt lat="50.84147" lon="1.58681">
        <ele>39.9</ele>
        <time>2015-04-07T15:33:11.000Z</time>
      </trkpt>
      <trkpt lat="50.84146" lon="1.58682">
        <ele>39.9</ele>
        <time>2015-04-07T15:33:12.000Z</time>
      </trkpt>
      <trkpt lat="50.84145" lon="1.58682">
        <ele>40</ele>
        <time>2015-04-07T15:33:13.000Z</time>
      </trkpt>
      <trkpt lat="50.84144" lon="1.58683">
        <ele>40.1</ele>
        <time>2015-04-07T15:33:14.000Z</time>
      </trkpt>
      <trkpt lat="50.84143" lon="1.58684">
        <ele>40.1</ele>
        <time>2015-04-07T15:33:15.000Z</time>
      </trkpt>
      <trkpt lat="50.84142" lon="1.58684">
        <ele>40.2</ele>
        <time>2015-04-07T15:33:16.000Z</time>
      </trkpt>
      <trkpt lat="50.84141" lon="1.58685">
        <ele>40.3</ele>
        <time>2015-04-07T15:33:17.000Z</time>
      </trkpt>
      <trkpt lat="50.8414" lon="1.58686">
        <ele>40.3</ele>
        <time>2015-04-07T15:33:18.000Z</time>
      </trkpt>
      <trkpt lat="50.84139" lon="1.58686">
        <ele>40.4</ele>
        <time>2015-04-07T15:33:19.000Z</time>
      </trkpt>
      <trkpt lat="50.84138" lon="1.58687">
        <ele>40.4</ele>
        <time>2015-04-07T15:33:20.000Z</time>
      </trkpt>
      <trkpt lat="50.84138" lon="1.58687">
        <ele>40.5</ele>
        <time>2015-04-07T15:33:21.000Z</time>
      </trkpt>
      <trkpt lat="50.84137" lon="1.58688">
        <ele>40.6</ele>
        <time>2015-04-07T15:33:22.000Z</time>
      </trkpt>
      <trkpt lat="50.84136" lon="1.58688">
        <ele>40.6</ele>
        <time>2015-04-07T15:33:23.000Z</time>
      </trkpt>
      <trkpt lat="50.84135" lon="1.58689">
        <ele>40.7</ele>
        <time>2015-04-07T15:33:24.000Z</time>
      </trkpt>
      <trkpt lat="50.84134" lon="1.58689">
        <ele>40.8</ele>
        <time>2015-04-07T15:33:25.000Z</time>
      </trkpt>
      <trkpt lat="50.84134" lon="1.5869">
        <ele>40.8</ele>
        <time>2015-04-07T15:33:26.000Z</time>
      </trkpt>
      <trkpt lat="50.84133" lon="1.5869">
        <ele>40.9</ele>
        <time>2015-04-07T15:33:27.000Z</time>
      </trkpt>
      <trkpt lat="50.84132" lon="1.58691">
        <ele>41</ele>
        <time>2015-04-07T15:33:28.000Z</time>
      </trkpt>
      <trkpt lat="50.84131" lon="1.58692">
        <ele>41.2</ele>
        <time>2015-04-07T15:33:29.000Z</time>
      </trkpt>
      <trkpt lat="50.8413" lon="1.58692">
        <ele>41.3</ele>
        <time>2015-04-07T15:33:30.000Z</time>
      </trkpt>
      <trkpt lat="50.84129" lon="1.58693">
        <ele>41.4</ele>
        <time>2015-04-07T15:33:31.000Z</time>
      </trkpt>
      <trkpt lat="50.84128" lon="1.58693">
        <ele>41.5</ele>
        <time>2015-04-07T15:33:32.000Z</time>
      </trkpt>
      <trkpt lat="50.84127" lon="1.58694">
        <ele>41.7</ele>
        <time>2015-04-07T15:33:33.000Z</time>
      </trkpt>
      <trkpt lat="50.84126" lon="1.58694">
        <ele>41.9</ele>
        <time>2015-04-07T15:33:34.000Z</time>
      </trkpt>
      <trkpt lat="50.84126" lon="1.58695">
        <ele>42</ele>
        <time>2015-04-07T15:33:35.000Z</time>
      </trkpt>
      <trkpt lat="50.84125" lon="1.58696">
        <ele>42</ele>
        <time>2015-04-07T15:33:36.000Z</time>
      </trkpt>
      <trkpt lat="50.84124" lon="1.58697">
        <ele>42.1</ele>
        <time>2015-04-07T15:33:37.000Z</time>
      </trkpt>
      <trkpt lat="50.84123" lon="1.58697">
        <ele>42.2</ele>
        <time>2015-04-07T15:33:38.000Z</time>
      </trkpt>
      <trkpt lat="50.84122" lon="1.58698">
        <ele>42.3</ele>
        <time>2015-04-07T15:33:39.000Z</time>
      </trkpt>
      <trkpt lat="50.84121" lon="1.58699">
        <ele>42.3</ele>
        <time>2015-04-07T15:33:40.000Z</time>
      </trkpt>
      <trkpt lat="50.8412" lon="1.58699">
        <ele>42.4</ele>
        <time>2015-04-07T15:33:41.000Z</time>
      </trkpt>
      <trkpt lat="50.84119" lon="1.587">
        <ele>42.5</ele>
        <time>2015-04-07T15:33:42.000Z</time>
      </trkpt>
      <trkpt lat="50.84118" lon="1.587">
        <ele>42.5</ele>
        <time>2015-04-07T15:33:43.000Z</time>
      </trkpt>
      <trkpt lat="50.84117" lon="1.58701">
        <ele>42.6</ele>
        <time>2015-04-07T15:33:44.000Z</time>
      </trkpt>
      <trkpt lat="50.84116" lon="1.58701">
        <ele>42.7</ele>
        <time>2015-04-07T15:33:45.000Z</time>
      </trkpt>
      <trkpt lat="50.84116" lon="1.58702">
        <ele>42.7</ele>
        <time>2015-04-07T15:33:46.000Z</time>
      </trkpt>
      <trkpt lat="50.84115" lon="1.58702">
        <ele>42.8</ele>
        <time>2015-04-07T15:33:47.000Z</time>
      </trkpt>
      <trkpt lat="50.84114" lon="1.58702">
        <ele>42.8</ele>
        <time>2015-04-07T15:33:48.000Z</time>
      </trkpt>
      <trkpt lat="50.84113" lon="1.58703">
        <ele>42.9</ele>
        <time>2015-04-07T15:33:49.000Z</time>
      </trkpt>
      <trkpt lat="50.84112" lon="1.58703">
        <ele>43</ele>
        <time>2015-04-07T15:33:50.000Z</time>
      </trkpt>
      <trkpt lat="50.84111" lon="1.58704">
        <ele>43</ele>
        <time>2015-04-07T15:33:51.000Z</time>
      </trkpt>
      <trkpt lat="50.8411" lon="1.58704">
        <ele>43</ele>
        <time>2015-04-07T15:33:52.000Z</time>
      </trkpt>
      <trkpt lat="50.84109" lon="1.58705">
        <ele>43</ele>
        <time>2015-04-07T15:33:53.000Z</time>
      </trkpt>
      <trkpt lat="50.84108" lon="1.58705">
        <ele>43</ele>
        <time>2015-04-07T15:33:54.000Z</time>
      </trkpt>
      <trkpt lat="50.84107" lon="1.58706">
        <ele>43</ele>
        <time>2015-04-07T15:33:55.000Z</time>
      </trkpt>
      <trkpt lat="50.84106" lon="1.58706">
        <ele>43</ele>
        <time>2015-04-07T15:33:56.000Z</time>
      </trkpt>
      <trkpt lat="50.84105" lon="1.58707">
        <ele>43</ele>
        <time>2015-04-07T15:33:57.000Z</time>
      </trkpt>
      <trkpt lat="50.84104" lon="1.58707">
        <ele>43</ele>
        <time>2015-04-07T15:33:58.000Z</time>
      </trkpt>
      <trkpt lat="50.84103" lon="1.58708">
        <ele>43</ele>
        <time>2015-04-07T15:33:59.000Z</time>
      </trkpt>
      <trkpt lat="50.84102" lon="1.58708">
        <ele>43</ele>
        <time>2015-04-07T15:34:00.000Z</time>
      </trkpt>
      <trkpt lat="50.84101" lon="1.58709">
        <ele>43</ele>
        <time>2015-04-07T15:34:01.000Z</time>
      </trkpt>
      <trkpt lat="50.841" lon="1.58709">
        <ele>43</ele>
        <time>2015-04-07T15:34:02.000Z</time>
      </trkpt>
      <trkpt lat="50.84098" lon="1.5871">
        <ele>43</ele>
        <time>2015-04-07T15:34:03.000Z</time>
      </trkpt>
      <trkpt lat="50.84097" lon="1.58711">
        <ele>43</ele>
        <time>2015-04-07T15:34:04.000Z</time>
      </trkpt>
      <trkpt lat="50.84096" lon="1.58711">
        <ele>43</ele>
        <time>2015-04-07T15:34:05.000Z</time>
      </trkpt>
      <trkpt lat="50.84095" lon="1.58712">
        <ele>43</ele>
        <time>2015-04-07T15:34:06.000Z</time>
      </trkpt>
      <trkpt lat="50.84094" lon="1.58712">
        <ele>43</ele>
        <time>2015-04-07T15:34:07.000Z</time>
      </trkpt>
      <trkpt lat="50.84093" lon="1.58713">
        <ele>43</ele>
        <time>2015-04-07T15:34:08.000Z</time>
      </trkpt>
      <trkpt lat="50.84092" lon="1.58713">
        <ele>43</ele>
        <time>2015-04-07T15:34:09.000Z</time>
      </trkpt>
      <trkpt lat="50.84091" lon="1.58714">
        <ele>43</ele>
        <time>2015-04-07T15:34:10.000Z</time>
      </trkpt>
      <trkpt lat="50.8409" lon="1.58714">
        <ele>43</ele>
        <time>2015-04-07T15:34:11.000Z</time>
      </trkpt>
      <trkpt lat="50.84089" lon="1.58714">
        <ele>43</ele>
        <time>2015-04-07T15:34:12.000Z</time>
      </trkpt>
      <trkpt lat="50.84087" lon="1.58715">
        <ele>43</ele>
        <time>2015-04-07T15:34:13.000Z</time>
      </trkpt>
      <trkpt lat="50.84086" lon="1.58715">
        <ele>43</ele>
        <time>2015-04-07T15:34:14.000Z</time>
      </trkpt>
      <trkpt lat="50.84085" lon="1.58716">
        <ele>43</ele>
        <time>2015-04-07T15:34:15.000Z</time>
      </trkpt>
      <trkpt lat="50.84084" lon="1.58716">
        <ele>43</ele>
        <time>2015-04-07T15:34:16.000Z</time>
      </trkpt>
      <trkpt lat="50.84083" lon="1.58717">
        <ele>43</ele>
        <time>2015-04-07T15:34:17.000Z</time>
      </trkpt>
      <trkpt lat="50.84082" lon="1.58717">
        <ele>43</ele>
        <time>2015-04-07T15:34:18.000Z</time>
      </trkpt>
      <trkpt lat="50.84081" lon="1.58718">
        <ele>43</ele>
        <time>2015-04-07T15:34:19.000Z</time>
      </trkpt>
      <trkpt lat="50.8408" lon="1.58718">
        <ele>43</ele>
        <time>2015-04-07T15:34:20.000Z</time>
      </trkpt>
      <trkpt lat="50.84079" lon="1.58718">
        <ele>43</ele>
        <time>2015-04-07T15:34:21.000Z</time>
      </trkpt>
      <trkpt lat="50.84078" lon="1.58719">
        <ele>43</ele>
        <time>2015-04-07T15:34:22.000Z</time>
      </trkpt>
      <trkpt lat="50.84077" lon="1.58719">
        <ele>43</ele>
        <time>2015-04-07T15:34:23.000Z</time>
      </trkpt>
      <trkpt lat="50.84076" lon="1.5872">
        <ele>43</ele>
        <time>2015-04-07T15:34:24.000Z</time>
      </trkpt>
      <trkpt lat="50.84075" lon="1.5872">
        <ele>43</ele>
        <time>2015-04-07T15:34:25.000Z</time>
      </trkpt>
      <trkpt lat="50.84074" lon="1.58721">
        <ele>43</ele>
        <time>2015-04-07T15:34:26.000Z</time>
      </trkpt>
      <trkpt lat="50.84073" lon="1.58721">
        <ele>43</ele>
        <time>2015-04-07T15:34:27.000Z</time>
      </trkpt>
      <trkpt lat="50.84072" lon="1.58722">
        <ele>43</ele>
        <time>2015-04-07T15:34:28.000Z</time>
      </trkpt>
      <trkpt lat="50.84071" lon="1.58722">
        <ele>43</ele>
        <time>2015-04-07T15:34:29.000Z</time>
      </trkpt>
      <trkpt lat="50.8407" lon="1.58723">
        <ele>43</ele>
        <time>2015-04-07T15:34:30.000Z</time>
      </trkpt>
      <trkpt lat="50.84069" lon="1.58723">
        <ele>43</ele>
        <time>2015-04-07T15:34:31.000Z</time>
      </trkpt>
      <trkpt lat="50.84068" lon="1.58724">
        <ele>43.1</ele>
        <time>2015-04-07T15:34:32.000Z</time>
      </trkpt>
      <trkpt lat="50.84067" lon="1.58724">
        <ele>43.1</ele>
        <time>2015-04-07T15:34:33.000Z</time>
      </trkpt>
      <trkpt lat="50.84066" lon="1.58725">
        <ele>43.1</ele>
        <time>2015-04-07T15:34:34.000Z</time>
      </trkpt>
      <trkpt lat="50.84065" lon="1.58725">
        <ele>43.1</ele>
        <time>2015-04-07T15:34:35.000Z</time>
      </trkpt>
      <trkpt lat="50.84064" lon="1.58726">
        <ele>43.1</ele>
        <time>2015-04-07T15:34:36.000Z</time>
      </trkpt>
      <trkpt lat="50.84063" lon="1.58726">
        <ele>43.1</ele>
        <time>2015-04-07T15:34:37.000Z</time>
      </trkpt>
      <trkpt lat="50.84062" lon="1.58726">
        <ele>43.1</ele>
        <time>2015-04-07T15:34:38.000Z</time>
      </trkpt>
      <trkpt lat="50.84061" lon="1.58727">
        <ele>43.2</ele>
        <time>2015-04-07T15:34:39.000Z</time>
      </trkpt>
      <trkpt lat="50.8406" lon="1.58727">
        <ele>43.2</ele>
        <time>2015-04-07T15:34:40.000Z</time>
      </trkpt>
      <trkpt lat="50.84059" lon="1.58727">
        <ele>43.2</ele>
        <time>2015-04-07T15:34:41.000Z</time>
      </trkpt>
      <trkpt lat="50.84058" lon="1.58728">
        <ele>43.2</ele>
        <time>2015-04-07T15:34:42.000Z</time>
      </trkpt>
      <trkpt lat="50.84057" lon="1.58728">
        <ele>43.2</ele>
        <time>2015-04-07T15:34:43.000Z</time>
      </trkpt>
      <trkpt lat="50.84056" lon="1.58728">
        <ele>43.2</ele>
        <time>2015-04-07T15:34:44.000Z</time>
      </trkpt>
      <trkpt lat="50.84055" lon="1.58729">
        <ele>43.2</ele>
        <time>2015-04-07T15:34:45.000Z</time>
      </trkpt>
      <trkpt lat="50.84054" lon="1.58729">
        <ele>43.2</ele>
        <time>2015-04-07T15:34:46.000Z</time>
      </trkpt>
      <trkpt lat="50.84053" lon="1.58729">
        <ele>43.1</ele>
        <time>2015-04-07T15:34:47.000Z</time>
      </trkpt>
      <trkpt lat="50.84051" lon="1.58729">
        <ele>43.1</ele>
        <time>2015-04-07T15:34:48.000Z</time>
      </trkpt>
      <trkpt lat="50.8405" lon="1.58729">
        <ele>43.1</ele>
        <time>2015-04-07T15:34:49.000Z</time>
      </trkpt>
      <trkpt lat="50.84049" lon="1.5873">
        <ele>43</ele>
        <time>2015-04-07T15:34:50.000Z</time>
      </trkpt>
      <trkpt lat="50.84048" lon="1.5873">
        <ele>43</ele>
        <time>2015-04-07T15:34:51.000Z</time>
      </trkpt>
      <trkpt lat="50.84047" lon="1.5873">
        <ele>43</ele>
        <time>2015-04-07T15:34:52.000Z</time>
      </trkpt>
      <trkpt lat="50.84046" lon="1.5873">
        <ele>42.9</ele>
        <time>2015-04-07T15:34:53.000Z</time>
      </trkpt>
      <trkpt lat="50.84045" lon="1.58731">
        <ele>42.9</ele>
        <time>2015-04-07T15:34:54.000Z</time>
      </trkpt>
      <trkpt lat="50.84044" lon="1.58731">
        <ele>42.9</ele>
        <time>2015-04-07T15:34:55.000Z</time>
      </trkpt>
      <trkpt lat="50.84042" lon="1.58731">
        <ele>42.9</ele>
        <time>2015-04-07T15:34:56.000Z</time>
      </trkpt>
      <trkpt lat="50.84041" lon="1.58732">
        <ele>42.8</ele>
        <time>2015-04-07T15:34:57.000Z</time>
      </trkpt>
      <trkpt lat="50.8404" lon="1.58732">
        <ele>42.8</ele>
        <time>2015-04-07T15:34:58.000Z</time>
      </trkpt>
      <trkpt lat="50.84039" lon="1.58733">
        <ele>42.8</ele>
        <time>2015-04-07T15:34:59.000Z</time>
      </trkpt>
      <trkpt lat="50.84038" lon="1.58733">
        <ele>42.8</ele>
        <time>2015-04-07T15:35:00.000Z</time>
      </trkpt>
      <trkpt lat="50.84037" lon="1.58733">
        <ele>42.7</ele>
        <time>2015-04-07T15:35:01.000Z</time>
      </trkpt>
      <trkpt lat="50.84036" lon="1.58733">
        <ele>42.7</ele>
        <time>2015-04-07T15:35:02.000Z</time>
      </trkpt>
      <trkpt lat="50.84035" lon="1.58733">
        <ele>42.7</ele>
        <time>2015-04-07T15:35:03.000Z</time>
      </trkpt>
      <trkpt lat="50.84034" lon="1.58733">
        <ele>42.6</ele>
        <time>2015-04-07T15:35:04.000Z</time>
      </trkpt>
      <trkpt lat="50.84033" lon="1.58733">
        <ele>42.6</ele>
        <time>2015-04-07T15:35:05.000Z</time>
      </trkpt>
      <trkpt lat="50.84031" lon="1.58733">
        <ele>42.5</ele>
        <time>2015-04-07T15:35:06.000Z</time>
      </trkpt>
      <trkpt lat="50.8403" lon="1.58733">
        <ele>42.5</ele>
        <time>2015-04-07T15:35:07.000Z</time>
      </trkpt>
      <trkpt lat="50.84029" lon="1.58733">
        <ele>42.4</ele>
        <time>2015-04-07T15:35:08.000Z</time>
      </trkpt>
      <trkpt lat="50.84028" lon="1.58733">
        <ele>42.4</ele>
        <time>2015-04-07T15:35:09.000Z</time>
      </trkpt>
      <trkpt lat="50.84027" lon="1.58732">
        <ele>42.3</ele>
        <time>2015-04-07T15:35:10.000Z</time>
      </trkpt>
      <trkpt lat="50.84026" lon="1.58732">
        <ele>42.3</ele>
        <time>2015-04-07T15:35:11.000Z</time>
      </trkpt>
      <trkpt lat="50.84025" lon="1.58731">
        <ele>42.2</ele>
        <time>2015-04-07T15:35:12.000Z</time>
      </trkpt>
      <trkpt lat="50.84024" lon="1.58731">
        <ele>42.2</ele>
        <time>2015-04-07T15:35:13.000Z</time>
      </trkpt>
      <trkpt lat="50.84023" lon="1.58731">
        <ele>42.1</ele>
        <time>2015-04-07T15:35:14.000Z</time>
      </trkpt>
      <trkpt lat="50.84022" lon="1.5873">
        <ele>42.1</ele>
        <time>2015-04-07T15:35:15.000Z</time>
      </trkpt>
      <trkpt lat="50.84021" lon="1.5873">
        <ele>42</ele>
        <time>2015-04-07T15:35:16.000Z</time>
      </trkpt>
      <trkpt lat="50.8402" lon="1.58729">
        <ele>42</ele>
        <time>2015-04-07T15:35:17.000Z</time>
      </trkpt>
      <trkpt lat="50.84019" lon="1.58729">
        <ele>41.9</ele>
        <time>2015-04-07T15:35:18.000Z</time>
      </trkpt>
      <trkpt lat="50.84018" lon="1.58728">
        <ele>41.9</ele>
        <time>2015-04-07T15:35:19.000Z</time>
      </trkpt>
      <trkpt lat="50.84017" lon="1.58727">
        <ele>41.8</ele>
        <time>2015-04-07T15:35:20.000Z</time>
      </trkpt>
      <trkpt lat="50.84015" lon="1.58727">
        <ele>41.7</ele>
        <time>2015-04-07T15:35:21.000Z</time>
      </trkpt>
      <trkpt lat="50.84014" lon="1.58726">
        <ele>41.7</ele>
        <time>2015-04-07T15:35:22.000Z</time>
      </trkpt>
      <trkpt lat="50.84013" lon="1.58726">
        <ele>41.6</ele>
        <time>2015-04-07T15:35:23.000Z</time>
      </trkpt>
      <trkpt lat="50.84012" lon="1.58725">
        <ele>41.6</ele>
        <time>2015-04-07T15:35:24.000Z</time>
      </trkpt>
      <trkpt lat="50.84011" lon="1.58725">
        <ele>41.5</ele>
        <time>2015-04-07T15:35:25.000Z</time>
      </trkpt>
      <trkpt lat="50.8401" lon="1.58725">
        <ele>41.5</ele>
        <time>2015-04-07T15:35:26.000Z</time>
      </trkpt>
      <trkpt lat="50.84009" lon="1.58725">
        <ele>41.4</ele>
        <time>2015-04-07T15:35:27.000Z</time>
      </trkpt>
      <trkpt lat="50.84008" lon="1.58724">
        <ele>41.4</ele>
        <time>2015-04-07T15:35:28.000Z</time>
      </trkpt>
      <trkpt lat="50.84007" lon="1.58724">
        <ele>41.3</ele>
        <time>2015-04-07T15:35:29.000Z</time>
      </trkpt>
      <trkpt lat="50.84006" lon="1.58724">
        <ele>41.3</ele>
        <time>2015-04-07T15:35:30.000Z</time>
      </trkpt>
      <trkpt lat="50.84005" lon="1.58724">
        <ele>41.2</ele>
        <time>2015-04-07T15:35:31.000Z</time>
      </trkpt>
      <trkpt lat="50.84003" lon="1.58724">
        <ele>41.2</ele>
        <time>2015-04-07T15:35:32.000Z</time>
      </trkpt>
      <trkpt lat="50.84002" lon="1.58724">
        <ele>41.2</ele>
        <time>2015-04-07T15:35:33.000Z</time>
      </trkpt>
      <trkpt lat="50.84001" lon="1.58724">
        <ele>41.1</ele>
        <time>2015-04-07T15:35:34.000Z</time>
      </trkpt>
      <trkpt lat="50.84" lon="1.58724">
        <ele>41.1</ele>
        <time>2015-04-07T15:35:35.000Z</time>
      </trkpt>
      <trkpt lat="50.83999" lon="1.58724">
        <ele>41.1</ele>
        <time>2015-04-07T15:35:36.000Z</time>
      </trkpt>
      <trkpt lat="50.83998" lon="1.58724">
        <ele>41.1</ele>
        <time>2015-04-07T15:35:37.000Z</time>
      </trkpt>
      <trkpt lat="50.83997" lon="1.58724">
        <ele>41.2</ele>
        <time>2015-04-07T15:35:38.000Z</time>
      </trkpt>
      <trkpt lat="50.83996" lon="1.58724">
        <ele>41.2</ele>
        <time>2015-04-07T15:35:39.000Z</time>
      </trkpt>
      <trkpt lat="50.83995" lon="1.58724">
        <ele>41.2</ele>
        <time>2015-04-07T15:35:40.000Z</time>
      </trkpt>
      <trkpt lat="50.83994" lon="1.58724">
        <ele>41.3</ele>
        <time>2015-04-07T15:35:41.000Z</time>
      </trkpt>
      <trkpt lat="50.83993" lon="1.58724">
        <ele>41.3</ele>
        <time>2015-04-07T15:35:42.000Z</time>
      </trkpt>
      <trkpt lat="50.83992" lon="1.58724">
        <ele>41.3</ele>
        <time>2015-04-07T15:35:43.000Z</time>
      </trkpt>
      <trkpt lat="50.83991" lon="1.58724">
        <ele>41.4</ele>
        <time>2015-04-07T15:35:44.000Z</time>
      </trkpt>
      <trkpt lat="50.8399" lon="1.58724">
        <ele>41.4</ele>
        <time>2015-04-07T15:35:45.000Z</time>
      </trkpt>
      <trkpt lat="50.83989" lon="1.58724">
        <ele>41.4</ele>
        <time>2015-04-07T15:35:46.000Z</time>
      </trkpt>
      <trkpt lat="50.83988" lon="1.58724">
        <ele>41.5</ele>
        <time>2015-04-07T15:35:47.000Z</time>
      </trkpt>
      <trkpt lat="50.83987" lon="1.58724">
        <ele>41.5</ele>
        <time>2015-04-07T15:35:48.000Z</time>
      </trkpt>
      <trkpt lat="50.83986" lon="1.58724">
        <ele>41.5</ele>
        <time>2015-04-07T15:35:49.000Z</time>
      </trkpt>
      <trkpt lat="50.83984" lon="1.58724">
        <ele>41.6</ele>
        <time>2015-04-07T15:35:50.000Z</time>
      </trkpt>
      <trkpt lat="50.83983" lon="1.58724">
        <ele>41.6</ele>
        <time>2015-04-07T15:35:51.000Z</time>
      </trkpt>
      <trkpt lat="50.83982" lon="1.58724">
        <ele>41.7</ele>
        <time>2015-04-07T15:35:52.000Z</time>
      </trkpt>
      <trkpt lat="50.83981" lon="1.58724">
        <ele>41.7</ele>
        <time>2015-04-07T15:35:53.000Z</time>
      </trkpt>
      <trkpt lat="50.8398" lon="1.58724">
        <ele>41.8</ele>
        <time>2015-04-07T15:35:54.000Z</time>
      </trkpt>
      <trkpt lat="50.83978" lon="1.58724">
        <ele>41.8</ele>
        <time>2015-04-07T15:35:55.000Z</time>
      </trkpt>
      <trkpt lat="50.83977" lon="1.58724">
        <ele>41.8</ele>
        <time>2015-04-07T15:35:56.000Z</time>
      </trkpt>
      <trkpt lat="50.83976" lon="1.58724">
        <ele>41.9</ele>
        <time>2015-04-07T15:35:57.000Z</time>
      </trkpt>
      <trkpt lat="50.83975" lon="1.58724">
        <ele>41.9</ele>
        <time>2015-04-07T15:35:58.000Z</time>
      </trkpt>
      <trkpt lat="50.83974" lon="1.58725">
        <ele>41.9</ele>
        <time>2015-04-07T15:35:59.000Z</time>
      </trkpt>
      <trkpt lat="50.83973" lon="1.58725">
        <ele>42</ele>
        <time>2015-04-07T15:36:00.000Z</time>
      </trkpt>
      <trkpt lat="50.83972" lon="1.58725">
        <ele>41.9</ele>
        <time>2015-04-07T15:36:01.000Z</time>
      </trkpt>
      <trkpt lat="50.8397" lon="1.58725">
        <ele>41.8</ele>
        <time>2015-04-07T15:36:02.000Z</time>
      </trkpt>
      <trkpt lat="50.83969" lon="1.58726">
        <ele>41.6</ele>
        <time>2015-04-07T15:36:03.000Z</time>
      </trkpt>
      <trkpt lat="50.83968" lon="1.58726">
        <ele>41.5</ele>
        <time>2015-04-07T15:36:04.000Z</time>
      </trkpt>
      <trkpt lat="50.83967" lon="1.58726">
        <ele>41.4</ele>
        <time>2015-04-07T15:36:05.000Z</time>
      </trkpt>
      <trkpt lat="50.83966" lon="1.58726">
        <ele>41.2</ele>
        <time>2015-04-07T15:36:06.000Z</time>
      </trkpt>
      <trkpt lat="50.83965" lon="1.58727">
        <ele>41.1</ele>
        <time>2015-04-07T15:36:07.000Z</time>
      </trkpt>
      <trkpt lat="50.83964" lon="1.58727">
        <ele>41</ele>
        <time>2015-04-07T15:36:08.000Z</time>
      </trkpt>
      <trkpt lat="50.83963" lon="1.58728">
        <ele>40.9</ele>
        <time>2015-04-07T15:36:09.000Z</time>
      </trkpt>
      <trkpt lat="50.83962" lon="1.58728">
        <ele>40.8</ele>
        <time>2015-04-07T15:36:10.000Z</time>
      </trkpt>
      <trkpt lat="50.83961" lon="1.58728">
        <ele>40.7</ele>
        <time>2015-04-07T15:36:11.000Z</time>
      </trkpt>
      <trkpt lat="50.8396" lon="1.58728">
        <ele>40.6</ele>
        <time>2015-04-07T15:36:12.000Z</time>
      </trkpt>
      <trkpt lat="50.83958" lon="1.58728">
        <ele>40.5</ele>
        <time>2015-04-07T15:36:13.000Z</time>
      </trkpt>
      <trkpt lat="50.83957" lon="1.58729">
        <ele>40.3</ele>
        <time>2015-04-07T15:36:14.000Z</time>
      </trkpt>
      <trkpt lat="50.83956" lon="1.58729">
        <ele>40.3</ele>
        <time>2015-04-07T15:36:15.000Z</time>
      </trkpt>
      <trkpt lat="50.83956" lon="1.58729">
        <ele>40.2</ele>
        <time>2015-04-07T15:36:16.000Z</time>
      </trkpt>
      <trkpt lat="50.83955" lon="1.58729">
        <ele>40.1</ele>
        <time>2015-04-07T15:36:17.000Z</time>
      </trkpt>
      <trkpt lat="50.83954" lon="1.58729">
        <ele>40</ele>
        <time>2015-04-07T15:36:18.000Z</time>
      </trkpt>
      <trkpt lat="50.83953" lon="1.5873">
        <ele>39.9</ele>
        <time>2015-04-07T15:36:19.000Z</time>
      </trkpt>
      <trkpt lat="50.83952" lon="1.5873">
        <ele>39.9</ele>
        <time>2015-04-07T15:36:20.000Z</time>
      </trkpt>
      <trkpt lat="50.8395" lon="1.5873">
        <ele>39.8</ele>
        <time>2015-04-07T15:36:21.000Z</time>
      </trkpt>
      <trkpt lat="50.83949" lon="1.58731">
        <ele>39.7</ele>
        <time>2015-04-07T15:36:22.000Z</time>
      </trkpt>
      <trkpt lat="50.83948" lon="1.58731">
        <ele>39.6</ele>
        <time>2015-04-07T15:36:23.000Z</time>
      </trkpt>
      <trkpt lat="50.83947" lon="1.58731">
        <ele>39.6</ele>
        <time>2015-04-07T15:36:24.000Z</time>
      </trkpt>
      <trkpt lat="50.83946" lon="1.58732">
        <ele>39.5</ele>
        <time>2015-04-07T15:36:25.000Z</time>
      </trkpt>
      <trkpt lat="50.83945" lon="1.58732">
        <ele>39.4</ele>
        <time>2015-04-07T15:36:26.000Z</time>
      </trkpt>
      <trkpt lat="50.83944" lon="1.58732">
        <ele>39.4</ele>
        <time>2015-04-07T15:36:27.000Z</time>
      </trkpt>
      <trkpt lat="50.83943" lon="1.58732">
        <ele>39.3</ele>
        <time>2015-04-07T15:36:28.000Z</time>
      </trkpt>
      <trkpt lat="50.83942" lon="1.58733">
        <ele>39.2</ele>
        <time>2015-04-07T15:36:29.000Z</time>
      </trkpt>
      <trkpt lat="50.8394" lon="1.58733">
        <ele>39.1</ele>
        <time>2015-04-07T15:36:30.000Z</time>
      </trkpt>
      <trkpt lat="50.83939" lon="1.58733">
        <ele>39</ele>
        <time>2015-04-07T15:36:31.000Z</time>
      </trkpt>
      <trkpt lat="50.83938" lon="1.58733">
        <ele>39</ele>
        <time>2015-04-07T15:36:32.000Z</time>
      </trkpt>
      <trkpt lat="50.83937" lon="1.58733">
        <ele>38.9</ele>
        <time>2015-04-07T15:36:33.000Z</time>
      </trkpt>
      <trkpt lat="50.83936" lon="1.58734">
        <ele>38.8</ele>
        <time>2015-04-07T15:36:34.000Z</time>
      </trkpt>
      <trkpt lat="50.83935" lon="1.58734">
        <ele>38.8</ele>
        <time>2015-04-07T15:36:35.000Z</time>
      </trkpt>
      <trkpt lat="50.83933" lon="1.58734">
        <ele>38.7</ele>
        <time>2015-04-07T15:36:36.000Z</time>
      </trkpt>
      <trkpt lat="50.83932" lon="1.58734">
        <ele>38.6</ele>
        <time>2015-04-07T15:36:37.000Z</time>
      </trkpt>
      <trkpt lat="50.83931" lon="1.58735">
        <ele>38.6</ele>
        <time>2015-04-07T15:36:38.000Z</time>
      </trkpt>
      <trkpt lat="50.8393" lon="1.58735">
        <ele>38.5</ele>
        <time>2015-04-07T15:36:39.000Z</time>
      </trkpt>
      <trkpt lat="50.83929" lon="1.58735">
        <ele>38.4</ele>
        <time>2015-04-07T15:36:40.000Z</time>
      </trkpt>
      <trkpt lat="50.83928" lon="1.58735">
        <ele>38.4</ele>
        <time>2015-04-07T15:36:41.000Z</time>
      </trkpt>
      <trkpt lat="50.83927" lon="1.58736">
        <ele>38.3</ele>
        <time>2015-04-07T15:36:42.000Z</time>
      </trkpt>
      <trkpt lat="50.83926" lon="1.58736">
        <ele>38.2</ele>
        <time>2015-04-07T15:36:43.000Z</time>
      </trkpt>
      <trkpt lat="50.83925" lon="1.58736">
        <ele>38.2</ele>
        <time>2015-04-07T15:36:44.000Z</time>
      </trkpt>
      <trkpt lat="50.83924" lon="1.58736">
        <ele>38.1</ele>
        <time>2015-04-07T15:36:45.000Z</time>
      </trkpt>
      <trkpt lat="50.83922" lon="1.58736">
        <ele>38</ele>
        <time>2015-04-07T15:36:46.000Z</time>
      </trkpt>
      <trkpt lat="50.83921" lon="1.58736">
        <ele>38</ele>
        <time>2015-04-07T15:36:47.000Z</time>
      </trkpt>
      <trkpt lat="50.8392" lon="1.58737">
        <ele>37.9</ele>
        <time>2015-04-07T15:36:48.000Z</time>
      </trkpt>
      <trkpt lat="50.83919" lon="1.58737">
        <ele>37.9</ele>
        <time>2015-04-07T15:36:49.000Z</time>
      </trkpt>
      <trkpt lat="50.83918" lon="1.58737">
        <ele>37.8</ele>
        <time>2015-04-07T15:36:50.000Z</time>
      </trkpt>
      <trkpt lat="50.83917" lon="1.58738">
        <ele>37.8</ele>
        <time>2015-04-07T15:36:51.000Z</time>
      </trkpt>
      <trkpt lat="50.83916" lon="1.58738">
        <ele>37.8</ele>
        <time>2015-04-07T15:36:52.000Z</time>
      </trkpt>
      <trkpt lat="50.83914" lon="1.58738">
        <ele>37.8</ele>
        <time>2015-04-07T15:36:53.000Z</time>
      </trkpt>
      <trkpt lat="50.83913" lon="1.58738">
        <ele>37.8</ele>
        <time>2015-04-07T15:36:54.000Z</time>
      </trkpt>
      <trkpt lat="50.83912" lon="1.58738">
        <ele>37.8</ele>
        <time>2015-04-07T15:36:55.000Z</time>
      </trkpt>
      <trkpt lat="50.83911" lon="1.58739">
        <ele>37.9</ele>
        <time>2015-04-07T15:36:56.000Z</time>
      </trkpt>
      <trkpt lat="50.83909" lon="1.58739">
        <ele>37.9</ele>
        <time>2015-04-07T15:36:57.000Z</time>
      </trkpt>
      <trkpt lat="50.83908" lon="1.58739">
        <ele>37.9</ele>
        <time>2015-04-07T15:36:58.000Z</time>
      </trkpt>
      <trkpt lat="50.83907" lon="1.58739">
        <ele>37.9</ele>
        <time>2015-04-07T15:36:59.000Z</time>
      </trkpt>
      <trkpt lat="50.83906" lon="1.5874">
        <ele>38</ele>
        <time>2015-04-07T15:37:00.000Z</time>
      </trkpt>
      <trkpt lat="50.83905" lon="1.5874">
        <ele>38</ele>
        <time>2015-04-07T15:37:01.000Z</time>
      </trkpt>
      <trkpt lat="50.83904" lon="1.5874">
        <ele>38</ele>
        <time>2015-04-07T15:37:02.000Z</time>
      </trkpt>
      <trkpt lat="50.83903" lon="1.58741">
        <ele>38</ele>
        <time>2015-04-07T15:37:03.000Z</time>
      </trkpt>
      <trkpt lat="50.83902" lon="1.58741">
        <ele>38</ele>
        <time>2015-04-07T15:37:04.000Z</time>
      </trkpt>
      <trkpt lat="50.83901" lon="1.58741">
        <ele>38</ele>
        <time>2015-04-07T15:37:05.000Z</time>
      </trkpt>
      <trkpt lat="50.839" lon="1.58741">
        <ele>38</ele>
        <time>2015-04-07T15:37:06.000Z</time>
      </trkpt>
      <trkpt lat="50.83898" lon="1.58741">
        <ele>37.9</ele>
        <time>2015-04-07T15:37:07.000Z</time>
      </trkpt>
      <trkpt lat="50.83897" lon="1.58741">
        <ele>37.9</ele>
        <time>2015-04-07T15:37:08.000Z</time>
      </trkpt>
      <trkpt lat="50.83896" lon="1.58741">
        <ele>37.8</ele>
        <time>2015-04-07T15:37:09.000Z</time>
      </trkpt>
      <trkpt lat="50.83895" lon="1.5874">
        <ele>37.8</ele>
        <time>2015-04-07T15:37:10.000Z</time>
      </trkpt>
      <trkpt lat="50.83894" lon="1.5874">
        <ele>37.7</ele>
        <time>2015-04-07T15:37:11.000Z</time>
      </trkpt>
      <trkpt lat="50.83893" lon="1.5874">
        <ele>37.7</ele>
        <time>2015-04-07T15:37:12.000Z</time>
      </trkpt>
      <trkpt lat="50.83891" lon="1.5874">
        <ele>37.7</ele>
        <time>2015-04-07T15:37:13.000Z</time>
      </trkpt>
      <trkpt lat="50.8389" lon="1.58739">
        <ele>37.6</ele>
        <time>2015-04-07T15:37:14.000Z</time>
      </trkpt>
      <trkpt lat="50.83889" lon="1.58739">
        <ele>37.6</ele>
        <time>2015-04-07T15:37:15.000Z</time>
      </trkpt>
      <trkpt lat="50.83888" lon="1.58738">
        <ele>37.5</ele>
        <time>2015-04-07T15:37:16.000Z</time>
      </trkpt>
      <trkpt lat="50.83887" lon="1.58738">
        <ele>37.4</ele>
        <time>2015-04-07T15:37:17.000Z</time>
      </trkpt>
      <trkpt lat="50.83886" lon="1.58737">
        <ele>37.3</ele>
        <time>2015-04-07T15:37:18.000Z</time>
      </trkpt>
      <trkpt lat="50.83885" lon="1.58736">
        <ele>37.2</ele>
        <time>2015-04-07T15:37:19.000Z</time>
      </trkpt>
      <trkpt lat="50.83883" lon="1.58736">
        <ele>37.1</ele>
        <time>2015-04-07T15:37:20.000Z</time>
      </trkpt>
      <trkpt lat="50.83882" lon="1.58735">
        <ele>37</ele>
        <time>2015-04-07T15:37:21.000Z</time>
      </trkpt>
      <trkpt lat="50.83881" lon="1.58735">
        <ele>36.9</ele>
        <time>2015-04-07T15:37:22.000Z</time>
      </trkpt>
      <trkpt lat="50.8388" lon="1.58734">
        <ele>36.8</ele>
        <time>2015-04-07T15:37:23.000Z</time>
      </trkpt>
      <trkpt lat="50.83879" lon="1.58733">
        <ele>36.7</ele>
        <time>2015-04-07T15:37:24.000Z</time>
      </trkpt>
      <trkpt lat="50.83878" lon="1.58733">
        <ele>36.6</ele>
        <time>2015-04-07T15:37:25.000Z</time>
      </trkpt>
      <trkpt lat="50.83876" lon="1.58732">
        <ele>36.5</ele>
        <time>2015-04-07T15:37:26.000Z</time>
      </trkpt>
      <trkpt lat="50.83875" lon="1.58732">
        <ele>36.4</ele>
        <time>2015-04-07T15:37:27.000Z</time>
      </trkpt>
      <trkpt lat="50.83874" lon="1.58731">
        <ele>36.3</ele>
        <time>2015-04-07T15:37:28.000Z</time>
      </trkpt>
      <trkpt lat="50.83873" lon="1.58731">
        <ele>36.2</ele>
        <time>2015-04-07T15:37:29.000Z</time>
      </trkpt>
      <trkpt lat="50.83872" lon="1.5873">
        <ele>36.1</ele>
        <time>2015-04-07T15:37:30.000Z</time>
      </trkpt>
      <trkpt lat="50.83871" lon="1.58729">
        <ele>36</ele>
        <time>2015-04-07T15:37:31.000Z</time>
      </trkpt>
      <trkpt lat="50.8387" lon="1.58729">
        <ele>35.8</ele>
        <time>2015-04-07T15:37:32.000Z</time>
      </trkpt>
      <trkpt lat="50.83868" lon="1.58728">
        <ele>35.7</ele>
        <time>2015-04-07T15:37:33.000Z</time>
      </trkpt>
      <trkpt lat="50.83867" lon="1.58728">
        <ele>35.6</ele>
        <time>2015-04-07T15:37:34.000Z</time>
      </trkpt>
      <trkpt lat="50.83866" lon="1.58727">
        <ele>35.5</ele>
        <time>2015-04-07T15:37:35.000Z</time>
      </trkpt>
      <trkpt lat="50.83865" lon="1.58727">
        <ele>35.5</ele>
        <time>2015-04-07T15:37:36.000Z</time>
      </trkpt>
      <trkpt lat="50.83864" lon="1.58726">
        <ele>35.4</ele>
        <time>2015-04-07T15:37:37.000Z</time>
      </trkpt>
      <trkpt lat="50.83863" lon="1.58726">
        <ele>35.3</ele>
        <time>2015-04-07T15:37:38.000Z</time>
      </trkpt>
      <trkpt lat="50.83862" lon="1.58725">
        <ele>35.2</ele>
        <time>2015-04-07T15:37:39.000Z</time>
      </trkpt>
      <trkpt lat="50.83861" lon="1.58725">
        <ele>35.1</ele>
        <time>2015-04-07T15:37:40.000Z</time>
      </trkpt>
      <trkpt lat="50.83859" lon="1.58724">
        <ele>35</ele>
        <time>2015-04-07T15:37:41.000Z</time>
      </trkpt>
      <trkpt lat="50.83859" lon="1.58724">
        <ele>35</ele>
        <time>2015-04-07T15:37:42.000Z</time>
      </trkpt>
      <trkpt lat="50.83859" lon="1.58724">
        <ele>35</ele>
        <time>2015-04-07T15:37:43.000Z</time>
      </trkpt>
      <trkpt lat="50.83859" lon="1.58724">
        <ele>35</ele>
        <time>2015-04-07T15:37:44.000Z</time>
      </trkpt>
      <trkpt lat="50.83859" lon="1.58724">
        <ele>35</ele>
        <time>2015-04-07T15:37:45.000Z</time>
      </trkpt>
      <trkpt lat="50.83859" lon="1.58724">
        <ele>35</ele>
        <time>2015-04-07T15:37:46.000Z</time>
      </trkpt>
      <trkpt lat="50.83859" lon="1.58724">
        <ele>35</ele>
        <time>2015-04-07T15:37:47.000Z</time>
      </trkpt>
      <trkpt lat="50.83859" lon="1.58724">
        <ele>35</ele>
        <time>2015-04-07T15:37:48.000Z</time>
      </trkpt>
      <trkpt lat="50.83859" lon="1.58723">
        <ele>35</ele>
        <time>2015-04-07T15:37:49.000Z</time>
      </trkpt>
      <trkpt lat="50.83859" lon="1.58723">
        <ele>35</ele>
        <time>2015-04-07T15:37:50.000Z</time>
      </trkpt>
      <trkpt lat="50.83858" lon="1.58723">
        <ele>34.9</ele>
        <time>2015-04-07T15:37:51.000Z</time>
      </trkpt>
      <trkpt lat="50.83858" lon="1.58723">
        <ele>34.9</ele>
        <time>2015-04-07T15:37:52.000Z</time>
      </trkpt>
      <trkpt lat="50.83857" lon="1.58723">
        <ele>34.9</ele>
        <time>2015-04-07T15:37:53.000Z</time>
      </trkpt>
      <trkpt lat="50.83856" lon="1.58723">
        <ele>34.8</ele>
        <time>2015-04-07T15:37:54.000Z</time>
      </trkpt>
      <trkpt lat="50.83855" lon="1.58722">
        <ele>34.8</ele>
        <time>2015-04-07T15:37:55.000Z</time>
      </trkpt>
      <trkpt lat="50.83854" lon="1.58722">
        <ele>34.8</ele>
        <time>2015-04-07T15:37:56.000Z</time>
      </trkpt>
      <trkpt lat="50.83853" lon="1.58722">
        <ele>34.7</ele>
        <time>2015-04-07T15:37:57.000Z</time>
      </trkpt>
      <trkpt lat="50.83852" lon="1.58722">
        <ele>34.7</ele>
        <time>2015-04-07T15:37:58.000Z</time>
      </trkpt>
      <trkpt lat="50.83851" lon="1.58722">
        <ele>34.6</ele>
        <time>2015-04-07T15:37:59.000Z</time>
      </trkpt>
      <trkpt lat="50.8385" lon="1.58722">
        <ele>34.6</ele>
        <time>2015-04-07T15:38:00.000Z</time>
      </trkpt>
      <trkpt lat="50.83849" lon="1.58723">
        <ele>34.6</ele>
        <time>2015-04-07T15:38:01.000Z</time>
      </trkpt>
      <trkpt lat="50.83848" lon="1.58723">
        <ele>34.5</ele>
        <time>2015-04-07T15:38:02.000Z</time>
      </trkpt>
      <trkpt lat="50.83847" lon="1.58723">
        <ele>34.5</ele>
        <time>2015-04-07T15:38:03.000Z</time>
      </trkpt>
      <trkpt lat="50.83845" lon="1.58723">
        <ele>34.4</ele>
        <time>2015-04-07T15:38:04.000Z</time>
      </trkpt>
      <trkpt lat="50.83844" lon="1.58723">
        <ele>34.4</ele>
        <time>2015-04-07T15:38:05.000Z</time>
      </trkpt>
      <trkpt lat="50.83843" lon="1.58723">
        <ele>34.4</ele>
        <time>2015-04-07T15:38:06.000Z</time>
      </trkpt>
      <trkpt lat="50.83842" lon="1.58723">
        <ele>34.3</ele>
        <time>2015-04-07T15:38:07.000Z</time>
      </trkpt>
      <trkpt lat="50.83841" lon="1.58723">
        <ele>34.3</ele>
        <time>2015-04-07T15:38:08.000Z</time>
      </trkpt>
      <trkpt lat="50.8384" lon="1.58723">
        <ele>34.2</ele>
        <time>2015-04-07T15:38:09.000Z</time>
      </trkpt>
      <trkpt lat="50.83839" lon="1.58723">
        <ele>34.2</ele>
        <time>2015-04-07T15:38:10.000Z</time>
      </trkpt>
      <trkpt lat="50.83838" lon="1.58723">
        <ele>34.2</ele>
        <time>2015-04-07T15:38:11.000Z</time>
      </trkpt>
      <trkpt lat="50.83837" lon="1.58724">
        <ele>34.1</ele>
        <time>2015-04-07T15:38:12.000Z</time>
      </trkpt>
      <trkpt lat="50.83836" lon="1.58724">
        <ele>34.1</ele>
        <time>2015-04-07T15:38:13.000Z</time>
      </trkpt>
      <trkpt lat="50.83835" lon="1.58724">
        <ele>34</ele>
        <time>2015-04-07T15:38:14.000Z</time>
      </trkpt>
      <trkpt lat="50.83833" lon="1.58724">
        <ele>34</ele>
        <time>2015-04-07T15:38:15.000Z</time>
      </trkpt>
      <trkpt lat="50.83832" lon="1.58724">
        <ele>33.9</ele>
        <time>2015-04-07T15:38:16.000Z</time>
      </trkpt>
      <trkpt lat="50.83831" lon="1.58725">
        <ele>33.9</ele>
        <time>2015-04-07T15:38:17.000Z</time>
      </trkpt>
      <trkpt lat="50.8383" lon="1.58725">
        <ele>33.8</ele>
        <time>2015-04-07T15:38:18.000Z</time>
      </trkpt>
      <trkpt lat="50.83829" lon="1.58725">
        <ele>33.7</ele>
        <time>2015-04-07T15:38:19.000Z</time>
      </trkpt>
      <trkpt lat="50.83828" lon="1.58725">
        <ele>33.6</ele>
        <time>2015-04-07T15:38:20.000Z</time>
      </trkpt>
      <trkpt lat="50.83827" lon="1.58726">
        <ele>33.5</ele>
        <time>2015-04-07T15:38:21.000Z</time>
      </trkpt>
      <trkpt lat="50.83826" lon="1.58726">
        <ele>33.5</ele>
        <time>2015-04-07T15:38:22.000Z</time>
      </trkpt>
      <trkpt lat="50.83825" lon="1.58726">
        <ele>33.4</ele>
        <time>2015-04-07T15:38:23.000Z</time>
      </trkpt>
      <trkpt lat="50.83824" lon="1.58726">
        <ele>33.3</ele>
        <time>2015-04-07T15:38:24.000Z</time>
      </trkpt>
      <trkpt lat="50.83823" lon="1.58726">
        <ele>33.2</ele>
        <time>2015-04-07T15:38:25.000Z</time>
      </trkpt>
      <trkpt lat="50.83822" lon="1.58726">
        <ele>33.2</ele>
        <time>2015-04-07T15:38:26.000Z</time>
      </trkpt>
      <trkpt lat="50.83821" lon="1.58726">
        <ele>33.1</ele>
        <time>2015-04-07T15:38:27.000Z</time>
      </trkpt>
      <trkpt lat="50.8382" lon="1.58726">
        <ele>33</ele>
        <time>2015-04-07T15:38:28.000Z</time>
      </trkpt>
      <trkpt lat="50.83819" lon="1.58726">
        <ele>33</ele>
        <time>2015-04-07T15:38:29.000Z</time>
      </trkpt>
      <trkpt lat="50.83818" lon="1.58726">
        <ele>32.9</ele>
        <time>2015-04-07T15:38:30.000Z</time>
      </trkpt>
      <trkpt lat="50.83817" lon="1.58726">
        <ele>32.8</ele>
        <time>2015-04-07T15:38:31.000Z</time>
      </trkpt>
      <trkpt lat="50.83816" lon="1.58725">
        <ele>32.8</ele>
        <time>2015-04-07T15:38:32.000Z</time>
      </trkpt>
      <trkpt lat="50.83815" lon="1.58725">
        <ele>32.7</ele>
        <time>2015-04-07T15:38:33.000Z</time>
      </trkpt>
      <trkpt lat="50.83814" lon="1.58724">
        <ele>32.6</ele>
        <time>2015-04-07T15:38:34.000Z</time>
      </trkpt>
      <trkpt lat="50.83813" lon="1.58724">
        <ele>32.5</ele>
        <time>2015-04-07T15:38:35.000Z</time>
      </trkpt>
      <trkpt lat="50.83812" lon="1.58723">
        <ele>32.5</ele>
        <time>2015-04-07T15:38:36.000Z</time>
      </trkpt>
      <trkpt lat="50.83811" lon="1.58722">
        <ele>32.4</ele>
        <time>2015-04-07T15:38:37.000Z</time>
      </trkpt>
      <trkpt lat="50.8381" lon="1.58722">
        <ele>32.2</ele>
        <time>2015-04-07T15:38:38.000Z</time>
      </trkpt>
      <trkpt lat="50.83809" lon="1.58721">
        <ele>32.1</ele>
        <time>2015-04-07T15:38:39.000Z</time>
      </trkpt>
      <trkpt lat="50.83808" lon="1.58721">
        <ele>31.9</ele>
        <time>2015-04-07T15:38:40.000Z</time>
      </trkpt>
      <trkpt lat="50.83807" lon="1.5872">
        <ele>31.7</ele>
        <time>2015-04-07T15:38:41.000Z</time>
      </trkpt>
      <trkpt lat="50.83806" lon="1.58719">
        <ele>31.5</ele>
        <time>2015-04-07T15:38:42.000Z</time>
      </trkpt>
      <trkpt lat="50.83805" lon="1.58719">
        <ele>31.4</ele>
        <time>2015-04-07T15:38:43.000Z</time>
      </trkpt>
      <trkpt lat="50.83804" lon="1.58718">
        <ele>31.2</ele>
        <time>2015-04-07T15:38:44.000Z</time>
      </trkpt>
      <trkpt lat="50.83803" lon="1.58718">
        <ele>31</ele>
        <time>2015-04-07T15:38:45.000Z</time>
      </trkpt>
      <trkpt lat="50.83802" lon="1.58717">
        <ele>30.9</ele>
        <time>2015-04-07T15:38:46.000Z</time>
      </trkpt>
      <trkpt lat="50.83801" lon="1.58717">
        <ele>30.7</ele>
        <time>2015-04-07T15:38:47.000Z</time>
      </trkpt>
      <trkpt lat="50.838" lon="1.58717">
        <ele>30.5</ele>
        <time>2015-04-07T15:38:48.000Z</time>
      </trkpt>
      <trkpt lat="50.83799" lon="1.58716">
        <ele>30.4</ele>
        <time>2015-04-07T15:38:49.000Z</time>
      </trkpt>
      <trkpt lat="50.83798" lon="1.58716">
        <ele>30.2</ele>
        <time>2015-04-07T15:38:50.000Z</time>
      </trkpt>
      <trkpt lat="50.83797" lon="1.58716">
        <ele>30.1</ele>
        <time>2015-04-07T15:38:51.000Z</time>
      </trkpt>
      <trkpt lat="50.83796" lon="1.58715">
        <ele>30</ele>
        <time>2015-04-07T15:38:52.000Z</time>
      </trkpt>
      <trkpt lat="50.83795" lon="1.58715">
        <ele>29.9</ele>
        <time>2015-04-07T15:38:53.000Z</time>
      </trkpt>
      <trkpt lat="50.83794" lon="1.58715">
        <ele>29.7</ele>
        <time>2015-04-07T15:38:54.000Z</time>
      </trkpt>
      <trkpt lat="50.83793" lon="1.58715">
        <ele>29.7</ele>
        <time>2015-04-07T15:38:55.000Z</time>
      </trkpt>
      <trkpt lat="50.83792" lon="1.58715">
        <ele>29.6</ele>
        <time>2015-04-07T15:38:56.000Z</time>
      </trkpt>
      <trkpt lat="50.8379" lon="1.58715">
        <ele>29.5</ele>
        <time>2015-04-07T15:38:57.000Z</time>
      </trkpt>
      <trkpt lat="50.83789" lon="1.58715">
        <ele>29.4</ele>
        <time>2015-04-07T15:38:58.000Z</time>
      </trkpt>
      <trkpt lat="50.83788" lon="1.58716">
        <ele>29.4</ele>
        <time>2015-04-07T15:38:59.000Z</time>
      </trkpt>
      <trkpt lat="50.83787" lon="1.58716">
        <ele>29.4</ele>
        <time>2015-04-07T15:39:00.000Z</time>
      </trkpt>
      <trkpt lat="50.83786" lon="1.58716">
        <ele>29.3</ele>
        <time>2015-04-07T15:39:01.000Z</time>
      </trkpt>
      <trkpt lat="50.83785" lon="1.58716">
        <ele>29.3</ele>
        <time>2015-04-07T15:39:02.000Z</time>
      </trkpt>
      <trkpt lat="50.83784" lon="1.58717">
        <ele>29.3</ele>
        <time>2015-04-07T15:39:03.000Z</time>
      </trkpt>
      <trkpt lat="50.83783" lon="1.58717">
        <ele>29.2</ele>
        <time>2015-04-07T15:39:04.000Z</time>
      </trkpt>
      <trkpt lat="50.83781" lon="1.58717">
        <ele>29.2</ele>
        <time>2015-04-07T15:39:05.000Z</time>
      </trkpt>
      <trkpt lat="50.8378" lon="1.58717">
        <ele>29.1</ele>
        <time>2015-04-07T15:39:06.000Z</time>
      </trkpt>
      <trkpt lat="50.83779" lon="1.58718">
        <ele>29.1</ele>
        <time>2015-04-07T15:39:07.000Z</time>
      </trkpt>
      <trkpt lat="50.83778" lon="1.58718">
        <ele>29.1</ele>
        <time>2015-04-07T15:39:08.000Z</time>
      </trkpt>
      <trkpt lat="50.83777" lon="1.58718">
        <ele>29</ele>
        <time>2015-04-07T15:39:09.000Z</time>
      </trkpt>
      <trkpt lat="50.83776" lon="1.58719">
        <ele>29</ele>
        <time>2015-04-07T15:39:10.000Z</time>
      </trkpt>
      <trkpt lat="50.83775" lon="1.58719">
        <ele>29</ele>
        <time>2015-04-07T15:39:11.000Z</time>
      </trkpt>
      <trkpt lat="50.83774" lon="1.58719">
        <ele>29</ele>
        <time>2015-04-07T15:39:12.000Z</time>
      </trkpt>
      <trkpt lat="50.83772" lon="1.5872">
        <ele>28.9</ele>
        <time>2015-04-07T15:39:13.000Z</time>
      </trkpt>
      <trkpt lat="50.83771" lon="1.5872">
        <ele>28.9</ele>
        <time>2015-04-07T15:39:14.000Z</time>
      </trkpt>
      <trkpt lat="50.8377" lon="1.5872">
        <ele>28.9</ele>
        <time>2015-04-07T15:39:15.000Z</time>
      </trkpt>
      <trkpt lat="50.83769" lon="1.58721">
        <ele>28.9</ele>
        <time>2015-04-07T15:39:16.000Z</time>
      </trkpt>
      <trkpt lat="50.83768" lon="1.58721">
        <ele>28.9</ele>
        <time>2015-04-07T15:39:17.000Z</time>
      </trkpt>
      <trkpt lat="50.83767" lon="1.58721">
        <ele>29</ele>
        <time>2015-04-07T15:39:18.000Z</time>
      </trkpt>
      <trkpt lat="50.83766" lon="1.58722">
        <ele>29</ele>
        <time>2015-04-07T15:39:19.000Z</time>
      </trkpt>
      <trkpt lat="50.83765" lon="1.58722">
        <ele>29.1</ele>
        <time>2015-04-07T15:39:20.000Z</time>
      </trkpt>
      <trkpt lat="50.83764" lon="1.58723">
        <ele>29</ele>
        <time>2015-04-07T15:39:21.000Z</time>
      </trkpt>
      <trkpt lat="50.83763" lon="1.58723">
        <ele>28.9</ele>
        <time>2015-04-07T15:39:22.000Z</time>
      </trkpt>
      <trkpt lat="50.83761" lon="1.58723">
        <ele>28.8</ele>
        <time>2015-04-07T15:39:23.000Z</time>
      </trkpt>
      <trkpt lat="50.8376" lon="1.58724">
        <ele>28.7</ele>
        <time>2015-04-07T15:39:24.000Z</time>
      </trkpt>
      <trkpt lat="50.83759" lon="1.58724">
        <ele>28.7</ele>
        <time>2015-04-07T15:39:25.000Z</time>
      </trkpt>
      <trkpt lat="50.83758" lon="1.58724">
        <ele>28.6</ele>
        <time>2015-04-07T15:39:26.000Z</time>
      </trkpt>
      <trkpt lat="50.83757" lon="1.58724">
        <ele>28.5</ele>
        <time>2015-04-07T15:39:27.000Z</time>
      </trkpt>
      <trkpt lat="50.83756" lon="1.58724">
        <ele>28.4</ele>
        <time>2015-04-07T15:39:28.000Z</time>
      </trkpt>
      <trkpt lat="50.83755" lon="1.58724">
        <ele>28.4</ele>
        <time>2015-04-07T15:39:29.000Z</time>
      </trkpt>
      <trkpt lat="50.83754" lon="1.58724">
        <ele>28.3</ele>
        <time>2015-04-07T15:39:30.000Z</time>
      </trkpt>
      <trkpt lat="50.83753" lon="1.58725">
        <ele>28.2</ele>
        <time>2015-04-07T15:39:31.000Z</time>
      </trkpt>
      <trkpt lat="50.83752" lon="1.58725">
        <ele>28.1</ele>
        <time>2015-04-07T15:39:32.000Z</time>
      </trkpt>
      <trkpt lat="50.83751" lon="1.58725">
        <ele>28</ele>
        <time>2015-04-07T15:39:33.000Z</time>
      </trkpt>
      <trkpt lat="50.83749" lon="1.58725">
        <ele>27.9</ele>
        <time>2015-04-07T15:39:34.000Z</time>
      </trkpt>
      <trkpt lat="50.83748" lon="1.58725">
        <ele>27.8</ele>
        <time>2015-04-07T15:39:35.000Z</time>
      </trkpt>
      <trkpt lat="50.83747" lon="1.58725">
        <ele>27.6</ele>
        <time>2015-04-07T15:39:36.000Z</time>
      </trkpt>
      <trkpt lat="50.83746" lon="1.58725">
        <ele>27.4</ele>
        <time>2015-04-07T15:39:37.000Z</time>
      </trkpt>
      <trkpt lat="50.83745" lon="1.58725">
        <ele>27.3</ele>
        <time>2015-04-07T15:39:38.000Z</time>
      </trkpt>
      <trkpt lat="50.83744" lon="1.58726">
        <ele>27.2</ele>
        <time>2015-04-07T15:39:39.000Z</time>
      </trkpt>
      <trkpt lat="50.83742" lon="1.58726">
        <ele>27</ele>
        <time>2015-04-07T15:39:40.000Z</time>
      </trkpt>
      <trkpt lat="50.83741" lon="1.58726">
        <ele>26.9</ele>
        <time>2015-04-07T15:39:41.000Z</time>
      </trkpt>
      <trkpt lat="50.8374" lon="1.58726">
        <ele>26.7</ele>
        <time>2015-04-07T15:39:42.000Z</time>
      </trkpt>
      <trkpt lat="50.83739" lon="1.58727">
        <ele>26.6</ele>
        <time>2015-04-07T15:39:43.000Z</time>
      </trkpt>
      <trkpt lat="50.83738" lon="1.58727">
        <ele>26.5</ele>
        <time>2015-04-07T15:39:44.000Z</time>
      </trkpt>
      <trkpt lat="50.83737" lon="1.58727">
        <ele>26.3</ele>
        <time>2015-04-07T15:39:45.000Z</time>
      </trkpt>
      <trkpt lat="50.83736" lon="1.58727">
        <ele>26.2</ele>
        <time>2015-04-07T15:39:46.000Z</time>
      </trkpt>
      <trkpt lat="50.83735" lon="1.58727">
        <ele>26.1</ele>
        <time>2015-04-07T15:39:47.000Z</time>
      </trkpt>
      <trkpt lat="50.83734" lon="1.58727">
        <ele>26</ele>
        <time>2015-04-07T15:39:48.000Z</time>
      </trkpt>
      <trkpt lat="50.83733" lon="1.58727">
        <ele>25.9</ele>
        <time>2015-04-07T15:39:49.000Z</time>
      </trkpt>
      <trkpt lat="50.83732" lon="1.58728">
        <ele>25.7</ele>
        <time>2015-04-07T15:39:50.000Z</time>
      </trkpt>
      <trkpt lat="50.83731" lon="1.58728">
        <ele>25.6</ele>
        <time>2015-04-07T15:39:51.000Z</time>
      </trkpt>
      <trkpt lat="50.8373" lon="1.58728">
        <ele>25.5</ele>
        <time>2015-04-07T15:39:52.000Z</time>
      </trkpt>
      <trkpt lat="50.83728" lon="1.58728">
        <ele>25.4</ele>
        <time>2015-04-07T15:39:53.000Z</time>
      </trkpt>
      <trkpt lat="50.83727" lon="1.58728">
        <ele>25.3</ele>
        <time>2015-04-07T15:39:54.000Z</time>
      </trkpt>
      <trkpt lat="50.83726" lon="1.58729">
        <ele>25.2</ele>
        <time>2015-04-07T15:39:55.000Z</time>
      </trkpt>
      <trkpt lat="50.83725" lon="1.58729">
        <ele>25.1</ele>
        <time>2015-04-07T15:39:56.000Z</time>
      </trkpt>
      <trkpt lat="50.83724" lon="1.58729">
        <ele>25</ele>
        <time>2015-04-07T15:39:57.000Z</time>
      </trkpt>
      <trkpt lat="50.83723" lon="1.58729">
        <ele>24.9</ele>
        <time>2015-04-07T15:39:58.000Z</time>
      </trkpt>
      <trkpt lat="50.83722" lon="1.5873">
        <ele>24.8</ele>
        <time>2015-04-07T15:39:59.000Z</time>
      </trkpt>
      <trkpt lat="50.83721" lon="1.5873">
        <ele>24.7</ele>
        <time>2015-04-07T15:40:00.000Z</time>
      </trkpt>
      <trkpt lat="50.8372" lon="1.5873">
        <ele>24.6</ele>
        <time>2015-04-07T15:40:01.000Z</time>
      </trkpt>
      <trkpt lat="50.83719" lon="1.5873">
        <ele>24.5</ele>
        <time>2015-04-07T15:40:02.000Z</time>
      </trkpt>
      <trkpt lat="50.83718" lon="1.58731">
        <ele>24.4</ele>
        <time>2015-04-07T15:40:03.000Z</time>
      </trkpt>
      <trkpt lat="50.83717" lon="1.58731">
        <ele>24.3</ele>
        <time>2015-04-07T15:40:04.000Z</time>
      </trkpt>
      <trkpt lat="50.83716" lon="1.58731">
        <ele>24.3</ele>
        <time>2015-04-07T15:40:05.000Z</time>
      </trkpt>
      <trkpt lat="50.83715" lon="1.58731">
        <ele>24.2</ele>
        <time>2015-04-07T15:40:06.000Z</time>
      </trkpt>
      <trkpt lat="50.83714" lon="1.58731">
        <ele>24.1</ele>
        <time>2015-04-07T15:40:07.000Z</time>
      </trkpt>
      <trkpt lat="50.83713" lon="1.58732">
        <ele>24</ele>
        <time>2015-04-07T15:40:08.000Z</time>
      </trkpt>
      <trkpt lat="50.83711" lon="1.58732">
        <ele>23.9</ele>
        <time>2015-04-07T15:40:09.000Z</time>
      </trkpt>
      <trkpt lat="50.8371" lon="1.58732">
        <ele>23.8</ele>
        <time>2015-04-07T15:40:10.000Z</time>
      </trkpt>
      <trkpt lat="50.83709" lon="1.58733">
        <ele>23.8</ele>
        <time>2015-04-07T15:40:11.000Z</time>
      </trkpt>
      <trkpt lat="50.83708" lon="1.58733">
        <ele>23.7</ele>
        <time>2015-04-07T15:40:12.000Z</time>
      </trkpt>
      <trkpt lat="50.83707" lon="1.58734">
        <ele>23.7</ele>
        <time>2015-04-07T15:40:13.000Z</time>
      </trkpt>
      <trkpt lat="50.83705" lon="1.58734">
        <ele>23.6</ele>
        <time>2015-04-07T15:40:14.000Z</time>
      </trkpt>
      <trkpt lat="50.83704" lon="1.58735">
        <ele>23.6</ele>
        <time>2015-04-07T15:40:15.000Z</time>
      </trkpt>
      <trkpt lat="50.83703" lon="1.58735">
        <ele>23.6</ele>
        <time>2015-04-07T15:40:16.000Z</time>
      </trkpt>
      <trkpt lat="50.83702" lon="1.58736">
        <ele>23.6</ele>
        <time>2015-04-07T15:40:17.000Z</time>
      </trkpt>
      <trkpt lat="50.83701" lon="1.58736">
        <ele>23.6</ele>
        <time>2015-04-07T15:40:18.000Z</time>
      </trkpt>
      <trkpt lat="50.83699" lon="1.58737">
        <ele>23.6</ele>
        <time>2015-04-07T15:40:19.000Z</time>
      </trkpt>
      <trkpt lat="50.83698" lon="1.58737">
        <ele>23.6</ele>
        <time>2015-04-07T15:40:20.000Z</time>
      </trkpt>
      <trkpt lat="50.83697" lon="1.58738">
        <ele>23.6</ele>
        <time>2015-04-07T15:40:21.000Z</time>
      </trkpt>
      <trkpt lat="50.83696" lon="1.58739">
        <ele>23.7</ele>
        <time>2015-04-07T15:40:22.000Z</time>
      </trkpt>
      <trkpt lat="50.83695" lon="1.58739">
        <ele>23.7</ele>
        <time>2015-04-07T15:40:23.000Z</time>
      </trkpt>
      <trkpt lat="50.83694" lon="1.5874">
        <ele>23.8</ele>
        <time>2015-04-07T15:40:24.000Z</time>
      </trkpt>
      <trkpt lat="50.83693" lon="1.58741">
        <ele>23.8</ele>
        <time>2015-04-07T15:40:25.000Z</time>
      </trkpt>
      <trkpt lat="50.83692" lon="1.58741">
        <ele>23.8</ele>
        <time>2015-04-07T15:40:26.000Z</time>
      </trkpt>
      <trkpt lat="50.83691" lon="1.58742">
        <ele>23.8</ele>
        <time>2015-04-07T15:40:27.000Z</time>
      </trkpt>
      <trkpt lat="50.8369" lon="1.58742">
        <ele>23.8</ele>
        <time>2015-04-07T15:40:28.000Z</time>
      </trkpt>
      <trkpt lat="50.83689" lon="1.58743">
        <ele>23.8</ele>
        <time>2015-04-07T15:40:29.000Z</time>
      </trkpt>
      <trkpt lat="50.83688" lon="1.58744">
        <ele>23.9</ele>
        <time>2015-04-07T15:40:30.000Z</time>
      </trkpt>
      <trkpt lat="50.83687" lon="1.58744">
        <ele>23.9</ele>
        <time>2015-04-07T15:40:31.000Z</time>
      </trkpt>
      <trkpt lat="50.83686" lon="1.58745">
        <ele>23.9</ele>
        <time>2015-04-07T15:40:32.000Z</time>
      </trkpt>
      <trkpt lat="50.83685" lon="1.58746">
        <ele>24</ele>
        <time>2015-04-07T15:40:33.000Z</time>
      </trkpt>
      <trkpt lat="50.83684" lon="1.58746">
        <ele>24</ele>
        <time>2015-04-07T15:40:34.000Z</time>
      </trkpt>
      <trkpt lat="50.83683" lon="1.58747">
        <ele>24</ele>
        <time>2015-04-07T15:40:35.000Z</time>
      </trkpt>
      <trkpt lat="50.83682" lon="1.58747">
        <ele>24</ele>
        <time>2015-04-07T15:40:36.000Z</time>
      </trkpt>
      <trkpt lat="50.83681" lon="1.58748">
        <ele>24.1</ele>
        <time>2015-04-07T15:40:37.000Z</time>
      </trkpt>
      <trkpt lat="50.8368" lon="1.58749">
        <ele>24.1</ele>
        <time>2015-04-07T15:40:38.000Z</time>
      </trkpt>
      <trkpt lat="50.83679" lon="1.58749">
        <ele>24.1</ele>
        <time>2015-04-07T15:40:39.000Z</time>
      </trkpt>
      <trkpt lat="50.83678" lon="1.5875">
        <ele>24.2</ele>
        <time>2015-04-07T15:40:40.000Z</time>
      </trkpt>
      <trkpt lat="50.83677" lon="1.5875">
        <ele>24.1</ele>
        <time>2015-04-07T15:40:41.000Z</time>
      </trkpt>
      <trkpt lat="50.83676" lon="1.58751">
        <ele>24</ele>
        <time>2015-04-07T15:40:42.000Z</time>
      </trkpt>
      <trkpt lat="50.83675" lon="1.58752">
        <ele>23.9</ele>
        <time>2015-04-07T15:40:43.000Z</time>
      </trkpt>
      <trkpt lat="50.83674" lon="1.58752">
        <ele>23.8</ele>
        <time>2015-04-07T15:40:44.000Z</time>
      </trkpt>
      <trkpt lat="50.83673" lon="1.58752">
        <ele>23.7</ele>
        <time>2015-04-07T15:40:45.000Z</time>
      </trkpt>
      <trkpt lat="50.83671" lon="1.58753">
        <ele>23.6</ele>
        <time>2015-04-07T15:40:46.000Z</time>
      </trkpt>
      <trkpt lat="50.8367" lon="1.58754">
        <ele>23.5</ele>
        <time>2015-04-07T15:40:47.000Z</time>
      </trkpt>
      <trkpt lat="50.83669" lon="1.58754">
        <ele>23.4</ele>
        <time>2015-04-07T15:40:48.000Z</time>
      </trkpt>
      <trkpt lat="50.83668" lon="1.58755">
        <ele>23.3</ele>
        <time>2015-04-07T15:40:49.000Z</time>
      </trkpt>
      <trkpt lat="50.83667" lon="1.58755">
        <ele>23.2</ele>
        <time>2015-04-07T15:40:50.000Z</time>
      </trkpt>
      <trkpt lat="50.83666" lon="1.58756">
        <ele>23.1</ele>
        <time>2015-04-07T15:40:51.000Z</time>
      </trkpt>
      <trkpt lat="50.83665" lon="1.58757">
        <ele>22.9</ele>
        <time>2015-04-07T15:40:52.000Z</time>
      </trkpt>
      <trkpt lat="50.83664" lon="1.58757">
        <ele>22.8</ele>
        <time>2015-04-07T15:40:53.000Z</time>
      </trkpt>
      <trkpt lat="50.83663" lon="1.58758">
        <ele>22.6</ele>
        <time>2015-04-07T15:40:54.000Z</time>
      </trkpt>
      <trkpt lat="50.83662" lon="1.58759">
        <ele>22.5</ele>
        <time>2015-04-07T15:40:55.000Z</time>
      </trkpt>
      <trkpt lat="50.83661" lon="1.58759">
        <ele>22.4</ele>
        <time>2015-04-07T15:40:56.000Z</time>
      </trkpt>
      <trkpt lat="50.8366" lon="1.5876">
        <ele>22.2</ele>
        <time>2015-04-07T15:40:57.000Z</time>
      </trkpt>
      <trkpt lat="50.83659" lon="1.58761">
        <ele>22.1</ele>
        <time>2015-04-07T15:40:58.000Z</time>
      </trkpt>
      <trkpt lat="50.83658" lon="1.58762">
        <ele>22</ele>
        <time>2015-04-07T15:40:59.000Z</time>
      </trkpt>
      <trkpt lat="50.83657" lon="1.58762">
        <ele>22</ele>
        <time>2015-04-07T15:41:00.000Z</time>
      </trkpt>
      <trkpt lat="50.83656" lon="1.58763">
        <ele>21.9</ele>
        <time>2015-04-07T15:41:01.000Z</time>
      </trkpt>
      <trkpt lat="50.83655" lon="1.58764">
        <ele>21.8</ele>
        <time>2015-04-07T15:41:02.000Z</time>
      </trkpt>
      <trkpt lat="50.83654" lon="1.58765">
        <ele>21.8</ele>
        <time>2015-04-07T15:41:03.000Z</time>
      </trkpt>
      <trkpt lat="50.83653" lon="1.58766">
        <ele>21.8</ele>
        <time>2015-04-07T15:41:04.000Z</time>
      </trkpt>
      <trkpt lat="50.83652" lon="1.58767">
        <ele>21.8</ele>
        <time>2015-04-07T15:41:05.000Z</time>
      </trkpt>
      <trkpt lat="50.83652" lon="1.58768">
        <ele>21.7</ele>
        <time>2015-04-07T15:41:06.000Z</time>
      </trkpt>
      <trkpt lat="50.83651" lon="1.58768">
        <ele>21.7</ele>
        <time>2015-04-07T15:41:07.000Z</time>
      </trkpt>
      <trkpt lat="50.8365" lon="1.58769">
        <ele>21.7</ele>
        <time>2015-04-07T15:41:08.000Z</time>
      </trkpt>
      <trkpt lat="50.83649" lon="1.5877">
        <ele>21.7</ele>
        <time>2015-04-07T15:41:09.000Z</time>
      </trkpt>
      <trkpt lat="50.83648" lon="1.5877">
        <ele>21.7</ele>
        <time>2015-04-07T15:41:10.000Z</time>
      </trkpt>
      <trkpt lat="50.83647" lon="1.58771">
        <ele>21.7</ele>
        <time>2015-04-07T15:41:11.000Z</time>
      </trkpt>
      <trkpt lat="50.83646" lon="1.58772">
        <ele>21.7</ele>
        <time>2015-04-07T15:41:12.000Z</time>
      </trkpt>
      <trkpt lat="50.83645" lon="1.58772">
        <ele>21.7</ele>
        <time>2015-04-07T15:41:13.000Z</time>
      </trkpt>
      <trkpt lat="50.83644" lon="1.58773">
        <ele>21.7</ele>
        <time>2015-04-07T15:41:14.000Z</time>
      </trkpt>
      <trkpt lat="50.83643" lon="1.58774">
        <ele>21.7</ele>
        <time>2015-04-07T15:41:15.000Z</time>
      </trkpt>
      <trkpt lat="50.83642" lon="1.58774">
        <ele>21.7</ele>
        <time>2015-04-07T15:41:16.000Z</time>
      </trkpt>
      <trkpt lat="50.83641" lon="1.58775">
        <ele>21.7</ele>
        <time>2015-04-07T15:41:17.000Z</time>
      </trkpt>
      <trkpt lat="50.8364" lon="1.58775">
        <ele>21.7</ele>
        <time>2015-04-07T15:41:18.000Z</time>
      </trkpt>
      <trkpt lat="50.83639" lon="1.58776">
        <ele>21.7</ele>
        <time>2015-04-07T15:41:19.000Z</time>
      </trkpt>
      <trkpt lat="50.83639" lon="1.58776">
        <ele>21.7</ele>
        <time>2015-04-07T15:41:20.000Z</time>
      </trkpt>
      <trkpt lat="50.83638" lon="1.58777">
        <ele>21.6</ele>
        <time>2015-04-07T15:41:21.000Z</time>
      </trkpt>
      <trkpt lat="50.83637" lon="1.58777">
        <ele>21.6</ele>
        <time>2015-04-07T15:41:22.000Z</time>
      </trkpt>
      <trkpt lat="50.83636" lon="1.58778">
        <ele>21.6</ele>
        <time>2015-04-07T15:41:23.000Z</time>
      </trkpt>
      <trkpt lat="50.83635" lon="1.58778">
        <ele>21.5</ele>
        <time>2015-04-07T15:41:24.000Z</time>
      </trkpt>
      <trkpt lat="50.83633" lon="1.58779">
        <ele>21.4</ele>
        <time>2015-04-07T15:41:25.000Z</time>
      </trkpt>
      <trkpt lat="50.83632" lon="1.58779">
        <ele>21.3</ele>
        <time>2015-04-07T15:41:26.000Z</time>
      </trkpt>
      <trkpt lat="50.83631" lon="1.5878">
        <ele>21.2</ele>
        <time>2015-04-07T15:41:27.000Z</time>
      </trkpt>
      <trkpt lat="50.8363" lon="1.5878">
        <ele>21.1</ele>
        <time>2015-04-07T15:41:28.000Z</time>
      </trkpt>
      <trkpt lat="50.83629" lon="1.58781">
        <ele>20.9</ele>
        <time>2015-04-07T15:41:29.000Z</time>
      </trkpt>
      <trkpt lat="50.83628" lon="1.58781">
        <ele>20.8</ele>
        <time>2015-04-07T15:41:30.000Z</time>
      </trkpt>
      <trkpt lat="50.83627" lon="1.58782">
        <ele>20.7</ele>
        <time>2015-04-07T15:41:31.000Z</time>
      </trkpt>
      <trkpt lat="50.83626" lon="1.58782">
        <ele>20.6</ele>
        <time>2015-04-07T15:41:32.000Z</time>
      </trkpt>
      <trkpt lat="50.83625" lon="1.58783">
        <ele>20.4</ele>
        <time>2015-04-07T15:41:33.000Z</time>
      </trkpt>
      <trkpt lat="50.83624" lon="1.58783">
        <ele>20.3</ele>
        <time>2015-04-07T15:41:34.000Z</time>
      </trkpt>
      <trkpt lat="50.83623" lon="1.58783">
        <ele>20.2</ele>
        <time>2015-04-07T15:41:35.000Z</time>
      </trkpt>
      <trkpt lat="50.83622" lon="1.58784">
        <ele>20.1</ele>
        <time>2015-04-07T15:41:36.000Z</time>
      </trkpt>
      <trkpt lat="50.83622" lon="1.58784">
        <ele>20</ele>
        <time>2015-04-07T15:41:37.000Z</time>
      </trkpt>
      <trkpt lat="50.83621" lon="1.58784">
        <ele>19.9</ele>
        <time>2015-04-07T15:41:38.000Z</time>
      </trkpt>
      <trkpt lat="50.8362" lon="1.58785">
        <ele>19.7</ele>
        <time>2015-04-07T15:41:39.000Z</time>
      </trkpt>
      <trkpt lat="50.83619" lon="1.58785">
        <ele>19.6</ele>
        <time>2015-04-07T15:41:40.000Z</time>
      </trkpt>
      <trkpt lat="50.83618" lon="1.58785">
        <ele>19.5</ele>
        <time>2015-04-07T15:41:41.000Z</time>
      </trkpt>
      <trkpt lat="50.83617" lon="1.58785">
        <ele>19.4</ele>
        <time>2015-04-07T15:41:42.000Z</time>
      </trkpt>
      <trkpt lat="50.83616" lon="1.58785">
        <ele>19.3</ele>
        <time>2015-04-07T15:41:43.000Z</time>
      </trkpt>
      <trkpt lat="50.83615" lon="1.58785">
        <ele>19.2</ele>
        <time>2015-04-07T15:41:44.000Z</time>
      </trkpt>
      <trkpt lat="50.83615" lon="1.58785">
        <ele>19.2</ele>
        <time>2015-04-07T15:41:45.000Z</time>
      </trkpt>
      <trkpt lat="50.83614" lon="1.58784">
        <ele>19.1</ele>
        <time>2015-04-07T15:41:46.000Z</time>
      </trkpt>
      <trkpt lat="50.83613" lon="1.58784">
        <ele>19</ele>
        <time>2015-04-07T15:41:47.000Z</time>
      </trkpt>
      <trkpt lat="50.83613" lon="1.58784">
        <ele>18.9</ele>
        <time>2015-04-07T15:41:48.000Z</time>
      </trkpt>
      <trkpt lat="50.83612" lon="1.58784">
        <ele>18.9</ele>
        <time>2015-04-07T15:41:49.000Z</time>
      </trkpt>
      <trkpt lat="50.83611" lon="1.58785">
        <ele>18.8</ele>
        <time>2015-04-07T15:41:50.000Z</time>
      </trkpt>
      <trkpt lat="50.83611" lon="1.58785">
        <ele>18.7</ele>
        <time>2015-04-07T15:41:51.000Z</time>
      </trkpt>
      <trkpt lat="50.8361" lon="1.58786">
        <ele>18.5</ele>
        <time>2015-04-07T15:41:52.000Z</time>
      </trkpt>
      <trkpt lat="50.8361" lon="1.58786">
        <ele>18.4</ele>
        <time>2015-04-07T15:41:53.000Z</time>
      </trkpt>
      <trkpt lat="50.8361" lon="1.58787">
        <ele>18.3</ele>
        <time>2015-04-07T15:41:54.000Z</time>
      </trkpt>
      <trkpt lat="50.8361" lon="1.58788">
        <ele>18.2</ele>
        <time>2015-04-07T15:41:55.000Z</time>
      </trkpt>
      <trkpt lat="50.83609" lon="1.58789">
        <ele>18.1</ele>
        <time>2015-04-07T15:41:56.000Z</time>
      </trkpt>
      <trkpt lat="50.83609" lon="1.5879">
        <ele>18</ele>
        <time>2015-04-07T15:41:57.000Z</time>
      </trkpt>
      <trkpt lat="50.83609" lon="1.58791">
        <ele>17.9</ele>
        <time>2015-04-07T15:41:58.000Z</time>
      </trkpt>
      <trkpt lat="50.83609" lon="1.58792">
        <ele>17.8</ele>
        <time>2015-04-07T15:41:59.000Z</time>
      </trkpt>
      <trkpt lat="50.83608" lon="1.58793">
        <ele>17.7</ele>
        <time>2015-04-07T15:42:00.000Z</time>
      </trkpt>
      <trkpt lat="50.83608" lon="1.58795">
        <ele>17.6</ele>
        <time>2015-04-07T15:42:01.000Z</time>
      </trkpt>
      <trkpt lat="50.83608" lon="1.58796">
        <ele>17.5</ele>
        <time>2015-04-07T15:42:02.000Z</time>
      </trkpt>
      <trkpt lat="50.83608" lon="1.58798">
        <ele>17.5</ele>
        <time>2015-04-07T15:42:03.000Z</time>
      </trkpt>
      <trkpt lat="50.83608" lon="1.58799">
        <ele>17.5</ele>
        <time>2015-04-07T15:42:04.000Z</time>
      </trkpt>
      <trkpt lat="50.83608" lon="1.58801">
        <ele>17.5</ele>
        <time>2015-04-07T15:42:05.000Z</time>
      </trkpt>
      <trkpt lat="50.83608" lon="1.58802">
        <ele>17.5</ele>
        <time>2015-04-07T15:42:06.000Z</time>
      </trkpt>
      <trkpt lat="50.83608" lon="1.58803">
        <ele>17.5</ele>
        <time>2015-04-07T15:42:07.000Z</time>
      </trkpt>
      <trkpt lat="50.83609" lon="1.58805">
        <ele>17.6</ele>
        <time>2015-04-07T15:42:08.000Z</time>
      </trkpt>
      <trkpt lat="50.83609" lon="1.58806">
        <ele>17.6</ele>
        <time>2015-04-07T15:42:09.000Z</time>
      </trkpt>
      <trkpt lat="50.8361" lon="1.58808">
        <ele>17.6</ele>
        <time>2015-04-07T15:42:10.000Z</time>
      </trkpt>
      <trkpt lat="50.8361" lon="1.58809">
        <ele>17.6</ele>
        <time>2015-04-07T15:42:11.000Z</time>
      </trkpt>
      <trkpt lat="50.83611" lon="1.58811">
        <ele>17.6</ele>
        <time>2015-04-07T15:42:12.000Z</time>
      </trkpt>
      <trkpt lat="50.83611" lon="1.58812">
        <ele>17.6</ele>
        <time>2015-04-07T15:42:13.000Z</time>
      </trkpt>
      <trkpt lat="50.83612" lon="1.58813">
        <ele>17.6</ele>
        <time>2015-04-07T15:42:14.000Z</time>
      </trkpt>
      <trkpt lat="50.83613" lon="1.58814">
        <ele>17.6</ele>
        <time>2015-04-07T15:42:15.000Z</time>
      </trkpt>
      <trkpt lat="50.83614" lon="1.58816">
        <ele>17.6</ele>
        <time>2015-04-07T15:42:16.000Z</time>
      </trkpt>
      <trkpt lat="50.83614" lon="1.58817">
        <ele>17.6</ele>
        <time>2015-04-07T15:42:17.000Z</time>
      </trkpt>
      <trkpt lat="50.83615" lon="1.58819">
        <ele>17.7</ele>
        <time>2015-04-07T15:42:18.000Z</time>
      </trkpt>
      <trkpt lat="50.83616" lon="1.5882">
        <ele>17.7</ele>
        <time>2015-04-07T15:42:19.000Z</time>
      </trkpt>
      <trkpt lat="50.83617" lon="1.58822">
        <ele>17.7</ele>
        <time>2015-04-07T15:42:20.000Z</time>
      </trkpt>
      <trkpt lat="50.83617" lon="1.58823">
        <ele>17.8</ele>
        <time>2015-04-07T15:42:21.000Z</time>
      </trkpt>
      <trkpt lat="50.83618" lon="1.58824">
        <ele>17.8</ele>
        <time>2015-04-07T15:42:22.000Z</time>
      </trkpt>
      <trkpt lat="50.83619" lon="1.58825">
        <ele>17.8</ele>
        <time>2015-04-07T15:42:23.000Z</time>
      </trkpt>
      <trkpt lat="50.83619" lon="1.58827">
        <ele>17.9</ele>
        <time>2015-04-07T15:42:24.000Z</time>
      </trkpt>
      <trkpt lat="50.8362" lon="1.58828">
        <ele>17.9</ele>
        <time>2015-04-07T15:42:25.000Z</time>
      </trkpt>
      <trkpt lat="50.8362" lon="1.58829">
        <ele>17.9</ele>
        <time>2015-04-07T15:42:26.000Z</time>
      </trkpt>
      <trkpt lat="50.83621" lon="1.5883">
        <ele>18</ele>
        <time>2015-04-07T15:42:27.000Z</time>
      </trkpt>
      <trkpt lat="50.83622" lon="1.58832">
        <ele>18</ele>
        <time>2015-04-07T15:42:28.000Z</time>
      </trkpt>
      <trkpt lat="50.83622" lon="1.58833">
        <ele>18</ele>
        <time>2015-04-07T15:42:29.000Z</time>
      </trkpt>
      <trkpt lat="50.83623" lon="1.58834">
        <ele>18.1</ele>
        <time>2015-04-07T15:42:30.000Z</time>
      </trkpt>
      <trkpt lat="50.83623" lon="1.58835">
        <ele>18.2</ele>
        <time>2015-04-07T15:42:31.000Z</time>
      </trkpt>
      <trkpt lat="50.83624" lon="1.58837">
        <ele>18.3</ele>
        <time>2015-04-07T15:42:32.000Z</time>
      </trkpt>
      <trkpt lat="50.83625" lon="1.58838">
        <ele>18.4</ele>
        <time>2015-04-07T15:42:33.000Z</time>
      </trkpt>
      <trkpt lat="50.83625" lon="1.58839">
        <ele>18.5</ele>
        <time>2015-04-07T15:42:34.000Z</time>
      </trkpt>
      <trkpt lat="50.83626" lon="1.5884">
        <ele>18.6</ele>
        <time>2015-04-07T15:42:35.000Z</time>
      </trkpt>
      <trkpt lat="50.83626" lon="1.58841">
        <ele>18.7</ele>
        <time>2015-04-07T15:42:36.000Z</time>
      </trkpt>
      <trkpt lat="50.83627" lon="1.58842">
        <ele>18.7</ele>
        <time>2015-04-07T15:42:37.000Z</time>
      </trkpt>
      <trkpt lat="50.83627" lon="1.58843">
        <ele>18.8</ele>
        <time>2015-04-07T15:42:38.000Z</time>
      </trkpt>
      <trkpt lat="50.83628" lon="1.58844">
        <ele>18.8</ele>
        <time>2015-04-07T15:42:39.000Z</time>
      </trkpt>
      <trkpt lat="50.83628" lon="1.58845">
        <ele>18.9</ele>
        <time>2015-04-07T15:42:40.000Z</time>
      </trkpt>
      <trkpt lat="50.83628" lon="1.58846">
        <ele>18.9</ele>
        <time>2015-04-07T15:42:41.000Z</time>
      </trkpt>
      <trkpt lat="50.83629" lon="1.58847">
        <ele>18.9</ele>
        <time>2015-04-07T15:42:42.000Z</time>
      </trkpt>
      <trkpt lat="50.83629" lon="1.58848">
        <ele>18.9</ele>
        <time>2015-04-07T15:42:43.000Z</time>
      </trkpt>
      <trkpt lat="50.83629" lon="1.58849">
        <ele>18.9</ele>
        <time>2015-04-07T15:42:44.000Z</time>
      </trkpt>
      <trkpt lat="50.83629" lon="1.5885">
        <ele>18.9</ele>
        <time>2015-04-07T15:42:45.000Z</time>
      </trkpt>
      <trkpt lat="50.8363" lon="1.58851">
        <ele>18.9</ele>
        <time>2015-04-07T15:42:46.000Z</time>
      </trkpt>
      <trkpt lat="50.8363" lon="1.58852">
        <ele>18.9</ele>
        <time>2015-04-07T15:42:47.000Z</time>
      </trkpt>
      <trkpt lat="50.83629" lon="1.58853">
        <ele>18.8</ele>
        <time>2015-04-07T15:42:48.000Z</time>
      </trkpt>
      <trkpt lat="50.83629" lon="1.58854">
        <ele>18.8</ele>
        <time>2015-04-07T15:42:49.000Z</time>
      </trkpt>
      <trkpt lat="50.83629" lon="1.58855">
        <ele>18.7</ele>
        <time>2015-04-07T15:42:50.000Z</time>
      </trkpt>
      <trkpt lat="50.83628" lon="1.58857">
        <ele>18.7</ele>
        <time>2015-04-07T15:42:51.000Z</time>
      </trkpt>
      <trkpt lat="50.83628" lon="1.58858">
        <ele>18.6</ele>
        <time>2015-04-07T15:42:52.000Z</time>
      </trkpt>
      <trkpt lat="50.83627" lon="1.58859">
        <ele>18.6</ele>
        <time>2015-04-07T15:42:53.000Z</time>
      </trkpt>
      <trkpt lat="50.83627" lon="1.58861">
        <ele>18.6</ele>
        <time>2015-04-07T15:42:54.000Z</time>
      </trkpt>
      <trkpt lat="50.83626" lon="1.58862">
        <ele>18.6</ele>
        <time>2015-04-07T15:42:55.000Z</time>
      </trkpt>
      <trkpt lat="50.83626" lon="1.58863">
        <ele>18.8</ele>
        <time>2015-04-07T15:42:56.000Z</time>
      </trkpt>
      <trkpt lat="50.83625" lon="1.58864">
        <ele>18.9</ele>
        <time>2015-04-07T15:42:57.000Z</time>
      </trkpt>
      <trkpt lat="50.83625" lon="1.58866">
        <ele>19.1</ele>
        <time>2015-04-07T15:42:58.000Z</time>
      </trkpt>
      <trkpt lat="50.83624" lon="1.58867">
        <ele>19.2</ele>
        <time>2015-04-07T15:42:59.000Z</time>
      </trkpt>
      <trkpt lat="50.83623" lon="1.58868">
        <ele>19.4</ele>
        <time>2015-04-07T15:43:00.000Z</time>
      </trkpt>
      <trkpt lat="50.83622" lon="1.58869">
        <ele>19.5</ele>
        <time>2015-04-07T15:43:01.000Z</time>
      </trkpt>
      <trkpt lat="50.83622" lon="1.5887">
        <ele>19.6</ele>
        <time>2015-04-07T15:43:02.000Z</time>
      </trkpt>
      <trkpt lat="50.83621" lon="1.58871">
        <ele>19.8</ele>
        <time>2015-04-07T15:43:03.000Z</time>
      </trkpt>
      <trkpt lat="50.8362" lon="1.58872">
        <ele>19.9</ele>
        <time>2015-04-07T15:43:04.000Z</time>
      </trkpt>
      <trkpt lat="50.83619" lon="1.58873">
        <ele>20</ele>
        <time>2015-04-07T15:43:05.000Z</time>
      </trkpt>
      <trkpt lat="50.83618" lon="1.58874">
        <ele>20.1</ele>
        <time>2015-04-07T15:43:06.000Z</time>
      </trkpt>
      <trkpt lat="50.83617" lon="1.58874">
        <ele>20.3</ele>
        <time>2015-04-07T15:43:07.000Z</time>
      </trkpt>
      <trkpt lat="50.83616" lon="1.58875">
        <ele>20.4</ele>
        <time>2015-04-07T15:43:08.000Z</time>
      </trkpt>
      <trkpt lat="50.83615" lon="1.58875">
        <ele>20.4</ele>
        <time>2015-04-07T15:43:09.000Z</time>
      </trkpt>
      <trkpt lat="50.83614" lon="1.58875">
        <ele>20.5</ele>
        <time>2015-04-07T15:43:10.000Z</time>
      </trkpt>
      <trkpt lat="50.83613" lon="1.58875">
        <ele>20.5</ele>
        <time>2015-04-07T15:43:11.000Z</time>
      </trkpt>
      <trkpt lat="50.83612" lon="1.58875">
        <ele>20.5</ele>
        <time>2015-04-07T15:43:12.000Z</time>
      </trkpt>
      <trkpt lat="50.83611" lon="1.58875">
        <ele>20.5</ele>
        <time>2015-04-07T15:43:13.000Z</time>
      </trkpt>
      <trkpt lat="50.8361" lon="1.58875">
        <ele>20.6</ele>
        <time>2015-04-07T15:43:14.000Z</time>
      </trkpt>
      <trkpt lat="50.83609" lon="1.58874">
        <ele>20.7</ele>
        <time>2015-04-07T15:43:15.000Z</time>
      </trkpt>
      <trkpt lat="50.83608" lon="1.58874">
        <ele>20.8</ele>
        <time>2015-04-07T15:43:16.000Z</time>
      </trkpt>
      <trkpt lat="50.83607" lon="1.58873">
        <ele>20.9</ele>
        <time>2015-04-07T15:43:17.000Z</time>
      </trkpt>
      <trkpt lat="50.83606" lon="1.58873">
        <ele>21</ele>
        <time>2015-04-07T15:43:18.000Z</time>
      </trkpt>
      <trkpt lat="50.83605" lon="1.58872">
        <ele>21.1</ele>
        <time>2015-04-07T15:43:19.000Z</time>
      </trkpt>
      <trkpt lat="50.83604" lon="1.58872">
        <ele>21.2</ele>
        <time>2015-04-07T15:43:20.000Z</time>
      </trkpt>
      <trkpt lat="50.83604" lon="1.58871">
        <ele>21.3</ele>
        <time>2015-04-07T15:43:21.000Z</time>
      </trkpt>
      <trkpt lat="50.83603" lon="1.58871">
        <ele>21.4</ele>
        <time>2015-04-07T15:43:22.000Z</time>
      </trkpt>
      <trkpt lat="50.83602" lon="1.5887">
        <ele>21.5</ele>
        <time>2015-04-07T15:43:23.000Z</time>
      </trkpt>
      <trkpt lat="50.83601" lon="1.5887">
        <ele>21.5</ele>
        <time>2015-04-07T15:43:24.000Z</time>
      </trkpt>
      <trkpt lat="50.836" lon="1.58869">
        <ele>21.6</ele>
        <time>2015-04-07T15:43:25.000Z</time>
      </trkpt>
      <trkpt lat="50.83599" lon="1.58869">
        <ele>21.7</ele>
        <time>2015-04-07T15:43:26.000Z</time>
      </trkpt>
      <trkpt lat="50.83598" lon="1.58868">
        <ele>21.8</ele>
        <time>2015-04-07T15:43:27.000Z</time>
      </trkpt>
      <trkpt lat="50.83597" lon="1.58867">
        <ele>21.9</ele>
        <time>2015-04-07T15:43:28.000Z</time>
      </trkpt>
      <trkpt lat="50.83596" lon="1.58867">
        <ele>22</ele>
        <time>2015-04-07T15:43:29.000Z</time>
      </trkpt>
      <trkpt lat="50.83596" lon="1.58866">
        <ele>22</ele>
        <time>2015-04-07T15:43:30.000Z</time>
      </trkpt>
      <trkpt lat="50.83595" lon="1.58865">
        <ele>22.1</ele>
        <time>2015-04-07T15:43:31.000Z</time>
      </trkpt>
      <trkpt lat="50.83594" lon="1.58865">
        <ele>22.2</ele>
        <time>2015-04-07T15:43:32.000Z</time>
      </trkpt>
      <trkpt lat="50.83593" lon="1.58864">
        <ele>22.3</ele>
        <time>2015-04-07T15:43:33.000Z</time>
      </trkpt>
      <trkpt lat="50.83592" lon="1.58863">
        <ele>22.4</ele>
        <time>2015-04-07T15:43:34.000Z</time>
      </trkpt>
      <trkpt lat="50.83591" lon="1.58863">
        <ele>22.5</ele>
        <time>2015-04-07T15:43:35.000Z</time>
      </trkpt>
      <trkpt lat="50.8359" lon="1.58862">
        <ele>22.6</ele>
        <time>2015-04-07T15:43:36.000Z</time>
      </trkpt>
      <trkpt lat="50.83589" lon="1.58861">
        <ele>22.7</ele>
        <time>2015-04-07T15:43:37.000Z</time>
      </trkpt>
      <trkpt lat="50.83588" lon="1.58861">
        <ele>22.8</ele>
        <time>2015-04-07T15:43:38.000Z</time>
      </trkpt>
      <trkpt lat="50.83587" lon="1.5886">
        <ele>22.9</ele>
        <time>2015-04-07T15:43:39.000Z</time>
      </trkpt>
      <trkpt lat="50.83587" lon="1.5886">
        <ele>23</ele>
        <time>2015-04-07T15:43:40.000Z</time>
      </trkpt>
      <trkpt lat="50.83586" lon="1.58859">
        <ele>23.1</ele>
        <time>2015-04-07T15:43:41.000Z</time>
      </trkpt>
      <trkpt lat="50.83585" lon="1.58858">
        <ele>23.1</ele>
        <time>2015-04-07T15:43:42.000Z</time>
      </trkpt>
      <trkpt lat="50.83584" lon="1.58858">
        <ele>23.2</ele>
        <time>2015-04-07T15:43:43.000Z</time>
      </trkpt>
      <trkpt lat="50.83583" lon="1.58857">
        <ele>23.2</ele>
        <time>2015-04-07T15:43:44.000Z</time>
      </trkpt>
      <trkpt lat="50.83582" lon="1.58857">
        <ele>23.2</ele>
        <time>2015-04-07T15:43:45.000Z</time>
      </trkpt>
      <trkpt lat="50.83581" lon="1.58856">
        <ele>23.2</ele>
        <time>2015-04-07T15:43:46.000Z</time>
      </trkpt>
      <trkpt lat="50.8358" lon="1.58855">
        <ele>23.3</ele>
        <time>2015-04-07T15:43:47.000Z</time>
      </trkpt>
      <trkpt lat="50.83579" lon="1.58855">
        <ele>23.3</ele>
        <time>2015-04-07T15:43:48.000Z</time>
      </trkpt>
      <trkpt lat="50.83578" lon="1.58854">
        <ele>23.3</ele>
        <time>2015-04-07T15:43:49.000Z</time>
      </trkpt>
      <trkpt lat="50.83577" lon="1.58854">
        <ele>23.4</ele>
        <time>2015-04-07T15:43:50.000Z</time>
      </trkpt>
      <trkpt lat="50.83576" lon="1.58853">
        <ele>23.4</ele>
        <time>2015-04-07T15:43:51.000Z</time>
      </trkpt>
      <trkpt lat="50.83576" lon="1.58852">
        <ele>23.4</ele>
        <time>2015-04-07T15:43:52.000Z</time>
      </trkpt>
      <trkpt lat="50.83575" lon="1.58852">
        <ele>23.5</ele>
        <time>2015-04-07T15:43:53.000Z</time>
      </trkpt>
      <trkpt lat="50.83574" lon="1.58851">
        <ele>23.5</ele>
        <time>2015-04-07T15:43:54.000Z</time>
      </trkpt>
      <trkpt lat="50.83573" lon="1.5885">
        <ele>23.5</ele>
        <time>2015-04-07T15:43:55.000Z</time>
      </trkpt>
      <trkpt lat="50.83572" lon="1.5885">
        <ele>23.5</ele>
        <time>2015-04-07T15:43:56.000Z</time>
      </trkpt>
      <trkpt lat="50.83571" lon="1.58849">
        <ele>23.5</ele>
        <time>2015-04-07T15:43:57.000Z</time>
      </trkpt>
      <trkpt lat="50.8357" lon="1.58848">
        <ele>23.5</ele>
        <time>2015-04-07T15:43:58.000Z</time>
      </trkpt>
      <trkpt lat="50.8357" lon="1.58847">
        <ele>23.4</ele>
        <time>2015-04-07T15:43:59.000Z</time>
      </trkpt>
      <trkpt lat="50.83569" lon="1.58846">
        <ele>23.4</ele>
        <time>2015-04-07T15:44:00.000Z</time>
      </trkpt>
      <trkpt lat="50.83568" lon="1.58845">
        <ele>23.4</ele>
        <time>2015-04-07T15:44:01.000Z</time>
      </trkpt>
      <trkpt lat="50.83567" lon="1.58845">
        <ele>23.5</ele>
        <time>2015-04-07T15:44:02.000Z</time>
      </trkpt>
      <trkpt lat="50.83566" lon="1.58844">
        <ele>23.5</ele>
        <time>2015-04-07T15:44:03.000Z</time>
      </trkpt>
      <trkpt lat="50.83566" lon="1.58844">
        <ele>23.6</ele>
        <time>2015-04-07T15:44:04.000Z</time>
      </trkpt>
      <trkpt lat="50.83565" lon="1.58844">
        <ele>23.7</ele>
        <time>2015-04-07T15:44:05.000Z</time>
      </trkpt>
      <trkpt lat="50.83564" lon="1.58843">
        <ele>23.8</ele>
        <time>2015-04-07T15:44:06.000Z</time>
      </trkpt>
      <trkpt lat="50.83561" lon="1.58844">
        <ele>24.4</ele>
        <time>2015-04-07T15:44:07.000Z</time>
      </trkpt>
      <trkpt lat="50.83561" lon="1.58844">
        <ele>24.5</ele>
        <time>2015-04-07T15:44:08.000Z</time>
      </trkpt>
      <trkpt lat="50.83561" lon="1.58844">
        <ele>24.5</ele>
        <time>2015-04-07T15:44:09.000Z</time>
      </trkpt>
      <trkpt lat="50.8356" lon="1.58844">
        <ele>24.6</ele>
        <time>2015-04-07T15:44:10.000Z</time>
      </trkpt>
      <trkpt lat="50.8356" lon="1.58844">
        <ele>24.8</ele>
        <time>2015-04-07T15:44:11.000Z</time>
      </trkpt>
      <trkpt lat="50.83559" lon="1.58845">
        <ele>25</ele>
        <time>2015-04-07T15:44:12.000Z</time>
      </trkpt>
      <trkpt lat="50.83558" lon="1.58845">
        <ele>25.1</ele>
        <time>2015-04-07T15:44:13.000Z</time>
      </trkpt>
      <trkpt lat="50.83558" lon="1.58845">
        <ele>25.3</ele>
        <time>2015-04-07T15:44:14.000Z</time>
      </trkpt>
      <trkpt lat="50.83557" lon="1.58846">
        <ele>25.6</ele>
        <time>2015-04-07T15:44:15.000Z</time>
      </trkpt>
      <trkpt lat="50.83556" lon="1.58846">
        <ele>25.8</ele>
        <time>2015-04-07T15:44:16.000Z</time>
      </trkpt>
      <trkpt lat="50.83555" lon="1.58846">
        <ele>25.8</ele>
        <time>2015-04-07T15:44:17.000Z</time>
      </trkpt>
      <trkpt lat="50.83554" lon="1.58847">
        <ele>25.8</ele>
        <time>2015-04-07T15:44:18.000Z</time>
      </trkpt>
      <trkpt lat="50.83553" lon="1.58847">
        <ele>25.8</ele>
        <time>2015-04-07T15:44:19.000Z</time>
      </trkpt>
      <trkpt lat="50.83552" lon="1.58847">
        <ele>25.8</ele>
        <time>2015-04-07T15:44:20.000Z</time>
      </trkpt>
      <trkpt lat="50.83551" lon="1.58848">
        <ele>25.8</ele>
        <time>2015-04-07T15:44:21.000Z</time>
      </trkpt>
      <trkpt lat="50.8355" lon="1.58848">
        <ele>25.8</ele>
        <time>2015-04-07T15:44:22.000Z</time>
      </trkpt>
      <trkpt lat="50.8355" lon="1.58849">
        <ele>25.8</ele>
        <time>2015-04-07T15:44:23.000Z</time>
      </trkpt>
      <trkpt lat="50.83549" lon="1.58849">
        <ele>25.9</ele>
        <time>2015-04-07T15:44:24.000Z</time>
      </trkpt>
      <trkpt lat="50.83548" lon="1.5885">
        <ele>25.9</ele>
        <time>2015-04-07T15:44:25.000Z</time>
      </trkpt>
      <trkpt lat="50.83547" lon="1.5885">
        <ele>25.9</ele>
        <time>2015-04-07T15:44:26.000Z</time>
      </trkpt>
      <trkpt lat="50.83546" lon="1.5885">
        <ele>26</ele>
        <time>2015-04-07T15:44:27.000Z</time>
      </trkpt>
      <trkpt lat="50.83545" lon="1.58851">
        <ele>26</ele>
        <time>2015-04-07T15:44:28.000Z</time>
      </trkpt>
      <trkpt lat="50.83544" lon="1.58851">
        <ele>26.1</ele>
        <time>2015-04-07T15:44:29.000Z</time>
      </trkpt>
      <trkpt lat="50.83543" lon="1.58851">
        <ele>26.1</ele>
        <time>2015-04-07T15:44:30.000Z</time>
      </trkpt>
      <trkpt lat="50.83542" lon="1.58852">
        <ele>26.2</ele>
        <time>2015-04-07T15:44:31.000Z</time>
      </trkpt>
      <trkpt lat="50.83541" lon="1.58852">
        <ele>26.2</ele>
        <time>2015-04-07T15:44:32.000Z</time>
      </trkpt>
      <trkpt lat="50.8354" lon="1.58853">
        <ele>26.3</ele>
        <time>2015-04-07T15:44:33.000Z</time>
      </trkpt>
      <trkpt lat="50.83539" lon="1.58853">
        <ele>26.4</ele>
        <time>2015-04-07T15:44:34.000Z</time>
      </trkpt>
      <trkpt lat="50.83538" lon="1.58854">
        <ele>26.5</ele>
        <time>2015-04-07T15:44:35.000Z</time>
      </trkpt>
      <trkpt lat="50.83537" lon="1.58854">
        <ele>26.6</ele>
        <time>2015-04-07T15:44:36.000Z</time>
      </trkpt>
      <trkpt lat="50.83536" lon="1.58854">
        <ele>26.7</ele>
        <time>2015-04-07T15:44:37.000Z</time>
      </trkpt>
      <trkpt lat="50.83535" lon="1.58855">
        <ele>26.8</ele>
        <time>2015-04-07T15:44:38.000Z</time>
      </trkpt>
      <trkpt lat="50.83533" lon="1.58855">
        <ele>26.9</ele>
        <time>2015-04-07T15:44:39.000Z</time>
      </trkpt>
      <trkpt lat="50.83532" lon="1.58856">
        <ele>27</ele>
        <time>2015-04-07T15:44:40.000Z</time>
      </trkpt>
      <trkpt lat="50.83531" lon="1.58856">
        <ele>27.2</ele>
        <time>2015-04-07T15:44:41.000Z</time>
      </trkpt>
      <trkpt lat="50.8353" lon="1.58856">
        <ele>27.3</ele>
        <time>2015-04-07T15:44:42.000Z</time>
      </trkpt>
      <trkpt lat="50.83529" lon="1.58857">
        <ele>27.4</ele>
        <time>2015-04-07T15:44:43.000Z</time>
      </trkpt>
      <trkpt lat="50.83528" lon="1.58857">
        <ele>27.6</ele>
        <time>2015-04-07T15:44:44.000Z</time>
      </trkpt>
      <trkpt lat="50.83527" lon="1.58858">
        <ele>27.6</ele>
        <time>2015-04-07T15:44:45.000Z</time>
      </trkpt>
      <trkpt lat="50.83526" lon="1.58858">
        <ele>27.6</ele>
        <time>2015-04-07T15:44:46.000Z</time>
      </trkpt>
      <trkpt lat="50.83525" lon="1.58858">
        <ele>27.6</ele>
        <time>2015-04-07T15:44:47.000Z</time>
      </trkpt>
      <trkpt lat="50.83524" lon="1.58859">
        <ele>27.5</ele>
        <time>2015-04-07T15:44:48.000Z</time>
      </trkpt>
      <trkpt lat="50.83523" lon="1.58859">
        <ele>27.5</ele>
        <time>2015-04-07T15:44:49.000Z</time>
      </trkpt>
      <trkpt lat="50.83522" lon="1.58859">
        <ele>27.5</ele>
        <time>2015-04-07T15:44:50.000Z</time>
      </trkpt>
      <trkpt lat="50.83521" lon="1.5886">
        <ele>27.5</ele>
        <time>2015-04-07T15:44:51.000Z</time>
      </trkpt>
      <trkpt lat="50.8352" lon="1.5886">
        <ele>27.5</ele>
        <time>2015-04-07T15:44:52.000Z</time>
      </trkpt>
      <trkpt lat="50.83519" lon="1.58861">
        <ele>27.5</ele>
        <time>2015-04-07T15:44:53.000Z</time>
      </trkpt>
      <trkpt lat="50.83518" lon="1.58861">
        <ele>27.5</ele>
        <time>2015-04-07T15:44:54.000Z</time>
      </trkpt>
      <trkpt lat="50.83517" lon="1.58862">
        <ele>27.4</ele>
        <time>2015-04-07T15:44:55.000Z</time>
      </trkpt>
      <trkpt lat="50.83516" lon="1.58862">
        <ele>27.3</ele>
        <time>2015-04-07T15:44:56.000Z</time>
      </trkpt>
      <trkpt lat="50.83515" lon="1.58863">
        <ele>27.3</ele>
        <time>2015-04-07T15:44:57.000Z</time>
      </trkpt>
      <trkpt lat="50.83514" lon="1.58863">
        <ele>27.2</ele>
        <time>2015-04-07T15:44:58.000Z</time>
      </trkpt>
      <trkpt lat="50.83513" lon="1.58864">
        <ele>27.1</ele>
        <time>2015-04-07T15:44:59.000Z</time>
      </trkpt>
      <trkpt lat="50.83511" lon="1.58864">
        <ele>27</ele>
        <time>2015-04-07T15:45:00.000Z</time>
      </trkpt>
      <trkpt lat="50.8351" lon="1.58864">
        <ele>26.9</ele>
        <time>2015-04-07T15:45:01.000Z</time>
      </trkpt>
      <trkpt lat="50.83509" lon="1.58865">
        <ele>26.8</ele>
        <time>2015-04-07T15:45:02.000Z</time>
      </trkpt>
      <trkpt lat="50.83508" lon="1.58865">
        <ele>26.7</ele>
        <time>2015-04-07T15:45:03.000Z</time>
      </trkpt>
      <trkpt lat="50.83507" lon="1.58866">
        <ele>26.7</ele>
        <time>2015-04-07T15:45:04.000Z</time>
      </trkpt>
      <trkpt lat="50.83506" lon="1.58866">
        <ele>26.6</ele>
        <time>2015-04-07T15:45:05.000Z</time>
      </trkpt>
      <trkpt lat="50.83505" lon="1.58866">
        <ele>26.5</ele>
        <time>2015-04-07T15:45:06.000Z</time>
      </trkpt>
      <trkpt lat="50.83504" lon="1.58867">
        <ele>26.4</ele>
        <time>2015-04-07T15:45:07.000Z</time>
      </trkpt>
      <trkpt lat="50.83503" lon="1.58867">
        <ele>26.3</ele>
        <time>2015-04-07T15:45:08.000Z</time>
      </trkpt>
      <trkpt lat="50.83502" lon="1.58867">
        <ele>26.3</ele>
        <time>2015-04-07T15:45:09.000Z</time>
      </trkpt>
      <trkpt lat="50.83501" lon="1.58868">
        <ele>26.2</ele>
        <time>2015-04-07T15:45:10.000Z</time>
      </trkpt>
      <trkpt lat="50.83499" lon="1.58868">
        <ele>26.2</ele>
        <time>2015-04-07T15:45:11.000Z</time>
      </trkpt>
      <trkpt lat="50.83499" lon="1.58868">
        <ele>26.2</ele>
        <time>2015-04-07T15:45:12.000Z</time>
      </trkpt>
      <trkpt lat="50.83498" lon="1.58868">
        <ele>26.2</ele>
        <time>2015-04-07T15:45:13.000Z</time>
      </trkpt>
      <trkpt lat="50.83496" lon="1.58869">
        <ele>26.2</ele>
        <time>2015-04-07T15:45:14.000Z</time>
      </trkpt>
      <trkpt lat="50.83495" lon="1.58869">
        <ele>26.1</ele>
        <time>2015-04-07T15:45:15.000Z</time>
      </trkpt>
      <trkpt lat="50.83494" lon="1.58869">
        <ele>26.1</ele>
        <time>2015-04-07T15:45:16.000Z</time>
      </trkpt>
      <trkpt lat="50.83493" lon="1.58869">
        <ele>26.1</ele>
        <time>2015-04-07T15:45:17.000Z</time>
      </trkpt>
      <trkpt lat="50.83492" lon="1.5887">
        <ele>26.1</ele>
        <time>2015-04-07T15:45:18.000Z</time>
      </trkpt>
      <trkpt lat="50.83491" lon="1.5887">
        <ele>26.1</ele>
        <time>2015-04-07T15:45:19.000Z</time>
      </trkpt>
      <trkpt lat="50.8349" lon="1.5887">
        <ele>26.1</ele>
        <time>2015-04-07T15:45:20.000Z</time>
      </trkpt>
      <trkpt lat="50.83489" lon="1.5887">
        <ele>26.1</ele>
        <time>2015-04-07T15:45:21.000Z</time>
      </trkpt>
      <trkpt lat="50.83487" lon="1.58871">
        <ele>26.1</ele>
        <time>2015-04-07T15:45:22.000Z</time>
      </trkpt>
      <trkpt lat="50.83486" lon="1.58871">
        <ele>26.1</ele>
        <time>2015-04-07T15:45:23.000Z</time>
      </trkpt>
      <trkpt lat="50.83485" lon="1.58871">
        <ele>26.1</ele>
        <time>2015-04-07T15:45:24.000Z</time>
      </trkpt>
      <trkpt lat="50.83484" lon="1.58871">
        <ele>26.1</ele>
        <time>2015-04-07T15:45:25.000Z</time>
      </trkpt>
      <trkpt lat="50.83483" lon="1.58871">
        <ele>26</ele>
        <time>2015-04-07T15:45:26.000Z</time>
      </trkpt>
      <trkpt lat="50.83481" lon="1.58871">
        <ele>26</ele>
        <time>2015-04-07T15:45:27.000Z</time>
      </trkpt>
      <trkpt lat="50.8348" lon="1.58872">
        <ele>26</ele>
        <time>2015-04-07T15:45:28.000Z</time>
      </trkpt>
      <trkpt lat="50.83479" lon="1.58872">
        <ele>26</ele>
        <time>2015-04-07T15:45:29.000Z</time>
      </trkpt>
      <trkpt lat="50.83478" lon="1.58872">
        <ele>25.9</ele>
        <time>2015-04-07T15:45:30.000Z</time>
      </trkpt>
      <trkpt lat="50.83477" lon="1.58872">
        <ele>25.9</ele>
        <time>2015-04-07T15:45:31.000Z</time>
      </trkpt>
      <trkpt lat="50.83475" lon="1.58872">
        <ele>25.8</ele>
        <time>2015-04-07T15:45:32.000Z</time>
      </trkpt>
      <trkpt lat="50.83474" lon="1.58872">
        <ele>25.8</ele>
        <time>2015-04-07T15:45:33.000Z</time>
      </trkpt>
      <trkpt lat="50.83473" lon="1.58872">
        <ele>25.7</ele>
        <time>2015-04-07T15:45:34.000Z</time>
      </trkpt>
      <trkpt lat="50.83472" lon="1.58872">
        <ele>25.8</ele>
        <time>2015-04-07T15:45:35.000Z</time>
      </trkpt>
      <trkpt lat="50.83471" lon="1.58872">
        <ele>25.9</ele>
        <time>2015-04-07T15:45:36.000Z</time>
      </trkpt>
      <trkpt lat="50.8347" lon="1.58872">
        <ele>26.1</ele>
        <time>2015-04-07T15:45:37.000Z</time>
      </trkpt>
      <trkpt lat="50.83468" lon="1.58872">
        <ele>26.2</ele>
        <time>2015-04-07T15:45:38.000Z</time>
      </trkpt>
      <trkpt lat="50.83467" lon="1.58871">
        <ele>26.4</ele>
        <time>2015-04-07T15:45:39.000Z</time>
      </trkpt>
      <trkpt lat="50.83466" lon="1.58871">
        <ele>26.5</ele>
        <time>2015-04-07T15:45:40.000Z</time>
      </trkpt>
      <trkpt lat="50.83465" lon="1.58871">
        <ele>26.6</ele>
        <time>2015-04-07T15:45:41.000Z</time>
      </trkpt>
      <trkpt lat="50.83464" lon="1.58871">
        <ele>26.8</ele>
        <time>2015-04-07T15:45:42.000Z</time>
      </trkpt>
      <trkpt lat="50.83463" lon="1.58871">
        <ele>26.9</ele>
        <time>2015-04-07T15:45:43.000Z</time>
      </trkpt>
      <trkpt lat="50.83461" lon="1.58871">
        <ele>27.1</ele>
        <time>2015-04-07T15:45:44.000Z</time>
      </trkpt>
      <trkpt lat="50.8346" lon="1.5887">
        <ele>27.2</ele>
        <time>2015-04-07T15:45:45.000Z</time>
      </trkpt>
      <trkpt lat="50.83459" lon="1.5887">
        <ele>27.3</ele>
        <time>2015-04-07T15:45:46.000Z</time>
      </trkpt>
      <trkpt lat="50.83458" lon="1.5887">
        <ele>27.5</ele>
        <time>2015-04-07T15:45:47.000Z</time>
      </trkpt>
      <trkpt lat="50.83457" lon="1.5887">
        <ele>27.7</ele>
        <time>2015-04-07T15:45:48.000Z</time>
      </trkpt>
      <trkpt lat="50.83456" lon="1.5887">
        <ele>27.8</ele>
        <time>2015-04-07T15:45:49.000Z</time>
      </trkpt>
      <trkpt lat="50.83455" lon="1.5887">
        <ele>28</ele>
        <time>2015-04-07T15:45:50.000Z</time>
      </trkpt>
      <trkpt lat="50.83454" lon="1.5887">
        <ele>28.1</ele>
        <time>2015-04-07T15:45:51.000Z</time>
      </trkpt>
      <trkpt lat="50.83453" lon="1.5887">
        <ele>28.2</ele>
        <time>2015-04-07T15:45:52.000Z</time>
      </trkpt>
      <trkpt lat="50.83453" lon="1.5887">
        <ele>28.4</ele>
        <time>2015-04-07T15:45:53.000Z</time>
      </trkpt>
      <trkpt lat="50.83452" lon="1.5887">
        <ele>28.5</ele>
        <time>2015-04-07T15:45:54.000Z</time>
      </trkpt>
      <trkpt lat="50.83451" lon="1.5887">
        <ele>28.5</ele>
        <time>2015-04-07T15:45:55.000Z</time>
      </trkpt>
      <trkpt lat="50.83449" lon="1.58869">
        <ele>28.8</ele>
        <time>2015-04-07T15:45:56.000Z</time>
      </trkpt>
      <trkpt lat="50.83449" lon="1.58869">
        <ele>28.8</ele>
        <time>2015-04-07T15:45:57.000Z</time>
      </trkpt>
      <trkpt lat="50.83449" lon="1.58869">
        <ele>28.8</ele>
        <time>2015-04-07T15:45:58.000Z</time>
      </trkpt>
      <trkpt lat="50.83448" lon="1.58869">
        <ele>29</ele>
        <time>2015-04-07T15:45:59.000Z</time>
      </trkpt>
      <trkpt lat="50.83448" lon="1.58869">
        <ele>29</ele>
        <time>2015-04-07T15:46:00.000Z</time>
      </trkpt>
      <trkpt lat="50.83448" lon="1.58869">
        <ele>29.1</ele>
        <time>2015-04-07T15:46:01.000Z</time>
      </trkpt>
      <trkpt lat="50.83447" lon="1.58869">
        <ele>29.2</ele>
        <time>2015-04-07T15:46:02.000Z</time>
      </trkpt>
      <trkpt lat="50.83446" lon="1.58869">
        <ele>29.3</ele>
        <time>2015-04-07T15:46:03.000Z</time>
      </trkpt>
      <trkpt lat="50.83446" lon="1.58869">
        <ele>29.4</ele>
        <time>2015-04-07T15:46:04.000Z</time>
      </trkpt>
      <trkpt lat="50.83445" lon="1.58869">
        <ele>29.5</ele>
        <time>2015-04-07T15:46:05.000Z</time>
      </trkpt>
      <trkpt lat="50.83444" lon="1.58869">
        <ele>29.6</ele>
        <time>2015-04-07T15:46:06.000Z</time>
      </trkpt>
      <trkpt lat="50.83443" lon="1.58869">
        <ele>29.6</ele>
        <time>2015-04-07T15:46:07.000Z</time>
      </trkpt>
      <trkpt lat="50.83442" lon="1.58869">
        <ele>29.6</ele>
        <time>2015-04-07T15:46:08.000Z</time>
      </trkpt>
      <trkpt lat="50.83441" lon="1.58869">
        <ele>29.6</ele>
        <time>2015-04-07T15:46:09.000Z</time>
      </trkpt>
      <trkpt lat="50.83439" lon="1.58868">
        <ele>29.6</ele>
        <time>2015-04-07T15:46:10.000Z</time>
      </trkpt>
      <trkpt lat="50.83438" lon="1.58868">
        <ele>29.6</ele>
        <time>2015-04-07T15:46:11.000Z</time>
      </trkpt>
      <trkpt lat="50.83437" lon="1.58869">
        <ele>29.7</ele>
        <time>2015-04-07T15:46:12.000Z</time>
      </trkpt>
      <trkpt lat="50.83436" lon="1.58869">
        <ele>29.7</ele>
        <time>2015-04-07T15:46:13.000Z</time>
      </trkpt>
      <trkpt lat="50.83435" lon="1.58869">
        <ele>29.7</ele>
        <time>2015-04-07T15:46:14.000Z</time>
      </trkpt>
      <trkpt lat="50.83433" lon="1.58869">
        <ele>29.7</ele>
        <time>2015-04-07T15:46:15.000Z</time>
      </trkpt>
      <trkpt lat="50.83432" lon="1.58869">
        <ele>29.8</ele>
        <time>2015-04-07T15:46:16.000Z</time>
      </trkpt>
      <trkpt lat="50.83431" lon="1.58869">
        <ele>29.8</ele>
        <time>2015-04-07T15:46:17.000Z</time>
      </trkpt>
      <trkpt lat="50.8343" lon="1.58869">
        <ele>29.8</ele>
        <time>2015-04-07T15:46:18.000Z</time>
      </trkpt>
      <trkpt lat="50.83428" lon="1.58869">
        <ele>29.8</ele>
        <time>2015-04-07T15:46:19.000Z</time>
      </trkpt>
      <trkpt lat="50.83427" lon="1.58869">
        <ele>29.9</ele>
        <time>2015-04-07T15:46:20.000Z</time>
      </trkpt>
      <trkpt lat="50.83426" lon="1.58869">
        <ele>29.9</ele>
        <time>2015-04-07T15:46:21.000Z</time>
      </trkpt>
      <trkpt lat="50.83424" lon="1.58869">
        <ele>29.9</ele>
        <time>2015-04-07T15:46:22.000Z</time>
      </trkpt>
      <trkpt lat="50.83423" lon="1.58869">
        <ele>29.9</ele>
        <time>2015-04-07T15:46:23.000Z</time>
      </trkpt>
      <trkpt lat="50.83422" lon="1.58869">
        <ele>29.9</ele>
        <time>2015-04-07T15:46:24.000Z</time>
      </trkpt>
      <trkpt lat="50.83421" lon="1.58868">
        <ele>29.9</ele>
        <time>2015-04-07T15:46:25.000Z</time>
      </trkpt>
      <trkpt lat="50.8342" lon="1.58868">
        <ele>29.9</ele>
        <time>2015-04-07T15:46:26.000Z</time>
      </trkpt>
      <trkpt lat="50.83419" lon="1.58867">
        <ele>30</ele>
        <time>2015-04-07T15:46:27.000Z</time>
      </trkpt>
      <trkpt lat="50.83418" lon="1.58867">
        <ele>30</ele>
        <time>2015-04-07T15:46:28.000Z</time>
      </trkpt>
      <trkpt lat="50.83417" lon="1.58866">
        <ele>30</ele>
        <time>2015-04-07T15:46:29.000Z</time>
      </trkpt>
      <trkpt lat="50.83416" lon="1.58865">
        <ele>29.7</ele>
        <time>2015-04-07T15:46:30.000Z</time>
      </trkpt>
      <trkpt lat="50.83415" lon="1.58865">
        <ele>29.5</ele>
        <time>2015-04-07T15:46:31.000Z</time>
      </trkpt>
      <trkpt lat="50.83414" lon="1.58864">
        <ele>29.2</ele>
        <time>2015-04-07T15:46:32.000Z</time>
      </trkpt>
      <trkpt lat="50.83413" lon="1.58863">
        <ele>28.9</ele>
        <time>2015-04-07T15:46:33.000Z</time>
      </trkpt>
      <trkpt lat="50.83412" lon="1.58863">
        <ele>28.6</ele>
        <time>2015-04-07T15:46:34.000Z</time>
      </trkpt>
      <trkpt lat="50.83411" lon="1.58863">
        <ele>28.3</ele>
        <time>2015-04-07T15:46:35.000Z</time>
      </trkpt>
      <trkpt lat="50.8341" lon="1.58862">
        <ele>28.1</ele>
        <time>2015-04-07T15:46:36.000Z</time>
      </trkpt>
      <trkpt lat="50.83409" lon="1.58862">
        <ele>27.9</ele>
        <time>2015-04-07T15:46:37.000Z</time>
      </trkpt>
      <trkpt lat="50.83408" lon="1.58861">
        <ele>27.4</ele>
        <time>2015-04-07T15:46:38.000Z</time>
      </trkpt>
      <trkpt lat="50.83408" lon="1.58861">
        <ele>27.4</ele>
        <time>2015-04-07T15:46:39.000Z</time>
      </trkpt>
      <trkpt lat="50.83408" lon="1.58861">
        <ele>27.4</ele>
        <time>2015-04-07T15:46:40.000Z</time>
      </trkpt>
      <trkpt lat="50.83408" lon="1.58861">
        <ele>27.4</ele>
        <time>2015-04-07T15:46:41.000Z</time>
      </trkpt>
      <trkpt lat="50.83408" lon="1.58861">
        <ele>27.4</ele>
        <time>2015-04-07T15:46:42.000Z</time>
      </trkpt>
      <trkpt lat="50.83408" lon="1.58861">
        <ele>27.4</ele>
        <time>2015-04-07T15:46:43.000Z</time>
      </trkpt>
      <trkpt lat="50.83408" lon="1.58861">
        <ele>27.4</ele>
        <time>2015-04-07T15:46:44.000Z</time>
      </trkpt>
      <trkpt lat="50.83408" lon="1.58862">
        <ele>27.4</ele>
        <time>2015-04-07T15:46:45.000Z</time>
      </trkpt>
      <trkpt lat="50.83407" lon="1.58862">
        <ele>27.4</ele>
        <time>2015-04-07T15:46:46.000Z</time>
      </trkpt>
      <trkpt lat="50.83407" lon="1.58862">
        <ele>27.3</ele>
        <time>2015-04-07T15:46:47.000Z</time>
      </trkpt>
      <trkpt lat="50.83407" lon="1.58863">
        <ele>27.2</ele>
        <time>2015-04-07T15:46:48.000Z</time>
      </trkpt>
      <trkpt lat="50.83406" lon="1.58863">
        <ele>27.2</ele>
        <time>2015-04-07T15:46:49.000Z</time>
      </trkpt>
      <trkpt lat="50.83405" lon="1.58864">
        <ele>27.1</ele>
        <time>2015-04-07T15:46:50.000Z</time>
      </trkpt>
      <trkpt lat="50.83405" lon="1.58865">
        <ele>27</ele>
        <time>2015-04-07T15:46:51.000Z</time>
      </trkpt>
      <trkpt lat="50.83404" lon="1.58865">
        <ele>26.9</ele>
        <time>2015-04-07T15:46:52.000Z</time>
      </trkpt>
      <trkpt lat="50.83403" lon="1.58866">
        <ele>26.8</ele>
        <time>2015-04-07T15:46:53.000Z</time>
      </trkpt>
      <trkpt lat="50.83402" lon="1.58867">
        <ele>26.7</ele>
        <time>2015-04-07T15:46:54.000Z</time>
      </trkpt>
      <trkpt lat="50.83401" lon="1.58868">
        <ele>26.6</ele>
        <time>2015-04-07T15:46:55.000Z</time>
      </trkpt>
      <trkpt lat="50.83401" lon="1.58868">
        <ele>26.6</ele>
        <time>2015-04-07T15:46:56.000Z</time>
      </trkpt>
      <trkpt lat="50.834" lon="1.58869">
        <ele>26.5</ele>
        <time>2015-04-07T15:46:57.000Z</time>
      </trkpt>
      <trkpt lat="50.83399" lon="1.5887">
        <ele>26.5</ele>
        <time>2015-04-07T15:46:58.000Z</time>
      </trkpt>
      <trkpt lat="50.83398" lon="1.58871">
        <ele>26.4</ele>
        <time>2015-04-07T15:46:59.000Z</time>
      </trkpt>
      <trkpt lat="50.83397" lon="1.58872">
        <ele>26.4</ele>
        <time>2015-04-07T15:47:00.000Z</time>
      </trkpt>
      <trkpt lat="50.83396" lon="1.58873">
        <ele>26.5</ele>
        <time>2015-04-07T15:47:01.000Z</time>
      </trkpt>
      <trkpt lat="50.83395" lon="1.58874">
        <ele>26.5</ele>
        <time>2015-04-07T15:47:02.000Z</time>
      </trkpt>
      <trkpt lat="50.83394" lon="1.58874">
        <ele>26.6</ele>
        <time>2015-04-07T15:47:03.000Z</time>
      </trkpt>
      <trkpt lat="50.83393" lon="1.58875">
        <ele>26.6</ele>
        <time>2015-04-07T15:47:04.000Z</time>
      </trkpt>
      <trkpt lat="50.83392" lon="1.58876">
        <ele>26.7</ele>
        <time>2015-04-07T15:47:05.000Z</time>
      </trkpt>
      <trkpt lat="50.83391" lon="1.58877">
        <ele>26.8</ele>
        <time>2015-04-07T15:47:06.000Z</time>
      </trkpt>
      <trkpt lat="50.8339" lon="1.58878">
        <ele>26.9</ele>
        <time>2015-04-07T15:47:07.000Z</time>
      </trkpt>
      <trkpt lat="50.83389" lon="1.58879">
        <ele>27.1</ele>
        <time>2015-04-07T15:47:08.000Z</time>
      </trkpt>
      <trkpt lat="50.83388" lon="1.5888">
        <ele>27.2</ele>
        <time>2015-04-07T15:47:09.000Z</time>
      </trkpt>
      <trkpt lat="50.83387" lon="1.58881">
        <ele>27.4</ele>
        <time>2015-04-07T15:47:10.000Z</time>
      </trkpt>
      <trkpt lat="50.83386" lon="1.58881">
        <ele>27.5</ele>
        <time>2015-04-07T15:47:11.000Z</time>
      </trkpt>
      <trkpt lat="50.83385" lon="1.58882">
        <ele>27.6</ele>
        <time>2015-04-07T15:47:12.000Z</time>
      </trkpt>
      <trkpt lat="50.83384" lon="1.58883">
        <ele>27.7</ele>
        <time>2015-04-07T15:47:13.000Z</time>
      </trkpt>
      <trkpt lat="50.83383" lon="1.58884">
        <ele>27.8</ele>
        <time>2015-04-07T15:47:14.000Z</time>
      </trkpt>
      <trkpt lat="50.83382" lon="1.58884">
        <ele>27.9</ele>
        <time>2015-04-07T15:47:15.000Z</time>
      </trkpt>
      <trkpt lat="50.83381" lon="1.58885">
        <ele>28</ele>
        <time>2015-04-07T15:47:16.000Z</time>
      </trkpt>
      <trkpt lat="50.8338" lon="1.58886">
        <ele>28.1</ele>
        <time>2015-04-07T15:47:17.000Z</time>
      </trkpt>
      <trkpt lat="50.83378" lon="1.58887">
        <ele>28.2</ele>
        <time>2015-04-07T15:47:18.000Z</time>
      </trkpt>
      <trkpt lat="50.83377" lon="1.58887">
        <ele>28.2</ele>
        <time>2015-04-07T15:47:19.000Z</time>
      </trkpt>
      <trkpt lat="50.83376" lon="1.58888">
        <ele>28.3</ele>
        <time>2015-04-07T15:47:20.000Z</time>
      </trkpt>
      <trkpt lat="50.83375" lon="1.58889">
        <ele>28.5</ele>
        <time>2015-04-07T15:47:21.000Z</time>
      </trkpt>
      <trkpt lat="50.83373" lon="1.5889">
        <ele>28.4</ele>
        <time>2015-04-07T15:47:22.000Z</time>
      </trkpt>
      <trkpt lat="50.83372" lon="1.58891">
        <ele>28.3</ele>
        <time>2015-04-07T15:47:23.000Z</time>
      </trkpt>
      <trkpt lat="50.83371" lon="1.58891">
        <ele>28.2</ele>
        <time>2015-04-07T15:47:24.000Z</time>
      </trkpt>
      <trkpt lat="50.8337" lon="1.58892">
        <ele>28.2</ele>
        <time>2015-04-07T15:47:25.000Z</time>
      </trkpt>
      <trkpt lat="50.83369" lon="1.58893">
        <ele>28.1</ele>
        <time>2015-04-07T15:47:26.000Z</time>
      </trkpt>
      <trkpt lat="50.83367" lon="1.58894">
        <ele>28.1</ele>
        <time>2015-04-07T15:47:27.000Z</time>
      </trkpt>
      <trkpt lat="50.83366" lon="1.58895">
        <ele>28.1</ele>
        <time>2015-04-07T15:47:28.000Z</time>
      </trkpt>
      <trkpt lat="50.83365" lon="1.58896">
        <ele>28.1</ele>
        <time>2015-04-07T15:47:29.000Z</time>
      </trkpt>
      <trkpt lat="50.83364" lon="1.58897">
        <ele>28.1</ele>
        <time>2015-04-07T15:47:30.000Z</time>
      </trkpt>
      <trkpt lat="50.83363" lon="1.58897">
        <ele>28</ele>
        <time>2015-04-07T15:47:31.000Z</time>
      </trkpt>
      <trkpt lat="50.83362" lon="1.58898">
        <ele>28.1</ele>
        <time>2015-04-07T15:47:32.000Z</time>
      </trkpt>
      <trkpt lat="50.8336" lon="1.58899">
        <ele>28</ele>
        <time>2015-04-07T15:47:33.000Z</time>
      </trkpt>
      <trkpt lat="50.83359" lon="1.589">
        <ele>27.9</ele>
        <time>2015-04-07T15:47:34.000Z</time>
      </trkpt>
      <trkpt lat="50.83358" lon="1.58901">
        <ele>27.8</ele>
        <time>2015-04-07T15:47:35.000Z</time>
      </trkpt>
      <trkpt lat="50.83357" lon="1.58902">
        <ele>27.8</ele>
        <time>2015-04-07T15:47:36.000Z</time>
      </trkpt>
      <trkpt lat="50.83356" lon="1.58903">
        <ele>27.7</ele>
        <time>2015-04-07T15:47:37.000Z</time>
      </trkpt>
      <trkpt lat="50.83355" lon="1.58904">
        <ele>27.7</ele>
        <time>2015-04-07T15:47:38.000Z</time>
      </trkpt>
      <trkpt lat="50.83354" lon="1.58904">
        <ele>27.7</ele>
        <time>2015-04-07T15:47:39.000Z</time>
      </trkpt>
      <trkpt lat="50.83352" lon="1.58905">
        <ele>27.7</ele>
        <time>2015-04-07T15:47:40.000Z</time>
      </trkpt>
      <trkpt lat="50.83351" lon="1.58906">
        <ele>27.8</ele>
        <time>2015-04-07T15:47:41.000Z</time>
      </trkpt>
      <trkpt lat="50.8335" lon="1.58907">
        <ele>27.8</ele>
        <time>2015-04-07T15:47:42.000Z</time>
      </trkpt>
      <trkpt lat="50.83349" lon="1.58908">
        <ele>27.9</ele>
        <time>2015-04-07T15:47:43.000Z</time>
      </trkpt>
      <trkpt lat="50.83348" lon="1.58908">
        <ele>28</ele>
        <time>2015-04-07T15:47:44.000Z</time>
      </trkpt>
      <trkpt lat="50.83347" lon="1.58909">
        <ele>28.1</ele>
        <time>2015-04-07T15:47:45.000Z</time>
      </trkpt>
      <trkpt lat="50.83346" lon="1.5891">
        <ele>28.3</ele>
        <time>2015-04-07T15:47:46.000Z</time>
      </trkpt>
      <trkpt lat="50.83345" lon="1.58911">
        <ele>28.4</ele>
        <time>2015-04-07T15:47:47.000Z</time>
      </trkpt>
      <trkpt lat="50.83344" lon="1.58912">
        <ele>28.6</ele>
        <time>2015-04-07T15:47:48.000Z</time>
      </trkpt>
      <trkpt lat="50.83342" lon="1.58913">
        <ele>28.8</ele>
        <time>2015-04-07T15:47:49.000Z</time>
      </trkpt>
      <trkpt lat="50.83341" lon="1.58914">
        <ele>29.1</ele>
        <time>2015-04-07T15:47:50.000Z</time>
      </trkpt>
      <trkpt lat="50.8334" lon="1.58915">
        <ele>29.4</ele>
        <time>2015-04-07T15:47:51.000Z</time>
      </trkpt>
      <trkpt lat="50.83339" lon="1.58916">
        <ele>29.7</ele>
        <time>2015-04-07T15:47:52.000Z</time>
      </trkpt>
      <trkpt lat="50.83338" lon="1.58917">
        <ele>30</ele>
        <time>2015-04-07T15:47:53.000Z</time>
      </trkpt>
      <trkpt lat="50.83337" lon="1.58917">
        <ele>30</ele>
        <time>2015-04-07T15:47:54.000Z</time>
      </trkpt>
      <trkpt lat="50.83335" lon="1.58918">
        <ele>30.1</ele>
        <time>2015-04-07T15:47:55.000Z</time>
      </trkpt>
      <trkpt lat="50.83334" lon="1.58919">
        <ele>30.1</ele>
        <time>2015-04-07T15:47:56.000Z</time>
      </trkpt>
      <trkpt lat="50.83333" lon="1.58919">
        <ele>30</ele>
        <time>2015-04-07T15:47:57.000Z</time>
      </trkpt>
      <trkpt lat="50.83332" lon="1.5892">
        <ele>29.6</ele>
        <time>2015-04-07T15:47:58.000Z</time>
      </trkpt>
      <trkpt lat="50.83331" lon="1.58921">
        <ele>29.2</ele>
        <time>2015-04-07T15:47:59.000Z</time>
      </trkpt>
      <trkpt lat="50.83329" lon="1.58922">
        <ele>28.9</ele>
        <time>2015-04-07T15:48:00.000Z</time>
      </trkpt>
      <trkpt lat="50.83328" lon="1.58922">
        <ele>28.6</ele>
        <time>2015-04-07T15:48:01.000Z</time>
      </trkpt>
      <trkpt lat="50.83327" lon="1.58923">
        <ele>28.3</ele>
        <time>2015-04-07T15:48:02.000Z</time>
      </trkpt>
      <trkpt lat="50.83326" lon="1.58924">
        <ele>28.1</ele>
        <time>2015-04-07T15:48:03.000Z</time>
      </trkpt>
      <trkpt lat="50.83325" lon="1.58925">
        <ele>27.8</ele>
        <time>2015-04-07T15:48:04.000Z</time>
      </trkpt>
      <trkpt lat="50.83323" lon="1.58925">
        <ele>27.6</ele>
        <time>2015-04-07T15:48:05.000Z</time>
      </trkpt>
      <trkpt lat="50.83322" lon="1.58926">
        <ele>27.4</ele>
        <time>2015-04-07T15:48:06.000Z</time>
      </trkpt>
      <trkpt lat="50.83321" lon="1.58927">
        <ele>27.3</ele>
        <time>2015-04-07T15:48:07.000Z</time>
      </trkpt>
      <trkpt lat="50.8332" lon="1.58927">
        <ele>27.1</ele>
        <time>2015-04-07T15:48:08.000Z</time>
      </trkpt>
      <trkpt lat="50.83319" lon="1.58928">
        <ele>27</ele>
        <time>2015-04-07T15:48:09.000Z</time>
      </trkpt>
      <trkpt lat="50.83317" lon="1.58929">
        <ele>26.8</ele>
        <time>2015-04-07T15:48:10.000Z</time>
      </trkpt>
      <trkpt lat="50.83316" lon="1.58929">
        <ele>26.7</ele>
        <time>2015-04-07T15:48:11.000Z</time>
      </trkpt>
      <trkpt lat="50.83315" lon="1.5893">
        <ele>26.7</ele>
        <time>2015-04-07T15:48:12.000Z</time>
      </trkpt>
      <trkpt lat="50.83314" lon="1.58931">
        <ele>26.6</ele>
        <time>2015-04-07T15:48:13.000Z</time>
      </trkpt>
      <trkpt lat="50.83313" lon="1.58931">
        <ele>26.6</ele>
        <time>2015-04-07T15:48:14.000Z</time>
      </trkpt>
      <trkpt lat="50.83312" lon="1.58932">
        <ele>26.6</ele>
        <time>2015-04-07T15:48:15.000Z</time>
      </trkpt>
      <trkpt lat="50.8331" lon="1.58932">
        <ele>26.6</ele>
        <time>2015-04-07T15:48:16.000Z</time>
      </trkpt>
      <trkpt lat="50.83309" lon="1.58933">
        <ele>26.6</ele>
        <time>2015-04-07T15:48:17.000Z</time>
      </trkpt>
      <trkpt lat="50.83308" lon="1.58933">
        <ele>26.6</ele>
        <time>2015-04-07T15:48:18.000Z</time>
      </trkpt>
      <trkpt lat="50.83307" lon="1.58934">
        <ele>26.7</ele>
        <time>2015-04-07T15:48:19.000Z</time>
      </trkpt>
      <trkpt lat="50.83306" lon="1.58934">
        <ele>26.8</ele>
        <time>2015-04-07T15:48:20.000Z</time>
      </trkpt>
      <trkpt lat="50.83305" lon="1.58935">
        <ele>26.9</ele>
        <time>2015-04-07T15:48:21.000Z</time>
      </trkpt>
      <trkpt lat="50.83304" lon="1.58936">
        <ele>27</ele>
        <time>2015-04-07T15:48:22.000Z</time>
      </trkpt>
      <trkpt lat="50.83303" lon="1.58936">
        <ele>27.1</ele>
        <time>2015-04-07T15:48:23.000Z</time>
      </trkpt>
      <trkpt lat="50.83302" lon="1.58937">
        <ele>27.2</ele>
        <time>2015-04-07T15:48:24.000Z</time>
      </trkpt>
      <trkpt lat="50.833" lon="1.58937">
        <ele>27.3</ele>
        <time>2015-04-07T15:48:25.000Z</time>
      </trkpt>
      <trkpt lat="50.83299" lon="1.58938">
        <ele>27.4</ele>
        <time>2015-04-07T15:48:26.000Z</time>
      </trkpt>
      <trkpt lat="50.83298" lon="1.58938">
        <ele>27.4</ele>
        <time>2015-04-07T15:48:27.000Z</time>
      </trkpt>
      <trkpt lat="50.83297" lon="1.58939">
        <ele>27.5</ele>
        <time>2015-04-07T15:48:28.000Z</time>
      </trkpt>
      <trkpt lat="50.83296" lon="1.58939">
        <ele>27.6</ele>
        <time>2015-04-07T15:48:29.000Z</time>
      </trkpt>
      <trkpt lat="50.83295" lon="1.5894">
        <ele>27.7</ele>
        <time>2015-04-07T15:48:30.000Z</time>
      </trkpt>
      <trkpt lat="50.83294" lon="1.58941">
        <ele>27.7</ele>
        <time>2015-04-07T15:48:31.000Z</time>
      </trkpt>
      <trkpt lat="50.83293" lon="1.58941">
        <ele>27.8</ele>
        <time>2015-04-07T15:48:32.000Z</time>
      </trkpt>
      <trkpt lat="50.83292" lon="1.58942">
        <ele>27.9</ele>
        <time>2015-04-07T15:48:33.000Z</time>
      </trkpt>
      <trkpt lat="50.83291" lon="1.58942">
        <ele>28</ele>
        <time>2015-04-07T15:48:34.000Z</time>
      </trkpt>
      <trkpt lat="50.8329" lon="1.58943">
        <ele>28.1</ele>
        <time>2015-04-07T15:48:35.000Z</time>
      </trkpt>
      <trkpt lat="50.83288" lon="1.58943">
        <ele>28.2</ele>
        <time>2015-04-07T15:48:36.000Z</time>
      </trkpt>
      <trkpt lat="50.83287" lon="1.58944">
        <ele>28.2</ele>
        <time>2015-04-07T15:48:37.000Z</time>
      </trkpt>
      <trkpt lat="50.83286" lon="1.58944">
        <ele>28.2</ele>
        <time>2015-04-07T15:48:38.000Z</time>
      </trkpt>
      <trkpt lat="50.83286" lon="1.58945">
        <ele>28.1</ele>
        <time>2015-04-07T15:48:39.000Z</time>
      </trkpt>
      <trkpt lat="50.83285" lon="1.58945">
        <ele>28.1</ele>
        <time>2015-04-07T15:48:40.000Z</time>
      </trkpt>
      <trkpt lat="50.83284" lon="1.58945">
        <ele>28</ele>
        <time>2015-04-07T15:48:41.000Z</time>
      </trkpt>
      <trkpt lat="50.83283" lon="1.58946">
        <ele>27.9</ele>
        <time>2015-04-07T15:48:42.000Z</time>
      </trkpt>
      <trkpt lat="50.83282" lon="1.58946">
        <ele>27.8</ele>
        <time>2015-04-07T15:48:43.000Z</time>
      </trkpt>
      <trkpt lat="50.83282" lon="1.58946">
        <ele>27.8</ele>
        <time>2015-04-07T15:48:44.000Z</time>
      </trkpt>
      <trkpt lat="50.83281" lon="1.58947">
        <ele>27.7</ele>
        <time>2015-04-07T15:48:45.000Z</time>
      </trkpt>
      <trkpt lat="50.8328" lon="1.58947">
        <ele>27.6</ele>
        <time>2015-04-07T15:48:46.000Z</time>
      </trkpt>
      <trkpt lat="50.83279" lon="1.58947">
        <ele>27.6</ele>
        <time>2015-04-07T15:48:47.000Z</time>
      </trkpt>
      <trkpt lat="50.83278" lon="1.58947">
        <ele>27.5</ele>
        <time>2015-04-07T15:48:48.000Z</time>
      </trkpt>
      <trkpt lat="50.83278" lon="1.58948">
        <ele>27.4</ele>
        <time>2015-04-07T15:48:49.000Z</time>
      </trkpt>
      <trkpt lat="50.83275" lon="1.58948">
        <ele>27.2</ele>
        <time>2015-04-07T15:48:50.000Z</time>
      </trkpt>
      <trkpt lat="50.83275" lon="1.58948">
        <ele>27.2</ele>
        <time>2015-04-07T15:48:51.000Z</time>
      </trkpt>
      <trkpt lat="50.83275" lon="1.58948">
        <ele>27.2</ele>
        <time>2015-04-07T15:48:52.000Z</time>
      </trkpt>
      <trkpt lat="50.83276" lon="1.58948">
        <ele>27.2</ele>
        <time>2015-04-07T15:48:53.000Z</time>
      </trkpt>
      <trkpt lat="50.83276" lon="1.58948">
        <ele>27.2</ele>
        <time>2015-04-07T15:48:54.000Z</time>
      </trkpt>
      <trkpt lat="50.83275" lon="1.58948">
        <ele>27.2</ele>
        <time>2015-04-07T15:48:55.000Z</time>
      </trkpt>
      <trkpt lat="50.83275" lon="1.58948">
        <ele>27.2</ele>
        <time>2015-04-07T15:48:56.000Z</time>
      </trkpt>
      <trkpt lat="50.83275" lon="1.58948">
        <ele>27.2</ele>
        <time>2015-04-07T15:48:57.000Z</time>
      </trkpt>
      <trkpt lat="50.83274" lon="1.58948">
        <ele>27.2</ele>
        <time>2015-04-07T15:48:58.000Z</time>
      </trkpt>
      <trkpt lat="50.83274" lon="1.58948">
        <ele>27.2</ele>
        <time>2015-04-07T15:48:59.000Z</time>
      </trkpt>
      <trkpt lat="50.83273" lon="1.58949">
        <ele>27.1</ele>
        <time>2015-04-07T15:49:00.000Z</time>
      </trkpt>
      <trkpt lat="50.83272" lon="1.58949">
        <ele>27.1</ele>
        <time>2015-04-07T15:49:01.000Z</time>
      </trkpt>
      <trkpt lat="50.83271" lon="1.5895">
        <ele>27.1</ele>
        <time>2015-04-07T15:49:02.000Z</time>
      </trkpt>
      <trkpt lat="50.8327" lon="1.5895">
        <ele>27.1</ele>
        <time>2015-04-07T15:49:03.000Z</time>
      </trkpt>
      <trkpt lat="50.83269" lon="1.5895">
        <ele>27</ele>
        <time>2015-04-07T15:49:04.000Z</time>
      </trkpt>
      <trkpt lat="50.83268" lon="1.58951">
        <ele>27</ele>
        <time>2015-04-07T15:49:05.000Z</time>
      </trkpt>
      <trkpt lat="50.83266" lon="1.58951">
        <ele>26.9</ele>
        <time>2015-04-07T15:49:06.000Z</time>
      </trkpt>
      <trkpt lat="50.83265" lon="1.58952">
        <ele>26.9</ele>
        <time>2015-04-07T15:49:07.000Z</time>
      </trkpt>
      <trkpt lat="50.83264" lon="1.58952">
        <ele>26.8</ele>
        <time>2015-04-07T15:49:08.000Z</time>
      </trkpt>
      <trkpt lat="50.83262" lon="1.58952">
        <ele>26.7</ele>
        <time>2015-04-07T15:49:09.000Z</time>
      </trkpt>
      <trkpt lat="50.83261" lon="1.58952">
        <ele>26.7</ele>
        <time>2015-04-07T15:49:10.000Z</time>
      </trkpt>
      <trkpt lat="50.8326" lon="1.58953">
        <ele>26.6</ele>
        <time>2015-04-07T15:49:11.000Z</time>
      </trkpt>
      <trkpt lat="50.83259" lon="1.58953">
        <ele>26.6</ele>
        <time>2015-04-07T15:49:12.000Z</time>
      </trkpt>
      <trkpt lat="50.83257" lon="1.58953">
        <ele>26.5</ele>
        <time>2015-04-07T15:49:13.000Z</time>
      </trkpt>
      <trkpt lat="50.83256" lon="1.58953">
        <ele>26.5</ele>
        <time>2015-04-07T15:49:14.000Z</time>
      </trkpt>
      <trkpt lat="50.83255" lon="1.58954">
        <ele>26.4</ele>
        <time>2015-04-07T15:49:15.000Z</time>
      </trkpt>
      <trkpt lat="50.83254" lon="1.58954">
        <ele>26.4</ele>
        <time>2015-04-07T15:49:16.000Z</time>
      </trkpt>
      <trkpt lat="50.83253" lon="1.58954">
        <ele>26.4</ele>
        <time>2015-04-07T15:49:17.000Z</time>
      </trkpt>
      <trkpt lat="50.83251" lon="1.58955">
        <ele>26.3</ele>
        <time>2015-04-07T15:49:18.000Z</time>
      </trkpt>
      <trkpt lat="50.8325" lon="1.58955">
        <ele>26.3</ele>
        <time>2015-04-07T15:49:19.000Z</time>
      </trkpt>
      <trkpt lat="50.83249" lon="1.58956">
        <ele>26.2</ele>
        <time>2015-04-07T15:49:20.000Z</time>
      </trkpt>
      <trkpt lat="50.83247" lon="1.58956">
        <ele>26.1</ele>
        <time>2015-04-07T15:49:21.000Z</time>
      </trkpt>
      <trkpt lat="50.83246" lon="1.58956">
        <ele>26</ele>
        <time>2015-04-07T15:49:22.000Z</time>
      </trkpt>
      <trkpt lat="50.83245" lon="1.58957">
        <ele>25.9</ele>
        <time>2015-04-07T15:49:23.000Z</time>
      </trkpt>
      <trkpt lat="50.83243" lon="1.58957">
        <ele>25.9</ele>
        <time>2015-04-07T15:49:24.000Z</time>
      </trkpt>
      <trkpt lat="50.83242" lon="1.58958">
        <ele>25.8</ele>
        <time>2015-04-07T15:49:25.000Z</time>
      </trkpt>
      <trkpt lat="50.83241" lon="1.58958">
        <ele>25.8</ele>
        <time>2015-04-07T15:49:26.000Z</time>
      </trkpt>
      <trkpt lat="50.8324" lon="1.58959">
        <ele>25.8</ele>
        <time>2015-04-07T15:49:27.000Z</time>
      </trkpt>
      <trkpt lat="50.83239" lon="1.58959">
        <ele>25.7</ele>
        <time>2015-04-07T15:49:28.000Z</time>
      </trkpt>
      <trkpt lat="50.83237" lon="1.58959">
        <ele>25.7</ele>
        <time>2015-04-07T15:49:29.000Z</time>
      </trkpt>
      <trkpt lat="50.83236" lon="1.5896">
        <ele>25.6</ele>
        <time>2015-04-07T15:49:30.000Z</time>
      </trkpt>
      <trkpt lat="50.83234" lon="1.5896">
        <ele>25.6</ele>
        <time>2015-04-07T15:49:31.000Z</time>
      </trkpt>
      <trkpt lat="50.83233" lon="1.58961">
        <ele>25.6</ele>
        <time>2015-04-07T15:49:32.000Z</time>
      </trkpt>
      <trkpt lat="50.83231" lon="1.58961">
        <ele>25.6</ele>
        <time>2015-04-07T15:49:33.000Z</time>
      </trkpt>
      <trkpt lat="50.8323" lon="1.58961">
        <ele>25.5</ele>
        <time>2015-04-07T15:49:34.000Z</time>
      </trkpt>
      <trkpt lat="50.83229" lon="1.58962">
        <ele>25.5</ele>
        <time>2015-04-07T15:49:35.000Z</time>
      </trkpt>
      <trkpt lat="50.83227" lon="1.58962">
        <ele>25.4</ele>
        <time>2015-04-07T15:49:36.000Z</time>
      </trkpt>
      <trkpt lat="50.83226" lon="1.58962">
        <ele>25.4</ele>
        <time>2015-04-07T15:49:37.000Z</time>
      </trkpt>
      <trkpt lat="50.83225" lon="1.58962">
        <ele>25.4</ele>
        <time>2015-04-07T15:49:38.000Z</time>
      </trkpt>
      <trkpt lat="50.83223" lon="1.58963">
        <ele>25.4</ele>
        <time>2015-04-07T15:49:39.000Z</time>
      </trkpt>
      <trkpt lat="50.83222" lon="1.58963">
        <ele>25.4</ele>
        <time>2015-04-07T15:49:40.000Z</time>
      </trkpt>
      <trkpt lat="50.83221" lon="1.58963">
        <ele>25.4</ele>
        <time>2015-04-07T15:49:41.000Z</time>
      </trkpt>
      <trkpt lat="50.83219" lon="1.58964">
        <ele>25.4</ele>
        <time>2015-04-07T15:49:42.000Z</time>
      </trkpt>
      <trkpt lat="50.83218" lon="1.58964">
        <ele>25.5</ele>
        <time>2015-04-07T15:49:43.000Z</time>
      </trkpt>
      <trkpt lat="50.83217" lon="1.58964">
        <ele>25.5</ele>
        <time>2015-04-07T15:49:44.000Z</time>
      </trkpt>
      <trkpt lat="50.83216" lon="1.58965">
        <ele>25.5</ele>
        <time>2015-04-07T15:49:45.000Z</time>
      </trkpt>
      <trkpt lat="50.83214" lon="1.58965">
        <ele>25.6</ele>
        <time>2015-04-07T15:49:46.000Z</time>
      </trkpt>
      <trkpt lat="50.83213" lon="1.58966">
        <ele>25.6</ele>
        <time>2015-04-07T15:49:47.000Z</time>
      </trkpt>
      <trkpt lat="50.83212" lon="1.58966">
        <ele>25.7</ele>
        <time>2015-04-07T15:49:48.000Z</time>
      </trkpt>
      <trkpt lat="50.8321" lon="1.58966">
        <ele>25.8</ele>
        <time>2015-04-07T15:49:49.000Z</time>
      </trkpt>
      <trkpt lat="50.83209" lon="1.58967">
        <ele>25.8</ele>
        <time>2015-04-07T15:49:50.000Z</time>
      </trkpt>
      <trkpt lat="50.83208" lon="1.58967">
        <ele>25.9</ele>
        <time>2015-04-07T15:49:51.000Z</time>
      </trkpt>
      <trkpt lat="50.83206" lon="1.58968">
        <ele>26</ele>
        <time>2015-04-07T15:49:52.000Z</time>
      </trkpt>
      <trkpt lat="50.83205" lon="1.58968">
        <ele>26.1</ele>
        <time>2015-04-07T15:49:53.000Z</time>
      </trkpt>
      <trkpt lat="50.83204" lon="1.58969">
        <ele>26.2</ele>
        <time>2015-04-07T15:49:54.000Z</time>
      </trkpt>
      <trkpt lat="50.83203" lon="1.58969">
        <ele>26.2</ele>
        <time>2015-04-07T15:49:55.000Z</time>
      </trkpt>
      <trkpt lat="50.83201" lon="1.58969">
        <ele>26.3</ele>
        <time>2015-04-07T15:49:56.000Z</time>
      </trkpt>
      <trkpt lat="50.832" lon="1.5897">
        <ele>26.4</ele>
        <time>2015-04-07T15:49:57.000Z</time>
      </trkpt>
      <trkpt lat="50.83199" lon="1.5897">
        <ele>26.5</ele>
        <time>2015-04-07T15:49:58.000Z</time>
      </trkpt>
      <trkpt lat="50.83198" lon="1.58971">
        <ele>26.7</ele>
        <time>2015-04-07T15:49:59.000Z</time>
      </trkpt>
      <trkpt lat="50.83196" lon="1.58971">
        <ele>26.8</ele>
        <time>2015-04-07T15:50:00.000Z</time>
      </trkpt>
      <trkpt lat="50.83195" lon="1.58972">
        <ele>26.9</ele>
        <time>2015-04-07T15:50:01.000Z</time>
      </trkpt>
      <trkpt lat="50.83194" lon="1.58972">
        <ele>26.9</ele>
        <time>2015-04-07T15:50:02.000Z</time>
      </trkpt>
      <trkpt lat="50.83193" lon="1.58973">
        <ele>26.7</ele>
        <time>2015-04-07T15:50:03.000Z</time>
      </trkpt>
      <trkpt lat="50.83192" lon="1.58974">
        <ele>26.4</ele>
        <time>2015-04-07T15:50:04.000Z</time>
      </trkpt>
      <trkpt lat="50.8319" lon="1.58974">
        <ele>26.2</ele>
        <time>2015-04-07T15:50:05.000Z</time>
      </trkpt>
      <trkpt lat="50.83189" lon="1.58975">
        <ele>26</ele>
        <time>2015-04-07T15:50:06.000Z</time>
      </trkpt>
      <trkpt lat="50.83188" lon="1.58975">
        <ele>25.8</ele>
        <time>2015-04-07T15:50:07.000Z</time>
      </trkpt>
      <trkpt lat="50.83186" lon="1.58976">
        <ele>25.6</ele>
        <time>2015-04-07T15:50:08.000Z</time>
      </trkpt>
      <trkpt lat="50.83185" lon="1.58976">
        <ele>25.4</ele>
        <time>2015-04-07T15:50:09.000Z</time>
      </trkpt>
      <trkpt lat="50.83184" lon="1.58977">
        <ele>25.2</ele>
        <time>2015-04-07T15:50:10.000Z</time>
      </trkpt>
      <trkpt lat="50.83182" lon="1.58977">
        <ele>25</ele>
        <time>2015-04-07T15:50:11.000Z</time>
      </trkpt>
      <trkpt lat="50.83181" lon="1.58978">
        <ele>24.8</ele>
        <time>2015-04-07T15:50:12.000Z</time>
      </trkpt>
      <trkpt lat="50.8318" lon="1.58979">
        <ele>24.6</ele>
        <time>2015-04-07T15:50:13.000Z</time>
      </trkpt>
      <trkpt lat="50.83178" lon="1.58979">
        <ele>24.5</ele>
        <time>2015-04-07T15:50:14.000Z</time>
      </trkpt>
      <trkpt lat="50.83177" lon="1.5898">
        <ele>24.4</ele>
        <time>2015-04-07T15:50:15.000Z</time>
      </trkpt>
      <trkpt lat="50.83176" lon="1.58981">
        <ele>24.3</ele>
        <time>2015-04-07T15:50:16.000Z</time>
      </trkpt>
      <trkpt lat="50.83174" lon="1.58981">
        <ele>24.2</ele>
        <time>2015-04-07T15:50:17.000Z</time>
      </trkpt>
      <trkpt lat="50.83173" lon="1.58982">
        <ele>24.1</ele>
        <time>2015-04-07T15:50:18.000Z</time>
      </trkpt>
      <trkpt lat="50.83172" lon="1.58983">
        <ele>24.1</ele>
        <time>2015-04-07T15:50:19.000Z</time>
      </trkpt>
      <trkpt lat="50.83171" lon="1.58983">
        <ele>24</ele>
        <time>2015-04-07T15:50:20.000Z</time>
      </trkpt>
      <trkpt lat="50.8317" lon="1.58984">
        <ele>24</ele>
        <time>2015-04-07T15:50:21.000Z</time>
      </trkpt>
      <trkpt lat="50.83168" lon="1.58985">
        <ele>23.9</ele>
        <time>2015-04-07T15:50:22.000Z</time>
      </trkpt>
      <trkpt lat="50.83168" lon="1.58985">
        <ele>23.9</ele>
        <time>2015-04-07T15:50:23.000Z</time>
      </trkpt>
      <trkpt lat="50.83168" lon="1.58985">
        <ele>23.9</ele>
        <time>2015-04-07T15:50:24.000Z</time>
      </trkpt>
      <trkpt lat="50.83168" lon="1.58985">
        <ele>23.9</ele>
        <time>2015-04-07T15:50:25.000Z</time>
      </trkpt>
      <trkpt lat="50.83168" lon="1.58985">
        <ele>23.9</ele>
        <time>2015-04-07T15:50:26.000Z</time>
      </trkpt>
      <trkpt lat="50.83168" lon="1.58985">
        <ele>23.9</ele>
        <time>2015-04-07T15:50:27.000Z</time>
      </trkpt>
      <trkpt lat="50.83168" lon="1.58985">
        <ele>23.9</ele>
        <time>2015-04-07T15:50:28.000Z</time>
      </trkpt>
      <trkpt lat="50.83168" lon="1.58985">
        <ele>23.9</ele>
        <time>2015-04-07T15:50:29.000Z</time>
      </trkpt>
      <trkpt lat="50.83168" lon="1.58985">
        <ele>23.9</ele>
        <time>2015-04-07T15:50:30.000Z</time>
      </trkpt>
      <trkpt lat="50.83168" lon="1.58985">
        <ele>23.8</ele>
        <time>2015-04-07T15:50:31.000Z</time>
      </trkpt>
      <trkpt lat="50.83167" lon="1.58985">
        <ele>23.8</ele>
        <time>2015-04-07T15:50:32.000Z</time>
      </trkpt>
      <trkpt lat="50.83167" lon="1.58985">
        <ele>23.8</ele>
        <time>2015-04-07T15:50:33.000Z</time>
      </trkpt>
      <trkpt lat="50.83166" lon="1.58985">
        <ele>23.7</ele>
        <time>2015-04-07T15:50:34.000Z</time>
      </trkpt>
      <trkpt lat="50.83165" lon="1.58986">
        <ele>23.7</ele>
        <time>2015-04-07T15:50:35.000Z</time>
      </trkpt>
      <trkpt lat="50.83164" lon="1.58986">
        <ele>23.6</ele>
        <time>2015-04-07T15:50:36.000Z</time>
      </trkpt>
      <trkpt lat="50.83163" lon="1.58987">
        <ele>23.6</ele>
        <time>2015-04-07T15:50:37.000Z</time>
      </trkpt>
      <trkpt lat="50.83162" lon="1.58987">
        <ele>23.6</ele>
        <time>2015-04-07T15:50:38.000Z</time>
      </trkpt>
      <trkpt lat="50.83161" lon="1.58988">
        <ele>23.6</ele>
        <time>2015-04-07T15:50:39.000Z</time>
      </trkpt>
      <trkpt lat="50.8316" lon="1.58988">
        <ele>23.6</ele>
        <time>2015-04-07T15:50:40.000Z</time>
      </trkpt>
      <trkpt lat="50.83159" lon="1.58989">
        <ele>23.7</ele>
        <time>2015-04-07T15:50:41.000Z</time>
      </trkpt>
      <trkpt lat="50.83157" lon="1.5899">
        <ele>23.7</ele>
        <time>2015-04-07T15:50:42.000Z</time>
      </trkpt>
      <trkpt lat="50.83156" lon="1.58991">
        <ele>23.8</ele>
        <time>2015-04-07T15:50:43.000Z</time>
      </trkpt>
      <trkpt lat="50.83155" lon="1.58991">
        <ele>23.9</ele>
        <time>2015-04-07T15:50:44.000Z</time>
      </trkpt>
      <trkpt lat="50.83153" lon="1.58992">
        <ele>23.9</ele>
        <time>2015-04-07T15:50:45.000Z</time>
      </trkpt>
      <trkpt lat="50.83152" lon="1.58993">
        <ele>24</ele>
        <time>2015-04-07T15:50:46.000Z</time>
      </trkpt>
      <trkpt lat="50.83151" lon="1.58993">
        <ele>24.1</ele>
        <time>2015-04-07T15:50:47.000Z</time>
      </trkpt>
      <trkpt lat="50.8315" lon="1.58994">
        <ele>24.1</ele>
        <time>2015-04-07T15:50:48.000Z</time>
      </trkpt>
      <trkpt lat="50.83149" lon="1.58994">
        <ele>24.2</ele>
        <time>2015-04-07T15:50:49.000Z</time>
      </trkpt>
      <trkpt lat="50.83147" lon="1.58994">
        <ele>24.3</ele>
        <time>2015-04-07T15:50:50.000Z</time>
      </trkpt>
      <trkpt lat="50.83146" lon="1.58995">
        <ele>24.4</ele>
        <time>2015-04-07T15:50:51.000Z</time>
      </trkpt>
      <trkpt lat="50.83145" lon="1.58996">
        <ele>24.5</ele>
        <time>2015-04-07T15:50:52.000Z</time>
      </trkpt>
      <trkpt lat="50.83144" lon="1.58996">
        <ele>24.7</ele>
        <time>2015-04-07T15:50:53.000Z</time>
      </trkpt>
      <trkpt lat="50.83142" lon="1.58997">
        <ele>24.9</ele>
        <time>2015-04-07T15:50:54.000Z</time>
      </trkpt>
      <trkpt lat="50.83141" lon="1.58998">
        <ele>25.1</ele>
        <time>2015-04-07T15:50:55.000Z</time>
      </trkpt>
      <trkpt lat="50.8314" lon="1.58998">
        <ele>25.3</ele>
        <time>2015-04-07T15:50:56.000Z</time>
      </trkpt>
      <trkpt lat="50.83139" lon="1.58999">
        <ele>25.5</ele>
        <time>2015-04-07T15:50:57.000Z</time>
      </trkpt>
      <trkpt lat="50.83137" lon="1.59">
        <ele>25.5</ele>
        <time>2015-04-07T15:50:58.000Z</time>
      </trkpt>
      <trkpt lat="50.83136" lon="1.59">
        <ele>25.5</ele>
        <time>2015-04-07T15:50:59.000Z</time>
      </trkpt>
      <trkpt lat="50.83135" lon="1.59001">
        <ele>25.3</ele>
        <time>2015-04-07T15:51:00.000Z</time>
      </trkpt>
      <trkpt lat="50.83134" lon="1.59002">
        <ele>25.1</ele>
        <time>2015-04-07T15:51:01.000Z</time>
      </trkpt>
      <trkpt lat="50.83132" lon="1.59002">
        <ele>24.9</ele>
        <time>2015-04-07T15:51:02.000Z</time>
      </trkpt>
      <trkpt lat="50.83131" lon="1.59003">
        <ele>24.7</ele>
        <time>2015-04-07T15:51:03.000Z</time>
      </trkpt>
      <trkpt lat="50.8313" lon="1.59003">
        <ele>24.5</ele>
        <time>2015-04-07T15:51:04.000Z</time>
      </trkpt>
      <trkpt lat="50.83128" lon="1.59004">
        <ele>24.2</ele>
        <time>2015-04-07T15:51:05.000Z</time>
      </trkpt>
      <trkpt lat="50.83127" lon="1.59004">
        <ele>24</ele>
        <time>2015-04-07T15:51:06.000Z</time>
      </trkpt>
      <trkpt lat="50.83126" lon="1.59004">
        <ele>23.8</ele>
        <time>2015-04-07T15:51:07.000Z</time>
      </trkpt>
      <trkpt lat="50.83124" lon="1.59005">
        <ele>23.7</ele>
        <time>2015-04-07T15:51:08.000Z</time>
      </trkpt>
      <trkpt lat="50.83123" lon="1.59005">
        <ele>23.5</ele>
        <time>2015-04-07T15:51:09.000Z</time>
      </trkpt>
      <trkpt lat="50.83122" lon="1.59005">
        <ele>23.3</ele>
        <time>2015-04-07T15:51:10.000Z</time>
      </trkpt>
      <trkpt lat="50.83121" lon="1.59006">
        <ele>23.1</ele>
        <time>2015-04-07T15:51:11.000Z</time>
      </trkpt>
      <trkpt lat="50.83119" lon="1.59006">
        <ele>22.9</ele>
        <time>2015-04-07T15:51:12.000Z</time>
      </trkpt>
      <trkpt lat="50.83118" lon="1.59006">
        <ele>22.8</ele>
        <time>2015-04-07T15:51:13.000Z</time>
      </trkpt>
      <trkpt lat="50.83117" lon="1.59007">
        <ele>22.6</ele>
        <time>2015-04-07T15:51:14.000Z</time>
      </trkpt>
      <trkpt lat="50.83115" lon="1.59007">
        <ele>22.4</ele>
        <time>2015-04-07T15:51:15.000Z</time>
      </trkpt>
      <trkpt lat="50.83114" lon="1.59007">
        <ele>22.2</ele>
        <time>2015-04-07T15:51:16.000Z</time>
      </trkpt>
      <trkpt lat="50.83113" lon="1.59008">
        <ele>22.1</ele>
        <time>2015-04-07T15:51:17.000Z</time>
      </trkpt>
      <trkpt lat="50.83111" lon="1.59008">
        <ele>21.9</ele>
        <time>2015-04-07T15:51:18.000Z</time>
      </trkpt>
      <trkpt lat="50.8311" lon="1.59008">
        <ele>21.7</ele>
        <time>2015-04-07T15:51:19.000Z</time>
      </trkpt>
      <trkpt lat="50.83108" lon="1.59009">
        <ele>21.6</ele>
        <time>2015-04-07T15:51:20.000Z</time>
      </trkpt>
      <trkpt lat="50.83107" lon="1.59009">
        <ele>21.4</ele>
        <time>2015-04-07T15:51:21.000Z</time>
      </trkpt>
      <trkpt lat="50.83106" lon="1.59009">
        <ele>21.2</ele>
        <time>2015-04-07T15:51:22.000Z</time>
      </trkpt>
      <trkpt lat="50.83105" lon="1.59009">
        <ele>21.1</ele>
        <time>2015-04-07T15:51:23.000Z</time>
      </trkpt>
      <trkpt lat="50.83103" lon="1.5901">
        <ele>20.9</ele>
        <time>2015-04-07T15:51:24.000Z</time>
      </trkpt>
      <trkpt lat="50.83102" lon="1.5901">
        <ele>20.7</ele>
        <time>2015-04-07T15:51:25.000Z</time>
      </trkpt>
      <trkpt lat="50.83101" lon="1.5901">
        <ele>20.6</ele>
        <time>2015-04-07T15:51:26.000Z</time>
      </trkpt>
      <trkpt lat="50.83099" lon="1.5901">
        <ele>20.5</ele>
        <time>2015-04-07T15:51:27.000Z</time>
      </trkpt>
      <trkpt lat="50.83098" lon="1.59011">
        <ele>20.3</ele>
        <time>2015-04-07T15:51:28.000Z</time>
      </trkpt>
      <trkpt lat="50.83097" lon="1.59011">
        <ele>20.2</ele>
        <time>2015-04-07T15:51:29.000Z</time>
      </trkpt>
      <trkpt lat="50.83095" lon="1.59011">
        <ele>20.1</ele>
        <time>2015-04-07T15:51:30.000Z</time>
      </trkpt>
      <trkpt lat="50.83094" lon="1.59011">
        <ele>19.9</ele>
        <time>2015-04-07T15:51:31.000Z</time>
      </trkpt>
      <trkpt lat="50.83093" lon="1.59012">
        <ele>19.8</ele>
        <time>2015-04-07T15:51:32.000Z</time>
      </trkpt>
      <trkpt lat="50.83091" lon="1.59012">
        <ele>19.7</ele>
        <time>2015-04-07T15:51:33.000Z</time>
      </trkpt>
      <trkpt lat="50.8309" lon="1.59012">
        <ele>19.5</ele>
        <time>2015-04-07T15:51:34.000Z</time>
      </trkpt>
      <trkpt lat="50.83089" lon="1.59012">
        <ele>19.4</ele>
        <time>2015-04-07T15:51:35.000Z</time>
      </trkpt>
      <trkpt lat="50.83087" lon="1.59013">
        <ele>19.3</ele>
        <time>2015-04-07T15:51:36.000Z</time>
      </trkpt>
      <trkpt lat="50.83086" lon="1.59013">
        <ele>19.1</ele>
        <time>2015-04-07T15:51:37.000Z</time>
      </trkpt>
      <trkpt lat="50.83085" lon="1.59013">
        <ele>19</ele>
        <time>2015-04-07T15:51:38.000Z</time>
      </trkpt>
      <trkpt lat="50.83084" lon="1.59013">
        <ele>18.9</ele>
        <time>2015-04-07T15:51:39.000Z</time>
      </trkpt>
      <trkpt lat="50.83083" lon="1.59013">
        <ele>18.9</ele>
        <time>2015-04-07T15:51:40.000Z</time>
      </trkpt>
      <trkpt lat="50.83081" lon="1.59014">
        <ele>18.8</ele>
        <time>2015-04-07T15:51:41.000Z</time>
      </trkpt>
      <trkpt lat="50.8308" lon="1.59014">
        <ele>18.7</ele>
        <time>2015-04-07T15:51:42.000Z</time>
      </trkpt>
      <trkpt lat="50.83079" lon="1.59013">
        <ele>18.6</ele>
        <time>2015-04-07T15:51:43.000Z</time>
      </trkpt>
      <trkpt lat="50.83078" lon="1.59013">
        <ele>18.5</ele>
        <time>2015-04-07T15:51:44.000Z</time>
      </trkpt>
      <trkpt lat="50.83077" lon="1.59013">
        <ele>18.4</ele>
        <time>2015-04-07T15:51:45.000Z</time>
      </trkpt>
      <trkpt lat="50.83076" lon="1.59013">
        <ele>18.3</ele>
        <time>2015-04-07T15:51:46.000Z</time>
      </trkpt>
      <trkpt lat="50.83075" lon="1.59013">
        <ele>18.2</ele>
        <time>2015-04-07T15:51:47.000Z</time>
      </trkpt>
      <trkpt lat="50.83074" lon="1.59013">
        <ele>18.1</ele>
        <time>2015-04-07T15:51:48.000Z</time>
      </trkpt>
      <trkpt lat="50.83072" lon="1.59013">
        <ele>18</ele>
        <time>2015-04-07T15:51:49.000Z</time>
      </trkpt>
      <trkpt lat="50.83071" lon="1.59013">
        <ele>18</ele>
        <time>2015-04-07T15:51:50.000Z</time>
      </trkpt>
      <trkpt lat="50.8307" lon="1.59014">
        <ele>18</ele>
        <time>2015-04-07T15:51:51.000Z</time>
      </trkpt>
      <trkpt lat="50.83069" lon="1.59014">
        <ele>18</ele>
        <time>2015-04-07T15:51:52.000Z</time>
      </trkpt>
      <trkpt lat="50.83068" lon="1.59014">
        <ele>18</ele>
        <time>2015-04-07T15:51:53.000Z</time>
      </trkpt>
      <trkpt lat="50.83067" lon="1.59014">
        <ele>17.9</ele>
        <time>2015-04-07T15:51:54.000Z</time>
      </trkpt>
      <trkpt lat="50.83066" lon="1.59015">
        <ele>17.9</ele>
        <time>2015-04-07T15:51:55.000Z</time>
      </trkpt>
      <trkpt lat="50.83064" lon="1.59015">
        <ele>17.9</ele>
        <time>2015-04-07T15:51:56.000Z</time>
      </trkpt>
      <trkpt lat="50.83063" lon="1.59015">
        <ele>17.9</ele>
        <time>2015-04-07T15:51:57.000Z</time>
      </trkpt>
      <trkpt lat="50.83062" lon="1.59015">
        <ele>17.9</ele>
        <time>2015-04-07T15:51:58.000Z</time>
      </trkpt>
      <trkpt lat="50.83061" lon="1.59016">
        <ele>17.9</ele>
        <time>2015-04-07T15:51:59.000Z</time>
      </trkpt>
      <trkpt lat="50.8306" lon="1.59016">
        <ele>17.8</ele>
        <time>2015-04-07T15:52:00.000Z</time>
      </trkpt>
      <trkpt lat="50.83059" lon="1.59016">
        <ele>17.8</ele>
        <time>2015-04-07T15:52:01.000Z</time>
      </trkpt>
      <trkpt lat="50.83057" lon="1.59016">
        <ele>17.8</ele>
        <time>2015-04-07T15:52:02.000Z</time>
      </trkpt>
      <trkpt lat="50.83056" lon="1.59016">
        <ele>17.8</ele>
        <time>2015-04-07T15:52:03.000Z</time>
      </trkpt>
      <trkpt lat="50.83055" lon="1.59017">
        <ele>17.8</ele>
        <time>2015-04-07T15:52:04.000Z</time>
      </trkpt>
      <trkpt lat="50.83054" lon="1.59017">
        <ele>17.8</ele>
        <time>2015-04-07T15:52:05.000Z</time>
      </trkpt>
      <trkpt lat="50.83053" lon="1.59017">
        <ele>17.9</ele>
        <time>2015-04-07T15:52:06.000Z</time>
      </trkpt>
      <trkpt lat="50.83051" lon="1.59017">
        <ele>17.9</ele>
        <time>2015-04-07T15:52:07.000Z</time>
      </trkpt>
      <trkpt lat="50.8305" lon="1.59018">
        <ele>17.9</ele>
        <time>2015-04-07T15:52:08.000Z</time>
      </trkpt>
      <trkpt lat="50.83049" lon="1.59018">
        <ele>18</ele>
        <time>2015-04-07T15:52:09.000Z</time>
      </trkpt>
      <trkpt lat="50.83048" lon="1.59018">
        <ele>18</ele>
        <time>2015-04-07T15:52:10.000Z</time>
      </trkpt>
      <trkpt lat="50.83047" lon="1.59018">
        <ele>18</ele>
        <time>2015-04-07T15:52:11.000Z</time>
      </trkpt>
      <trkpt lat="50.83046" lon="1.59018">
        <ele>18</ele>
        <time>2015-04-07T15:52:12.000Z</time>
      </trkpt>
      <trkpt lat="50.83044" lon="1.59019">
        <ele>18.1</ele>
        <time>2015-04-07T15:52:13.000Z</time>
      </trkpt>
      <trkpt lat="50.83043" lon="1.59019">
        <ele>18.1</ele>
        <time>2015-04-07T15:52:14.000Z</time>
      </trkpt>
      <trkpt lat="50.83042" lon="1.59019">
        <ele>18.1</ele>
        <time>2015-04-07T15:52:15.000Z</time>
      </trkpt>
      <trkpt lat="50.83041" lon="1.59019">
        <ele>18.2</ele>
        <time>2015-04-07T15:52:16.000Z</time>
      </trkpt>
      <trkpt lat="50.8304" lon="1.59019">
        <ele>18.2</ele>
        <time>2015-04-07T15:52:17.000Z</time>
      </trkpt>
      <trkpt lat="50.83039" lon="1.5902">
        <ele>18.2</ele>
        <time>2015-04-07T15:52:18.000Z</time>
      </trkpt>
      <trkpt lat="50.83037" lon="1.5902">
        <ele>18.3</ele>
        <time>2015-04-07T15:52:19.000Z</time>
      </trkpt>
      <trkpt lat="50.83036" lon="1.5902">
        <ele>18.3</ele>
        <time>2015-04-07T15:52:20.000Z</time>
      </trkpt>
      <trkpt lat="50.83035" lon="1.59021">
        <ele>18.4</ele>
        <time>2015-04-07T15:52:21.000Z</time>
      </trkpt>
      <trkpt lat="50.83034" lon="1.59021">
        <ele>18.5</ele>
        <time>2015-04-07T15:52:22.000Z</time>
      </trkpt>
      <trkpt lat="50.83032" lon="1.59022">
        <ele>18.6</ele>
        <time>2015-04-07T15:52:23.000Z</time>
      </trkpt>
      <trkpt lat="50.83031" lon="1.59022">
        <ele>18.7</ele>
        <time>2015-04-07T15:52:24.000Z</time>
      </trkpt>
      <trkpt lat="50.8303" lon="1.59023">
        <ele>18.8</ele>
        <time>2015-04-07T15:52:25.000Z</time>
      </trkpt>
      <trkpt lat="50.83029" lon="1.59023">
        <ele>18.9</ele>
        <time>2015-04-07T15:52:26.000Z</time>
      </trkpt>
      <trkpt lat="50.83028" lon="1.59024">
        <ele>19</ele>
        <time>2015-04-07T15:52:27.000Z</time>
      </trkpt>
      <trkpt lat="50.83026" lon="1.59024">
        <ele>19.1</ele>
        <time>2015-04-07T15:52:28.000Z</time>
      </trkpt>
      <trkpt lat="50.83025" lon="1.59025">
        <ele>19.2</ele>
        <time>2015-04-07T15:52:29.000Z</time>
      </trkpt>
      <trkpt lat="50.83024" lon="1.59026">
        <ele>19.3</ele>
        <time>2015-04-07T15:52:30.000Z</time>
      </trkpt>
      <trkpt lat="50.83023" lon="1.59026">
        <ele>19.4</ele>
        <time>2015-04-07T15:52:31.000Z</time>
      </trkpt>
      <trkpt lat="50.83022" lon="1.59026">
        <ele>19.5</ele>
        <time>2015-04-07T15:52:32.000Z</time>
      </trkpt>
      <trkpt lat="50.8302" lon="1.59027">
        <ele>19.6</ele>
        <time>2015-04-07T15:52:33.000Z</time>
      </trkpt>
      <trkpt lat="50.8302" lon="1.59028">
        <ele>19.6</ele>
        <time>2015-04-07T15:52:34.000Z</time>
      </trkpt>
      <trkpt lat="50.8302" lon="1.59028">
        <ele>19.6</ele>
        <time>2015-04-07T15:52:35.000Z</time>
      </trkpt>
      <trkpt lat="50.8302" lon="1.59028">
        <ele>19.7</ele>
        <time>2015-04-07T15:52:36.000Z</time>
      </trkpt>
      <trkpt lat="50.8302" lon="1.59028">
        <ele>19.7</ele>
        <time>2015-04-07T15:52:37.000Z</time>
      </trkpt>
      <trkpt lat="50.8302" lon="1.59028">
        <ele>19.7</ele>
        <time>2015-04-07T15:52:38.000Z</time>
      </trkpt>
      <trkpt lat="50.8302" lon="1.59028">
        <ele>19.7</ele>
        <time>2015-04-07T15:52:39.000Z</time>
      </trkpt>
      <trkpt lat="50.8302" lon="1.59028">
        <ele>19.7</ele>
        <time>2015-04-07T15:52:40.000Z</time>
      </trkpt>
      <trkpt lat="50.8302" lon="1.59028">
        <ele>19.7</ele>
        <time>2015-04-07T15:52:41.000Z</time>
      </trkpt>
      <trkpt lat="50.83019" lon="1.59029">
        <ele>19.6</ele>
        <time>2015-04-07T15:52:42.000Z</time>
      </trkpt>
      <trkpt lat="50.83019" lon="1.59029">
        <ele>19.6</ele>
        <time>2015-04-07T15:52:43.000Z</time>
      </trkpt>
      <trkpt lat="50.83018" lon="1.5903">
        <ele>19.6</ele>
        <time>2015-04-07T15:52:44.000Z</time>
      </trkpt>
      <trkpt lat="50.83017" lon="1.5903">
        <ele>19.5</ele>
        <time>2015-04-07T15:52:45.000Z</time>
      </trkpt>
      <trkpt lat="50.83016" lon="1.59031">
        <ele>19.4</ele>
        <time>2015-04-07T15:52:46.000Z</time>
      </trkpt>
      <trkpt lat="50.83015" lon="1.59031">
        <ele>19.4</ele>
        <time>2015-04-07T15:52:47.000Z</time>
      </trkpt>
      <trkpt lat="50.83014" lon="1.59032">
        <ele>19.3</ele>
        <time>2015-04-07T15:52:48.000Z</time>
      </trkpt>
      <trkpt lat="50.83013" lon="1.59032">
        <ele>19.2</ele>
        <time>2015-04-07T15:52:49.000Z</time>
      </trkpt>
      <trkpt lat="50.83012" lon="1.59033">
        <ele>19.2</ele>
        <time>2015-04-07T15:52:50.000Z</time>
      </trkpt>
      <trkpt lat="50.83011" lon="1.59033">
        <ele>19.1</ele>
        <time>2015-04-07T15:52:51.000Z</time>
      </trkpt>
      <trkpt lat="50.8301" lon="1.59033">
        <ele>19</ele>
        <time>2015-04-07T15:52:52.000Z</time>
      </trkpt>
      <trkpt lat="50.83008" lon="1.59033">
        <ele>19</ele>
        <time>2015-04-07T15:52:53.000Z</time>
      </trkpt>
      <trkpt lat="50.83007" lon="1.59034">
        <ele>18.9</ele>
        <time>2015-04-07T15:52:54.000Z</time>
      </trkpt>
      <trkpt lat="50.83006" lon="1.59034">
        <ele>18.8</ele>
        <time>2015-04-07T15:52:55.000Z</time>
      </trkpt>
      <trkpt lat="50.83005" lon="1.59034">
        <ele>18.8</ele>
        <time>2015-04-07T15:52:56.000Z</time>
      </trkpt>
      <trkpt lat="50.83003" lon="1.59034">
        <ele>18.7</ele>
        <time>2015-04-07T15:52:57.000Z</time>
      </trkpt>
      <trkpt lat="50.83002" lon="1.59034">
        <ele>18.6</ele>
        <time>2015-04-07T15:52:58.000Z</time>
      </trkpt>
      <trkpt lat="50.83001" lon="1.59034">
        <ele>18.6</ele>
        <time>2015-04-07T15:52:59.000Z</time>
      </trkpt>
      <trkpt lat="50.83" lon="1.59035">
        <ele>18.5</ele>
        <time>2015-04-07T15:53:00.000Z</time>
      </trkpt>
      <trkpt lat="50.82998" lon="1.59035">
        <ele>18.3</ele>
        <time>2015-04-07T15:53:01.000Z</time>
      </trkpt>
      <trkpt lat="50.82997" lon="1.59035">
        <ele>18.2</ele>
        <time>2015-04-07T15:53:02.000Z</time>
      </trkpt>
      <trkpt lat="50.82996" lon="1.59036">
        <ele>18.1</ele>
        <time>2015-04-07T15:53:03.000Z</time>
      </trkpt>
      <trkpt lat="50.82995" lon="1.59036">
        <ele>18</ele>
        <time>2015-04-07T15:53:04.000Z</time>
      </trkpt>
      <trkpt lat="50.82993" lon="1.59036">
        <ele>17.8</ele>
        <time>2015-04-07T15:53:05.000Z</time>
      </trkpt>
      <trkpt lat="50.82992" lon="1.59036">
        <ele>17.7</ele>
        <time>2015-04-07T15:53:06.000Z</time>
      </trkpt>
      <trkpt lat="50.82991" lon="1.59036">
        <ele>17.6</ele>
        <time>2015-04-07T15:53:07.000Z</time>
      </trkpt>
      <trkpt lat="50.8299" lon="1.59036">
        <ele>17.5</ele>
        <time>2015-04-07T15:53:08.000Z</time>
      </trkpt>
      <trkpt lat="50.82988" lon="1.59036">
        <ele>17.4</ele>
        <time>2015-04-07T15:53:09.000Z</time>
      </trkpt>
      <trkpt lat="50.82987" lon="1.59037">
        <ele>17.2</ele>
        <time>2015-04-07T15:53:10.000Z</time>
      </trkpt>
      <trkpt lat="50.82986" lon="1.59037">
        <ele>17.1</ele>
        <time>2015-04-07T15:53:11.000Z</time>
      </trkpt>
      <trkpt lat="50.82984" lon="1.59037">
        <ele>17</ele>
        <time>2015-04-07T15:53:12.000Z</time>
      </trkpt>
      <trkpt lat="50.82983" lon="1.59038">
        <ele>16.9</ele>
        <time>2015-04-07T15:53:13.000Z</time>
      </trkpt>
      <trkpt lat="50.82982" lon="1.59038">
        <ele>16.8</ele>
        <time>2015-04-07T15:53:14.000Z</time>
      </trkpt>
      <trkpt lat="50.82981" lon="1.59039">
        <ele>16.7</ele>
        <time>2015-04-07T15:53:15.000Z</time>
      </trkpt>
      <trkpt lat="50.8298" lon="1.59039">
        <ele>16.6</ele>
        <time>2015-04-07T15:53:16.000Z</time>
      </trkpt>
      <trkpt lat="50.82978" lon="1.5904">
        <ele>16.5</ele>
        <time>2015-04-07T15:53:17.000Z</time>
      </trkpt>
      <trkpt lat="50.82977" lon="1.5904">
        <ele>16.4</ele>
        <time>2015-04-07T15:53:18.000Z</time>
      </trkpt>
      <trkpt lat="50.82976" lon="1.59041">
        <ele>16.3</ele>
        <time>2015-04-07T15:53:19.000Z</time>
      </trkpt>
      <trkpt lat="50.82975" lon="1.59041">
        <ele>16.2</ele>
        <time>2015-04-07T15:53:20.000Z</time>
      </trkpt>
      <trkpt lat="50.82973" lon="1.59042">
        <ele>16.1</ele>
        <time>2015-04-07T15:53:21.000Z</time>
      </trkpt>
      <trkpt lat="50.82972" lon="1.59043">
        <ele>16</ele>
        <time>2015-04-07T15:53:22.000Z</time>
      </trkpt>
      <trkpt lat="50.82971" lon="1.59043">
        <ele>15.8</ele>
        <time>2015-04-07T15:53:23.000Z</time>
      </trkpt>
      <trkpt lat="50.8297" lon="1.59044">
        <ele>15.6</ele>
        <time>2015-04-07T15:53:24.000Z</time>
      </trkpt>
      <trkpt lat="50.82969" lon="1.59044">
        <ele>15.5</ele>
        <time>2015-04-07T15:53:25.000Z</time>
      </trkpt>
      <trkpt lat="50.82967" lon="1.59045">
        <ele>15.3</ele>
        <time>2015-04-07T15:53:26.000Z</time>
      </trkpt>
      <trkpt lat="50.82966" lon="1.59046">
        <ele>15.2</ele>
        <time>2015-04-07T15:53:27.000Z</time>
      </trkpt>
      <trkpt lat="50.82965" lon="1.59047">
        <ele>15.1</ele>
        <time>2015-04-07T15:53:28.000Z</time>
      </trkpt>
      <trkpt lat="50.82964" lon="1.59048">
        <ele>15</ele>
        <time>2015-04-07T15:53:29.000Z</time>
      </trkpt>
      <trkpt lat="50.82963" lon="1.59049">
        <ele>14.9</ele>
        <time>2015-04-07T15:53:30.000Z</time>
      </trkpt>
      <trkpt lat="50.82962" lon="1.5905">
        <ele>14.8</ele>
        <time>2015-04-07T15:53:31.000Z</time>
      </trkpt>
      <trkpt lat="50.8296" lon="1.59051">
        <ele>14.8</ele>
        <time>2015-04-07T15:53:32.000Z</time>
      </trkpt>
      <trkpt lat="50.82959" lon="1.59052">
        <ele>14.7</ele>
        <time>2015-04-07T15:53:33.000Z</time>
      </trkpt>
      <trkpt lat="50.82958" lon="1.59052">
        <ele>14.7</ele>
        <time>2015-04-07T15:53:34.000Z</time>
      </trkpt>
      <trkpt lat="50.82957" lon="1.59053">
        <ele>14.6</ele>
        <time>2015-04-07T15:53:35.000Z</time>
      </trkpt>
      <trkpt lat="50.82956" lon="1.59053">
        <ele>14.6</ele>
        <time>2015-04-07T15:53:36.000Z</time>
      </trkpt>
      <trkpt lat="50.82955" lon="1.59054">
        <ele>14.5</ele>
        <time>2015-04-07T15:53:37.000Z</time>
      </trkpt>
      <trkpt lat="50.82953" lon="1.59054">
        <ele>14.5</ele>
        <time>2015-04-07T15:53:38.000Z</time>
      </trkpt>
      <trkpt lat="50.82952" lon="1.59055">
        <ele>14.4</ele>
        <time>2015-04-07T15:53:39.000Z</time>
      </trkpt>
      <trkpt lat="50.82951" lon="1.59055">
        <ele>14.3</ele>
        <time>2015-04-07T15:53:40.000Z</time>
      </trkpt>
      <trkpt lat="50.8295" lon="1.59055">
        <ele>14.3</ele>
        <time>2015-04-07T15:53:41.000Z</time>
      </trkpt>
      <trkpt lat="50.82949" lon="1.59055">
        <ele>14.2</ele>
        <time>2015-04-07T15:53:42.000Z</time>
      </trkpt>
      <trkpt lat="50.82948" lon="1.59054">
        <ele>14.1</ele>
        <time>2015-04-07T15:53:43.000Z</time>
      </trkpt>
      <trkpt lat="50.82947" lon="1.59054">
        <ele>14</ele>
        <time>2015-04-07T15:53:44.000Z</time>
      </trkpt>
      <trkpt lat="50.82946" lon="1.59054">
        <ele>13.9</ele>
        <time>2015-04-07T15:53:45.000Z</time>
      </trkpt>
      <trkpt lat="50.82945" lon="1.59055">
        <ele>13.8</ele>
        <time>2015-04-07T15:53:46.000Z</time>
      </trkpt>
      <trkpt lat="50.82944" lon="1.59055">
        <ele>13.8</ele>
        <time>2015-04-07T15:53:47.000Z</time>
      </trkpt>
      <trkpt lat="50.82943" lon="1.59055">
        <ele>13.8</ele>
        <time>2015-04-07T15:53:48.000Z</time>
      </trkpt>
      <trkpt lat="50.82942" lon="1.59056">
        <ele>13.8</ele>
        <time>2015-04-07T15:53:49.000Z</time>
      </trkpt>
      <trkpt lat="50.82941" lon="1.59056">
        <ele>13.7</ele>
        <time>2015-04-07T15:53:50.000Z</time>
      </trkpt>
      <trkpt lat="50.8294" lon="1.59057">
        <ele>13.6</ele>
        <time>2015-04-07T15:53:51.000Z</time>
      </trkpt>
      <trkpt lat="50.82939" lon="1.59058">
        <ele>13.5</ele>
        <time>2015-04-07T15:53:52.000Z</time>
      </trkpt>
      <trkpt lat="50.82938" lon="1.59059">
        <ele>13.3</ele>
        <time>2015-04-07T15:53:53.000Z</time>
      </trkpt>
      <trkpt lat="50.82937" lon="1.5906">
        <ele>13.2</ele>
        <time>2015-04-07T15:53:54.000Z</time>
      </trkpt>
      <trkpt lat="50.82936" lon="1.59061">
        <ele>13.1</ele>
        <time>2015-04-07T15:53:55.000Z</time>
      </trkpt>
      <trkpt lat="50.82935" lon="1.59062">
        <ele>13</ele>
        <time>2015-04-07T15:53:56.000Z</time>
      </trkpt>
      <trkpt lat="50.82934" lon="1.59063">
        <ele>12.9</ele>
        <time>2015-04-07T15:53:57.000Z</time>
      </trkpt>
      <trkpt lat="50.82933" lon="1.59064">
        <ele>12.8</ele>
        <time>2015-04-07T15:53:58.000Z</time>
      </trkpt>
      <trkpt lat="50.82932" lon="1.59065">
        <ele>12.8</ele>
        <time>2015-04-07T15:53:59.000Z</time>
      </trkpt>
      <trkpt lat="50.82931" lon="1.59065">
        <ele>12.7</ele>
        <time>2015-04-07T15:54:00.000Z</time>
      </trkpt>
      <trkpt lat="50.8293" lon="1.59066">
        <ele>12.6</ele>
        <time>2015-04-07T15:54:01.000Z</time>
      </trkpt>
      <trkpt lat="50.82929" lon="1.59066">
        <ele>12.6</ele>
        <time>2015-04-07T15:54:02.000Z</time>
      </trkpt>
      <trkpt lat="50.82928" lon="1.59067">
        <ele>12.5</ele>
        <time>2015-04-07T15:54:03.000Z</time>
      </trkpt>
      <trkpt lat="50.82927" lon="1.59067">
        <ele>12.4</ele>
        <time>2015-04-07T15:54:04.000Z</time>
      </trkpt>
      <trkpt lat="50.82925" lon="1.59068">
        <ele>12.3</ele>
        <time>2015-04-07T15:54:05.000Z</time>
      </trkpt>
      <trkpt lat="50.82925" lon="1.59068">
        <ele>12.3</ele>
        <time>2015-04-07T15:54:06.000Z</time>
      </trkpt>
      <trkpt lat="50.82925" lon="1.59068">
        <ele>12.3</ele>
        <time>2015-04-07T15:54:07.000Z</time>
      </trkpt>
      <trkpt lat="50.82925" lon="1.59068">
        <ele>12.3</ele>
        <time>2015-04-07T15:54:08.000Z</time>
      </trkpt>
      <trkpt lat="50.82925" lon="1.59068">
        <ele>12.3</ele>
        <time>2015-04-07T15:54:09.000Z</time>
      </trkpt>
      <trkpt lat="50.82924" lon="1.59069">
        <ele>12.3</ele>
        <time>2015-04-07T15:54:10.000Z</time>
      </trkpt>
      <trkpt lat="50.82924" lon="1.59069">
        <ele>12.3</ele>
        <time>2015-04-07T15:54:11.000Z</time>
      </trkpt>
      <trkpt lat="50.82924" lon="1.59069">
        <ele>12.3</ele>
        <time>2015-04-07T15:54:12.000Z</time>
      </trkpt>
      <trkpt lat="50.82924" lon="1.5907">
        <ele>12.3</ele>
        <time>2015-04-07T15:54:13.000Z</time>
      </trkpt>
      <trkpt lat="50.82924" lon="1.59071">
        <ele>12.2</ele>
        <time>2015-04-07T15:54:14.000Z</time>
      </trkpt>
      <trkpt lat="50.82924" lon="1.59072">
        <ele>12.2</ele>
        <time>2015-04-07T15:54:15.000Z</time>
      </trkpt>
      <trkpt lat="50.82923" lon="1.59073">
        <ele>12.2</ele>
        <time>2015-04-07T15:54:16.000Z</time>
      </trkpt>
      <trkpt lat="50.82923" lon="1.59075">
        <ele>12.1</ele>
        <time>2015-04-07T15:54:17.000Z</time>
      </trkpt>
      <trkpt lat="50.82922" lon="1.59076">
        <ele>12.1</ele>
        <time>2015-04-07T15:54:18.000Z</time>
      </trkpt>
      <trkpt lat="50.82922" lon="1.59077">
        <ele>12.1</ele>
        <time>2015-04-07T15:54:19.000Z</time>
      </trkpt>
      <trkpt lat="50.82921" lon="1.59078">
        <ele>12.1</ele>
        <time>2015-04-07T15:54:20.000Z</time>
      </trkpt>
      <trkpt lat="50.82921" lon="1.5908">
        <ele>12</ele>
        <time>2015-04-07T15:54:21.000Z</time>
      </trkpt>
      <trkpt lat="50.8292" lon="1.59081">
        <ele>12</ele>
        <time>2015-04-07T15:54:22.000Z</time>
      </trkpt>
      <trkpt lat="50.82919" lon="1.59083">
        <ele>12</ele>
        <time>2015-04-07T15:54:23.000Z</time>
      </trkpt>
      <trkpt lat="50.82919" lon="1.59085">
        <ele>11.9</ele>
        <time>2015-04-07T15:54:24.000Z</time>
      </trkpt>
      <trkpt lat="50.82918" lon="1.59086">
        <ele>11.8</ele>
        <time>2015-04-07T15:54:25.000Z</time>
      </trkpt>
      <trkpt lat="50.82918" lon="1.59088">
        <ele>11.7</ele>
        <time>2015-04-07T15:54:26.000Z</time>
      </trkpt>
      <trkpt lat="50.82917" lon="1.59089">
        <ele>11.6</ele>
        <time>2015-04-07T15:54:27.000Z</time>
      </trkpt>
      <trkpt lat="50.82917" lon="1.5909">
        <ele>11.5</ele>
        <time>2015-04-07T15:54:28.000Z</time>
      </trkpt>
      <trkpt lat="50.82917" lon="1.59092">
        <ele>11.4</ele>
        <time>2015-04-07T15:54:29.000Z</time>
      </trkpt>
      <trkpt lat="50.82917" lon="1.59094">
        <ele>11.3</ele>
        <time>2015-04-07T15:54:30.000Z</time>
      </trkpt>
      <trkpt lat="50.82917" lon="1.59095">
        <ele>11.1</ele>
        <time>2015-04-07T15:54:31.000Z</time>
      </trkpt>
      <trkpt lat="50.82916" lon="1.59097">
        <ele>11</ele>
        <time>2015-04-07T15:54:32.000Z</time>
      </trkpt>
      <trkpt lat="50.82916" lon="1.59099">
        <ele>10.8</ele>
        <time>2015-04-07T15:54:33.000Z</time>
      </trkpt>
      <trkpt lat="50.82916" lon="1.59101">
        <ele>10.7</ele>
        <time>2015-04-07T15:54:34.000Z</time>
      </trkpt>
      <trkpt lat="50.82916" lon="1.59102">
        <ele>10.5</ele>
        <time>2015-04-07T15:54:35.000Z</time>
      </trkpt>
      <trkpt lat="50.82916" lon="1.59104">
        <ele>10.4</ele>
        <time>2015-04-07T15:54:36.000Z</time>
      </trkpt>
      <trkpt lat="50.82915" lon="1.59105">
        <ele>10.3</ele>
        <time>2015-04-07T15:54:37.000Z</time>
      </trkpt>
      <trkpt lat="50.82915" lon="1.59106">
        <ele>10.2</ele>
        <time>2015-04-07T15:54:38.000Z</time>
      </trkpt>
      <trkpt lat="50.82915" lon="1.59107">
        <ele>10.1</ele>
        <time>2015-04-07T15:54:39.000Z</time>
      </trkpt>
      <trkpt lat="50.82915" lon="1.59109">
        <ele>10</ele>
        <time>2015-04-07T15:54:40.000Z</time>
      </trkpt>
      <trkpt lat="50.82915" lon="1.5911">
        <ele>9.9</ele>
        <time>2015-04-07T15:54:41.000Z</time>
      </trkpt>
      <trkpt lat="50.82914" lon="1.59111">
        <ele>9.8</ele>
        <time>2015-04-07T15:54:42.000Z</time>
      </trkpt>
      <trkpt lat="50.82914" lon="1.59113">
        <ele>9.9</ele>
        <time>2015-04-07T15:54:43.000Z</time>
      </trkpt>
      <trkpt lat="50.82913" lon="1.59114">
        <ele>10</ele>
        <time>2015-04-07T15:54:44.000Z</time>
      </trkpt>
      <trkpt lat="50.82913" lon="1.59115">
        <ele>10</ele>
        <time>2015-04-07T15:54:45.000Z</time>
      </trkpt>
      <trkpt lat="50.82913" lon="1.59116">
        <ele>10.1</ele>
        <time>2015-04-07T15:54:46.000Z</time>
      </trkpt>
      <trkpt lat="50.82912" lon="1.59118">
        <ele>10.2</ele>
        <time>2015-04-07T15:54:47.000Z</time>
      </trkpt>
      <trkpt lat="50.82912" lon="1.59119">
        <ele>10.3</ele>
        <time>2015-04-07T15:54:48.000Z</time>
      </trkpt>
      <trkpt lat="50.82911" lon="1.5912">
        <ele>10.3</ele>
        <time>2015-04-07T15:54:49.000Z</time>
      </trkpt>
      <trkpt lat="50.82911" lon="1.59122">
        <ele>10.4</ele>
        <time>2015-04-07T15:54:50.000Z</time>
      </trkpt>
      <trkpt lat="50.8291" lon="1.59123">
        <ele>10.5</ele>
        <time>2015-04-07T15:54:51.000Z</time>
      </trkpt>
      <trkpt lat="50.82909" lon="1.59124">
        <ele>10.5</ele>
        <time>2015-04-07T15:54:52.000Z</time>
      </trkpt>
      <trkpt lat="50.82908" lon="1.59126">
        <ele>10.6</ele>
        <time>2015-04-07T15:54:53.000Z</time>
      </trkpt>
      <trkpt lat="50.82908" lon="1.59127">
        <ele>10.7</ele>
        <time>2015-04-07T15:54:54.000Z</time>
      </trkpt>
      <trkpt lat="50.82907" lon="1.59128">
        <ele>10.7</ele>
        <time>2015-04-07T15:54:55.000Z</time>
      </trkpt>
      <trkpt lat="50.82906" lon="1.59129">
        <ele>10.7</ele>
        <time>2015-04-07T15:54:56.000Z</time>
      </trkpt>
      <trkpt lat="50.82905" lon="1.5913">
        <ele>10.8</ele>
        <time>2015-04-07T15:54:57.000Z</time>
      </trkpt>
      <trkpt lat="50.82904" lon="1.5913">
        <ele>10.8</ele>
        <time>2015-04-07T15:54:58.000Z</time>
      </trkpt>
      <trkpt lat="50.82903" lon="1.59131">
        <ele>10.8</ele>
        <time>2015-04-07T15:54:59.000Z</time>
      </trkpt>
      <trkpt lat="50.82902" lon="1.59132">
        <ele>10.8</ele>
        <time>2015-04-07T15:55:00.000Z</time>
      </trkpt>
      <trkpt lat="50.82902" lon="1.59133">
        <ele>10.9</ele>
        <time>2015-04-07T15:55:01.000Z</time>
      </trkpt>
      <trkpt lat="50.82901" lon="1.59133">
        <ele>10.9</ele>
        <time>2015-04-07T15:55:02.000Z</time>
      </trkpt>
      <trkpt lat="50.829" lon="1.59134">
        <ele>10.9</ele>
        <time>2015-04-07T15:55:03.000Z</time>
      </trkpt>
      <trkpt lat="50.82899" lon="1.59135">
        <ele>11</ele>
        <time>2015-04-07T15:55:04.000Z</time>
      </trkpt>
      <trkpt lat="50.82898" lon="1.59136">
        <ele>11</ele>
        <time>2015-04-07T15:55:05.000Z</time>
      </trkpt>
      <trkpt lat="50.82898" lon="1.59136">
        <ele>11.1</ele>
        <time>2015-04-07T15:55:06.000Z</time>
      </trkpt>
      <trkpt lat="50.82897" lon="1.59137">
        <ele>11.1</ele>
        <time>2015-04-07T15:55:07.000Z</time>
      </trkpt>
      <trkpt lat="50.82896" lon="1.59138">
        <ele>11.2</ele>
        <time>2015-04-07T15:55:08.000Z</time>
      </trkpt>
      <trkpt lat="50.82895" lon="1.59139">
        <ele>11.3</ele>
        <time>2015-04-07T15:55:09.000Z</time>
      </trkpt>
      <trkpt lat="50.82895" lon="1.5914">
        <ele>11.3</ele>
        <time>2015-04-07T15:55:10.000Z</time>
      </trkpt>
      <trkpt lat="50.82894" lon="1.59141">
        <ele>11.3</ele>
        <time>2015-04-07T15:55:11.000Z</time>
      </trkpt>
      <trkpt lat="50.82894" lon="1.59142">
        <ele>11.4</ele>
        <time>2015-04-07T15:55:12.000Z</time>
      </trkpt>
      <trkpt lat="50.82893" lon="1.59143">
        <ele>11.4</ele>
        <time>2015-04-07T15:55:13.000Z</time>
      </trkpt>
      <trkpt lat="50.82893" lon="1.59144">
        <ele>11.5</ele>
        <time>2015-04-07T15:55:14.000Z</time>
      </trkpt>
      <trkpt lat="50.82892" lon="1.59145">
        <ele>11.5</ele>
        <time>2015-04-07T15:55:15.000Z</time>
      </trkpt>
      <trkpt lat="50.82892" lon="1.59146">
        <ele>11.6</ele>
        <time>2015-04-07T15:55:16.000Z</time>
      </trkpt>
      <trkpt lat="50.82892" lon="1.59147">
        <ele>11.6</ele>
        <time>2015-04-07T15:55:17.000Z</time>
      </trkpt>
      <trkpt lat="50.82891" lon="1.59148">
        <ele>11.7</ele>
        <time>2015-04-07T15:55:18.000Z</time>
      </trkpt>
      <trkpt lat="50.82891" lon="1.59149">
        <ele>11.8</ele>
        <time>2015-04-07T15:55:19.000Z</time>
      </trkpt>
      <trkpt lat="50.82891" lon="1.5915">
        <ele>11.8</ele>
        <time>2015-04-07T15:55:20.000Z</time>
      </trkpt>
      <trkpt lat="50.8289" lon="1.59151">
        <ele>11.9</ele>
        <time>2015-04-07T15:55:21.000Z</time>
      </trkpt>
      <trkpt lat="50.8289" lon="1.59151">
        <ele>11.9</ele>
        <time>2015-04-07T15:55:22.000Z</time>
      </trkpt>
      <trkpt lat="50.82889" lon="1.59152">
        <ele>12</ele>
        <time>2015-04-07T15:55:23.000Z</time>
      </trkpt>
      <trkpt lat="50.82889" lon="1.59153">
        <ele>12</ele>
        <time>2015-04-07T15:55:24.000Z</time>
      </trkpt>
      <trkpt lat="50.82888" lon="1.59154">
        <ele>12.1</ele>
        <time>2015-04-07T15:55:25.000Z</time>
      </trkpt>
      <trkpt lat="50.82887" lon="1.59155">
        <ele>12.3</ele>
        <time>2015-04-07T15:55:26.000Z</time>
      </trkpt>
      <trkpt lat="50.82886" lon="1.59155">
        <ele>12.4</ele>
        <time>2015-04-07T15:55:27.000Z</time>
      </trkpt>
      <trkpt lat="50.82885" lon="1.59156">
        <ele>12.5</ele>
        <time>2015-04-07T15:55:28.000Z</time>
      </trkpt>
      <trkpt lat="50.82884" lon="1.59157">
        <ele>12.5</ele>
        <time>2015-04-07T15:55:29.000Z</time>
      </trkpt>
      <trkpt lat="50.82883" lon="1.59157">
        <ele>12.6</ele>
        <time>2015-04-07T15:55:30.000Z</time>
      </trkpt>
      <trkpt lat="50.82882" lon="1.59158">
        <ele>12.7</ele>
        <time>2015-04-07T15:55:31.000Z</time>
      </trkpt>
      <trkpt lat="50.82881" lon="1.59158">
        <ele>12.8</ele>
        <time>2015-04-07T15:55:32.000Z</time>
      </trkpt>
      <trkpt lat="50.82881" lon="1.59159">
        <ele>12.9</ele>
        <time>2015-04-07T15:55:33.000Z</time>
      </trkpt>
      <trkpt lat="50.8288" lon="1.59159">
        <ele>13</ele>
        <time>2015-04-07T15:55:34.000Z</time>
      </trkpt>
      <trkpt lat="50.82879" lon="1.5916">
        <ele>13.1</ele>
        <time>2015-04-07T15:55:35.000Z</time>
      </trkpt>
      <trkpt lat="50.82878" lon="1.5916">
        <ele>13.2</ele>
        <time>2015-04-07T15:55:36.000Z</time>
      </trkpt>
      <trkpt lat="50.82877" lon="1.59161">
        <ele>13.3</ele>
        <time>2015-04-07T15:55:37.000Z</time>
      </trkpt>
      <trkpt lat="50.82876" lon="1.59161">
        <ele>13.4</ele>
        <time>2015-04-07T15:55:38.000Z</time>
      </trkpt>
      <trkpt lat="50.82876" lon="1.59162">
        <ele>13.5</ele>
        <time>2015-04-07T15:55:39.000Z</time>
      </trkpt>
      <trkpt lat="50.82875" lon="1.59162">
        <ele>13.6</ele>
        <time>2015-04-07T15:55:40.000Z</time>
      </trkpt>
      <trkpt lat="50.82874" lon="1.59163">
        <ele>13.7</ele>
        <time>2015-04-07T15:55:41.000Z</time>
      </trkpt>
      <trkpt lat="50.82873" lon="1.59163">
        <ele>13.8</ele>
        <time>2015-04-07T15:55:42.000Z</time>
      </trkpt>
      <trkpt lat="50.82872" lon="1.59164">
        <ele>14</ele>
        <time>2015-04-07T15:55:43.000Z</time>
      </trkpt>
      <trkpt lat="50.82871" lon="1.59165">
        <ele>14.1</ele>
        <time>2015-04-07T15:55:44.000Z</time>
      </trkpt>
      <trkpt lat="50.82871" lon="1.59165">
        <ele>14.2</ele>
        <time>2015-04-07T15:55:45.000Z</time>
      </trkpt>
      <trkpt lat="50.8287" lon="1.59166">
        <ele>14.3</ele>
        <time>2015-04-07T15:55:46.000Z</time>
      </trkpt>
      <trkpt lat="50.82869" lon="1.59167">
        <ele>14.4</ele>
        <time>2015-04-07T15:55:47.000Z</time>
      </trkpt>
      <trkpt lat="50.82868" lon="1.59167">
        <ele>14.5</ele>
        <time>2015-04-07T15:55:48.000Z</time>
      </trkpt>
      <trkpt lat="50.82867" lon="1.59168">
        <ele>14.6</ele>
        <time>2015-04-07T15:55:49.000Z</time>
      </trkpt>
      <trkpt lat="50.82866" lon="1.59169">
        <ele>14.7</ele>
        <time>2015-04-07T15:55:50.000Z</time>
      </trkpt>
      <trkpt lat="50.82865" lon="1.59169">
        <ele>14.8</ele>
        <time>2015-04-07T15:55:51.000Z</time>
      </trkpt>
      <trkpt lat="50.82864" lon="1.5917">
        <ele>14.9</ele>
        <time>2015-04-07T15:55:52.000Z</time>
      </trkpt>
      <trkpt lat="50.82864" lon="1.5917">
        <ele>15</ele>
        <time>2015-04-07T15:55:53.000Z</time>
      </trkpt>
      <trkpt lat="50.82863" lon="1.59171">
        <ele>15</ele>
        <time>2015-04-07T15:55:54.000Z</time>
      </trkpt>
      <trkpt lat="50.82862" lon="1.59171">
        <ele>15.1</ele>
        <time>2015-04-07T15:55:55.000Z</time>
      </trkpt>
      <trkpt lat="50.82861" lon="1.59172">
        <ele>15.2</ele>
        <time>2015-04-07T15:55:56.000Z</time>
      </trkpt>
      <trkpt lat="50.8286" lon="1.59173">
        <ele>15.2</ele>
        <time>2015-04-07T15:55:57.000Z</time>
      </trkpt>
      <trkpt lat="50.82859" lon="1.59173">
        <ele>15.3</ele>
        <time>2015-04-07T15:55:58.000Z</time>
      </trkpt>
      <trkpt lat="50.82858" lon="1.59174">
        <ele>15.4</ele>
        <time>2015-04-07T15:55:59.000Z</time>
      </trkpt>
      <trkpt lat="50.82857" lon="1.59175">
        <ele>15.4</ele>
        <time>2015-04-07T15:56:00.000Z</time>
      </trkpt>
      <trkpt lat="50.82857" lon="1.59176">
        <ele>15.5</ele>
        <time>2015-04-07T15:56:01.000Z</time>
      </trkpt>
      <trkpt lat="50.82856" lon="1.59177">
        <ele>15.6</ele>
        <time>2015-04-07T15:56:02.000Z</time>
      </trkpt>
      <trkpt lat="50.82855" lon="1.59177">
        <ele>15.6</ele>
        <time>2015-04-07T15:56:03.000Z</time>
      </trkpt>
      <trkpt lat="50.82854" lon="1.59178">
        <ele>15.7</ele>
        <time>2015-04-07T15:56:04.000Z</time>
      </trkpt>
      <trkpt lat="50.82852" lon="1.59179">
        <ele>15.8</ele>
        <time>2015-04-07T15:56:05.000Z</time>
      </trkpt>
      <trkpt lat="50.82852" lon="1.5918">
        <ele>15.8</ele>
        <time>2015-04-07T15:56:06.000Z</time>
      </trkpt>
      <trkpt lat="50.82851" lon="1.5918">
        <ele>15.9</ele>
        <time>2015-04-07T15:56:07.000Z</time>
      </trkpt>
      <trkpt lat="50.8285" lon="1.59181">
        <ele>15.9</ele>
        <time>2015-04-07T15:56:08.000Z</time>
      </trkpt>
      <trkpt lat="50.82849" lon="1.59182">
        <ele>16</ele>
        <time>2015-04-07T15:56:09.000Z</time>
      </trkpt>
      <trkpt lat="50.82848" lon="1.59183">
        <ele>16.1</ele>
        <time>2015-04-07T15:56:10.000Z</time>
      </trkpt>
      <trkpt lat="50.82847" lon="1.59183">
        <ele>16.1</ele>
        <time>2015-04-07T15:56:11.000Z</time>
      </trkpt>
      <trkpt lat="50.82846" lon="1.59184">
        <ele>16.2</ele>
        <time>2015-04-07T15:56:12.000Z</time>
      </trkpt>
      <trkpt lat="50.82845" lon="1.59185">
        <ele>16.2</ele>
        <time>2015-04-07T15:56:13.000Z</time>
      </trkpt>
      <trkpt lat="50.82844" lon="1.59185">
        <ele>16.3</ele>
        <time>2015-04-07T15:56:14.000Z</time>
      </trkpt>
      <trkpt lat="50.82843" lon="1.59186">
        <ele>16.4</ele>
        <time>2015-04-07T15:56:15.000Z</time>
      </trkpt>
      <trkpt lat="50.82842" lon="1.59187">
        <ele>16.4</ele>
        <time>2015-04-07T15:56:16.000Z</time>
      </trkpt>
      <trkpt lat="50.82841" lon="1.59188">
        <ele>16.5</ele>
        <time>2015-04-07T15:56:17.000Z</time>
      </trkpt>
      <trkpt lat="50.8284" lon="1.59188">
        <ele>16.5</ele>
        <time>2015-04-07T15:56:18.000Z</time>
      </trkpt>
      <trkpt lat="50.82839" lon="1.59189">
        <ele>16.6</ele>
        <time>2015-04-07T15:56:19.000Z</time>
      </trkpt>
      <trkpt lat="50.82838" lon="1.5919">
        <ele>16.7</ele>
        <time>2015-04-07T15:56:20.000Z</time>
      </trkpt>
      <trkpt lat="50.82837" lon="1.59191">
        <ele>16.7</ele>
        <time>2015-04-07T15:56:21.000Z</time>
      </trkpt>
      <trkpt lat="50.82836" lon="1.59191">
        <ele>16.8</ele>
        <time>2015-04-07T15:56:22.000Z</time>
      </trkpt>
      <trkpt lat="50.82835" lon="1.59192">
        <ele>16.8</ele>
        <time>2015-04-07T15:56:23.000Z</time>
      </trkpt>
      <trkpt lat="50.82834" lon="1.59193">
        <ele>16.9</ele>
        <time>2015-04-07T15:56:24.000Z</time>
      </trkpt>
      <trkpt lat="50.82834" lon="1.59193">
        <ele>17</ele>
        <time>2015-04-07T15:56:25.000Z</time>
      </trkpt>
      <trkpt lat="50.82833" lon="1.59194">
        <ele>17</ele>
        <time>2015-04-07T15:56:26.000Z</time>
      </trkpt>
      <trkpt lat="50.82832" lon="1.59195">
        <ele>17.1</ele>
        <time>2015-04-07T15:56:27.000Z</time>
      </trkpt>
      <trkpt lat="50.82831" lon="1.59196">
        <ele>17.1</ele>
        <time>2015-04-07T15:56:28.000Z</time>
      </trkpt>
      <trkpt lat="50.8283" lon="1.59196">
        <ele>17.2</ele>
        <time>2015-04-07T15:56:29.000Z</time>
      </trkpt>
      <trkpt lat="50.82829" lon="1.59197">
        <ele>17.3</ele>
        <time>2015-04-07T15:56:30.000Z</time>
      </trkpt>
      <trkpt lat="50.82827" lon="1.59198">
        <ele>17.3</ele>
        <time>2015-04-07T15:56:31.000Z</time>
      </trkpt>
      <trkpt lat="50.82826" lon="1.59199">
        <ele>17.4</ele>
        <time>2015-04-07T15:56:32.000Z</time>
      </trkpt>
      <trkpt lat="50.82825" lon="1.592">
        <ele>17.4</ele>
        <time>2015-04-07T15:56:33.000Z</time>
      </trkpt>
      <trkpt lat="50.82824" lon="1.59201">
        <ele>17.5</ele>
        <time>2015-04-07T15:56:34.000Z</time>
      </trkpt>
      <trkpt lat="50.82823" lon="1.59202">
        <ele>17.5</ele>
        <time>2015-04-07T15:56:35.000Z</time>
      </trkpt>
      <trkpt lat="50.82822" lon="1.59202">
        <ele>17.6</ele>
        <time>2015-04-07T15:56:36.000Z</time>
      </trkpt>
      <trkpt lat="50.82821" lon="1.59203">
        <ele>17.6</ele>
        <time>2015-04-07T15:56:37.000Z</time>
      </trkpt>
      <trkpt lat="50.8282" lon="1.59204">
        <ele>17.7</ele>
        <time>2015-04-07T15:56:38.000Z</time>
      </trkpt>
      <trkpt lat="50.82819" lon="1.59205">
        <ele>17.7</ele>
        <time>2015-04-07T15:56:39.000Z</time>
      </trkpt>
      <trkpt lat="50.82817" lon="1.59206">
        <ele>17.7</ele>
        <time>2015-04-07T15:56:40.000Z</time>
      </trkpt>
      <trkpt lat="50.82816" lon="1.59207">
        <ele>17.8</ele>
        <time>2015-04-07T15:56:41.000Z</time>
      </trkpt>
      <trkpt lat="50.82815" lon="1.59208">
        <ele>17.8</ele>
        <time>2015-04-07T15:56:42.000Z</time>
      </trkpt>
      <trkpt lat="50.82814" lon="1.59208">
        <ele>17.8</ele>
        <time>2015-04-07T15:56:43.000Z</time>
      </trkpt>
      <trkpt lat="50.82813" lon="1.59209">
        <ele>17.9</ele>
        <time>2015-04-07T15:56:44.000Z</time>
      </trkpt>
      <trkpt lat="50.82812" lon="1.5921">
        <ele>17.9</ele>
        <time>2015-04-07T15:56:45.000Z</time>
      </trkpt>
      <trkpt lat="50.82811" lon="1.59211">
        <ele>17.9</ele>
        <time>2015-04-07T15:56:46.000Z</time>
      </trkpt>
      <trkpt lat="50.8281" lon="1.59212">
        <ele>17.9</ele>
        <time>2015-04-07T15:56:47.000Z</time>
      </trkpt>
      <trkpt lat="50.82809" lon="1.59212">
        <ele>18</ele>
        <time>2015-04-07T15:56:48.000Z</time>
      </trkpt>
      <trkpt lat="50.82808" lon="1.59213">
        <ele>18</ele>
        <time>2015-04-07T15:56:49.000Z</time>
      </trkpt>
      <trkpt lat="50.82807" lon="1.59214">
        <ele>18</ele>
        <time>2015-04-07T15:56:50.000Z</time>
      </trkpt>
      <trkpt lat="50.82806" lon="1.59215">
        <ele>18</ele>
        <time>2015-04-07T15:56:51.000Z</time>
      </trkpt>
      <trkpt lat="50.82805" lon="1.59216">
        <ele>18</ele>
        <time>2015-04-07T15:56:52.000Z</time>
      </trkpt>
      <trkpt lat="50.82804" lon="1.59216">
        <ele>18.1</ele>
        <time>2015-04-07T15:56:53.000Z</time>
      </trkpt>
      <trkpt lat="50.82803" lon="1.59217">
        <ele>18.1</ele>
        <time>2015-04-07T15:56:54.000Z</time>
      </trkpt>
      <trkpt lat="50.82802" lon="1.59218">
        <ele>18.1</ele>
        <time>2015-04-07T15:56:55.000Z</time>
      </trkpt>
      <trkpt lat="50.82801" lon="1.59219">
        <ele>18.2</ele>
        <time>2015-04-07T15:56:56.000Z</time>
      </trkpt>
      <trkpt lat="50.828" lon="1.59219">
        <ele>18.2</ele>
        <time>2015-04-07T15:56:57.000Z</time>
      </trkpt>
      <trkpt lat="50.828" lon="1.5922">
        <ele>18.2</ele>
        <time>2015-04-07T15:56:58.000Z</time>
      </trkpt>
      <trkpt lat="50.82798" lon="1.59222">
        <ele>18.3</ele>
        <time>2015-04-07T15:56:59.000Z</time>
      </trkpt>
      <trkpt lat="50.82798" lon="1.59222">
        <ele>18.3</ele>
        <time>2015-04-07T15:57:00.000Z</time>
      </trkpt>
      <trkpt lat="50.82797" lon="1.59222">
        <ele>18.3</ele>
        <time>2015-04-07T15:57:01.000Z</time>
      </trkpt>
      <trkpt lat="50.82797" lon="1.59222">
        <ele>18.3</ele>
        <time>2015-04-07T15:57:02.000Z</time>
      </trkpt>
      <trkpt lat="50.82797" lon="1.59222">
        <ele>18.3</ele>
        <time>2015-04-07T15:57:03.000Z</time>
      </trkpt>
      <trkpt lat="50.82797" lon="1.59222">
        <ele>18.3</ele>
        <time>2015-04-07T15:57:04.000Z</time>
      </trkpt>
      <trkpt lat="50.82797" lon="1.59222">
        <ele>18.3</ele>
        <time>2015-04-07T15:57:05.000Z</time>
      </trkpt>
      <trkpt lat="50.82797" lon="1.59222">
        <ele>18.3</ele>
        <time>2015-04-07T15:57:06.000Z</time>
      </trkpt>
      <trkpt lat="50.82797" lon="1.59222">
        <ele>18.3</ele>
        <time>2015-04-07T15:57:07.000Z</time>
      </trkpt>
      <trkpt lat="50.82797" lon="1.59221">
        <ele>18.3</ele>
        <time>2015-04-07T15:57:08.000Z</time>
      </trkpt>
      <trkpt lat="50.82797" lon="1.59221">
        <ele>18.3</ele>
        <time>2015-04-07T15:57:09.000Z</time>
      </trkpt>
      <trkpt lat="50.82797" lon="1.59221">
        <ele>18.3</ele>
        <time>2015-04-07T15:57:10.000Z</time>
      </trkpt>
      <trkpt lat="50.82797" lon="1.59221">
        <ele>18.3</ele>
        <time>2015-04-07T15:57:11.000Z</time>
      </trkpt>
      <trkpt lat="50.82797" lon="1.59221">
        <ele>18.3</ele>
        <time>2015-04-07T15:57:12.000Z</time>
      </trkpt>
      <trkpt lat="50.82797" lon="1.59221">
        <ele>18.3</ele>
        <time>2015-04-07T15:57:13.000Z</time>
      </trkpt>
      <trkpt lat="50.82797" lon="1.59222">
        <ele>18.3</ele>
        <time>2015-04-07T15:57:14.000Z</time>
      </trkpt>
      <trkpt lat="50.82797" lon="1.59222">
        <ele>18.3</ele>
        <time>2015-04-07T15:57:15.000Z</time>
      </trkpt>
      <trkpt lat="50.82797" lon="1.59222">
        <ele>18.3</ele>
        <time>2015-04-07T15:57:16.000Z</time>
      </trkpt>
      <trkpt lat="50.82797" lon="1.59222">
        <ele>18.3</ele>
        <time>2015-04-07T15:57:17.000Z</time>
      </trkpt>
      <trkpt lat="50.82797" lon="1.59222">
        <ele>18.3</ele>
        <time>2015-04-07T15:57:18.000Z</time>
      </trkpt>
      <trkpt lat="50.82797" lon="1.59222">
        <ele>18.3</ele>
        <time>2015-04-07T15:57:19.000Z</time>
      </trkpt>
      <trkpt lat="50.82797" lon="1.59222">
        <ele>18.3</ele>
        <time>2015-04-07T15:57:20.000Z</time>
      </trkpt>
      <trkpt lat="50.82797" lon="1.59222">
        <ele>18.3</ele>
        <time>2015-04-07T15:57:21.000Z</time>
      </trkpt>
      <trkpt lat="50.82797" lon="1.59222">
        <ele>18.3</ele>
        <time>2015-04-07T15:57:22.000Z</time>
      </trkpt>
      <trkpt lat="50.82797" lon="1.59222">
        <ele>18.3</ele>
        <time>2015-04-07T15:57:23.000Z</time>
      </trkpt>
      <trkpt lat="50.82797" lon="1.59222">
        <ele>18.3</ele>
        <time>2015-04-07T15:57:24.000Z</time>
      </trkpt>
      <trkpt lat="50.82797" lon="1.59222">
        <ele>18.3</ele>
        <time>2015-04-07T15:57:25.000Z</time>
      </trkpt>
      <trkpt lat="50.82797" lon="1.59222">
        <ele>18.3</ele>
        <time>2015-04-07T15:57:26.000Z</time>
      </trkpt>
      <trkpt lat="50.82797" lon="1.59223">
        <ele>18.3</ele>
        <time>2015-04-07T15:57:27.000Z</time>
      </trkpt>
      <trkpt lat="50.82797" lon="1.59223">
        <ele>18.3</ele>
        <time>2015-04-07T15:57:28.000Z</time>
      </trkpt>
      <trkpt lat="50.82795" lon="1.59224">
        <ele>18.4</ele>
        <time>2015-04-07T15:57:29.000Z</time>
      </trkpt>
      <trkpt lat="50.82795" lon="1.59224">
        <ele>18.4</ele>
        <time>2015-04-07T15:57:30.000Z</time>
      </trkpt>
      <trkpt lat="50.82795" lon="1.59224">
        <ele>18.4</ele>
        <time>2015-04-07T15:57:31.000Z</time>
      </trkpt>
      <trkpt lat="50.82795" lon="1.59224">
        <ele>18.4</ele>
        <time>2015-04-07T15:57:32.000Z</time>
      </trkpt>
      <trkpt lat="50.82795" lon="1.59224">
        <ele>18.4</ele>
        <time>2015-04-07T15:57:33.000Z</time>
      </trkpt>
      <trkpt lat="50.82795" lon="1.59224">
        <ele>18.4</ele>
        <time>2015-04-07T15:57:34.000Z</time>
      </trkpt>
      <trkpt lat="50.82795" lon="1.59224">
        <ele>18.4</ele>
        <time>2015-04-07T15:57:35.000Z</time>
      </trkpt>
      <trkpt lat="50.82795" lon="1.59224">
        <ele>18.4</ele>
        <time>2015-04-07T15:57:36.000Z</time>
      </trkpt>
      <trkpt lat="50.82795" lon="1.59224">
        <ele>18.4</ele>
        <time>2015-04-07T15:57:37.000Z</time>
      </trkpt>
      <trkpt lat="50.82795" lon="1.59224">
        <ele>18.4</ele>
        <time>2015-04-07T15:57:38.000Z</time>
      </trkpt>
      <trkpt lat="50.82795" lon="1.59224">
        <ele>18.4</ele>
        <time>2015-04-07T15:57:39.000Z</time>
      </trkpt>
      <trkpt lat="50.82795" lon="1.59224">
        <ele>18.4</ele>
        <time>2015-04-07T15:57:40.000Z</time>
      </trkpt>
      <trkpt lat="50.82794" lon="1.59223">
        <ele>18.5</ele>
        <time>2015-04-07T15:57:41.000Z</time>
      </trkpt>
      <trkpt lat="50.82794" lon="1.59223">
        <ele>18.5</ele>
        <time>2015-04-07T15:57:42.000Z</time>
      </trkpt>
      <trkpt lat="50.82794" lon="1.59223">
        <ele>18.5</ele>
        <time>2015-04-07T15:57:43.000Z</time>
      </trkpt>
      <trkpt lat="50.82794" lon="1.59223">
        <ele>18.4</ele>
        <time>2015-04-07T15:57:44.000Z</time>
      </trkpt>
      <trkpt lat="50.82794" lon="1.59223">
        <ele>18.4</ele>
        <time>2015-04-07T15:57:45.000Z</time>
      </trkpt>
      <trkpt lat="50.82794" lon="1.59223">
        <ele>18.4</ele>
        <time>2015-04-07T15:57:46.000Z</time>
      </trkpt>
      <trkpt lat="50.82794" lon="1.59223">
        <ele>18.4</ele>
        <time>2015-04-07T15:57:47.000Z</time>
      </trkpt>
      <trkpt lat="50.82794" lon="1.59223">
        <ele>18.4</ele>
        <time>2015-04-07T15:57:48.000Z</time>
      </trkpt>
      <trkpt lat="50.82794" lon="1.59223">
        <ele>18.4</ele>
        <time>2015-04-07T15:57:49.000Z</time>
      </trkpt>
      <trkpt lat="50.82794" lon="1.59223">
        <ele>18.4</ele>
        <time>2015-04-07T15:57:50.000Z</time>
      </trkpt>
      <trkpt lat="50.82794" lon="1.59223">
        <ele>18.4</ele>
        <time>2015-04-07T15:57:51.000Z</time>
      </trkpt>
      <trkpt lat="50.82794" lon="1.59223">
        <ele>18.4</ele>
        <time>2015-04-07T15:57:52.000Z</time>
      </trkpt>
      <trkpt lat="50.82794" lon="1.59223">
        <ele>18.4</ele>
        <time>2015-04-07T15:57:53.000Z</time>
      </trkpt>
      <trkpt lat="50.82794" lon="1.59223">
        <ele>18.4</ele>
        <time>2015-04-07T15:57:54.000Z</time>
      </trkpt>
      <trkpt lat="50.82794" lon="1.59223">
        <ele>18.4</ele>
        <time>2015-04-07T15:57:55.000Z</time>
      </trkpt>
      <trkpt lat="50.82794" lon="1.59223">
        <ele>18.4</ele>
        <time>2015-04-07T15:57:56.000Z</time>
      </trkpt>
      <trkpt lat="50.82794" lon="1.59223">
        <ele>18.4</ele>
        <time>2015-04-07T15:57:57.000Z</time>
      </trkpt>
      <trkpt lat="50.82794" lon="1.59223">
        <ele>18.4</ele>
        <time>2015-04-07T15:57:58.000Z</time>
      </trkpt>
      <trkpt lat="50.82794" lon="1.59223">
        <ele>18.4</ele>
        <time>2015-04-07T15:57:59.000Z</time>
      </trkpt>
      <trkpt lat="50.82794" lon="1.59223">
        <ele>18.4</ele>
        <time>2015-04-07T15:58:00.000Z</time>
      </trkpt>
      <trkpt lat="50.82795" lon="1.59223">
        <ele>18.4</ele>
        <time>2015-04-07T15:58:01.000Z</time>
      </trkpt>
      <trkpt lat="50.82795" lon="1.59223">
        <ele>18.4</ele>
        <time>2015-04-07T15:58:02.000Z</time>
      </trkpt>
      <trkpt lat="50.82795" lon="1.59222">
        <ele>18.4</ele>
        <time>2015-04-07T15:58:03.000Z</time>
      </trkpt>
      <trkpt lat="50.82795" lon="1.59222">
        <ele>18.4</ele>
        <time>2015-04-07T15:58:04.000Z</time>
      </trkpt>
      <trkpt lat="50.82795" lon="1.59221">
        <ele>18.4</ele>
        <time>2015-04-07T15:58:05.000Z</time>
      </trkpt>
      <trkpt lat="50.82795" lon="1.5922">
        <ele>18.4</ele>
        <time>2015-04-07T15:58:06.000Z</time>
      </trkpt>
      <trkpt lat="50.82795" lon="1.5922">
        <ele>18.4</ele>
        <time>2015-04-07T15:58:07.000Z</time>
      </trkpt>
      <trkpt lat="50.82795" lon="1.59219">
        <ele>18.4</ele>
        <time>2015-04-07T15:58:08.000Z</time>
      </trkpt>
      <trkpt lat="50.82795" lon="1.59218">
        <ele>18.4</ele>
        <time>2015-04-07T15:58:09.000Z</time>
      </trkpt>
      <trkpt lat="50.82795" lon="1.59219">
        <ele>18.4</ele>
        <time>2015-04-07T15:58:10.000Z</time>
      </trkpt>
      <trkpt lat="50.82795" lon="1.59219">
        <ele>18.4</ele>
        <time>2015-04-07T15:58:11.000Z</time>
      </trkpt>
      <trkpt lat="50.82795" lon="1.5922">
        <ele>18.4</ele>
        <time>2015-04-07T15:58:12.000Z</time>
      </trkpt>
      <trkpt lat="50.82795" lon="1.5922">
        <ele>18.4</ele>
        <time>2015-04-07T15:58:13.000Z</time>
      </trkpt>
      <trkpt lat="50.82796" lon="1.59221">
        <ele>18.4</ele>
        <time>2015-04-07T15:58:14.000Z</time>
      </trkpt>
      <trkpt lat="50.82796" lon="1.59221">
        <ele>18.4</ele>
        <time>2015-04-07T15:58:15.000Z</time>
      </trkpt>
      <trkpt lat="50.82796" lon="1.59221">
        <ele>18.4</ele>
        <time>2015-04-07T15:58:16.000Z</time>
      </trkpt>
      <trkpt lat="50.82796" lon="1.59221">
        <ele>18.4</ele>
        <time>2015-04-07T15:58:17.000Z</time>
      </trkpt>
      <trkpt lat="50.82796" lon="1.59221">
        <ele>18.4</ele>
        <time>2015-04-07T15:58:18.000Z</time>
      </trkpt>
      <trkpt lat="50.82796" lon="1.59221">
        <ele>18.4</ele>
        <time>2015-04-07T15:58:19.000Z</time>
      </trkpt>
      <trkpt lat="50.82796" lon="1.59221">
        <ele>18.4</ele>
        <time>2015-04-07T15:58:20.000Z</time>
      </trkpt>
      <trkpt lat="50.82796" lon="1.59221">
        <ele>18.4</ele>
        <time>2015-04-07T15:58:21.000Z</time>
      </trkpt>
      <trkpt lat="50.82796" lon="1.59221">
        <ele>18.4</ele>
        <time>2015-04-07T15:58:22.000Z</time>
      </trkpt>
      <trkpt lat="50.82796" lon="1.59221">
        <ele>18.4</ele>
        <time>2015-04-07T15:58:23.000Z</time>
      </trkpt>
      <trkpt lat="50.82796" lon="1.59221">
        <ele>18.4</ele>
        <time>2015-04-07T15:58:24.000Z</time>
      </trkpt>
      <trkpt lat="50.82796" lon="1.59221">
        <ele>18.3</ele>
        <time>2015-04-07T15:58:25.000Z</time>
      </trkpt>
      <trkpt lat="50.82796" lon="1.59221">
        <ele>18.3</ele>
        <time>2015-04-07T15:58:26.000Z</time>
      </trkpt>
      <trkpt lat="50.82796" lon="1.59221">
        <ele>18.3</ele>
        <time>2015-04-07T15:58:27.000Z</time>
      </trkpt>
      <trkpt lat="50.82796" lon="1.59221">
        <ele>18.3</ele>
        <time>2015-04-07T15:58:28.000Z</time>
      </trkpt>
      <trkpt lat="50.82796" lon="1.59221">
        <ele>18.3</ele>
        <time>2015-04-07T15:58:29.000Z</time>
      </trkpt>
      <trkpt lat="50.82796" lon="1.59221">
        <ele>18.3</ele>
        <time>2015-04-07T15:58:30.000Z</time>
      </trkpt>
      <trkpt lat="50.82796" lon="1.59221">
        <ele>18.3</ele>
        <time>2015-04-07T15:58:31.000Z</time>
      </trkpt>
      <trkpt lat="50.82796" lon="1.59221">
        <ele>18.3</ele>
        <time>2015-04-07T15:58:32.000Z</time>
      </trkpt>
      <trkpt lat="50.82796" lon="1.59221">
        <ele>18.3</ele>
        <time>2015-04-07T15:58:33.000Z</time>
      </trkpt>
      <trkpt lat="50.82796" lon="1.59221">
        <ele>18.3</ele>
        <time>2015-04-07T15:58:34.000Z</time>
      </trkpt>
      <trkpt lat="50.82796" lon="1.59221">
        <ele>18.4</ele>
        <time>2015-04-07T15:58:35.000Z</time>
      </trkpt>
      <trkpt lat="50.82796" lon="1.59221">
        <ele>18.4</ele>
        <time>2015-04-07T15:58:36.000Z</time>
      </trkpt>
      <trkpt lat="50.82796" lon="1.59221">
        <ele>18.4</ele>
        <time>2015-04-07T15:58:37.000Z</time>
      </trkpt>
      <trkpt lat="50.82796" lon="1.59221">
        <ele>18.4</ele>
        <time>2015-04-07T15:58:38.000Z</time>
      </trkpt>
      <trkpt lat="50.82796" lon="1.59221">
        <ele>18.4</ele>
        <time>2015-04-07T15:58:39.000Z</time>
      </trkpt>
      <trkpt lat="50.82796" lon="1.59221">
        <ele>18.4</ele>
        <time>2015-04-07T15:58:40.000Z</time>
      </trkpt>
      <trkpt lat="50.82796" lon="1.59221">
        <ele>18.4</ele>
        <time>2015-04-07T15:58:41.000Z</time>
      </trkpt>
      <trkpt lat="50.82796" lon="1.59221">
        <ele>18.4</ele>
        <time>2015-04-07T15:58:42.000Z</time>
      </trkpt>
      <trkpt lat="50.82796" lon="1.59221">
        <ele>18.4</ele>
        <time>2015-04-07T15:58:43.000Z</time>
      </trkpt>
      <trkpt lat="50.82796" lon="1.59221">
        <ele>18.4</ele>
        <time>2015-04-07T15:58:44.000Z</time>
      </trkpt>
      <trkpt lat="50.82796" lon="1.59221">
        <ele>18.4</ele>
        <time>2015-04-07T15:58:45.000Z</time>
      </trkpt>
      <trkpt lat="50.82796" lon="1.59221">
        <ele>18.4</ele>
        <time>2015-04-07T15:58:46.000Z</time>
      </trkpt>
      <trkpt lat="50.82795" lon="1.59221">
        <ele>18.4</ele>
        <time>2015-04-07T15:58:47.000Z</time>
      </trkpt>
      <trkpt lat="50.82795" lon="1.59221">
        <ele>18.4</ele>
        <time>2015-04-07T15:58:48.000Z</time>
      </trkpt>
      <trkpt lat="50.82795" lon="1.59221">
        <ele>18.4</ele>
        <time>2015-04-07T15:58:49.000Z</time>
      </trkpt>
      <trkpt lat="50.82795" lon="1.59221">
        <ele>18.4</ele>
        <time>2015-04-07T15:58:50.000Z</time>
      </trkpt>
      <trkpt lat="50.82795" lon="1.59221">
        <ele>18.4</ele>
        <time>2015-04-07T15:58:51.000Z</time>
      </trkpt>
      <trkpt lat="50.82795" lon="1.59221">
        <ele>18.4</ele>
        <time>2015-04-07T15:58:52.000Z</time>
      </trkpt>
      <trkpt lat="50.82795" lon="1.59221">
        <ele>18.4</ele>
        <time>2015-04-07T15:58:53.000Z</time>
      </trkpt>
      <trkpt lat="50.82795" lon="1.59221">
        <ele>18.4</ele>
        <time>2015-04-07T15:58:54.000Z</time>
      </trkpt>
      <trkpt lat="50.82795" lon="1.59221">
        <ele>18.4</ele>
        <time>2015-04-07T15:58:55.000Z</time>
      </trkpt>
      <trkpt lat="50.82795" lon="1.59221">
        <ele>18.4</ele>
        <time>2015-04-07T15:58:56.000Z</time>
      </trkpt>
      <trkpt lat="50.82796" lon="1.59221">
        <ele>18.4</ele>
        <time>2015-04-07T15:58:57.000Z</time>
      </trkpt>
      <trkpt lat="50.82796" lon="1.59221">
        <ele>18.4</ele>
        <time>2015-04-07T15:58:58.000Z</time>
      </trkpt>
      <trkpt lat="50.82796" lon="1.5922">
        <ele>18.4</ele>
        <time>2015-04-07T15:58:59.000Z</time>
      </trkpt>
      <trkpt lat="50.82796" lon="1.5922">
        <ele>18.4</ele>
        <time>2015-04-07T15:59:00.000Z</time>
      </trkpt>
      <trkpt lat="50.82796" lon="1.5922">
        <ele>18.4</ele>
        <time>2015-04-07T15:59:01.000Z</time>
      </trkpt>
      <trkpt lat="50.82796" lon="1.5922">
        <ele>18.4</ele>
        <time>2015-04-07T15:59:02.000Z</time>
      </trkpt>
      <trkpt lat="50.82796" lon="1.5922">
        <ele>18.4</ele>
        <time>2015-04-07T15:59:03.000Z</time>
      </trkpt>
      <trkpt lat="50.82796" lon="1.5922">
        <ele>18.4</ele>
        <time>2015-04-07T15:59:04.000Z</time>
      </trkpt>
      <trkpt lat="50.82796" lon="1.5922">
        <ele>18.4</ele>
        <time>2015-04-07T15:59:05.000Z</time>
      </trkpt>
      <trkpt lat="50.82796" lon="1.5922">
        <ele>18.4</ele>
        <time>2015-04-07T15:59:06.000Z</time>
      </trkpt>
      <trkpt lat="50.82796" lon="1.5922">
        <ele>18.4</ele>
        <time>2015-04-07T15:59:07.000Z</time>
      </trkpt>
      <trkpt lat="50.82796" lon="1.5922">
        <ele>18.4</ele>
        <time>2015-04-07T15:59:08.000Z</time>
      </trkpt>
      <trkpt lat="50.82796" lon="1.5922">
        <ele>18.4</ele>
        <time>2015-04-07T15:59:09.000Z</time>
      </trkpt>
      <trkpt lat="50.82796" lon="1.5922">
        <ele>18.4</ele>
        <time>2015-04-07T15:59:10.000Z</time>
      </trkpt>
      <trkpt lat="50.82796" lon="1.5922">
        <ele>18.4</ele>
        <time>2015-04-07T15:59:11.000Z</time>
      </trkpt>
      <trkpt lat="50.82796" lon="1.5922">
        <ele>18.4</ele>
        <time>2015-04-07T15:59:12.000Z</time>
      </trkpt>
      <trkpt lat="50.82796" lon="1.5922">
        <ele>18.4</ele>
        <time>2015-04-07T15:59:13.000Z</time>
      </trkpt>
      <trkpt lat="50.82796" lon="1.5922">
        <ele>18.4</ele>
        <time>2015-04-07T15:59:14.000Z</time>
      </trkpt>
      <trkpt lat="50.82796" lon="1.5922">
        <ele>18.4</ele>
        <time>2015-04-07T15:59:15.000Z</time>
      </trkpt>
      <trkpt lat="50.82796" lon="1.5922">
        <ele>18.4</ele>
        <time>2015-04-07T15:59:16.000Z</time>
      </trkpt>
      <trkpt lat="50.82796" lon="1.5922">
        <ele>18.4</ele>
        <time>2015-04-07T15:59:17.000Z</time>
      </trkpt>
      <trkpt lat="50.82796" lon="1.5922">
        <ele>18.4</ele>
        <time>2015-04-07T15:59:18.000Z</time>
      </trkpt>
      <trkpt lat="50.82796" lon="1.5922">
        <ele>18.4</ele>
        <time>2015-04-07T15:59:19.000Z</time>
      </trkpt>
      <trkpt lat="50.82796" lon="1.5922">
        <ele>18.4</ele>
        <time>2015-04-07T15:59:20.000Z</time>
      </trkpt>
      <trkpt lat="50.82796" lon="1.5922">
        <ele>18.4</ele>
        <time>2015-04-07T15:59:21.000Z</time>
      </trkpt>
      <trkpt lat="50.82796" lon="1.5922">
        <ele>18.4</ele>
        <time>2015-04-07T15:59:22.000Z</time>
      </trkpt>
      <trkpt lat="50.82796" lon="1.5922">
        <ele>18.4</ele>
        <time>2015-04-07T15:59:23.000Z</time>
      </trkpt>
      <trkpt lat="50.82796" lon="1.5922">
        <ele>18.4</ele>
        <time>2015-04-07T15:59:24.000Z</time>
      </trkpt>
      <trkpt lat="50.82796" lon="1.5922">
        <ele>18.4</ele>
        <time>2015-04-07T15:59:25.000Z</time>
      </trkpt>
      <trkpt lat="50.82796" lon="1.5922">
        <ele>18.4</ele>
        <time>2015-04-07T15:59:26.000Z</time>
      </trkpt>
      <trkpt lat="50.82796" lon="1.5922">
        <ele>18.4</ele>
        <time>2015-04-07T15:59:27.000Z</time>
      </trkpt>
      <trkpt lat="50.82796" lon="1.5922">
        <ele>18.4</ele>
        <time>2015-04-07T15:59:28.000Z</time>
      </trkpt>
      <trkpt lat="50.82796" lon="1.5922">
        <ele>18.4</ele>
        <time>2015-04-07T15:59:29.000Z</time>
      </trkpt>
      <trkpt lat="50.82796" lon="1.5922">
        <ele>18.4</ele>
        <time>2015-04-07T15:59:30.000Z</time>
      </trkpt>
      <trkpt lat="50.82796" lon="1.5922">
        <ele>18.4</ele>
        <time>2015-04-07T15:59:31.000Z</time>
      </trkpt>
      <trkpt lat="50.82796" lon="1.5922">
        <ele>18.4</ele>
        <time>2015-04-07T15:59:32.000Z</time>
      </trkpt>
      <trkpt lat="50.82796" lon="1.5922">
        <ele>18.4</ele>
        <time>2015-04-07T15:59:33.000Z</time>
      </trkpt>
      <trkpt lat="50.82796" lon="1.5922">
        <ele>18.4</ele>
        <time>2015-04-07T15:59:34.000Z</time>
      </trkpt>
      <trkpt lat="50.82796" lon="1.5922">
        <ele>18.4</ele>
        <time>2015-04-07T15:59:35.000Z</time>
      </trkpt>
      <trkpt lat="50.82796" lon="1.5922">
        <ele>18.4</ele>
        <time>2015-04-07T15:59:36.000Z</time>
      </trkpt>
      <trkpt lat="50.82796" lon="1.5922">
        <ele>18.4</ele>
        <time>2015-04-07T15:59:37.000Z</time>
      </trkpt>
      <trkpt lat="50.82796" lon="1.5922">
        <ele>18.4</ele>
        <time>2015-04-07T15:59:38.000Z</time>
      </trkpt>
      <trkpt lat="50.82796" lon="1.5922">
        <ele>18.4</ele>
        <time>2015-04-07T15:59:39.000Z</time>
      </trkpt>
      <trkpt lat="50.82796" lon="1.5922">
        <ele>18.4</ele>
        <time>2015-04-07T15:59:40.000Z</time>
      </trkpt>
      <trkpt lat="50.82796" lon="1.5922">
        <ele>18.4</ele>
        <time>2015-04-07T15:59:41.000Z</time>
      </trkpt>
      <trkpt lat="50.82796" lon="1.5922">
        <ele>18.4</ele>
        <time>2015-04-07T15:59:42.000Z</time>
      </trkpt>
      <trkpt lat="50.82796" lon="1.5922">
        <ele>18.4</ele>
        <time>2015-04-07T15:59:43.000Z</time>
      </trkpt>
      <trkpt lat="50.82796" lon="1.5922">
        <ele>18.4</ele>
        <time>2015-04-07T15:59:44.000Z</time>
      </trkpt>
      <trkpt lat="50.82796" lon="1.5922">
        <ele>18.4</ele>
        <time>2015-04-07T15:59:45.000Z</time>
      </trkpt>
      <trkpt lat="50.82796" lon="1.5922">
        <ele>18.4</ele>
        <time>2015-04-07T15:59:46.000Z</time>
      </trkpt>
      <trkpt lat="50.82796" lon="1.5922">
        <ele>18.4</ele>
        <time>2015-04-07T15:59:47.000Z</time>
      </trkpt>
      <trkpt lat="50.82796" lon="1.5922">
        <ele>18.4</ele>
        <time>2015-04-07T15:59:48.000Z</time>
      </trkpt>
      <trkpt lat="50.82796" lon="1.5922">
        <ele>18.4</ele>
        <time>2015-04-07T15:59:49.000Z</time>
      </trkpt>
      <trkpt lat="50.82796" lon="1.5922">
        <ele>18.4</ele>
        <time>2015-04-07T15:59:50.000Z</time>
      </trkpt>
      <trkpt lat="50.82796" lon="1.5922">
        <ele>18.4</ele>
        <time>2015-04-07T15:59:51.000Z</time>
      </trkpt>
      <trkpt lat="50.82796" lon="1.5922">
        <ele>18.4</ele>
        <time>2015-04-07T15:59:52.000Z</time>
      </trkpt>
      <trkpt lat="50.82796" lon="1.5922">
        <ele>18.4</ele>
        <time>2015-04-07T15:59:53.000Z</time>
      </trkpt>
      <trkpt lat="50.82796" lon="1.5922">
        <ele>18.4</ele>
        <time>2015-04-07T15:59:54.000Z</time>
      </trkpt>
      <trkpt lat="50.82796" lon="1.5922">
        <ele>18.4</ele>
        <time>2015-04-07T15:59:55.000Z</time>
      </trkpt>
      <trkpt lat="50.82796" lon="1.5922">
        <ele>18.4</ele>
        <time>2015-04-07T15:59:56.000Z</time>
      </trkpt>
      <trkpt lat="50.82796" lon="1.5922">
        <ele>18.4</ele>
        <time>2015-04-07T15:59:57.000Z</time>
      </trkpt>
      <trkpt lat="50.82796" lon="1.5922">
        <ele>18.4</ele>
        <time>2015-04-07T15:59:58.000Z</time>
      </trkpt>
      <trkpt lat="50.82796" lon="1.5922">
        <ele>18.4</ele>
        <time>2015-04-07T15:59:59.000Z</time>
      </trkpt>
      <trkpt lat="50.82796" lon="1.5922">
        <ele>18.4</ele>
        <time>2015-04-07T16:00:00.000Z</time>
      </trkpt>
      <trkpt lat="50.82796" lon="1.5922">
        <ele>18.4</ele>
        <time>2015-04-07T16:00:01.000Z</time>
      </trkpt>
      <trkpt lat="50.82796" lon="1.5922">
        <ele>18.4</ele>
        <time>2015-04-07T16:00:02.000Z</time>
      </trkpt>
      <trkpt lat="50.82796" lon="1.5922">
        <ele>18.4</ele>
        <time>2015-04-07T16:00:03.000Z</time>
      </trkpt>
      <trkpt lat="50.82796" lon="1.5922">
        <ele>18.4</ele>
        <time>2015-04-07T16:00:04.000Z</time>
      </trkpt>
      <trkpt lat="50.82796" lon="1.5922">
        <ele>18.4</ele>
        <time>2015-04-07T16:00:05.000Z</time>
      </trkpt>
      <trkpt lat="50.82796" lon="1.5922">
        <ele>18.4</ele>
        <time>2015-04-07T16:00:06.000Z</time>
      </trkpt>
      <trkpt lat="50.82796" lon="1.5922">
        <ele>18.4</ele>
        <time>2015-04-07T16:00:07.000Z</time>
      </trkpt>
      <trkpt lat="50.82796" lon="1.5922">
        <ele>18.4</ele>
        <time>2015-04-07T16:00:08.000Z</time>
      </trkpt>
      <trkpt lat="50.82796" lon="1.5922">
        <ele>18.4</ele>
        <time>2015-04-07T16:00:09.000Z</time>
      </trkpt>
      <trkpt lat="50.82796" lon="1.5922">
        <ele>18.4</ele>
        <time>2015-04-07T16:00:10.000Z</time>
      </trkpt>
      <trkpt lat="50.82796" lon="1.5922">
        <ele>18.4</ele>
        <time>2015-04-07T16:00:11.000Z</time>
      </trkpt>
      <trkpt lat="50.82796" lon="1.5922">
        <ele>18.4</ele>
        <time>2015-04-07T16:00:12.000Z</time>
      </trkpt>
      <trkpt lat="50.82796" lon="1.5922">
        <ele>18.4</ele>
        <time>2015-04-07T16:00:13.000Z</time>
      </trkpt>
      <trkpt lat="50.82796" lon="1.5922">
        <ele>18.4</ele>
        <time>2015-04-07T16:00:14.000Z</time>
      </trkpt>
      <trkpt lat="50.82796" lon="1.5922">
        <ele>18.4</ele>
        <time>2015-04-07T16:00:15.000Z</time>
      </trkpt>
      <trkpt lat="50.82796" lon="1.5922">
        <ele>18.4</ele>
        <time>2015-04-07T16:00:16.000Z</time>
      </trkpt>
      <trkpt lat="50.82796" lon="1.5922">
        <ele>18.4</ele>
        <time>2015-04-07T16:00:17.000Z</time>
      </trkpt>
      <trkpt lat="50.82796" lon="1.5922">
        <ele>18.4</ele>
        <time>2015-04-07T16:00:18.000Z</time>
      </trkpt>
      <trkpt lat="50.82796" lon="1.5922">
        <ele>18.4</ele>
        <time>2015-04-07T16:00:19.000Z</time>
      </trkpt>
      <trkpt lat="50.82796" lon="1.5922">
        <ele>18.4</ele>
        <time>2015-04-07T16:00:20.000Z</time>
      </trkpt>
      <trkpt lat="50.82796" lon="1.5922">
        <ele>18.4</ele>
        <time>2015-04-07T16:00:21.000Z</time>
      </trkpt>
      <trkpt lat="50.82796" lon="1.5922">
        <ele>18.4</ele>
        <time>2015-04-07T16:00:22.000Z</time>
      </trkpt>
      <trkpt lat="50.82796" lon="1.5922">
        <ele>18.4</ele>
        <time>2015-04-07T16:00:23.000Z</time>
      </trkpt>
      <trkpt lat="50.82796" lon="1.5922">
        <ele>18.4</ele>
        <time>2015-04-07T16:00:24.000Z</time>
      </trkpt>
      <trkpt lat="50.82796" lon="1.5922">
        <ele>18.4</ele>
        <time>2015-04-07T16:00:25.000Z</time>
      </trkpt>
      <trkpt lat="50.82795" lon="1.5922">
        <ele>18.4</ele>
        <time>2015-04-07T16:00:26.000Z</time>
      </trkpt>
      <trkpt lat="50.82795" lon="1.5922">
        <ele>18.4</ele>
        <time>2015-04-07T16:00:27.000Z</time>
      </trkpt>
      <trkpt lat="50.82795" lon="1.5922">
        <ele>18.4</ele>
        <time>2015-04-07T16:00:28.000Z</time>
      </trkpt>
      <trkpt lat="50.82795" lon="1.5922">
        <ele>18.4</ele>
        <time>2015-04-07T16:00:29.000Z</time>
      </trkpt>
      <trkpt lat="50.82795" lon="1.5922">
        <ele>18.4</ele>
        <time>2015-04-07T16:00:30.000Z</time>
      </trkpt>
      <trkpt lat="50.82795" lon="1.5922">
        <ele>18.4</ele>
        <time>2015-04-07T16:00:31.000Z</time>
      </trkpt>
      <trkpt lat="50.82795" lon="1.5922">
        <ele>18.4</ele>
        <time>2015-04-07T16:00:32.000Z</time>
      </trkpt>
      <trkpt lat="50.82795" lon="1.5922">
        <ele>18.4</ele>
        <time>2015-04-07T16:00:33.000Z</time>
      </trkpt>
      <trkpt lat="50.82795" lon="1.5922">
        <ele>18.4</ele>
        <time>2015-04-07T16:00:34.000Z</time>
      </trkpt>
      <trkpt lat="50.82795" lon="1.5922">
        <ele>18.4</ele>
        <time>2015-04-07T16:00:35.000Z</time>
      </trkpt>
      <trkpt lat="50.82795" lon="1.5922">
        <ele>18.4</ele>
        <time>2015-04-07T16:00:36.000Z</time>
      </trkpt>
      <trkpt lat="50.82795" lon="1.5922">
        <ele>18.4</ele>
        <time>2015-04-07T16:00:37.000Z</time>
      </trkpt>
      <trkpt lat="50.82795" lon="1.5922">
        <ele>18.4</ele>
        <time>2015-04-07T16:00:38.000Z</time>
      </trkpt>
      <trkpt lat="50.82795" lon="1.5922">
        <ele>18.4</ele>
        <time>2015-04-07T16:00:39.000Z</time>
      </trkpt>
      <trkpt lat="50.82795" lon="1.5922">
        <ele>18.4</ele>
        <time>2015-04-07T16:00:40.000Z</time>
      </trkpt>
      <trkpt lat="50.82795" lon="1.5922">
        <ele>18.4</ele>
        <time>2015-04-07T16:00:41.000Z</time>
      </trkpt>
      <trkpt lat="50.82795" lon="1.5922">
        <ele>18.4</ele>
        <time>2015-04-07T16:00:42.000Z</time>
      </trkpt>
      <trkpt lat="50.82795" lon="1.5922">
        <ele>18.4</ele>
        <time>2015-04-07T16:00:43.000Z</time>
      </trkpt>
      <trkpt lat="50.82795" lon="1.5922">
        <ele>18.4</ele>
        <time>2015-04-07T16:00:44.000Z</time>
      </trkpt>
      <trkpt lat="50.82795" lon="1.5922">
        <ele>18.4</ele>
        <time>2015-04-07T16:00:45.000Z</time>
      </trkpt>
      <trkpt lat="50.82795" lon="1.5922">
        <ele>18.4</ele>
        <time>2015-04-07T16:00:46.000Z</time>
      </trkpt>
      <trkpt lat="50.82795" lon="1.5922">
        <ele>18.4</ele>
        <time>2015-04-07T16:00:47.000Z</time>
      </trkpt>
      <trkpt lat="50.82795" lon="1.5922">
        <ele>18.4</ele>
        <time>2015-04-07T16:00:48.000Z</time>
      </trkpt>
      <trkpt lat="50.82795" lon="1.5922">
        <ele>18.4</ele>
        <time>2015-04-07T16:00:49.000Z</time>
      </trkpt>
      <trkpt lat="50.82795" lon="1.5922">
        <ele>18.4</ele>
        <time>2015-04-07T16:00:50.000Z</time>
      </trkpt>
      <trkpt lat="50.82795" lon="1.5922">
        <ele>18.4</ele>
        <time>2015-04-07T16:00:51.000Z</time>
      </trkpt>
      <trkpt lat="50.82795" lon="1.5922">
        <ele>18.4</ele>
        <time>2015-04-07T16:00:52.000Z</time>
      </trkpt>
      <trkpt lat="50.82795" lon="1.5922">
        <ele>18.4</ele>
        <time>2015-04-07T16:00:53.000Z</time>
      </trkpt>
      <trkpt lat="50.82795" lon="1.5922">
        <ele>18.4</ele>
        <time>2015-04-07T16:00:54.000Z</time>
      </trkpt>
      <trkpt lat="50.82795" lon="1.5922">
        <ele>18.4</ele>
        <time>2015-04-07T16:00:55.000Z</time>
      </trkpt>
      <trkpt lat="50.82795" lon="1.5922">
        <ele>18.4</ele>
        <time>2015-04-07T16:00:56.000Z</time>
      </trkpt>
      <trkpt lat="50.82795" lon="1.5922">
        <ele>18.4</ele>
        <time>2015-04-07T16:00:57.000Z</time>
      </trkpt>
      <trkpt lat="50.82795" lon="1.5922">
        <ele>18.4</ele>
        <time>2015-04-07T16:00:58.000Z</time>
      </trkpt>
      <trkpt lat="50.82795" lon="1.5922">
        <ele>18.4</ele>
        <time>2015-04-07T16:00:59.000Z</time>
      </trkpt>
      <trkpt lat="50.82795" lon="1.5922">
        <ele>18.4</ele>
        <time>2015-04-07T16:01:00.000Z</time>
      </trkpt>
      <trkpt lat="50.82795" lon="1.5922">
        <ele>18.4</ele>
        <time>2015-04-07T16:01:01.000Z</time>
      </trkpt>
      <trkpt lat="50.82795" lon="1.5922">
        <ele>18.4</ele>
        <time>2015-04-07T16:01:02.000Z</time>
      </trkpt>
      <trkpt lat="50.82795" lon="1.5922">
        <ele>18.4</ele>
        <time>2015-04-07T16:01:03.000Z</time>
      </trkpt>
      <trkpt lat="50.82795" lon="1.5922">
        <ele>18.4</ele>
        <time>2015-04-07T16:01:04.000Z</time>
      </trkpt>
      <trkpt lat="50.82795" lon="1.5922">
        <ele>18.4</ele>
        <time>2015-04-07T16:01:05.000Z</time>
      </trkpt>
      <trkpt lat="50.82795" lon="1.5922">
        <ele>18.4</ele>
        <time>2015-04-07T16:01:06.000Z</time>
      </trkpt>
      <trkpt lat="50.82795" lon="1.5922">
        <ele>18.4</ele>
        <time>2015-04-07T16:01:07.000Z</time>
      </trkpt>
      <trkpt lat="50.82795" lon="1.5922">
        <ele>18.4</ele>
        <time>2015-04-07T16:01:08.000Z</time>
      </trkpt>
      <trkpt lat="50.82795" lon="1.5922">
        <ele>18.4</ele>
        <time>2015-04-07T16:01:09.000Z</time>
      </trkpt>
      <trkpt lat="50.82795" lon="1.5922">
        <ele>18.4</ele>
        <time>2015-04-07T16:01:10.000Z</time>
      </trkpt>
      <trkpt lat="50.82795" lon="1.5922">
        <ele>18.4</ele>
        <time>2015-04-07T16:01:11.000Z</time>
      </trkpt>
      <trkpt lat="50.82795" lon="1.5922">
        <ele>18.4</ele>
        <time>2015-04-07T16:01:12.000Z</time>
      </trkpt>
      <trkpt lat="50.82795" lon="1.5922">
        <ele>18.4</ele>
        <time>2015-04-07T16:01:13.000Z</time>
      </trkpt>
      <trkpt lat="50.82795" lon="1.5922">
        <ele>18.4</ele>
        <time>2015-04-07T16:01:14.000Z</time>
      </trkpt>
      <trkpt lat="50.82795" lon="1.5922">
        <ele>18.4</ele>
        <time>2015-04-07T16:01:15.000Z</time>
      </trkpt>
      <trkpt lat="50.82795" lon="1.5922">
        <ele>18.4</ele>
        <time>2015-04-07T16:01:16.000Z</time>
      </trkpt>
      <trkpt lat="50.82795" lon="1.5922">
        <ele>18.4</ele>
        <time>2015-04-07T16:01:17.000Z</time>
      </trkpt>
      <trkpt lat="50.82795" lon="1.5922">
        <ele>18.4</ele>
        <time>2015-04-07T16:01:18.000Z</time>
      </trkpt>
      <trkpt lat="50.82795" lon="1.5922">
        <ele>18.4</ele>
        <time>2015-04-07T16:01:19.000Z</time>
      </trkpt>
      <trkpt lat="50.82795" lon="1.5922">
        <ele>18.4</ele>
        <time>2015-04-07T16:01:20.000Z</time>
      </trkpt>
      <trkpt lat="50.82795" lon="1.5922">
        <ele>18.4</ele>
        <time>2015-04-07T16:01:21.000Z</time>
      </trkpt>
      <trkpt lat="50.82795" lon="1.5922">
        <ele>18.4</ele>
        <time>2015-04-07T16:01:22.000Z</time>
      </trkpt>
      <trkpt lat="50.82795" lon="1.5922">
        <ele>18.4</ele>
        <time>2015-04-07T16:01:23.000Z</time>
      </trkpt>
      <trkpt lat="50.82795" lon="1.5922">
        <ele>18.4</ele>
        <time>2015-04-07T16:01:24.000Z</time>
      </trkpt>
      <trkpt lat="50.82795" lon="1.5922">
        <ele>18.4</ele>
        <time>2015-04-07T16:01:25.000Z</time>
      </trkpt>
      <trkpt lat="50.82795" lon="1.5922">
        <ele>18.4</ele>
        <time>2015-04-07T16:01:26.000Z</time>
      </trkpt>
      <trkpt lat="50.82795" lon="1.5922">
        <ele>18.4</ele>
        <time>2015-04-07T16:01:27.000Z</time>
      </trkpt>
      <trkpt lat="50.82795" lon="1.5922">
        <ele>18.4</ele>
        <time>2015-04-07T16:01:28.000Z</time>
      </trkpt>
      <trkpt lat="50.82795" lon="1.5922">
        <ele>18.4</ele>
        <time>2015-04-07T16:01:29.000Z</time>
      </trkpt>
      <trkpt lat="50.82795" lon="1.5922">
        <ele>18.4</ele>
        <time>2015-04-07T16:01:30.000Z</time>
      </trkpt>
      <trkpt lat="50.82795" lon="1.5922">
        <ele>18.4</ele>
        <time>2015-04-07T16:01:31.000Z</time>
      </trkpt>
      <trkpt lat="50.82795" lon="1.5922">
        <ele>18.4</ele>
        <time>2015-04-07T16:01:32.000Z</time>
      </trkpt>
      <trkpt lat="50.82795" lon="1.5922">
        <ele>18.4</ele>
        <time>2015-04-07T16:01:33.000Z</time>
      </trkpt>
      <trkpt lat="50.82795" lon="1.5922">
        <ele>18.4</ele>
        <time>2015-04-07T16:01:34.000Z</time>
      </trkpt>
      <trkpt lat="50.82795" lon="1.5922">
        <ele>18.4</ele>
        <time>2015-04-07T16:01:35.000Z</time>
      </trkpt>
      <trkpt lat="50.82795" lon="1.5922">
        <ele>18.4</ele>
        <time>2015-04-07T16:01:36.000Z</time>
      </trkpt>
      <trkpt lat="50.82795" lon="1.5922">
        <ele>18.4</ele>
        <time>2015-04-07T16:01:37.000Z</time>
      </trkpt>
      <trkpt lat="50.82795" lon="1.5922">
        <ele>18.4</ele>
        <time>2015-04-07T16:01:38.000Z</time>
      </trkpt>
      <trkpt lat="50.82795" lon="1.5922">
        <ele>18.4</ele>
        <time>2015-04-07T16:01:39.000Z</time>
      </trkpt>
      <trkpt lat="50.82795" lon="1.5922">
        <ele>18.4</ele>
        <time>2015-04-07T16:01:40.000Z</time>
      </trkpt>
      <trkpt lat="50.82795" lon="1.5922">
        <ele>18.4</ele>
        <time>2015-04-07T16:01:41.000Z</time>
      </trkpt>
      <trkpt lat="50.82795" lon="1.5922">
        <ele>18.4</ele>
        <time>2015-04-07T16:01:42.000Z</time>
      </trkpt>
      <trkpt lat="50.82795" lon="1.5922">
        <ele>18.4</ele>
        <time>2015-04-07T16:01:43.000Z</time>
      </trkpt>
      <trkpt lat="50.82795" lon="1.5922">
        <ele>18.4</ele>
        <time>2015-04-07T16:01:44.000Z</time>
      </trkpt>
      <trkpt lat="50.82795" lon="1.5922">
        <ele>18.4</ele>
        <time>2015-04-07T16:01:45.000Z</time>
      </trkpt>
      <trkpt lat="50.82795" lon="1.5922">
        <ele>18.4</ele>
        <time>2015-04-07T16:01:46.000Z</time>
      </trkpt>
      <trkpt lat="50.82795" lon="1.5922">
        <ele>18.4</ele>
        <time>2015-04-07T16:01:47.000Z</time>
      </trkpt>
      <trkpt lat="50.82795" lon="1.5922">
        <ele>18.4</ele>
        <time>2015-04-07T16:01:48.000Z</time>
      </trkpt>
      <trkpt lat="50.82795" lon="1.5922">
        <ele>18.4</ele>
        <time>2015-04-07T16:01:49.000Z</time>
      </trkpt>
      <trkpt lat="50.82795" lon="1.5922">
        <ele>18.4</ele>
        <time>2015-04-07T16:01:50.000Z</time>
      </trkpt>
      <trkpt lat="50.82795" lon="1.5922">
        <ele>18.4</ele>
        <time>2015-04-07T16:01:51.000Z</time>
      </trkpt>
      <trkpt lat="50.82795" lon="1.5922">
        <ele>18.4</ele>
        <time>2015-04-07T16:01:52.000Z</time>
      </trkpt>
      <trkpt lat="50.82795" lon="1.5922">
        <ele>18.4</ele>
        <time>2015-04-07T16:01:53.000Z</time>
      </trkpt>
      <trkpt lat="50.82795" lon="1.5922">
        <ele>18.4</ele>
        <time>2015-04-07T16:01:54.000Z</time>
      </trkpt>
      <trkpt lat="50.82795" lon="1.5922">
        <ele>18.4</ele>
        <time>2015-04-07T16:01:55.000Z</time>
      </trkpt>
      <trkpt lat="50.82795" lon="1.5922">
        <ele>18.4</ele>
        <time>2015-04-07T16:01:56.000Z</time>
      </trkpt>
      <trkpt lat="50.82795" lon="1.5922">
        <ele>18.4</ele>
        <time>2015-04-07T16:01:57.000Z</time>
      </trkpt>
      <trkpt lat="50.82795" lon="1.5922">
        <ele>18.4</ele>
        <time>2015-04-07T16:01:58.000Z</time>
      </trkpt>
      <trkpt lat="50.82795" lon="1.5922">
        <ele>18.4</ele>
        <time>2015-04-07T16:01:59.000Z</time>
      </trkpt>
      <trkpt lat="50.82795" lon="1.5922">
        <ele>18.4</ele>
        <time>2015-04-07T16:02:00.000Z</time>
      </trkpt>
      <trkpt lat="50.82795" lon="1.5922">
        <ele>18.4</ele>
        <time>2015-04-07T16:02:01.000Z</time>
      </trkpt>
      <trkpt lat="50.82795" lon="1.5922">
        <ele>18.4</ele>
        <time>2015-04-07T16:02:02.000Z</time>
      </trkpt>
      <trkpt lat="50.82795" lon="1.5922">
        <ele>18.4</ele>
        <time>2015-04-07T16:02:03.000Z</time>
      </trkpt>
      <trkpt lat="50.82795" lon="1.5922">
        <ele>18.4</ele>
        <time>2015-04-07T16:02:04.000Z</time>
      </trkpt>
      <trkpt lat="50.82795" lon="1.5922">
        <ele>18.4</ele>
        <time>2015-04-07T16:02:05.000Z</time>
      </trkpt>
      <trkpt lat="50.82795" lon="1.5922">
        <ele>18.4</ele>
        <time>2015-04-07T16:02:06.000Z</time>
      </trkpt>
      <trkpt lat="50.82795" lon="1.5922">
        <ele>18.4</ele>
        <time>2015-04-07T16:02:07.000Z</time>
      </trkpt>
      <trkpt lat="50.82795" lon="1.5922">
        <ele>18.4</ele>
        <time>2015-04-07T16:02:08.000Z</time>
      </trkpt>
      <trkpt lat="50.82795" lon="1.5922">
        <ele>18.4</ele>
        <time>2015-04-07T16:02:09.000Z</time>
      </trkpt>
      <trkpt lat="50.82795" lon="1.5922">
        <ele>18.4</ele>
        <time>2015-04-07T16:02:10.000Z</time>
      </trkpt>
      <trkpt lat="50.82795" lon="1.5922">
        <ele>18.4</ele>
        <time>2015-04-07T16:02:11.000Z</time>
      </trkpt>
      <trkpt lat="50.82795" lon="1.5922">
        <ele>18.4</ele>
        <time>2015-04-07T16:02:12.000Z</time>
      </trkpt>
      <trkpt lat="50.82795" lon="1.5922">
        <ele>18.4</ele>
        <time>2015-04-07T16:02:13.000Z</time>
      </trkpt>
      <trkpt lat="50.82795" lon="1.5922">
        <ele>18.4</ele>
        <time>2015-04-07T16:02:14.000Z</time>
      </trkpt>
      <trkpt lat="50.82795" lon="1.5922">
        <ele>18.4</ele>
        <time>2015-04-07T16:02:15.000Z</time>
      </trkpt>
      <trkpt lat="50.82795" lon="1.5922">
        <ele>18.4</ele>
        <time>2015-04-07T16:02:16.000Z</time>
      </trkpt>
      <trkpt lat="50.82795" lon="1.5922">
        <ele>18.4</ele>
        <time>2015-04-07T16:02:17.000Z</time>
      </trkpt>
      <trkpt lat="50.82795" lon="1.5922">
        <ele>18.4</ele>
        <time>2015-04-07T16:02:18.000Z</time>
      </trkpt>
      <trkpt lat="50.82795" lon="1.5922">
        <ele>18.4</ele>
        <time>2015-04-07T16:02:19.000Z</time>
      </trkpt>
      <trkpt lat="50.82795" lon="1.5922">
        <ele>18.4</ele>
        <time>2015-04-07T16:02:20.000Z</time>
      </trkpt>
      <trkpt lat="50.82795" lon="1.5922">
        <ele>18.4</ele>
        <time>2015-04-07T16:02:21.000Z</time>
      </trkpt>
      <trkpt lat="50.82795" lon="1.5922">
        <ele>18.4</ele>
        <time>2015-04-07T16:02:22.000Z</time>
      </trkpt>
      <trkpt lat="50.82795" lon="1.5922">
        <ele>18.4</ele>
        <time>2015-04-07T16:02:23.000Z</time>
      </trkpt>
      <trkpt lat="50.82795" lon="1.5922">
        <ele>18.4</ele>
        <time>2015-04-07T16:02:24.000Z</time>
      </trkpt>
      <trkpt lat="50.82795" lon="1.5922">
        <ele>18.4</ele>
        <time>2015-04-07T16:02:25.000Z</time>
      </trkpt>
      <trkpt lat="50.82795" lon="1.5922">
        <ele>18.4</ele>
        <time>2015-04-07T16:02:26.000Z</time>
      </trkpt>
      <trkpt lat="50.82795" lon="1.5922">
        <ele>18.4</ele>
        <time>2015-04-07T16:02:27.000Z</time>
      </trkpt>
      <trkpt lat="50.82794" lon="1.5922">
        <ele>18.4</ele>
        <time>2015-04-07T16:02:28.000Z</time>
      </trkpt>
      <trkpt lat="50.82794" lon="1.5922">
        <ele>18.4</ele>
        <time>2015-04-07T16:02:29.000Z</time>
      </trkpt>
      <trkpt lat="50.82794" lon="1.5922">
        <ele>18.4</ele>
        <time>2015-04-07T16:02:30.000Z</time>
      </trkpt>
      <trkpt lat="50.82794" lon="1.5922">
        <ele>18.4</ele>
        <time>2015-04-07T16:02:31.000Z</time>
      </trkpt>
      <trkpt lat="50.82794" lon="1.5922">
        <ele>18.4</ele>
        <time>2015-04-07T16:02:32.000Z</time>
      </trkpt>
      <trkpt lat="50.82794" lon="1.5922">
        <ele>18.4</ele>
        <time>2015-04-07T16:02:33.000Z</time>
      </trkpt>
      <trkpt lat="50.82794" lon="1.5922">
        <ele>18.4</ele>
        <time>2015-04-07T16:02:34.000Z</time>
      </trkpt>
      <trkpt lat="50.82794" lon="1.5922">
        <ele>18.4</ele>
        <time>2015-04-07T16:02:35.000Z</time>
      </trkpt>
      <trkpt lat="50.82794" lon="1.5922">
        <ele>18.4</ele>
        <time>2015-04-07T16:02:36.000Z</time>
      </trkpt>
      <trkpt lat="50.82794" lon="1.5922">
        <ele>18.4</ele>
        <time>2015-04-07T16:02:37.000Z</time>
      </trkpt>
      <trkpt lat="50.82794" lon="1.5922">
        <ele>18.4</ele>
        <time>2015-04-07T16:02:38.000Z</time>
      </trkpt>
      <trkpt lat="50.82794" lon="1.5922">
        <ele>18.4</ele>
        <time>2015-04-07T16:02:39.000Z</time>
      </trkpt>
      <trkpt lat="50.82795" lon="1.59221">
        <ele>18.4</ele>
        <time>2015-04-07T16:02:40.000Z</time>
      </trkpt>
      <trkpt lat="50.82795" lon="1.59221">
        <ele>18.4</ele>
        <time>2015-04-07T16:02:41.000Z</time>
      </trkpt>
      <trkpt lat="50.82795" lon="1.5922">
        <ele>18.4</ele>
        <time>2015-04-07T16:02:42.000Z</time>
      </trkpt>
      <trkpt lat="50.82795" lon="1.5922">
        <ele>18.4</ele>
        <time>2015-04-07T16:02:43.000Z</time>
      </trkpt>
      <trkpt lat="50.82794" lon="1.5922">
        <ele>18.4</ele>
        <time>2015-04-07T16:02:44.000Z</time>
      </trkpt>
      <trkpt lat="50.82794" lon="1.5922">
        <ele>18.4</ele>
        <time>2015-04-07T16:02:45.000Z</time>
      </trkpt>
      <trkpt lat="50.82795" lon="1.5922">
        <ele>18.4</ele>
        <time>2015-04-07T16:02:46.000Z</time>
      </trkpt>
      <trkpt lat="50.82795" lon="1.5922">
        <ele>18.4</ele>
        <time>2015-04-07T16:02:47.000Z</time>
      </trkpt>
      <trkpt lat="50.82795" lon="1.5922">
        <ele>18.4</ele>
        <time>2015-04-07T16:02:48.000Z</time>
      </trkpt>
      <trkpt lat="50.82795" lon="1.5922">
        <ele>18.4</ele>
        <time>2015-04-07T16:02:49.000Z</time>
      </trkpt>
      <trkpt lat="50.82795" lon="1.5922">
        <ele>18.4</ele>
        <time>2015-04-07T16:02:50.000Z</time>
      </trkpt>
      <trkpt lat="50.82795" lon="1.5922">
        <ele>18.4</ele>
        <time>2015-04-07T16:02:51.000Z</time>
      </trkpt>
      <trkpt lat="50.82795" lon="1.5922">
        <ele>18.4</ele>
        <time>2015-04-07T16:02:52.000Z</time>
      </trkpt>
      <trkpt lat="50.82795" lon="1.5922">
        <ele>18.4</ele>
        <time>2015-04-07T16:02:53.000Z</time>
      </trkpt>
      <trkpt lat="50.82795" lon="1.5922">
        <ele>18.4</ele>
        <time>2015-04-07T16:02:54.000Z</time>
      </trkpt>
      <trkpt lat="50.82795" lon="1.5922">
        <ele>18.4</ele>
        <time>2015-04-07T16:02:55.000Z</time>
      </trkpt>
      <trkpt lat="50.82795" lon="1.5922">
        <ele>18.4</ele>
        <time>2015-04-07T16:02:56.000Z</time>
      </trkpt>
      <trkpt lat="50.82795" lon="1.5922">
        <ele>18.4</ele>
        <time>2015-04-07T16:02:57.000Z</time>
      </trkpt>
      <trkpt lat="50.82795" lon="1.5922">
        <ele>18.4</ele>
        <time>2015-04-07T16:02:58.000Z</time>
      </trkpt>
      <trkpt lat="50.82795" lon="1.5922">
        <ele>18.4</ele>
        <time>2015-04-07T16:02:59.000Z</time>
      </trkpt>
      <trkpt lat="50.82795" lon="1.5922">
        <ele>18.4</ele>
        <time>2015-04-07T16:03:00.000Z</time>
      </trkpt>
      <trkpt lat="50.82795" lon="1.5922">
        <ele>18.4</ele>
        <time>2015-04-07T16:03:01.000Z</time>
      </trkpt>
      <trkpt lat="50.82795" lon="1.5922">
        <ele>18.4</ele>
        <time>2015-04-07T16:03:02.000Z</time>
      </trkpt>
      <trkpt lat="50.82795" lon="1.5922">
        <ele>18.4</ele>
        <time>2015-04-07T16:03:03.000Z</time>
      </trkpt>
      <trkpt lat="50.82795" lon="1.5922">
        <ele>18.4</ele>
        <time>2015-04-07T16:03:04.000Z</time>
      </trkpt>
      <trkpt lat="50.82795" lon="1.5922">
        <ele>18.4</ele>
        <time>2015-04-07T16:03:05.000Z</time>
      </trkpt>
      <trkpt lat="50.82795" lon="1.5922">
        <ele>18.4</ele>
        <time>2015-04-07T16:03:06.000Z</time>
      </trkpt>
      <trkpt lat="50.82795" lon="1.5922">
        <ele>18.4</ele>
        <time>2015-04-07T16:03:07.000Z</time>
      </trkpt>
      <trkpt lat="50.82795" lon="1.5922">
        <ele>18.4</ele>
        <time>2015-04-07T16:03:08.000Z</time>
      </trkpt>
      <trkpt lat="50.82795" lon="1.5922">
        <ele>18.4</ele>
        <time>2015-04-07T16:03:09.000Z</time>
      </trkpt>
      <trkpt lat="50.82795" lon="1.5922">
        <ele>18.4</ele>
        <time>2015-04-07T16:03:10.000Z</time>
      </trkpt>
      <trkpt lat="50.82795" lon="1.5922">
        <ele>18.4</ele>
        <time>2015-04-07T16:03:11.000Z</time>
      </trkpt>
      <trkpt lat="50.82795" lon="1.5922">
        <ele>18.4</ele>
        <time>2015-04-07T16:03:12.000Z</time>
      </trkpt>
      <trkpt lat="50.82795" lon="1.5922">
        <ele>18.4</ele>
        <time>2015-04-07T16:03:13.000Z</time>
      </trkpt>
      <trkpt lat="50.82795" lon="1.5922">
        <ele>18.4</ele>
        <time>2015-04-07T16:03:14.000Z</time>
      </trkpt>
      <trkpt lat="50.82795" lon="1.5922">
        <ele>18.4</ele>
        <time>2015-04-07T16:03:15.000Z</time>
      </trkpt>
      <trkpt lat="50.82795" lon="1.5922">
        <ele>18.4</ele>
        <time>2015-04-07T16:03:16.000Z</time>
      </trkpt>
      <trkpt lat="50.82795" lon="1.5922">
        <ele>18.4</ele>
        <time>2015-04-07T16:03:17.000Z</time>
      </trkpt>
      <trkpt lat="50.82795" lon="1.5922">
        <ele>18.4</ele>
        <time>2015-04-07T16:03:18.000Z</time>
      </trkpt>
      <trkpt lat="50.82795" lon="1.5922">
        <ele>18.4</ele>
        <time>2015-04-07T16:03:19.000Z</time>
      </trkpt>
      <trkpt lat="50.82795" lon="1.5922">
        <ele>18.4</ele>
        <time>2015-04-07T16:03:20.000Z</time>
      </trkpt>
      <trkpt lat="50.82795" lon="1.5922">
        <ele>18.4</ele>
        <time>2015-04-07T16:03:21.000Z</time>
      </trkpt>
      <trkpt lat="50.82795" lon="1.5922">
        <ele>18.4</ele>
        <time>2015-04-07T16:03:22.000Z</time>
      </trkpt>
      <trkpt lat="50.82795" lon="1.5922">
        <ele>18.4</ele>
        <time>2015-04-07T16:03:23.000Z</time>
      </trkpt>
      <trkpt lat="50.82795" lon="1.5922">
        <ele>18.4</ele>
        <time>2015-04-07T16:03:24.000Z</time>
      </trkpt>
      <trkpt lat="50.82795" lon="1.5922">
        <ele>18.4</ele>
        <time>2015-04-07T16:03:25.000Z</time>
      </trkpt>
      <trkpt lat="50.82795" lon="1.5922">
        <ele>18.4</ele>
        <time>2015-04-07T16:03:26.000Z</time>
      </trkpt>
      <trkpt lat="50.82795" lon="1.5922">
        <ele>18.4</ele>
        <time>2015-04-07T16:03:27.000Z</time>
      </trkpt>
      <trkpt lat="50.82795" lon="1.5922">
        <ele>18.4</ele>
        <time>2015-04-07T16:03:28.000Z</time>
      </trkpt>
      <trkpt lat="50.82795" lon="1.5922">
        <ele>18.4</ele>
        <time>2015-04-07T16:03:29.000Z</time>
      </trkpt>
      <trkpt lat="50.82795" lon="1.5922">
        <ele>18.4</ele>
        <time>2015-04-07T16:03:30.000Z</time>
      </trkpt>
      <trkpt lat="50.82795" lon="1.5922">
        <ele>18.4</ele>
        <time>2015-04-07T16:03:31.000Z</time>
      </trkpt>
      <trkpt lat="50.82795" lon="1.5922">
        <ele>18.4</ele>
        <time>2015-04-07T16:03:32.000Z</time>
      </trkpt>
      <trkpt lat="50.82795" lon="1.5922">
        <ele>18.4</ele>
        <time>2015-04-07T16:03:33.000Z</time>
      </trkpt>
      <trkpt lat="50.82795" lon="1.5922">
        <ele>18.4</ele>
        <time>2015-04-07T16:03:34.000Z</time>
      </trkpt>
      <trkpt lat="50.82795" lon="1.5922">
        <ele>18.4</ele>
        <time>2015-04-07T16:03:35.000Z</time>
      </trkpt>
      <trkpt lat="50.82795" lon="1.5922">
        <ele>18.4</ele>
        <time>2015-04-07T16:03:36.000Z</time>
      </trkpt>
      <trkpt lat="50.82795" lon="1.5922">
        <ele>18.4</ele>
        <time>2015-04-07T16:03:37.000Z</time>
      </trkpt>
      <trkpt lat="50.82795" lon="1.5922">
        <ele>18.4</ele>
        <time>2015-04-07T16:03:38.000Z</time>
      </trkpt>
      <trkpt lat="50.82795" lon="1.5922">
        <ele>18.4</ele>
        <time>2015-04-07T16:03:39.000Z</time>
      </trkpt>
      <trkpt lat="50.82795" lon="1.5922">
        <ele>18.4</ele>
        <time>2015-04-07T16:03:40.000Z</time>
      </trkpt>
      <trkpt lat="50.82795" lon="1.5922">
        <ele>18.4</ele>
        <time>2015-04-07T16:03:41.000Z</time>
      </trkpt>
      <trkpt lat="50.82795" lon="1.5922">
        <ele>18.4</ele>
        <time>2015-04-07T16:03:42.000Z</time>
      </trkpt>
      <trkpt lat="50.82795" lon="1.5922">
        <ele>18.4</ele>
        <time>2015-04-07T16:03:43.000Z</time>
      </trkpt>
      <trkpt lat="50.82795" lon="1.5922">
        <ele>18.4</ele>
        <time>2015-04-07T16:03:44.000Z</time>
      </trkpt>
      <trkpt lat="50.82795" lon="1.5922">
        <ele>18.4</ele>
        <time>2015-04-07T16:03:45.000Z</time>
      </trkpt>
      <trkpt lat="50.82795" lon="1.5922">
        <ele>18.4</ele>
        <time>2015-04-07T16:03:46.000Z</time>
      </trkpt>
      <trkpt lat="50.82795" lon="1.5922">
        <ele>18.4</ele>
        <time>2015-04-07T16:03:47.000Z</time>
      </trkpt>
      <trkpt lat="50.82795" lon="1.5922">
        <ele>18.4</ele>
        <time>2015-04-07T16:03:48.000Z</time>
      </trkpt>
      <trkpt lat="50.82795" lon="1.5922">
        <ele>18.4</ele>
        <time>2015-04-07T16:03:49.000Z</time>
      </trkpt>
      <trkpt lat="50.82795" lon="1.5922">
        <ele>18.4</ele>
        <time>2015-04-07T16:03:50.000Z</time>
      </trkpt>
      <trkpt lat="50.82795" lon="1.5922">
        <ele>18.4</ele>
        <time>2015-04-07T16:03:51.000Z</time>
      </trkpt>
      <trkpt lat="50.82795" lon="1.5922">
        <ele>18.4</ele>
        <time>2015-04-07T16:03:52.000Z</time>
      </trkpt>
      <trkpt lat="50.82795" lon="1.5922">
        <ele>18.4</ele>
        <time>2015-04-07T16:03:53.000Z</time>
      </trkpt>
      <trkpt lat="50.82795" lon="1.5922">
        <ele>18.4</ele>
        <time>2015-04-07T16:03:54.000Z</time>
      </trkpt>
      <trkpt lat="50.82795" lon="1.5922">
        <ele>18.4</ele>
        <time>2015-04-07T16:03:55.000Z</time>
      </trkpt>
      <trkpt lat="50.82795" lon="1.5922">
        <ele>18.4</ele>
        <time>2015-04-07T16:03:56.000Z</time>
      </trkpt>
      <trkpt lat="50.82795" lon="1.5922">
        <ele>18.4</ele>
        <time>2015-04-07T16:03:57.000Z</time>
      </trkpt>
      <trkpt lat="50.82795" lon="1.5922">
        <ele>18.4</ele>
        <time>2015-04-07T16:03:58.000Z</time>
      </trkpt>
      <trkpt lat="50.82795" lon="1.5922">
        <ele>18.4</ele>
        <time>2015-04-07T16:03:59.000Z</time>
      </trkpt>
      <trkpt lat="50.82795" lon="1.59221">
        <ele>18.4</ele>
        <time>2015-04-07T16:04:00.000Z</time>
      </trkpt>
      <trkpt lat="50.82794" lon="1.59221">
        <ele>18.4</ele>
        <time>2015-04-07T16:04:01.000Z</time>
      </trkpt>
      <trkpt lat="50.82794" lon="1.59221">
        <ele>18.4</ele>
        <time>2015-04-07T16:04:02.000Z</time>
      </trkpt>
      <trkpt lat="50.82794" lon="1.59222">
        <ele>18.4</ele>
        <time>2015-04-07T16:04:03.000Z</time>
      </trkpt>
      <trkpt lat="50.82794" lon="1.59223">
        <ele>18.4</ele>
        <time>2015-04-07T16:04:04.000Z</time>
      </trkpt>
      <trkpt lat="50.82793" lon="1.59223">
        <ele>18.5</ele>
        <time>2015-04-07T16:04:05.000Z</time>
      </trkpt>
      <trkpt lat="50.82792" lon="1.59224">
        <ele>18.5</ele>
        <time>2015-04-07T16:04:06.000Z</time>
      </trkpt>
      <trkpt lat="50.82792" lon="1.59225">
        <ele>18.6</ele>
        <time>2015-04-07T16:04:07.000Z</time>
      </trkpt>
      <trkpt lat="50.82791" lon="1.59226">
        <ele>18.6</ele>
        <time>2015-04-07T16:04:08.000Z</time>
      </trkpt>
      <trkpt lat="50.8279" lon="1.59227">
        <ele>18.6</ele>
        <time>2015-04-07T16:04:09.000Z</time>
      </trkpt>
      <trkpt lat="50.82789" lon="1.59228">
        <ele>18.7</ele>
        <time>2015-04-07T16:04:10.000Z</time>
      </trkpt>
      <trkpt lat="50.82788" lon="1.59229">
        <ele>18.7</ele>
        <time>2015-04-07T16:04:11.000Z</time>
      </trkpt>
      <trkpt lat="50.82788" lon="1.59229">
        <ele>18.7</ele>
        <time>2015-04-07T16:04:12.000Z</time>
      </trkpt>
      <trkpt lat="50.82785" lon="1.59231">
        <ele>18.8</ele>
        <time>2015-04-07T16:04:13.000Z</time>
      </trkpt>
      <trkpt lat="50.82785" lon="1.59231">
        <ele>18.8</ele>
        <time>2015-04-07T16:04:14.000Z</time>
      </trkpt>
      <trkpt lat="50.82785" lon="1.59231">
        <ele>18.8</ele>
        <time>2015-04-07T16:04:15.000Z</time>
      </trkpt>
      <trkpt lat="50.82785" lon="1.59231">
        <ele>18.8</ele>
        <time>2015-04-07T16:04:16.000Z</time>
      </trkpt>
      <trkpt lat="50.82784" lon="1.59232">
        <ele>18.8</ele>
        <time>2015-04-07T16:04:17.000Z</time>
      </trkpt>
      <trkpt lat="50.82784" lon="1.59232">
        <ele>18.9</ele>
        <time>2015-04-07T16:04:18.000Z</time>
      </trkpt>
      <trkpt lat="50.82783" lon="1.59233">
        <ele>18.9</ele>
        <time>2015-04-07T16:04:19.000Z</time>
      </trkpt>
      <trkpt lat="50.82783" lon="1.59233">
        <ele>18.9</ele>
        <time>2015-04-07T16:04:20.000Z</time>
      </trkpt>
      <trkpt lat="50.82782" lon="1.59234">
        <ele>18.9</ele>
        <time>2015-04-07T16:04:21.000Z</time>
      </trkpt>
      <trkpt lat="50.82782" lon="1.59234">
        <ele>18.9</ele>
        <time>2015-04-07T16:04:22.000Z</time>
      </trkpt>
      <trkpt lat="50.82781" lon="1.59235">
        <ele>18.9</ele>
        <time>2015-04-07T16:04:23.000Z</time>
      </trkpt>
      <trkpt lat="50.8278" lon="1.59236">
        <ele>19</ele>
        <time>2015-04-07T16:04:24.000Z</time>
      </trkpt>
      <trkpt lat="50.82779" lon="1.59236">
        <ele>19</ele>
        <time>2015-04-07T16:04:25.000Z</time>
      </trkpt>
      <trkpt lat="50.82779" lon="1.59237">
        <ele>19</ele>
        <time>2015-04-07T16:04:26.000Z</time>
      </trkpt>
      <trkpt lat="50.82778" lon="1.59238">
        <ele>19</ele>
        <time>2015-04-07T16:04:27.000Z</time>
      </trkpt>
      <trkpt lat="50.82777" lon="1.59239">
        <ele>19</ele>
        <time>2015-04-07T16:04:28.000Z</time>
      </trkpt>
      <trkpt lat="50.82776" lon="1.5924">
        <ele>19</ele>
        <time>2015-04-07T16:04:29.000Z</time>
      </trkpt>
      <trkpt lat="50.82775" lon="1.59241">
        <ele>19</ele>
        <time>2015-04-07T16:04:30.000Z</time>
      </trkpt>
      <trkpt lat="50.82774" lon="1.59242">
        <ele>19</ele>
        <time>2015-04-07T16:04:31.000Z</time>
      </trkpt>
      <trkpt lat="50.82774" lon="1.59243">
        <ele>19</ele>
        <time>2015-04-07T16:04:32.000Z</time>
      </trkpt>
      <trkpt lat="50.82773" lon="1.59244">
        <ele>19</ele>
        <time>2015-04-07T16:04:33.000Z</time>
      </trkpt>
      <trkpt lat="50.82772" lon="1.59245">
        <ele>19</ele>
        <time>2015-04-07T16:04:34.000Z</time>
      </trkpt>
      <trkpt lat="50.82771" lon="1.59245">
        <ele>19</ele>
        <time>2015-04-07T16:04:35.000Z</time>
      </trkpt>
      <trkpt lat="50.8277" lon="1.59246">
        <ele>19</ele>
        <time>2015-04-07T16:04:36.000Z</time>
      </trkpt>
      <trkpt lat="50.82769" lon="1.59247">
        <ele>19</ele>
        <time>2015-04-07T16:04:37.000Z</time>
      </trkpt>
      <trkpt lat="50.82769" lon="1.59247">
        <ele>19</ele>
        <time>2015-04-07T16:04:38.000Z</time>
      </trkpt>
      <trkpt lat="50.82768" lon="1.59248">
        <ele>19</ele>
        <time>2015-04-07T16:04:39.000Z</time>
      </trkpt>
      <trkpt lat="50.82767" lon="1.59248">
        <ele>19</ele>
        <time>2015-04-07T16:04:40.000Z</time>
      </trkpt>
      <trkpt lat="50.82766" lon="1.59249">
        <ele>19</ele>
        <time>2015-04-07T16:04:41.000Z</time>
      </trkpt>
      <trkpt lat="50.82765" lon="1.59249">
        <ele>19</ele>
        <time>2015-04-07T16:04:42.000Z</time>
      </trkpt>
      <trkpt lat="50.82764" lon="1.59249">
        <ele>19</ele>
        <time>2015-04-07T16:04:43.000Z</time>
      </trkpt>
      <trkpt lat="50.82763" lon="1.59249">
        <ele>19</ele>
        <time>2015-04-07T16:04:44.000Z</time>
      </trkpt>
      <trkpt lat="50.82763" lon="1.59249">
        <ele>19</ele>
        <time>2015-04-07T16:04:45.000Z</time>
      </trkpt>
      <trkpt lat="50.82762" lon="1.59249">
        <ele>19</ele>
        <time>2015-04-07T16:04:46.000Z</time>
      </trkpt>
      <trkpt lat="50.82762" lon="1.59249">
        <ele>19</ele>
        <time>2015-04-07T16:04:47.000Z</time>
      </trkpt>
      <trkpt lat="50.82761" lon="1.5925">
        <ele>19</ele>
        <time>2015-04-07T16:04:48.000Z</time>
      </trkpt>
      <trkpt lat="50.8276" lon="1.5925">
        <ele>19</ele>
        <time>2015-04-07T16:04:49.000Z</time>
      </trkpt>
      <trkpt lat="50.8276" lon="1.59251">
        <ele>19</ele>
        <time>2015-04-07T16:04:50.000Z</time>
      </trkpt>
      <trkpt lat="50.82759" lon="1.59251">
        <ele>19</ele>
        <time>2015-04-07T16:04:51.000Z</time>
      </trkpt>
      <trkpt lat="50.82758" lon="1.59252">
        <ele>19.1</ele>
        <time>2015-04-07T16:04:52.000Z</time>
      </trkpt>
      <trkpt lat="50.82757" lon="1.59252">
        <ele>19.1</ele>
        <time>2015-04-07T16:04:53.000Z</time>
      </trkpt>
      <trkpt lat="50.82756" lon="1.59253">
        <ele>19.1</ele>
        <time>2015-04-07T16:04:54.000Z</time>
      </trkpt>
      <trkpt lat="50.82756" lon="1.59254">
        <ele>19.1</ele>
        <time>2015-04-07T16:04:55.000Z</time>
      </trkpt>
      <trkpt lat="50.82755" lon="1.59255">
        <ele>19.2</ele>
        <time>2015-04-07T16:04:56.000Z</time>
      </trkpt>
      <trkpt lat="50.82754" lon="1.59255">
        <ele>19.2</ele>
        <time>2015-04-07T16:04:57.000Z</time>
      </trkpt>
      <trkpt lat="50.82753" lon="1.59256">
        <ele>19.2</ele>
        <time>2015-04-07T16:04:58.000Z</time>
      </trkpt>
      <trkpt lat="50.82752" lon="1.59257">
        <ele>19.2</ele>
        <time>2015-04-07T16:04:59.000Z</time>
      </trkpt>
      <trkpt lat="50.82751" lon="1.59258">
        <ele>19.3</ele>
        <time>2015-04-07T16:05:00.000Z</time>
      </trkpt>
      <trkpt lat="50.82749" lon="1.59258">
        <ele>19.3</ele>
        <time>2015-04-07T16:05:01.000Z</time>
      </trkpt>
      <trkpt lat="50.82748" lon="1.59259">
        <ele>19.3</ele>
        <time>2015-04-07T16:05:02.000Z</time>
      </trkpt>
      <trkpt lat="50.82747" lon="1.5926">
        <ele>19.3</ele>
        <time>2015-04-07T16:05:03.000Z</time>
      </trkpt>
      <trkpt lat="50.82746" lon="1.59261">
        <ele>19.3</ele>
        <time>2015-04-07T16:05:04.000Z</time>
      </trkpt>
      <trkpt lat="50.82745" lon="1.59261">
        <ele>19.3</ele>
        <time>2015-04-07T16:05:05.000Z</time>
      </trkpt>
      <trkpt lat="50.82744" lon="1.59262">
        <ele>19.3</ele>
        <time>2015-04-07T16:05:06.000Z</time>
      </trkpt>
      <trkpt lat="50.82743" lon="1.59263">
        <ele>19.3</ele>
        <time>2015-04-07T16:05:07.000Z</time>
      </trkpt>
      <trkpt lat="50.82741" lon="1.59264">
        <ele>19.3</ele>
        <time>2015-04-07T16:05:08.000Z</time>
      </trkpt>
      <trkpt lat="50.8274" lon="1.59264">
        <ele>19.3</ele>
        <time>2015-04-07T16:05:09.000Z</time>
      </trkpt>
      <trkpt lat="50.82739" lon="1.59265">
        <ele>19.3</ele>
        <time>2015-04-07T16:05:10.000Z</time>
      </trkpt>
      <trkpt lat="50.82738" lon="1.59266">
        <ele>19.3</ele>
        <time>2015-04-07T16:05:11.000Z</time>
      </trkpt>
      <trkpt lat="50.82736" lon="1.59266">
        <ele>19.3</ele>
        <time>2015-04-07T16:05:12.000Z</time>
      </trkpt>
      <trkpt lat="50.82735" lon="1.59267">
        <ele>19.3</ele>
        <time>2015-04-07T16:05:13.000Z</time>
      </trkpt>
      <trkpt lat="50.82734" lon="1.59267">
        <ele>19.3</ele>
        <time>2015-04-07T16:05:14.000Z</time>
      </trkpt>
      <trkpt lat="50.82733" lon="1.59268">
        <ele>19.2</ele>
        <time>2015-04-07T16:05:15.000Z</time>
      </trkpt>
      <trkpt lat="50.82732" lon="1.59268">
        <ele>19.2</ele>
        <time>2015-04-07T16:05:16.000Z</time>
      </trkpt>
      <trkpt lat="50.8273" lon="1.59269">
        <ele>19.2</ele>
        <time>2015-04-07T16:05:17.000Z</time>
      </trkpt>
      <trkpt lat="50.82729" lon="1.5927">
        <ele>19.2</ele>
        <time>2015-04-07T16:05:18.000Z</time>
      </trkpt>
      <trkpt lat="50.82728" lon="1.5927">
        <ele>19.1</ele>
        <time>2015-04-07T16:05:19.000Z</time>
      </trkpt>
      <trkpt lat="50.82726" lon="1.5927">
        <ele>19.1</ele>
        <time>2015-04-07T16:05:20.000Z</time>
      </trkpt>
      <trkpt lat="50.82725" lon="1.59271">
        <ele>19.1</ele>
        <time>2015-04-07T16:05:21.000Z</time>
      </trkpt>
      <trkpt lat="50.82724" lon="1.59271">
        <ele>19</ele>
        <time>2015-04-07T16:05:22.000Z</time>
      </trkpt>
      <trkpt lat="50.82723" lon="1.59272">
        <ele>19</ele>
        <time>2015-04-07T16:05:23.000Z</time>
      </trkpt>
      <trkpt lat="50.82721" lon="1.59272">
        <ele>19</ele>
        <time>2015-04-07T16:05:24.000Z</time>
      </trkpt>
      <trkpt lat="50.8272" lon="1.59272">
        <ele>19</ele>
        <time>2015-04-07T16:05:25.000Z</time>
      </trkpt>
      <trkpt lat="50.82719" lon="1.59273">
        <ele>19</ele>
        <time>2015-04-07T16:05:26.000Z</time>
      </trkpt>
      <trkpt lat="50.82718" lon="1.59273">
        <ele>19</ele>
        <time>2015-04-07T16:05:27.000Z</time>
      </trkpt>
      <trkpt lat="50.82716" lon="1.59274">
        <ele>19</ele>
        <time>2015-04-07T16:05:28.000Z</time>
      </trkpt>
      <trkpt lat="50.82715" lon="1.59274">
        <ele>19</ele>
        <time>2015-04-07T16:05:29.000Z</time>
      </trkpt>
      <trkpt lat="50.82714" lon="1.59274">
        <ele>19</ele>
        <time>2015-04-07T16:05:30.000Z</time>
      </trkpt>
      <trkpt lat="50.82712" lon="1.59275">
        <ele>19</ele>
        <time>2015-04-07T16:05:31.000Z</time>
      </trkpt>
      <trkpt lat="50.82711" lon="1.59275">
        <ele>19</ele>
        <time>2015-04-07T16:05:32.000Z</time>
      </trkpt>
      <trkpt lat="50.8271" lon="1.59275">
        <ele>19</ele>
        <time>2015-04-07T16:05:33.000Z</time>
      </trkpt>
      <trkpt lat="50.82709" lon="1.59276">
        <ele>19</ele>
        <time>2015-04-07T16:05:34.000Z</time>
      </trkpt>
      <trkpt lat="50.82707" lon="1.59276">
        <ele>19</ele>
        <time>2015-04-07T16:05:35.000Z</time>
      </trkpt>
      <trkpt lat="50.82706" lon="1.59276">
        <ele>19</ele>
        <time>2015-04-07T16:05:36.000Z</time>
      </trkpt>
      <trkpt lat="50.82705" lon="1.59276">
        <ele>19</ele>
        <time>2015-04-07T16:05:37.000Z</time>
      </trkpt>
      <trkpt lat="50.82704" lon="1.59277">
        <ele>19</ele>
        <time>2015-04-07T16:05:38.000Z</time>
      </trkpt>
      <trkpt lat="50.82702" lon="1.59277">
        <ele>19</ele>
        <time>2015-04-07T16:05:39.000Z</time>
      </trkpt>
      <trkpt lat="50.82701" lon="1.59277">
        <ele>19</ele>
        <time>2015-04-07T16:05:40.000Z</time>
      </trkpt>
      <trkpt lat="50.827" lon="1.59277">
        <ele>19</ele>
        <time>2015-04-07T16:05:41.000Z</time>
      </trkpt>
      <trkpt lat="50.82698" lon="1.59277">
        <ele>19</ele>
        <time>2015-04-07T16:05:42.000Z</time>
      </trkpt>
      <trkpt lat="50.82697" lon="1.59277">
        <ele>19</ele>
        <time>2015-04-07T16:05:43.000Z</time>
      </trkpt>
      <trkpt lat="50.82696" lon="1.59277">
        <ele>19</ele>
        <time>2015-04-07T16:05:44.000Z</time>
      </trkpt>
      <trkpt lat="50.82695" lon="1.59277">
        <ele>19</ele>
        <time>2015-04-07T16:05:45.000Z</time>
      </trkpt>
      <trkpt lat="50.82694" lon="1.59277">
        <ele>18.9</ele>
        <time>2015-04-07T16:05:46.000Z</time>
      </trkpt>
      <trkpt lat="50.82693" lon="1.59277">
        <ele>18.9</ele>
        <time>2015-04-07T16:05:47.000Z</time>
      </trkpt>
      <trkpt lat="50.82692" lon="1.59276">
        <ele>18.9</ele>
        <time>2015-04-07T16:05:48.000Z</time>
      </trkpt>
      <trkpt lat="50.82691" lon="1.59276">
        <ele>18.8</ele>
        <time>2015-04-07T16:05:49.000Z</time>
      </trkpt>
      <trkpt lat="50.8269" lon="1.59276">
        <ele>18.8</ele>
        <time>2015-04-07T16:05:50.000Z</time>
      </trkpt>
      <trkpt lat="50.82689" lon="1.59276">
        <ele>18.8</ele>
        <time>2015-04-07T16:05:51.000Z</time>
      </trkpt>
      <trkpt lat="50.82688" lon="1.59276">
        <ele>18.7</ele>
        <time>2015-04-07T16:05:52.000Z</time>
      </trkpt>
      <trkpt lat="50.82687" lon="1.59276">
        <ele>18.7</ele>
        <time>2015-04-07T16:05:53.000Z</time>
      </trkpt>
      <trkpt lat="50.82685" lon="1.59276">
        <ele>18.6</ele>
        <time>2015-04-07T16:05:54.000Z</time>
      </trkpt>
      <trkpt lat="50.82684" lon="1.59275">
        <ele>18.6</ele>
        <time>2015-04-07T16:05:55.000Z</time>
      </trkpt>
      <trkpt lat="50.82683" lon="1.59275">
        <ele>18.6</ele>
        <time>2015-04-07T16:05:56.000Z</time>
      </trkpt>
      <trkpt lat="50.82682" lon="1.59275">
        <ele>18.6</ele>
        <time>2015-04-07T16:05:57.000Z</time>
      </trkpt>
      <trkpt lat="50.82681" lon="1.59275">
        <ele>18.5</ele>
        <time>2015-04-07T16:05:58.000Z</time>
      </trkpt>
      <trkpt lat="50.8268" lon="1.59274">
        <ele>18.5</ele>
        <time>2015-04-07T16:05:59.000Z</time>
      </trkpt>
      <trkpt lat="50.82679" lon="1.59274">
        <ele>18.5</ele>
        <time>2015-04-07T16:06:00.000Z</time>
      </trkpt>
      <trkpt lat="50.82678" lon="1.59274">
        <ele>18.4</ele>
        <time>2015-04-07T16:06:01.000Z</time>
      </trkpt>
      <trkpt lat="50.82677" lon="1.59274">
        <ele>18.4</ele>
        <time>2015-04-07T16:06:02.000Z</time>
      </trkpt>
      <trkpt lat="50.82676" lon="1.59274">
        <ele>18.4</ele>
        <time>2015-04-07T16:06:03.000Z</time>
      </trkpt>
      <trkpt lat="50.82674" lon="1.59273">
        <ele>18.4</ele>
        <time>2015-04-07T16:06:04.000Z</time>
      </trkpt>
      <trkpt lat="50.82673" lon="1.59273">
        <ele>18.3</ele>
        <time>2015-04-07T16:06:05.000Z</time>
      </trkpt>
      <trkpt lat="50.82672" lon="1.59273">
        <ele>18.3</ele>
        <time>2015-04-07T16:06:06.000Z</time>
      </trkpt>
      <trkpt lat="50.82671" lon="1.59272">
        <ele>18.3</ele>
        <time>2015-04-07T16:06:07.000Z</time>
      </trkpt>
      <trkpt lat="50.8267" lon="1.59272">
        <ele>18.3</ele>
        <time>2015-04-07T16:06:08.000Z</time>
      </trkpt>
      <trkpt lat="50.82669" lon="1.59272">
        <ele>18.3</ele>
        <time>2015-04-07T16:06:09.000Z</time>
      </trkpt>
      <trkpt lat="50.82668" lon="1.59271">
        <ele>18.3</ele>
        <time>2015-04-07T16:06:10.000Z</time>
      </trkpt>
      <trkpt lat="50.82666" lon="1.59271">
        <ele>18.2</ele>
        <time>2015-04-07T16:06:11.000Z</time>
      </trkpt>
      <trkpt lat="50.82665" lon="1.5927">
        <ele>18.2</ele>
        <time>2015-04-07T16:06:12.000Z</time>
      </trkpt>
      <trkpt lat="50.82664" lon="1.5927">
        <ele>18.2</ele>
        <time>2015-04-07T16:06:13.000Z</time>
      </trkpt>
      <trkpt lat="50.82663" lon="1.59269">
        <ele>18.2</ele>
        <time>2015-04-07T16:06:14.000Z</time>
      </trkpt>
      <trkpt lat="50.82662" lon="1.59269">
        <ele>18.1</ele>
        <time>2015-04-07T16:06:15.000Z</time>
      </trkpt>
      <trkpt lat="50.82661" lon="1.59268">
        <ele>18.1</ele>
        <time>2015-04-07T16:06:16.000Z</time>
      </trkpt>
      <trkpt lat="50.82659" lon="1.59268">
        <ele>18.1</ele>
        <time>2015-04-07T16:06:17.000Z</time>
      </trkpt>
      <trkpt lat="50.82658" lon="1.59267">
        <ele>18.1</ele>
        <time>2015-04-07T16:06:18.000Z</time>
      </trkpt>
      <trkpt lat="50.82657" lon="1.59267">
        <ele>18</ele>
        <time>2015-04-07T16:06:19.000Z</time>
      </trkpt>
      <trkpt lat="50.82656" lon="1.59266">
        <ele>18</ele>
        <time>2015-04-07T16:06:20.000Z</time>
      </trkpt>
      <trkpt lat="50.82655" lon="1.59266">
        <ele>18</ele>
        <time>2015-04-07T16:06:21.000Z</time>
      </trkpt>
      <trkpt lat="50.82654" lon="1.59265">
        <ele>18</ele>
        <time>2015-04-07T16:06:22.000Z</time>
      </trkpt>
      <trkpt lat="50.82653" lon="1.59265">
        <ele>18</ele>
        <time>2015-04-07T16:06:23.000Z</time>
      </trkpt>
      <trkpt lat="50.82651" lon="1.59264">
        <ele>17.9</ele>
        <time>2015-04-07T16:06:24.000Z</time>
      </trkpt>
      <trkpt lat="50.8265" lon="1.59264">
        <ele>17.9</ele>
        <time>2015-04-07T16:06:25.000Z</time>
      </trkpt>
      <trkpt lat="50.82649" lon="1.59263">
        <ele>17.9</ele>
        <time>2015-04-07T16:06:26.000Z</time>
      </trkpt>
      <trkpt lat="50.82648" lon="1.59262">
        <ele>17.9</ele>
        <time>2015-04-07T16:06:27.000Z</time>
      </trkpt>
      <trkpt lat="50.82647" lon="1.59262">
        <ele>17.9</ele>
        <time>2015-04-07T16:06:28.000Z</time>
      </trkpt>
      <trkpt lat="50.82646" lon="1.59261">
        <ele>17.9</ele>
        <time>2015-04-07T16:06:29.000Z</time>
      </trkpt>
      <trkpt lat="50.82645" lon="1.5926">
        <ele>17.8</ele>
        <time>2015-04-07T16:06:30.000Z</time>
      </trkpt>
      <trkpt lat="50.82644" lon="1.5926">
        <ele>17.8</ele>
        <time>2015-04-07T16:06:31.000Z</time>
      </trkpt>
      <trkpt lat="50.82642" lon="1.59259">
        <ele>17.8</ele>
        <time>2015-04-07T16:06:32.000Z</time>
      </trkpt>
      <trkpt lat="50.82641" lon="1.59258">
        <ele>17.8</ele>
        <time>2015-04-07T16:06:33.000Z</time>
      </trkpt>
      <trkpt lat="50.8264" lon="1.59258">
        <ele>17.8</ele>
        <time>2015-04-07T16:06:34.000Z</time>
      </trkpt>
      <trkpt lat="50.82639" lon="1.59257">
        <ele>17.8</ele>
        <time>2015-04-07T16:06:35.000Z</time>
      </trkpt>
      <trkpt lat="50.82638" lon="1.59256">
        <ele>17.7</ele>
        <time>2015-04-07T16:06:36.000Z</time>
      </trkpt>
      <trkpt lat="50.82637" lon="1.59256">
        <ele>17.7</ele>
        <time>2015-04-07T16:06:37.000Z</time>
      </trkpt>
      <trkpt lat="50.82636" lon="1.59255">
        <ele>17.7</ele>
        <time>2015-04-07T16:06:38.000Z</time>
      </trkpt>
      <trkpt lat="50.82635" lon="1.59254">
        <ele>17.6</ele>
        <time>2015-04-07T16:06:39.000Z</time>
      </trkpt>
      <trkpt lat="50.82634" lon="1.59253">
        <ele>17.6</ele>
        <time>2015-04-07T16:06:40.000Z</time>
      </trkpt>
      <trkpt lat="50.82633" lon="1.59252">
        <ele>17.5</ele>
        <time>2015-04-07T16:06:41.000Z</time>
      </trkpt>
      <trkpt lat="50.82632" lon="1.59251">
        <ele>17.5</ele>
        <time>2015-04-07T16:06:42.000Z</time>
      </trkpt>
      <trkpt lat="50.82631" lon="1.5925">
        <ele>17.4</ele>
        <time>2015-04-07T16:06:43.000Z</time>
      </trkpt>
      <trkpt lat="50.8263" lon="1.59249">
        <ele>17.3</ele>
        <time>2015-04-07T16:06:44.000Z</time>
      </trkpt>
      <trkpt lat="50.82629" lon="1.59248">
        <ele>17.2</ele>
        <time>2015-04-07T16:06:45.000Z</time>
      </trkpt>
      <trkpt lat="50.82628" lon="1.59247">
        <ele>17.1</ele>
        <time>2015-04-07T16:06:46.000Z</time>
      </trkpt>
      <trkpt lat="50.82627" lon="1.59247">
        <ele>17</ele>
        <time>2015-04-07T16:06:47.000Z</time>
      </trkpt>
      <trkpt lat="50.82626" lon="1.59246">
        <ele>16.9</ele>
        <time>2015-04-07T16:06:48.000Z</time>
      </trkpt>
      <trkpt lat="50.82625" lon="1.59245">
        <ele>16.8</ele>
        <time>2015-04-07T16:06:49.000Z</time>
      </trkpt>
      <trkpt lat="50.82624" lon="1.59244">
        <ele>16.7</ele>
        <time>2015-04-07T16:06:50.000Z</time>
      </trkpt>
      <trkpt lat="50.82623" lon="1.59243">
        <ele>16.6</ele>
        <time>2015-04-07T16:06:51.000Z</time>
      </trkpt>
      <trkpt lat="50.82621" lon="1.59242">
        <ele>16.5</ele>
        <time>2015-04-07T16:06:52.000Z</time>
      </trkpt>
      <trkpt lat="50.8262" lon="1.59241">
        <ele>16.5</ele>
        <time>2015-04-07T16:06:53.000Z</time>
      </trkpt>
      <trkpt lat="50.82619" lon="1.5924">
        <ele>16.4</ele>
        <time>2015-04-07T16:06:54.000Z</time>
      </trkpt>
      <trkpt lat="50.82619" lon="1.59239">
        <ele>16.3</ele>
        <time>2015-04-07T16:06:55.000Z</time>
      </trkpt>
      <trkpt lat="50.82618" lon="1.59238">
        <ele>16.3</ele>
        <time>2015-04-07T16:06:56.000Z</time>
      </trkpt>
      <trkpt lat="50.82617" lon="1.59237">
        <ele>16.2</ele>
        <time>2015-04-07T16:06:57.000Z</time>
      </trkpt>
      <trkpt lat="50.82616" lon="1.59236">
        <ele>16.2</ele>
        <time>2015-04-07T16:06:58.000Z</time>
      </trkpt>
      <trkpt lat="50.82615" lon="1.59234">
        <ele>16.1</ele>
        <time>2015-04-07T16:06:59.000Z</time>
      </trkpt>
      <trkpt lat="50.82614" lon="1.59233">
        <ele>16.1</ele>
        <time>2015-04-07T16:07:00.000Z</time>
      </trkpt>
      <trkpt lat="50.82614" lon="1.59231">
        <ele>16.1</ele>
        <time>2015-04-07T16:07:01.000Z</time>
      </trkpt>
      <trkpt lat="50.82613" lon="1.5923">
        <ele>16</ele>
        <time>2015-04-07T16:07:02.000Z</time>
      </trkpt>
      <trkpt lat="50.82612" lon="1.59229">
        <ele>16</ele>
        <time>2015-04-07T16:07:03.000Z</time>
      </trkpt>
      <trkpt lat="50.82612" lon="1.59227">
        <ele>16</ele>
        <time>2015-04-07T16:07:04.000Z</time>
      </trkpt>
      <trkpt lat="50.82611" lon="1.59226">
        <ele>16</ele>
        <time>2015-04-07T16:07:05.000Z</time>
      </trkpt>
      <trkpt lat="50.8261" lon="1.59225">
        <ele>16</ele>
        <time>2015-04-07T16:07:06.000Z</time>
      </trkpt>
      <trkpt lat="50.8261" lon="1.59223">
        <ele>16</ele>
        <time>2015-04-07T16:07:07.000Z</time>
      </trkpt>
      <trkpt lat="50.8261" lon="1.59222">
        <ele>15.9</ele>
        <time>2015-04-07T16:07:08.000Z</time>
      </trkpt>
      <trkpt lat="50.8261" lon="1.5922">
        <ele>15.9</ele>
        <time>2015-04-07T16:07:09.000Z</time>
      </trkpt>
      <trkpt lat="50.8261" lon="1.59218">
        <ele>15.8</ele>
        <time>2015-04-07T16:07:10.000Z</time>
      </trkpt>
      <trkpt lat="50.8261" lon="1.59216">
        <ele>15.8</ele>
        <time>2015-04-07T16:07:11.000Z</time>
      </trkpt>
      <trkpt lat="50.82611" lon="1.59215">
        <ele>15.7</ele>
        <time>2015-04-07T16:07:12.000Z</time>
      </trkpt>
      <trkpt lat="50.82611" lon="1.59213">
        <ele>15.7</ele>
        <time>2015-04-07T16:07:13.000Z</time>
      </trkpt>
      <trkpt lat="50.82612" lon="1.59212">
        <ele>15.6</ele>
        <time>2015-04-07T16:07:14.000Z</time>
      </trkpt>
      <trkpt lat="50.82613" lon="1.5921">
        <ele>15.6</ele>
        <time>2015-04-07T16:07:15.000Z</time>
      </trkpt>
      <trkpt lat="50.82613" lon="1.59209">
        <ele>15.6</ele>
        <time>2015-04-07T16:07:16.000Z</time>
      </trkpt>
      <trkpt lat="50.82614" lon="1.59208">
        <ele>15.5</ele>
        <time>2015-04-07T16:07:17.000Z</time>
      </trkpt>
      <trkpt lat="50.82615" lon="1.59206">
        <ele>15.5</ele>
        <time>2015-04-07T16:07:18.000Z</time>
      </trkpt>
      <trkpt lat="50.82616" lon="1.59205">
        <ele>15.5</ele>
        <time>2015-04-07T16:07:19.000Z</time>
      </trkpt>
      <trkpt lat="50.82617" lon="1.59204">
        <ele>15.5</ele>
        <time>2015-04-07T16:07:20.000Z</time>
      </trkpt>
      <trkpt lat="50.82617" lon="1.59203">
        <ele>15.5</ele>
        <time>2015-04-07T16:07:21.000Z</time>
      </trkpt>
      <trkpt lat="50.82618" lon="1.59201">
        <ele>15.4</ele>
        <time>2015-04-07T16:07:22.000Z</time>
      </trkpt>
      <trkpt lat="50.82619" lon="1.592">
        <ele>15.4</ele>
        <time>2015-04-07T16:07:23.000Z</time>
      </trkpt>
      <trkpt lat="50.8262" lon="1.59199">
        <ele>15.4</ele>
        <time>2015-04-07T16:07:24.000Z</time>
      </trkpt>
      <trkpt lat="50.82621" lon="1.59197">
        <ele>15.4</ele>
        <time>2015-04-07T16:07:25.000Z</time>
      </trkpt>
      <trkpt lat="50.82622" lon="1.59196">
        <ele>15.4</ele>
        <time>2015-04-07T16:07:26.000Z</time>
      </trkpt>
      <trkpt lat="50.82623" lon="1.59195">
        <ele>15.4</ele>
        <time>2015-04-07T16:07:27.000Z</time>
      </trkpt>
      <trkpt lat="50.82624" lon="1.59193">
        <ele>15.5</ele>
        <time>2015-04-07T16:07:28.000Z</time>
      </trkpt>
      <trkpt lat="50.82625" lon="1.59192">
        <ele>15.5</ele>
        <time>2015-04-07T16:07:29.000Z</time>
      </trkpt>
      <trkpt lat="50.82626" lon="1.59191">
        <ele>15.5</ele>
        <time>2015-04-07T16:07:30.000Z</time>
      </trkpt>
      <trkpt lat="50.82627" lon="1.59189">
        <ele>15.6</ele>
        <time>2015-04-07T16:07:31.000Z</time>
      </trkpt>
      <trkpt lat="50.82628" lon="1.59188">
        <ele>15.6</ele>
        <time>2015-04-07T16:07:32.000Z</time>
      </trkpt>
      <trkpt lat="50.82629" lon="1.59187">
        <ele>15.6</ele>
        <time>2015-04-07T16:07:33.000Z</time>
      </trkpt>
      <trkpt lat="50.8263" lon="1.59186">
        <ele>15.7</ele>
        <time>2015-04-07T16:07:34.000Z</time>
      </trkpt>
      <trkpt lat="50.82631" lon="1.59184">
        <ele>15.7</ele>
        <time>2015-04-07T16:07:35.000Z</time>
      </trkpt>
      <trkpt lat="50.82632" lon="1.59183">
        <ele>15.7</ele>
        <time>2015-04-07T16:07:36.000Z</time>
      </trkpt>
      <trkpt lat="50.82632" lon="1.59182">
        <ele>15.8</ele>
        <time>2015-04-07T16:07:37.000Z</time>
      </trkpt>
      <trkpt lat="50.82633" lon="1.5918">
        <ele>15.8</ele>
        <time>2015-04-07T16:07:38.000Z</time>
      </trkpt>
      <trkpt lat="50.82634" lon="1.59179">
        <ele>15.8</ele>
        <time>2015-04-07T16:07:39.000Z</time>
      </trkpt>
      <trkpt lat="50.82635" lon="1.59178">
        <ele>15.9</ele>
        <time>2015-04-07T16:07:40.000Z</time>
      </trkpt>
      <trkpt lat="50.82636" lon="1.59177">
        <ele>15.9</ele>
        <time>2015-04-07T16:07:41.000Z</time>
      </trkpt>
      <trkpt lat="50.82637" lon="1.59177">
        <ele>15.9</ele>
        <time>2015-04-07T16:07:42.000Z</time>
      </trkpt>
      <trkpt lat="50.82637" lon="1.59176">
        <ele>15.9</ele>
        <time>2015-04-07T16:07:43.000Z</time>
      </trkpt>
      <trkpt lat="50.82638" lon="1.59175">
        <ele>16</ele>
        <time>2015-04-07T16:07:44.000Z</time>
      </trkpt>
      <trkpt lat="50.82638" lon="1.59175">
        <ele>16</ele>
        <time>2015-04-07T16:07:45.000Z</time>
      </trkpt>
      <trkpt lat="50.82639" lon="1.59174">
        <ele>16</ele>
        <time>2015-04-07T16:07:46.000Z</time>
      </trkpt>
      <trkpt lat="50.82639" lon="1.59174">
        <ele>16</ele>
        <time>2015-04-07T16:07:47.000Z</time>
      </trkpt>
      <trkpt lat="50.82639" lon="1.59173">
        <ele>16</ele>
        <time>2015-04-07T16:07:48.000Z</time>
      </trkpt>
      <trkpt lat="50.82639" lon="1.59173">
        <ele>16</ele>
        <time>2015-04-07T16:07:49.000Z</time>
      </trkpt>
      <trkpt lat="50.8264" lon="1.59173">
        <ele>16</ele>
        <time>2015-04-07T16:07:50.000Z</time>
      </trkpt>
      <trkpt lat="50.8264" lon="1.59172">
        <ele>16</ele>
        <time>2015-04-07T16:07:51.000Z</time>
      </trkpt>
      <trkpt lat="50.8264" lon="1.59171">
        <ele>16</ele>
        <time>2015-04-07T16:07:52.000Z</time>
      </trkpt>
      <trkpt lat="50.82641" lon="1.5917">
        <ele>16</ele>
        <time>2015-04-07T16:07:53.000Z</time>
      </trkpt>
      <trkpt lat="50.82642" lon="1.59169">
        <ele>16</ele>
        <time>2015-04-07T16:07:54.000Z</time>
      </trkpt>
      <trkpt lat="50.82642" lon="1.59168">
        <ele>16</ele>
        <time>2015-04-07T16:07:55.000Z</time>
      </trkpt>
      <trkpt lat="50.82643" lon="1.59167">
        <ele>16</ele>
        <time>2015-04-07T16:07:56.000Z</time>
      </trkpt>
      <trkpt lat="50.82643" lon="1.59166">
        <ele>16</ele>
        <time>2015-04-07T16:07:57.000Z</time>
      </trkpt>
      <trkpt lat="50.82644" lon="1.59164">
        <ele>15.9</ele>
        <time>2015-04-07T16:07:58.000Z</time>
      </trkpt>
      <trkpt lat="50.82645" lon="1.59163">
        <ele>15.9</ele>
        <time>2015-04-07T16:07:59.000Z</time>
      </trkpt>
      <trkpt lat="50.82645" lon="1.59162">
        <ele>15.9</ele>
        <time>2015-04-07T16:08:00.000Z</time>
      </trkpt>
      <trkpt lat="50.82646" lon="1.5916">
        <ele>15.8</ele>
        <time>2015-04-07T16:08:01.000Z</time>
      </trkpt>
      <trkpt lat="50.82647" lon="1.59159">
        <ele>15.8</ele>
        <time>2015-04-07T16:08:02.000Z</time>
      </trkpt>
      <trkpt lat="50.82647" lon="1.59157">
        <ele>15.8</ele>
        <time>2015-04-07T16:08:03.000Z</time>
      </trkpt>
      <trkpt lat="50.82648" lon="1.59156">
        <ele>15.7</ele>
        <time>2015-04-07T16:08:04.000Z</time>
      </trkpt>
      <trkpt lat="50.82649" lon="1.59154">
        <ele>15.7</ele>
        <time>2015-04-07T16:08:05.000Z</time>
      </trkpt>
      <trkpt lat="50.82649" lon="1.59153">
        <ele>15.7</ele>
        <time>2015-04-07T16:08:06.000Z</time>
      </trkpt>
      <trkpt lat="50.8265" lon="1.59151">
        <ele>15.7</ele>
        <time>2015-04-07T16:08:07.000Z</time>
      </trkpt>
      <trkpt lat="50.8265" lon="1.5915">
        <ele>15.6</ele>
        <time>2015-04-07T16:08:08.000Z</time>
      </trkpt>
      <trkpt lat="50.82651" lon="1.59149">
        <ele>15.6</ele>
        <time>2015-04-07T16:08:09.000Z</time>
      </trkpt>
      <trkpt lat="50.82652" lon="1.59147">
        <ele>15.6</ele>
        <time>2015-04-07T16:08:10.000Z</time>
      </trkpt>
      <trkpt lat="50.82653" lon="1.59146">
        <ele>15.6</ele>
        <time>2015-04-07T16:08:11.000Z</time>
      </trkpt>
      <trkpt lat="50.82653" lon="1.59144">
        <ele>15.6</ele>
        <time>2015-04-07T16:08:12.000Z</time>
      </trkpt>
      <trkpt lat="50.82654" lon="1.59143">
        <ele>15.6</ele>
        <time>2015-04-07T16:08:13.000Z</time>
      </trkpt>
      <trkpt lat="50.82655" lon="1.59142">
        <ele>15.6</ele>
        <time>2015-04-07T16:08:14.000Z</time>
      </trkpt>
      <trkpt lat="50.82656" lon="1.5914">
        <ele>15.6</ele>
        <time>2015-04-07T16:08:15.000Z</time>
      </trkpt>
      <trkpt lat="50.82657" lon="1.59139">
        <ele>15.6</ele>
        <time>2015-04-07T16:08:16.000Z</time>
      </trkpt>
      <trkpt lat="50.82657" lon="1.59137">
        <ele>15.6</ele>
        <time>2015-04-07T16:08:17.000Z</time>
      </trkpt>
      <trkpt lat="50.82658" lon="1.59136">
        <ele>15.6</ele>
        <time>2015-04-07T16:08:18.000Z</time>
      </trkpt>
      <trkpt lat="50.82659" lon="1.59135">
        <ele>15.6</ele>
        <time>2015-04-07T16:08:19.000Z</time>
      </trkpt>
      <trkpt lat="50.8266" lon="1.59133">
        <ele>15.6</ele>
        <time>2015-04-07T16:08:20.000Z</time>
      </trkpt>
      <trkpt lat="50.82661" lon="1.59132">
        <ele>15.6</ele>
        <time>2015-04-07T16:08:21.000Z</time>
      </trkpt>
      <trkpt lat="50.82662" lon="1.59131">
        <ele>15.5</ele>
        <time>2015-04-07T16:08:22.000Z</time>
      </trkpt>
      <trkpt lat="50.82663" lon="1.59129">
        <ele>15.5</ele>
        <time>2015-04-07T16:08:23.000Z</time>
      </trkpt>
      <trkpt lat="50.82664" lon="1.59128">
        <ele>15.5</ele>
        <time>2015-04-07T16:08:24.000Z</time>
      </trkpt>
      <trkpt lat="50.82665" lon="1.59127">
        <ele>15.5</ele>
        <time>2015-04-07T16:08:25.000Z</time>
      </trkpt>
      <trkpt lat="50.82666" lon="1.59126">
        <ele>15.5</ele>
        <time>2015-04-07T16:08:26.000Z</time>
      </trkpt>
      <trkpt lat="50.82666" lon="1.59125">
        <ele>15.5</ele>
        <time>2015-04-07T16:08:27.000Z</time>
      </trkpt>
      <trkpt lat="50.82667" lon="1.59123">
        <ele>15.5</ele>
        <time>2015-04-07T16:08:28.000Z</time>
      </trkpt>
      <trkpt lat="50.82668" lon="1.59122">
        <ele>15.5</ele>
        <time>2015-04-07T16:08:29.000Z</time>
      </trkpt>
      <trkpt lat="50.82669" lon="1.59121">
        <ele>15.4</ele>
        <time>2015-04-07T16:08:30.000Z</time>
      </trkpt>
      <trkpt lat="50.8267" lon="1.5912">
        <ele>15.4</ele>
        <time>2015-04-07T16:08:31.000Z</time>
      </trkpt>
      <trkpt lat="50.82671" lon="1.59119">
        <ele>15.4</ele>
        <time>2015-04-07T16:08:32.000Z</time>
      </trkpt>
      <trkpt lat="50.82672" lon="1.59118">
        <ele>15.4</ele>
        <time>2015-04-07T16:08:33.000Z</time>
      </trkpt>
      <trkpt lat="50.82673" lon="1.59116">
        <ele>15.4</ele>
        <time>2015-04-07T16:08:34.000Z</time>
      </trkpt>
      <trkpt lat="50.82674" lon="1.59115">
        <ele>15.4</ele>
        <time>2015-04-07T16:08:35.000Z</time>
      </trkpt>
      <trkpt lat="50.82674" lon="1.59114">
        <ele>15.4</ele>
        <time>2015-04-07T16:08:36.000Z</time>
      </trkpt>
      <trkpt lat="50.82675" lon="1.59113">
        <ele>15.4</ele>
        <time>2015-04-07T16:08:37.000Z</time>
      </trkpt>
      <trkpt lat="50.82676" lon="1.59112">
        <ele>15.4</ele>
        <time>2015-04-07T16:08:38.000Z</time>
      </trkpt>
      <trkpt lat="50.82677" lon="1.5911">
        <ele>15.3</ele>
        <time>2015-04-07T16:08:39.000Z</time>
      </trkpt>
      <trkpt lat="50.82678" lon="1.59109">
        <ele>15.3</ele>
        <time>2015-04-07T16:08:40.000Z</time>
      </trkpt>
      <trkpt lat="50.82678" lon="1.59108">
        <ele>15.3</ele>
        <time>2015-04-07T16:08:41.000Z</time>
      </trkpt>
      <trkpt lat="50.82679" lon="1.59107">
        <ele>15.3</ele>
        <time>2015-04-07T16:08:42.000Z</time>
      </trkpt>
      <trkpt lat="50.82679" lon="1.59105">
        <ele>15.3</ele>
        <time>2015-04-07T16:08:43.000Z</time>
      </trkpt>
      <trkpt lat="50.82679" lon="1.59104">
        <ele>15.3</ele>
        <time>2015-04-07T16:08:44.000Z</time>
      </trkpt>
      <trkpt lat="50.8268" lon="1.59102">
        <ele>15.3</ele>
        <time>2015-04-07T16:08:45.000Z</time>
      </trkpt>
      <trkpt lat="50.8268" lon="1.59101">
        <ele>15.3</ele>
        <time>2015-04-07T16:08:46.000Z</time>
      </trkpt>
      <trkpt lat="50.8268" lon="1.59099">
        <ele>15.2</ele>
        <time>2015-04-07T16:08:47.000Z</time>
      </trkpt>
      <trkpt lat="50.82679" lon="1.59098">
        <ele>15.2</ele>
        <time>2015-04-07T16:08:48.000Z</time>
      </trkpt>
      <trkpt lat="50.82679" lon="1.59096">
        <ele>15.2</ele>
        <time>2015-04-07T16:08:49.000Z</time>
      </trkpt>
      <trkpt lat="50.82679" lon="1.59095">
        <ele>15.1</ele>
        <time>2015-04-07T16:08:50.000Z</time>
      </trkpt>
      <trkpt lat="50.82678" lon="1.59093">
        <ele>15</ele>
        <time>2015-04-07T16:08:51.000Z</time>
      </trkpt>
      <trkpt lat="50.82677" lon="1.59092">
        <ele>15</ele>
        <time>2015-04-07T16:08:52.000Z</time>
      </trkpt>
      <trkpt lat="50.82677" lon="1.59091">
        <ele>14.9</ele>
        <time>2015-04-07T16:08:53.000Z</time>
      </trkpt>
      <trkpt lat="50.82676" lon="1.59089">
        <ele>14.8</ele>
        <time>2015-04-07T16:08:54.000Z</time>
      </trkpt>
      <trkpt lat="50.82675" lon="1.59088">
        <ele>14.7</ele>
        <time>2015-04-07T16:08:55.000Z</time>
      </trkpt>
      <trkpt lat="50.82674" lon="1.59086">
        <ele>14.6</ele>
        <time>2015-04-07T16:08:56.000Z</time>
      </trkpt>
      <trkpt lat="50.82673" lon="1.59085">
        <ele>14.5</ele>
        <time>2015-04-07T16:08:57.000Z</time>
      </trkpt>
      <trkpt lat="50.82672" lon="1.59084">
        <ele>14.4</ele>
        <time>2015-04-07T16:08:58.000Z</time>
      </trkpt>
      <trkpt lat="50.82671" lon="1.59083">
        <ele>14.3</ele>
        <time>2015-04-07T16:08:59.000Z</time>
      </trkpt>
      <trkpt lat="50.8267" lon="1.59081">
        <ele>14.3</ele>
        <time>2015-04-07T16:09:00.000Z</time>
      </trkpt>
      <trkpt lat="50.8267" lon="1.5908">
        <ele>14.2</ele>
        <time>2015-04-07T16:09:01.000Z</time>
      </trkpt>
      <trkpt lat="50.82669" lon="1.59079">
        <ele>14.1</ele>
        <time>2015-04-07T16:09:02.000Z</time>
      </trkpt>
      <trkpt lat="50.82668" lon="1.59078">
        <ele>14.1</ele>
        <time>2015-04-07T16:09:03.000Z</time>
      </trkpt>
      <trkpt lat="50.82667" lon="1.59076">
        <ele>14</ele>
        <time>2015-04-07T16:09:04.000Z</time>
      </trkpt>
      <trkpt lat="50.82666" lon="1.59075">
        <ele>14</ele>
        <time>2015-04-07T16:09:05.000Z</time>
      </trkpt>
      <trkpt lat="50.82665" lon="1.59074">
        <ele>13.9</ele>
        <time>2015-04-07T16:09:06.000Z</time>
      </trkpt>
      <trkpt lat="50.82664" lon="1.59073">
        <ele>13.9</ele>
        <time>2015-04-07T16:09:07.000Z</time>
      </trkpt>
      <trkpt lat="50.82663" lon="1.59071">
        <ele>13.9</ele>
        <time>2015-04-07T16:09:08.000Z</time>
      </trkpt>
      <trkpt lat="50.82662" lon="1.5907">
        <ele>13.8</ele>
        <time>2015-04-07T16:09:09.000Z</time>
      </trkpt>
      <trkpt lat="50.82662" lon="1.59069">
        <ele>13.8</ele>
        <time>2015-04-07T16:09:10.000Z</time>
      </trkpt>
      <trkpt lat="50.82661" lon="1.59068">
        <ele>13.8</ele>
        <time>2015-04-07T16:09:11.000Z</time>
      </trkpt>
      <trkpt lat="50.8266" lon="1.59067">
        <ele>13.8</ele>
        <time>2015-04-07T16:09:12.000Z</time>
      </trkpt>
      <trkpt lat="50.82659" lon="1.59065">
        <ele>13.7</ele>
        <time>2015-04-07T16:09:13.000Z</time>
      </trkpt>
      <trkpt lat="50.82658" lon="1.59064">
        <ele>13.7</ele>
        <time>2015-04-07T16:09:14.000Z</time>
      </trkpt>
      <trkpt lat="50.82657" lon="1.59063">
        <ele>13.7</ele>
        <time>2015-04-07T16:09:15.000Z</time>
      </trkpt>
      <trkpt lat="50.82656" lon="1.59062">
        <ele>13.6</ele>
        <time>2015-04-07T16:09:16.000Z</time>
      </trkpt>
      <trkpt lat="50.82656" lon="1.59061">
        <ele>13.6</ele>
        <time>2015-04-07T16:09:17.000Z</time>
      </trkpt>
      <trkpt lat="50.82655" lon="1.5906">
        <ele>13.6</ele>
        <time>2015-04-07T16:09:18.000Z</time>
      </trkpt>
      <trkpt lat="50.82654" lon="1.59059">
        <ele>13.5</ele>
        <time>2015-04-07T16:09:19.000Z</time>
      </trkpt>
      <trkpt lat="50.82653" lon="1.59058">
        <ele>13.5</ele>
        <time>2015-04-07T16:09:20.000Z</time>
      </trkpt>
      <trkpt lat="50.82652" lon="1.59056">
        <ele>13.5</ele>
        <time>2015-04-07T16:09:21.000Z</time>
      </trkpt>
      <trkpt lat="50.82651" lon="1.59055">
        <ele>13.4</ele>
        <time>2015-04-07T16:09:22.000Z</time>
      </trkpt>
      <trkpt lat="50.8265" lon="1.59054">
        <ele>13.3</ele>
        <time>2015-04-07T16:09:23.000Z</time>
      </trkpt>
      <trkpt lat="50.82649" lon="1.59052">
        <ele>13.3</ele>
        <time>2015-04-07T16:09:24.000Z</time>
      </trkpt>
      <trkpt lat="50.82648" lon="1.59051">
        <ele>13.2</ele>
        <time>2015-04-07T16:09:25.000Z</time>
      </trkpt>
      <trkpt lat="50.82647" lon="1.5905">
        <ele>13.2</ele>
        <time>2015-04-07T16:09:26.000Z</time>
      </trkpt>
      <trkpt lat="50.82646" lon="1.59049">
        <ele>13.1</ele>
        <time>2015-04-07T16:09:27.000Z</time>
      </trkpt>
      <trkpt lat="50.82645" lon="1.59048">
        <ele>13.1</ele>
        <time>2015-04-07T16:09:28.000Z</time>
      </trkpt>
      <trkpt lat="50.82644" lon="1.59047">
        <ele>13.1</ele>
        <time>2015-04-07T16:09:29.000Z</time>
      </trkpt>
      <trkpt lat="50.82643" lon="1.59046">
        <ele>13</ele>
        <time>2015-04-07T16:09:30.000Z</time>
      </trkpt>
      <trkpt lat="50.82643" lon="1.59044">
        <ele>13</ele>
        <time>2015-04-07T16:09:31.000Z</time>
      </trkpt>
      <trkpt lat="50.82642" lon="1.59043">
        <ele>13</ele>
        <time>2015-04-07T16:09:32.000Z</time>
      </trkpt>
      <trkpt lat="50.82641" lon="1.59042">
        <ele>13</ele>
        <time>2015-04-07T16:09:33.000Z</time>
      </trkpt>
      <trkpt lat="50.8264" lon="1.59041">
        <ele>13</ele>
        <time>2015-04-07T16:09:34.000Z</time>
      </trkpt>
      <trkpt lat="50.82639" lon="1.5904">
        <ele>13</ele>
        <time>2015-04-07T16:09:35.000Z</time>
      </trkpt>
      <trkpt lat="50.82638" lon="1.59038">
        <ele>13</ele>
        <time>2015-04-07T16:09:36.000Z</time>
      </trkpt>
      <trkpt lat="50.82638" lon="1.59037">
        <ele>13</ele>
        <time>2015-04-07T16:09:37.000Z</time>
      </trkpt>
      <trkpt lat="50.82637" lon="1.59036">
        <ele>12.9</ele>
        <time>2015-04-07T16:09:38.000Z</time>
      </trkpt>
      <trkpt lat="50.82636" lon="1.59034">
        <ele>12.9</ele>
        <time>2015-04-07T16:09:39.000Z</time>
      </trkpt>
      <trkpt lat="50.82636" lon="1.59033">
        <ele>12.9</ele>
        <time>2015-04-07T16:09:40.000Z</time>
      </trkpt>
      <trkpt lat="50.82635" lon="1.59032">
        <ele>12.9</ele>
        <time>2015-04-07T16:09:41.000Z</time>
      </trkpt>
      <trkpt lat="50.82634" lon="1.5903">
        <ele>12.8</ele>
        <time>2015-04-07T16:09:42.000Z</time>
      </trkpt>
      <trkpt lat="50.82633" lon="1.59029">
        <ele>12.8</ele>
        <time>2015-04-07T16:09:43.000Z</time>
      </trkpt>
      <trkpt lat="50.82633" lon="1.59027">
        <ele>12.7</ele>
        <time>2015-04-07T16:09:44.000Z</time>
      </trkpt>
      <trkpt lat="50.82632" lon="1.59026">
        <ele>12.6</ele>
        <time>2015-04-07T16:09:45.000Z</time>
      </trkpt>
      <trkpt lat="50.82631" lon="1.59024">
        <ele>12.5</ele>
        <time>2015-04-07T16:09:46.000Z</time>
      </trkpt>
      <trkpt lat="50.82631" lon="1.59023">
        <ele>12.4</ele>
        <time>2015-04-07T16:09:47.000Z</time>
      </trkpt>
      <trkpt lat="50.8263" lon="1.59021">
        <ele>12.4</ele>
        <time>2015-04-07T16:09:48.000Z</time>
      </trkpt>
      <trkpt lat="50.82629" lon="1.5902">
        <ele>12.3</ele>
        <time>2015-04-07T16:09:49.000Z</time>
      </trkpt>
      <trkpt lat="50.82628" lon="1.59018">
        <ele>12.2</ele>
        <time>2015-04-07T16:09:50.000Z</time>
      </trkpt>
      <trkpt lat="50.82628" lon="1.59017">
        <ele>12.1</ele>
        <time>2015-04-07T16:09:51.000Z</time>
      </trkpt>
      <trkpt lat="50.82627" lon="1.59015">
        <ele>12</ele>
        <time>2015-04-07T16:09:52.000Z</time>
      </trkpt>
      <trkpt lat="50.82626" lon="1.59014">
        <ele>12</ele>
        <time>2015-04-07T16:09:53.000Z</time>
      </trkpt>
      <trkpt lat="50.82625" lon="1.59012">
        <ele>11.9</ele>
        <time>2015-04-07T16:09:54.000Z</time>
      </trkpt>
      <trkpt lat="50.82625" lon="1.59011">
        <ele>11.9</ele>
        <time>2015-04-07T16:09:55.000Z</time>
      </trkpt>
      <trkpt lat="50.82624" lon="1.5901">
        <ele>11.9</ele>
        <time>2015-04-07T16:09:56.000Z</time>
      </trkpt>
      <trkpt lat="50.82624" lon="1.59009">
        <ele>11.8</ele>
        <time>2015-04-07T16:09:57.000Z</time>
      </trkpt>
      <trkpt lat="50.82623" lon="1.59008">
        <ele>11.8</ele>
        <time>2015-04-07T16:09:58.000Z</time>
      </trkpt>
      <trkpt lat="50.82623" lon="1.59006">
        <ele>11.8</ele>
        <time>2015-04-07T16:09:59.000Z</time>
      </trkpt>
      <trkpt lat="50.82622" lon="1.59004">
        <ele>11.7</ele>
        <time>2015-04-07T16:10:00.000Z</time>
      </trkpt>
      <trkpt lat="50.82622" lon="1.59003">
        <ele>11.7</ele>
        <time>2015-04-07T16:10:01.000Z</time>
      </trkpt>
      <trkpt lat="50.82621" lon="1.59001">
        <ele>11.7</ele>
        <time>2015-04-07T16:10:02.000Z</time>
      </trkpt>
      <trkpt lat="50.82621" lon="1.59">
        <ele>11.6</ele>
        <time>2015-04-07T16:10:03.000Z</time>
      </trkpt>
      <trkpt lat="50.8262" lon="1.58998">
        <ele>11.4</ele>
        <time>2015-04-07T16:10:04.000Z</time>
      </trkpt>
      <trkpt lat="50.8262" lon="1.58997">
        <ele>11.1</ele>
        <time>2015-04-07T16:10:05.000Z</time>
      </trkpt>
      <trkpt lat="50.82619" lon="1.58996">
        <ele>11</ele>
        <time>2015-04-07T16:10:06.000Z</time>
      </trkpt>
      <trkpt lat="50.82619" lon="1.58995">
        <ele>10.8</ele>
        <time>2015-04-07T16:10:07.000Z</time>
      </trkpt>
      <trkpt lat="50.82619" lon="1.58994">
        <ele>10.5</ele>
        <time>2015-04-07T16:10:08.000Z</time>
      </trkpt>
      <trkpt lat="50.82619" lon="1.58993">
        <ele>10.3</ele>
        <time>2015-04-07T16:10:09.000Z</time>
      </trkpt>
      <trkpt lat="50.82619" lon="1.58992">
        <ele>10.1</ele>
        <time>2015-04-07T16:10:10.000Z</time>
      </trkpt>
      <trkpt lat="50.82619" lon="1.58989">
        <ele>9.6</ele>
        <time>2015-04-07T16:10:11.000Z</time>
      </trkpt>
      <trkpt lat="50.82619" lon="1.58989">
        <ele>9.6</ele>
        <time>2015-04-07T16:10:12.000Z</time>
      </trkpt>
      <trkpt lat="50.82619" lon="1.58989">
        <ele>9.6</ele>
        <time>2015-04-07T16:10:13.000Z</time>
      </trkpt>
      <trkpt lat="50.82619" lon="1.58989">
        <ele>9.6</ele>
        <time>2015-04-07T16:10:14.000Z</time>
      </trkpt>
      <trkpt lat="50.82619" lon="1.5899">
        <ele>9.7</ele>
        <time>2015-04-07T16:10:15.000Z</time>
      </trkpt>
      <trkpt lat="50.82619" lon="1.5899">
        <ele>9.7</ele>
        <time>2015-04-07T16:10:16.000Z</time>
      </trkpt>
      <trkpt lat="50.82619" lon="1.5899">
        <ele>9.7</ele>
        <time>2015-04-07T16:10:17.000Z</time>
      </trkpt>
      <trkpt lat="50.82619" lon="1.5899">
        <ele>9.7</ele>
        <time>2015-04-07T16:10:18.000Z</time>
      </trkpt>
      <trkpt lat="50.82619" lon="1.5899">
        <ele>9.7</ele>
        <time>2015-04-07T16:10:19.000Z</time>
      </trkpt>
      <trkpt lat="50.82619" lon="1.5899">
        <ele>9.7</ele>
        <time>2015-04-07T16:10:20.000Z</time>
      </trkpt>
      <trkpt lat="50.82619" lon="1.5899">
        <ele>9.7</ele>
        <time>2015-04-07T16:10:21.000Z</time>
      </trkpt>
      <trkpt lat="50.82619" lon="1.5899">
        <ele>9.7</ele>
        <time>2015-04-07T16:10:22.000Z</time>
      </trkpt>
      <trkpt lat="50.82619" lon="1.5899">
        <ele>9.7</ele>
        <time>2015-04-07T16:10:23.000Z</time>
      </trkpt>
      <trkpt lat="50.82619" lon="1.5899">
        <ele>9.7</ele>
        <time>2015-04-07T16:10:24.000Z</time>
      </trkpt>
      <trkpt lat="50.82619" lon="1.5899">
        <ele>9.7</ele>
        <time>2015-04-07T16:10:25.000Z</time>
      </trkpt>
      <trkpt lat="50.82619" lon="1.5899">
        <ele>9.7</ele>
        <time>2015-04-07T16:10:26.000Z</time>
      </trkpt>
      <trkpt lat="50.82619" lon="1.5899">
        <ele>9.7</ele>
        <time>2015-04-07T16:10:27.000Z</time>
      </trkpt>
      <trkpt lat="50.82619" lon="1.5899">
        <ele>9.7</ele>
        <time>2015-04-07T16:10:28.000Z</time>
      </trkpt>
      <trkpt lat="50.82619" lon="1.5899">
        <ele>9.7</ele>
        <time>2015-04-07T16:10:29.000Z</time>
      </trkpt>
      <trkpt lat="50.82618" lon="1.5899">
        <ele>9.8</ele>
        <time>2015-04-07T16:10:30.000Z</time>
      </trkpt>
      <trkpt lat="50.82618" lon="1.5899">
        <ele>9.8</ele>
        <time>2015-04-07T16:10:31.000Z</time>
      </trkpt>
      <trkpt lat="50.82617" lon="1.5899">
        <ele>9.9</ele>
        <time>2015-04-07T16:10:32.000Z</time>
      </trkpt>
      <trkpt lat="50.82617" lon="1.5899">
        <ele>9.9</ele>
        <time>2015-04-07T16:10:33.000Z</time>
      </trkpt>
      <trkpt lat="50.82617" lon="1.5899">
        <ele>9.9</ele>
        <time>2015-04-07T16:10:34.000Z</time>
      </trkpt>
      <trkpt lat="50.82616" lon="1.58989">
        <ele>9.8</ele>
        <time>2015-04-07T16:10:35.000Z</time>
      </trkpt>
      <trkpt lat="50.82615" lon="1.58989">
        <ele>9.7</ele>
        <time>2015-04-07T16:10:36.000Z</time>
      </trkpt>
      <trkpt lat="50.82614" lon="1.58988">
        <ele>9.6</ele>
        <time>2015-04-07T16:10:37.000Z</time>
      </trkpt>
      <trkpt lat="50.82613" lon="1.58987">
        <ele>9.5</ele>
        <time>2015-04-07T16:10:38.000Z</time>
      </trkpt>
      <trkpt lat="50.82612" lon="1.58986">
        <ele>9.4</ele>
        <time>2015-04-07T16:10:39.000Z</time>
      </trkpt>
      <trkpt lat="50.82611" lon="1.58985">
        <ele>9.3</ele>
        <time>2015-04-07T16:10:40.000Z</time>
      </trkpt>
      <trkpt lat="50.8261" lon="1.58984">
        <ele>9.2</ele>
        <time>2015-04-07T16:10:41.000Z</time>
      </trkpt>
      <trkpt lat="50.82609" lon="1.58983">
        <ele>9.1</ele>
        <time>2015-04-07T16:10:42.000Z</time>
      </trkpt>
      <trkpt lat="50.82608" lon="1.58982">
        <ele>9</ele>
        <time>2015-04-07T16:10:43.000Z</time>
      </trkpt>
      <trkpt lat="50.82607" lon="1.58981">
        <ele>8.9</ele>
        <time>2015-04-07T16:10:44.000Z</time>
      </trkpt>
      <trkpt lat="50.82606" lon="1.5898">
        <ele>8.8</ele>
        <time>2015-04-07T16:10:45.000Z</time>
      </trkpt>
      <trkpt lat="50.82605" lon="1.58979">
        <ele>8.8</ele>
        <time>2015-04-07T16:10:46.000Z</time>
      </trkpt>
      <trkpt lat="50.82604" lon="1.58978">
        <ele>8.8</ele>
        <time>2015-04-07T16:10:47.000Z</time>
      </trkpt>
      <trkpt lat="50.82603" lon="1.58977">
        <ele>8.8</ele>
        <time>2015-04-07T16:10:48.000Z</time>
      </trkpt>
      <trkpt lat="50.82602" lon="1.58976">
        <ele>8.8</ele>
        <time>2015-04-07T16:10:49.000Z</time>
      </trkpt>
      <trkpt lat="50.82601" lon="1.58975">
        <ele>8.8</ele>
        <time>2015-04-07T16:10:50.000Z</time>
      </trkpt>
      <trkpt lat="50.826" lon="1.58973">
        <ele>8.8</ele>
        <time>2015-04-07T16:10:51.000Z</time>
      </trkpt>
      <trkpt lat="50.82598" lon="1.58972">
        <ele>8.8</ele>
        <time>2015-04-07T16:10:52.000Z</time>
      </trkpt>
      <trkpt lat="50.82597" lon="1.5897">
        <ele>8.8</ele>
        <time>2015-04-07T16:10:53.000Z</time>
      </trkpt>
      <trkpt lat="50.82596" lon="1.58969">
        <ele>8.8</ele>
        <time>2015-04-07T16:10:54.000Z</time>
      </trkpt>
      <trkpt lat="50.82595" lon="1.58968">
        <ele>8.8</ele>
        <time>2015-04-07T16:10:55.000Z</time>
      </trkpt>
      <trkpt lat="50.82594" lon="1.58967">
        <ele>8.8</ele>
        <time>2015-04-07T16:10:56.000Z</time>
      </trkpt>
      <trkpt lat="50.82593" lon="1.58966">
        <ele>8.8</ele>
        <time>2015-04-07T16:10:57.000Z</time>
      </trkpt>
      <trkpt lat="50.82592" lon="1.58966">
        <ele>8.8</ele>
        <time>2015-04-07T16:10:58.000Z</time>
      </trkpt>
      <trkpt lat="50.82591" lon="1.58965">
        <ele>8.9</ele>
        <time>2015-04-07T16:10:59.000Z</time>
      </trkpt>
      <trkpt lat="50.8259" lon="1.58965">
        <ele>9</ele>
        <time>2015-04-07T16:11:00.000Z</time>
      </trkpt>
      <trkpt lat="50.82589" lon="1.58964">
        <ele>9</ele>
        <time>2015-04-07T16:11:01.000Z</time>
      </trkpt>
      <trkpt lat="50.82588" lon="1.58963">
        <ele>9</ele>
        <time>2015-04-07T16:11:02.000Z</time>
      </trkpt>
      <trkpt lat="50.82587" lon="1.58961">
        <ele>9</ele>
        <time>2015-04-07T16:11:03.000Z</time>
      </trkpt>
      <trkpt lat="50.82586" lon="1.5896">
        <ele>8.9</ele>
        <time>2015-04-07T16:11:04.000Z</time>
      </trkpt>
      <trkpt lat="50.82585" lon="1.58959">
        <ele>8.9</ele>
        <time>2015-04-07T16:11:05.000Z</time>
      </trkpt>
      <trkpt lat="50.82585" lon="1.58958">
        <ele>8.8</ele>
        <time>2015-04-07T16:11:06.000Z</time>
      </trkpt>
      <trkpt lat="50.82584" lon="1.58957">
        <ele>8.8</ele>
        <time>2015-04-07T16:11:07.000Z</time>
      </trkpt>
      <trkpt lat="50.82583" lon="1.58956">
        <ele>8.7</ele>
        <time>2015-04-07T16:11:08.000Z</time>
      </trkpt>
      <trkpt lat="50.82582" lon="1.58955">
        <ele>8.6</ele>
        <time>2015-04-07T16:11:09.000Z</time>
      </trkpt>
      <trkpt lat="50.82581" lon="1.58954">
        <ele>8.5</ele>
        <time>2015-04-07T16:11:10.000Z</time>
      </trkpt>
      <trkpt lat="50.82581" lon="1.58953">
        <ele>8.3</ele>
        <time>2015-04-07T16:11:11.000Z</time>
      </trkpt>
      <trkpt lat="50.8258" lon="1.58952">
        <ele>8.2</ele>
        <time>2015-04-07T16:11:12.000Z</time>
      </trkpt>
      <trkpt lat="50.82579" lon="1.5895">
        <ele>7.9</ele>
        <time>2015-04-07T16:11:13.000Z</time>
      </trkpt>
      <trkpt lat="50.82579" lon="1.5895">
        <ele>7.9</ele>
        <time>2015-04-07T16:11:14.000Z</time>
      </trkpt>
      <trkpt lat="50.82579" lon="1.5895">
        <ele>7.9</ele>
        <time>2015-04-07T16:11:15.000Z</time>
      </trkpt>
      <trkpt lat="50.82579" lon="1.5895">
        <ele>7.9</ele>
        <time>2015-04-07T16:11:16.000Z</time>
      </trkpt>
      <trkpt lat="50.82579" lon="1.5895">
        <ele>8</ele>
        <time>2015-04-07T16:11:17.000Z</time>
      </trkpt>
      <trkpt lat="50.82579" lon="1.5895">
        <ele>8</ele>
        <time>2015-04-07T16:11:18.000Z</time>
      </trkpt>
      <trkpt lat="50.82579" lon="1.5895">
        <ele>8</ele>
        <time>2015-04-07T16:11:19.000Z</time>
      </trkpt>
      <trkpt lat="50.82579" lon="1.5895">
        <ele>8</ele>
        <time>2015-04-07T16:11:20.000Z</time>
      </trkpt>
      <trkpt lat="50.82579" lon="1.5895">
        <ele>8</ele>
        <time>2015-04-07T16:11:21.000Z</time>
      </trkpt>
      <trkpt lat="50.82579" lon="1.5895">
        <ele>8</ele>
        <time>2015-04-07T16:11:22.000Z</time>
      </trkpt>
      <trkpt lat="50.82579" lon="1.5895">
        <ele>8</ele>
        <time>2015-04-07T16:11:23.000Z</time>
      </trkpt>
      <trkpt lat="50.82579" lon="1.5895">
        <ele>8</ele>
        <time>2015-04-07T16:11:24.000Z</time>
      </trkpt>
      <trkpt lat="50.82579" lon="1.5895">
        <ele>8</ele>
        <time>2015-04-07T16:11:25.000Z</time>
      </trkpt>
      <trkpt lat="50.82579" lon="1.5895">
        <ele>8</ele>
        <time>2015-04-07T16:11:26.000Z</time>
      </trkpt>
      <trkpt lat="50.82579" lon="1.5895">
        <ele>8</ele>
        <time>2015-04-07T16:11:27.000Z</time>
      </trkpt>
      <trkpt lat="50.82579" lon="1.5895">
        <ele>8</ele>
        <time>2015-04-07T16:11:28.000Z</time>
      </trkpt>
      <trkpt lat="50.82579" lon="1.5895">
        <ele>8</ele>
        <time>2015-04-07T16:11:29.000Z</time>
      </trkpt>
      <trkpt lat="50.82579" lon="1.5895">
        <ele>8</ele>
        <time>2015-04-07T16:11:30.000Z</time>
      </trkpt>
      <trkpt lat="50.82579" lon="1.5895">
        <ele>8</ele>
        <time>2015-04-07T16:11:31.000Z</time>
      </trkpt>
      <trkpt lat="50.82579" lon="1.5895">
        <ele>8</ele>
        <time>2015-04-07T16:11:32.000Z</time>
      </trkpt>
      <trkpt lat="50.82579" lon="1.5895">
        <ele>7.9</ele>
        <time>2015-04-07T16:11:33.000Z</time>
      </trkpt>
      <trkpt lat="50.82579" lon="1.5895">
        <ele>7.9</ele>
        <time>2015-04-07T16:11:34.000Z</time>
      </trkpt>
      <trkpt lat="50.82578" lon="1.58949">
        <ele>7.9</ele>
        <time>2015-04-07T16:11:35.000Z</time>
      </trkpt>
      <trkpt lat="50.82578" lon="1.58949">
        <ele>7.9</ele>
        <time>2015-04-07T16:11:36.000Z</time>
      </trkpt>
      <trkpt lat="50.82577" lon="1.58949">
        <ele>7.9</ele>
        <time>2015-04-07T16:11:37.000Z</time>
      </trkpt>
      <trkpt lat="50.82577" lon="1.58949">
        <ele>7.9</ele>
        <time>2015-04-07T16:11:38.000Z</time>
      </trkpt>
      <trkpt lat="50.82577" lon="1.5895">
        <ele>7.9</ele>
        <time>2015-04-07T16:11:39.000Z</time>
      </trkpt>
      <trkpt lat="50.82577" lon="1.5895">
        <ele>8</ele>
        <time>2015-04-07T16:11:40.000Z</time>
      </trkpt>
      <trkpt lat="50.82577" lon="1.5895">
        <ele>8</ele>
        <time>2015-04-07T16:11:41.000Z</time>
      </trkpt>
      <trkpt lat="50.82577" lon="1.5895">
        <ele>8</ele>
        <time>2015-04-07T16:11:42.000Z</time>
      </trkpt>
      <trkpt lat="50.82577" lon="1.5895">
        <ele>8</ele>
        <time>2015-04-07T16:11:43.000Z</time>
      </trkpt>
      <trkpt lat="50.82577" lon="1.5895">
        <ele>8</ele>
        <time>2015-04-07T16:11:44.000Z</time>
      </trkpt>
      <trkpt lat="50.82577" lon="1.5895">
        <ele>8</ele>
        <time>2015-04-07T16:11:45.000Z</time>
      </trkpt>
      <trkpt lat="50.82577" lon="1.5895">
        <ele>8</ele>
        <time>2015-04-07T16:11:46.000Z</time>
      </trkpt>
      <trkpt lat="50.82577" lon="1.5895">
        <ele>8</ele>
        <time>2015-04-07T16:11:47.000Z</time>
      </trkpt>
      <trkpt lat="50.82577" lon="1.5895">
        <ele>8</ele>
        <time>2015-04-07T16:11:48.000Z</time>
      </trkpt>
      <trkpt lat="50.82577" lon="1.5895">
        <ele>8</ele>
        <time>2015-04-07T16:11:49.000Z</time>
      </trkpt>
      <trkpt lat="50.82577" lon="1.5895">
        <ele>8</ele>
        <time>2015-04-07T16:11:50.000Z</time>
      </trkpt>
      <trkpt lat="50.82577" lon="1.5895">
        <ele>8</ele>
        <time>2015-04-07T16:11:51.000Z</time>
      </trkpt>
      <trkpt lat="50.82577" lon="1.5895">
        <ele>7.9</ele>
        <time>2015-04-07T16:11:52.000Z</time>
      </trkpt>
      <trkpt lat="50.82577" lon="1.5895">
        <ele>7.9</ele>
        <time>2015-04-07T16:11:53.000Z</time>
      </trkpt>
      <trkpt lat="50.82577" lon="1.58949">
        <ele>7.9</ele>
        <time>2015-04-07T16:11:54.000Z</time>
      </trkpt>
      <trkpt lat="50.82577" lon="1.58949">
        <ele>7.8</ele>
        <time>2015-04-07T16:11:55.000Z</time>
      </trkpt>
      <trkpt lat="50.82577" lon="1.58948">
        <ele>7.8</ele>
        <time>2015-04-07T16:11:56.000Z</time>
      </trkpt>
      <trkpt lat="50.82578" lon="1.58947">
        <ele>7.5</ele>
        <time>2015-04-07T16:11:57.000Z</time>
      </trkpt>
      <trkpt lat="50.82578" lon="1.58947">
        <ele>7.5</ele>
        <time>2015-04-07T16:11:58.000Z</time>
      </trkpt>
      <trkpt lat="50.82579" lon="1.58947">
        <ele>7.5</ele>
        <time>2015-04-07T16:11:59.000Z</time>
      </trkpt>
      <trkpt lat="50.82579" lon="1.58947">
        <ele>7.5</ele>
        <time>2015-04-07T16:12:00.000Z</time>
      </trkpt>
      <trkpt lat="50.82578" lon="1.58947">
        <ele>7.5</ele>
        <time>2015-04-07T16:12:01.000Z</time>
      </trkpt>
      <trkpt lat="50.82578" lon="1.58947">
        <ele>7.5</ele>
        <time>2015-04-07T16:12:02.000Z</time>
      </trkpt>
      <trkpt lat="50.82578" lon="1.58947">
        <ele>7.5</ele>
        <time>2015-04-07T16:12:03.000Z</time>
      </trkpt>
      <trkpt lat="50.82578" lon="1.58947">
        <ele>7.5</ele>
        <time>2015-04-07T16:12:04.000Z</time>
      </trkpt>
      <trkpt lat="50.82578" lon="1.58947">
        <ele>7.5</ele>
        <time>2015-04-07T16:12:05.000Z</time>
      </trkpt>
      <trkpt lat="50.82578" lon="1.58947">
        <ele>7.5</ele>
        <time>2015-04-07T16:12:06.000Z</time>
      </trkpt>
      <trkpt lat="50.82578" lon="1.58947">
        <ele>7.5</ele>
        <time>2015-04-07T16:12:07.000Z</time>
      </trkpt>
      <trkpt lat="50.82578" lon="1.58947">
        <ele>7.5</ele>
        <time>2015-04-07T16:12:08.000Z</time>
      </trkpt>
      <trkpt lat="50.82578" lon="1.58947">
        <ele>7.5</ele>
        <time>2015-04-07T16:12:09.000Z</time>
      </trkpt>
      <trkpt lat="50.82578" lon="1.58947">
        <ele>7.5</ele>
        <time>2015-04-07T16:12:10.000Z</time>
      </trkpt>
      <trkpt lat="50.82578" lon="1.58947">
        <ele>7.5</ele>
        <time>2015-04-07T16:12:11.000Z</time>
      </trkpt>
      <trkpt lat="50.82578" lon="1.58947">
        <ele>7.5</ele>
        <time>2015-04-07T16:12:12.000Z</time>
      </trkpt>
      <trkpt lat="50.82578" lon="1.58947">
        <ele>7.5</ele>
        <time>2015-04-07T16:12:13.000Z</time>
      </trkpt>
      <trkpt lat="50.82578" lon="1.58947">
        <ele>7.5</ele>
        <time>2015-04-07T16:12:14.000Z</time>
      </trkpt>
      <trkpt lat="50.82578" lon="1.58947">
        <ele>7.5</ele>
        <time>2015-04-07T16:12:15.000Z</time>
      </trkpt>
      <trkpt lat="50.82578" lon="1.58947">
        <ele>7.5</ele>
        <time>2015-04-07T16:12:16.000Z</time>
      </trkpt>
      <trkpt lat="50.82578" lon="1.58947">
        <ele>7.5</ele>
        <time>2015-04-07T16:12:17.000Z</time>
      </trkpt>
      <trkpt lat="50.82578" lon="1.58947">
        <ele>7.5</ele>
        <time>2015-04-07T16:12:18.000Z</time>
      </trkpt>
      <trkpt lat="50.82578" lon="1.58947">
        <ele>7.5</ele>
        <time>2015-04-07T16:12:19.000Z</time>
      </trkpt>
      <trkpt lat="50.82578" lon="1.58947">
        <ele>7.5</ele>
        <time>2015-04-07T16:12:20.000Z</time>
      </trkpt>
      <trkpt lat="50.82578" lon="1.58947">
        <ele>7.5</ele>
        <time>2015-04-07T16:12:21.000Z</time>
      </trkpt>
      <trkpt lat="50.82578" lon="1.58947">
        <ele>7.5</ele>
        <time>2015-04-07T16:12:22.000Z</time>
      </trkpt>
      <trkpt lat="50.82578" lon="1.58947">
        <ele>7.5</ele>
        <time>2015-04-07T16:12:23.000Z</time>
      </trkpt>
      <trkpt lat="50.82578" lon="1.58947">
        <ele>7.5</ele>
        <time>2015-04-07T16:12:24.000Z</time>
      </trkpt>
      <trkpt lat="50.82578" lon="1.58947">
        <ele>7.5</ele>
        <time>2015-04-07T16:12:25.000Z</time>
      </trkpt>
      <trkpt lat="50.82578" lon="1.58947">
        <ele>7.5</ele>
        <time>2015-04-07T16:12:26.000Z</time>
      </trkpt>
      <trkpt lat="50.82578" lon="1.58947">
        <ele>7.5</ele>
        <time>2015-04-07T16:12:27.000Z</time>
      </trkpt>
      <trkpt lat="50.82578" lon="1.58947">
        <ele>7.5</ele>
        <time>2015-04-07T16:12:28.000Z</time>
      </trkpt>
      <trkpt lat="50.82578" lon="1.58947">
        <ele>7.5</ele>
        <time>2015-04-07T16:12:29.000Z</time>
      </trkpt>
      <trkpt lat="50.82578" lon="1.58947">
        <ele>7.5</ele>
        <time>2015-04-07T16:12:30.000Z</time>
      </trkpt>
      <trkpt lat="50.82578" lon="1.58947">
        <ele>7.5</ele>
        <time>2015-04-07T16:12:31.000Z</time>
      </trkpt>
      <trkpt lat="50.82578" lon="1.58947">
        <ele>7.5</ele>
        <time>2015-04-07T16:12:32.000Z</time>
      </trkpt>
      <trkpt lat="50.82578" lon="1.58947">
        <ele>7.5</ele>
        <time>2015-04-07T16:12:33.000Z</time>
      </trkpt>
      <trkpt lat="50.82578" lon="1.58947">
        <ele>7.5</ele>
        <time>2015-04-07T16:12:34.000Z</time>
      </trkpt>
      <trkpt lat="50.82578" lon="1.58947">
        <ele>7.5</ele>
        <time>2015-04-07T16:12:35.000Z</time>
      </trkpt>
      <trkpt lat="50.82578" lon="1.58947">
        <ele>7.5</ele>
        <time>2015-04-07T16:12:36.000Z</time>
      </trkpt>
      <trkpt lat="50.82578" lon="1.58947">
        <ele>7.5</ele>
        <time>2015-04-07T16:12:37.000Z</time>
      </trkpt>
      <trkpt lat="50.82578" lon="1.58947">
        <ele>7.5</ele>
        <time>2015-04-07T16:12:38.000Z</time>
      </trkpt>
      <trkpt lat="50.82578" lon="1.58947">
        <ele>7.5</ele>
        <time>2015-04-07T16:12:39.000Z</time>
      </trkpt>
      <trkpt lat="50.82578" lon="1.58947">
        <ele>7.5</ele>
        <time>2015-04-07T16:12:40.000Z</time>
      </trkpt>
      <trkpt lat="50.82578" lon="1.58947">
        <ele>7.5</ele>
        <time>2015-04-07T16:12:41.000Z</time>
      </trkpt>
      <trkpt lat="50.82578" lon="1.58947">
        <ele>7.5</ele>
        <time>2015-04-07T16:12:42.000Z</time>
      </trkpt>
      <trkpt lat="50.82578" lon="1.58947">
        <ele>7.5</ele>
        <time>2015-04-07T16:12:43.000Z</time>
      </trkpt>
      <trkpt lat="50.82578" lon="1.58947">
        <ele>7.5</ele>
        <time>2015-04-07T16:12:44.000Z</time>
      </trkpt>
      <trkpt lat="50.82578" lon="1.58947">
        <ele>7.5</ele>
        <time>2015-04-07T16:12:45.000Z</time>
      </trkpt>
      <trkpt lat="50.82578" lon="1.58947">
        <ele>7.5</ele>
        <time>2015-04-07T16:12:46.000Z</time>
      </trkpt>
      <trkpt lat="50.82578" lon="1.58947">
        <ele>7.5</ele>
        <time>2015-04-07T16:12:47.000Z</time>
      </trkpt>
      <trkpt lat="50.82578" lon="1.58947">
        <ele>7.5</ele>
        <time>2015-04-07T16:12:48.000Z</time>
      </trkpt>
      <trkpt lat="50.82578" lon="1.58947">
        <ele>7.5</ele>
        <time>2015-04-07T16:12:49.000Z</time>
      </trkpt>
      <trkpt lat="50.82578" lon="1.58947">
        <ele>7.5</ele>
        <time>2015-04-07T16:12:50.000Z</time>
      </trkpt>
      <trkpt lat="50.82578" lon="1.58947">
        <ele>7.5</ele>
        <time>2015-04-07T16:12:51.000Z</time>
      </trkpt>
      <trkpt lat="50.82578" lon="1.58947">
        <ele>7.5</ele>
        <time>2015-04-07T16:12:52.000Z</time>
      </trkpt>
      <trkpt lat="50.82578" lon="1.58947">
        <ele>7.5</ele>
        <time>2015-04-07T16:12:53.000Z</time>
      </trkpt>
      <trkpt lat="50.82578" lon="1.58947">
        <ele>7.5</ele>
        <time>2015-04-07T16:12:54.000Z</time>
      </trkpt>
      <trkpt lat="50.82578" lon="1.58947">
        <ele>7.5</ele>
        <time>2015-04-07T16:12:55.000Z</time>
      </trkpt>
      <trkpt lat="50.82578" lon="1.58947">
        <ele>7.5</ele>
        <time>2015-04-07T16:12:56.000Z</time>
      </trkpt>
      <trkpt lat="50.82578" lon="1.58947">
        <ele>7.5</ele>
        <time>2015-04-07T16:12:57.000Z</time>
      </trkpt>
      <trkpt lat="50.82578" lon="1.58947">
        <ele>7.5</ele>
        <time>2015-04-07T16:12:58.000Z</time>
      </trkpt>
      <trkpt lat="50.82578" lon="1.58947">
        <ele>7.5</ele>
        <time>2015-04-07T16:12:59.000Z</time>
      </trkpt>
      <trkpt lat="50.82578" lon="1.58947">
        <ele>7.5</ele>
        <time>2015-04-07T16:13:00.000Z</time>
      </trkpt>
      <trkpt lat="50.82578" lon="1.58947">
        <ele>7.5</ele>
        <time>2015-04-07T16:13:01.000Z</time>
      </trkpt>
      <trkpt lat="50.82578" lon="1.58947">
        <ele>7.5</ele>
        <time>2015-04-07T16:13:02.000Z</time>
      </trkpt>
      <trkpt lat="50.82578" lon="1.58947">
        <ele>7.5</ele>
        <time>2015-04-07T16:13:03.000Z</time>
      </trkpt>
      <trkpt lat="50.82578" lon="1.58947">
        <ele>7.5</ele>
        <time>2015-04-07T16:13:04.000Z</time>
      </trkpt>
      <trkpt lat="50.82578" lon="1.58947">
        <ele>7.5</ele>
        <time>2015-04-07T16:13:05.000Z</time>
      </trkpt>
      <trkpt lat="50.82578" lon="1.58947">
        <ele>7.5</ele>
        <time>2015-04-07T16:13:06.000Z</time>
      </trkpt>
      <trkpt lat="50.82578" lon="1.58947">
        <ele>7.5</ele>
        <time>2015-04-07T16:13:07.000Z</time>
      </trkpt>
      <trkpt lat="50.82578" lon="1.58947">
        <ele>7.5</ele>
        <time>2015-04-07T16:13:08.000Z</time>
      </trkpt>
      <trkpt lat="50.82578" lon="1.58947">
        <ele>7.5</ele>
        <time>2015-04-07T16:13:09.000Z</time>
      </trkpt>
      <trkpt lat="50.82578" lon="1.58947">
        <ele>7.5</ele>
        <time>2015-04-07T16:13:10.000Z</time>
      </trkpt>
      <trkpt lat="50.82578" lon="1.58947">
        <ele>7.5</ele>
        <time>2015-04-07T16:13:11.000Z</time>
      </trkpt>
      <trkpt lat="50.82578" lon="1.58947">
        <ele>7.5</ele>
        <time>2015-04-07T16:13:12.000Z</time>
      </trkpt>
      <trkpt lat="50.82578" lon="1.58946">
        <ele>7.5</ele>
        <time>2015-04-07T16:13:13.000Z</time>
      </trkpt>
      <trkpt lat="50.82578" lon="1.58946">
        <ele>7.5</ele>
        <time>2015-04-07T16:13:14.000Z</time>
      </trkpt>
      <trkpt lat="50.82578" lon="1.58946">
        <ele>7.5</ele>
        <time>2015-04-07T16:13:15.000Z</time>
      </trkpt>
      <trkpt lat="50.82578" lon="1.58946">
        <ele>7.4</ele>
        <time>2015-04-07T16:13:16.000Z</time>
      </trkpt>
      <trkpt lat="50.82578" lon="1.58946">
        <ele>7.4</ele>
        <time>2015-04-07T16:13:17.000Z</time>
      </trkpt>
      <trkpt lat="50.82578" lon="1.58946">
        <ele>7.4</ele>
        <time>2015-04-07T16:13:18.000Z</time>
      </trkpt>
      <trkpt lat="50.82578" lon="1.58946">
        <ele>7.4</ele>
        <time>2015-04-07T16:13:19.000Z</time>
      </trkpt>
      <trkpt lat="50.82578" lon="1.58946">
        <ele>7.4</ele>
        <time>2015-04-07T16:13:20.000Z</time>
      </trkpt>
      <trkpt lat="50.82578" lon="1.58946">
        <ele>7.4</ele>
        <time>2015-04-07T16:13:21.000Z</time>
      </trkpt>
      <trkpt lat="50.82578" lon="1.58946">
        <ele>7.4</ele>
        <time>2015-04-07T16:13:22.000Z</time>
      </trkpt>
      <trkpt lat="50.82578" lon="1.58946">
        <ele>7.4</ele>
        <time>2015-04-07T16:13:23.000Z</time>
      </trkpt>
      <trkpt lat="50.82578" lon="1.58946">
        <ele>7.4</ele>
        <time>2015-04-07T16:13:24.000Z</time>
      </trkpt>
      <trkpt lat="50.82578" lon="1.58946">
        <ele>7.4</ele>
        <time>2015-04-07T16:13:25.000Z</time>
      </trkpt>
      <trkpt lat="50.82578" lon="1.58946">
        <ele>7.4</ele>
        <time>2015-04-07T16:13:26.000Z</time>
      </trkpt>
      <trkpt lat="50.82578" lon="1.58946">
        <ele>7.4</ele>
        <time>2015-04-07T16:13:27.000Z</time>
      </trkpt>
      <trkpt lat="50.82578" lon="1.58946">
        <ele>7.4</ele>
        <time>2015-04-07T16:13:28.000Z</time>
      </trkpt>
      <trkpt lat="50.82578" lon="1.58946">
        <ele>7.4</ele>
        <time>2015-04-07T16:13:29.000Z</time>
      </trkpt>
      <trkpt lat="50.82578" lon="1.58946">
        <ele>7.4</ele>
        <time>2015-04-07T16:13:30.000Z</time>
      </trkpt>
      <trkpt lat="50.82578" lon="1.58946">
        <ele>7.4</ele>
        <time>2015-04-07T16:13:31.000Z</time>
      </trkpt>
      <trkpt lat="50.82578" lon="1.58946">
        <ele>7.4</ele>
        <time>2015-04-07T16:13:32.000Z</time>
      </trkpt>
      <trkpt lat="50.82578" lon="1.58946">
        <ele>7.4</ele>
        <time>2015-04-07T16:13:33.000Z</time>
      </trkpt>
      <trkpt lat="50.82578" lon="1.58946">
        <ele>7.4</ele>
        <time>2015-04-07T16:13:34.000Z</time>
      </trkpt>
      <trkpt lat="50.82578" lon="1.58946">
        <ele>7.4</ele>
        <time>2015-04-07T16:13:35.000Z</time>
      </trkpt>
      <trkpt lat="50.82578" lon="1.58946">
        <ele>7.4</ele>
        <time>2015-04-07T16:13:36.000Z</time>
      </trkpt>
      <trkpt lat="50.82578" lon="1.58946">
        <ele>7.4</ele>
        <time>2015-04-07T16:13:37.000Z</time>
      </trkpt>
      <trkpt lat="50.82578" lon="1.58946">
        <ele>7.4</ele>
        <time>2015-04-07T16:13:38.000Z</time>
      </trkpt>
      <trkpt lat="50.82578" lon="1.58946">
        <ele>7.4</ele>
        <time>2015-04-07T16:13:39.000Z</time>
      </trkpt>
      <trkpt lat="50.82578" lon="1.58946">
        <ele>7.4</ele>
        <time>2015-04-07T16:13:40.000Z</time>
      </trkpt>
      <trkpt lat="50.82578" lon="1.58946">
        <ele>7.4</ele>
        <time>2015-04-07T16:13:41.000Z</time>
      </trkpt>
      <trkpt lat="50.82578" lon="1.58946">
        <ele>7.4</ele>
        <time>2015-04-07T16:13:42.000Z</time>
      </trkpt>
      <trkpt lat="50.82578" lon="1.58946">
        <ele>7.4</ele>
        <time>2015-04-07T16:13:43.000Z</time>
      </trkpt>
      <trkpt lat="50.82578" lon="1.58946">
        <ele>7.4</ele>
        <time>2015-04-07T16:13:44.000Z</time>
      </trkpt>
      <trkpt lat="50.82578" lon="1.58946">
        <ele>7.4</ele>
        <time>2015-04-07T16:13:45.000Z</time>
      </trkpt>
      <trkpt lat="50.82578" lon="1.58946">
        <ele>7.4</ele>
        <time>2015-04-07T16:13:46.000Z</time>
      </trkpt>
      <trkpt lat="50.82578" lon="1.58946">
        <ele>7.4</ele>
        <time>2015-04-07T16:13:47.000Z</time>
      </trkpt>
      <trkpt lat="50.82578" lon="1.58946">
        <ele>7.4</ele>
        <time>2015-04-07T16:13:48.000Z</time>
      </trkpt>
      <trkpt lat="50.82578" lon="1.58946">
        <ele>7.4</ele>
        <time>2015-04-07T16:13:49.000Z</time>
      </trkpt>
      <trkpt lat="50.82578" lon="1.58946">
        <ele>7.4</ele>
        <time>2015-04-07T16:13:50.000Z</time>
      </trkpt>
      <trkpt lat="50.82578" lon="1.58946">
        <ele>7.4</ele>
        <time>2015-04-07T16:13:51.000Z</time>
      </trkpt>
      <trkpt lat="50.82578" lon="1.58946">
        <ele>7.4</ele>
        <time>2015-04-07T16:13:52.000Z</time>
      </trkpt>
      <trkpt lat="50.82578" lon="1.58946">
        <ele>7.4</ele>
        <time>2015-04-07T16:13:53.000Z</time>
      </trkpt>
      <trkpt lat="50.82578" lon="1.58946">
        <ele>7.4</ele>
        <time>2015-04-07T16:13:54.000Z</time>
      </trkpt>
      <trkpt lat="50.82578" lon="1.58946">
        <ele>7.4</ele>
        <time>2015-04-07T16:13:55.000Z</time>
      </trkpt>
      <trkpt lat="50.82578" lon="1.58946">
        <ele>7.4</ele>
        <time>2015-04-07T16:13:56.000Z</time>
      </trkpt>
      <trkpt lat="50.82578" lon="1.58946">
        <ele>7.4</ele>
        <time>2015-04-07T16:13:57.000Z</time>
      </trkpt>
      <trkpt lat="50.82578" lon="1.58946">
        <ele>7.4</ele>
        <time>2015-04-07T16:13:58.000Z</time>
      </trkpt>
      <trkpt lat="50.82578" lon="1.58946">
        <ele>7.4</ele>
        <time>2015-04-07T16:13:59.000Z</time>
      </trkpt>
      <trkpt lat="50.82578" lon="1.58946">
        <ele>7.4</ele>
        <time>2015-04-07T16:14:00.000Z</time>
      </trkpt>
      <trkpt lat="50.82578" lon="1.58946">
        <ele>7.4</ele>
        <time>2015-04-07T16:14:01.000Z</time>
      </trkpt>
      <trkpt lat="50.82578" lon="1.58946">
        <ele>7.4</ele>
        <time>2015-04-07T16:14:02.000Z</time>
      </trkpt>
      <trkpt lat="50.82578" lon="1.58946">
        <ele>7.4</ele>
        <time>2015-04-07T16:14:03.000Z</time>
      </trkpt>
      <trkpt lat="50.82578" lon="1.58946">
        <ele>7.4</ele>
        <time>2015-04-07T16:14:04.000Z</time>
      </trkpt>
      <trkpt lat="50.82578" lon="1.58946">
        <ele>7.4</ele>
        <time>2015-04-07T16:14:05.000Z</time>
      </trkpt>
      <trkpt lat="50.82578" lon="1.58946">
        <ele>7.4</ele>
        <time>2015-04-07T16:14:06.000Z</time>
      </trkpt>
      <trkpt lat="50.82578" lon="1.58946">
        <ele>7.4</ele>
        <time>2015-04-07T16:14:07.000Z</time>
      </trkpt>
      <trkpt lat="50.82578" lon="1.58946">
        <ele>7.4</ele>
        <time>2015-04-07T16:14:08.000Z</time>
      </trkpt>
      <trkpt lat="50.82578" lon="1.58946">
        <ele>7.4</ele>
        <time>2015-04-07T16:14:09.000Z</time>
      </trkpt>
      <trkpt lat="50.82578" lon="1.58946">
        <ele>7.4</ele>
        <time>2015-04-07T16:14:10.000Z</time>
      </trkpt>
      <trkpt lat="50.82578" lon="1.58946">
        <ele>7.4</ele>
        <time>2015-04-07T16:14:11.000Z</time>
      </trkpt>
      <trkpt lat="50.82578" lon="1.58946">
        <ele>7.4</ele>
        <time>2015-04-07T16:14:12.000Z</time>
      </trkpt>
      <trkpt lat="50.82578" lon="1.58946">
        <ele>7.4</ele>
        <time>2015-04-07T16:14:13.000Z</time>
      </trkpt>
      <trkpt lat="50.82578" lon="1.58946">
        <ele>7.4</ele>
        <time>2015-04-07T16:14:14.000Z</time>
      </trkpt>
      <trkpt lat="50.82578" lon="1.58946">
        <ele>7.4</ele>
        <time>2015-04-07T16:14:15.000Z</time>
      </trkpt>
      <trkpt lat="50.82578" lon="1.58946">
        <ele>7.4</ele>
        <time>2015-04-07T16:14:16.000Z</time>
      </trkpt>
      <trkpt lat="50.82578" lon="1.58946">
        <ele>7.4</ele>
        <time>2015-04-07T16:14:17.000Z</time>
      </trkpt>
      <trkpt lat="50.82578" lon="1.58946">
        <ele>7.4</ele>
        <time>2015-04-07T16:14:18.000Z</time>
      </trkpt>
      <trkpt lat="50.82578" lon="1.58946">
        <ele>7.4</ele>
        <time>2015-04-07T16:14:19.000Z</time>
      </trkpt>
      <trkpt lat="50.82578" lon="1.58946">
        <ele>7.4</ele>
        <time>2015-04-07T16:14:20.000Z</time>
      </trkpt>
      <trkpt lat="50.82578" lon="1.58946">
        <ele>7.4</ele>
        <time>2015-04-07T16:14:21.000Z</time>
      </trkpt>
      <trkpt lat="50.82578" lon="1.58946">
        <ele>7.4</ele>
        <time>2015-04-07T16:14:22.000Z</time>
      </trkpt>
      <trkpt lat="50.82579" lon="1.58946">
        <ele>7.4</ele>
        <time>2015-04-07T16:14:23.000Z</time>
      </trkpt>
      <trkpt lat="50.82579" lon="1.58946">
        <ele>7.4</ele>
        <time>2015-04-07T16:14:24.000Z</time>
      </trkpt>
      <trkpt lat="50.82579" lon="1.58946">
        <ele>7.4</ele>
        <time>2015-04-07T16:14:25.000Z</time>
      </trkpt>
      <trkpt lat="50.82579" lon="1.58946">
        <ele>7.4</ele>
        <time>2015-04-07T16:14:26.000Z</time>
      </trkpt>
      <trkpt lat="50.82579" lon="1.58946">
        <ele>7.4</ele>
        <time>2015-04-07T16:14:27.000Z</time>
      </trkpt>
      <trkpt lat="50.82579" lon="1.58946">
        <ele>7.4</ele>
        <time>2015-04-07T16:14:28.000Z</time>
      </trkpt>
      <trkpt lat="50.82579" lon="1.58946">
        <ele>7.3</ele>
        <time>2015-04-07T16:14:29.000Z</time>
      </trkpt>
      <trkpt lat="50.82579" lon="1.58946">
        <ele>7.3</ele>
        <time>2015-04-07T16:14:30.000Z</time>
      </trkpt>
      <trkpt lat="50.82579" lon="1.58946">
        <ele>7.3</ele>
        <time>2015-04-07T16:14:31.000Z</time>
      </trkpt>
      <trkpt lat="50.82579" lon="1.58945">
        <ele>7.3</ele>
        <time>2015-04-07T16:14:32.000Z</time>
      </trkpt>
      <trkpt lat="50.82579" lon="1.58945">
        <ele>7.3</ele>
        <time>2015-04-07T16:14:33.000Z</time>
      </trkpt>
      <trkpt lat="50.82579" lon="1.58945">
        <ele>7.3</ele>
        <time>2015-04-07T16:14:34.000Z</time>
      </trkpt>
      <trkpt lat="50.82579" lon="1.58945">
        <ele>7.3</ele>
        <time>2015-04-07T16:14:35.000Z</time>
      </trkpt>
      <trkpt lat="50.82579" lon="1.58945">
        <ele>7.3</ele>
        <time>2015-04-07T16:14:36.000Z</time>
      </trkpt>
      <trkpt lat="50.82579" lon="1.58945">
        <ele>7.3</ele>
        <time>2015-04-07T16:14:37.000Z</time>
      </trkpt>
      <trkpt lat="50.82579" lon="1.58945">
        <ele>7.3</ele>
        <time>2015-04-07T16:14:38.000Z</time>
      </trkpt>
      <trkpt lat="50.82579" lon="1.58945">
        <ele>7.3</ele>
        <time>2015-04-07T16:14:39.000Z</time>
      </trkpt>
      <trkpt lat="50.82579" lon="1.58945">
        <ele>7.3</ele>
        <time>2015-04-07T16:14:40.000Z</time>
      </trkpt>
      <trkpt lat="50.82579" lon="1.58945">
        <ele>7.3</ele>
        <time>2015-04-07T16:14:41.000Z</time>
      </trkpt>
      <trkpt lat="50.82579" lon="1.58945">
        <ele>7.3</ele>
        <time>2015-04-07T16:14:42.000Z</time>
      </trkpt>
      <trkpt lat="50.82579" lon="1.58945">
        <ele>7.3</ele>
        <time>2015-04-07T16:14:43.000Z</time>
      </trkpt>
      <trkpt lat="50.82579" lon="1.58945">
        <ele>7.3</ele>
        <time>2015-04-07T16:14:44.000Z</time>
      </trkpt>
      <trkpt lat="50.82579" lon="1.58945">
        <ele>7.3</ele>
        <time>2015-04-07T16:14:45.000Z</time>
      </trkpt>
      <trkpt lat="50.82579" lon="1.58945">
        <ele>7.3</ele>
        <time>2015-04-07T16:14:46.000Z</time>
      </trkpt>
      <trkpt lat="50.82579" lon="1.58945">
        <ele>7.3</ele>
        <time>2015-04-07T16:14:47.000Z</time>
      </trkpt>
      <trkpt lat="50.82579" lon="1.58945">
        <ele>7.3</ele>
        <time>2015-04-07T16:14:48.000Z</time>
      </trkpt>
      <trkpt lat="50.82579" lon="1.58945">
        <ele>7.3</ele>
        <time>2015-04-07T16:14:49.000Z</time>
      </trkpt>
      <trkpt lat="50.82579" lon="1.58945">
        <ele>7.3</ele>
        <time>2015-04-07T16:14:50.000Z</time>
      </trkpt>
      <trkpt lat="50.82579" lon="1.58945">
        <ele>7.3</ele>
        <time>2015-04-07T16:14:51.000Z</time>
      </trkpt>
      <trkpt lat="50.82579" lon="1.58945">
        <ele>7.3</ele>
        <time>2015-04-07T16:14:52.000Z</time>
      </trkpt>
      <trkpt lat="50.82579" lon="1.58945">
        <ele>7.3</ele>
        <time>2015-04-07T16:14:53.000Z</time>
      </trkpt>
      <trkpt lat="50.82579" lon="1.58945">
        <ele>7.3</ele>
        <time>2015-04-07T16:14:54.000Z</time>
      </trkpt>
      <trkpt lat="50.82579" lon="1.58945">
        <ele>7.3</ele>
        <time>2015-04-07T16:14:55.000Z</time>
      </trkpt>
      <trkpt lat="50.82579" lon="1.58945">
        <ele>7.3</ele>
        <time>2015-04-07T16:14:56.000Z</time>
      </trkpt>
      <trkpt lat="50.82579" lon="1.58945">
        <ele>7.3</ele>
        <time>2015-04-07T16:14:57.000Z</time>
      </trkpt>
      <trkpt lat="50.82579" lon="1.58945">
        <ele>7.3</ele>
        <time>2015-04-07T16:14:58.000Z</time>
      </trkpt>
      <trkpt lat="50.82579" lon="1.58945">
        <ele>7.3</ele>
        <time>2015-04-07T16:14:59.000Z</time>
      </trkpt>
      <trkpt lat="50.82579" lon="1.58945">
        <ele>7.3</ele>
        <time>2015-04-07T16:15:00.000Z</time>
      </trkpt>
      <trkpt lat="50.82579" lon="1.58945">
        <ele>7.3</ele>
        <time>2015-04-07T16:15:01.000Z</time>
      </trkpt>
      <trkpt lat="50.82579" lon="1.58945">
        <ele>7.3</ele>
        <time>2015-04-07T16:15:02.000Z</time>
      </trkpt>
      <trkpt lat="50.82579" lon="1.58945">
        <ele>7.3</ele>
        <time>2015-04-07T16:15:03.000Z</time>
      </trkpt>
      <trkpt lat="50.82579" lon="1.58945">
        <ele>7.3</ele>
        <time>2015-04-07T16:15:04.000Z</time>
      </trkpt>
      <trkpt lat="50.82579" lon="1.58945">
        <ele>7.3</ele>
        <time>2015-04-07T16:15:05.000Z</time>
      </trkpt>
      <trkpt lat="50.82579" lon="1.58945">
        <ele>7.3</ele>
        <time>2015-04-07T16:15:06.000Z</time>
      </trkpt>
      <trkpt lat="50.82579" lon="1.58945">
        <ele>7.3</ele>
        <time>2015-04-07T16:15:07.000Z</time>
      </trkpt>
      <trkpt lat="50.82579" lon="1.58945">
        <ele>7.3</ele>
        <time>2015-04-07T16:15:08.000Z</time>
      </trkpt>
      <trkpt lat="50.82579" lon="1.58945">
        <ele>7.3</ele>
        <time>2015-04-07T16:15:09.000Z</time>
      </trkpt>
      <trkpt lat="50.82579" lon="1.58945">
        <ele>7.3</ele>
        <time>2015-04-07T16:15:10.000Z</time>
      </trkpt>
      <trkpt lat="50.82579" lon="1.58945">
        <ele>7.3</ele>
        <time>2015-04-07T16:15:11.000Z</time>
      </trkpt>
      <trkpt lat="50.82579" lon="1.58945">
        <ele>7.3</ele>
        <time>2015-04-07T16:15:12.000Z</time>
      </trkpt>
      <trkpt lat="50.82579" lon="1.58945">
        <ele>7.3</ele>
        <time>2015-04-07T16:15:13.000Z</time>
      </trkpt>
      <trkpt lat="50.82579" lon="1.58945">
        <ele>7.3</ele>
        <time>2015-04-07T16:15:14.000Z</time>
      </trkpt>
      <trkpt lat="50.82579" lon="1.58945">
        <ele>7.3</ele>
        <time>2015-04-07T16:15:15.000Z</time>
      </trkpt>
      <trkpt lat="50.82579" lon="1.58945">
        <ele>7.3</ele>
        <time>2015-04-07T16:15:16.000Z</time>
      </trkpt>
      <trkpt lat="50.82579" lon="1.58945">
        <ele>7.3</ele>
        <time>2015-04-07T16:15:17.000Z</time>
      </trkpt>
      <trkpt lat="50.82579" lon="1.58945">
        <ele>7.3</ele>
        <time>2015-04-07T16:15:18.000Z</time>
      </trkpt>
      <trkpt lat="50.82579" lon="1.58945">
        <ele>7.3</ele>
        <time>2015-04-07T16:15:19.000Z</time>
      </trkpt>
      <trkpt lat="50.82579" lon="1.58945">
        <ele>7.3</ele>
        <time>2015-04-07T16:15:20.000Z</time>
      </trkpt>
      <trkpt lat="50.82579" lon="1.58945">
        <ele>7.3</ele>
        <time>2015-04-07T16:15:21.000Z</time>
      </trkpt>
      <trkpt lat="50.82579" lon="1.58945">
        <ele>7.3</ele>
        <time>2015-04-07T16:15:22.000Z</time>
      </trkpt>
      <trkpt lat="50.82579" lon="1.58945">
        <ele>7.3</ele>
        <time>2015-04-07T16:15:23.000Z</time>
      </trkpt>
      <trkpt lat="50.82579" lon="1.58945">
        <ele>7.3</ele>
        <time>2015-04-07T16:15:24.000Z</time>
      </trkpt>
      <trkpt lat="50.82579" lon="1.58945">
        <ele>7.3</ele>
        <time>2015-04-07T16:15:25.000Z</time>
      </trkpt>
      <trkpt lat="50.82579" lon="1.58945">
        <ele>7.3</ele>
        <time>2015-04-07T16:15:26.000Z</time>
      </trkpt>
      <trkpt lat="50.82579" lon="1.58945">
        <ele>7.3</ele>
        <time>2015-04-07T16:15:27.000Z</time>
      </trkpt>
      <trkpt lat="50.82579" lon="1.58945">
        <ele>7.3</ele>
        <time>2015-04-07T16:15:28.000Z</time>
      </trkpt>
      <trkpt lat="50.82579" lon="1.58945">
        <ele>7.3</ele>
        <time>2015-04-07T16:15:29.000Z</time>
      </trkpt>
      <trkpt lat="50.82579" lon="1.58945">
        <ele>7.3</ele>
        <time>2015-04-07T16:15:30.000Z</time>
      </trkpt>
      <trkpt lat="50.82579" lon="1.58945">
        <ele>7.3</ele>
        <time>2015-04-07T16:15:31.000Z</time>
      </trkpt>
      <trkpt lat="50.82579" lon="1.58945">
        <ele>7.3</ele>
        <time>2015-04-07T16:15:32.000Z</time>
      </trkpt>
      <trkpt lat="50.82579" lon="1.58945">
        <ele>7.3</ele>
        <time>2015-04-07T16:15:33.000Z</time>
      </trkpt>
      <trkpt lat="50.82579" lon="1.58946">
        <ele>7.3</ele>
        <time>2015-04-07T16:15:34.000Z</time>
      </trkpt>
      <trkpt lat="50.82579" lon="1.58946">
        <ele>7.3</ele>
        <time>2015-04-07T16:15:35.000Z</time>
      </trkpt>
      <trkpt lat="50.82579" lon="1.58946">
        <ele>7.4</ele>
        <time>2015-04-07T16:15:36.000Z</time>
      </trkpt>
      <trkpt lat="50.82579" lon="1.58946">
        <ele>7.4</ele>
        <time>2015-04-07T16:15:37.000Z</time>
      </trkpt>
      <trkpt lat="50.82579" lon="1.58946">
        <ele>7.4</ele>
        <time>2015-04-07T16:15:38.000Z</time>
      </trkpt>
      <trkpt lat="50.82579" lon="1.58946">
        <ele>7.4</ele>
        <time>2015-04-07T16:15:39.000Z</time>
      </trkpt>
      <trkpt lat="50.82579" lon="1.58946">
        <ele>7.4</ele>
        <time>2015-04-07T16:15:40.000Z</time>
      </trkpt>
      <trkpt lat="50.82579" lon="1.58946">
        <ele>7.4</ele>
        <time>2015-04-07T16:15:41.000Z</time>
      </trkpt>
      <trkpt lat="50.8258" lon="1.58946">
        <ele>7.4</ele>
        <time>2015-04-07T16:15:42.000Z</time>
      </trkpt>
      <trkpt lat="50.82579" lon="1.58946">
        <ele>7.4</ele>
        <time>2015-04-07T16:15:43.000Z</time>
      </trkpt>
      <trkpt lat="50.82579" lon="1.58947">
        <ele>7.4</ele>
        <time>2015-04-07T16:15:44.000Z</time>
      </trkpt>
      <trkpt lat="50.82579" lon="1.58947">
        <ele>7.5</ele>
        <time>2015-04-07T16:15:45.000Z</time>
      </trkpt>
      <trkpt lat="50.82579" lon="1.58947">
        <ele>7.5</ele>
        <time>2015-04-07T16:15:46.000Z</time>
      </trkpt>
      <trkpt lat="50.82579" lon="1.58948">
        <ele>7.6</ele>
        <time>2015-04-07T16:15:47.000Z</time>
      </trkpt>
      <trkpt lat="50.82578" lon="1.58948">
        <ele>7.7</ele>
        <time>2015-04-07T16:15:48.000Z</time>
      </trkpt>
      <trkpt lat="50.82577" lon="1.58948">
        <ele>7.8</ele>
        <time>2015-04-07T16:15:49.000Z</time>
      </trkpt>
      <trkpt lat="50.82577" lon="1.58949">
        <ele>7.8</ele>
        <time>2015-04-07T16:15:50.000Z</time>
      </trkpt>
      <trkpt lat="50.82576" lon="1.58949">
        <ele>7.9</ele>
        <time>2015-04-07T16:15:51.000Z</time>
      </trkpt>
      <trkpt lat="50.82575" lon="1.5895">
        <ele>8</ele>
        <time>2015-04-07T16:15:52.000Z</time>
      </trkpt>
      <trkpt lat="50.82574" lon="1.5895">
        <ele>8.1</ele>
        <time>2015-04-07T16:15:53.000Z</time>
      </trkpt>
      <trkpt lat="50.82573" lon="1.5895">
        <ele>8.2</ele>
        <time>2015-04-07T16:15:54.000Z</time>
      </trkpt>
      <trkpt lat="50.82572" lon="1.58951">
        <ele>8.2</ele>
        <time>2015-04-07T16:15:55.000Z</time>
      </trkpt>
      <trkpt lat="50.82571" lon="1.58951">
        <ele>8.3</ele>
        <time>2015-04-07T16:15:56.000Z</time>
      </trkpt>
      <trkpt lat="50.8257" lon="1.58951">
        <ele>8.4</ele>
        <time>2015-04-07T16:15:57.000Z</time>
      </trkpt>
      <trkpt lat="50.82569" lon="1.58951">
        <ele>8.4</ele>
        <time>2015-04-07T16:15:58.000Z</time>
      </trkpt>
      <trkpt lat="50.82568" lon="1.58951">
        <ele>8.4</ele>
        <time>2015-04-07T16:15:59.000Z</time>
      </trkpt>
      <trkpt lat="50.82567" lon="1.58951">
        <ele>8.4</ele>
        <time>2015-04-07T16:16:00.000Z</time>
      </trkpt>
      <trkpt lat="50.82566" lon="1.58951">
        <ele>8.4</ele>
        <time>2015-04-07T16:16:01.000Z</time>
      </trkpt>
      <trkpt lat="50.82565" lon="1.58951">
        <ele>8.4</ele>
        <time>2015-04-07T16:16:02.000Z</time>
      </trkpt>
      <trkpt lat="50.82564" lon="1.5895">
        <ele>8.4</ele>
        <time>2015-04-07T16:16:03.000Z</time>
      </trkpt>
      <trkpt lat="50.82564" lon="1.5895">
        <ele>8.3</ele>
        <time>2015-04-07T16:16:04.000Z</time>
      </trkpt>
      <trkpt lat="50.82563" lon="1.58948">
        <ele>8.1</ele>
        <time>2015-04-07T16:16:05.000Z</time>
      </trkpt>
      <trkpt lat="50.82563" lon="1.58948">
        <ele>8.1</ele>
        <time>2015-04-07T16:16:06.000Z</time>
      </trkpt>
      <trkpt lat="50.82563" lon="1.58948">
        <ele>8.1</ele>
        <time>2015-04-07T16:16:07.000Z</time>
      </trkpt>
      <trkpt lat="50.82562" lon="1.58948">
        <ele>8.2</ele>
        <time>2015-04-07T16:16:08.000Z</time>
      </trkpt>
      <trkpt lat="50.82562" lon="1.58948">
        <ele>8.2</ele>
        <time>2015-04-07T16:16:09.000Z</time>
      </trkpt>
      <trkpt lat="50.82562" lon="1.58948">
        <ele>8.2</ele>
        <time>2015-04-07T16:16:10.000Z</time>
      </trkpt>
      <trkpt lat="50.82562" lon="1.58948">
        <ele>8.2</ele>
        <time>2015-04-07T16:16:11.000Z</time>
      </trkpt>
      <trkpt lat="50.82562" lon="1.58948">
        <ele>8.2</ele>
        <time>2015-04-07T16:16:12.000Z</time>
      </trkpt>
      <trkpt lat="50.82562" lon="1.58948">
        <ele>8.2</ele>
        <time>2015-04-07T16:16:13.000Z</time>
      </trkpt>
      <trkpt lat="50.82562" lon="1.58948">
        <ele>8.2</ele>
        <time>2015-04-07T16:16:14.000Z</time>
      </trkpt>
      <trkpt lat="50.82562" lon="1.58948">
        <ele>8.2</ele>
        <time>2015-04-07T16:16:15.000Z</time>
      </trkpt>
      <trkpt lat="50.82562" lon="1.58948">
        <ele>8.2</ele>
        <time>2015-04-07T16:16:16.000Z</time>
      </trkpt>
      <trkpt lat="50.82562" lon="1.58948">
        <ele>8.2</ele>
        <time>2015-04-07T16:16:17.000Z</time>
      </trkpt>
      <trkpt lat="50.82562" lon="1.58948">
        <ele>8.2</ele>
        <time>2015-04-07T16:16:18.000Z</time>
      </trkpt>
      <trkpt lat="50.82562" lon="1.58948">
        <ele>8.2</ele>
        <time>2015-04-07T16:16:19.000Z</time>
      </trkpt>
      <trkpt lat="50.82562" lon="1.58948">
        <ele>8.2</ele>
        <time>2015-04-07T16:16:20.000Z</time>
      </trkpt>
      <trkpt lat="50.82562" lon="1.58948">
        <ele>8.2</ele>
        <time>2015-04-07T16:16:21.000Z</time>
      </trkpt>
      <trkpt lat="50.82562" lon="1.58948">
        <ele>8.2</ele>
        <time>2015-04-07T16:16:22.000Z</time>
      </trkpt>
      <trkpt lat="50.82562" lon="1.58948">
        <ele>8.2</ele>
        <time>2015-04-07T16:16:23.000Z</time>
      </trkpt>
      <trkpt lat="50.82562" lon="1.58948">
        <ele>8.2</ele>
        <time>2015-04-07T16:16:24.000Z</time>
      </trkpt>
      <trkpt lat="50.82562" lon="1.58948">
        <ele>8.2</ele>
        <time>2015-04-07T16:16:25.000Z</time>
      </trkpt>
      <trkpt lat="50.82562" lon="1.58948">
        <ele>8.2</ele>
        <time>2015-04-07T16:16:26.000Z</time>
      </trkpt>
      <trkpt lat="50.82562" lon="1.58948">
        <ele>8.2</ele>
        <time>2015-04-07T16:16:27.000Z</time>
      </trkpt>
      <trkpt lat="50.82562" lon="1.58948">
        <ele>8.2</ele>
        <time>2015-04-07T16:16:28.000Z</time>
      </trkpt>
      <trkpt lat="50.82562" lon="1.58948">
        <ele>8.2</ele>
        <time>2015-04-07T16:16:29.000Z</time>
      </trkpt>
      <trkpt lat="50.82562" lon="1.58948">
        <ele>8.2</ele>
        <time>2015-04-07T16:16:30.000Z</time>
      </trkpt>
      <trkpt lat="50.82562" lon="1.58948">
        <ele>8.2</ele>
        <time>2015-04-07T16:16:31.000Z</time>
      </trkpt>
      <trkpt lat="50.82562" lon="1.58948">
        <ele>8.2</ele>
        <time>2015-04-07T16:16:32.000Z</time>
      </trkpt>
      <trkpt lat="50.82562" lon="1.58948">
        <ele>8.2</ele>
        <time>2015-04-07T16:16:33.000Z</time>
      </trkpt>
      <trkpt lat="50.82562" lon="1.58948">
        <ele>8.2</ele>
        <time>2015-04-07T16:16:34.000Z</time>
      </trkpt>
      <trkpt lat="50.82562" lon="1.58948">
        <ele>8.2</ele>
        <time>2015-04-07T16:16:35.000Z</time>
      </trkpt>
      <trkpt lat="50.82562" lon="1.58948">
        <ele>8.2</ele>
        <time>2015-04-07T16:16:36.000Z</time>
      </trkpt>
      <trkpt lat="50.82562" lon="1.58948">
        <ele>8.2</ele>
        <time>2015-04-07T16:16:37.000Z</time>
      </trkpt>
      <trkpt lat="50.82562" lon="1.58948">
        <ele>8.2</ele>
        <time>2015-04-07T16:16:38.000Z</time>
      </trkpt>
      <trkpt lat="50.82562" lon="1.58948">
        <ele>8.2</ele>
        <time>2015-04-07T16:16:39.000Z</time>
      </trkpt>
      <trkpt lat="50.82562" lon="1.58948">
        <ele>8.2</ele>
        <time>2015-04-07T16:16:40.000Z</time>
      </trkpt>
      <trkpt lat="50.82562" lon="1.58948">
        <ele>8.2</ele>
        <time>2015-04-07T16:16:41.000Z</time>
      </trkpt>
      <trkpt lat="50.82562" lon="1.58948">
        <ele>8.2</ele>
        <time>2015-04-07T16:16:42.000Z</time>
      </trkpt>
      <trkpt lat="50.82562" lon="1.58948">
        <ele>8.2</ele>
        <time>2015-04-07T16:16:43.000Z</time>
      </trkpt>
      <trkpt lat="50.82562" lon="1.58948">
        <ele>8.2</ele>
        <time>2015-04-07T16:16:44.000Z</time>
      </trkpt>
      <trkpt lat="50.82562" lon="1.58948">
        <ele>8.2</ele>
        <time>2015-04-07T16:16:45.000Z</time>
      </trkpt>
      <trkpt lat="50.82562" lon="1.58948">
        <ele>8.2</ele>
        <time>2015-04-07T16:16:46.000Z</time>
      </trkpt>
      <trkpt lat="50.82562" lon="1.58948">
        <ele>8.2</ele>
        <time>2015-04-07T16:16:47.000Z</time>
      </trkpt>
      <trkpt lat="50.82562" lon="1.58948">
        <ele>8.2</ele>
        <time>2015-04-07T16:16:48.000Z</time>
      </trkpt>
      <trkpt lat="50.82562" lon="1.58948">
        <ele>8.2</ele>
        <time>2015-04-07T16:16:49.000Z</time>
      </trkpt>
      <trkpt lat="50.82562" lon="1.58948">
        <ele>8.2</ele>
        <time>2015-04-07T16:16:50.000Z</time>
      </trkpt>
      <trkpt lat="50.82562" lon="1.58948">
        <ele>8.2</ele>
        <time>2015-04-07T16:16:51.000Z</time>
      </trkpt>
      <trkpt lat="50.82562" lon="1.58948">
        <ele>8.2</ele>
        <time>2015-04-07T16:16:52.000Z</time>
      </trkpt>
      <trkpt lat="50.82562" lon="1.58948">
        <ele>8.2</ele>
        <time>2015-04-07T16:16:53.000Z</time>
      </trkpt>
      <trkpt lat="50.82562" lon="1.58948">
        <ele>8.2</ele>
        <time>2015-04-07T16:16:54.000Z</time>
      </trkpt>
      <trkpt lat="50.82562" lon="1.58948">
        <ele>8.2</ele>
        <time>2015-04-07T16:16:55.000Z</time>
      </trkpt>
      <trkpt lat="50.82562" lon="1.58948">
        <ele>8.2</ele>
        <time>2015-04-07T16:16:56.000Z</time>
      </trkpt>
      <trkpt lat="50.82562" lon="1.58948">
        <ele>8.2</ele>
        <time>2015-04-07T16:16:57.000Z</time>
      </trkpt>
      <trkpt lat="50.82562" lon="1.58948">
        <ele>8.2</ele>
        <time>2015-04-07T16:16:58.000Z</time>
      </trkpt>
      <trkpt lat="50.82562" lon="1.58948">
        <ele>8.2</ele>
        <time>2015-04-07T16:16:59.000Z</time>
      </trkpt>
      <trkpt lat="50.82563" lon="1.58948">
        <ele>8.2</ele>
        <time>2015-04-07T16:17:00.000Z</time>
      </trkpt>
      <trkpt lat="50.82563" lon="1.58949">
        <ele>8.2</ele>
        <time>2015-04-07T16:17:01.000Z</time>
      </trkpt>
      <trkpt lat="50.82563" lon="1.58949">
        <ele>8.3</ele>
        <time>2015-04-07T16:17:02.000Z</time>
      </trkpt>
      <trkpt lat="50.82563" lon="1.58949">
        <ele>8.3</ele>
        <time>2015-04-07T16:17:03.000Z</time>
      </trkpt>
      <trkpt lat="50.82562" lon="1.5895">
        <ele>8.4</ele>
        <time>2015-04-07T16:17:04.000Z</time>
      </trkpt>
      <trkpt lat="50.82562" lon="1.58951">
        <ele>8.5</ele>
        <time>2015-04-07T16:17:05.000Z</time>
      </trkpt>
      <trkpt lat="50.82561" lon="1.58952">
        <ele>8.7</ele>
        <time>2015-04-07T16:17:06.000Z</time>
      </trkpt>
      <trkpt lat="50.82561" lon="1.58953">
        <ele>8.8</ele>
        <time>2015-04-07T16:17:07.000Z</time>
      </trkpt>
      <trkpt lat="50.8256" lon="1.58954">
        <ele>9</ele>
        <time>2015-04-07T16:17:08.000Z</time>
      </trkpt>
      <trkpt lat="50.8256" lon="1.58955">
        <ele>9.1</ele>
        <time>2015-04-07T16:17:09.000Z</time>
      </trkpt>
      <trkpt lat="50.82559" lon="1.58957">
        <ele>9.2</ele>
        <time>2015-04-07T16:17:10.000Z</time>
      </trkpt>
      <trkpt lat="50.82558" lon="1.58958">
        <ele>9.4</ele>
        <time>2015-04-07T16:17:11.000Z</time>
      </trkpt>
      <trkpt lat="50.82557" lon="1.58959">
        <ele>9.5</ele>
        <time>2015-04-07T16:17:12.000Z</time>
      </trkpt>
      <trkpt lat="50.82556" lon="1.58959">
        <ele>9.6</ele>
        <time>2015-04-07T16:17:13.000Z</time>
      </trkpt>
      <trkpt lat="50.82555" lon="1.5896">
        <ele>9.7</ele>
        <time>2015-04-07T16:17:14.000Z</time>
      </trkpt>
      <trkpt lat="50.82554" lon="1.58961">
        <ele>9.8</ele>
        <time>2015-04-07T16:17:15.000Z</time>
      </trkpt>
      <trkpt lat="50.82553" lon="1.58962">
        <ele>9.9</ele>
        <time>2015-04-07T16:17:16.000Z</time>
      </trkpt>
      <trkpt lat="50.82552" lon="1.58963">
        <ele>10</ele>
        <time>2015-04-07T16:17:17.000Z</time>
      </trkpt>
      <trkpt lat="50.82551" lon="1.58963">
        <ele>10.1</ele>
        <time>2015-04-07T16:17:18.000Z</time>
      </trkpt>
      <trkpt lat="50.8255" lon="1.58964">
        <ele>10.2</ele>
        <time>2015-04-07T16:17:19.000Z</time>
      </trkpt>
      <trkpt lat="50.82549" lon="1.58965">
        <ele>10.3</ele>
        <time>2015-04-07T16:17:20.000Z</time>
      </trkpt>
      <trkpt lat="50.82548" lon="1.58965">
        <ele>10.4</ele>
        <time>2015-04-07T16:17:21.000Z</time>
      </trkpt>
      <trkpt lat="50.82547" lon="1.58966">
        <ele>10.5</ele>
        <time>2015-04-07T16:17:22.000Z</time>
      </trkpt>
      <trkpt lat="50.82546" lon="1.58967">
        <ele>10.6</ele>
        <time>2015-04-07T16:17:23.000Z</time>
      </trkpt>
      <trkpt lat="50.82545" lon="1.58968">
        <ele>10.6</ele>
        <time>2015-04-07T16:17:24.000Z</time>
      </trkpt>
      <trkpt lat="50.82544" lon="1.58969">
        <ele>10.7</ele>
        <time>2015-04-07T16:17:25.000Z</time>
      </trkpt>
      <trkpt lat="50.82543" lon="1.5897">
        <ele>10.8</ele>
        <time>2015-04-07T16:17:26.000Z</time>
      </trkpt>
      <trkpt lat="50.82542" lon="1.5897">
        <ele>10.9</ele>
        <time>2015-04-07T16:17:27.000Z</time>
      </trkpt>
      <trkpt lat="50.82541" lon="1.58971">
        <ele>10.9</ele>
        <time>2015-04-07T16:17:28.000Z</time>
      </trkpt>
      <trkpt lat="50.8254" lon="1.58972">
        <ele>11</ele>
        <time>2015-04-07T16:17:29.000Z</time>
      </trkpt>
      <trkpt lat="50.82538" lon="1.58973">
        <ele>11</ele>
        <time>2015-04-07T16:17:30.000Z</time>
      </trkpt>
      <trkpt lat="50.82537" lon="1.58974">
        <ele>11.1</ele>
        <time>2015-04-07T16:17:31.000Z</time>
      </trkpt>
      <trkpt lat="50.82536" lon="1.58975">
        <ele>11.1</ele>
        <time>2015-04-07T16:17:32.000Z</time>
      </trkpt>
      <trkpt lat="50.82535" lon="1.58976">
        <ele>11.1</ele>
        <time>2015-04-07T16:17:33.000Z</time>
      </trkpt>
      <trkpt lat="50.82535" lon="1.58976">
        <ele>11.2</ele>
        <time>2015-04-07T16:17:34.000Z</time>
      </trkpt>
      <trkpt lat="50.82534" lon="1.58977">
        <ele>11.2</ele>
        <time>2015-04-07T16:17:35.000Z</time>
      </trkpt>
      <trkpt lat="50.82533" lon="1.58978">
        <ele>11.2</ele>
        <time>2015-04-07T16:17:36.000Z</time>
      </trkpt>
      <trkpt lat="50.82532" lon="1.58979">
        <ele>11.2</ele>
        <time>2015-04-07T16:17:37.000Z</time>
      </trkpt>
      <trkpt lat="50.82531" lon="1.5898">
        <ele>11.3</ele>
        <time>2015-04-07T16:17:38.000Z</time>
      </trkpt>
      <trkpt lat="50.8253" lon="1.58981">
        <ele>11.3</ele>
        <time>2015-04-07T16:17:39.000Z</time>
      </trkpt>
      <trkpt lat="50.82529" lon="1.58982">
        <ele>11.3</ele>
        <time>2015-04-07T16:17:40.000Z</time>
      </trkpt>
      <trkpt lat="50.82528" lon="1.58983">
        <ele>11.4</ele>
        <time>2015-04-07T16:17:41.000Z</time>
      </trkpt>
      <trkpt lat="50.82527" lon="1.58984">
        <ele>11.4</ele>
        <time>2015-04-07T16:17:42.000Z</time>
      </trkpt>
      <trkpt lat="50.82526" lon="1.58985">
        <ele>11.5</ele>
        <time>2015-04-07T16:17:43.000Z</time>
      </trkpt>
      <trkpt lat="50.82525" lon="1.58986">
        <ele>11.5</ele>
        <time>2015-04-07T16:17:44.000Z</time>
      </trkpt>
      <trkpt lat="50.82524" lon="1.58987">
        <ele>11.6</ele>
        <time>2015-04-07T16:17:45.000Z</time>
      </trkpt>
      <trkpt lat="50.82522" lon="1.58988">
        <ele>11.6</ele>
        <time>2015-04-07T16:17:46.000Z</time>
      </trkpt>
      <trkpt lat="50.82521" lon="1.58989">
        <ele>11.7</ele>
        <time>2015-04-07T16:17:47.000Z</time>
      </trkpt>
      <trkpt lat="50.8252" lon="1.5899">
        <ele>11.7</ele>
        <time>2015-04-07T16:17:48.000Z</time>
      </trkpt>
      <trkpt lat="50.82519" lon="1.58991">
        <ele>11.8</ele>
        <time>2015-04-07T16:17:49.000Z</time>
      </trkpt>
      <trkpt lat="50.82518" lon="1.58993">
        <ele>11.8</ele>
        <time>2015-04-07T16:17:50.000Z</time>
      </trkpt>
      <trkpt lat="50.82517" lon="1.58994">
        <ele>11.9</ele>
        <time>2015-04-07T16:17:51.000Z</time>
      </trkpt>
      <trkpt lat="50.82516" lon="1.58995">
        <ele>11.9</ele>
        <time>2015-04-07T16:17:52.000Z</time>
      </trkpt>
      <trkpt lat="50.82515" lon="1.58995">
        <ele>11.9</ele>
        <time>2015-04-07T16:17:53.000Z</time>
      </trkpt>
      <trkpt lat="50.82514" lon="1.58996">
        <ele>11.9</ele>
        <time>2015-04-07T16:17:54.000Z</time>
      </trkpt>
      <trkpt lat="50.82512" lon="1.58997">
        <ele>11.9</ele>
        <time>2015-04-07T16:17:55.000Z</time>
      </trkpt>
      <trkpt lat="50.82511" lon="1.58997">
        <ele>12</ele>
        <time>2015-04-07T16:17:56.000Z</time>
      </trkpt>
      <trkpt lat="50.8251" lon="1.58998">
        <ele>12</ele>
        <time>2015-04-07T16:17:57.000Z</time>
      </trkpt>
      <trkpt lat="50.82509" lon="1.58999">
        <ele>12</ele>
        <time>2015-04-07T16:17:58.000Z</time>
      </trkpt>
      <trkpt lat="50.82508" lon="1.59">
        <ele>12</ele>
        <time>2015-04-07T16:17:59.000Z</time>
      </trkpt>
      <trkpt lat="50.82506" lon="1.59001">
        <ele>12</ele>
        <time>2015-04-07T16:18:00.000Z</time>
      </trkpt>
      <trkpt lat="50.82505" lon="1.59002">
        <ele>12</ele>
        <time>2015-04-07T16:18:01.000Z</time>
      </trkpt>
      <trkpt lat="50.82504" lon="1.59002">
        <ele>12</ele>
        <time>2015-04-07T16:18:02.000Z</time>
      </trkpt>
      <trkpt lat="50.82503" lon="1.59003">
        <ele>12</ele>
        <time>2015-04-07T16:18:03.000Z</time>
      </trkpt>
      <trkpt lat="50.82502" lon="1.59004">
        <ele>12</ele>
        <time>2015-04-07T16:18:04.000Z</time>
      </trkpt>
      <trkpt lat="50.82501" lon="1.59005">
        <ele>12</ele>
        <time>2015-04-07T16:18:05.000Z</time>
      </trkpt>
      <trkpt lat="50.825" lon="1.59006">
        <ele>12</ele>
        <time>2015-04-07T16:18:06.000Z</time>
      </trkpt>
      <trkpt lat="50.82499" lon="1.59007">
        <ele>12</ele>
        <time>2015-04-07T16:18:07.000Z</time>
      </trkpt>
      <trkpt lat="50.82498" lon="1.59008">
        <ele>11.9</ele>
        <time>2015-04-07T16:18:08.000Z</time>
      </trkpt>
      <trkpt lat="50.82497" lon="1.59009">
        <ele>11.9</ele>
        <time>2015-04-07T16:18:09.000Z</time>
      </trkpt>
      <trkpt lat="50.82496" lon="1.59011">
        <ele>11.9</ele>
        <time>2015-04-07T16:18:10.000Z</time>
      </trkpt>
      <trkpt lat="50.82495" lon="1.59012">
        <ele>11.8</ele>
        <time>2015-04-07T16:18:11.000Z</time>
      </trkpt>
      <trkpt lat="50.82494" lon="1.59014">
        <ele>11.8</ele>
        <time>2015-04-07T16:18:12.000Z</time>
      </trkpt>
      <trkpt lat="50.82493" lon="1.59015">
        <ele>11.7</ele>
        <time>2015-04-07T16:18:13.000Z</time>
      </trkpt>
      <trkpt lat="50.82492" lon="1.59016">
        <ele>11.7</ele>
        <time>2015-04-07T16:18:14.000Z</time>
      </trkpt>
      <trkpt lat="50.82491" lon="1.59017">
        <ele>11.7</ele>
        <time>2015-04-07T16:18:15.000Z</time>
      </trkpt>
      <trkpt lat="50.8249" lon="1.59018">
        <ele>11.6</ele>
        <time>2015-04-07T16:18:16.000Z</time>
      </trkpt>
      <trkpt lat="50.82489" lon="1.59019">
        <ele>11.6</ele>
        <time>2015-04-07T16:18:17.000Z</time>
      </trkpt>
      <trkpt lat="50.82488" lon="1.5902">
        <ele>11.6</ele>
        <time>2015-04-07T16:18:18.000Z</time>
      </trkpt>
      <trkpt lat="50.82487" lon="1.59021">
        <ele>11.5</ele>
        <time>2015-04-07T16:18:19.000Z</time>
      </trkpt>
      <trkpt lat="50.82485" lon="1.59022">
        <ele>11.5</ele>
        <time>2015-04-07T16:18:20.000Z</time>
      </trkpt>
      <trkpt lat="50.82484" lon="1.59023">
        <ele>11.4</ele>
        <time>2015-04-07T16:18:21.000Z</time>
      </trkpt>
      <trkpt lat="50.82483" lon="1.59024">
        <ele>11.4</ele>
        <time>2015-04-07T16:18:22.000Z</time>
      </trkpt>
      <trkpt lat="50.82482" lon="1.59025">
        <ele>11.3</ele>
        <time>2015-04-07T16:18:23.000Z</time>
      </trkpt>
      <trkpt lat="50.8248" lon="1.59025">
        <ele>11.3</ele>
        <time>2015-04-07T16:18:24.000Z</time>
      </trkpt>
      <trkpt lat="50.82479" lon="1.59026">
        <ele>11.2</ele>
        <time>2015-04-07T16:18:25.000Z</time>
      </trkpt>
      <trkpt lat="50.82478" lon="1.59027">
        <ele>11.2</ele>
        <time>2015-04-07T16:18:26.000Z</time>
      </trkpt>
      <trkpt lat="50.82476" lon="1.59028">
        <ele>11.1</ele>
        <time>2015-04-07T16:18:27.000Z</time>
      </trkpt>
      <trkpt lat="50.82475" lon="1.59029">
        <ele>11.1</ele>
        <time>2015-04-07T16:18:28.000Z</time>
      </trkpt>
      <trkpt lat="50.82474" lon="1.5903">
        <ele>11.1</ele>
        <time>2015-04-07T16:18:29.000Z</time>
      </trkpt>
      <trkpt lat="50.82473" lon="1.59031">
        <ele>11</ele>
        <time>2015-04-07T16:18:30.000Z</time>
      </trkpt>
      <trkpt lat="50.82471" lon="1.59032">
        <ele>11</ele>
        <time>2015-04-07T16:18:31.000Z</time>
      </trkpt>
      <trkpt lat="50.8247" lon="1.59033">
        <ele>11</ele>
        <time>2015-04-07T16:18:32.000Z</time>
      </trkpt>
      <trkpt lat="50.82469" lon="1.59033">
        <ele>11</ele>
        <time>2015-04-07T16:18:33.000Z</time>
      </trkpt>
      <trkpt lat="50.82468" lon="1.59034">
        <ele>11</ele>
        <time>2015-04-07T16:18:34.000Z</time>
      </trkpt>
      <trkpt lat="50.82464" lon="1.59034">
        <ele>11</ele>
        <time>2015-04-07T16:18:35.000Z</time>
      </trkpt>
      <trkpt lat="50.82464" lon="1.59033">
        <ele>11</ele>
        <time>2015-04-07T16:18:36.000Z</time>
      </trkpt>
      <trkpt lat="50.82464" lon="1.59033">
        <ele>11</ele>
        <time>2015-04-07T16:18:37.000Z</time>
      </trkpt>
      <trkpt lat="50.82463" lon="1.59031">
        <ele>11</ele>
        <time>2015-04-07T16:18:38.000Z</time>
      </trkpt>
      <trkpt lat="50.82463" lon="1.5903">
        <ele>11</ele>
        <time>2015-04-07T16:18:39.000Z</time>
      </trkpt>
      <trkpt lat="50.82462" lon="1.59028">
        <ele>11</ele>
        <time>2015-04-07T16:18:40.000Z</time>
      </trkpt>
      <trkpt lat="50.82462" lon="1.59027">
        <ele>11</ele>
        <time>2015-04-07T16:18:41.000Z</time>
      </trkpt>
      <trkpt lat="50.82461" lon="1.59025">
        <ele>11</ele>
        <time>2015-04-07T16:18:42.000Z</time>
      </trkpt>
      <trkpt lat="50.82461" lon="1.59024">
        <ele>10.9</ele>
        <time>2015-04-07T16:18:43.000Z</time>
      </trkpt>
      <trkpt lat="50.8246" lon="1.59022">
        <ele>10.9</ele>
        <time>2015-04-07T16:18:44.000Z</time>
      </trkpt>
      <trkpt lat="50.8246" lon="1.5902">
        <ele>10.9</ele>
        <time>2015-04-07T16:18:45.000Z</time>
      </trkpt>
      <trkpt lat="50.82459" lon="1.59018">
        <ele>10.8</ele>
        <time>2015-04-07T16:18:46.000Z</time>
      </trkpt>
      <trkpt lat="50.82459" lon="1.59017">
        <ele>10.8</ele>
        <time>2015-04-07T16:18:47.000Z</time>
      </trkpt>
      <trkpt lat="50.82459" lon="1.59015">
        <ele>10.8</ele>
        <time>2015-04-07T16:18:48.000Z</time>
      </trkpt>
      <trkpt lat="50.82459" lon="1.59014">
        <ele>10.8</ele>
        <time>2015-04-07T16:18:49.000Z</time>
      </trkpt>
      <trkpt lat="50.82459" lon="1.59013">
        <ele>10.7</ele>
        <time>2015-04-07T16:18:50.000Z</time>
      </trkpt>
      <trkpt lat="50.82459" lon="1.59013">
        <ele>10.7</ele>
        <time>2015-04-07T16:18:51.000Z</time>
      </trkpt>
      <trkpt lat="50.82458" lon="1.59011">
        <ele>10.7</ele>
        <time>2015-04-07T16:18:52.000Z</time>
      </trkpt>
      <trkpt lat="50.82458" lon="1.59011">
        <ele>10.7</ele>
        <time>2015-04-07T16:18:53.000Z</time>
      </trkpt>
      <trkpt lat="50.82457" lon="1.59009">
        <ele>10.6</ele>
        <time>2015-04-07T16:18:54.000Z</time>
      </trkpt>
      <trkpt lat="50.82457" lon="1.59009">
        <ele>10.6</ele>
        <time>2015-04-07T16:18:55.000Z</time>
      </trkpt>
      <trkpt lat="50.82457" lon="1.59008">
        <ele>10.6</ele>
        <time>2015-04-07T16:18:56.000Z</time>
      </trkpt>
      <trkpt lat="50.82456" lon="1.59007">
        <ele>10.6</ele>
        <time>2015-04-07T16:18:57.000Z</time>
      </trkpt>
      <trkpt lat="50.82456" lon="1.59006">
        <ele>10.5</ele>
        <time>2015-04-07T16:18:58.000Z</time>
      </trkpt>
      <trkpt lat="50.82455" lon="1.59004">
        <ele>10.5</ele>
        <time>2015-04-07T16:18:59.000Z</time>
      </trkpt>
      <trkpt lat="50.82455" lon="1.59003">
        <ele>10.4</ele>
        <time>2015-04-07T16:19:00.000Z</time>
      </trkpt>
      <trkpt lat="50.82455" lon="1.59001">
        <ele>10.4</ele>
        <time>2015-04-07T16:19:01.000Z</time>
      </trkpt>
      <trkpt lat="50.82454" lon="1.59">
        <ele>10.3</ele>
        <time>2015-04-07T16:19:02.000Z</time>
      </trkpt>
      <trkpt lat="50.82454" lon="1.58998">
        <ele>10.3</ele>
        <time>2015-04-07T16:19:03.000Z</time>
      </trkpt>
      <trkpt lat="50.82453" lon="1.58996">
        <ele>10.3</ele>
        <time>2015-04-07T16:19:04.000Z</time>
      </trkpt>
      <trkpt lat="50.82453" lon="1.58995">
        <ele>10.3</ele>
        <time>2015-04-07T16:19:05.000Z</time>
      </trkpt>
      <trkpt lat="50.82453" lon="1.58993">
        <ele>10.3</ele>
        <time>2015-04-07T16:19:06.000Z</time>
      </trkpt>
      <trkpt lat="50.82452" lon="1.58991">
        <ele>10.3</ele>
        <time>2015-04-07T16:19:07.000Z</time>
      </trkpt>
      <trkpt lat="50.82452" lon="1.58989">
        <ele>10.3</ele>
        <time>2015-04-07T16:19:08.000Z</time>
      </trkpt>
      <trkpt lat="50.82452" lon="1.58987">
        <ele>10.3</ele>
        <time>2015-04-07T16:19:09.000Z</time>
      </trkpt>
      <trkpt lat="50.82451" lon="1.58985">
        <ele>10.2</ele>
        <time>2015-04-07T16:19:10.000Z</time>
      </trkpt>
      <trkpt lat="50.82451" lon="1.58983">
        <ele>10.2</ele>
        <time>2015-04-07T16:19:11.000Z</time>
      </trkpt>
      <trkpt lat="50.82451" lon="1.58981">
        <ele>10.2</ele>
        <time>2015-04-07T16:19:12.000Z</time>
      </trkpt>
      <trkpt lat="50.82451" lon="1.5898">
        <ele>10.2</ele>
        <time>2015-04-07T16:19:13.000Z</time>
      </trkpt>
      <trkpt lat="50.8245" lon="1.58978">
        <ele>10.2</ele>
        <time>2015-04-07T16:19:14.000Z</time>
      </trkpt>
      <trkpt lat="50.8245" lon="1.58977">
        <ele>10.2</ele>
        <time>2015-04-07T16:19:15.000Z</time>
      </trkpt>
      <trkpt lat="50.8245" lon="1.58975">
        <ele>10.2</ele>
        <time>2015-04-07T16:19:16.000Z</time>
      </trkpt>
      <trkpt lat="50.8245" lon="1.58974">
        <ele>10.2</ele>
        <time>2015-04-07T16:19:17.000Z</time>
      </trkpt>
      <trkpt lat="50.82448" lon="1.58971">
        <ele>9.9</ele>
        <time>2015-04-07T16:19:18.000Z</time>
      </trkpt>
      <trkpt lat="50.82448" lon="1.58971">
        <ele>10</ele>
        <time>2015-04-07T16:19:19.000Z</time>
      </trkpt>
      <trkpt lat="50.82448" lon="1.58972">
        <ele>10</ele>
        <time>2015-04-07T16:19:20.000Z</time>
      </trkpt>
      <trkpt lat="50.82447" lon="1.58971">
        <ele>9.9</ele>
        <time>2015-04-07T16:19:21.000Z</time>
      </trkpt>
      <trkpt lat="50.82447" lon="1.58971">
        <ele>9.9</ele>
        <time>2015-04-07T16:19:22.000Z</time>
      </trkpt>
      <trkpt lat="50.82446" lon="1.58971">
        <ele>9.8</ele>
        <time>2015-04-07T16:19:23.000Z</time>
      </trkpt>
      <trkpt lat="50.82446" lon="1.58971">
        <ele>9.7</ele>
        <time>2015-04-07T16:19:24.000Z</time>
      </trkpt>
      <trkpt lat="50.82445" lon="1.5897">
        <ele>9.6</ele>
        <time>2015-04-07T16:19:25.000Z</time>
      </trkpt>
      <trkpt lat="50.82445" lon="1.58969">
        <ele>9.3</ele>
        <time>2015-04-07T16:19:26.000Z</time>
      </trkpt>
      <trkpt lat="50.82445" lon="1.58969">
        <ele>9.3</ele>
        <time>2015-04-07T16:19:27.000Z</time>
      </trkpt>
      <trkpt lat="50.82445" lon="1.58969">
        <ele>9.3</ele>
        <time>2015-04-07T16:19:28.000Z</time>
      </trkpt>
      <trkpt lat="50.82445" lon="1.58969">
        <ele>9.3</ele>
        <time>2015-04-07T16:19:29.000Z</time>
      </trkpt>
      <trkpt lat="50.82445" lon="1.58969">
        <ele>9.2</ele>
        <time>2015-04-07T16:19:30.000Z</time>
      </trkpt>
      <trkpt lat="50.82445" lon="1.58968">
        <ele>9.2</ele>
        <time>2015-04-07T16:19:31.000Z</time>
      </trkpt>
      <trkpt lat="50.82445" lon="1.58968">
        <ele>9.1</ele>
        <time>2015-04-07T16:19:32.000Z</time>
      </trkpt>
      <trkpt lat="50.82445" lon="1.58968">
        <ele>9</ele>
        <time>2015-04-07T16:19:33.000Z</time>
      </trkpt>
      <trkpt lat="50.82445" lon="1.58967">
        <ele>8.9</ele>
        <time>2015-04-07T16:19:34.000Z</time>
      </trkpt>
      <trkpt lat="50.82445" lon="1.58967">
        <ele>8.9</ele>
        <time>2015-04-07T16:19:35.000Z</time>
      </trkpt>
      <trkpt lat="50.82445" lon="1.58967">
        <ele>8.9</ele>
        <time>2015-04-07T16:19:36.000Z</time>
      </trkpt>
      <trkpt lat="50.82445" lon="1.58967">
        <ele>8.8</ele>
        <time>2015-04-07T16:19:37.000Z</time>
      </trkpt>
      <trkpt lat="50.82445" lon="1.58967">
        <ele>8.8</ele>
        <time>2015-04-07T16:19:38.000Z</time>
      </trkpt>
      <trkpt lat="50.82445" lon="1.58967">
        <ele>8.8</ele>
        <time>2015-04-07T16:19:39.000Z</time>
      </trkpt>
      <trkpt lat="50.82445" lon="1.58967">
        <ele>8.8</ele>
        <time>2015-04-07T16:19:40.000Z</time>
      </trkpt>
      <trkpt lat="50.82445" lon="1.58967">
        <ele>8.8</ele>
        <time>2015-04-07T16:19:41.000Z</time>
      </trkpt>
      <trkpt lat="50.82445" lon="1.58967">
        <ele>8.8</ele>
        <time>2015-04-07T16:19:42.000Z</time>
      </trkpt>
      <trkpt lat="50.82445" lon="1.58967">
        <ele>8.8</ele>
        <time>2015-04-07T16:19:43.000Z</time>
      </trkpt>
      <trkpt lat="50.82445" lon="1.58967">
        <ele>8.8</ele>
        <time>2015-04-07T16:19:44.000Z</time>
      </trkpt>
      <trkpt lat="50.82445" lon="1.58967">
        <ele>8.8</ele>
        <time>2015-04-07T16:19:45.000Z</time>
      </trkpt>
      <trkpt lat="50.82445" lon="1.58967">
        <ele>8.8</ele>
        <time>2015-04-07T16:19:46.000Z</time>
      </trkpt>
      <trkpt lat="50.82445" lon="1.58967">
        <ele>8.8</ele>
        <time>2015-04-07T16:19:47.000Z</time>
      </trkpt>
      <trkpt lat="50.82445" lon="1.58967">
        <ele>8.8</ele>
        <time>2015-04-07T16:19:48.000Z</time>
      </trkpt>
      <trkpt lat="50.82445" lon="1.58966">
        <ele>8.7</ele>
        <time>2015-04-07T16:19:49.000Z</time>
      </trkpt>
      <trkpt lat="50.82445" lon="1.58966">
        <ele>8.7</ele>
        <time>2015-04-07T16:19:50.000Z</time>
      </trkpt>
      <trkpt lat="50.82445" lon="1.58966">
        <ele>8.7</ele>
        <time>2015-04-07T16:19:51.000Z</time>
      </trkpt>
      <trkpt lat="50.82445" lon="1.58966">
        <ele>8.7</ele>
        <time>2015-04-07T16:19:52.000Z</time>
      </trkpt>
      <trkpt lat="50.82445" lon="1.58966">
        <ele>8.7</ele>
        <time>2015-04-07T16:19:53.000Z</time>
      </trkpt>
      <trkpt lat="50.82445" lon="1.58966">
        <ele>8.7</ele>
        <time>2015-04-07T16:19:54.000Z</time>
      </trkpt>
      <trkpt lat="50.82445" lon="1.58966">
        <ele>8.7</ele>
        <time>2015-04-07T16:19:55.000Z</time>
      </trkpt>
      <trkpt lat="50.82445" lon="1.58966">
        <ele>8.7</ele>
        <time>2015-04-07T16:19:56.000Z</time>
      </trkpt>
      <trkpt lat="50.82445" lon="1.58966">
        <ele>8.7</ele>
        <time>2015-04-07T16:19:57.000Z</time>
      </trkpt>
      <trkpt lat="50.82445" lon="1.58966">
        <ele>8.7</ele>
        <time>2015-04-07T16:19:58.000Z</time>
      </trkpt>
      <trkpt lat="50.82445" lon="1.58966">
        <ele>8.7</ele>
        <time>2015-04-07T16:19:59.000Z</time>
      </trkpt>
      <trkpt lat="50.82445" lon="1.58966">
        <ele>8.7</ele>
        <time>2015-04-07T16:20:00.000Z</time>
      </trkpt>
      <trkpt lat="50.82445" lon="1.58966">
        <ele>8.7</ele>
        <time>2015-04-07T16:20:01.000Z</time>
      </trkpt>
      <trkpt lat="50.82445" lon="1.58966">
        <ele>8.7</ele>
        <time>2015-04-07T16:20:02.000Z</time>
      </trkpt>
      <trkpt lat="50.82445" lon="1.58966">
        <ele>8.7</ele>
        <time>2015-04-07T16:20:03.000Z</time>
      </trkpt>
      <trkpt lat="50.82445" lon="1.58966">
        <ele>8.7</ele>
        <time>2015-04-07T16:20:04.000Z</time>
      </trkpt>
      <trkpt lat="50.82445" lon="1.58966">
        <ele>8.7</ele>
        <time>2015-04-07T16:20:05.000Z</time>
      </trkpt>
      <trkpt lat="50.82444" lon="1.58966">
        <ele>8.7</ele>
        <time>2015-04-07T16:20:06.000Z</time>
      </trkpt>
      <trkpt lat="50.82444" lon="1.58966">
        <ele>8.7</ele>
        <time>2015-04-07T16:20:07.000Z</time>
      </trkpt>
      <trkpt lat="50.82444" lon="1.58966">
        <ele>8.7</ele>
        <time>2015-04-07T16:20:08.000Z</time>
      </trkpt>
      <trkpt lat="50.82443" lon="1.58966">
        <ele>8.7</ele>
        <time>2015-04-07T16:20:09.000Z</time>
      </trkpt>
      <trkpt lat="50.82442" lon="1.58966">
        <ele>8.7</ele>
        <time>2015-04-07T16:20:10.000Z</time>
      </trkpt>
      <trkpt lat="50.82441" lon="1.58966">
        <ele>8.7</ele>
        <time>2015-04-07T16:20:11.000Z</time>
      </trkpt>
      <trkpt lat="50.8244" lon="1.58967">
        <ele>8.8</ele>
        <time>2015-04-07T16:20:12.000Z</time>
      </trkpt>
      <trkpt lat="50.8244" lon="1.58967">
        <ele>8.8</ele>
        <time>2015-04-07T16:20:13.000Z</time>
      </trkpt>
      <trkpt lat="50.82439" lon="1.58967">
        <ele>8.9</ele>
        <time>2015-04-07T16:20:14.000Z</time>
      </trkpt>
      <trkpt lat="50.82438" lon="1.58968">
        <ele>9</ele>
        <time>2015-04-07T16:20:15.000Z</time>
      </trkpt>
      <trkpt lat="50.82437" lon="1.58968">
        <ele>9.1</ele>
        <time>2015-04-07T16:20:16.000Z</time>
      </trkpt>
      <trkpt lat="50.82436" lon="1.58968">
        <ele>9.1</ele>
        <time>2015-04-07T16:20:17.000Z</time>
      </trkpt>
      <trkpt lat="50.82435" lon="1.58968">
        <ele>9.2</ele>
        <time>2015-04-07T16:20:18.000Z</time>
      </trkpt>
      <trkpt lat="50.82433" lon="1.58969">
        <ele>9.2</ele>
        <time>2015-04-07T16:20:19.000Z</time>
      </trkpt>
      <trkpt lat="50.82432" lon="1.58969">
        <ele>9.2</ele>
        <time>2015-04-07T16:20:20.000Z</time>
      </trkpt>
      <trkpt lat="50.82428" lon="1.58968">
        <ele>9.2</ele>
        <time>2015-04-07T16:20:21.000Z</time>
      </trkpt>
      <trkpt lat="50.82428" lon="1.58968">
        <ele>9.1</ele>
        <time>2015-04-07T16:20:22.000Z</time>
      </trkpt>
      <trkpt lat="50.82428" lon="1.58968">
        <ele>9</ele>
        <time>2015-04-07T16:20:23.000Z</time>
      </trkpt>
      <trkpt lat="50.82428" lon="1.58968">
        <ele>9</ele>
        <time>2015-04-07T16:20:24.000Z</time>
      </trkpt>
      <trkpt lat="50.82428" lon="1.58968">
        <ele>9</ele>
        <time>2015-04-07T16:20:25.000Z</time>
      </trkpt>
      <trkpt lat="50.82428" lon="1.58968">
        <ele>9</ele>
        <time>2015-04-07T16:20:26.000Z</time>
      </trkpt>
      <trkpt lat="50.82428" lon="1.58968">
        <ele>9</ele>
        <time>2015-04-07T16:20:27.000Z</time>
      </trkpt>
      <trkpt lat="50.82428" lon="1.58968">
        <ele>9</ele>
        <time>2015-04-07T16:20:28.000Z</time>
      </trkpt>
      <trkpt lat="50.82428" lon="1.58968">
        <ele>9</ele>
        <time>2015-04-07T16:20:29.000Z</time>
      </trkpt>
      <trkpt lat="50.82428" lon="1.58968">
        <ele>9</ele>
        <time>2015-04-07T16:20:30.000Z</time>
      </trkpt>
      <trkpt lat="50.82428" lon="1.58968">
        <ele>9</ele>
        <time>2015-04-07T16:20:31.000Z</time>
      </trkpt>
      <trkpt lat="50.82428" lon="1.58968">
        <ele>9</ele>
        <time>2015-04-07T16:20:32.000Z</time>
      </trkpt>
      <trkpt lat="50.82428" lon="1.58969">
        <ele>9.2</ele>
        <time>2015-04-07T16:20:33.000Z</time>
      </trkpt>
      <trkpt lat="50.82428" lon="1.58969">
        <ele>9.3</ele>
        <time>2015-04-07T16:20:34.000Z</time>
      </trkpt>
      <trkpt lat="50.82427" lon="1.58969">
        <ele>9.4</ele>
        <time>2015-04-07T16:20:35.000Z</time>
      </trkpt>
      <trkpt lat="50.82427" lon="1.5897">
        <ele>9.5</ele>
        <time>2015-04-07T16:20:36.000Z</time>
      </trkpt>
      <trkpt lat="50.82427" lon="1.58971">
        <ele>9.7</ele>
        <time>2015-04-07T16:20:37.000Z</time>
      </trkpt>
      <trkpt lat="50.82426" lon="1.58972">
        <ele>9.9</ele>
        <time>2015-04-07T16:20:38.000Z</time>
      </trkpt>
      <trkpt lat="50.82426" lon="1.58973">
        <ele>10</ele>
        <time>2015-04-07T16:20:39.000Z</time>
      </trkpt>
      <trkpt lat="50.82425" lon="1.58974">
        <ele>10</ele>
        <time>2015-04-07T16:20:40.000Z</time>
      </trkpt>
      <trkpt lat="50.82424" lon="1.58975">
        <ele>10</ele>
        <time>2015-04-07T16:20:41.000Z</time>
      </trkpt>
      <trkpt lat="50.82424" lon="1.58976">
        <ele>10</ele>
        <time>2015-04-07T16:20:42.000Z</time>
      </trkpt>
      <trkpt lat="50.82424" lon="1.58977">
        <ele>10</ele>
        <time>2015-04-07T16:20:43.000Z</time>
      </trkpt>
      <trkpt lat="50.82423" lon="1.58978">
        <ele>10</ele>
        <time>2015-04-07T16:20:44.000Z</time>
      </trkpt>
      <trkpt lat="50.82423" lon="1.58979">
        <ele>10</ele>
        <time>2015-04-07T16:20:45.000Z</time>
      </trkpt>
      <trkpt lat="50.82422" lon="1.5898">
        <ele>10</ele>
        <time>2015-04-07T16:20:46.000Z</time>
      </trkpt>
      <trkpt lat="50.82422" lon="1.58981">
        <ele>10</ele>
        <time>2015-04-07T16:20:47.000Z</time>
      </trkpt>
      <trkpt lat="50.82421" lon="1.58982">
        <ele>10</ele>
        <time>2015-04-07T16:20:48.000Z</time>
      </trkpt>
      <trkpt lat="50.8242" lon="1.58983">
        <ele>10</ele>
        <time>2015-04-07T16:20:49.000Z</time>
      </trkpt>
      <trkpt lat="50.82419" lon="1.58984">
        <ele>10</ele>
        <time>2015-04-07T16:20:50.000Z</time>
      </trkpt>
      <trkpt lat="50.82419" lon="1.58985">
        <ele>10</ele>
        <time>2015-04-07T16:20:51.000Z</time>
      </trkpt>
      <trkpt lat="50.82418" lon="1.58986">
        <ele>10</ele>
        <time>2015-04-07T16:20:52.000Z</time>
      </trkpt>
      <trkpt lat="50.82417" lon="1.58987">
        <ele>10</ele>
        <time>2015-04-07T16:20:53.000Z</time>
      </trkpt>
      <trkpt lat="50.82416" lon="1.58988">
        <ele>9.9</ele>
        <time>2015-04-07T16:20:54.000Z</time>
      </trkpt>
      <trkpt lat="50.82415" lon="1.58989">
        <ele>9.9</ele>
        <time>2015-04-07T16:20:55.000Z</time>
      </trkpt>
      <trkpt lat="50.82414" lon="1.5899">
        <ele>9.8</ele>
        <time>2015-04-07T16:20:56.000Z</time>
      </trkpt>
      <trkpt lat="50.82413" lon="1.58991">
        <ele>9.7</ele>
        <time>2015-04-07T16:20:57.000Z</time>
      </trkpt>
      <trkpt lat="50.82412" lon="1.58992">
        <ele>9.7</ele>
        <time>2015-04-07T16:20:58.000Z</time>
      </trkpt>
      <trkpt lat="50.82411" lon="1.58992">
        <ele>9.7</ele>
        <time>2015-04-07T16:20:59.000Z</time>
      </trkpt>
      <trkpt lat="50.8241" lon="1.58993">
        <ele>9.6</ele>
        <time>2015-04-07T16:21:00.000Z</time>
      </trkpt>
      <trkpt lat="50.82409" lon="1.58994">
        <ele>9.6</ele>
        <time>2015-04-07T16:21:01.000Z</time>
      </trkpt>
      <trkpt lat="50.82408" lon="1.58995">
        <ele>9.6</ele>
        <time>2015-04-07T16:21:02.000Z</time>
      </trkpt>
      <trkpt lat="50.82407" lon="1.58996">
        <ele>9.7</ele>
        <time>2015-04-07T16:21:03.000Z</time>
      </trkpt>
      <trkpt lat="50.82406" lon="1.58997">
        <ele>9.7</ele>
        <time>2015-04-07T16:21:04.000Z</time>
      </trkpt>
      <trkpt lat="50.82405" lon="1.58997">
        <ele>9.8</ele>
        <time>2015-04-07T16:21:05.000Z</time>
      </trkpt>
      <trkpt lat="50.82404" lon="1.58998">
        <ele>9.8</ele>
        <time>2015-04-07T16:21:06.000Z</time>
      </trkpt>
      <trkpt lat="50.82403" lon="1.58999">
        <ele>9.9</ele>
        <time>2015-04-07T16:21:07.000Z</time>
      </trkpt>
      <trkpt lat="50.82402" lon="1.59">
        <ele>9.9</ele>
        <time>2015-04-07T16:21:08.000Z</time>
      </trkpt>
      <trkpt lat="50.82401" lon="1.59">
        <ele>10</ele>
        <time>2015-04-07T16:21:09.000Z</time>
      </trkpt>
      <trkpt lat="50.824" lon="1.59001">
        <ele>10</ele>
        <time>2015-04-07T16:21:10.000Z</time>
      </trkpt>
      <trkpt lat="50.82399" lon="1.59002">
        <ele>10</ele>
        <time>2015-04-07T16:21:11.000Z</time>
      </trkpt>
      <trkpt lat="50.82398" lon="1.59003">
        <ele>10</ele>
        <time>2015-04-07T16:21:12.000Z</time>
      </trkpt>
      <trkpt lat="50.82397" lon="1.59004">
        <ele>10</ele>
        <time>2015-04-07T16:21:13.000Z</time>
      </trkpt>
      <trkpt lat="50.82396" lon="1.59004">
        <ele>10</ele>
        <time>2015-04-07T16:21:14.000Z</time>
      </trkpt>
      <trkpt lat="50.82395" lon="1.59005">
        <ele>10</ele>
        <time>2015-04-07T16:21:15.000Z</time>
      </trkpt>
      <trkpt lat="50.82394" lon="1.59006">
        <ele>10</ele>
        <time>2015-04-07T16:21:16.000Z</time>
      </trkpt>
      <trkpt lat="50.82393" lon="1.59006">
        <ele>10</ele>
        <time>2015-04-07T16:21:17.000Z</time>
      </trkpt>
      <trkpt lat="50.82392" lon="1.59007">
        <ele>10</ele>
        <time>2015-04-07T16:21:18.000Z</time>
      </trkpt>
      <trkpt lat="50.82391" lon="1.59008">
        <ele>10</ele>
        <time>2015-04-07T16:21:19.000Z</time>
      </trkpt>
      <trkpt lat="50.8239" lon="1.59009">
        <ele>10</ele>
        <time>2015-04-07T16:21:20.000Z</time>
      </trkpt>
      <trkpt lat="50.82389" lon="1.5901">
        <ele>10</ele>
        <time>2015-04-07T16:21:21.000Z</time>
      </trkpt>
      <trkpt lat="50.82388" lon="1.59011">
        <ele>9.9</ele>
        <time>2015-04-07T16:21:22.000Z</time>
      </trkpt>
      <trkpt lat="50.82387" lon="1.59012">
        <ele>9.8</ele>
        <time>2015-04-07T16:21:23.000Z</time>
      </trkpt>
      <trkpt lat="50.82386" lon="1.59013">
        <ele>9.7</ele>
        <time>2015-04-07T16:21:24.000Z</time>
      </trkpt>
      <trkpt lat="50.82385" lon="1.59014">
        <ele>9.6</ele>
        <time>2015-04-07T16:21:25.000Z</time>
      </trkpt>
      <trkpt lat="50.82384" lon="1.59015">
        <ele>9.6</ele>
        <time>2015-04-07T16:21:26.000Z</time>
      </trkpt>
      <trkpt lat="50.82383" lon="1.59017">
        <ele>9.5</ele>
        <time>2015-04-07T16:21:27.000Z</time>
      </trkpt>
      <trkpt lat="50.82382" lon="1.59018">
        <ele>9.5</ele>
        <time>2015-04-07T16:21:28.000Z</time>
      </trkpt>
      <trkpt lat="50.82381" lon="1.59019">
        <ele>9.4</ele>
        <time>2015-04-07T16:21:29.000Z</time>
      </trkpt>
      <trkpt lat="50.8238" lon="1.5902">
        <ele>9.4</ele>
        <time>2015-04-07T16:21:30.000Z</time>
      </trkpt>
      <trkpt lat="50.82378" lon="1.59021">
        <ele>9.3</ele>
        <time>2015-04-07T16:21:31.000Z</time>
      </trkpt>
      <trkpt lat="50.82377" lon="1.59022">
        <ele>9.3</ele>
        <time>2015-04-07T16:21:32.000Z</time>
      </trkpt>
      <trkpt lat="50.82376" lon="1.59023">
        <ele>9.3</ele>
        <time>2015-04-07T16:21:33.000Z</time>
      </trkpt>
      <trkpt lat="50.82375" lon="1.59023">
        <ele>9.3</ele>
        <time>2015-04-07T16:21:34.000Z</time>
      </trkpt>
      <trkpt lat="50.82374" lon="1.59024">
        <ele>9.3</ele>
        <time>2015-04-07T16:21:35.000Z</time>
      </trkpt>
      <trkpt lat="50.82373" lon="1.59025">
        <ele>9.3</ele>
        <time>2015-04-07T16:21:36.000Z</time>
      </trkpt>
      <trkpt lat="50.82372" lon="1.59026">
        <ele>9.3</ele>
        <time>2015-04-07T16:21:37.000Z</time>
      </trkpt>
      <trkpt lat="50.82371" lon="1.59027">
        <ele>9.3</ele>
        <time>2015-04-07T16:21:38.000Z</time>
      </trkpt>
      <trkpt lat="50.8237" lon="1.59028">
        <ele>9.3</ele>
        <time>2015-04-07T16:21:39.000Z</time>
      </trkpt>
      <trkpt lat="50.82369" lon="1.59029">
        <ele>9.3</ele>
        <time>2015-04-07T16:21:40.000Z</time>
      </trkpt>
      <trkpt lat="50.82368" lon="1.5903">
        <ele>9.3</ele>
        <time>2015-04-07T16:21:41.000Z</time>
      </trkpt>
      <trkpt lat="50.82367" lon="1.59031">
        <ele>9.3</ele>
        <time>2015-04-07T16:21:42.000Z</time>
      </trkpt>
      <trkpt lat="50.82366" lon="1.59032">
        <ele>9.3</ele>
        <time>2015-04-07T16:21:43.000Z</time>
      </trkpt>
      <trkpt lat="50.82365" lon="1.59032">
        <ele>9.3</ele>
        <time>2015-04-07T16:21:44.000Z</time>
      </trkpt>
      <trkpt lat="50.82364" lon="1.59033">
        <ele>9.3</ele>
        <time>2015-04-07T16:21:45.000Z</time>
      </trkpt>
      <trkpt lat="50.82363" lon="1.59034">
        <ele>9.3</ele>
        <time>2015-04-07T16:21:46.000Z</time>
      </trkpt>
      <trkpt lat="50.82361" lon="1.59034">
        <ele>9.2</ele>
        <time>2015-04-07T16:21:47.000Z</time>
      </trkpt>
      <trkpt lat="50.8236" lon="1.59034">
        <ele>9.1</ele>
        <time>2015-04-07T16:21:48.000Z</time>
      </trkpt>
      <trkpt lat="50.82359" lon="1.59035">
        <ele>9</ele>
        <time>2015-04-07T16:21:49.000Z</time>
      </trkpt>
      <trkpt lat="50.82355" lon="1.59037">
        <ele>8.5</ele>
        <time>2015-04-07T16:21:50.000Z</time>
      </trkpt>
      <trkpt lat="50.82354" lon="1.59037">
        <ele>8.4</ele>
        <time>2015-04-07T16:21:51.000Z</time>
      </trkpt>
      <trkpt lat="50.82354" lon="1.59037">
        <ele>8.4</ele>
        <time>2015-04-07T16:21:52.000Z</time>
      </trkpt>
      <trkpt lat="50.82353" lon="1.59037">
        <ele>8.3</ele>
        <time>2015-04-07T16:21:53.000Z</time>
      </trkpt>
      <trkpt lat="50.82353" lon="1.59037">
        <ele>8.2</ele>
        <time>2015-04-07T16:21:54.000Z</time>
      </trkpt>
      <trkpt lat="50.82352" lon="1.59037">
        <ele>8.1</ele>
        <time>2015-04-07T16:21:55.000Z</time>
      </trkpt>
      <trkpt lat="50.82351" lon="1.59037">
        <ele>8</ele>
        <time>2015-04-07T16:21:56.000Z</time>
      </trkpt>
      <trkpt lat="50.8235" lon="1.59037">
        <ele>7.9</ele>
        <time>2015-04-07T16:21:57.000Z</time>
      </trkpt>
      <trkpt lat="50.82349" lon="1.59038">
        <ele>7.8</ele>
        <time>2015-04-07T16:21:58.000Z</time>
      </trkpt>
      <trkpt lat="50.82345" lon="1.59038">
        <ele>7.3</ele>
        <time>2015-04-07T16:21:59.000Z</time>
      </trkpt>
      <trkpt lat="50.82345" lon="1.59038">
        <ele>7.3</ele>
        <time>2015-04-07T16:22:00.000Z</time>
      </trkpt>
      <trkpt lat="50.82344" lon="1.5904">
        <ele>7.3</ele>
        <time>2015-04-07T16:22:01.000Z</time>
      </trkpt>
      <trkpt lat="50.82344" lon="1.5904">
        <ele>7.3</ele>
        <time>2015-04-07T16:22:02.000Z</time>
      </trkpt>
      <trkpt lat="50.82344" lon="1.5904">
        <ele>7.2</ele>
        <time>2015-04-07T16:22:03.000Z</time>
      </trkpt>
      <trkpt lat="50.82344" lon="1.5904">
        <ele>7.2</ele>
        <time>2015-04-07T16:22:04.000Z</time>
      </trkpt>
      <trkpt lat="50.82342" lon="1.59042">
        <ele>7.2</ele>
        <time>2015-04-07T16:22:05.000Z</time>
      </trkpt>
      <trkpt lat="50.82343" lon="1.59042">
        <ele>7.2</ele>
        <time>2015-04-07T16:22:06.000Z</time>
      </trkpt>
      <trkpt lat="50.82343" lon="1.59042">
        <ele>7.2</ele>
        <time>2015-04-07T16:22:07.000Z</time>
      </trkpt>
      <trkpt lat="50.82343" lon="1.59042">
        <ele>7.2</ele>
        <time>2015-04-07T16:22:08.000Z</time>
      </trkpt>
      <trkpt lat="50.82342" lon="1.59042">
        <ele>7.2</ele>
        <time>2015-04-07T16:22:09.000Z</time>
      </trkpt>
      <trkpt lat="50.82342" lon="1.59042">
        <ele>7.1</ele>
        <time>2015-04-07T16:22:10.000Z</time>
      </trkpt>
      <trkpt lat="50.82342" lon="1.5904">
        <ele>7</ele>
        <time>2015-04-07T16:22:11.000Z</time>
      </trkpt>
      <trkpt lat="50.82342" lon="1.5904">
        <ele>7</ele>
        <time>2015-04-07T16:22:12.000Z</time>
      </trkpt>
      <trkpt lat="50.82342" lon="1.5904">
        <ele>7</ele>
        <time>2015-04-07T16:22:13.000Z</time>
      </trkpt>
      <trkpt lat="50.82342" lon="1.5904">
        <ele>7</ele>
        <time>2015-04-07T16:22:14.000Z</time>
      </trkpt>
      <trkpt lat="50.82343" lon="1.5904">
        <ele>7</ele>
        <time>2015-04-07T16:22:15.000Z</time>
      </trkpt>
      <trkpt lat="50.82343" lon="1.5904">
        <ele>7.1</ele>
        <time>2015-04-07T16:22:16.000Z</time>
      </trkpt>
      <trkpt lat="50.82343" lon="1.5904">
        <ele>7.1</ele>
        <time>2015-04-07T16:22:17.000Z</time>
      </trkpt>
      <trkpt lat="50.82343" lon="1.5904">
        <ele>7.1</ele>
        <time>2015-04-07T16:22:18.000Z</time>
      </trkpt>
      <trkpt lat="50.82343" lon="1.5904">
        <ele>7.1</ele>
        <time>2015-04-07T16:22:19.000Z</time>
      </trkpt>
      <trkpt lat="50.82343" lon="1.5904">
        <ele>7.1</ele>
        <time>2015-04-07T16:22:20.000Z</time>
      </trkpt>
      <trkpt lat="50.82343" lon="1.5904">
        <ele>7.1</ele>
        <time>2015-04-07T16:22:21.000Z</time>
      </trkpt>
      <trkpt lat="50.82343" lon="1.5904">
        <ele>7</ele>
        <time>2015-04-07T16:22:22.000Z</time>
      </trkpt>
      <trkpt lat="50.82343" lon="1.5904">
        <ele>7</ele>
        <time>2015-04-07T16:22:23.000Z</time>
      </trkpt>
      <trkpt lat="50.82343" lon="1.5904">
        <ele>7</ele>
        <time>2015-04-07T16:22:24.000Z</time>
      </trkpt>
      <trkpt lat="50.82342" lon="1.5904">
        <ele>7</ele>
        <time>2015-04-07T16:22:25.000Z</time>
      </trkpt>
      <trkpt lat="50.82342" lon="1.5904">
        <ele>7</ele>
        <time>2015-04-07T16:22:26.000Z</time>
      </trkpt>
      <trkpt lat="50.82342" lon="1.5904">
        <ele>7</ele>
        <time>2015-04-07T16:22:27.000Z</time>
      </trkpt>
      <trkpt lat="50.82342" lon="1.5904">
        <ele>7</ele>
        <time>2015-04-07T16:22:28.000Z</time>
      </trkpt>
      <trkpt lat="50.82341" lon="1.5904">
        <ele>6.9</ele>
        <time>2015-04-07T16:22:29.000Z</time>
      </trkpt>
      <trkpt lat="50.82341" lon="1.5904">
        <ele>6.9</ele>
        <time>2015-04-07T16:22:30.000Z</time>
      </trkpt>
      <trkpt lat="50.82341" lon="1.5904">
        <ele>6.8</ele>
        <time>2015-04-07T16:22:31.000Z</time>
      </trkpt>
      <trkpt lat="50.82341" lon="1.59039">
        <ele>6.8</ele>
        <time>2015-04-07T16:22:32.000Z</time>
      </trkpt>
      <trkpt lat="50.8234" lon="1.59039">
        <ele>6.7</ele>
        <time>2015-04-07T16:22:33.000Z</time>
      </trkpt>
      <trkpt lat="50.8234" lon="1.59039">
        <ele>6.6</ele>
        <time>2015-04-07T16:22:34.000Z</time>
      </trkpt>
      <trkpt lat="50.82339" lon="1.59038">
        <ele>6.5</ele>
        <time>2015-04-07T16:22:35.000Z</time>
      </trkpt>
      <trkpt lat="50.82339" lon="1.59038">
        <ele>6.5</ele>
        <time>2015-04-07T16:22:36.000Z</time>
      </trkpt>
      <trkpt lat="50.82339" lon="1.59038">
        <ele>6.4</ele>
        <time>2015-04-07T16:22:37.000Z</time>
      </trkpt>
      <trkpt lat="50.82337" lon="1.59037">
        <ele>6.1</ele>
        <time>2015-04-07T16:22:38.000Z</time>
      </trkpt>
      <trkpt lat="50.82337" lon="1.59037">
        <ele>6.1</ele>
        <time>2015-04-07T16:22:39.000Z</time>
      </trkpt>
      <trkpt lat="50.82336" lon="1.59038">
        <ele>6</ele>
        <time>2015-04-07T16:22:40.000Z</time>
      </trkpt>
      <trkpt lat="50.82336" lon="1.59038">
        <ele>6</ele>
        <time>2015-04-07T16:22:41.000Z</time>
      </trkpt>
      <trkpt lat="50.82336" lon="1.59038">
        <ele>6</ele>
        <time>2015-04-07T16:22:42.000Z</time>
      </trkpt>
      <trkpt lat="50.82335" lon="1.59038">
        <ele>6</ele>
        <time>2015-04-07T16:22:43.000Z</time>
      </trkpt>
      <trkpt lat="50.82335" lon="1.59039">
        <ele>6</ele>
        <time>2015-04-07T16:22:44.000Z</time>
      </trkpt>
      <trkpt lat="50.82335" lon="1.59039">
        <ele>6</ele>
        <time>2015-04-07T16:22:45.000Z</time>
      </trkpt>
      <trkpt lat="50.82335" lon="1.5904">
        <ele>6</ele>
        <time>2015-04-07T16:22:46.000Z</time>
      </trkpt>
      <trkpt lat="50.82333" lon="1.59041">
        <ele>5.9</ele>
        <time>2015-04-07T16:22:47.000Z</time>
      </trkpt>
      <trkpt lat="50.82333" lon="1.59041">
        <ele>5.9</ele>
        <time>2015-04-07T16:22:48.000Z</time>
      </trkpt>
      <trkpt lat="50.82332" lon="1.59041">
        <ele>5.8</ele>
        <time>2015-04-07T16:22:49.000Z</time>
      </trkpt>
      <trkpt lat="50.82332" lon="1.59041">
        <ele>5.8</ele>
        <time>2015-04-07T16:22:50.000Z</time>
      </trkpt>
      <trkpt lat="50.82332" lon="1.59041">
        <ele>5.8</ele>
        <time>2015-04-07T16:22:51.000Z</time>
      </trkpt>
      <trkpt lat="50.82332" lon="1.59041">
        <ele>5.8</ele>
        <time>2015-04-07T16:22:52.000Z</time>
      </trkpt>
      <trkpt lat="50.82332" lon="1.59041">
        <ele>5.8</ele>
        <time>2015-04-07T16:22:53.000Z</time>
      </trkpt>
      <trkpt lat="50.82332" lon="1.59041">
        <ele>5.8</ele>
        <time>2015-04-07T16:22:54.000Z</time>
      </trkpt>
      <trkpt lat="50.82332" lon="1.59041">
        <ele>5.8</ele>
        <time>2015-04-07T16:22:55.000Z</time>
      </trkpt>
      <trkpt lat="50.82332" lon="1.59041">
        <ele>5.8</ele>
        <time>2015-04-07T16:22:56.000Z</time>
      </trkpt>
      <trkpt lat="50.82332" lon="1.59041">
        <ele>5.8</ele>
        <time>2015-04-07T16:22:57.000Z</time>
      </trkpt>
      <trkpt lat="50.82332" lon="1.59041">
        <ele>5.8</ele>
        <time>2015-04-07T16:22:58.000Z</time>
      </trkpt>
      <trkpt lat="50.82332" lon="1.59041">
        <ele>5.8</ele>
        <time>2015-04-07T16:22:59.000Z</time>
      </trkpt>
      <trkpt lat="50.82332" lon="1.59041">
        <ele>5.8</ele>
        <time>2015-04-07T16:23:00.000Z</time>
      </trkpt>
      <trkpt lat="50.82332" lon="1.59041">
        <ele>5.8</ele>
        <time>2015-04-07T16:23:01.000Z</time>
      </trkpt>
      <trkpt lat="50.82332" lon="1.59041">
        <ele>5.8</ele>
        <time>2015-04-07T16:23:02.000Z</time>
      </trkpt>
      <trkpt lat="50.82332" lon="1.59041">
        <ele>5.8</ele>
        <time>2015-04-07T16:23:03.000Z</time>
      </trkpt>
      <trkpt lat="50.82332" lon="1.59041">
        <ele>5.8</ele>
        <time>2015-04-07T16:23:04.000Z</time>
      </trkpt>
      <trkpt lat="50.82332" lon="1.59041">
        <ele>5.8</ele>
        <time>2015-04-07T16:23:05.000Z</time>
      </trkpt>
      <trkpt lat="50.82332" lon="1.59041">
        <ele>5.8</ele>
        <time>2015-04-07T16:23:06.000Z</time>
      </trkpt>
      <trkpt lat="50.82332" lon="1.59041">
        <ele>5.8</ele>
        <time>2015-04-07T16:23:07.000Z</time>
      </trkpt>
      <trkpt lat="50.82333" lon="1.59041">
        <ele>5.9</ele>
        <time>2015-04-07T16:23:08.000Z</time>
      </trkpt>
      <trkpt lat="50.82333" lon="1.59041">
        <ele>5.9</ele>
        <time>2015-04-07T16:23:09.000Z</time>
      </trkpt>
      <trkpt lat="50.82333" lon="1.59042">
        <ele>5.9</ele>
        <time>2015-04-07T16:23:10.000Z</time>
      </trkpt>
      <trkpt lat="50.82333" lon="1.59042">
        <ele>5.9</ele>
        <time>2015-04-07T16:23:11.000Z</time>
      </trkpt>
      <trkpt lat="50.82333" lon="1.59042">
        <ele>6</ele>
        <time>2015-04-07T16:23:12.000Z</time>
      </trkpt>
      <trkpt lat="50.82333" lon="1.59043">
        <ele>6</ele>
        <time>2015-04-07T16:23:13.000Z</time>
      </trkpt>
      <trkpt lat="50.82333" lon="1.59043">
        <ele>6</ele>
        <time>2015-04-07T16:23:14.000Z</time>
      </trkpt>
      <trkpt lat="50.82333" lon="1.59044">
        <ele>6.1</ele>
        <time>2015-04-07T16:23:15.000Z</time>
      </trkpt>
      <trkpt lat="50.82333" lon="1.59045">
        <ele>6.2</ele>
        <time>2015-04-07T16:23:16.000Z</time>
      </trkpt>
      <trkpt lat="50.82333" lon="1.59046">
        <ele>6.3</ele>
        <time>2015-04-07T16:23:17.000Z</time>
      </trkpt>
      <trkpt lat="50.82334" lon="1.59046">
        <ele>6.4</ele>
        <time>2015-04-07T16:23:18.000Z</time>
      </trkpt>
      <trkpt lat="50.82334" lon="1.59047">
        <ele>6.5</ele>
        <time>2015-04-07T16:23:19.000Z</time>
      </trkpt>
      <trkpt lat="50.82334" lon="1.59048">
        <ele>6.5</ele>
        <time>2015-04-07T16:23:20.000Z</time>
      </trkpt>
      <trkpt lat="50.82334" lon="1.59049">
        <ele>6.6</ele>
        <time>2015-04-07T16:23:21.000Z</time>
      </trkpt>
      <trkpt lat="50.82335" lon="1.59049">
        <ele>6.7</ele>
        <time>2015-04-07T16:23:22.000Z</time>
      </trkpt>
      <trkpt lat="50.82335" lon="1.5905">
        <ele>6.8</ele>
        <time>2015-04-07T16:23:23.000Z</time>
      </trkpt>
      <trkpt lat="50.82335" lon="1.59051">
        <ele>6.8</ele>
        <time>2015-04-07T16:23:24.000Z</time>
      </trkpt>
      <trkpt lat="50.82335" lon="1.59051">
        <ele>6.9</ele>
        <time>2015-04-07T16:23:25.000Z</time>
      </trkpt>
      <trkpt lat="50.82335" lon="1.59053">
        <ele>7</ele>
        <time>2015-04-07T16:23:26.000Z</time>
      </trkpt>
      <trkpt lat="50.82335" lon="1.59053">
        <ele>7</ele>
        <time>2015-04-07T16:23:27.000Z</time>
      </trkpt>
      <trkpt lat="50.82335" lon="1.59054">
        <ele>7.1</ele>
        <time>2015-04-07T16:23:28.000Z</time>
      </trkpt>
      <trkpt lat="50.82335" lon="1.59054">
        <ele>7.1</ele>
        <time>2015-04-07T16:23:29.000Z</time>
      </trkpt>
      <trkpt lat="50.82335" lon="1.59054">
        <ele>7.2</ele>
        <time>2015-04-07T16:23:30.000Z</time>
      </trkpt>
      <trkpt lat="50.82336" lon="1.59055">
        <ele>7.2</ele>
        <time>2015-04-07T16:23:31.000Z</time>
      </trkpt>
      <trkpt lat="50.82336" lon="1.59055">
        <ele>7.3</ele>
        <time>2015-04-07T16:23:32.000Z</time>
      </trkpt>
      <trkpt lat="50.82336" lon="1.59056">
        <ele>7.4</ele>
        <time>2015-04-07T16:23:33.000Z</time>
      </trkpt>
      <trkpt lat="50.82337" lon="1.59057">
        <ele>7.4</ele>
        <time>2015-04-07T16:23:34.000Z</time>
      </trkpt>
      <trkpt lat="50.82337" lon="1.59057">
        <ele>7.5</ele>
        <time>2015-04-07T16:23:35.000Z</time>
      </trkpt>
      <trkpt lat="50.82337" lon="1.59058">
        <ele>7.6</ele>
        <time>2015-04-07T16:23:36.000Z</time>
      </trkpt>
      <trkpt lat="50.82337" lon="1.59058">
        <ele>7.7</ele>
        <time>2015-04-07T16:23:37.000Z</time>
      </trkpt>
      <trkpt lat="50.82339" lon="1.59061">
        <ele>8.1</ele>
        <time>2015-04-07T16:23:38.000Z</time>
      </trkpt>
      <trkpt lat="50.82339" lon="1.59061">
        <ele>8.1</ele>
        <time>2015-04-07T16:23:39.000Z</time>
      </trkpt>
      <trkpt lat="50.82339" lon="1.59062">
        <ele>8.2</ele>
        <time>2015-04-07T16:23:40.000Z</time>
      </trkpt>
      <trkpt lat="50.82339" lon="1.59062">
        <ele>8.2</ele>
        <time>2015-04-07T16:23:41.000Z</time>
      </trkpt>
      <trkpt lat="50.82339" lon="1.59063">
        <ele>8.3</ele>
        <time>2015-04-07T16:23:42.000Z</time>
      </trkpt>
      <trkpt lat="50.8234" lon="1.59064">
        <ele>8.4</ele>
        <time>2015-04-07T16:23:43.000Z</time>
      </trkpt>
      <trkpt lat="50.8234" lon="1.59065">
        <ele>8.6</ele>
        <time>2015-04-07T16:23:44.000Z</time>
      </trkpt>
      <trkpt lat="50.8234" lon="1.59066">
        <ele>8.7</ele>
        <time>2015-04-07T16:23:45.000Z</time>
      </trkpt>
      <trkpt lat="50.82341" lon="1.59067">
        <ele>8.8</ele>
        <time>2015-04-07T16:23:46.000Z</time>
      </trkpt>
      <trkpt lat="50.82341" lon="1.59067">
        <ele>8.9</ele>
        <time>2015-04-07T16:23:47.000Z</time>
      </trkpt>
      <trkpt lat="50.82342" lon="1.59068">
        <ele>9</ele>
        <time>2015-04-07T16:23:48.000Z</time>
      </trkpt>
      <trkpt lat="50.82342" lon="1.59069">
        <ele>9.1</ele>
        <time>2015-04-07T16:23:49.000Z</time>
      </trkpt>
      <trkpt lat="50.82343" lon="1.5907">
        <ele>9.2</ele>
        <time>2015-04-07T16:23:50.000Z</time>
      </trkpt>
      <trkpt lat="50.82343" lon="1.59071">
        <ele>9.4</ele>
        <time>2015-04-07T16:23:51.000Z</time>
      </trkpt>
      <trkpt lat="50.82344" lon="1.59073">
        <ele>9.5</ele>
        <time>2015-04-07T16:23:52.000Z</time>
      </trkpt>
      <trkpt lat="50.82344" lon="1.59074">
        <ele>9.7</ele>
        <time>2015-04-07T16:23:53.000Z</time>
      </trkpt>
      <trkpt lat="50.82345" lon="1.59075">
        <ele>9.8</ele>
        <time>2015-04-07T16:23:54.000Z</time>
      </trkpt>
      <trkpt lat="50.82346" lon="1.59077">
        <ele>10</ele>
        <time>2015-04-07T16:23:55.000Z</time>
      </trkpt>
      <trkpt lat="50.82346" lon="1.59078">
        <ele>10.1</ele>
        <time>2015-04-07T16:23:56.000Z</time>
      </trkpt>
      <trkpt lat="50.82347" lon="1.5908">
        <ele>10.2</ele>
        <time>2015-04-07T16:23:57.000Z</time>
      </trkpt>
      <trkpt lat="50.82347" lon="1.59081">
        <ele>10.4</ele>
        <time>2015-04-07T16:23:58.000Z</time>
      </trkpt>
      <trkpt lat="50.82348" lon="1.59083">
        <ele>10.5</ele>
        <time>2015-04-07T16:23:59.000Z</time>
      </trkpt>
      <trkpt lat="50.82349" lon="1.59084">
        <ele>10.6</ele>
        <time>2015-04-07T16:24:00.000Z</time>
      </trkpt>
      <trkpt lat="50.82349" lon="1.59085">
        <ele>10.6</ele>
        <time>2015-04-07T16:24:01.000Z</time>
      </trkpt>
      <trkpt lat="50.8235" lon="1.59087">
        <ele>10.7</ele>
        <time>2015-04-07T16:24:02.000Z</time>
      </trkpt>
      <trkpt lat="50.82351" lon="1.59088">
        <ele>10.7</ele>
        <time>2015-04-07T16:24:03.000Z</time>
      </trkpt>
      <trkpt lat="50.82351" lon="1.59089">
        <ele>10.8</ele>
        <time>2015-04-07T16:24:04.000Z</time>
      </trkpt>
      <trkpt lat="50.82352" lon="1.59091">
        <ele>10.8</ele>
        <time>2015-04-07T16:24:05.000Z</time>
      </trkpt>
      <trkpt lat="50.82353" lon="1.59092">
        <ele>10.9</ele>
        <time>2015-04-07T16:24:06.000Z</time>
      </trkpt>
      <trkpt lat="50.82354" lon="1.59094">
        <ele>10.9</ele>
        <time>2015-04-07T16:24:07.000Z</time>
      </trkpt>
      <trkpt lat="50.82354" lon="1.59095">
        <ele>11</ele>
        <time>2015-04-07T16:24:08.000Z</time>
      </trkpt>
      <trkpt lat="50.82355" lon="1.59096">
        <ele>11</ele>
        <time>2015-04-07T16:24:09.000Z</time>
      </trkpt>
      <trkpt lat="50.82356" lon="1.59098">
        <ele>11</ele>
        <time>2015-04-07T16:24:10.000Z</time>
      </trkpt>
      <trkpt lat="50.82357" lon="1.59099">
        <ele>11</ele>
        <time>2015-04-07T16:24:11.000Z</time>
      </trkpt>
      <trkpt lat="50.82357" lon="1.591">
        <ele>11</ele>
        <time>2015-04-07T16:24:12.000Z</time>
      </trkpt>
      <trkpt lat="50.82358" lon="1.59102">
        <ele>11</ele>
        <time>2015-04-07T16:24:13.000Z</time>
      </trkpt>
      <trkpt lat="50.82359" lon="1.59103">
        <ele>11</ele>
        <time>2015-04-07T16:24:14.000Z</time>
      </trkpt>
      <trkpt lat="50.8236" lon="1.59104">
        <ele>11</ele>
        <time>2015-04-07T16:24:15.000Z</time>
      </trkpt>
      <trkpt lat="50.8236" lon="1.59106">
        <ele>11</ele>
        <time>2015-04-07T16:24:16.000Z</time>
      </trkpt>
      <trkpt lat="50.82361" lon="1.59107">
        <ele>11</ele>
        <time>2015-04-07T16:24:17.000Z</time>
      </trkpt>
      <trkpt lat="50.82362" lon="1.59109">
        <ele>11</ele>
        <time>2015-04-07T16:24:18.000Z</time>
      </trkpt>
      <trkpt lat="50.82363" lon="1.5911">
        <ele>11</ele>
        <time>2015-04-07T16:24:19.000Z</time>
      </trkpt>
      <trkpt lat="50.82363" lon="1.59112">
        <ele>11</ele>
        <time>2015-04-07T16:24:20.000Z</time>
      </trkpt>
      <trkpt lat="50.82364" lon="1.59113">
        <ele>11</ele>
        <time>2015-04-07T16:24:21.000Z</time>
      </trkpt>
      <trkpt lat="50.82365" lon="1.59115">
        <ele>11</ele>
        <time>2015-04-07T16:24:22.000Z</time>
      </trkpt>
      <trkpt lat="50.82365" lon="1.59116">
        <ele>11</ele>
        <time>2015-04-07T16:24:23.000Z</time>
      </trkpt>
      <trkpt lat="50.82366" lon="1.59118">
        <ele>11</ele>
        <time>2015-04-07T16:24:24.000Z</time>
      </trkpt>
      <trkpt lat="50.82367" lon="1.59119">
        <ele>11</ele>
        <time>2015-04-07T16:24:25.000Z</time>
      </trkpt>
      <trkpt lat="50.82367" lon="1.59121">
        <ele>11</ele>
        <time>2015-04-07T16:24:26.000Z</time>
      </trkpt>
      <trkpt lat="50.82368" lon="1.59123">
        <ele>11</ele>
        <time>2015-04-07T16:24:27.000Z</time>
      </trkpt>
      <trkpt lat="50.82369" lon="1.59124">
        <ele>11</ele>
        <time>2015-04-07T16:24:28.000Z</time>
      </trkpt>
      <trkpt lat="50.82369" lon="1.59126">
        <ele>11</ele>
        <time>2015-04-07T16:24:29.000Z</time>
      </trkpt>
      <trkpt lat="50.8237" lon="1.59127">
        <ele>11</ele>
        <time>2015-04-07T16:24:30.000Z</time>
      </trkpt>
      <trkpt lat="50.82371" lon="1.59129">
        <ele>11</ele>
        <time>2015-04-07T16:24:31.000Z</time>
      </trkpt>
      <trkpt lat="50.82371" lon="1.5913">
        <ele>11</ele>
        <time>2015-04-07T16:24:32.000Z</time>
      </trkpt>
      <trkpt lat="50.82372" lon="1.59132">
        <ele>11</ele>
        <time>2015-04-07T16:24:33.000Z</time>
      </trkpt>
      <trkpt lat="50.82372" lon="1.59134">
        <ele>11</ele>
        <time>2015-04-07T16:24:34.000Z</time>
      </trkpt>
      <trkpt lat="50.82373" lon="1.59136">
        <ele>11</ele>
        <time>2015-04-07T16:24:35.000Z</time>
      </trkpt>
      <trkpt lat="50.82374" lon="1.59138">
        <ele>11</ele>
        <time>2015-04-07T16:24:36.000Z</time>
      </trkpt>
      <trkpt lat="50.82374" lon="1.5914">
        <ele>11</ele>
        <time>2015-04-07T16:24:37.000Z</time>
      </trkpt>
      <trkpt lat="50.82374" lon="1.59142">
        <ele>11</ele>
        <time>2015-04-07T16:24:38.000Z</time>
      </trkpt>
      <trkpt lat="50.82375" lon="1.59144">
        <ele>11.1</ele>
        <time>2015-04-07T16:24:39.000Z</time>
      </trkpt>
      <trkpt lat="50.82375" lon="1.59145">
        <ele>11.1</ele>
        <time>2015-04-07T16:24:40.000Z</time>
      </trkpt>
      <trkpt lat="50.82376" lon="1.59147">
        <ele>11.2</ele>
        <time>2015-04-07T16:24:41.000Z</time>
      </trkpt>
      <trkpt lat="50.82376" lon="1.59149">
        <ele>11.2</ele>
        <time>2015-04-07T16:24:42.000Z</time>
      </trkpt>
      <trkpt lat="50.82376" lon="1.59151">
        <ele>11.2</ele>
        <time>2015-04-07T16:24:43.000Z</time>
      </trkpt>
      <trkpt lat="50.82377" lon="1.59153">
        <ele>11.3</ele>
        <time>2015-04-07T16:24:44.000Z</time>
      </trkpt>
      <trkpt lat="50.82377" lon="1.59155">
        <ele>11.3</ele>
        <time>2015-04-07T16:24:45.000Z</time>
      </trkpt>
      <trkpt lat="50.82378" lon="1.59157">
        <ele>11.4</ele>
        <time>2015-04-07T16:24:46.000Z</time>
      </trkpt>
      <trkpt lat="50.82378" lon="1.59158">
        <ele>11.4</ele>
        <time>2015-04-07T16:24:47.000Z</time>
      </trkpt>
      <trkpt lat="50.82378" lon="1.5916">
        <ele>11.5</ele>
        <time>2015-04-07T16:24:48.000Z</time>
      </trkpt>
      <trkpt lat="50.82378" lon="1.59161">
        <ele>11.5</ele>
        <time>2015-04-07T16:24:49.000Z</time>
      </trkpt>
      <trkpt lat="50.82379" lon="1.59163">
        <ele>11.5</ele>
        <time>2015-04-07T16:24:50.000Z</time>
      </trkpt>
      <trkpt lat="50.82379" lon="1.59164">
        <ele>11.6</ele>
        <time>2015-04-07T16:24:51.000Z</time>
      </trkpt>
      <trkpt lat="50.82379" lon="1.59166">
        <ele>11.6</ele>
        <time>2015-04-07T16:24:52.000Z</time>
      </trkpt>
      <trkpt lat="50.8238" lon="1.59167">
        <ele>11.7</ele>
        <time>2015-04-07T16:24:53.000Z</time>
      </trkpt>
      <trkpt lat="50.8238" lon="1.59169">
        <ele>11.7</ele>
        <time>2015-04-07T16:24:54.000Z</time>
      </trkpt>
      <trkpt lat="50.82381" lon="1.5917">
        <ele>11.7</ele>
        <time>2015-04-07T16:24:55.000Z</time>
      </trkpt>
      <trkpt lat="50.82381" lon="1.59171">
        <ele>11.7</ele>
        <time>2015-04-07T16:24:56.000Z</time>
      </trkpt>
      <trkpt lat="50.82382" lon="1.59173">
        <ele>11.7</ele>
        <time>2015-04-07T16:24:57.000Z</time>
      </trkpt>
      <trkpt lat="50.82382" lon="1.59174">
        <ele>11.8</ele>
        <time>2015-04-07T16:24:58.000Z</time>
      </trkpt>
      <trkpt lat="50.82383" lon="1.59176">
        <ele>11.8</ele>
        <time>2015-04-07T16:24:59.000Z</time>
      </trkpt>
      <trkpt lat="50.82383" lon="1.59177">
        <ele>11.8</ele>
        <time>2015-04-07T16:25:00.000Z</time>
      </trkpt>
      <trkpt lat="50.82384" lon="1.59179">
        <ele>11.8</ele>
        <time>2015-04-07T16:25:01.000Z</time>
      </trkpt>
      <trkpt lat="50.82384" lon="1.59181">
        <ele>11.8</ele>
        <time>2015-04-07T16:25:02.000Z</time>
      </trkpt>
      <trkpt lat="50.82384" lon="1.59182">
        <ele>11.8</ele>
        <time>2015-04-07T16:25:03.000Z</time>
      </trkpt>
      <trkpt lat="50.82385" lon="1.59184">
        <ele>11.8</ele>
        <time>2015-04-07T16:25:04.000Z</time>
      </trkpt>
      <trkpt lat="50.82385" lon="1.59186">
        <ele>11.9</ele>
        <time>2015-04-07T16:25:05.000Z</time>
      </trkpt>
      <trkpt lat="50.82385" lon="1.59188">
        <ele>11.9</ele>
        <time>2015-04-07T16:25:06.000Z</time>
      </trkpt>
      <trkpt lat="50.82385" lon="1.59189">
        <ele>11.9</ele>
        <time>2015-04-07T16:25:07.000Z</time>
      </trkpt>
      <trkpt lat="50.82386" lon="1.59191">
        <ele>11.9</ele>
        <time>2015-04-07T16:25:08.000Z</time>
      </trkpt>
      <trkpt lat="50.82386" lon="1.59193">
        <ele>11.9</ele>
        <time>2015-04-07T16:25:09.000Z</time>
      </trkpt>
      <trkpt lat="50.82386" lon="1.59195">
        <ele>11.9</ele>
        <time>2015-04-07T16:25:10.000Z</time>
      </trkpt>
      <trkpt lat="50.82387" lon="1.59197">
        <ele>11.9</ele>
        <time>2015-04-07T16:25:11.000Z</time>
      </trkpt>
      <trkpt lat="50.82387" lon="1.59198">
        <ele>11.9</ele>
        <time>2015-04-07T16:25:12.000Z</time>
      </trkpt>
      <trkpt lat="50.82387" lon="1.592">
        <ele>11.9</ele>
        <time>2015-04-07T16:25:13.000Z</time>
      </trkpt>
      <trkpt lat="50.82387" lon="1.59202">
        <ele>12</ele>
        <time>2015-04-07T16:25:14.000Z</time>
      </trkpt>
      <trkpt lat="50.82387" lon="1.59203">
        <ele>12</ele>
        <time>2015-04-07T16:25:15.000Z</time>
      </trkpt>
      <trkpt lat="50.82388" lon="1.59205">
        <ele>12</ele>
        <time>2015-04-07T16:25:16.000Z</time>
      </trkpt>
      <trkpt lat="50.82388" lon="1.59207">
        <ele>12</ele>
        <time>2015-04-07T16:25:17.000Z</time>
      </trkpt>
      <trkpt lat="50.82388" lon="1.59209">
        <ele>12</ele>
        <time>2015-04-07T16:25:18.000Z</time>
      </trkpt>
      <trkpt lat="50.82388" lon="1.5921">
        <ele>12</ele>
        <time>2015-04-07T16:25:19.000Z</time>
      </trkpt>
      <trkpt lat="50.82388" lon="1.59212">
        <ele>12</ele>
        <time>2015-04-07T16:25:20.000Z</time>
      </trkpt>
      <trkpt lat="50.82389" lon="1.59213">
        <ele>12</ele>
        <time>2015-04-07T16:25:21.000Z</time>
      </trkpt>
      <trkpt lat="50.82389" lon="1.59215">
        <ele>12</ele>
        <time>2015-04-07T16:25:22.000Z</time>
      </trkpt>
      <trkpt lat="50.82389" lon="1.59216">
        <ele>12</ele>
        <time>2015-04-07T16:25:23.000Z</time>
      </trkpt>
      <trkpt lat="50.82389" lon="1.59218">
        <ele>12</ele>
        <time>2015-04-07T16:25:24.000Z</time>
      </trkpt>
      <trkpt lat="50.82389" lon="1.59219">
        <ele>12</ele>
        <time>2015-04-07T16:25:25.000Z</time>
      </trkpt>
      <trkpt lat="50.8239" lon="1.59221">
        <ele>12</ele>
        <time>2015-04-07T16:25:26.000Z</time>
      </trkpt>
      <trkpt lat="50.8239" lon="1.59222">
        <ele>12</ele>
        <time>2015-04-07T16:25:27.000Z</time>
      </trkpt>
      <trkpt lat="50.8239" lon="1.59224">
        <ele>12</ele>
        <time>2015-04-07T16:25:28.000Z</time>
      </trkpt>
      <trkpt lat="50.8239" lon="1.59225">
        <ele>12</ele>
        <time>2015-04-07T16:25:29.000Z</time>
      </trkpt>
      <trkpt lat="50.8239" lon="1.59227">
        <ele>12</ele>
        <time>2015-04-07T16:25:30.000Z</time>
      </trkpt>
      <trkpt lat="50.82391" lon="1.59228">
        <ele>12</ele>
        <time>2015-04-07T16:25:31.000Z</time>
      </trkpt>
      <trkpt lat="50.82392" lon="1.5923">
        <ele>12</ele>
        <time>2015-04-07T16:25:32.000Z</time>
      </trkpt>
      <trkpt lat="50.82392" lon="1.59231">
        <ele>12</ele>
        <time>2015-04-07T16:25:33.000Z</time>
      </trkpt>
      <trkpt lat="50.82393" lon="1.59232">
        <ele>12</ele>
        <time>2015-04-07T16:25:34.000Z</time>
      </trkpt>
      <trkpt lat="50.82393" lon="1.59234">
        <ele>12.1</ele>
        <time>2015-04-07T16:25:35.000Z</time>
      </trkpt>
      <trkpt lat="50.82394" lon="1.59235">
        <ele>12.1</ele>
        <time>2015-04-07T16:25:36.000Z</time>
      </trkpt>
      <trkpt lat="50.82394" lon="1.59237">
        <ele>12.1</ele>
        <time>2015-04-07T16:25:37.000Z</time>
      </trkpt>
      <trkpt lat="50.82394" lon="1.59238">
        <ele>12.1</ele>
        <time>2015-04-07T16:25:38.000Z</time>
      </trkpt>
      <trkpt lat="50.82395" lon="1.5924">
        <ele>12.1</ele>
        <time>2015-04-07T16:25:39.000Z</time>
      </trkpt>
      <trkpt lat="50.82395" lon="1.59241">
        <ele>12.1</ele>
        <time>2015-04-07T16:25:40.000Z</time>
      </trkpt>
      <trkpt lat="50.82395" lon="1.59243">
        <ele>12.2</ele>
        <time>2015-04-07T16:25:41.000Z</time>
      </trkpt>
      <trkpt lat="50.82395" lon="1.59244">
        <ele>12.2</ele>
        <time>2015-04-07T16:25:42.000Z</time>
      </trkpt>
      <trkpt lat="50.82396" lon="1.59245">
        <ele>12.2</ele>
        <time>2015-04-07T16:25:43.000Z</time>
      </trkpt>
      <trkpt lat="50.82396" lon="1.59247">
        <ele>12.2</ele>
        <time>2015-04-07T16:25:44.000Z</time>
      </trkpt>
      <trkpt lat="50.82396" lon="1.59249">
        <ele>12.2</ele>
        <time>2015-04-07T16:25:45.000Z</time>
      </trkpt>
      <trkpt lat="50.82396" lon="1.5925">
        <ele>12.3</ele>
        <time>2015-04-07T16:25:46.000Z</time>
      </trkpt>
      <trkpt lat="50.82397" lon="1.59252">
        <ele>12.3</ele>
        <time>2015-04-07T16:25:47.000Z</time>
      </trkpt>
      <trkpt lat="50.82397" lon="1.59253">
        <ele>12.3</ele>
        <time>2015-04-07T16:25:48.000Z</time>
      </trkpt>
      <trkpt lat="50.82397" lon="1.59254">
        <ele>12.3</ele>
        <time>2015-04-07T16:25:49.000Z</time>
      </trkpt>
      <trkpt lat="50.82398" lon="1.59256">
        <ele>12.3</ele>
        <time>2015-04-07T16:25:50.000Z</time>
      </trkpt>
      <trkpt lat="50.82398" lon="1.59257">
        <ele>12.3</ele>
        <time>2015-04-07T16:25:51.000Z</time>
      </trkpt>
      <trkpt lat="50.82399" lon="1.59258">
        <ele>12.3</ele>
        <time>2015-04-07T16:25:52.000Z</time>
      </trkpt>
      <trkpt lat="50.82399" lon="1.59259">
        <ele>12.4</ele>
        <time>2015-04-07T16:25:53.000Z</time>
      </trkpt>
      <trkpt lat="50.824" lon="1.5926">
        <ele>12.4</ele>
        <time>2015-04-07T16:25:54.000Z</time>
      </trkpt>
      <trkpt lat="50.824" lon="1.5926">
        <ele>12.4</ele>
        <time>2015-04-07T16:25:55.000Z</time>
      </trkpt>
      <trkpt lat="50.82401" lon="1.59261">
        <ele>12.4</ele>
        <time>2015-04-07T16:25:56.000Z</time>
      </trkpt>
      <trkpt lat="50.82401" lon="1.59262">
        <ele>12.4</ele>
        <time>2015-04-07T16:25:57.000Z</time>
      </trkpt>
      <trkpt lat="50.82401" lon="1.59263">
        <ele>12.4</ele>
        <time>2015-04-07T16:25:58.000Z</time>
      </trkpt>
      <trkpt lat="50.82402" lon="1.59264">
        <ele>12.5</ele>
        <time>2015-04-07T16:25:59.000Z</time>
      </trkpt>
      <trkpt lat="50.82402" lon="1.59265">
        <ele>12.5</ele>
        <time>2015-04-07T16:26:00.000Z</time>
      </trkpt>
      <trkpt lat="50.82402" lon="1.59266">
        <ele>12.5</ele>
        <time>2015-04-07T16:26:01.000Z</time>
      </trkpt>
      <trkpt lat="50.82402" lon="1.59267">
        <ele>12.5</ele>
        <time>2015-04-07T16:26:02.000Z</time>
      </trkpt>
      <trkpt lat="50.82403" lon="1.59268">
        <ele>12.5</ele>
        <time>2015-04-07T16:26:03.000Z</time>
      </trkpt>
      <trkpt lat="50.82403" lon="1.59269">
        <ele>12.5</ele>
        <time>2015-04-07T16:26:04.000Z</time>
      </trkpt>
      <trkpt lat="50.82403" lon="1.5927">
        <ele>12.5</ele>
        <time>2015-04-07T16:26:05.000Z</time>
      </trkpt>
      <trkpt lat="50.82403" lon="1.59272">
        <ele>12.5</ele>
        <time>2015-04-07T16:26:06.000Z</time>
      </trkpt>
      <trkpt lat="50.82404" lon="1.59273">
        <ele>12.5</ele>
        <time>2015-04-07T16:26:07.000Z</time>
      </trkpt>
      <trkpt lat="50.82404" lon="1.59274">
        <ele>12.5</ele>
        <time>2015-04-07T16:26:08.000Z</time>
      </trkpt>
      <trkpt lat="50.82404" lon="1.59275">
        <ele>12.6</ele>
        <time>2015-04-07T16:26:09.000Z</time>
      </trkpt>
      <trkpt lat="50.82405" lon="1.59276">
        <ele>12.6</ele>
        <time>2015-04-07T16:26:10.000Z</time>
      </trkpt>
      <trkpt lat="50.82405" lon="1.59278">
        <ele>12.6</ele>
        <time>2015-04-07T16:26:11.000Z</time>
      </trkpt>
      <trkpt lat="50.82405" lon="1.59279">
        <ele>12.6</ele>
        <time>2015-04-07T16:26:12.000Z</time>
      </trkpt>
      <trkpt lat="50.82406" lon="1.5928">
        <ele>12.6</ele>
        <time>2015-04-07T16:26:13.000Z</time>
      </trkpt>
      <trkpt lat="50.82406" lon="1.59282">
        <ele>12.7</ele>
        <time>2015-04-07T16:26:14.000Z</time>
      </trkpt>
      <trkpt lat="50.82406" lon="1.59283">
        <ele>12.7</ele>
        <time>2015-04-07T16:26:15.000Z</time>
      </trkpt>
      <trkpt lat="50.82406" lon="1.59284">
        <ele>12.7</ele>
        <time>2015-04-07T16:26:16.000Z</time>
      </trkpt>
      <trkpt lat="50.82406" lon="1.59286">
        <ele>12.7</ele>
        <time>2015-04-07T16:26:17.000Z</time>
      </trkpt>
      <trkpt lat="50.82407" lon="1.59287">
        <ele>12.8</ele>
        <time>2015-04-07T16:26:18.000Z</time>
      </trkpt>
      <trkpt lat="50.82407" lon="1.59288">
        <ele>12.8</ele>
        <time>2015-04-07T16:26:19.000Z</time>
      </trkpt>
      <trkpt lat="50.82408" lon="1.5929">
        <ele>12.8</ele>
        <time>2015-04-07T16:26:20.000Z</time>
      </trkpt>
      <trkpt lat="50.82408" lon="1.59291">
        <ele>12.8</ele>
        <time>2015-04-07T16:26:21.000Z</time>
      </trkpt>
      <trkpt lat="50.82409" lon="1.59293">
        <ele>12.9</ele>
        <time>2015-04-07T16:26:22.000Z</time>
      </trkpt>
      <trkpt lat="50.82409" lon="1.59295">
        <ele>12.9</ele>
        <time>2015-04-07T16:26:23.000Z</time>
      </trkpt>
      <trkpt lat="50.8241" lon="1.59296">
        <ele>12.9</ele>
        <time>2015-04-07T16:26:24.000Z</time>
      </trkpt>
      <trkpt lat="50.8241" lon="1.59298">
        <ele>12.9</ele>
        <time>2015-04-07T16:26:25.000Z</time>
      </trkpt>
      <trkpt lat="50.82411" lon="1.593">
        <ele>13</ele>
        <time>2015-04-07T16:26:26.000Z</time>
      </trkpt>
      <trkpt lat="50.82412" lon="1.59301">
        <ele>13</ele>
        <time>2015-04-07T16:26:27.000Z</time>
      </trkpt>
      <trkpt lat="50.82412" lon="1.59303">
        <ele>13</ele>
        <time>2015-04-07T16:26:28.000Z</time>
      </trkpt>
      <trkpt lat="50.82413" lon="1.59305">
        <ele>13</ele>
        <time>2015-04-07T16:26:29.000Z</time>
      </trkpt>
      <trkpt lat="50.82413" lon="1.59306">
        <ele>13</ele>
        <time>2015-04-07T16:26:30.000Z</time>
      </trkpt>
      <trkpt lat="50.82413" lon="1.59308">
        <ele>13</ele>
        <time>2015-04-07T16:26:31.000Z</time>
      </trkpt>
      <trkpt lat="50.82414" lon="1.59309">
        <ele>13</ele>
        <time>2015-04-07T16:26:32.000Z</time>
      </trkpt>
      <trkpt lat="50.82414" lon="1.59311">
        <ele>13</ele>
        <time>2015-04-07T16:26:33.000Z</time>
      </trkpt>
      <trkpt lat="50.82414" lon="1.59313">
        <ele>13</ele>
        <time>2015-04-07T16:26:34.000Z</time>
      </trkpt>
      <trkpt lat="50.82415" lon="1.59314">
        <ele>13</ele>
        <time>2015-04-07T16:26:35.000Z</time>
      </trkpt>
      <trkpt lat="50.82415" lon="1.59316">
        <ele>13</ele>
        <time>2015-04-07T16:26:36.000Z</time>
      </trkpt>
      <trkpt lat="50.82415" lon="1.59318">
        <ele>13</ele>
        <time>2015-04-07T16:26:37.000Z</time>
      </trkpt>
      <trkpt lat="50.82416" lon="1.59319">
        <ele>13</ele>
        <time>2015-04-07T16:26:38.000Z</time>
      </trkpt>
      <trkpt lat="50.82416" lon="1.59321">
        <ele>13</ele>
        <time>2015-04-07T16:26:39.000Z</time>
      </trkpt>
      <trkpt lat="50.82416" lon="1.59323">
        <ele>13</ele>
        <time>2015-04-07T16:26:40.000Z</time>
      </trkpt>
      <trkpt lat="50.82416" lon="1.59325">
        <ele>13</ele>
        <time>2015-04-07T16:26:41.000Z</time>
      </trkpt>
      <trkpt lat="50.82416" lon="1.59327">
        <ele>13</ele>
        <time>2015-04-07T16:26:42.000Z</time>
      </trkpt>
      <trkpt lat="50.82416" lon="1.59328">
        <ele>13</ele>
        <time>2015-04-07T16:26:43.000Z</time>
      </trkpt>
      <trkpt lat="50.82416" lon="1.5933">
        <ele>13</ele>
        <time>2015-04-07T16:26:44.000Z</time>
      </trkpt>
      <trkpt lat="50.82416" lon="1.59332">
        <ele>13</ele>
        <time>2015-04-07T16:26:45.000Z</time>
      </trkpt>
      <trkpt lat="50.82416" lon="1.59335">
        <ele>13</ele>
        <time>2015-04-07T16:26:46.000Z</time>
      </trkpt>
      <trkpt lat="50.82417" lon="1.59337">
        <ele>13</ele>
        <time>2015-04-07T16:26:47.000Z</time>
      </trkpt>
      <trkpt lat="50.82417" lon="1.59339">
        <ele>13</ele>
        <time>2015-04-07T16:26:48.000Z</time>
      </trkpt>
      <trkpt lat="50.82417" lon="1.59341">
        <ele>13</ele>
        <time>2015-04-07T16:26:49.000Z</time>
      </trkpt>
      <trkpt lat="50.82417" lon="1.59343">
        <ele>13</ele>
        <time>2015-04-07T16:26:50.000Z</time>
      </trkpt>
      <trkpt lat="50.82417" lon="1.59345">
        <ele>13</ele>
        <time>2015-04-07T16:26:51.000Z</time>
      </trkpt>
      <trkpt lat="50.82417" lon="1.59347">
        <ele>13</ele>
        <time>2015-04-07T16:26:52.000Z</time>
      </trkpt>
      <trkpt lat="50.82417" lon="1.59349">
        <ele>13</ele>
        <time>2015-04-07T16:26:53.000Z</time>
      </trkpt>
      <trkpt lat="50.82417" lon="1.59351">
        <ele>13</ele>
        <time>2015-04-07T16:26:54.000Z</time>
      </trkpt>
      <trkpt lat="50.82417" lon="1.59353">
        <ele>13</ele>
        <time>2015-04-07T16:26:55.000Z</time>
      </trkpt>
      <trkpt lat="50.82418" lon="1.59354">
        <ele>13</ele>
        <time>2015-04-07T16:26:56.000Z</time>
      </trkpt>
      <trkpt lat="50.82418" lon="1.59356">
        <ele>13</ele>
        <time>2015-04-07T16:26:57.000Z</time>
      </trkpt>
      <trkpt lat="50.82418" lon="1.59358">
        <ele>13</ele>
        <time>2015-04-07T16:26:58.000Z</time>
      </trkpt>
      <trkpt lat="50.82418" lon="1.59359">
        <ele>13</ele>
        <time>2015-04-07T16:26:59.000Z</time>
      </trkpt>
      <trkpt lat="50.82418" lon="1.59361">
        <ele>13</ele>
        <time>2015-04-07T16:27:00.000Z</time>
      </trkpt>
      <trkpt lat="50.82418" lon="1.59363">
        <ele>13.1</ele>
        <time>2015-04-07T16:27:01.000Z</time>
      </trkpt>
      <trkpt lat="50.82418" lon="1.59364">
        <ele>13.1</ele>
        <time>2015-04-07T16:27:02.000Z</time>
      </trkpt>
      <trkpt lat="50.82418" lon="1.59366">
        <ele>13.1</ele>
        <time>2015-04-07T16:27:03.000Z</time>
      </trkpt>
      <trkpt lat="50.82419" lon="1.59367">
        <ele>13.1</ele>
        <time>2015-04-07T16:27:04.000Z</time>
      </trkpt>
      <trkpt lat="50.82419" lon="1.59369">
        <ele>13.1</ele>
        <time>2015-04-07T16:27:05.000Z</time>
      </trkpt>
      <trkpt lat="50.82419" lon="1.59371">
        <ele>13.1</ele>
        <time>2015-04-07T16:27:06.000Z</time>
      </trkpt>
      <trkpt lat="50.82419" lon="1.59372">
        <ele>13.1</ele>
        <time>2015-04-07T16:27:07.000Z</time>
      </trkpt>
      <trkpt lat="50.8242" lon="1.59374">
        <ele>13.1</ele>
        <time>2015-04-07T16:27:08.000Z</time>
      </trkpt>
      <trkpt lat="50.8242" lon="1.59376">
        <ele>13.1</ele>
        <time>2015-04-07T16:27:09.000Z</time>
      </trkpt>
      <trkpt lat="50.8242" lon="1.59378">
        <ele>13.1</ele>
        <time>2015-04-07T16:27:10.000Z</time>
      </trkpt>
      <trkpt lat="50.8242" lon="1.59379">
        <ele>13.1</ele>
        <time>2015-04-07T16:27:11.000Z</time>
      </trkpt>
      <trkpt lat="50.82421" lon="1.59381">
        <ele>13.1</ele>
        <time>2015-04-07T16:27:12.000Z</time>
      </trkpt>
      <trkpt lat="50.82421" lon="1.59383">
        <ele>13.2</ele>
        <time>2015-04-07T16:27:13.000Z</time>
      </trkpt>
      <trkpt lat="50.82421" lon="1.59385">
        <ele>13.2</ele>
        <time>2015-04-07T16:27:14.000Z</time>
      </trkpt>
      <trkpt lat="50.82421" lon="1.59387">
        <ele>13.2</ele>
        <time>2015-04-07T16:27:15.000Z</time>
      </trkpt>
      <trkpt lat="50.82422" lon="1.59389">
        <ele>13.2</ele>
        <time>2015-04-07T16:27:16.000Z</time>
      </trkpt>
      <trkpt lat="50.82422" lon="1.59391">
        <ele>13.2</ele>
        <time>2015-04-07T16:27:17.000Z</time>
      </trkpt>
      <trkpt lat="50.82422" lon="1.59392">
        <ele>13.2</ele>
        <time>2015-04-07T16:27:18.000Z</time>
      </trkpt>
      <trkpt lat="50.82423" lon="1.59394">
        <ele>13.2</ele>
        <time>2015-04-07T16:27:19.000Z</time>
      </trkpt>
      <trkpt lat="50.82423" lon="1.59396">
        <ele>13.2</ele>
        <time>2015-04-07T16:27:20.000Z</time>
      </trkpt>
      <trkpt lat="50.82424" lon="1.59398">
        <ele>13.3</ele>
        <time>2015-04-07T16:27:21.000Z</time>
      </trkpt>
      <trkpt lat="50.82424" lon="1.594">
        <ele>13.3</ele>
        <time>2015-04-07T16:27:22.000Z</time>
      </trkpt>
      <trkpt lat="50.82424" lon="1.59401">
        <ele>13.3</ele>
        <time>2015-04-07T16:27:23.000Z</time>
      </trkpt>
      <trkpt lat="50.82425" lon="1.59403">
        <ele>13.3</ele>
        <time>2015-04-07T16:27:24.000Z</time>
      </trkpt>
      <trkpt lat="50.82425" lon="1.59404">
        <ele>13.3</ele>
        <time>2015-04-07T16:27:25.000Z</time>
      </trkpt>
      <trkpt lat="50.82425" lon="1.59406">
        <ele>13.3</ele>
        <time>2015-04-07T16:27:26.000Z</time>
      </trkpt>
      <trkpt lat="50.82425" lon="1.59408">
        <ele>13.3</ele>
        <time>2015-04-07T16:27:27.000Z</time>
      </trkpt>
      <trkpt lat="50.82425" lon="1.5941">
        <ele>13.3</ele>
        <time>2015-04-07T16:27:28.000Z</time>
      </trkpt>
      <trkpt lat="50.82426" lon="1.59411">
        <ele>13.3</ele>
        <time>2015-04-07T16:27:29.000Z</time>
      </trkpt>
      <trkpt lat="50.82426" lon="1.59413">
        <ele>13.3</ele>
        <time>2015-04-07T16:27:30.000Z</time>
      </trkpt>
      <trkpt lat="50.82426" lon="1.59415">
        <ele>13.3</ele>
        <time>2015-04-07T16:27:31.000Z</time>
      </trkpt>
      <trkpt lat="50.82427" lon="1.59416">
        <ele>13.4</ele>
        <time>2015-04-07T16:27:32.000Z</time>
      </trkpt>
      <trkpt lat="50.82427" lon="1.59418">
        <ele>13.4</ele>
        <time>2015-04-07T16:27:33.000Z</time>
      </trkpt>
      <trkpt lat="50.82427" lon="1.5942">
        <ele>13.3</ele>
        <time>2015-04-07T16:27:34.000Z</time>
      </trkpt>
      <trkpt lat="50.82428" lon="1.59422">
        <ele>13.3</ele>
        <time>2015-04-07T16:27:35.000Z</time>
      </trkpt>
      <trkpt lat="50.82428" lon="1.59424">
        <ele>13.3</ele>
        <time>2015-04-07T16:27:36.000Z</time>
      </trkpt>
      <trkpt lat="50.82428" lon="1.59425">
        <ele>13.3</ele>
        <time>2015-04-07T16:27:37.000Z</time>
      </trkpt>
      <trkpt lat="50.82428" lon="1.59427">
        <ele>13.3</ele>
        <time>2015-04-07T16:27:38.000Z</time>
      </trkpt>
      <trkpt lat="50.82429" lon="1.59429">
        <ele>13.2</ele>
        <time>2015-04-07T16:27:39.000Z</time>
      </trkpt>
      <trkpt lat="50.82429" lon="1.59431">
        <ele>13.2</ele>
        <time>2015-04-07T16:27:40.000Z</time>
      </trkpt>
      <trkpt lat="50.82429" lon="1.59433">
        <ele>13.2</ele>
        <time>2015-04-07T16:27:41.000Z</time>
      </trkpt>
      <trkpt lat="50.8243" lon="1.59434">
        <ele>13.2</ele>
        <time>2015-04-07T16:27:42.000Z</time>
      </trkpt>
      <trkpt lat="50.8243" lon="1.59436">
        <ele>13.1</ele>
        <time>2015-04-07T16:27:43.000Z</time>
      </trkpt>
      <trkpt lat="50.8243" lon="1.59438">
        <ele>13.1</ele>
        <time>2015-04-07T16:27:44.000Z</time>
      </trkpt>
      <trkpt lat="50.82431" lon="1.59439">
        <ele>13.1</ele>
        <time>2015-04-07T16:27:45.000Z</time>
      </trkpt>
      <trkpt lat="50.82431" lon="1.59441">
        <ele>13.1</ele>
        <time>2015-04-07T16:27:46.000Z</time>
      </trkpt>
      <trkpt lat="50.82431" lon="1.59442">
        <ele>13</ele>
        <time>2015-04-07T16:27:47.000Z</time>
      </trkpt>
      <trkpt lat="50.82432" lon="1.59444">
        <ele>13</ele>
        <time>2015-04-07T16:27:48.000Z</time>
      </trkpt>
      <trkpt lat="50.82432" lon="1.59446">
        <ele>13</ele>
        <time>2015-04-07T16:27:49.000Z</time>
      </trkpt>
      <trkpt lat="50.82432" lon="1.59447">
        <ele>13</ele>
        <time>2015-04-07T16:27:50.000Z</time>
      </trkpt>
      <trkpt lat="50.82432" lon="1.59449">
        <ele>13</ele>
        <time>2015-04-07T16:27:51.000Z</time>
      </trkpt>
      <trkpt lat="50.82433" lon="1.5945">
        <ele>13</ele>
        <time>2015-04-07T16:27:52.000Z</time>
      </trkpt>
      <trkpt lat="50.82433" lon="1.59452">
        <ele>13</ele>
        <time>2015-04-07T16:27:53.000Z</time>
      </trkpt>
      <trkpt lat="50.82433" lon="1.59454">
        <ele>13</ele>
        <time>2015-04-07T16:27:54.000Z</time>
      </trkpt>
      <trkpt lat="50.82434" lon="1.59455">
        <ele>13</ele>
        <time>2015-04-07T16:27:55.000Z</time>
      </trkpt>
      <trkpt lat="50.82434" lon="1.59457">
        <ele>13</ele>
        <time>2015-04-07T16:27:56.000Z</time>
      </trkpt>
      <trkpt lat="50.82434" lon="1.59458">
        <ele>13</ele>
        <time>2015-04-07T16:27:57.000Z</time>
      </trkpt>
      <trkpt lat="50.82435" lon="1.5946">
        <ele>13</ele>
        <time>2015-04-07T16:27:58.000Z</time>
      </trkpt>
      <trkpt lat="50.82435" lon="1.59461">
        <ele>13</ele>
        <time>2015-04-07T16:27:59.000Z</time>
      </trkpt>
      <trkpt lat="50.82435" lon="1.59463">
        <ele>13</ele>
        <time>2015-04-07T16:28:00.000Z</time>
      </trkpt>
      <trkpt lat="50.82435" lon="1.59464">
        <ele>13</ele>
        <time>2015-04-07T16:28:01.000Z</time>
      </trkpt>
      <trkpt lat="50.82436" lon="1.59465">
        <ele>13</ele>
        <time>2015-04-07T16:28:02.000Z</time>
      </trkpt>
      <trkpt lat="50.82436" lon="1.59466">
        <ele>13</ele>
        <time>2015-04-07T16:28:03.000Z</time>
      </trkpt>
      <trkpt lat="50.82436" lon="1.59467">
        <ele>13</ele>
        <time>2015-04-07T16:28:04.000Z</time>
      </trkpt>
      <trkpt lat="50.82437" lon="1.59468">
        <ele>13</ele>
        <time>2015-04-07T16:28:05.000Z</time>
      </trkpt>
      <trkpt lat="50.82437" lon="1.59469">
        <ele>13</ele>
        <time>2015-04-07T16:28:06.000Z</time>
      </trkpt>
      <trkpt lat="50.82438" lon="1.5947">
        <ele>13</ele>
        <time>2015-04-07T16:28:07.000Z</time>
      </trkpt>
      <trkpt lat="50.82438" lon="1.59471">
        <ele>13</ele>
        <time>2015-04-07T16:28:08.000Z</time>
      </trkpt>
      <trkpt lat="50.82439" lon="1.59472">
        <ele>13</ele>
        <time>2015-04-07T16:28:09.000Z</time>
      </trkpt>
      <trkpt lat="50.8244" lon="1.59473">
        <ele>13</ele>
        <time>2015-04-07T16:28:10.000Z</time>
      </trkpt>
      <trkpt lat="50.8244" lon="1.59473">
        <ele>13</ele>
        <time>2015-04-07T16:28:11.000Z</time>
      </trkpt>
      <trkpt lat="50.82441" lon="1.59474">
        <ele>13.1</ele>
        <time>2015-04-07T16:28:12.000Z</time>
      </trkpt>
      <trkpt lat="50.82441" lon="1.59475">
        <ele>13.1</ele>
        <time>2015-04-07T16:28:13.000Z</time>
      </trkpt>
      <trkpt lat="50.82442" lon="1.59475">
        <ele>13.1</ele>
        <time>2015-04-07T16:28:14.000Z</time>
      </trkpt>
      <trkpt lat="50.82442" lon="1.59475">
        <ele>13.1</ele>
        <time>2015-04-07T16:28:15.000Z</time>
      </trkpt>
      <trkpt lat="50.82443" lon="1.59477">
        <ele>13.1</ele>
        <time>2015-04-07T16:28:16.000Z</time>
      </trkpt>
      <trkpt lat="50.82443" lon="1.59477">
        <ele>13.1</ele>
        <time>2015-04-07T16:28:17.000Z</time>
      </trkpt>
      <trkpt lat="50.82443" lon="1.59477">
        <ele>13.2</ele>
        <time>2015-04-07T16:28:18.000Z</time>
      </trkpt>
      <trkpt lat="50.82443" lon="1.59477">
        <ele>13.2</ele>
        <time>2015-04-07T16:28:19.000Z</time>
      </trkpt>
      <trkpt lat="50.82443" lon="1.59477">
        <ele>13.2</ele>
        <time>2015-04-07T16:28:20.000Z</time>
      </trkpt>
      <trkpt lat="50.82443" lon="1.59477">
        <ele>13.2</ele>
        <time>2015-04-07T16:28:21.000Z</time>
      </trkpt>
      <trkpt lat="50.82443" lon="1.59477">
        <ele>13.2</ele>
        <time>2015-04-07T16:28:22.000Z</time>
      </trkpt>
      <trkpt lat="50.82443" lon="1.59477">
        <ele>13.2</ele>
        <time>2015-04-07T16:28:23.000Z</time>
      </trkpt>
      <trkpt lat="50.82443" lon="1.59477">
        <ele>13.2</ele>
        <time>2015-04-07T16:28:24.000Z</time>
      </trkpt>
      <trkpt lat="50.82443" lon="1.59477">
        <ele>13.2</ele>
        <time>2015-04-07T16:28:25.000Z</time>
      </trkpt>
      <trkpt lat="50.82443" lon="1.59477">
        <ele>13.2</ele>
        <time>2015-04-07T16:28:26.000Z</time>
      </trkpt>
      <trkpt lat="50.82443" lon="1.59477">
        <ele>13.2</ele>
        <time>2015-04-07T16:28:27.000Z</time>
      </trkpt>
      <trkpt lat="50.82443" lon="1.59477">
        <ele>13.2</ele>
        <time>2015-04-07T16:28:28.000Z</time>
      </trkpt>
      <trkpt lat="50.82443" lon="1.59477">
        <ele>13.2</ele>
        <time>2015-04-07T16:28:29.000Z</time>
      </trkpt>
      <trkpt lat="50.82442" lon="1.59478">
        <ele>13.2</ele>
        <time>2015-04-07T16:28:30.000Z</time>
      </trkpt>
      <trkpt lat="50.82442" lon="1.59478">
        <ele>13.2</ele>
        <time>2015-04-07T16:28:31.000Z</time>
      </trkpt>
      <trkpt lat="50.82442" lon="1.59479">
        <ele>13.2</ele>
        <time>2015-04-07T16:28:32.000Z</time>
      </trkpt>
      <trkpt lat="50.82441" lon="1.59479">
        <ele>13.2</ele>
        <time>2015-04-07T16:28:33.000Z</time>
      </trkpt>
      <trkpt lat="50.82441" lon="1.5948">
        <ele>13.2</ele>
        <time>2015-04-07T16:28:34.000Z</time>
      </trkpt>
      <trkpt lat="50.8244" lon="1.59481">
        <ele>13.3</ele>
        <time>2015-04-07T16:28:35.000Z</time>
      </trkpt>
      <trkpt lat="50.82439" lon="1.59481">
        <ele>13.3</ele>
        <time>2015-04-07T16:28:36.000Z</time>
      </trkpt>
      <trkpt lat="50.82439" lon="1.59481">
        <ele>13.3</ele>
        <time>2015-04-07T16:28:37.000Z</time>
      </trkpt>
      <trkpt lat="50.82438" lon="1.5948">
        <ele>13.2</ele>
        <time>2015-04-07T16:28:38.000Z</time>
      </trkpt>
      <trkpt lat="50.82438" lon="1.5948">
        <ele>13.2</ele>
        <time>2015-04-07T16:28:39.000Z</time>
      </trkpt>
      <trkpt lat="50.82438" lon="1.5948">
        <ele>13.2</ele>
        <time>2015-04-07T16:28:40.000Z</time>
      </trkpt>
      <trkpt lat="50.82438" lon="1.5948">
        <ele>13.2</ele>
        <time>2015-04-07T16:28:41.000Z</time>
      </trkpt>
      <trkpt lat="50.82438" lon="1.5948">
        <ele>13.2</ele>
        <time>2015-04-07T16:28:42.000Z</time>
      </trkpt>
      <trkpt lat="50.82438" lon="1.5948">
        <ele>13.2</ele>
        <time>2015-04-07T16:28:43.000Z</time>
      </trkpt>
      <trkpt lat="50.82438" lon="1.5948">
        <ele>13.2</ele>
        <time>2015-04-07T16:28:44.000Z</time>
      </trkpt>
      <trkpt lat="50.82438" lon="1.5948">
        <ele>13.2</ele>
        <time>2015-04-07T16:28:45.000Z</time>
      </trkpt>
      <trkpt lat="50.82438" lon="1.5948">
        <ele>13.2</ele>
        <time>2015-04-07T16:28:46.000Z</time>
      </trkpt>
      <trkpt lat="50.82438" lon="1.59481">
        <ele>13.2</ele>
        <time>2015-04-07T16:28:47.000Z</time>
      </trkpt>
      <trkpt lat="50.82438" lon="1.59481">
        <ele>13.2</ele>
        <time>2015-04-07T16:28:48.000Z</time>
      </trkpt>
      <trkpt lat="50.82439" lon="1.59481">
        <ele>13.2</ele>
        <time>2015-04-07T16:28:49.000Z</time>
      </trkpt>
      <trkpt lat="50.82439" lon="1.59481">
        <ele>13.2</ele>
        <time>2015-04-07T16:28:50.000Z</time>
      </trkpt>
      <trkpt lat="50.82439" lon="1.59481">
        <ele>13.2</ele>
        <time>2015-04-07T16:28:51.000Z</time>
      </trkpt>
      <trkpt lat="50.82439" lon="1.59481">
        <ele>13.2</ele>
        <time>2015-04-07T16:28:52.000Z</time>
      </trkpt>
      <trkpt lat="50.82439" lon="1.59481">
        <ele>13.2</ele>
        <time>2015-04-07T16:28:53.000Z</time>
      </trkpt>
      <trkpt lat="50.82439" lon="1.59481">
        <ele>13.2</ele>
        <time>2015-04-07T16:28:54.000Z</time>
      </trkpt>
      <trkpt lat="50.82439" lon="1.59481">
        <ele>13.2</ele>
        <time>2015-04-07T16:28:55.000Z</time>
      </trkpt>
      <trkpt lat="50.82439" lon="1.59481">
        <ele>13.2</ele>
        <time>2015-04-07T16:28:56.000Z</time>
      </trkpt>
      <trkpt lat="50.82439" lon="1.59481">
        <ele>13.2</ele>
        <time>2015-04-07T16:28:57.000Z</time>
      </trkpt>
      <trkpt lat="50.82439" lon="1.59481">
        <ele>13.2</ele>
        <time>2015-04-07T16:28:58.000Z</time>
      </trkpt>
      <trkpt lat="50.82439" lon="1.59481">
        <ele>13.2</ele>
        <time>2015-04-07T16:28:59.000Z</time>
      </trkpt>
      <trkpt lat="50.82438" lon="1.59481">
        <ele>13.2</ele>
        <time>2015-04-07T16:29:00.000Z</time>
      </trkpt>
      <trkpt lat="50.82438" lon="1.5948">
        <ele>13.2</ele>
        <time>2015-04-07T16:29:01.000Z</time>
      </trkpt>
      <trkpt lat="50.82438" lon="1.5948">
        <ele>13.2</ele>
        <time>2015-04-07T16:29:02.000Z</time>
      </trkpt>
      <trkpt lat="50.82438" lon="1.5948">
        <ele>13.2</ele>
        <time>2015-04-07T16:29:03.000Z</time>
      </trkpt>
      <trkpt lat="50.82438" lon="1.5948">
        <ele>13.2</ele>
        <time>2015-04-07T16:29:04.000Z</time>
      </trkpt>
      <trkpt lat="50.82438" lon="1.5948">
        <ele>13.2</ele>
        <time>2015-04-07T16:29:05.000Z</time>
      </trkpt>
      <trkpt lat="50.82438" lon="1.5948">
        <ele>13.2</ele>
        <time>2015-04-07T16:29:06.000Z</time>
      </trkpt>
      <trkpt lat="50.82438" lon="1.5948">
        <ele>13.2</ele>
        <time>2015-04-07T16:29:07.000Z</time>
      </trkpt>
      <trkpt lat="50.82438" lon="1.5948">
        <ele>13.2</ele>
        <time>2015-04-07T16:29:08.000Z</time>
      </trkpt>
      <trkpt lat="50.82438" lon="1.5948">
        <ele>13.2</ele>
        <time>2015-04-07T16:29:09.000Z</time>
      </trkpt>
      <trkpt lat="50.82438" lon="1.5948">
        <ele>13.2</ele>
        <time>2015-04-07T16:29:10.000Z</time>
      </trkpt>
      <trkpt lat="50.82438" lon="1.5948">
        <ele>13.2</ele>
        <time>2015-04-07T16:29:11.000Z</time>
      </trkpt>
      <trkpt lat="50.82438" lon="1.5948">
        <ele>13.2</ele>
        <time>2015-04-07T16:29:12.000Z</time>
      </trkpt>
      <trkpt lat="50.82438" lon="1.5948">
        <ele>13.2</ele>
        <time>2015-04-07T16:29:13.000Z</time>
      </trkpt>
      <trkpt lat="50.82438" lon="1.5948">
        <ele>13.2</ele>
        <time>2015-04-07T16:29:14.000Z</time>
      </trkpt>
      <trkpt lat="50.82438" lon="1.5948">
        <ele>13.2</ele>
        <time>2015-04-07T16:29:15.000Z</time>
      </trkpt>
      <trkpt lat="50.82438" lon="1.5948">
        <ele>13.2</ele>
        <time>2015-04-07T16:29:16.000Z</time>
      </trkpt>
      <trkpt lat="50.82438" lon="1.5948">
        <ele>13.2</ele>
        <time>2015-04-07T16:29:17.000Z</time>
      </trkpt>
      <trkpt lat="50.82438" lon="1.5948">
        <ele>13.2</ele>
        <time>2015-04-07T16:29:18.000Z</time>
      </trkpt>
      <trkpt lat="50.82438" lon="1.5948">
        <ele>13.2</ele>
        <time>2015-04-07T16:29:19.000Z</time>
      </trkpt>
      <trkpt lat="50.82438" lon="1.5948">
        <ele>13.2</ele>
        <time>2015-04-07T16:29:20.000Z</time>
      </trkpt>
      <trkpt lat="50.82438" lon="1.5948">
        <ele>13.2</ele>
        <time>2015-04-07T16:29:21.000Z</time>
      </trkpt>
      <trkpt lat="50.82438" lon="1.5948">
        <ele>13.2</ele>
        <time>2015-04-07T16:29:22.000Z</time>
      </trkpt>
      <trkpt lat="50.82438" lon="1.5948">
        <ele>13.2</ele>
        <time>2015-04-07T16:29:23.000Z</time>
      </trkpt>
      <trkpt lat="50.82438" lon="1.5948">
        <ele>13.2</ele>
        <time>2015-04-07T16:29:24.000Z</time>
      </trkpt>
      <trkpt lat="50.82438" lon="1.5948">
        <ele>13.2</ele>
        <time>2015-04-07T16:29:25.000Z</time>
      </trkpt>
      <trkpt lat="50.82438" lon="1.5948">
        <ele>13.2</ele>
        <time>2015-04-07T16:29:26.000Z</time>
      </trkpt>
      <trkpt lat="50.82438" lon="1.5948">
        <ele>13.2</ele>
        <time>2015-04-07T16:29:27.000Z</time>
      </trkpt>
      <trkpt lat="50.82438" lon="1.5948">
        <ele>13.2</ele>
        <time>2015-04-07T16:29:28.000Z</time>
      </trkpt>
      <trkpt lat="50.82438" lon="1.59479">
        <ele>13.2</ele>
        <time>2015-04-07T16:29:29.000Z</time>
      </trkpt>
      <trkpt lat="50.82438" lon="1.59479">
        <ele>13.2</ele>
        <time>2015-04-07T16:29:30.000Z</time>
      </trkpt>
      <trkpt lat="50.82438" lon="1.59479">
        <ele>13.2</ele>
        <time>2015-04-07T16:29:31.000Z</time>
      </trkpt>
      <trkpt lat="50.82438" lon="1.59479">
        <ele>13.2</ele>
        <time>2015-04-07T16:29:32.000Z</time>
      </trkpt>
      <trkpt lat="50.82438" lon="1.59479">
        <ele>13.2</ele>
        <time>2015-04-07T16:29:33.000Z</time>
      </trkpt>
      <trkpt lat="50.82438" lon="1.59479">
        <ele>13.2</ele>
        <time>2015-04-07T16:29:34.000Z</time>
      </trkpt>
      <trkpt lat="50.82438" lon="1.59479">
        <ele>13.2</ele>
        <time>2015-04-07T16:29:35.000Z</time>
      </trkpt>
      <trkpt lat="50.82438" lon="1.59479">
        <ele>13.2</ele>
        <time>2015-04-07T16:29:36.000Z</time>
      </trkpt>
      <trkpt lat="50.82438" lon="1.59479">
        <ele>13.2</ele>
        <time>2015-04-07T16:29:37.000Z</time>
      </trkpt>
      <trkpt lat="50.82438" lon="1.59479">
        <ele>13.2</ele>
        <time>2015-04-07T16:29:38.000Z</time>
      </trkpt>
      <trkpt lat="50.82438" lon="1.59479">
        <ele>13.2</ele>
        <time>2015-04-07T16:29:39.000Z</time>
      </trkpt>
      <trkpt lat="50.82438" lon="1.59479">
        <ele>13.2</ele>
        <time>2015-04-07T16:29:40.000Z</time>
      </trkpt>
      <trkpt lat="50.82438" lon="1.59479">
        <ele>13.2</ele>
        <time>2015-04-07T16:29:41.000Z</time>
      </trkpt>
      <trkpt lat="50.82438" lon="1.59479">
        <ele>13.2</ele>
        <time>2015-04-07T16:29:42.000Z</time>
      </trkpt>
      <trkpt lat="50.82438" lon="1.59479">
        <ele>13.2</ele>
        <time>2015-04-07T16:29:43.000Z</time>
      </trkpt>
      <trkpt lat="50.82438" lon="1.5948">
        <ele>13.2</ele>
        <time>2015-04-07T16:29:44.000Z</time>
      </trkpt>
      <trkpt lat="50.82438" lon="1.5948">
        <ele>13.2</ele>
        <time>2015-04-07T16:29:45.000Z</time>
      </trkpt>
      <trkpt lat="50.82437" lon="1.59479">
        <ele>13.2</ele>
        <time>2015-04-07T16:29:46.000Z</time>
      </trkpt>
      <trkpt lat="50.82438" lon="1.59479">
        <ele>13.2</ele>
        <time>2015-04-07T16:29:47.000Z</time>
      </trkpt>
      <trkpt lat="50.82438" lon="1.59479">
        <ele>13.2</ele>
        <time>2015-04-07T16:29:48.000Z</time>
      </trkpt>
      <trkpt lat="50.82438" lon="1.59479">
        <ele>13.2</ele>
        <time>2015-04-07T16:29:49.000Z</time>
      </trkpt>
      <trkpt lat="50.82438" lon="1.59479">
        <ele>13.2</ele>
        <time>2015-04-07T16:29:50.000Z</time>
      </trkpt>
      <trkpt lat="50.82438" lon="1.59479">
        <ele>13.2</ele>
        <time>2015-04-07T16:29:51.000Z</time>
      </trkpt>
      <trkpt lat="50.82438" lon="1.59479">
        <ele>13.2</ele>
        <time>2015-04-07T16:29:52.000Z</time>
      </trkpt>
      <trkpt lat="50.82438" lon="1.59479">
        <ele>13.2</ele>
        <time>2015-04-07T16:29:53.000Z</time>
      </trkpt>
      <trkpt lat="50.82438" lon="1.59479">
        <ele>13.2</ele>
        <time>2015-04-07T16:29:54.000Z</time>
      </trkpt>
      <trkpt lat="50.82438" lon="1.59479">
        <ele>13.2</ele>
        <time>2015-04-07T16:29:55.000Z</time>
      </trkpt>
      <trkpt lat="50.82438" lon="1.59479">
        <ele>13.2</ele>
        <time>2015-04-07T16:29:56.000Z</time>
      </trkpt>
      <trkpt lat="50.82438" lon="1.59479">
        <ele>13.2</ele>
        <time>2015-04-07T16:29:57.000Z</time>
      </trkpt>
      <trkpt lat="50.82438" lon="1.59479">
        <ele>13.2</ele>
        <time>2015-04-07T16:29:58.000Z</time>
      </trkpt>
      <trkpt lat="50.82438" lon="1.59479">
        <ele>13.2</ele>
        <time>2015-04-07T16:29:59.000Z</time>
      </trkpt>
      <trkpt lat="50.82438" lon="1.59479">
        <ele>13.2</ele>
        <time>2015-04-07T16:30:00.000Z</time>
      </trkpt>
      <trkpt lat="50.82438" lon="1.59479">
        <ele>13.2</ele>
        <time>2015-04-07T16:30:01.000Z</time>
      </trkpt>
      <trkpt lat="50.82438" lon="1.59479">
        <ele>13.2</ele>
        <time>2015-04-07T16:30:02.000Z</time>
      </trkpt>
      <trkpt lat="50.82438" lon="1.59479">
        <ele>13.2</ele>
        <time>2015-04-07T16:30:03.000Z</time>
      </trkpt>
      <trkpt lat="50.82438" lon="1.59479">
        <ele>13.2</ele>
        <time>2015-04-07T16:30:04.000Z</time>
      </trkpt>
      <trkpt lat="50.82438" lon="1.59479">
        <ele>13.2</ele>
        <time>2015-04-07T16:30:05.000Z</time>
      </trkpt>
      <trkpt lat="50.82438" lon="1.59479">
        <ele>13.2</ele>
        <time>2015-04-07T16:30:06.000Z</time>
      </trkpt>
      <trkpt lat="50.82438" lon="1.59479">
        <ele>13.2</ele>
        <time>2015-04-07T16:30:07.000Z</time>
      </trkpt>
      <trkpt lat="50.82438" lon="1.59479">
        <ele>13.2</ele>
        <time>2015-04-07T16:30:08.000Z</time>
      </trkpt>
      <trkpt lat="50.82438" lon="1.59479">
        <ele>13.2</ele>
        <time>2015-04-07T16:30:09.000Z</time>
      </trkpt>
      <trkpt lat="50.82438" lon="1.59479">
        <ele>13.2</ele>
        <time>2015-04-07T16:30:10.000Z</time>
      </trkpt>
      <trkpt lat="50.82438" lon="1.59479">
        <ele>13.2</ele>
        <time>2015-04-07T16:30:11.000Z</time>
      </trkpt>
      <trkpt lat="50.82438" lon="1.59479">
        <ele>13.2</ele>
        <time>2015-04-07T16:30:12.000Z</time>
      </trkpt>
      <trkpt lat="50.82438" lon="1.59479">
        <ele>13.2</ele>
        <time>2015-04-07T16:30:13.000Z</time>
      </trkpt>
      <trkpt lat="50.82438" lon="1.59479">
        <ele>13.2</ele>
        <time>2015-04-07T16:30:14.000Z</time>
      </trkpt>
      <trkpt lat="50.82438" lon="1.59479">
        <ele>13.2</ele>
        <time>2015-04-07T16:30:15.000Z</time>
      </trkpt>
      <trkpt lat="50.82438" lon="1.59479">
        <ele>13.2</ele>
        <time>2015-04-07T16:30:16.000Z</time>
      </trkpt>
      <trkpt lat="50.82438" lon="1.59479">
        <ele>13.2</ele>
        <time>2015-04-07T16:30:17.000Z</time>
      </trkpt>
      <trkpt lat="50.82438" lon="1.59479">
        <ele>13.2</ele>
        <time>2015-04-07T16:30:18.000Z</time>
      </trkpt>
      <trkpt lat="50.82438" lon="1.59479">
        <ele>13.2</ele>
        <time>2015-04-07T16:30:19.000Z</time>
      </trkpt>
      <trkpt lat="50.82438" lon="1.59479">
        <ele>13.2</ele>
        <time>2015-04-07T16:30:20.000Z</time>
      </trkpt>
      <trkpt lat="50.82438" lon="1.59479">
        <ele>13.2</ele>
        <time>2015-04-07T16:30:21.000Z</time>
      </trkpt>
      <trkpt lat="50.82438" lon="1.59479">
        <ele>13.2</ele>
        <time>2015-04-07T16:30:22.000Z</time>
      </trkpt>
      <trkpt lat="50.82438" lon="1.59479">
        <ele>13.2</ele>
        <time>2015-04-07T16:30:23.000Z</time>
      </trkpt>
      <trkpt lat="50.82438" lon="1.59479">
        <ele>13.2</ele>
        <time>2015-04-07T16:30:24.000Z</time>
      </trkpt>
      <trkpt lat="50.82438" lon="1.59479">
        <ele>13.2</ele>
        <time>2015-04-07T16:30:25.000Z</time>
      </trkpt>
      <trkpt lat="50.82438" lon="1.59479">
        <ele>13.2</ele>
        <time>2015-04-07T16:30:26.000Z</time>
      </trkpt>
      <trkpt lat="50.82438" lon="1.59479">
        <ele>13.2</ele>
        <time>2015-04-07T16:30:27.000Z</time>
      </trkpt>
      <trkpt lat="50.82438" lon="1.59479">
        <ele>13.2</ele>
        <time>2015-04-07T16:30:28.000Z</time>
      </trkpt>
      <trkpt lat="50.82438" lon="1.59479">
        <ele>13.2</ele>
        <time>2015-04-07T16:30:29.000Z</time>
      </trkpt>
      <trkpt lat="50.82438" lon="1.59479">
        <ele>13.2</ele>
        <time>2015-04-07T16:30:30.000Z</time>
      </trkpt>
      <trkpt lat="50.82438" lon="1.59479">
        <ele>13.2</ele>
        <time>2015-04-07T16:30:31.000Z</time>
      </trkpt>
      <trkpt lat="50.82438" lon="1.59479">
        <ele>13.2</ele>
        <time>2015-04-07T16:30:32.000Z</time>
      </trkpt>
      <trkpt lat="50.82438" lon="1.59479">
        <ele>13.2</ele>
        <time>2015-04-07T16:30:33.000Z</time>
      </trkpt>
      <trkpt lat="50.82438" lon="1.59479">
        <ele>13.2</ele>
        <time>2015-04-07T16:30:34.000Z</time>
      </trkpt>
      <trkpt lat="50.82438" lon="1.59479">
        <ele>13.2</ele>
        <time>2015-04-07T16:30:35.000Z</time>
      </trkpt>
      <trkpt lat="50.82438" lon="1.59479">
        <ele>13.2</ele>
        <time>2015-04-07T16:30:36.000Z</time>
      </trkpt>
      <trkpt lat="50.82438" lon="1.59479">
        <ele>13.2</ele>
        <time>2015-04-07T16:30:37.000Z</time>
      </trkpt>
      <trkpt lat="50.82438" lon="1.59479">
        <ele>13.2</ele>
        <time>2015-04-07T16:30:38.000Z</time>
      </trkpt>
      <trkpt lat="50.82438" lon="1.59479">
        <ele>13.2</ele>
        <time>2015-04-07T16:30:39.000Z</time>
      </trkpt>
      <trkpt lat="50.82438" lon="1.59479">
        <ele>13.2</ele>
        <time>2015-04-07T16:30:40.000Z</time>
      </trkpt>
      <trkpt lat="50.82438" lon="1.59479">
        <ele>13.2</ele>
        <time>2015-04-07T16:30:41.000Z</time>
      </trkpt>
      <trkpt lat="50.82438" lon="1.59479">
        <ele>13.2</ele>
        <time>2015-04-07T16:30:42.000Z</time>
      </trkpt>
      <trkpt lat="50.82438" lon="1.59479">
        <ele>13.2</ele>
        <time>2015-04-07T16:30:43.000Z</time>
      </trkpt>
      <trkpt lat="50.82438" lon="1.59479">
        <ele>13.2</ele>
        <time>2015-04-07T16:30:44.000Z</time>
      </trkpt>
      <trkpt lat="50.82438" lon="1.59479">
        <ele>13.2</ele>
        <time>2015-04-07T16:30:45.000Z</time>
      </trkpt>
      <trkpt lat="50.82438" lon="1.59479">
        <ele>13.2</ele>
        <time>2015-04-07T16:30:46.000Z</time>
      </trkpt>
      <trkpt lat="50.82438" lon="1.59479">
        <ele>13.2</ele>
        <time>2015-04-07T16:30:47.000Z</time>
      </trkpt>
      <trkpt lat="50.82437" lon="1.59479">
        <ele>13.2</ele>
        <time>2015-04-07T16:30:48.000Z</time>
      </trkpt>
      <trkpt lat="50.82437" lon="1.59479">
        <ele>13.2</ele>
        <time>2015-04-07T16:30:49.000Z</time>
      </trkpt>
      <trkpt lat="50.82437" lon="1.59479">
        <ele>13.2</ele>
        <time>2015-04-07T16:30:50.000Z</time>
      </trkpt>
      <trkpt lat="50.82437" lon="1.59479">
        <ele>13.2</ele>
        <time>2015-04-07T16:30:51.000Z</time>
      </trkpt>
      <trkpt lat="50.82437" lon="1.59479">
        <ele>13.2</ele>
        <time>2015-04-07T16:30:52.000Z</time>
      </trkpt>
      <trkpt lat="50.82437" lon="1.59479">
        <ele>13.2</ele>
        <time>2015-04-07T16:30:53.000Z</time>
      </trkpt>
      <trkpt lat="50.82437" lon="1.5948">
        <ele>13.2</ele>
        <time>2015-04-07T16:30:54.000Z</time>
      </trkpt>
      <trkpt lat="50.82437" lon="1.5948">
        <ele>13.2</ele>
        <time>2015-04-07T16:30:55.000Z</time>
      </trkpt>
      <trkpt lat="50.82437" lon="1.5948">
        <ele>13.2</ele>
        <time>2015-04-07T16:30:56.000Z</time>
      </trkpt>
      <trkpt lat="50.82437" lon="1.5948">
        <ele>13.2</ele>
        <time>2015-04-07T16:30:57.000Z</time>
      </trkpt>
      <trkpt lat="50.82437" lon="1.5948">
        <ele>13.2</ele>
        <time>2015-04-07T16:30:58.000Z</time>
      </trkpt>
      <trkpt lat="50.82437" lon="1.5948">
        <ele>13.2</ele>
        <time>2015-04-07T16:30:59.000Z</time>
      </trkpt>
      <trkpt lat="50.82437" lon="1.5948">
        <ele>13.2</ele>
        <time>2015-04-07T16:31:00.000Z</time>
      </trkpt>
      <trkpt lat="50.82437" lon="1.5948">
        <ele>13.2</ele>
        <time>2015-04-07T16:31:01.000Z</time>
      </trkpt>
      <trkpt lat="50.82437" lon="1.5948">
        <ele>13.2</ele>
        <time>2015-04-07T16:31:02.000Z</time>
      </trkpt>
      <trkpt lat="50.82437" lon="1.5948">
        <ele>13.2</ele>
        <time>2015-04-07T16:31:03.000Z</time>
      </trkpt>
      <trkpt lat="50.82437" lon="1.5948">
        <ele>13.2</ele>
        <time>2015-04-07T16:31:04.000Z</time>
      </trkpt>
      <trkpt lat="50.82437" lon="1.5948">
        <ele>13.2</ele>
        <time>2015-04-07T16:31:05.000Z</time>
      </trkpt>
      <trkpt lat="50.82437" lon="1.5948">
        <ele>13.2</ele>
        <time>2015-04-07T16:31:06.000Z</time>
      </trkpt>
      <trkpt lat="50.82437" lon="1.5948">
        <ele>13.2</ele>
        <time>2015-04-07T16:31:07.000Z</time>
      </trkpt>
      <trkpt lat="50.82437" lon="1.5948">
        <ele>13.2</ele>
        <time>2015-04-07T16:31:08.000Z</time>
      </trkpt>
      <trkpt lat="50.82437" lon="1.5948">
        <ele>13.2</ele>
        <time>2015-04-07T16:31:09.000Z</time>
      </trkpt>
      <trkpt lat="50.82437" lon="1.5948">
        <ele>13.2</ele>
        <time>2015-04-07T16:31:10.000Z</time>
      </trkpt>
      <trkpt lat="50.82437" lon="1.5948">
        <ele>13.2</ele>
        <time>2015-04-07T16:31:11.000Z</time>
      </trkpt>
      <trkpt lat="50.82437" lon="1.5948">
        <ele>13.2</ele>
        <time>2015-04-07T16:31:12.000Z</time>
      </trkpt>
      <trkpt lat="50.82437" lon="1.5948">
        <ele>13.2</ele>
        <time>2015-04-07T16:31:13.000Z</time>
      </trkpt>
      <trkpt lat="50.82437" lon="1.5948">
        <ele>13.2</ele>
        <time>2015-04-07T16:31:14.000Z</time>
      </trkpt>
      <trkpt lat="50.82437" lon="1.5948">
        <ele>13.2</ele>
        <time>2015-04-07T16:31:15.000Z</time>
      </trkpt>
      <trkpt lat="50.82437" lon="1.5948">
        <ele>13.2</ele>
        <time>2015-04-07T16:31:16.000Z</time>
      </trkpt>
      <trkpt lat="50.82437" lon="1.5948">
        <ele>13.2</ele>
        <time>2015-04-07T16:31:17.000Z</time>
      </trkpt>
      <trkpt lat="50.82437" lon="1.5948">
        <ele>13.2</ele>
        <time>2015-04-07T16:31:18.000Z</time>
      </trkpt>
      <trkpt lat="50.82437" lon="1.5948">
        <ele>13.2</ele>
        <time>2015-04-07T16:31:19.000Z</time>
      </trkpt>
      <trkpt lat="50.82437" lon="1.5948">
        <ele>13.2</ele>
        <time>2015-04-07T16:31:20.000Z</time>
      </trkpt>
      <trkpt lat="50.82436" lon="1.5948">
        <ele>13.2</ele>
        <time>2015-04-07T16:31:21.000Z</time>
      </trkpt>
      <trkpt lat="50.82436" lon="1.5948">
        <ele>13.2</ele>
        <time>2015-04-07T16:31:22.000Z</time>
      </trkpt>
      <trkpt lat="50.82436" lon="1.59479">
        <ele>13.2</ele>
        <time>2015-04-07T16:31:23.000Z</time>
      </trkpt>
      <trkpt lat="50.82436" lon="1.59479">
        <ele>13.2</ele>
        <time>2015-04-07T16:31:24.000Z</time>
      </trkpt>
      <trkpt lat="50.82436" lon="1.59479">
        <ele>13.2</ele>
        <time>2015-04-07T16:31:25.000Z</time>
      </trkpt>
      <trkpt lat="50.82436" lon="1.59479">
        <ele>13.2</ele>
        <time>2015-04-07T16:31:26.000Z</time>
      </trkpt>
      <trkpt lat="50.82436" lon="1.59479">
        <ele>13.2</ele>
        <time>2015-04-07T16:31:27.000Z</time>
      </trkpt>
      <trkpt lat="50.82436" lon="1.59479">
        <ele>13.2</ele>
        <time>2015-04-07T16:31:28.000Z</time>
      </trkpt>
      <trkpt lat="50.82436" lon="1.59479">
        <ele>13.2</ele>
        <time>2015-04-07T16:31:29.000Z</time>
      </trkpt>
      <trkpt lat="50.82436" lon="1.59479">
        <ele>13.2</ele>
        <time>2015-04-07T16:31:30.000Z</time>
      </trkpt>
      <trkpt lat="50.82436" lon="1.59479">
        <ele>13.2</ele>
        <time>2015-04-07T16:31:31.000Z</time>
      </trkpt>
      <trkpt lat="50.82436" lon="1.59479">
        <ele>13.2</ele>
        <time>2015-04-07T16:31:32.000Z</time>
      </trkpt>
      <trkpt lat="50.82436" lon="1.59479">
        <ele>13.2</ele>
        <time>2015-04-07T16:31:33.000Z</time>
      </trkpt>
      <trkpt lat="50.82436" lon="1.59479">
        <ele>13.2</ele>
        <time>2015-04-07T16:31:34.000Z</time>
      </trkpt>
      <trkpt lat="50.82436" lon="1.5948">
        <ele>13.2</ele>
        <time>2015-04-07T16:31:35.000Z</time>
      </trkpt>
      <trkpt lat="50.82436" lon="1.5948">
        <ele>13.2</ele>
        <time>2015-04-07T16:31:36.000Z</time>
      </trkpt>
      <trkpt lat="50.82436" lon="1.5948">
        <ele>13.2</ele>
        <time>2015-04-07T16:31:37.000Z</time>
      </trkpt>
      <trkpt lat="50.82436" lon="1.5948">
        <ele>13.2</ele>
        <time>2015-04-07T16:31:38.000Z</time>
      </trkpt>
      <trkpt lat="50.82436" lon="1.5948">
        <ele>13.2</ele>
        <time>2015-04-07T16:31:39.000Z</time>
      </trkpt>
      <trkpt lat="50.82436" lon="1.5948">
        <ele>13.2</ele>
        <time>2015-04-07T16:31:40.000Z</time>
      </trkpt>
      <trkpt lat="50.82436" lon="1.5948">
        <ele>13.2</ele>
        <time>2015-04-07T16:31:41.000Z</time>
      </trkpt>
      <trkpt lat="50.82436" lon="1.5948">
        <ele>13.2</ele>
        <time>2015-04-07T16:31:42.000Z</time>
      </trkpt>
      <trkpt lat="50.82436" lon="1.5948">
        <ele>13.2</ele>
        <time>2015-04-07T16:31:43.000Z</time>
      </trkpt>
      <trkpt lat="50.82436" lon="1.5948">
        <ele>13.2</ele>
        <time>2015-04-07T16:31:44.000Z</time>
      </trkpt>
      <trkpt lat="50.82436" lon="1.5948">
        <ele>13.2</ele>
        <time>2015-04-07T16:31:45.000Z</time>
      </trkpt>
      <trkpt lat="50.82436" lon="1.5948">
        <ele>13.2</ele>
        <time>2015-04-07T16:31:46.000Z</time>
      </trkpt>
      <trkpt lat="50.82436" lon="1.5948">
        <ele>13.2</ele>
        <time>2015-04-07T16:31:47.000Z</time>
      </trkpt>
      <trkpt lat="50.82436" lon="1.5948">
        <ele>13.2</ele>
        <time>2015-04-07T16:31:48.000Z</time>
      </trkpt>
      <trkpt lat="50.82436" lon="1.5948">
        <ele>13.2</ele>
        <time>2015-04-07T16:31:49.000Z</time>
      </trkpt>
      <trkpt lat="50.82436" lon="1.5948">
        <ele>13.2</ele>
        <time>2015-04-07T16:31:50.000Z</time>
      </trkpt>
      <trkpt lat="50.82436" lon="1.5948">
        <ele>13.2</ele>
        <time>2015-04-07T16:31:51.000Z</time>
      </trkpt>
      <trkpt lat="50.82436" lon="1.5948">
        <ele>13.2</ele>
        <time>2015-04-07T16:31:52.000Z</time>
      </trkpt>
      <trkpt lat="50.82436" lon="1.5948">
        <ele>13.2</ele>
        <time>2015-04-07T16:31:53.000Z</time>
      </trkpt>
      <trkpt lat="50.82436" lon="1.5948">
        <ele>13.2</ele>
        <time>2015-04-07T16:31:54.000Z</time>
      </trkpt>
      <trkpt lat="50.82436" lon="1.5948">
        <ele>13.2</ele>
        <time>2015-04-07T16:31:55.000Z</time>
      </trkpt>
      <trkpt lat="50.82436" lon="1.5948">
        <ele>13.2</ele>
        <time>2015-04-07T16:31:56.000Z</time>
      </trkpt>
      <trkpt lat="50.82436" lon="1.5948">
        <ele>13.2</ele>
        <time>2015-04-07T16:31:57.000Z</time>
      </trkpt>
      <trkpt lat="50.82436" lon="1.5948">
        <ele>13.2</ele>
        <time>2015-04-07T16:31:58.000Z</time>
      </trkpt>
      <trkpt lat="50.82436" lon="1.5948">
        <ele>13.2</ele>
        <time>2015-04-07T16:31:59.000Z</time>
      </trkpt>
      <trkpt lat="50.82436" lon="1.5948">
        <ele>13.2</ele>
        <time>2015-04-07T16:32:00.000Z</time>
      </trkpt>
      <trkpt lat="50.82436" lon="1.5948">
        <ele>13.2</ele>
        <time>2015-04-07T16:32:01.000Z</time>
      </trkpt>
      <trkpt lat="50.82436" lon="1.5948">
        <ele>13.2</ele>
        <time>2015-04-07T16:32:02.000Z</time>
      </trkpt>
      <trkpt lat="50.82436" lon="1.5948">
        <ele>13.2</ele>
        <time>2015-04-07T16:32:03.000Z</time>
      </trkpt>
      <trkpt lat="50.82436" lon="1.5948">
        <ele>13.2</ele>
        <time>2015-04-07T16:32:04.000Z</time>
      </trkpt>
      <trkpt lat="50.82436" lon="1.5948">
        <ele>13.2</ele>
        <time>2015-04-07T16:32:05.000Z</time>
      </trkpt>
      <trkpt lat="50.82436" lon="1.5948">
        <ele>13.2</ele>
        <time>2015-04-07T16:32:06.000Z</time>
      </trkpt>
      <trkpt lat="50.82436" lon="1.5948">
        <ele>13.2</ele>
        <time>2015-04-07T16:32:07.000Z</time>
      </trkpt>
      <trkpt lat="50.82436" lon="1.5948">
        <ele>13.2</ele>
        <time>2015-04-07T16:32:08.000Z</time>
      </trkpt>
      <trkpt lat="50.82436" lon="1.5948">
        <ele>13.2</ele>
        <time>2015-04-07T16:32:09.000Z</time>
      </trkpt>
      <trkpt lat="50.82436" lon="1.5948">
        <ele>13.2</ele>
        <time>2015-04-07T16:32:10.000Z</time>
      </trkpt>
      <trkpt lat="50.82436" lon="1.5948">
        <ele>13.2</ele>
        <time>2015-04-07T16:32:11.000Z</time>
      </trkpt>
      <trkpt lat="50.82436" lon="1.5948">
        <ele>13.2</ele>
        <time>2015-04-07T16:32:12.000Z</time>
      </trkpt>
      <trkpt lat="50.82436" lon="1.5948">
        <ele>13.2</ele>
        <time>2015-04-07T16:32:13.000Z</time>
      </trkpt>
      <trkpt lat="50.82436" lon="1.5948">
        <ele>13.2</ele>
        <time>2015-04-07T16:32:14.000Z</time>
      </trkpt>
      <trkpt lat="50.82436" lon="1.5948">
        <ele>13.2</ele>
        <time>2015-04-07T16:32:15.000Z</time>
      </trkpt>
      <trkpt lat="50.82436" lon="1.5948">
        <ele>13.2</ele>
        <time>2015-04-07T16:32:16.000Z</time>
      </trkpt>
      <trkpt lat="50.82436" lon="1.5948">
        <ele>13.2</ele>
        <time>2015-04-07T16:32:17.000Z</time>
      </trkpt>
      <trkpt lat="50.82436" lon="1.5948">
        <ele>13.2</ele>
        <time>2015-04-07T16:32:18.000Z</time>
      </trkpt>
      <trkpt lat="50.82436" lon="1.5948">
        <ele>13.2</ele>
        <time>2015-04-07T16:32:19.000Z</time>
      </trkpt>
      <trkpt lat="50.82436" lon="1.5948">
        <ele>13.2</ele>
        <time>2015-04-07T16:32:20.000Z</time>
      </trkpt>
      <trkpt lat="50.82436" lon="1.5948">
        <ele>13.2</ele>
        <time>2015-04-07T16:32:21.000Z</time>
      </trkpt>
      <trkpt lat="50.82436" lon="1.5948">
        <ele>13.2</ele>
        <time>2015-04-07T16:32:22.000Z</time>
      </trkpt>
      <trkpt lat="50.82436" lon="1.5948">
        <ele>13.2</ele>
        <time>2015-04-07T16:32:23.000Z</time>
      </trkpt>
      <trkpt lat="50.82436" lon="1.5948">
        <ele>13.2</ele>
        <time>2015-04-07T16:32:24.000Z</time>
      </trkpt>
      <trkpt lat="50.82436" lon="1.5948">
        <ele>13.2</ele>
        <time>2015-04-07T16:32:25.000Z</time>
      </trkpt>
      <trkpt lat="50.82436" lon="1.5948">
        <ele>13.2</ele>
        <time>2015-04-07T16:32:26.000Z</time>
      </trkpt>
      <trkpt lat="50.82436" lon="1.5948">
        <ele>13.2</ele>
        <time>2015-04-07T16:32:27.000Z</time>
      </trkpt>
      <trkpt lat="50.82436" lon="1.5948">
        <ele>13.2</ele>
        <time>2015-04-07T16:32:28.000Z</time>
      </trkpt>
      <trkpt lat="50.82436" lon="1.5948">
        <ele>13.2</ele>
        <time>2015-04-07T16:32:29.000Z</time>
      </trkpt>
      <trkpt lat="50.82436" lon="1.5948">
        <ele>13.2</ele>
        <time>2015-04-07T16:32:30.000Z</time>
      </trkpt>
      <trkpt lat="50.82436" lon="1.59479">
        <ele>13.2</ele>
        <time>2015-04-07T16:32:31.000Z</time>
      </trkpt>
      <trkpt lat="50.82436" lon="1.59479">
        <ele>13.2</ele>
        <time>2015-04-07T16:32:32.000Z</time>
      </trkpt>
      <trkpt lat="50.82436" lon="1.59479">
        <ele>13.2</ele>
        <time>2015-04-07T16:32:33.000Z</time>
      </trkpt>
      <trkpt lat="50.82436" lon="1.59479">
        <ele>13.2</ele>
        <time>2015-04-07T16:32:34.000Z</time>
      </trkpt>
      <trkpt lat="50.82436" lon="1.59479">
        <ele>13.2</ele>
        <time>2015-04-07T16:32:35.000Z</time>
      </trkpt>
      <trkpt lat="50.82436" lon="1.59479">
        <ele>13.2</ele>
        <time>2015-04-07T16:32:36.000Z</time>
      </trkpt>
      <trkpt lat="50.82436" lon="1.59479">
        <ele>13.2</ele>
        <time>2015-04-07T16:32:37.000Z</time>
      </trkpt>
      <trkpt lat="50.82436" lon="1.59479">
        <ele>13.2</ele>
        <time>2015-04-07T16:32:38.000Z</time>
      </trkpt>
      <trkpt lat="50.82436" lon="1.59479">
        <ele>13.2</ele>
        <time>2015-04-07T16:32:39.000Z</time>
      </trkpt>
      <trkpt lat="50.82436" lon="1.59479">
        <ele>13.2</ele>
        <time>2015-04-07T16:32:40.000Z</time>
      </trkpt>
      <trkpt lat="50.82436" lon="1.59479">
        <ele>13.2</ele>
        <time>2015-04-07T16:32:41.000Z</time>
      </trkpt>
      <trkpt lat="50.82436" lon="1.59479">
        <ele>13.2</ele>
        <time>2015-04-07T16:32:42.000Z</time>
      </trkpt>
      <trkpt lat="50.82436" lon="1.59479">
        <ele>13.2</ele>
        <time>2015-04-07T16:32:43.000Z</time>
      </trkpt>
      <trkpt lat="50.82436" lon="1.59479">
        <ele>13.2</ele>
        <time>2015-04-07T16:32:44.000Z</time>
      </trkpt>
      <trkpt lat="50.82436" lon="1.59479">
        <ele>13.2</ele>
        <time>2015-04-07T16:32:45.000Z</time>
      </trkpt>
      <trkpt lat="50.82436" lon="1.59479">
        <ele>13.2</ele>
        <time>2015-04-07T16:32:46.000Z</time>
      </trkpt>
      <trkpt lat="50.82436" lon="1.59479">
        <ele>13.2</ele>
        <time>2015-04-07T16:32:47.000Z</time>
      </trkpt>
      <trkpt lat="50.82436" lon="1.59479">
        <ele>13.2</ele>
        <time>2015-04-07T16:32:48.000Z</time>
      </trkpt>
      <trkpt lat="50.82436" lon="1.59479">
        <ele>13.2</ele>
        <time>2015-04-07T16:32:49.000Z</time>
      </trkpt>
      <trkpt lat="50.82436" lon="1.59479">
        <ele>13.2</ele>
        <time>2015-04-07T16:32:50.000Z</time>
      </trkpt>
      <trkpt lat="50.82436" lon="1.59479">
        <ele>13.2</ele>
        <time>2015-04-07T16:32:51.000Z</time>
      </trkpt>
      <trkpt lat="50.82436" lon="1.59479">
        <ele>13.2</ele>
        <time>2015-04-07T16:32:52.000Z</time>
      </trkpt>
      <trkpt lat="50.82436" lon="1.59479">
        <ele>13.2</ele>
        <time>2015-04-07T16:32:53.000Z</time>
      </trkpt>
      <trkpt lat="50.82436" lon="1.59479">
        <ele>13.2</ele>
        <time>2015-04-07T16:32:54.000Z</time>
      </trkpt>
      <trkpt lat="50.82436" lon="1.59479">
        <ele>13.2</ele>
        <time>2015-04-07T16:32:55.000Z</time>
      </trkpt>
      <trkpt lat="50.82436" lon="1.59479">
        <ele>13.2</ele>
        <time>2015-04-07T16:32:56.000Z</time>
      </trkpt>
      <trkpt lat="50.82436" lon="1.59479">
        <ele>13.2</ele>
        <time>2015-04-07T16:32:57.000Z</time>
      </trkpt>
      <trkpt lat="50.82436" lon="1.59479">
        <ele>13.2</ele>
        <time>2015-04-07T16:32:58.000Z</time>
      </trkpt>
      <trkpt lat="50.82436" lon="1.59479">
        <ele>13.2</ele>
        <time>2015-04-07T16:32:59.000Z</time>
      </trkpt>
      <trkpt lat="50.82436" lon="1.59479">
        <ele>13.2</ele>
        <time>2015-04-07T16:33:00.000Z</time>
      </trkpt>
      <trkpt lat="50.82436" lon="1.59479">
        <ele>13.2</ele>
        <time>2015-04-07T16:33:01.000Z</time>
      </trkpt>
      <trkpt lat="50.82436" lon="1.59479">
        <ele>13.2</ele>
        <time>2015-04-07T16:33:02.000Z</time>
      </trkpt>
      <trkpt lat="50.82436" lon="1.59479">
        <ele>13.2</ele>
        <time>2015-04-07T16:33:03.000Z</time>
      </trkpt>
      <trkpt lat="50.82436" lon="1.59479">
        <ele>13.2</ele>
        <time>2015-04-07T16:33:04.000Z</time>
      </trkpt>
      <trkpt lat="50.82436" lon="1.59479">
        <ele>13.2</ele>
        <time>2015-04-07T16:33:05.000Z</time>
      </trkpt>
      <trkpt lat="50.82436" lon="1.59479">
        <ele>13.2</ele>
        <time>2015-04-07T16:33:06.000Z</time>
      </trkpt>
      <trkpt lat="50.82436" lon="1.59479">
        <ele>13.2</ele>
        <time>2015-04-07T16:33:07.000Z</time>
      </trkpt>
      <trkpt lat="50.82436" lon="1.59479">
        <ele>13.2</ele>
        <time>2015-04-07T16:33:08.000Z</time>
      </trkpt>
      <trkpt lat="50.82436" lon="1.59479">
        <ele>13.2</ele>
        <time>2015-04-07T16:33:09.000Z</time>
      </trkpt>
      <trkpt lat="50.82436" lon="1.59479">
        <ele>13.2</ele>
        <time>2015-04-07T16:33:10.000Z</time>
      </trkpt>
      <trkpt lat="50.82436" lon="1.59479">
        <ele>13.2</ele>
        <time>2015-04-07T16:33:11.000Z</time>
      </trkpt>
      <trkpt lat="50.82436" lon="1.59479">
        <ele>13.2</ele>
        <time>2015-04-07T16:33:12.000Z</time>
      </trkpt>
      <trkpt lat="50.82436" lon="1.59479">
        <ele>13.2</ele>
        <time>2015-04-07T16:33:13.000Z</time>
      </trkpt>
      <trkpt lat="50.82436" lon="1.59479">
        <ele>13.2</ele>
        <time>2015-04-07T16:33:14.000Z</time>
      </trkpt>
      <trkpt lat="50.82436" lon="1.59479">
        <ele>13.2</ele>
        <time>2015-04-07T16:33:15.000Z</time>
      </trkpt>
      <trkpt lat="50.82436" lon="1.59479">
        <ele>13.2</ele>
        <time>2015-04-07T16:33:16.000Z</time>
      </trkpt>
      <trkpt lat="50.82436" lon="1.59479">
        <ele>13.2</ele>
        <time>2015-04-07T16:33:17.000Z</time>
      </trkpt>
      <trkpt lat="50.82436" lon="1.59479">
        <ele>13.2</ele>
        <time>2015-04-07T16:33:18.000Z</time>
      </trkpt>
      <trkpt lat="50.82437" lon="1.59479">
        <ele>13.2</ele>
        <time>2015-04-07T16:33:19.000Z</time>
      </trkpt>
      <trkpt lat="50.82437" lon="1.59479">
        <ele>13.2</ele>
        <time>2015-04-07T16:33:20.000Z</time>
      </trkpt>
      <trkpt lat="50.82437" lon="1.59479">
        <ele>13.2</ele>
        <time>2015-04-07T16:33:21.000Z</time>
      </trkpt>
      <trkpt lat="50.82437" lon="1.59479">
        <ele>13.2</ele>
        <time>2015-04-07T16:33:22.000Z</time>
      </trkpt>
      <trkpt lat="50.82437" lon="1.59479">
        <ele>13.2</ele>
        <time>2015-04-07T16:33:23.000Z</time>
      </trkpt>
      <trkpt lat="50.82437" lon="1.59479">
        <ele>13.2</ele>
        <time>2015-04-07T16:33:24.000Z</time>
      </trkpt>
      <trkpt lat="50.82437" lon="1.59479">
        <ele>13.2</ele>
        <time>2015-04-07T16:33:25.000Z</time>
      </trkpt>
      <trkpt lat="50.82437" lon="1.59479">
        <ele>13.2</ele>
        <time>2015-04-07T16:33:26.000Z</time>
      </trkpt>
      <trkpt lat="50.82437" lon="1.59479">
        <ele>13.2</ele>
        <time>2015-04-07T16:33:27.000Z</time>
      </trkpt>
      <trkpt lat="50.82437" lon="1.59479">
        <ele>13.2</ele>
        <time>2015-04-07T16:33:28.000Z</time>
      </trkpt>
      <trkpt lat="50.82437" lon="1.59479">
        <ele>13.2</ele>
        <time>2015-04-07T16:33:29.000Z</time>
      </trkpt>
      <trkpt lat="50.82437" lon="1.59479">
        <ele>13.2</ele>
        <time>2015-04-07T16:33:30.000Z</time>
      </trkpt>
      <trkpt lat="50.82437" lon="1.59479">
        <ele>13.2</ele>
        <time>2015-04-07T16:33:31.000Z</time>
      </trkpt>
      <trkpt lat="50.82437" lon="1.59479">
        <ele>13.2</ele>
        <time>2015-04-07T16:33:32.000Z</time>
      </trkpt>
      <trkpt lat="50.82437" lon="1.59479">
        <ele>13.2</ele>
        <time>2015-04-07T16:33:33.000Z</time>
      </trkpt>
      <trkpt lat="50.82437" lon="1.59479">
        <ele>13.2</ele>
        <time>2015-04-07T16:33:34.000Z</time>
      </trkpt>
      <trkpt lat="50.82437" lon="1.59479">
        <ele>13.2</ele>
        <time>2015-04-07T16:33:35.000Z</time>
      </trkpt>
      <trkpt lat="50.82437" lon="1.59479">
        <ele>13.2</ele>
        <time>2015-04-07T16:33:36.000Z</time>
      </trkpt>
      <trkpt lat="50.82437" lon="1.59479">
        <ele>13.2</ele>
        <time>2015-04-07T16:33:37.000Z</time>
      </trkpt>
      <trkpt lat="50.82437" lon="1.59479">
        <ele>13.2</ele>
        <time>2015-04-07T16:33:38.000Z</time>
      </trkpt>
      <trkpt lat="50.82437" lon="1.59479">
        <ele>13.2</ele>
        <time>2015-04-07T16:33:39.000Z</time>
      </trkpt>
      <trkpt lat="50.82437" lon="1.59479">
        <ele>13.2</ele>
        <time>2015-04-07T16:33:40.000Z</time>
      </trkpt>
      <trkpt lat="50.82437" lon="1.59479">
        <ele>13.2</ele>
        <time>2015-04-07T16:33:41.000Z</time>
      </trkpt>
      <trkpt lat="50.82437" lon="1.59479">
        <ele>13.2</ele>
        <time>2015-04-07T16:33:42.000Z</time>
      </trkpt>
      <trkpt lat="50.82437" lon="1.59479">
        <ele>13.2</ele>
        <time>2015-04-07T16:33:43.000Z</time>
      </trkpt>
      <trkpt lat="50.82437" lon="1.59479">
        <ele>13.2</ele>
        <time>2015-04-07T16:33:44.000Z</time>
      </trkpt>
      <trkpt lat="50.82437" lon="1.59479">
        <ele>13.2</ele>
        <time>2015-04-07T16:33:45.000Z</time>
      </trkpt>
      <trkpt lat="50.82437" lon="1.59479">
        <ele>13.2</ele>
        <time>2015-04-07T16:33:46.000Z</time>
      </trkpt>
      <trkpt lat="50.82437" lon="1.59479">
        <ele>13.2</ele>
        <time>2015-04-07T16:33:47.000Z</time>
      </trkpt>
      <trkpt lat="50.82437" lon="1.59479">
        <ele>13.2</ele>
        <time>2015-04-07T16:33:48.000Z</time>
      </trkpt>
      <trkpt lat="50.82437" lon="1.59479">
        <ele>13.2</ele>
        <time>2015-04-07T16:33:49.000Z</time>
      </trkpt>
      <trkpt lat="50.82437" lon="1.59479">
        <ele>13.2</ele>
        <time>2015-04-07T16:33:50.000Z</time>
      </trkpt>
      <trkpt lat="50.82437" lon="1.59479">
        <ele>13.2</ele>
        <time>2015-04-07T16:33:51.000Z</time>
      </trkpt>
      <trkpt lat="50.82437" lon="1.59479">
        <ele>13.2</ele>
        <time>2015-04-07T16:33:52.000Z</time>
      </trkpt>
      <trkpt lat="50.82437" lon="1.59479">
        <ele>13.2</ele>
        <time>2015-04-07T16:33:53.000Z</time>
      </trkpt>
      <trkpt lat="50.82437" lon="1.59479">
        <ele>13.2</ele>
        <time>2015-04-07T16:33:54.000Z</time>
      </trkpt>
      <trkpt lat="50.82437" lon="1.59479">
        <ele>13.2</ele>
        <time>2015-04-07T16:33:55.000Z</time>
      </trkpt>
      <trkpt lat="50.82437" lon="1.59479">
        <ele>13.2</ele>
        <time>2015-04-07T16:33:56.000Z</time>
      </trkpt>
      <trkpt lat="50.82437" lon="1.59479">
        <ele>13.2</ele>
        <time>2015-04-07T16:33:57.000Z</time>
      </trkpt>
      <trkpt lat="50.82437" lon="1.59479">
        <ele>13.2</ele>
        <time>2015-04-07T16:33:58.000Z</time>
      </trkpt>
      <trkpt lat="50.82437" lon="1.5948">
        <ele>13.2</ele>
        <time>2015-04-07T16:33:59.000Z</time>
      </trkpt>
      <trkpt lat="50.82437" lon="1.5948">
        <ele>13.2</ele>
        <time>2015-04-07T16:34:00.000Z</time>
      </trkpt>
      <trkpt lat="50.82437" lon="1.5948">
        <ele>13.2</ele>
        <time>2015-04-07T16:34:01.000Z</time>
      </trkpt>
      <trkpt lat="50.82437" lon="1.5948">
        <ele>13.2</ele>
        <time>2015-04-07T16:34:02.000Z</time>
      </trkpt>
      <trkpt lat="50.82437" lon="1.5948">
        <ele>13.2</ele>
        <time>2015-04-07T16:34:03.000Z</time>
      </trkpt>
      <trkpt lat="50.82437" lon="1.5948">
        <ele>13.2</ele>
        <time>2015-04-07T16:34:04.000Z</time>
      </trkpt>
      <trkpt lat="50.82437" lon="1.5948">
        <ele>13.2</ele>
        <time>2015-04-07T16:34:05.000Z</time>
      </trkpt>
      <trkpt lat="50.82437" lon="1.59479">
        <ele>13.2</ele>
        <time>2015-04-07T16:34:06.000Z</time>
      </trkpt>
      <trkpt lat="50.82436" lon="1.59479">
        <ele>13.2</ele>
        <time>2015-04-07T16:34:07.000Z</time>
      </trkpt>
      <trkpt lat="50.82436" lon="1.59479">
        <ele>13.2</ele>
        <time>2015-04-07T16:34:08.000Z</time>
      </trkpt>
      <trkpt lat="50.82437" lon="1.5948">
        <ele>13.2</ele>
        <time>2015-04-07T16:34:09.000Z</time>
      </trkpt>
      <trkpt lat="50.82436" lon="1.5948">
        <ele>13.2</ele>
        <time>2015-04-07T16:34:10.000Z</time>
      </trkpt>
      <trkpt lat="50.82436" lon="1.5948">
        <ele>13.2</ele>
        <time>2015-04-07T16:34:11.000Z</time>
      </trkpt>
      <trkpt lat="50.82437" lon="1.5948">
        <ele>13.2</ele>
        <time>2015-04-07T16:34:12.000Z</time>
      </trkpt>
      <trkpt lat="50.82437" lon="1.5948">
        <ele>13.2</ele>
        <time>2015-04-07T16:34:13.000Z</time>
      </trkpt>
      <trkpt lat="50.82437" lon="1.5948">
        <ele>13.2</ele>
        <time>2015-04-07T16:34:14.000Z</time>
      </trkpt>
      <trkpt lat="50.82437" lon="1.5948">
        <ele>13.2</ele>
        <time>2015-04-07T16:34:15.000Z</time>
      </trkpt>
      <trkpt lat="50.82437" lon="1.5948">
        <ele>13.2</ele>
        <time>2015-04-07T16:34:16.000Z</time>
      </trkpt>
      <trkpt lat="50.82437" lon="1.5948">
        <ele>13.2</ele>
        <time>2015-04-07T16:34:17.000Z</time>
      </trkpt>
      <trkpt lat="50.82437" lon="1.5948">
        <ele>13.2</ele>
        <time>2015-04-07T16:34:18.000Z</time>
      </trkpt>
      <trkpt lat="50.82437" lon="1.5948">
        <ele>13.2</ele>
        <time>2015-04-07T16:34:19.000Z</time>
      </trkpt>
      <trkpt lat="50.82437" lon="1.5948">
        <ele>13.2</ele>
        <time>2015-04-07T16:34:20.000Z</time>
      </trkpt>
      <trkpt lat="50.82437" lon="1.5948">
        <ele>13.2</ele>
        <time>2015-04-07T16:34:21.000Z</time>
      </trkpt>
      <trkpt lat="50.82437" lon="1.5948">
        <ele>13.2</ele>
        <time>2015-04-07T16:34:22.000Z</time>
      </trkpt>
      <trkpt lat="50.82437" lon="1.5948">
        <ele>13.2</ele>
        <time>2015-04-07T16:34:23.000Z</time>
      </trkpt>
      <trkpt lat="50.82437" lon="1.5948">
        <ele>13.2</ele>
        <time>2015-04-07T16:34:24.000Z</time>
      </trkpt>
      <trkpt lat="50.82437" lon="1.5948">
        <ele>13.2</ele>
        <time>2015-04-07T16:34:25.000Z</time>
      </trkpt>
      <trkpt lat="50.82437" lon="1.5948">
        <ele>13.2</ele>
        <time>2015-04-07T16:34:26.000Z</time>
      </trkpt>
      <trkpt lat="50.82437" lon="1.5948">
        <ele>13.2</ele>
        <time>2015-04-07T16:34:27.000Z</time>
      </trkpt>
      <trkpt lat="50.82437" lon="1.5948">
        <ele>13.2</ele>
        <time>2015-04-07T16:34:28.000Z</time>
      </trkpt>
      <trkpt lat="50.82437" lon="1.5948">
        <ele>13.2</ele>
        <time>2015-04-07T16:34:29.000Z</time>
      </trkpt>
      <trkpt lat="50.82437" lon="1.5948">
        <ele>13.2</ele>
        <time>2015-04-07T16:34:30.000Z</time>
      </trkpt>
      <trkpt lat="50.82437" lon="1.5948">
        <ele>13.2</ele>
        <time>2015-04-07T16:34:31.000Z</time>
      </trkpt>
      <trkpt lat="50.82437" lon="1.5948">
        <ele>13.2</ele>
        <time>2015-04-07T16:34:32.000Z</time>
      </trkpt>
      <trkpt lat="50.82437" lon="1.5948">
        <ele>13.2</ele>
        <time>2015-04-07T16:34:33.000Z</time>
      </trkpt>
      <trkpt lat="50.82437" lon="1.5948">
        <ele>13.2</ele>
        <time>2015-04-07T16:34:34.000Z</time>
      </trkpt>
      <trkpt lat="50.82437" lon="1.5948">
        <ele>13.2</ele>
        <time>2015-04-07T16:34:35.000Z</time>
      </trkpt>
      <trkpt lat="50.82437" lon="1.5948">
        <ele>13.2</ele>
        <time>2015-04-07T16:34:36.000Z</time>
      </trkpt>
      <trkpt lat="50.82437" lon="1.5948">
        <ele>13.2</ele>
        <time>2015-04-07T16:34:37.000Z</time>
      </trkpt>
      <trkpt lat="50.82437" lon="1.5948">
        <ele>13.2</ele>
        <time>2015-04-07T16:34:38.000Z</time>
      </trkpt>
      <trkpt lat="50.82437" lon="1.5948">
        <ele>13.2</ele>
        <time>2015-04-07T16:34:39.000Z</time>
      </trkpt>
      <trkpt lat="50.82437" lon="1.5948">
        <ele>13.2</ele>
        <time>2015-04-07T16:34:40.000Z</time>
      </trkpt>
      <trkpt lat="50.82437" lon="1.59479">
        <ele>13.2</ele>
        <time>2015-04-07T16:34:41.000Z</time>
      </trkpt>
      <trkpt lat="50.82437" lon="1.59479">
        <ele>13.2</ele>
        <time>2015-04-07T16:34:42.000Z</time>
      </trkpt>
      <trkpt lat="50.82437" lon="1.59479">
        <ele>13.2</ele>
        <time>2015-04-07T16:34:43.000Z</time>
      </trkpt>
      <trkpt lat="50.82437" lon="1.59479">
        <ele>13.2</ele>
        <time>2015-04-07T16:34:44.000Z</time>
      </trkpt>
      <trkpt lat="50.82437" lon="1.59479">
        <ele>13.2</ele>
        <time>2015-04-07T16:34:45.000Z</time>
      </trkpt>
      <trkpt lat="50.82437" lon="1.59479">
        <ele>13.2</ele>
        <time>2015-04-07T16:34:46.000Z</time>
      </trkpt>
      <trkpt lat="50.82437" lon="1.59479">
        <ele>13.2</ele>
        <time>2015-04-07T16:34:47.000Z</time>
      </trkpt>
      <trkpt lat="50.82437" lon="1.59478">
        <ele>13.2</ele>
        <time>2015-04-07T16:34:48.000Z</time>
      </trkpt>
      <trkpt lat="50.82437" lon="1.59478">
        <ele>13.2</ele>
        <time>2015-04-07T16:34:49.000Z</time>
      </trkpt>
      <trkpt lat="50.82437" lon="1.59478">
        <ele>13.2</ele>
        <time>2015-04-07T16:34:50.000Z</time>
      </trkpt>
      <trkpt lat="50.82437" lon="1.59478">
        <ele>13.2</ele>
        <time>2015-04-07T16:34:51.000Z</time>
      </trkpt>
      <trkpt lat="50.82437" lon="1.59478">
        <ele>13.2</ele>
        <time>2015-04-07T16:34:52.000Z</time>
      </trkpt>
      <trkpt lat="50.82437" lon="1.59478">
        <ele>13.2</ele>
        <time>2015-04-07T16:34:53.000Z</time>
      </trkpt>
      <trkpt lat="50.82437" lon="1.59478">
        <ele>13.2</ele>
        <time>2015-04-07T16:34:54.000Z</time>
      </trkpt>
      <trkpt lat="50.82437" lon="1.59478">
        <ele>13.2</ele>
        <time>2015-04-07T16:34:55.000Z</time>
      </trkpt>
      <trkpt lat="50.82437" lon="1.59478">
        <ele>13.2</ele>
        <time>2015-04-07T16:34:56.000Z</time>
      </trkpt>
      <trkpt lat="50.82438" lon="1.59478">
        <ele>13.2</ele>
        <time>2015-04-07T16:34:57.000Z</time>
      </trkpt>
      <trkpt lat="50.82438" lon="1.59478">
        <ele>13.2</ele>
        <time>2015-04-07T16:34:58.000Z</time>
      </trkpt>
      <trkpt lat="50.82438" lon="1.59478">
        <ele>13.2</ele>
        <time>2015-04-07T16:34:59.000Z</time>
      </trkpt>
      <trkpt lat="50.82438" lon="1.59478">
        <ele>13.2</ele>
        <time>2015-04-07T16:35:00.000Z</time>
      </trkpt>
      <trkpt lat="50.82438" lon="1.59478">
        <ele>13.2</ele>
        <time>2015-04-07T16:35:01.000Z</time>
      </trkpt>
      <trkpt lat="50.82438" lon="1.59478">
        <ele>13.2</ele>
        <time>2015-04-07T16:35:02.000Z</time>
      </trkpt>
      <trkpt lat="50.82438" lon="1.59478">
        <ele>13.2</ele>
        <time>2015-04-07T16:35:03.000Z</time>
      </trkpt>
      <trkpt lat="50.82438" lon="1.59479">
        <ele>13.2</ele>
        <time>2015-04-07T16:35:04.000Z</time>
      </trkpt>
      <trkpt lat="50.82438" lon="1.59479">
        <ele>13.2</ele>
        <time>2015-04-07T16:35:05.000Z</time>
      </trkpt>
      <trkpt lat="50.82438" lon="1.59479">
        <ele>13.2</ele>
        <time>2015-04-07T16:35:06.000Z</time>
      </trkpt>
      <trkpt lat="50.82438" lon="1.59479">
        <ele>13.2</ele>
        <time>2015-04-07T16:35:07.000Z</time>
      </trkpt>
      <trkpt lat="50.82438" lon="1.59479">
        <ele>13.2</ele>
        <time>2015-04-07T16:35:08.000Z</time>
      </trkpt>
      <trkpt lat="50.82438" lon="1.5948">
        <ele>13.2</ele>
        <time>2015-04-07T16:35:09.000Z</time>
      </trkpt>
      <trkpt lat="50.82438" lon="1.5948">
        <ele>13.2</ele>
        <time>2015-04-07T16:35:10.000Z</time>
      </trkpt>
      <trkpt lat="50.82437" lon="1.59479">
        <ele>13.2</ele>
        <time>2015-04-07T16:35:11.000Z</time>
      </trkpt>
      <trkpt lat="50.82437" lon="1.59479">
        <ele>13.2</ele>
        <time>2015-04-07T16:35:12.000Z</time>
      </trkpt>
      <trkpt lat="50.82437" lon="1.59479">
        <ele>13.2</ele>
        <time>2015-04-07T16:35:13.000Z</time>
      </trkpt>
      <trkpt lat="50.82437" lon="1.59479">
        <ele>13.2</ele>
        <time>2015-04-07T16:35:14.000Z</time>
      </trkpt>
      <trkpt lat="50.82437" lon="1.59479">
        <ele>13.2</ele>
        <time>2015-04-07T16:35:15.000Z</time>
      </trkpt>
      <trkpt lat="50.82437" lon="1.59479">
        <ele>13.2</ele>
        <time>2015-04-07T16:35:16.000Z</time>
      </trkpt>
      <trkpt lat="50.82437" lon="1.59479">
        <ele>13.2</ele>
        <time>2015-04-07T16:35:17.000Z</time>
      </trkpt>
      <trkpt lat="50.82437" lon="1.59479">
        <ele>13.2</ele>
        <time>2015-04-07T16:35:18.000Z</time>
      </trkpt>
      <trkpt lat="50.82437" lon="1.5948">
        <ele>13.2</ele>
        <time>2015-04-07T16:35:19.000Z</time>
      </trkpt>
      <trkpt lat="50.82437" lon="1.5948">
        <ele>13.2</ele>
        <time>2015-04-07T16:35:20.000Z</time>
      </trkpt>
      <trkpt lat="50.82437" lon="1.59479">
        <ele>13.2</ele>
        <time>2015-04-07T16:35:21.000Z</time>
      </trkpt>
      <trkpt lat="50.82437" lon="1.59479">
        <ele>13.2</ele>
        <time>2015-04-07T16:35:22.000Z</time>
      </trkpt>
      <trkpt lat="50.82437" lon="1.59479">
        <ele>13.2</ele>
        <time>2015-04-07T16:35:23.000Z</time>
      </trkpt>
      <trkpt lat="50.82437" lon="1.59479">
        <ele>13.2</ele>
        <time>2015-04-07T16:35:24.000Z</time>
      </trkpt>
      <trkpt lat="50.82437" lon="1.59479">
        <ele>13.2</ele>
        <time>2015-04-07T16:35:25.000Z</time>
      </trkpt>
      <trkpt lat="50.82437" lon="1.59479">
        <ele>13.2</ele>
        <time>2015-04-07T16:35:26.000Z</time>
      </trkpt>
      <trkpt lat="50.82437" lon="1.59479">
        <ele>13.2</ele>
        <time>2015-04-07T16:35:27.000Z</time>
      </trkpt>
      <trkpt lat="50.82437" lon="1.59479">
        <ele>13.2</ele>
        <time>2015-04-07T16:35:28.000Z</time>
      </trkpt>
      <trkpt lat="50.82437" lon="1.59478">
        <ele>13.2</ele>
        <time>2015-04-07T16:35:29.000Z</time>
      </trkpt>
      <trkpt lat="50.82437" lon="1.59478">
        <ele>13.2</ele>
        <time>2015-04-07T16:35:30.000Z</time>
      </trkpt>
      <trkpt lat="50.82437" lon="1.59478">
        <ele>13.2</ele>
        <time>2015-04-07T16:35:31.000Z</time>
      </trkpt>
      <trkpt lat="50.82437" lon="1.59478">
        <ele>13.2</ele>
        <time>2015-04-07T16:35:32.000Z</time>
      </trkpt>
      <trkpt lat="50.82437" lon="1.59478">
        <ele>13.2</ele>
        <time>2015-04-07T16:35:33.000Z</time>
      </trkpt>
      <trkpt lat="50.82437" lon="1.59478">
        <ele>13.2</ele>
        <time>2015-04-07T16:35:34.000Z</time>
      </trkpt>
      <trkpt lat="50.82437" lon="1.59478">
        <ele>13.2</ele>
        <time>2015-04-07T16:35:35.000Z</time>
      </trkpt>
      <trkpt lat="50.82437" lon="1.59478">
        <ele>13.2</ele>
        <time>2015-04-07T16:35:36.000Z</time>
      </trkpt>
      <trkpt lat="50.82437" lon="1.59478">
        <ele>13.2</ele>
        <time>2015-04-07T16:35:37.000Z</time>
      </trkpt>
      <trkpt lat="50.82437" lon="1.59478">
        <ele>13.2</ele>
        <time>2015-04-07T16:35:38.000Z</time>
      </trkpt>
      <trkpt lat="50.82437" lon="1.59478">
        <ele>13.2</ele>
        <time>2015-04-07T16:35:39.000Z</time>
      </trkpt>
      <trkpt lat="50.82437" lon="1.59478">
        <ele>13.2</ele>
        <time>2015-04-07T16:35:40.000Z</time>
      </trkpt>
      <trkpt lat="50.82437" lon="1.59478">
        <ele>13.2</ele>
        <time>2015-04-07T16:35:41.000Z</time>
      </trkpt>
      <trkpt lat="50.82437" lon="1.59478">
        <ele>13.2</ele>
        <time>2015-04-07T16:35:42.000Z</time>
      </trkpt>
      <trkpt lat="50.82437" lon="1.59479">
        <ele>13.2</ele>
        <time>2015-04-07T16:35:43.000Z</time>
      </trkpt>
      <trkpt lat="50.82437" lon="1.59479">
        <ele>13.2</ele>
        <time>2015-04-07T16:35:44.000Z</time>
      </trkpt>
      <trkpt lat="50.82437" lon="1.59479">
        <ele>13.2</ele>
        <time>2015-04-07T16:35:45.000Z</time>
      </trkpt>
      <trkpt lat="50.82437" lon="1.59479">
        <ele>13.2</ele>
        <time>2015-04-07T16:35:46.000Z</time>
      </trkpt>
      <trkpt lat="50.82437" lon="1.59479">
        <ele>13.2</ele>
        <time>2015-04-07T16:35:47.000Z</time>
      </trkpt>
      <trkpt lat="50.82437" lon="1.59479">
        <ele>13.2</ele>
        <time>2015-04-07T16:35:48.000Z</time>
      </trkpt>
      <trkpt lat="50.82437" lon="1.59479">
        <ele>13.2</ele>
        <time>2015-04-07T16:35:49.000Z</time>
      </trkpt>
      <trkpt lat="50.82437" lon="1.59479">
        <ele>13.2</ele>
        <time>2015-04-07T16:35:50.000Z</time>
      </trkpt>
      <trkpt lat="50.82437" lon="1.59479">
        <ele>13.2</ele>
        <time>2015-04-07T16:35:51.000Z</time>
      </trkpt>
      <trkpt lat="50.82437" lon="1.59479">
        <ele>13.2</ele>
        <time>2015-04-07T16:35:52.000Z</time>
      </trkpt>
      <trkpt lat="50.82437" lon="1.59479">
        <ele>13.2</ele>
        <time>2015-04-07T16:35:53.000Z</time>
      </trkpt>
      <trkpt lat="50.82436" lon="1.59479">
        <ele>13.2</ele>
        <time>2015-04-07T16:35:54.000Z</time>
      </trkpt>
      <trkpt lat="50.82436" lon="1.59479">
        <ele>13.2</ele>
        <time>2015-04-07T16:35:55.000Z</time>
      </trkpt>
      <trkpt lat="50.82436" lon="1.59479">
        <ele>13.2</ele>
        <time>2015-04-07T16:35:56.000Z</time>
      </trkpt>
      <trkpt lat="50.82436" lon="1.59479">
        <ele>13.2</ele>
        <time>2015-04-07T16:35:57.000Z</time>
      </trkpt>
      <trkpt lat="50.82436" lon="1.59479">
        <ele>13.2</ele>
        <time>2015-04-07T16:35:58.000Z</time>
      </trkpt>
      <trkpt lat="50.82436" lon="1.59479">
        <ele>13.2</ele>
        <time>2015-04-07T16:35:59.000Z</time>
      </trkpt>
      <trkpt lat="50.82436" lon="1.59479">
        <ele>13.2</ele>
        <time>2015-04-07T16:36:00.000Z</time>
      </trkpt>
      <trkpt lat="50.82436" lon="1.59479">
        <ele>13.2</ele>
        <time>2015-04-07T16:36:01.000Z</time>
      </trkpt>
      <trkpt lat="50.82436" lon="1.59479">
        <ele>13.2</ele>
        <time>2015-04-07T16:36:02.000Z</time>
      </trkpt>
      <trkpt lat="50.82436" lon="1.59479">
        <ele>13.2</ele>
        <time>2015-04-07T16:36:03.000Z</time>
      </trkpt>
      <trkpt lat="50.82436" lon="1.5948">
        <ele>13.2</ele>
        <time>2015-04-07T16:36:04.000Z</time>
      </trkpt>
      <trkpt lat="50.82436" lon="1.5948">
        <ele>13.2</ele>
        <time>2015-04-07T16:36:05.000Z</time>
      </trkpt>
      <trkpt lat="50.82436" lon="1.5948">
        <ele>13.2</ele>
        <time>2015-04-07T16:36:06.000Z</time>
      </trkpt>
      <trkpt lat="50.82436" lon="1.5948">
        <ele>13.2</ele>
        <time>2015-04-07T16:36:07.000Z</time>
      </trkpt>
      <trkpt lat="50.82436" lon="1.5948">
        <ele>13.2</ele>
        <time>2015-04-07T16:36:08.000Z</time>
      </trkpt>
      <trkpt lat="50.82436" lon="1.5948">
        <ele>13.2</ele>
        <time>2015-04-07T16:36:09.000Z</time>
      </trkpt>
      <trkpt lat="50.82436" lon="1.5948">
        <ele>13.2</ele>
        <time>2015-04-07T16:36:10.000Z</time>
      </trkpt>
      <trkpt lat="50.82436" lon="1.5948">
        <ele>13.2</ele>
        <time>2015-04-07T16:36:11.000Z</time>
      </trkpt>
      <trkpt lat="50.82436" lon="1.5948">
        <ele>13.2</ele>
        <time>2015-04-07T16:36:12.000Z</time>
      </trkpt>
      <trkpt lat="50.82436" lon="1.5948">
        <ele>13.2</ele>
        <time>2015-04-07T16:36:13.000Z</time>
      </trkpt>
      <trkpt lat="50.82436" lon="1.5948">
        <ele>13.2</ele>
        <time>2015-04-07T16:36:14.000Z</time>
      </trkpt>
      <trkpt lat="50.82436" lon="1.5948">
        <ele>13.2</ele>
        <time>2015-04-07T16:36:15.000Z</time>
      </trkpt>
      <trkpt lat="50.82437" lon="1.5948">
        <ele>13.2</ele>
        <time>2015-04-07T16:36:16.000Z</time>
      </trkpt>
      <trkpt lat="50.82436" lon="1.5948">
        <ele>13.2</ele>
        <time>2015-04-07T16:36:17.000Z</time>
      </trkpt>
      <trkpt lat="50.82436" lon="1.5948">
        <ele>13.2</ele>
        <time>2015-04-07T16:36:18.000Z</time>
      </trkpt>
      <trkpt lat="50.82436" lon="1.59481">
        <ele>13.2</ele>
        <time>2015-04-07T16:36:19.000Z</time>
      </trkpt>
      <trkpt lat="50.82436" lon="1.59481">
        <ele>13.2</ele>
        <time>2015-04-07T16:36:20.000Z</time>
      </trkpt>
      <trkpt lat="50.82436" lon="1.5948">
        <ele>13.2</ele>
        <time>2015-04-07T16:36:21.000Z</time>
      </trkpt>
      <trkpt lat="50.82436" lon="1.5948">
        <ele>13.2</ele>
        <time>2015-04-07T16:36:22.000Z</time>
      </trkpt>
      <trkpt lat="50.82436" lon="1.5948">
        <ele>13.2</ele>
        <time>2015-04-07T16:36:23.000Z</time>
      </trkpt>
      <trkpt lat="50.82436" lon="1.5948">
        <ele>13.2</ele>
        <time>2015-04-07T16:36:24.000Z</time>
      </trkpt>
      <trkpt lat="50.82436" lon="1.5948">
        <ele>13.2</ele>
        <time>2015-04-07T16:36:25.000Z</time>
      </trkpt>
      <trkpt lat="50.82436" lon="1.5948">
        <ele>13.2</ele>
        <time>2015-04-07T16:36:26.000Z</time>
      </trkpt>
      <trkpt lat="50.82436" lon="1.5948">
        <ele>13.2</ele>
        <time>2015-04-07T16:36:27.000Z</time>
      </trkpt>
      <trkpt lat="50.82436" lon="1.5948">
        <ele>13.2</ele>
        <time>2015-04-07T16:36:28.000Z</time>
      </trkpt>
      <trkpt lat="50.82436" lon="1.5948">
        <ele>13.2</ele>
        <time>2015-04-07T16:36:29.000Z</time>
      </trkpt>
      <trkpt lat="50.82436" lon="1.5948">
        <ele>13.2</ele>
        <time>2015-04-07T16:36:30.000Z</time>
      </trkpt>
      <trkpt lat="50.82436" lon="1.5948">
        <ele>13.2</ele>
        <time>2015-04-07T16:36:31.000Z</time>
      </trkpt>
      <trkpt lat="50.82436" lon="1.5948">
        <ele>13.2</ele>
        <time>2015-04-07T16:36:32.000Z</time>
      </trkpt>
      <trkpt lat="50.82436" lon="1.5948">
        <ele>13.2</ele>
        <time>2015-04-07T16:36:33.000Z</time>
      </trkpt>
      <trkpt lat="50.82436" lon="1.5948">
        <ele>13.2</ele>
        <time>2015-04-07T16:36:34.000Z</time>
      </trkpt>
      <trkpt lat="50.82436" lon="1.5948">
        <ele>13.2</ele>
        <time>2015-04-07T16:36:35.000Z</time>
      </trkpt>
      <trkpt lat="50.82436" lon="1.5948">
        <ele>13.2</ele>
        <time>2015-04-07T16:36:36.000Z</time>
      </trkpt>
      <trkpt lat="50.82436" lon="1.5948">
        <ele>13.2</ele>
        <time>2015-04-07T16:36:37.000Z</time>
      </trkpt>
      <trkpt lat="50.82436" lon="1.5948">
        <ele>13.2</ele>
        <time>2015-04-07T16:36:38.000Z</time>
      </trkpt>
      <trkpt lat="50.82435" lon="1.5948">
        <ele>13.2</ele>
        <time>2015-04-07T16:36:39.000Z</time>
      </trkpt>
      <trkpt lat="50.82435" lon="1.5948">
        <ele>13.2</ele>
        <time>2015-04-07T16:36:40.000Z</time>
      </trkpt>
      <trkpt lat="50.82435" lon="1.5948">
        <ele>13.2</ele>
        <time>2015-04-07T16:36:41.000Z</time>
      </trkpt>
      <trkpt lat="50.82435" lon="1.5948">
        <ele>13.2</ele>
        <time>2015-04-07T16:36:42.000Z</time>
      </trkpt>
      <trkpt lat="50.82435" lon="1.5948">
        <ele>13.2</ele>
        <time>2015-04-07T16:36:43.000Z</time>
      </trkpt>
      <trkpt lat="50.82435" lon="1.5948">
        <ele>13.2</ele>
        <time>2015-04-07T16:36:44.000Z</time>
      </trkpt>
      <trkpt lat="50.82435" lon="1.59479">
        <ele>13.2</ele>
        <time>2015-04-07T16:36:45.000Z</time>
      </trkpt>
      <trkpt lat="50.82435" lon="1.59479">
        <ele>13.2</ele>
        <time>2015-04-07T16:36:46.000Z</time>
      </trkpt>
      <trkpt lat="50.82435" lon="1.59479">
        <ele>13.2</ele>
        <time>2015-04-07T16:36:47.000Z</time>
      </trkpt>
      <trkpt lat="50.82435" lon="1.59479">
        <ele>13.2</ele>
        <time>2015-04-07T16:36:48.000Z</time>
      </trkpt>
      <trkpt lat="50.82435" lon="1.59479">
        <ele>13.2</ele>
        <time>2015-04-07T16:36:49.000Z</time>
      </trkpt>
      <trkpt lat="50.82435" lon="1.59479">
        <ele>13.2</ele>
        <time>2015-04-07T16:36:50.000Z</time>
      </trkpt>
      <trkpt lat="50.82435" lon="1.59479">
        <ele>13.2</ele>
        <time>2015-04-07T16:36:51.000Z</time>
      </trkpt>
      <trkpt lat="50.82435" lon="1.59479">
        <ele>13.2</ele>
        <time>2015-04-07T16:36:52.000Z</time>
      </trkpt>
      <trkpt lat="50.82435" lon="1.59479">
        <ele>13.2</ele>
        <time>2015-04-07T16:36:53.000Z</time>
      </trkpt>
      <trkpt lat="50.82435" lon="1.59479">
        <ele>13.2</ele>
        <time>2015-04-07T16:36:54.000Z</time>
      </trkpt>
      <trkpt lat="50.82435" lon="1.59479">
        <ele>13.2</ele>
        <time>2015-04-07T16:36:55.000Z</time>
      </trkpt>
      <trkpt lat="50.82435" lon="1.59479">
        <ele>13.2</ele>
        <time>2015-04-07T16:36:56.000Z</time>
      </trkpt>
      <trkpt lat="50.82435" lon="1.59479">
        <ele>13.2</ele>
        <time>2015-04-07T16:36:57.000Z</time>
      </trkpt>
      <trkpt lat="50.82435" lon="1.59479">
        <ele>13.2</ele>
        <time>2015-04-07T16:36:58.000Z</time>
      </trkpt>
      <trkpt lat="50.82435" lon="1.59479">
        <ele>13.2</ele>
        <time>2015-04-07T16:36:59.000Z</time>
      </trkpt>
      <trkpt lat="50.82435" lon="1.59479">
        <ele>13.2</ele>
        <time>2015-04-07T16:37:00.000Z</time>
      </trkpt>
      <trkpt lat="50.82435" lon="1.59479">
        <ele>13.2</ele>
        <time>2015-04-07T16:37:01.000Z</time>
      </trkpt>
      <trkpt lat="50.82435" lon="1.59479">
        <ele>13.2</ele>
        <time>2015-04-07T16:37:02.000Z</time>
      </trkpt>
      <trkpt lat="50.82435" lon="1.59479">
        <ele>13.2</ele>
        <time>2015-04-07T16:37:03.000Z</time>
      </trkpt>
      <trkpt lat="50.82436" lon="1.59479">
        <ele>13.2</ele>
        <time>2015-04-07T16:37:04.000Z</time>
      </trkpt>
      <trkpt lat="50.82436" lon="1.59479">
        <ele>13.2</ele>
        <time>2015-04-07T16:37:05.000Z</time>
      </trkpt>
      <trkpt lat="50.82435" lon="1.59479">
        <ele>13.2</ele>
        <time>2015-04-07T16:37:06.000Z</time>
      </trkpt>
      <trkpt lat="50.82435" lon="1.59479">
        <ele>13.2</ele>
        <time>2015-04-07T16:37:07.000Z</time>
      </trkpt>
      <trkpt lat="50.82435" lon="1.5948">
        <ele>13.2</ele>
        <time>2015-04-07T16:37:08.000Z</time>
      </trkpt>
      <trkpt lat="50.82435" lon="1.5948">
        <ele>13.2</ele>
        <time>2015-04-07T16:37:09.000Z</time>
      </trkpt>
      <trkpt lat="50.82435" lon="1.59479">
        <ele>13.2</ele>
        <time>2015-04-07T16:37:10.000Z</time>
      </trkpt>
      <trkpt lat="50.82435" lon="1.59479">
        <ele>13.2</ele>
        <time>2015-04-07T16:37:11.000Z</time>
      </trkpt>
      <trkpt lat="50.82435" lon="1.59479">
        <ele>13.2</ele>
        <time>2015-04-07T16:37:12.000Z</time>
      </trkpt>
      <trkpt lat="50.82435" lon="1.59479">
        <ele>13.2</ele>
        <time>2015-04-07T16:37:13.000Z</time>
      </trkpt>
      <trkpt lat="50.82435" lon="1.59479">
        <ele>13.2</ele>
        <time>2015-04-07T16:37:14.000Z</time>
      </trkpt>
      <trkpt lat="50.82435" lon="1.59479">
        <ele>13.2</ele>
        <time>2015-04-07T16:37:15.000Z</time>
      </trkpt>
      <trkpt lat="50.82435" lon="1.59479">
        <ele>13.2</ele>
        <time>2015-04-07T16:37:16.000Z</time>
      </trkpt>
      <trkpt lat="50.82435" lon="1.59479">
        <ele>13.2</ele>
        <time>2015-04-07T16:37:17.000Z</time>
      </trkpt>
      <trkpt lat="50.82435" lon="1.59479">
        <ele>13.2</ele>
        <time>2015-04-07T16:37:18.000Z</time>
      </trkpt>
      <trkpt lat="50.82435" lon="1.59479">
        <ele>13.2</ele>
        <time>2015-04-07T16:37:19.000Z</time>
      </trkpt>
      <trkpt lat="50.82435" lon="1.59479">
        <ele>13.2</ele>
        <time>2015-04-07T16:37:20.000Z</time>
      </trkpt>
      <trkpt lat="50.82435" lon="1.59479">
        <ele>13.2</ele>
        <time>2015-04-07T16:37:21.000Z</time>
      </trkpt>
      <trkpt lat="50.82435" lon="1.5948">
        <ele>13.2</ele>
        <time>2015-04-07T16:37:22.000Z</time>
      </trkpt>
      <trkpt lat="50.82435" lon="1.5948">
        <ele>13.2</ele>
        <time>2015-04-07T16:37:23.000Z</time>
      </trkpt>
      <trkpt lat="50.82435" lon="1.5948">
        <ele>13.2</ele>
        <time>2015-04-07T16:37:24.000Z</time>
      </trkpt>
      <trkpt lat="50.82435" lon="1.5948">
        <ele>13.2</ele>
        <time>2015-04-07T16:37:25.000Z</time>
      </trkpt>
      <trkpt lat="50.82436" lon="1.5948">
        <ele>13.2</ele>
        <time>2015-04-07T16:37:26.000Z</time>
      </trkpt>
      <trkpt lat="50.82436" lon="1.5948">
        <ele>13.2</ele>
        <time>2015-04-07T16:37:27.000Z</time>
      </trkpt>
      <trkpt lat="50.82436" lon="1.5948">
        <ele>13.2</ele>
        <time>2015-04-07T16:37:28.000Z</time>
      </trkpt>
      <trkpt lat="50.82436" lon="1.5948">
        <ele>13.2</ele>
        <time>2015-04-07T16:37:29.000Z</time>
      </trkpt>
      <trkpt lat="50.82436" lon="1.5948">
        <ele>13.2</ele>
        <time>2015-04-07T16:37:30.000Z</time>
      </trkpt>
      <trkpt lat="50.82436" lon="1.5948">
        <ele>13.2</ele>
        <time>2015-04-07T16:37:31.000Z</time>
      </trkpt>
      <trkpt lat="50.82436" lon="1.5948">
        <ele>13.2</ele>
        <time>2015-04-07T16:37:32.000Z</time>
      </trkpt>
      <trkpt lat="50.82436" lon="1.5948">
        <ele>13.2</ele>
        <time>2015-04-07T16:37:33.000Z</time>
      </trkpt>
      <trkpt lat="50.82436" lon="1.5948">
        <ele>13.2</ele>
        <time>2015-04-07T16:37:34.000Z</time>
      </trkpt>
      <trkpt lat="50.82436" lon="1.5948">
        <ele>13.2</ele>
        <time>2015-04-07T16:37:35.000Z</time>
      </trkpt>
      <trkpt lat="50.82436" lon="1.5948">
        <ele>13.2</ele>
        <time>2015-04-07T16:37:36.000Z</time>
      </trkpt>
      <trkpt lat="50.82436" lon="1.5948">
        <ele>13.2</ele>
        <time>2015-04-07T16:37:37.000Z</time>
      </trkpt>
      <trkpt lat="50.82436" lon="1.5948">
        <ele>13.2</ele>
        <time>2015-04-07T16:37:38.000Z</time>
      </trkpt>
      <trkpt lat="50.82436" lon="1.5948">
        <ele>13.2</ele>
        <time>2015-04-07T16:37:39.000Z</time>
      </trkpt>
      <trkpt lat="50.82436" lon="1.5948">
        <ele>13.2</ele>
        <time>2015-04-07T16:37:40.000Z</time>
      </trkpt>
      <trkpt lat="50.82436" lon="1.5948">
        <ele>13.2</ele>
        <time>2015-04-07T16:37:41.000Z</time>
      </trkpt>
      <trkpt lat="50.82436" lon="1.5948">
        <ele>13.2</ele>
        <time>2015-04-07T16:37:42.000Z</time>
      </trkpt>
      <trkpt lat="50.82436" lon="1.5948">
        <ele>13.2</ele>
        <time>2015-04-07T16:37:43.000Z</time>
      </trkpt>
      <trkpt lat="50.82436" lon="1.5948">
        <ele>13.2</ele>
        <time>2015-04-07T16:37:44.000Z</time>
      </trkpt>
      <trkpt lat="50.82436" lon="1.59479">
        <ele>13.2</ele>
        <time>2015-04-07T16:37:45.000Z</time>
      </trkpt>
      <trkpt lat="50.82436" lon="1.59479">
        <ele>13.2</ele>
        <time>2015-04-07T16:37:46.000Z</time>
      </trkpt>
      <trkpt lat="50.82436" lon="1.59479">
        <ele>13.2</ele>
        <time>2015-04-07T16:37:47.000Z</time>
      </trkpt>
      <trkpt lat="50.82436" lon="1.59479">
        <ele>13.2</ele>
        <time>2015-04-07T16:37:48.000Z</time>
      </trkpt>
      <trkpt lat="50.82436" lon="1.59479">
        <ele>13.2</ele>
        <time>2015-04-07T16:37:49.000Z</time>
      </trkpt>
      <trkpt lat="50.82436" lon="1.59479">
        <ele>13.2</ele>
        <time>2015-04-07T16:37:50.000Z</time>
      </trkpt>
      <trkpt lat="50.82436" lon="1.59479">
        <ele>13.2</ele>
        <time>2015-04-07T16:37:51.000Z</time>
      </trkpt>
      <trkpt lat="50.82436" lon="1.59479">
        <ele>13.2</ele>
        <time>2015-04-07T16:37:52.000Z</time>
      </trkpt>
      <trkpt lat="50.82436" lon="1.59479">
        <ele>13.2</ele>
        <time>2015-04-07T16:37:53.000Z</time>
      </trkpt>
      <trkpt lat="50.82436" lon="1.59479">
        <ele>13.2</ele>
        <time>2015-04-07T16:37:54.000Z</time>
      </trkpt>
      <trkpt lat="50.82436" lon="1.59479">
        <ele>13.2</ele>
        <time>2015-04-07T16:37:55.000Z</time>
      </trkpt>
      <trkpt lat="50.82436" lon="1.59479">
        <ele>13.2</ele>
        <time>2015-04-07T16:37:56.000Z</time>
      </trkpt>
      <trkpt lat="50.82436" lon="1.59479">
        <ele>13.2</ele>
        <time>2015-04-07T16:37:57.000Z</time>
      </trkpt>
      <trkpt lat="50.82436" lon="1.59479">
        <ele>13.2</ele>
        <time>2015-04-07T16:37:58.000Z</time>
      </trkpt>
      <trkpt lat="50.82436" lon="1.59479">
        <ele>13.2</ele>
        <time>2015-04-07T16:37:59.000Z</time>
      </trkpt>
      <trkpt lat="50.82436" lon="1.59479">
        <ele>13.2</ele>
        <time>2015-04-07T16:38:00.000Z</time>
      </trkpt>
      <trkpt lat="50.82436" lon="1.59479">
        <ele>13.2</ele>
        <time>2015-04-07T16:38:01.000Z</time>
      </trkpt>
      <trkpt lat="50.82436" lon="1.59479">
        <ele>13.2</ele>
        <time>2015-04-07T16:38:02.000Z</time>
      </trkpt>
      <trkpt lat="50.82436" lon="1.59479">
        <ele>13.2</ele>
        <time>2015-04-07T16:38:03.000Z</time>
      </trkpt>
      <trkpt lat="50.82436" lon="1.59479">
        <ele>13.2</ele>
        <time>2015-04-07T16:38:04.000Z</time>
      </trkpt>
      <trkpt lat="50.82436" lon="1.59479">
        <ele>13.2</ele>
        <time>2015-04-07T16:38:05.000Z</time>
      </trkpt>
      <trkpt lat="50.82436" lon="1.59479">
        <ele>13.2</ele>
        <time>2015-04-07T16:38:06.000Z</time>
      </trkpt>
      <trkpt lat="50.82436" lon="1.59479">
        <ele>13.2</ele>
        <time>2015-04-07T16:38:07.000Z</time>
      </trkpt>
      <trkpt lat="50.82436" lon="1.59479">
        <ele>13.2</ele>
        <time>2015-04-07T16:38:08.000Z</time>
      </trkpt>
      <trkpt lat="50.82436" lon="1.59479">
        <ele>13.2</ele>
        <time>2015-04-07T16:38:09.000Z</time>
      </trkpt>
      <trkpt lat="50.82436" lon="1.59479">
        <ele>13.2</ele>
        <time>2015-04-07T16:38:10.000Z</time>
      </trkpt>
      <trkpt lat="50.82436" lon="1.59479">
        <ele>13.2</ele>
        <time>2015-04-07T16:38:11.000Z</time>
      </trkpt>
      <trkpt lat="50.82436" lon="1.59479">
        <ele>13.2</ele>
        <time>2015-04-07T16:38:12.000Z</time>
      </trkpt>
      <trkpt lat="50.82436" lon="1.59479">
        <ele>13.2</ele>
        <time>2015-04-07T16:38:13.000Z</time>
      </trkpt>
      <trkpt lat="50.82436" lon="1.59479">
        <ele>13.2</ele>
        <time>2015-04-07T16:38:14.000Z</time>
      </trkpt>
      <trkpt lat="50.82436" lon="1.59479">
        <ele>13.2</ele>
        <time>2015-04-07T16:38:15.000Z</time>
      </trkpt>
      <trkpt lat="50.82436" lon="1.59479">
        <ele>13.2</ele>
        <time>2015-04-07T16:38:16.000Z</time>
      </trkpt>
      <trkpt lat="50.82436" lon="1.59479">
        <ele>13.2</ele>
        <time>2015-04-07T16:38:17.000Z</time>
      </trkpt>
      <trkpt lat="50.82436" lon="1.59479">
        <ele>13.2</ele>
        <time>2015-04-07T16:38:18.000Z</time>
      </trkpt>
      <trkpt lat="50.82436" lon="1.59479">
        <ele>13.2</ele>
        <time>2015-04-07T16:38:19.000Z</time>
      </trkpt>
      <trkpt lat="50.82436" lon="1.59479">
        <ele>13.2</ele>
        <time>2015-04-07T16:38:20.000Z</time>
      </trkpt>
      <trkpt lat="50.82436" lon="1.59479">
        <ele>13.2</ele>
        <time>2015-04-07T16:38:21.000Z</time>
      </trkpt>
      <trkpt lat="50.82436" lon="1.59479">
        <ele>13.2</ele>
        <time>2015-04-07T16:38:22.000Z</time>
      </trkpt>
      <trkpt lat="50.82436" lon="1.59479">
        <ele>13.2</ele>
        <time>2015-04-07T16:38:23.000Z</time>
      </trkpt>
      <trkpt lat="50.82436" lon="1.59479">
        <ele>13.2</ele>
        <time>2015-04-07T16:38:24.000Z</time>
      </trkpt>
      <trkpt lat="50.82436" lon="1.59479">
        <ele>13.2</ele>
        <time>2015-04-07T16:38:25.000Z</time>
      </trkpt>
      <trkpt lat="50.82436" lon="1.59479">
        <ele>13.2</ele>
        <time>2015-04-07T16:38:26.000Z</time>
      </trkpt>
      <trkpt lat="50.82436" lon="1.59479">
        <ele>13.2</ele>
        <time>2015-04-07T16:38:27.000Z</time>
      </trkpt>
      <trkpt lat="50.82436" lon="1.59479">
        <ele>13.2</ele>
        <time>2015-04-07T16:38:28.000Z</time>
      </trkpt>
      <trkpt lat="50.82436" lon="1.59479">
        <ele>13.2</ele>
        <time>2015-04-07T16:38:29.000Z</time>
      </trkpt>
      <trkpt lat="50.82436" lon="1.59479">
        <ele>13.2</ele>
        <time>2015-04-07T16:38:30.000Z</time>
      </trkpt>
      <trkpt lat="50.82436" lon="1.59479">
        <ele>13.2</ele>
        <time>2015-04-07T16:38:31.000Z</time>
      </trkpt>
      <trkpt lat="50.82436" lon="1.59479">
        <ele>13.2</ele>
        <time>2015-04-07T16:38:32.000Z</time>
      </trkpt>
      <trkpt lat="50.82436" lon="1.59479">
        <ele>13.2</ele>
        <time>2015-04-07T16:38:33.000Z</time>
      </trkpt>
      <trkpt lat="50.82436" lon="1.59479">
        <ele>13.2</ele>
        <time>2015-04-07T16:38:34.000Z</time>
      </trkpt>
      <trkpt lat="50.82436" lon="1.59479">
        <ele>13.2</ele>
        <time>2015-04-07T16:38:35.000Z</time>
      </trkpt>
      <trkpt lat="50.82436" lon="1.59479">
        <ele>13.2</ele>
        <time>2015-04-07T16:38:36.000Z</time>
      </trkpt>
      <trkpt lat="50.82436" lon="1.59479">
        <ele>13.2</ele>
        <time>2015-04-07T16:38:37.000Z</time>
      </trkpt>
      <trkpt lat="50.82436" lon="1.59479">
        <ele>13.2</ele>
        <time>2015-04-07T16:38:38.000Z</time>
      </trkpt>
      <trkpt lat="50.82436" lon="1.59479">
        <ele>13.2</ele>
        <time>2015-04-07T16:38:39.000Z</time>
      </trkpt>
      <trkpt lat="50.82436" lon="1.59479">
        <ele>13.2</ele>
        <time>2015-04-07T16:38:40.000Z</time>
      </trkpt>
      <trkpt lat="50.82436" lon="1.59479">
        <ele>13.2</ele>
        <time>2015-04-07T16:38:41.000Z</time>
      </trkpt>
      <trkpt lat="50.82436" lon="1.59479">
        <ele>13.2</ele>
        <time>2015-04-07T16:38:42.000Z</time>
      </trkpt>
      <trkpt lat="50.82436" lon="1.59479">
        <ele>13.2</ele>
        <time>2015-04-07T16:38:43.000Z</time>
      </trkpt>
      <trkpt lat="50.82436" lon="1.59479">
        <ele>13.2</ele>
        <time>2015-04-07T16:38:44.000Z</time>
      </trkpt>
      <trkpt lat="50.82436" lon="1.59479">
        <ele>13.2</ele>
        <time>2015-04-07T16:38:45.000Z</time>
      </trkpt>
      <trkpt lat="50.82436" lon="1.59479">
        <ele>13.2</ele>
        <time>2015-04-07T16:38:46.000Z</time>
      </trkpt>
      <trkpt lat="50.82436" lon="1.59479">
        <ele>13.2</ele>
        <time>2015-04-07T16:38:47.000Z</time>
      </trkpt>
      <trkpt lat="50.82436" lon="1.59479">
        <ele>13.2</ele>
        <time>2015-04-07T16:38:48.000Z</time>
      </trkpt>
      <trkpt lat="50.82436" lon="1.59478">
        <ele>13.1</ele>
        <time>2015-04-07T16:38:49.000Z</time>
      </trkpt>
      <trkpt lat="50.82436" lon="1.59478">
        <ele>13.1</ele>
        <time>2015-04-07T16:38:50.000Z</time>
      </trkpt>
      <trkpt lat="50.82435" lon="1.59478">
        <ele>13.1</ele>
        <time>2015-04-07T16:38:51.000Z</time>
      </trkpt>
      <trkpt lat="50.82435" lon="1.59478">
        <ele>13.1</ele>
        <time>2015-04-07T16:38:52.000Z</time>
      </trkpt>
      <trkpt lat="50.82435" lon="1.59478">
        <ele>13.1</ele>
        <time>2015-04-07T16:38:53.000Z</time>
      </trkpt>
      <trkpt lat="50.82435" lon="1.59479">
        <ele>13.2</ele>
        <time>2015-04-07T16:38:54.000Z</time>
      </trkpt>
      <trkpt lat="50.82435" lon="1.59479">
        <ele>13.2</ele>
        <time>2015-04-07T16:38:55.000Z</time>
      </trkpt>
      <trkpt lat="50.82435" lon="1.59479">
        <ele>13.2</ele>
        <time>2015-04-07T16:38:56.000Z</time>
      </trkpt>
      <trkpt lat="50.82435" lon="1.59479">
        <ele>13.2</ele>
        <time>2015-04-07T16:38:57.000Z</time>
      </trkpt>
      <trkpt lat="50.82435" lon="1.59479">
        <ele>13.2</ele>
        <time>2015-04-07T16:38:58.000Z</time>
      </trkpt>
      <trkpt lat="50.82435" lon="1.59479">
        <ele>13.2</ele>
        <time>2015-04-07T16:38:59.000Z</time>
      </trkpt>
      <trkpt lat="50.82435" lon="1.59479">
        <ele>13.2</ele>
        <time>2015-04-07T16:39:00.000Z</time>
      </trkpt>
      <trkpt lat="50.82435" lon="1.59479">
        <ele>13.2</ele>
        <time>2015-04-07T16:39:01.000Z</time>
      </trkpt>
      <trkpt lat="50.82435" lon="1.59479">
        <ele>13.2</ele>
        <time>2015-04-07T16:39:02.000Z</time>
      </trkpt>
      <trkpt lat="50.82435" lon="1.59479">
        <ele>13.2</ele>
        <time>2015-04-07T16:39:03.000Z</time>
      </trkpt>
      <trkpt lat="50.82435" lon="1.59479">
        <ele>13.2</ele>
        <time>2015-04-07T16:39:04.000Z</time>
      </trkpt>
      <trkpt lat="50.82435" lon="1.59479">
        <ele>13.2</ele>
        <time>2015-04-07T16:39:05.000Z</time>
      </trkpt>
      <trkpt lat="50.82435" lon="1.59479">
        <ele>13.2</ele>
        <time>2015-04-07T16:39:06.000Z</time>
      </trkpt>
      <trkpt lat="50.82435" lon="1.59479">
        <ele>13.2</ele>
        <time>2015-04-07T16:39:07.000Z</time>
      </trkpt>
      <trkpt lat="50.82435" lon="1.59479">
        <ele>13.2</ele>
        <time>2015-04-07T16:39:08.000Z</time>
      </trkpt>
      <trkpt lat="50.82435" lon="1.59479">
        <ele>13.2</ele>
        <time>2015-04-07T16:39:09.000Z</time>
      </trkpt>
      <trkpt lat="50.82435" lon="1.59479">
        <ele>13.2</ele>
        <time>2015-04-07T16:39:10.000Z</time>
      </trkpt>
      <trkpt lat="50.82435" lon="1.59479">
        <ele>13.2</ele>
        <time>2015-04-07T16:39:11.000Z</time>
      </trkpt>
      <trkpt lat="50.82435" lon="1.59479">
        <ele>13.2</ele>
        <time>2015-04-07T16:39:12.000Z</time>
      </trkpt>
      <trkpt lat="50.82435" lon="1.59479">
        <ele>13.2</ele>
        <time>2015-04-07T16:39:13.000Z</time>
      </trkpt>
      <trkpt lat="50.82435" lon="1.59479">
        <ele>13.2</ele>
        <time>2015-04-07T16:39:14.000Z</time>
      </trkpt>
      <trkpt lat="50.82435" lon="1.59479">
        <ele>13.2</ele>
        <time>2015-04-07T16:39:15.000Z</time>
      </trkpt>
      <trkpt lat="50.82435" lon="1.59479">
        <ele>13.2</ele>
        <time>2015-04-07T16:39:16.000Z</time>
      </trkpt>
      <trkpt lat="50.82435" lon="1.59479">
        <ele>13.2</ele>
        <time>2015-04-07T16:39:17.000Z</time>
      </trkpt>
      <trkpt lat="50.82435" lon="1.59479">
        <ele>13.2</ele>
        <time>2015-04-07T16:39:18.000Z</time>
      </trkpt>
      <trkpt lat="50.82435" lon="1.59479">
        <ele>13.2</ele>
        <time>2015-04-07T16:39:19.000Z</time>
      </trkpt>
      <trkpt lat="50.82435" lon="1.59479">
        <ele>13.2</ele>
        <time>2015-04-07T16:39:20.000Z</time>
      </trkpt>
      <trkpt lat="50.82435" lon="1.59479">
        <ele>13.2</ele>
        <time>2015-04-07T16:39:21.000Z</time>
      </trkpt>
      <trkpt lat="50.82435" lon="1.59479">
        <ele>13.2</ele>
        <time>2015-04-07T16:39:22.000Z</time>
      </trkpt>
      <trkpt lat="50.82435" lon="1.59479">
        <ele>13.2</ele>
        <time>2015-04-07T16:39:23.000Z</time>
      </trkpt>
      <trkpt lat="50.82435" lon="1.59479">
        <ele>13.2</ele>
        <time>2015-04-07T16:39:24.000Z</time>
      </trkpt>
      <trkpt lat="50.82435" lon="1.59479">
        <ele>13.2</ele>
        <time>2015-04-07T16:39:25.000Z</time>
      </trkpt>
      <trkpt lat="50.82435" lon="1.59479">
        <ele>13.2</ele>
        <time>2015-04-07T16:39:26.000Z</time>
      </trkpt>
      <trkpt lat="50.82435" lon="1.59479">
        <ele>13.2</ele>
        <time>2015-04-07T16:39:27.000Z</time>
      </trkpt>
      <trkpt lat="50.82435" lon="1.59479">
        <ele>13.2</ele>
        <time>2015-04-07T16:39:28.000Z</time>
      </trkpt>
      <trkpt lat="50.82435" lon="1.59479">
        <ele>13.2</ele>
        <time>2015-04-07T16:39:29.000Z</time>
      </trkpt>
      <trkpt lat="50.82435" lon="1.59479">
        <ele>13.2</ele>
        <time>2015-04-07T16:39:30.000Z</time>
      </trkpt>
      <trkpt lat="50.82435" lon="1.59479">
        <ele>13.2</ele>
        <time>2015-04-07T16:39:31.000Z</time>
      </trkpt>
      <trkpt lat="50.82435" lon="1.59479">
        <ele>13.2</ele>
        <time>2015-04-07T16:39:32.000Z</time>
      </trkpt>
      <trkpt lat="50.82435" lon="1.59479">
        <ele>13.2</ele>
        <time>2015-04-07T16:39:33.000Z</time>
      </trkpt>
      <trkpt lat="50.82435" lon="1.59479">
        <ele>13.2</ele>
        <time>2015-04-07T16:39:34.000Z</time>
      </trkpt>
      <trkpt lat="50.82435" lon="1.59479">
        <ele>13.2</ele>
        <time>2015-04-07T16:39:35.000Z</time>
      </trkpt>
      <trkpt lat="50.82435" lon="1.59479">
        <ele>13.2</ele>
        <time>2015-04-07T16:39:36.000Z</time>
      </trkpt>
      <trkpt lat="50.82435" lon="1.59479">
        <ele>13.2</ele>
        <time>2015-04-07T16:39:37.000Z</time>
      </trkpt>
      <trkpt lat="50.82435" lon="1.59479">
        <ele>13.2</ele>
        <time>2015-04-07T16:39:38.000Z</time>
      </trkpt>
      <trkpt lat="50.82435" lon="1.59479">
        <ele>13.2</ele>
        <time>2015-04-07T16:39:39.000Z</time>
      </trkpt>
      <trkpt lat="50.82435" lon="1.59479">
        <ele>13.2</ele>
        <time>2015-04-07T16:39:40.000Z</time>
      </trkpt>
      <trkpt lat="50.82435" lon="1.59479">
        <ele>13.2</ele>
        <time>2015-04-07T16:39:41.000Z</time>
      </trkpt>
      <trkpt lat="50.82435" lon="1.59479">
        <ele>13.2</ele>
        <time>2015-04-07T16:39:42.000Z</time>
      </trkpt>
      <trkpt lat="50.82435" lon="1.59479">
        <ele>13.2</ele>
        <time>2015-04-07T16:39:43.000Z</time>
      </trkpt>
      <trkpt lat="50.82435" lon="1.59479">
        <ele>13.2</ele>
        <time>2015-04-07T16:39:44.000Z</time>
      </trkpt>
      <trkpt lat="50.82435" lon="1.59479">
        <ele>13.2</ele>
        <time>2015-04-07T16:39:45.000Z</time>
      </trkpt>
      <trkpt lat="50.82435" lon="1.59479">
        <ele>13.2</ele>
        <time>2015-04-07T16:39:46.000Z</time>
      </trkpt>
      <trkpt lat="50.82435" lon="1.59479">
        <ele>13.2</ele>
        <time>2015-04-07T16:39:47.000Z</time>
      </trkpt>
      <trkpt lat="50.82435" lon="1.59479">
        <ele>13.2</ele>
        <time>2015-04-07T16:39:48.000Z</time>
      </trkpt>
      <trkpt lat="50.82436" lon="1.59479">
        <ele>13.2</ele>
        <time>2015-04-07T16:39:49.000Z</time>
      </trkpt>
      <trkpt lat="50.82436" lon="1.59479">
        <ele>13.2</ele>
        <time>2015-04-07T16:39:50.000Z</time>
      </trkpt>
      <trkpt lat="50.82436" lon="1.5948">
        <ele>13.2</ele>
        <time>2015-04-07T16:39:51.000Z</time>
      </trkpt>
      <trkpt lat="50.82436" lon="1.5948">
        <ele>13.2</ele>
        <time>2015-04-07T16:39:52.000Z</time>
      </trkpt>
      <trkpt lat="50.82436" lon="1.5948">
        <ele>13.2</ele>
        <time>2015-04-07T16:39:53.000Z</time>
      </trkpt>
      <trkpt lat="50.82436" lon="1.5948">
        <ele>13.2</ele>
        <time>2015-04-07T16:39:54.000Z</time>
      </trkpt>
      <trkpt lat="50.82436" lon="1.5948">
        <ele>13.2</ele>
        <time>2015-04-07T16:39:55.000Z</time>
      </trkpt>
      <trkpt lat="50.82436" lon="1.5948">
        <ele>13.2</ele>
        <time>2015-04-07T16:39:56.000Z</time>
      </trkpt>
      <trkpt lat="50.82436" lon="1.5948">
        <ele>13.2</ele>
        <time>2015-04-07T16:39:57.000Z</time>
      </trkpt>
      <trkpt lat="50.82436" lon="1.5948">
        <ele>13.2</ele>
        <time>2015-04-07T16:39:58.000Z</time>
      </trkpt>
      <trkpt lat="50.82436" lon="1.5948">
        <ele>13.2</ele>
        <time>2015-04-07T16:39:59.000Z</time>
      </trkpt>
      <trkpt lat="50.82436" lon="1.5948">
        <ele>13.2</ele>
        <time>2015-04-07T16:40:00.000Z</time>
      </trkpt>
      <trkpt lat="50.82436" lon="1.5948">
        <ele>13.2</ele>
        <time>2015-04-07T16:40:01.000Z</time>
      </trkpt>
      <trkpt lat="50.82436" lon="1.5948">
        <ele>13.2</ele>
        <time>2015-04-07T16:40:02.000Z</time>
      </trkpt>
      <trkpt lat="50.82436" lon="1.5948">
        <ele>13.2</ele>
        <time>2015-04-07T16:40:03.000Z</time>
      </trkpt>
      <trkpt lat="50.82436" lon="1.5948">
        <ele>13.2</ele>
        <time>2015-04-07T16:40:04.000Z</time>
      </trkpt>
      <trkpt lat="50.82436" lon="1.5948">
        <ele>13.2</ele>
        <time>2015-04-07T16:40:05.000Z</time>
      </trkpt>
      <trkpt lat="50.82436" lon="1.5948">
        <ele>13.2</ele>
        <time>2015-04-07T16:40:06.000Z</time>
      </trkpt>
      <trkpt lat="50.82436" lon="1.59479">
        <ele>13.2</ele>
        <time>2015-04-07T16:40:07.000Z</time>
      </trkpt>
      <trkpt lat="50.82436" lon="1.5948">
        <ele>13.2</ele>
        <time>2015-04-07T16:40:08.000Z</time>
      </trkpt>
      <trkpt lat="50.82436" lon="1.5948">
        <ele>13.2</ele>
        <time>2015-04-07T16:40:09.000Z</time>
      </trkpt>
      <trkpt lat="50.82436" lon="1.5948">
        <ele>13.2</ele>
        <time>2015-04-07T16:40:10.000Z</time>
      </trkpt>
      <trkpt lat="50.82436" lon="1.5948">
        <ele>13.2</ele>
        <time>2015-04-07T16:40:11.000Z</time>
      </trkpt>
      <trkpt lat="50.82436" lon="1.5948">
        <ele>13.2</ele>
        <time>2015-04-07T16:40:12.000Z</time>
      </trkpt>
      <trkpt lat="50.82436" lon="1.5948">
        <ele>13.2</ele>
        <time>2015-04-07T16:40:13.000Z</time>
      </trkpt>
      <trkpt lat="50.82436" lon="1.5948">
        <ele>13.2</ele>
        <time>2015-04-07T16:40:14.000Z</time>
      </trkpt>
      <trkpt lat="50.82436" lon="1.5948">
        <ele>13.2</ele>
        <time>2015-04-07T16:40:15.000Z</time>
      </trkpt>
      <trkpt lat="50.82436" lon="1.5948">
        <ele>13.2</ele>
        <time>2015-04-07T16:40:16.000Z</time>
      </trkpt>
      <trkpt lat="50.82436" lon="1.5948">
        <ele>13.2</ele>
        <time>2015-04-07T16:40:17.000Z</time>
      </trkpt>
      <trkpt lat="50.82436" lon="1.5948">
        <ele>13.2</ele>
        <time>2015-04-07T16:40:18.000Z</time>
      </trkpt>
      <trkpt lat="50.82436" lon="1.5948">
        <ele>13.2</ele>
        <time>2015-04-07T16:40:19.000Z</time>
      </trkpt>
      <trkpt lat="50.82436" lon="1.5948">
        <ele>13.2</ele>
        <time>2015-04-07T16:40:20.000Z</time>
      </trkpt>
      <trkpt lat="50.82436" lon="1.5948">
        <ele>13.2</ele>
        <time>2015-04-07T16:40:21.000Z</time>
      </trkpt>
      <trkpt lat="50.82436" lon="1.5948">
        <ele>13.2</ele>
        <time>2015-04-07T16:40:22.000Z</time>
      </trkpt>
      <trkpt lat="50.82436" lon="1.5948">
        <ele>13.2</ele>
        <time>2015-04-07T16:40:23.000Z</time>
      </trkpt>
      <trkpt lat="50.82436" lon="1.5948">
        <ele>13.2</ele>
        <time>2015-04-07T16:40:24.000Z</time>
      </trkpt>
      <trkpt lat="50.82436" lon="1.5948">
        <ele>13.2</ele>
        <time>2015-04-07T16:40:25.000Z</time>
      </trkpt>
      <trkpt lat="50.82436" lon="1.5948">
        <ele>13.2</ele>
        <time>2015-04-07T16:40:26.000Z</time>
      </trkpt>
      <trkpt lat="50.82436" lon="1.5948">
        <ele>13.2</ele>
        <time>2015-04-07T16:40:27.000Z</time>
      </trkpt>
      <trkpt lat="50.82437" lon="1.5948">
        <ele>13.2</ele>
        <time>2015-04-07T16:40:28.000Z</time>
      </trkpt>
      <trkpt lat="50.82437" lon="1.5948">
        <ele>13.2</ele>
        <time>2015-04-07T16:40:29.000Z</time>
      </trkpt>
      <trkpt lat="50.82436" lon="1.5948">
        <ele>13.2</ele>
        <time>2015-04-07T16:40:30.000Z</time>
      </trkpt>
      <trkpt lat="50.82436" lon="1.5948">
        <ele>13.2</ele>
        <time>2015-04-07T16:40:31.000Z</time>
      </trkpt>
      <trkpt lat="50.82436" lon="1.5948">
        <ele>13.2</ele>
        <time>2015-04-07T16:40:32.000Z</time>
      </trkpt>
      <trkpt lat="50.82436" lon="1.5948">
        <ele>13.2</ele>
        <time>2015-04-07T16:40:33.000Z</time>
      </trkpt>
      <trkpt lat="50.82436" lon="1.5948">
        <ele>13.2</ele>
        <time>2015-04-07T16:40:34.000Z</time>
      </trkpt>
      <trkpt lat="50.82436" lon="1.5948">
        <ele>13.2</ele>
        <time>2015-04-07T16:40:35.000Z</time>
      </trkpt>
      <trkpt lat="50.82436" lon="1.5948">
        <ele>13.2</ele>
        <time>2015-04-07T16:40:36.000Z</time>
      </trkpt>
      <trkpt lat="50.82436" lon="1.5948">
        <ele>13.2</ele>
        <time>2015-04-07T16:40:37.000Z</time>
      </trkpt>
      <trkpt lat="50.82436" lon="1.5948">
        <ele>13.2</ele>
        <time>2015-04-07T16:40:38.000Z</time>
      </trkpt>
      <trkpt lat="50.82436" lon="1.5948">
        <ele>13.2</ele>
        <time>2015-04-07T16:40:39.000Z</time>
      </trkpt>
      <trkpt lat="50.82436" lon="1.5948">
        <ele>13.2</ele>
        <time>2015-04-07T16:40:40.000Z</time>
      </trkpt>
      <trkpt lat="50.82436" lon="1.5948">
        <ele>13.2</ele>
        <time>2015-04-07T16:40:41.000Z</time>
      </trkpt>
      <trkpt lat="50.82436" lon="1.5948">
        <ele>13.2</ele>
        <time>2015-04-07T16:40:42.000Z</time>
      </trkpt>
      <trkpt lat="50.82436" lon="1.5948">
        <ele>13.2</ele>
        <time>2015-04-07T16:40:43.000Z</time>
      </trkpt>
      <trkpt lat="50.82436" lon="1.5948">
        <ele>13.2</ele>
        <time>2015-04-07T16:40:44.000Z</time>
      </trkpt>
      <trkpt lat="50.82436" lon="1.5948">
        <ele>13.2</ele>
        <time>2015-04-07T16:40:45.000Z</time>
      </trkpt>
      <trkpt lat="50.82436" lon="1.5948">
        <ele>13.2</ele>
        <time>2015-04-07T16:40:46.000Z</time>
      </trkpt>
      <trkpt lat="50.82436" lon="1.5948">
        <ele>13.2</ele>
        <time>2015-04-07T16:40:47.000Z</time>
      </trkpt>
      <trkpt lat="50.82436" lon="1.5948">
        <ele>13.2</ele>
        <time>2015-04-07T16:40:48.000Z</time>
      </trkpt>
      <trkpt lat="50.82436" lon="1.5948">
        <ele>13.2</ele>
        <time>2015-04-07T16:40:49.000Z</time>
      </trkpt>
      <trkpt lat="50.82436" lon="1.5948">
        <ele>13.2</ele>
        <time>2015-04-07T16:40:50.000Z</time>
      </trkpt>
      <trkpt lat="50.82436" lon="1.5948">
        <ele>13.2</ele>
        <time>2015-04-07T16:40:51.000Z</time>
      </trkpt>
      <trkpt lat="50.82436" lon="1.5948">
        <ele>13.2</ele>
        <time>2015-04-07T16:40:52.000Z</time>
      </trkpt>
      <trkpt lat="50.82436" lon="1.5948">
        <ele>13.2</ele>
        <time>2015-04-07T16:40:53.000Z</time>
      </trkpt>
      <trkpt lat="50.82436" lon="1.59481">
        <ele>13.2</ele>
        <time>2015-04-07T16:40:54.000Z</time>
      </trkpt>
      <trkpt lat="50.82436" lon="1.59481">
        <ele>13.2</ele>
        <time>2015-04-07T16:40:55.000Z</time>
      </trkpt>
      <trkpt lat="50.82436" lon="1.59481">
        <ele>13.2</ele>
        <time>2015-04-07T16:40:56.000Z</time>
      </trkpt>
      <trkpt lat="50.82436" lon="1.59481">
        <ele>13.2</ele>
        <time>2015-04-07T16:40:57.000Z</time>
      </trkpt>
      <trkpt lat="50.82436" lon="1.59481">
        <ele>13.2</ele>
        <time>2015-04-07T16:40:58.000Z</time>
      </trkpt>
      <trkpt lat="50.82436" lon="1.59481">
        <ele>13.2</ele>
        <time>2015-04-07T16:40:59.000Z</time>
      </trkpt>
      <trkpt lat="50.82436" lon="1.59481">
        <ele>13.2</ele>
        <time>2015-04-07T16:41:00.000Z</time>
      </trkpt>
      <trkpt lat="50.82436" lon="1.59481">
        <ele>13.2</ele>
        <time>2015-04-07T16:41:01.000Z</time>
      </trkpt>
      <trkpt lat="50.82436" lon="1.59481">
        <ele>13.2</ele>
        <time>2015-04-07T16:41:02.000Z</time>
      </trkpt>
      <trkpt lat="50.82436" lon="1.59481">
        <ele>13.2</ele>
        <time>2015-04-07T16:41:03.000Z</time>
      </trkpt>
      <trkpt lat="50.82436" lon="1.59481">
        <ele>13.2</ele>
        <time>2015-04-07T16:41:04.000Z</time>
      </trkpt>
      <trkpt lat="50.82436" lon="1.59481">
        <ele>13.2</ele>
        <time>2015-04-07T16:41:05.000Z</time>
      </trkpt>
      <trkpt lat="50.82436" lon="1.59481">
        <ele>13.2</ele>
        <time>2015-04-07T16:41:06.000Z</time>
      </trkpt>
      <trkpt lat="50.82436" lon="1.59481">
        <ele>13.2</ele>
        <time>2015-04-07T16:41:07.000Z</time>
      </trkpt>
      <trkpt lat="50.82436" lon="1.59481">
        <ele>13.2</ele>
        <time>2015-04-07T16:41:08.000Z</time>
      </trkpt>
      <trkpt lat="50.82436" lon="1.59481">
        <ele>13.2</ele>
        <time>2015-04-07T16:41:09.000Z</time>
      </trkpt>
      <trkpt lat="50.82436" lon="1.59481">
        <ele>13.2</ele>
        <time>2015-04-07T16:41:10.000Z</time>
      </trkpt>
      <trkpt lat="50.82436" lon="1.59481">
        <ele>13.2</ele>
        <time>2015-04-07T16:41:11.000Z</time>
      </trkpt>
      <trkpt lat="50.82437" lon="1.59481">
        <ele>13.2</ele>
        <time>2015-04-07T16:41:12.000Z</time>
      </trkpt>
      <trkpt lat="50.82437" lon="1.59482">
        <ele>13.2</ele>
        <time>2015-04-07T16:41:13.000Z</time>
      </trkpt>
      <trkpt lat="50.82437" lon="1.59482">
        <ele>13.3</ele>
        <time>2015-04-07T16:41:14.000Z</time>
      </trkpt>
      <trkpt lat="50.82438" lon="1.59483">
        <ele>13.3</ele>
        <time>2015-04-07T16:41:15.000Z</time>
      </trkpt>
      <trkpt lat="50.82438" lon="1.59484">
        <ele>13.3</ele>
        <time>2015-04-07T16:41:16.000Z</time>
      </trkpt>
      <trkpt lat="50.82438" lon="1.59485">
        <ele>13.4</ele>
        <time>2015-04-07T16:41:17.000Z</time>
      </trkpt>
      <trkpt lat="50.82439" lon="1.59487">
        <ele>13.4</ele>
        <time>2015-04-07T16:41:18.000Z</time>
      </trkpt>
      <trkpt lat="50.82439" lon="1.59488">
        <ele>13.4</ele>
        <time>2015-04-07T16:41:19.000Z</time>
      </trkpt>
      <trkpt lat="50.82439" lon="1.59489">
        <ele>13.5</ele>
        <time>2015-04-07T16:41:20.000Z</time>
      </trkpt>
      <trkpt lat="50.82439" lon="1.5949">
        <ele>13.5</ele>
        <time>2015-04-07T16:41:21.000Z</time>
      </trkpt>
      <trkpt lat="50.82439" lon="1.59492">
        <ele>13.6</ele>
        <time>2015-04-07T16:41:22.000Z</time>
      </trkpt>
      <trkpt lat="50.8244" lon="1.59493">
        <ele>13.6</ele>
        <time>2015-04-07T16:41:23.000Z</time>
      </trkpt>
      <trkpt lat="50.8244" lon="1.59494">
        <ele>13.7</ele>
        <time>2015-04-07T16:41:24.000Z</time>
      </trkpt>
      <trkpt lat="50.8244" lon="1.59496">
        <ele>13.7</ele>
        <time>2015-04-07T16:41:25.000Z</time>
      </trkpt>
      <trkpt lat="50.8244" lon="1.59497">
        <ele>13.8</ele>
        <time>2015-04-07T16:41:26.000Z</time>
      </trkpt>
      <trkpt lat="50.82441" lon="1.59499">
        <ele>13.8</ele>
        <time>2015-04-07T16:41:27.000Z</time>
      </trkpt>
      <trkpt lat="50.82441" lon="1.595">
        <ele>13.9</ele>
        <time>2015-04-07T16:41:28.000Z</time>
      </trkpt>
      <trkpt lat="50.82441" lon="1.59501">
        <ele>13.9</ele>
        <time>2015-04-07T16:41:29.000Z</time>
      </trkpt>
      <trkpt lat="50.82441" lon="1.59503">
        <ele>13.9</ele>
        <time>2015-04-07T16:41:30.000Z</time>
      </trkpt>
      <trkpt lat="50.82442" lon="1.59504">
        <ele>13.9</ele>
        <time>2015-04-07T16:41:31.000Z</time>
      </trkpt>
      <trkpt lat="50.82442" lon="1.59505">
        <ele>13.9</ele>
        <time>2015-04-07T16:41:32.000Z</time>
      </trkpt>
      <trkpt lat="50.82442" lon="1.59507">
        <ele>13.9</ele>
        <time>2015-04-07T16:41:33.000Z</time>
      </trkpt>
      <trkpt lat="50.82443" lon="1.59508">
        <ele>13.9</ele>
        <time>2015-04-07T16:41:34.000Z</time>
      </trkpt>
      <trkpt lat="50.82443" lon="1.59509">
        <ele>13.9</ele>
        <time>2015-04-07T16:41:35.000Z</time>
      </trkpt>
      <trkpt lat="50.82443" lon="1.59511">
        <ele>14</ele>
        <time>2015-04-07T16:41:36.000Z</time>
      </trkpt>
      <trkpt lat="50.82444" lon="1.59512">
        <ele>14</ele>
        <time>2015-04-07T16:41:37.000Z</time>
      </trkpt>
      <trkpt lat="50.82444" lon="1.59514">
        <ele>14</ele>
        <time>2015-04-07T16:41:38.000Z</time>
      </trkpt>
      <trkpt lat="50.82444" lon="1.59515">
        <ele>14</ele>
        <time>2015-04-07T16:41:39.000Z</time>
      </trkpt>
      <trkpt lat="50.82444" lon="1.59517">
        <ele>14</ele>
        <time>2015-04-07T16:41:40.000Z</time>
      </trkpt>
      <trkpt lat="50.82445" lon="1.59519">
        <ele>14</ele>
        <time>2015-04-07T16:41:41.000Z</time>
      </trkpt>
      <trkpt lat="50.82445" lon="1.5952">
        <ele>14</ele>
        <time>2015-04-07T16:41:42.000Z</time>
      </trkpt>
      <trkpt lat="50.82445" lon="1.59522">
        <ele>14</ele>
        <time>2015-04-07T16:41:43.000Z</time>
      </trkpt>
      <trkpt lat="50.82445" lon="1.59524">
        <ele>14</ele>
        <time>2015-04-07T16:41:44.000Z</time>
      </trkpt>
      <trkpt lat="50.82446" lon="1.59525">
        <ele>14</ele>
        <time>2015-04-07T16:41:45.000Z</time>
      </trkpt>
      <trkpt lat="50.82446" lon="1.59527">
        <ele>14.1</ele>
        <time>2015-04-07T16:41:46.000Z</time>
      </trkpt>
      <trkpt lat="50.82446" lon="1.59529">
        <ele>14</ele>
        <time>2015-04-07T16:41:47.000Z</time>
      </trkpt>
      <trkpt lat="50.82447" lon="1.5953">
        <ele>14</ele>
        <time>2015-04-07T16:41:48.000Z</time>
      </trkpt>
      <trkpt lat="50.82447" lon="1.59532">
        <ele>14</ele>
        <time>2015-04-07T16:41:49.000Z</time>
      </trkpt>
      <trkpt lat="50.82447" lon="1.59533">
        <ele>13.9</ele>
        <time>2015-04-07T16:41:50.000Z</time>
      </trkpt>
      <trkpt lat="50.82448" lon="1.59535">
        <ele>13.9</ele>
        <time>2015-04-07T16:41:51.000Z</time>
      </trkpt>
      <trkpt lat="50.82448" lon="1.59537">
        <ele>13.9</ele>
        <time>2015-04-07T16:41:52.000Z</time>
      </trkpt>
      <trkpt lat="50.82448" lon="1.59538">
        <ele>13.8</ele>
        <time>2015-04-07T16:41:53.000Z</time>
      </trkpt>
      <trkpt lat="50.82449" lon="1.5954">
        <ele>13.8</ele>
        <time>2015-04-07T16:41:54.000Z</time>
      </trkpt>
      <trkpt lat="50.82449" lon="1.59541">
        <ele>13.8</ele>
        <time>2015-04-07T16:41:55.000Z</time>
      </trkpt>
      <trkpt lat="50.8245" lon="1.59543">
        <ele>13.7</ele>
        <time>2015-04-07T16:41:56.000Z</time>
      </trkpt>
      <trkpt lat="50.8245" lon="1.59544">
        <ele>13.7</ele>
        <time>2015-04-07T16:41:57.000Z</time>
      </trkpt>
      <trkpt lat="50.8245" lon="1.59546">
        <ele>13.7</ele>
        <time>2015-04-07T16:41:58.000Z</time>
      </trkpt>
      <trkpt lat="50.82451" lon="1.59547">
        <ele>13.7</ele>
        <time>2015-04-07T16:41:59.000Z</time>
      </trkpt>
      <trkpt lat="50.82451" lon="1.59549">
        <ele>13.7</ele>
        <time>2015-04-07T16:42:00.000Z</time>
      </trkpt>
      <trkpt lat="50.82451" lon="1.5955">
        <ele>13.6</ele>
        <time>2015-04-07T16:42:01.000Z</time>
      </trkpt>
      <trkpt lat="50.82452" lon="1.59552">
        <ele>13.6</ele>
        <time>2015-04-07T16:42:02.000Z</time>
      </trkpt>
      <trkpt lat="50.82452" lon="1.59553">
        <ele>13.6</ele>
        <time>2015-04-07T16:42:03.000Z</time>
      </trkpt>
      <trkpt lat="50.82453" lon="1.59555">
        <ele>13.6</ele>
        <time>2015-04-07T16:42:04.000Z</time>
      </trkpt>
      <trkpt lat="50.82453" lon="1.59557">
        <ele>13.6</ele>
        <time>2015-04-07T16:42:05.000Z</time>
      </trkpt>
      <trkpt lat="50.82454" lon="1.59558">
        <ele>13.7</ele>
        <time>2015-04-07T16:42:06.000Z</time>
      </trkpt>
      <trkpt lat="50.82454" lon="1.5956">
        <ele>13.7</ele>
        <time>2015-04-07T16:42:07.000Z</time>
      </trkpt>
      <trkpt lat="50.82454" lon="1.59562">
        <ele>13.8</ele>
        <time>2015-04-07T16:42:08.000Z</time>
      </trkpt>
      <trkpt lat="50.82455" lon="1.59564">
        <ele>13.8</ele>
        <time>2015-04-07T16:42:09.000Z</time>
      </trkpt>
      <trkpt lat="50.82455" lon="1.59566">
        <ele>13.9</ele>
        <time>2015-04-07T16:42:10.000Z</time>
      </trkpt>
      <trkpt lat="50.82456" lon="1.59567">
        <ele>13.9</ele>
        <time>2015-04-07T16:42:11.000Z</time>
      </trkpt>
      <trkpt lat="50.82456" lon="1.59569">
        <ele>13.9</ele>
        <time>2015-04-07T16:42:12.000Z</time>
      </trkpt>
      <trkpt lat="50.82457" lon="1.59571">
        <ele>13.9</ele>
        <time>2015-04-07T16:42:13.000Z</time>
      </trkpt>
      <trkpt lat="50.82457" lon="1.59573">
        <ele>14</ele>
        <time>2015-04-07T16:42:14.000Z</time>
      </trkpt>
      <trkpt lat="50.82458" lon="1.59575">
        <ele>14</ele>
        <time>2015-04-07T16:42:15.000Z</time>
      </trkpt>
      <trkpt lat="50.82458" lon="1.59577">
        <ele>14</ele>
        <time>2015-04-07T16:42:16.000Z</time>
      </trkpt>
      <trkpt lat="50.82459" lon="1.59579">
        <ele>14</ele>
        <time>2015-04-07T16:42:17.000Z</time>
      </trkpt>
      <trkpt lat="50.82459" lon="1.5958">
        <ele>14</ele>
        <time>2015-04-07T16:42:18.000Z</time>
      </trkpt>
      <trkpt lat="50.82459" lon="1.59582">
        <ele>14</ele>
        <time>2015-04-07T16:42:19.000Z</time>
      </trkpt>
      <trkpt lat="50.8246" lon="1.59584">
        <ele>14</ele>
        <time>2015-04-07T16:42:20.000Z</time>
      </trkpt>
      <trkpt lat="50.8246" lon="1.59586">
        <ele>14</ele>
        <time>2015-04-07T16:42:21.000Z</time>
      </trkpt>
      <trkpt lat="50.82461" lon="1.59587">
        <ele>14</ele>
        <time>2015-04-07T16:42:22.000Z</time>
      </trkpt>
      <trkpt lat="50.82461" lon="1.59589">
        <ele>14</ele>
        <time>2015-04-07T16:42:23.000Z</time>
      </trkpt>
      <trkpt lat="50.82462" lon="1.59591">
        <ele>14</ele>
        <time>2015-04-07T16:42:24.000Z</time>
      </trkpt>
      <trkpt lat="50.82462" lon="1.59593">
        <ele>14</ele>
        <time>2015-04-07T16:42:25.000Z</time>
      </trkpt>
      <trkpt lat="50.82462" lon="1.59595">
        <ele>14</ele>
        <time>2015-04-07T16:42:26.000Z</time>
      </trkpt>
      <trkpt lat="50.82463" lon="1.59597">
        <ele>14</ele>
        <time>2015-04-07T16:42:27.000Z</time>
      </trkpt>
      <trkpt lat="50.82463" lon="1.59599">
        <ele>14</ele>
        <time>2015-04-07T16:42:28.000Z</time>
      </trkpt>
      <trkpt lat="50.82463" lon="1.596">
        <ele>14</ele>
        <time>2015-04-07T16:42:29.000Z</time>
      </trkpt>
      <trkpt lat="50.82464" lon="1.59602">
        <ele>14</ele>
        <time>2015-04-07T16:42:30.000Z</time>
      </trkpt>
      <trkpt lat="50.82464" lon="1.59604">
        <ele>14</ele>
        <time>2015-04-07T16:42:31.000Z</time>
      </trkpt>
      <trkpt lat="50.82465" lon="1.59606">
        <ele>14</ele>
        <time>2015-04-07T16:42:32.000Z</time>
      </trkpt>
      <trkpt lat="50.82465" lon="1.59607">
        <ele>14</ele>
        <time>2015-04-07T16:42:33.000Z</time>
      </trkpt>
      <trkpt lat="50.82465" lon="1.59609">
        <ele>14</ele>
        <time>2015-04-07T16:42:34.000Z</time>
      </trkpt>
      <trkpt lat="50.82466" lon="1.59611">
        <ele>14</ele>
        <time>2015-04-07T16:42:35.000Z</time>
      </trkpt>
      <trkpt lat="50.82466" lon="1.59612">
        <ele>14</ele>
        <time>2015-04-07T16:42:36.000Z</time>
      </trkpt>
      <trkpt lat="50.82467" lon="1.59614">
        <ele>14</ele>
        <time>2015-04-07T16:42:37.000Z</time>
      </trkpt>
      <trkpt lat="50.82467" lon="1.59616">
        <ele>14</ele>
        <time>2015-04-07T16:42:38.000Z</time>
      </trkpt>
      <trkpt lat="50.82467" lon="1.59618">
        <ele>14</ele>
        <time>2015-04-07T16:42:39.000Z</time>
      </trkpt>
      <trkpt lat="50.82467" lon="1.59619">
        <ele>14</ele>
        <time>2015-04-07T16:42:40.000Z</time>
      </trkpt>
      <trkpt lat="50.82467" lon="1.5962">
        <ele>14</ele>
        <time>2015-04-07T16:42:41.000Z</time>
      </trkpt>
      <trkpt lat="50.82468" lon="1.59622">
        <ele>14</ele>
        <time>2015-04-07T16:42:42.000Z</time>
      </trkpt>
      <trkpt lat="50.82468" lon="1.59623">
        <ele>14</ele>
        <time>2015-04-07T16:42:43.000Z</time>
      </trkpt>
      <trkpt lat="50.82468" lon="1.59625">
        <ele>14</ele>
        <time>2015-04-07T16:42:44.000Z</time>
      </trkpt>
      <trkpt lat="50.82468" lon="1.59627">
        <ele>14</ele>
        <time>2015-04-07T16:42:45.000Z</time>
      </trkpt>
      <trkpt lat="50.82469" lon="1.59628">
        <ele>14</ele>
        <time>2015-04-07T16:42:46.000Z</time>
      </trkpt>
      <trkpt lat="50.82469" lon="1.5963">
        <ele>14</ele>
        <time>2015-04-07T16:42:47.000Z</time>
      </trkpt>
      <trkpt lat="50.82469" lon="1.59631">
        <ele>14</ele>
        <time>2015-04-07T16:42:48.000Z</time>
      </trkpt>
      <trkpt lat="50.8247" lon="1.59633">
        <ele>14</ele>
        <time>2015-04-07T16:42:49.000Z</time>
      </trkpt>
      <trkpt lat="50.8247" lon="1.59635">
        <ele>14</ele>
        <time>2015-04-07T16:42:50.000Z</time>
      </trkpt>
      <trkpt lat="50.8247" lon="1.59636">
        <ele>14</ele>
        <time>2015-04-07T16:42:51.000Z</time>
      </trkpt>
      <trkpt lat="50.8247" lon="1.59638">
        <ele>14</ele>
        <time>2015-04-07T16:42:52.000Z</time>
      </trkpt>
      <trkpt lat="50.8247" lon="1.5964">
        <ele>14</ele>
        <time>2015-04-07T16:42:53.000Z</time>
      </trkpt>
      <trkpt lat="50.82471" lon="1.59641">
        <ele>14</ele>
        <time>2015-04-07T16:42:54.000Z</time>
      </trkpt>
      <trkpt lat="50.82471" lon="1.59643">
        <ele>14</ele>
        <time>2015-04-07T16:42:55.000Z</time>
      </trkpt>
      <trkpt lat="50.82471" lon="1.59645">
        <ele>14</ele>
        <time>2015-04-07T16:42:56.000Z</time>
      </trkpt>
      <trkpt lat="50.82471" lon="1.59646">
        <ele>14</ele>
        <time>2015-04-07T16:42:57.000Z</time>
      </trkpt>
      <trkpt lat="50.82472" lon="1.59648">
        <ele>14</ele>
        <time>2015-04-07T16:42:58.000Z</time>
      </trkpt>
      <trkpt lat="50.82472" lon="1.5965">
        <ele>14</ele>
        <time>2015-04-07T16:42:59.000Z</time>
      </trkpt>
      <trkpt lat="50.82473" lon="1.59651">
        <ele>14</ele>
        <time>2015-04-07T16:43:00.000Z</time>
      </trkpt>
      <trkpt lat="50.82473" lon="1.59653">
        <ele>14</ele>
        <time>2015-04-07T16:43:01.000Z</time>
      </trkpt>
      <trkpt lat="50.82474" lon="1.59655">
        <ele>14.1</ele>
        <time>2015-04-07T16:43:02.000Z</time>
      </trkpt>
      <trkpt lat="50.82474" lon="1.59656">
        <ele>14.1</ele>
        <time>2015-04-07T16:43:03.000Z</time>
      </trkpt>
      <trkpt lat="50.82475" lon="1.59658">
        <ele>14.1</ele>
        <time>2015-04-07T16:43:04.000Z</time>
      </trkpt>
      <trkpt lat="50.82476" lon="1.59659">
        <ele>14.1</ele>
        <time>2015-04-07T16:43:05.000Z</time>
      </trkpt>
      <trkpt lat="50.82479" lon="1.59664">
        <ele>14.2</ele>
        <time>2015-04-07T16:43:06.000Z</time>
      </trkpt>
      <trkpt lat="50.82479" lon="1.59664">
        <ele>14.2</ele>
        <time>2015-04-07T16:43:07.000Z</time>
      </trkpt>
      <trkpt lat="50.8248" lon="1.59664">
        <ele>14.3</ele>
        <time>2015-04-07T16:43:08.000Z</time>
      </trkpt>
      <trkpt lat="50.8248" lon="1.59664">
        <ele>14.3</ele>
        <time>2015-04-07T16:43:09.000Z</time>
      </trkpt>
      <trkpt lat="50.8248" lon="1.59664">
        <ele>14.3</ele>
        <time>2015-04-07T16:43:10.000Z</time>
      </trkpt>
      <trkpt lat="50.8248" lon="1.59665">
        <ele>14.3</ele>
        <time>2015-04-07T16:43:11.000Z</time>
      </trkpt>
      <trkpt lat="50.8248" lon="1.59665">
        <ele>14.3</ele>
        <time>2015-04-07T16:43:12.000Z</time>
      </trkpt>
      <trkpt lat="50.82481" lon="1.59666">
        <ele>14.3</ele>
        <time>2015-04-07T16:43:13.000Z</time>
      </trkpt>
      <trkpt lat="50.82481" lon="1.59667">
        <ele>14.3</ele>
        <time>2015-04-07T16:43:14.000Z</time>
      </trkpt>
      <trkpt lat="50.82482" lon="1.59668">
        <ele>14.4</ele>
        <time>2015-04-07T16:43:15.000Z</time>
      </trkpt>
      <trkpt lat="50.82483" lon="1.59669">
        <ele>14.4</ele>
        <time>2015-04-07T16:43:16.000Z</time>
      </trkpt>
      <trkpt lat="50.82484" lon="1.59669">
        <ele>14.4</ele>
        <time>2015-04-07T16:43:17.000Z</time>
      </trkpt>
      <trkpt lat="50.82484" lon="1.5967">
        <ele>14.4</ele>
        <time>2015-04-07T16:43:18.000Z</time>
      </trkpt>
      <trkpt lat="50.82485" lon="1.59671">
        <ele>14.5</ele>
        <time>2015-04-07T16:43:19.000Z</time>
      </trkpt>
      <trkpt lat="50.82486" lon="1.59671">
        <ele>14.5</ele>
        <time>2015-04-07T16:43:20.000Z</time>
      </trkpt>
      <trkpt lat="50.82488" lon="1.59672">
        <ele>14.6</ele>
        <time>2015-04-07T16:43:21.000Z</time>
      </trkpt>
      <trkpt lat="50.82489" lon="1.59673">
        <ele>14.6</ele>
        <time>2015-04-07T16:43:22.000Z</time>
      </trkpt>
      <trkpt lat="50.8249" lon="1.59673">
        <ele>14.6</ele>
        <time>2015-04-07T16:43:23.000Z</time>
      </trkpt>
      <trkpt lat="50.82491" lon="1.59674">
        <ele>14.7</ele>
        <time>2015-04-07T16:43:24.000Z</time>
      </trkpt>
      <trkpt lat="50.82492" lon="1.59674">
        <ele>14.7</ele>
        <time>2015-04-07T16:43:25.000Z</time>
      </trkpt>
      <trkpt lat="50.82493" lon="1.59675">
        <ele>14.7</ele>
        <time>2015-04-07T16:43:26.000Z</time>
      </trkpt>
      <trkpt lat="50.82494" lon="1.59675">
        <ele>14.8</ele>
        <time>2015-04-07T16:43:27.000Z</time>
      </trkpt>
      <trkpt lat="50.82495" lon="1.59675">
        <ele>14.8</ele>
        <time>2015-04-07T16:43:28.000Z</time>
      </trkpt>
      <trkpt lat="50.82496" lon="1.59676">
        <ele>14.9</ele>
        <time>2015-04-07T16:43:29.000Z</time>
      </trkpt>
      <trkpt lat="50.82498" lon="1.59676">
        <ele>14.9</ele>
        <time>2015-04-07T16:43:30.000Z</time>
      </trkpt>
      <trkpt lat="50.82499" lon="1.59676">
        <ele>15</ele>
        <time>2015-04-07T16:43:31.000Z</time>
      </trkpt>
      <trkpt lat="50.82503" lon="1.59677">
        <ele>15</ele>
        <time>2015-04-07T16:43:32.000Z</time>
      </trkpt>
      <trkpt lat="50.82503" lon="1.59677">
        <ele>15</ele>
        <time>2015-04-07T16:43:33.000Z</time>
      </trkpt>
      <trkpt lat="50.82504" lon="1.59677">
        <ele>15</ele>
        <time>2015-04-07T16:43:34.000Z</time>
      </trkpt>
      <trkpt lat="50.82504" lon="1.59677">
        <ele>14.9</ele>
        <time>2015-04-07T16:43:35.000Z</time>
      </trkpt>
      <trkpt lat="50.82505" lon="1.59677">
        <ele>14.9</ele>
        <time>2015-04-07T16:43:36.000Z</time>
      </trkpt>
      <trkpt lat="50.82506" lon="1.59677">
        <ele>14.9</ele>
        <time>2015-04-07T16:43:37.000Z</time>
      </trkpt>
      <trkpt lat="50.82507" lon="1.59676">
        <ele>14.9</ele>
        <time>2015-04-07T16:43:38.000Z</time>
      </trkpt>
      <trkpt lat="50.82508" lon="1.59676">
        <ele>14.9</ele>
        <time>2015-04-07T16:43:39.000Z</time>
      </trkpt>
      <trkpt lat="50.82509" lon="1.59675">
        <ele>14.9</ele>
        <time>2015-04-07T16:43:40.000Z</time>
      </trkpt>
      <trkpt lat="50.8251" lon="1.59675">
        <ele>14.9</ele>
        <time>2015-04-07T16:43:41.000Z</time>
      </trkpt>
      <trkpt lat="50.82511" lon="1.59674">
        <ele>14.9</ele>
        <time>2015-04-07T16:43:42.000Z</time>
      </trkpt>
      <trkpt lat="50.82512" lon="1.59673">
        <ele>14.9</ele>
        <time>2015-04-07T16:43:43.000Z</time>
      </trkpt>
      <trkpt lat="50.82513" lon="1.59672">
        <ele>14.9</ele>
        <time>2015-04-07T16:43:44.000Z</time>
      </trkpt>
      <trkpt lat="50.82514" lon="1.59672">
        <ele>14.9</ele>
        <time>2015-04-07T16:43:45.000Z</time>
      </trkpt>
      <trkpt lat="50.82515" lon="1.5967">
        <ele>14.9</ele>
        <time>2015-04-07T16:43:46.000Z</time>
      </trkpt>
      <trkpt lat="50.82516" lon="1.59669">
        <ele>14.9</ele>
        <time>2015-04-07T16:43:47.000Z</time>
      </trkpt>
      <trkpt lat="50.82517" lon="1.59668">
        <ele>15</ele>
        <time>2015-04-07T16:43:48.000Z</time>
      </trkpt>
      <trkpt lat="50.82518" lon="1.59667">
        <ele>15</ele>
        <time>2015-04-07T16:43:49.000Z</time>
      </trkpt>
      <trkpt lat="50.82519" lon="1.59666">
        <ele>15</ele>
        <time>2015-04-07T16:43:50.000Z</time>
      </trkpt>
      <trkpt lat="50.8252" lon="1.59664">
        <ele>15</ele>
        <time>2015-04-07T16:43:51.000Z</time>
      </trkpt>
      <trkpt lat="50.82521" lon="1.59663">
        <ele>15</ele>
        <time>2015-04-07T16:43:52.000Z</time>
      </trkpt>
      <trkpt lat="50.82522" lon="1.59662">
        <ele>15</ele>
        <time>2015-04-07T16:43:53.000Z</time>
      </trkpt>
      <trkpt lat="50.82523" lon="1.59661">
        <ele>15</ele>
        <time>2015-04-07T16:43:54.000Z</time>
      </trkpt>
      <trkpt lat="50.82524" lon="1.59659">
        <ele>15</ele>
        <time>2015-04-07T16:43:55.000Z</time>
      </trkpt>
      <trkpt lat="50.82525" lon="1.59658">
        <ele>15</ele>
        <time>2015-04-07T16:43:56.000Z</time>
      </trkpt>
      <trkpt lat="50.82526" lon="1.59657">
        <ele>15</ele>
        <time>2015-04-07T16:43:57.000Z</time>
      </trkpt>
      <trkpt lat="50.82527" lon="1.59655">
        <ele>15</ele>
        <time>2015-04-07T16:43:58.000Z</time>
      </trkpt>
      <trkpt lat="50.82528" lon="1.59654">
        <ele>15</ele>
        <time>2015-04-07T16:43:59.000Z</time>
      </trkpt>
      <trkpt lat="50.82529" lon="1.59653">
        <ele>15</ele>
        <time>2015-04-07T16:44:00.000Z</time>
      </trkpt>
      <trkpt lat="50.8253" lon="1.59652">
        <ele>15</ele>
        <time>2015-04-07T16:44:01.000Z</time>
      </trkpt>
      <trkpt lat="50.82531" lon="1.59651">
        <ele>15</ele>
        <time>2015-04-07T16:44:02.000Z</time>
      </trkpt>
      <trkpt lat="50.82532" lon="1.59649">
        <ele>15</ele>
        <time>2015-04-07T16:44:03.000Z</time>
      </trkpt>
      <trkpt lat="50.82533" lon="1.59648">
        <ele>15</ele>
        <time>2015-04-07T16:44:04.000Z</time>
      </trkpt>
      <trkpt lat="50.82534" lon="1.59647">
        <ele>15</ele>
        <time>2015-04-07T16:44:05.000Z</time>
      </trkpt>
      <trkpt lat="50.82535" lon="1.59645">
        <ele>15</ele>
        <time>2015-04-07T16:44:06.000Z</time>
      </trkpt>
      <trkpt lat="50.82536" lon="1.59644">
        <ele>15</ele>
        <time>2015-04-07T16:44:07.000Z</time>
      </trkpt>
      <trkpt lat="50.82538" lon="1.59643">
        <ele>15</ele>
        <time>2015-04-07T16:44:08.000Z</time>
      </trkpt>
      <trkpt lat="50.82539" lon="1.59641">
        <ele>15</ele>
        <time>2015-04-07T16:44:09.000Z</time>
      </trkpt>
      <trkpt lat="50.8254" lon="1.5964">
        <ele>15</ele>
        <time>2015-04-07T16:44:10.000Z</time>
      </trkpt>
      <trkpt lat="50.82541" lon="1.59639">
        <ele>15</ele>
        <time>2015-04-07T16:44:11.000Z</time>
      </trkpt>
      <trkpt lat="50.82542" lon="1.59638">
        <ele>15</ele>
        <time>2015-04-07T16:44:12.000Z</time>
      </trkpt>
      <trkpt lat="50.82543" lon="1.59637">
        <ele>15</ele>
        <time>2015-04-07T16:44:13.000Z</time>
      </trkpt>
      <trkpt lat="50.82545" lon="1.59637">
        <ele>15.1</ele>
        <time>2015-04-07T16:44:14.000Z</time>
      </trkpt>
      <trkpt lat="50.82546" lon="1.59636">
        <ele>15.1</ele>
        <time>2015-04-07T16:44:15.000Z</time>
      </trkpt>
      <trkpt lat="50.82547" lon="1.59635">
        <ele>15.1</ele>
        <time>2015-04-07T16:44:16.000Z</time>
      </trkpt>
      <trkpt lat="50.82548" lon="1.59635">
        <ele>15.1</ele>
        <time>2015-04-07T16:44:17.000Z</time>
      </trkpt>
      <trkpt lat="50.82549" lon="1.59635">
        <ele>15.1</ele>
        <time>2015-04-07T16:44:18.000Z</time>
      </trkpt>
      <trkpt lat="50.82551" lon="1.59636">
        <ele>15.1</ele>
        <time>2015-04-07T16:44:19.000Z</time>
      </trkpt>
      <trkpt lat="50.82552" lon="1.59636">
        <ele>15.1</ele>
        <time>2015-04-07T16:44:20.000Z</time>
      </trkpt>
      <trkpt lat="50.82553" lon="1.59637">
        <ele>15.1</ele>
        <time>2015-04-07T16:44:21.000Z</time>
      </trkpt>
      <trkpt lat="50.82555" lon="1.59637">
        <ele>15.1</ele>
        <time>2015-04-07T16:44:22.000Z</time>
      </trkpt>
      <trkpt lat="50.82556" lon="1.59638">
        <ele>15</ele>
        <time>2015-04-07T16:44:23.000Z</time>
      </trkpt>
      <trkpt lat="50.82557" lon="1.59639">
        <ele>15</ele>
        <time>2015-04-07T16:44:24.000Z</time>
      </trkpt>
      <trkpt lat="50.82558" lon="1.5964">
        <ele>15.1</ele>
        <time>2015-04-07T16:44:25.000Z</time>
      </trkpt>
      <trkpt lat="50.82559" lon="1.59641">
        <ele>15.1</ele>
        <time>2015-04-07T16:44:26.000Z</time>
      </trkpt>
      <trkpt lat="50.8256" lon="1.59642">
        <ele>15.2</ele>
        <time>2015-04-07T16:44:27.000Z</time>
      </trkpt>
      <trkpt lat="50.82561" lon="1.59643">
        <ele>15.2</ele>
        <time>2015-04-07T16:44:28.000Z</time>
      </trkpt>
      <trkpt lat="50.82562" lon="1.59644">
        <ele>15.2</ele>
        <time>2015-04-07T16:44:29.000Z</time>
      </trkpt>
      <trkpt lat="50.82564" lon="1.59645">
        <ele>15.3</ele>
        <time>2015-04-07T16:44:30.000Z</time>
      </trkpt>
      <trkpt lat="50.82565" lon="1.59647">
        <ele>15.3</ele>
        <time>2015-04-07T16:44:31.000Z</time>
      </trkpt>
      <trkpt lat="50.82566" lon="1.59648">
        <ele>15.4</ele>
        <time>2015-04-07T16:44:32.000Z</time>
      </trkpt>
      <trkpt lat="50.82567" lon="1.59649">
        <ele>15.4</ele>
        <time>2015-04-07T16:44:33.000Z</time>
      </trkpt>
      <trkpt lat="50.82568" lon="1.5965">
        <ele>15.4</ele>
        <time>2015-04-07T16:44:34.000Z</time>
      </trkpt>
      <trkpt lat="50.82569" lon="1.59651">
        <ele>15.5</ele>
        <time>2015-04-07T16:44:35.000Z</time>
      </trkpt>
      <trkpt lat="50.8257" lon="1.59652">
        <ele>15.5</ele>
        <time>2015-04-07T16:44:36.000Z</time>
      </trkpt>
      <trkpt lat="50.82571" lon="1.59653">
        <ele>15.5</ele>
        <time>2015-04-07T16:44:37.000Z</time>
      </trkpt>
      <trkpt lat="50.82572" lon="1.59655">
        <ele>15.6</ele>
        <time>2015-04-07T16:44:38.000Z</time>
      </trkpt>
      <trkpt lat="50.82573" lon="1.59656">
        <ele>15.6</ele>
        <time>2015-04-07T16:44:39.000Z</time>
      </trkpt>
      <trkpt lat="50.82574" lon="1.59657">
        <ele>15.7</ele>
        <time>2015-04-07T16:44:40.000Z</time>
      </trkpt>
      <trkpt lat="50.82575" lon="1.59658">
        <ele>15.7</ele>
        <time>2015-04-07T16:44:41.000Z</time>
      </trkpt>
      <trkpt lat="50.82576" lon="1.59659">
        <ele>15.7</ele>
        <time>2015-04-07T16:44:42.000Z</time>
      </trkpt>
      <trkpt lat="50.82577" lon="1.59661">
        <ele>15.8</ele>
        <time>2015-04-07T16:44:43.000Z</time>
      </trkpt>
      <trkpt lat="50.82578" lon="1.59662">
        <ele>15.8</ele>
        <time>2015-04-07T16:44:44.000Z</time>
      </trkpt>
      <trkpt lat="50.82578" lon="1.59663">
        <ele>15.8</ele>
        <time>2015-04-07T16:44:45.000Z</time>
      </trkpt>
      <trkpt lat="50.82579" lon="1.59664">
        <ele>15.9</ele>
        <time>2015-04-07T16:44:46.000Z</time>
      </trkpt>
      <trkpt lat="50.8258" lon="1.59665">
        <ele>15.9</ele>
        <time>2015-04-07T16:44:47.000Z</time>
      </trkpt>
      <trkpt lat="50.82581" lon="1.59666">
        <ele>15.9</ele>
        <time>2015-04-07T16:44:48.000Z</time>
      </trkpt>
      <trkpt lat="50.82582" lon="1.59667">
        <ele>16</ele>
        <time>2015-04-07T16:44:49.000Z</time>
      </trkpt>
      <trkpt lat="50.82584" lon="1.59669">
        <ele>16</ele>
        <time>2015-04-07T16:44:50.000Z</time>
      </trkpt>
      <trkpt lat="50.82585" lon="1.5967">
        <ele>16</ele>
        <time>2015-04-07T16:44:51.000Z</time>
      </trkpt>
      <trkpt lat="50.82586" lon="1.59671">
        <ele>16.1</ele>
        <time>2015-04-07T16:44:52.000Z</time>
      </trkpt>
      <trkpt lat="50.82587" lon="1.59672">
        <ele>16.1</ele>
        <time>2015-04-07T16:44:53.000Z</time>
      </trkpt>
      <trkpt lat="50.82588" lon="1.59673">
        <ele>16.2</ele>
        <time>2015-04-07T16:44:54.000Z</time>
      </trkpt>
      <trkpt lat="50.82589" lon="1.59674">
        <ele>16.2</ele>
        <time>2015-04-07T16:44:55.000Z</time>
      </trkpt>
      <trkpt lat="50.8259" lon="1.59675">
        <ele>16.2</ele>
        <time>2015-04-07T16:44:56.000Z</time>
      </trkpt>
      <trkpt lat="50.82591" lon="1.59677">
        <ele>16.3</ele>
        <time>2015-04-07T16:44:57.000Z</time>
      </trkpt>
      <trkpt lat="50.82592" lon="1.59678">
        <ele>16.3</ele>
        <time>2015-04-07T16:44:58.000Z</time>
      </trkpt>
      <trkpt lat="50.82593" lon="1.59679">
        <ele>16.3</ele>
        <time>2015-04-07T16:44:59.000Z</time>
      </trkpt>
      <trkpt lat="50.82594" lon="1.5968">
        <ele>16.4</ele>
        <time>2015-04-07T16:45:00.000Z</time>
      </trkpt>
      <trkpt lat="50.82595" lon="1.59682">
        <ele>16.4</ele>
        <time>2015-04-07T16:45:01.000Z</time>
      </trkpt>
      <trkpt lat="50.82596" lon="1.59683">
        <ele>16.4</ele>
        <time>2015-04-07T16:45:02.000Z</time>
      </trkpt>
      <trkpt lat="50.82597" lon="1.59684">
        <ele>16.5</ele>
        <time>2015-04-07T16:45:03.000Z</time>
      </trkpt>
      <trkpt lat="50.82598" lon="1.59685">
        <ele>16.5</ele>
        <time>2015-04-07T16:45:04.000Z</time>
      </trkpt>
      <trkpt lat="50.82599" lon="1.59687">
        <ele>16.6</ele>
        <time>2015-04-07T16:45:05.000Z</time>
      </trkpt>
      <trkpt lat="50.826" lon="1.59688">
        <ele>16.6</ele>
        <time>2015-04-07T16:45:06.000Z</time>
      </trkpt>
      <trkpt lat="50.82601" lon="1.59689">
        <ele>16.6</ele>
        <time>2015-04-07T16:45:07.000Z</time>
      </trkpt>
      <trkpt lat="50.82602" lon="1.5969">
        <ele>16.7</ele>
        <time>2015-04-07T16:45:08.000Z</time>
      </trkpt>
      <trkpt lat="50.82603" lon="1.59692">
        <ele>16.7</ele>
        <time>2015-04-07T16:45:09.000Z</time>
      </trkpt>
      <trkpt lat="50.82604" lon="1.59693">
        <ele>16.7</ele>
        <time>2015-04-07T16:45:10.000Z</time>
      </trkpt>
      <trkpt lat="50.82605" lon="1.59694">
        <ele>16.8</ele>
        <time>2015-04-07T16:45:11.000Z</time>
      </trkpt>
      <trkpt lat="50.82606" lon="1.59695">
        <ele>16.8</ele>
        <time>2015-04-07T16:45:12.000Z</time>
      </trkpt>
      <trkpt lat="50.82607" lon="1.59696">
        <ele>16.8</ele>
        <time>2015-04-07T16:45:13.000Z</time>
      </trkpt>
      <trkpt lat="50.82608" lon="1.59697">
        <ele>16.8</ele>
        <time>2015-04-07T16:45:14.000Z</time>
      </trkpt>
      <trkpt lat="50.82609" lon="1.59699">
        <ele>16.8</ele>
        <time>2015-04-07T16:45:15.000Z</time>
      </trkpt>
      <trkpt lat="50.82611" lon="1.597">
        <ele>16.8</ele>
        <time>2015-04-07T16:45:16.000Z</time>
      </trkpt>
      <trkpt lat="50.82612" lon="1.59701">
        <ele>16.8</ele>
        <time>2015-04-07T16:45:17.000Z</time>
      </trkpt>
      <trkpt lat="50.82613" lon="1.59703">
        <ele>16.7</ele>
        <time>2015-04-07T16:45:18.000Z</time>
      </trkpt>
      <trkpt lat="50.82614" lon="1.59704">
        <ele>16.7</ele>
        <time>2015-04-07T16:45:19.000Z</time>
      </trkpt>
      <trkpt lat="50.82615" lon="1.59705">
        <ele>16.7</ele>
        <time>2015-04-07T16:45:20.000Z</time>
      </trkpt>
      <trkpt lat="50.82616" lon="1.59706">
        <ele>16.6</ele>
        <time>2015-04-07T16:45:21.000Z</time>
      </trkpt>
      <trkpt lat="50.82617" lon="1.59708">
        <ele>16.6</ele>
        <time>2015-04-07T16:45:22.000Z</time>
      </trkpt>
      <trkpt lat="50.82618" lon="1.59709">
        <ele>16.6</ele>
        <time>2015-04-07T16:45:23.000Z</time>
      </trkpt>
      <trkpt lat="50.82619" lon="1.5971">
        <ele>16.6</ele>
        <time>2015-04-07T16:45:24.000Z</time>
      </trkpt>
      <trkpt lat="50.8262" lon="1.59711">
        <ele>16.6</ele>
        <time>2015-04-07T16:45:25.000Z</time>
      </trkpt>
      <trkpt lat="50.82621" lon="1.59712">
        <ele>16.6</ele>
        <time>2015-04-07T16:45:26.000Z</time>
      </trkpt>
      <trkpt lat="50.82622" lon="1.59713">
        <ele>16.6</ele>
        <time>2015-04-07T16:45:27.000Z</time>
      </trkpt>
      <trkpt lat="50.82624" lon="1.59715">
        <ele>16.6</ele>
        <time>2015-04-07T16:45:28.000Z</time>
      </trkpt>
      <trkpt lat="50.82625" lon="1.59716">
        <ele>16.6</ele>
        <time>2015-04-07T16:45:29.000Z</time>
      </trkpt>
      <trkpt lat="50.82626" lon="1.59717">
        <ele>16.6</ele>
        <time>2015-04-07T16:45:30.000Z</time>
      </trkpt>
      <trkpt lat="50.82627" lon="1.59718">
        <ele>16.6</ele>
        <time>2015-04-07T16:45:31.000Z</time>
      </trkpt>
      <trkpt lat="50.82628" lon="1.59719">
        <ele>16.6</ele>
        <time>2015-04-07T16:45:32.000Z</time>
      </trkpt>
      <trkpt lat="50.82629" lon="1.59721">
        <ele>16.7</ele>
        <time>2015-04-07T16:45:33.000Z</time>
      </trkpt>
      <trkpt lat="50.8263" lon="1.59722">
        <ele>16.7</ele>
        <time>2015-04-07T16:45:34.000Z</time>
      </trkpt>
      <trkpt lat="50.82631" lon="1.59723">
        <ele>16.7</ele>
        <time>2015-04-07T16:45:35.000Z</time>
      </trkpt>
      <trkpt lat="50.82632" lon="1.59724">
        <ele>16.8</ele>
        <time>2015-04-07T16:45:36.000Z</time>
      </trkpt>
      <trkpt lat="50.82633" lon="1.59726">
        <ele>16.8</ele>
        <time>2015-04-07T16:45:37.000Z</time>
      </trkpt>
      <trkpt lat="50.82634" lon="1.59727">
        <ele>16.8</ele>
        <time>2015-04-07T16:45:38.000Z</time>
      </trkpt>
      <trkpt lat="50.82635" lon="1.59728">
        <ele>16.9</ele>
        <time>2015-04-07T16:45:39.000Z</time>
      </trkpt>
      <trkpt lat="50.82636" lon="1.5973">
        <ele>16.9</ele>
        <time>2015-04-07T16:45:40.000Z</time>
      </trkpt>
      <trkpt lat="50.82637" lon="1.59731">
        <ele>16.9</ele>
        <time>2015-04-07T16:45:41.000Z</time>
      </trkpt>
      <trkpt lat="50.82638" lon="1.59732">
        <ele>17</ele>
        <time>2015-04-07T16:45:42.000Z</time>
      </trkpt>
      <trkpt lat="50.82639" lon="1.59733">
        <ele>17</ele>
        <time>2015-04-07T16:45:43.000Z</time>
      </trkpt>
      <trkpt lat="50.8264" lon="1.59735">
        <ele>17</ele>
        <time>2015-04-07T16:45:44.000Z</time>
      </trkpt>
      <trkpt lat="50.82641" lon="1.59736">
        <ele>17.1</ele>
        <time>2015-04-07T16:45:45.000Z</time>
      </trkpt>
      <trkpt lat="50.82642" lon="1.59737">
        <ele>17.1</ele>
        <time>2015-04-07T16:45:46.000Z</time>
      </trkpt>
      <trkpt lat="50.82643" lon="1.59738">
        <ele>17.1</ele>
        <time>2015-04-07T16:45:47.000Z</time>
      </trkpt>
      <trkpt lat="50.82644" lon="1.5974">
        <ele>17.2</ele>
        <time>2015-04-07T16:45:48.000Z</time>
      </trkpt>
      <trkpt lat="50.82645" lon="1.59741">
        <ele>17.2</ele>
        <time>2015-04-07T16:45:49.000Z</time>
      </trkpt>
      <trkpt lat="50.82646" lon="1.59742">
        <ele>17.3</ele>
        <time>2015-04-07T16:45:50.000Z</time>
      </trkpt>
      <trkpt lat="50.82647" lon="1.59743">
        <ele>17.3</ele>
        <time>2015-04-07T16:45:51.000Z</time>
      </trkpt>
      <trkpt lat="50.82648" lon="1.59745">
        <ele>17.3</ele>
        <time>2015-04-07T16:45:52.000Z</time>
      </trkpt>
      <trkpt lat="50.82649" lon="1.59746">
        <ele>17.4</ele>
        <time>2015-04-07T16:45:53.000Z</time>
      </trkpt>
      <trkpt lat="50.8265" lon="1.59747">
        <ele>17.4</ele>
        <time>2015-04-07T16:45:54.000Z</time>
      </trkpt>
      <trkpt lat="50.82651" lon="1.59748">
        <ele>17.4</ele>
        <time>2015-04-07T16:45:55.000Z</time>
      </trkpt>
      <trkpt lat="50.82652" lon="1.59749">
        <ele>17.5</ele>
        <time>2015-04-07T16:45:56.000Z</time>
      </trkpt>
      <trkpt lat="50.82653" lon="1.59751">
        <ele>17.5</ele>
        <time>2015-04-07T16:45:57.000Z</time>
      </trkpt>
      <trkpt lat="50.82654" lon="1.59752">
        <ele>17.5</ele>
        <time>2015-04-07T16:45:58.000Z</time>
      </trkpt>
      <trkpt lat="50.82655" lon="1.59753">
        <ele>17.5</ele>
        <time>2015-04-07T16:45:59.000Z</time>
      </trkpt>
      <trkpt lat="50.82656" lon="1.59754">
        <ele>17.5</ele>
        <time>2015-04-07T16:46:00.000Z</time>
      </trkpt>
      <trkpt lat="50.82657" lon="1.59756">
        <ele>17.5</ele>
        <time>2015-04-07T16:46:01.000Z</time>
      </trkpt>
      <trkpt lat="50.82658" lon="1.59757">
        <ele>17.5</ele>
        <time>2015-04-07T16:46:02.000Z</time>
      </trkpt>
      <trkpt lat="50.82658" lon="1.59758">
        <ele>17.5</ele>
        <time>2015-04-07T16:46:03.000Z</time>
      </trkpt>
      <trkpt lat="50.82659" lon="1.59759">
        <ele>17.5</ele>
        <time>2015-04-07T16:46:04.000Z</time>
      </trkpt>
      <trkpt lat="50.8266" lon="1.5976">
        <ele>17.5</ele>
        <time>2015-04-07T16:46:05.000Z</time>
      </trkpt>
      <trkpt lat="50.82661" lon="1.59761">
        <ele>17.5</ele>
        <time>2015-04-07T16:46:06.000Z</time>
      </trkpt>
      <trkpt lat="50.82662" lon="1.59763">
        <ele>17.5</ele>
        <time>2015-04-07T16:46:07.000Z</time>
      </trkpt>
      <trkpt lat="50.82663" lon="1.59764">
        <ele>17.4</ele>
        <time>2015-04-07T16:46:08.000Z</time>
      </trkpt>
      <trkpt lat="50.82664" lon="1.59765">
        <ele>17.4</ele>
        <time>2015-04-07T16:46:09.000Z</time>
      </trkpt>
      <trkpt lat="50.82665" lon="1.59766">
        <ele>17.4</ele>
        <time>2015-04-07T16:46:10.000Z</time>
      </trkpt>
      <trkpt lat="50.82666" lon="1.59768">
        <ele>17.4</ele>
        <time>2015-04-07T16:46:11.000Z</time>
      </trkpt>
      <trkpt lat="50.82667" lon="1.59769">
        <ele>17.3</ele>
        <time>2015-04-07T16:46:12.000Z</time>
      </trkpt>
      <trkpt lat="50.82668" lon="1.5977">
        <ele>17.3</ele>
        <time>2015-04-07T16:46:13.000Z</time>
      </trkpt>
      <trkpt lat="50.82669" lon="1.59771">
        <ele>17.4</ele>
        <time>2015-04-07T16:46:14.000Z</time>
      </trkpt>
      <trkpt lat="50.8267" lon="1.59773">
        <ele>17.4</ele>
        <time>2015-04-07T16:46:15.000Z</time>
      </trkpt>
      <trkpt lat="50.8267" lon="1.59774">
        <ele>17.4</ele>
        <time>2015-04-07T16:46:16.000Z</time>
      </trkpt>
      <trkpt lat="50.82671" lon="1.59775">
        <ele>17.4</ele>
        <time>2015-04-07T16:46:17.000Z</time>
      </trkpt>
      <trkpt lat="50.82672" lon="1.59776">
        <ele>17.4</ele>
        <time>2015-04-07T16:46:18.000Z</time>
      </trkpt>
      <trkpt lat="50.82673" lon="1.59778">
        <ele>17.5</ele>
        <time>2015-04-07T16:46:19.000Z</time>
      </trkpt>
      <trkpt lat="50.82674" lon="1.59779">
        <ele>17.5</ele>
        <time>2015-04-07T16:46:20.000Z</time>
      </trkpt>
      <trkpt lat="50.82675" lon="1.5978">
        <ele>17.6</ele>
        <time>2015-04-07T16:46:21.000Z</time>
      </trkpt>
      <trkpt lat="50.82676" lon="1.59781">
        <ele>17.7</ele>
        <time>2015-04-07T16:46:22.000Z</time>
      </trkpt>
      <trkpt lat="50.82677" lon="1.59783">
        <ele>17.8</ele>
        <time>2015-04-07T16:46:23.000Z</time>
      </trkpt>
      <trkpt lat="50.82678" lon="1.59784">
        <ele>17.8</ele>
        <time>2015-04-07T16:46:24.000Z</time>
      </trkpt>
      <trkpt lat="50.82678" lon="1.59785">
        <ele>17.9</ele>
        <time>2015-04-07T16:46:25.000Z</time>
      </trkpt>
      <trkpt lat="50.82679" lon="1.59786">
        <ele>17.9</ele>
        <time>2015-04-07T16:46:26.000Z</time>
      </trkpt>
      <trkpt lat="50.8268" lon="1.59788">
        <ele>18</ele>
        <time>2015-04-07T16:46:27.000Z</time>
      </trkpt>
      <trkpt lat="50.82681" lon="1.59789">
        <ele>18</ele>
        <time>2015-04-07T16:46:28.000Z</time>
      </trkpt>
      <trkpt lat="50.82682" lon="1.59791">
        <ele>18.1</ele>
        <time>2015-04-07T16:46:29.000Z</time>
      </trkpt>
      <trkpt lat="50.82683" lon="1.59792">
        <ele>18.1</ele>
        <time>2015-04-07T16:46:30.000Z</time>
      </trkpt>
      <trkpt lat="50.82684" lon="1.59793">
        <ele>18.1</ele>
        <time>2015-04-07T16:46:31.000Z</time>
      </trkpt>
      <trkpt lat="50.82685" lon="1.59795">
        <ele>18.1</ele>
        <time>2015-04-07T16:46:32.000Z</time>
      </trkpt>
      <trkpt lat="50.82686" lon="1.59796">
        <ele>18.1</ele>
        <time>2015-04-07T16:46:33.000Z</time>
      </trkpt>
      <trkpt lat="50.82687" lon="1.59797">
        <ele>18.1</ele>
        <time>2015-04-07T16:46:34.000Z</time>
      </trkpt>
      <trkpt lat="50.82687" lon="1.59798">
        <ele>18.1</ele>
        <time>2015-04-07T16:46:35.000Z</time>
      </trkpt>
      <trkpt lat="50.82688" lon="1.598">
        <ele>18.1</ele>
        <time>2015-04-07T16:46:36.000Z</time>
      </trkpt>
      <trkpt lat="50.82689" lon="1.59801">
        <ele>18.1</ele>
        <time>2015-04-07T16:46:37.000Z</time>
      </trkpt>
      <trkpt lat="50.8269" lon="1.59802">
        <ele>18.1</ele>
        <time>2015-04-07T16:46:38.000Z</time>
      </trkpt>
      <trkpt lat="50.82691" lon="1.59803">
        <ele>18.1</ele>
        <time>2015-04-07T16:46:39.000Z</time>
      </trkpt>
      <trkpt lat="50.82692" lon="1.59805">
        <ele>18</ele>
        <time>2015-04-07T16:46:40.000Z</time>
      </trkpt>
      <trkpt lat="50.82693" lon="1.59806">
        <ele>18</ele>
        <time>2015-04-07T16:46:41.000Z</time>
      </trkpt>
      <trkpt lat="50.82694" lon="1.59807">
        <ele>18</ele>
        <time>2015-04-07T16:46:42.000Z</time>
      </trkpt>
      <trkpt lat="50.82695" lon="1.59808">
        <ele>18</ele>
        <time>2015-04-07T16:46:43.000Z</time>
      </trkpt>
      <trkpt lat="50.82696" lon="1.59809">
        <ele>18.1</ele>
        <time>2015-04-07T16:46:44.000Z</time>
      </trkpt>
      <trkpt lat="50.82697" lon="1.5981">
        <ele>18.1</ele>
        <time>2015-04-07T16:46:45.000Z</time>
      </trkpt>
      <trkpt lat="50.82698" lon="1.59811">
        <ele>18.1</ele>
        <time>2015-04-07T16:46:46.000Z</time>
      </trkpt>
      <trkpt lat="50.82699" lon="1.59812">
        <ele>18.2</ele>
        <time>2015-04-07T16:46:47.000Z</time>
      </trkpt>
      <trkpt lat="50.827" lon="1.59813">
        <ele>18.2</ele>
        <time>2015-04-07T16:46:48.000Z</time>
      </trkpt>
      <trkpt lat="50.82701" lon="1.59814">
        <ele>18.2</ele>
        <time>2015-04-07T16:46:49.000Z</time>
      </trkpt>
      <trkpt lat="50.82702" lon="1.59815">
        <ele>18.3</ele>
        <time>2015-04-07T16:46:50.000Z</time>
      </trkpt>
      <trkpt lat="50.82703" lon="1.59817">
        <ele>18.3</ele>
        <time>2015-04-07T16:46:51.000Z</time>
      </trkpt>
      <trkpt lat="50.82704" lon="1.59818">
        <ele>18.4</ele>
        <time>2015-04-07T16:46:52.000Z</time>
      </trkpt>
      <trkpt lat="50.82705" lon="1.59819">
        <ele>18.4</ele>
        <time>2015-04-07T16:46:53.000Z</time>
      </trkpt>
      <trkpt lat="50.82706" lon="1.5982">
        <ele>18.4</ele>
        <time>2015-04-07T16:46:54.000Z</time>
      </trkpt>
      <trkpt lat="50.82707" lon="1.59821">
        <ele>18.5</ele>
        <time>2015-04-07T16:46:55.000Z</time>
      </trkpt>
      <trkpt lat="50.82708" lon="1.59822">
        <ele>18.5</ele>
        <time>2015-04-07T16:46:56.000Z</time>
      </trkpt>
      <trkpt lat="50.8271" lon="1.59823">
        <ele>18.5</ele>
        <time>2015-04-07T16:46:57.000Z</time>
      </trkpt>
      <trkpt lat="50.82711" lon="1.59824">
        <ele>18.6</ele>
        <time>2015-04-07T16:46:58.000Z</time>
      </trkpt>
      <trkpt lat="50.82712" lon="1.59825">
        <ele>18.6</ele>
        <time>2015-04-07T16:46:59.000Z</time>
      </trkpt>
      <trkpt lat="50.82713" lon="1.59827">
        <ele>18.7</ele>
        <time>2015-04-07T16:47:00.000Z</time>
      </trkpt>
      <trkpt lat="50.82714" lon="1.59827">
        <ele>18.7</ele>
        <time>2015-04-07T16:47:01.000Z</time>
      </trkpt>
      <trkpt lat="50.82715" lon="1.59828">
        <ele>18.7</ele>
        <time>2015-04-07T16:47:02.000Z</time>
      </trkpt>
      <trkpt lat="50.82716" lon="1.59829">
        <ele>18.8</ele>
        <time>2015-04-07T16:47:03.000Z</time>
      </trkpt>
      <trkpt lat="50.82717" lon="1.5983">
        <ele>18.8</ele>
        <time>2015-04-07T16:47:04.000Z</time>
      </trkpt>
      <trkpt lat="50.82718" lon="1.59831">
        <ele>18.8</ele>
        <time>2015-04-07T16:47:05.000Z</time>
      </trkpt>
      <trkpt lat="50.82719" lon="1.59832">
        <ele>18.9</ele>
        <time>2015-04-07T16:47:06.000Z</time>
      </trkpt>
      <trkpt lat="50.8272" lon="1.59833">
        <ele>18.9</ele>
        <time>2015-04-07T16:47:07.000Z</time>
      </trkpt>
      <trkpt lat="50.82721" lon="1.59834">
        <ele>19</ele>
        <time>2015-04-07T16:47:08.000Z</time>
      </trkpt>
      <trkpt lat="50.82722" lon="1.59835">
        <ele>19</ele>
        <time>2015-04-07T16:47:09.000Z</time>
      </trkpt>
      <trkpt lat="50.82724" lon="1.59836">
        <ele>19</ele>
        <time>2015-04-07T16:47:10.000Z</time>
      </trkpt>
      <trkpt lat="50.82725" lon="1.59837">
        <ele>19.1</ele>
        <time>2015-04-07T16:47:11.000Z</time>
      </trkpt>
      <trkpt lat="50.82726" lon="1.59837">
        <ele>19.1</ele>
        <time>2015-04-07T16:47:12.000Z</time>
      </trkpt>
      <trkpt lat="50.82727" lon="1.59838">
        <ele>19.2</ele>
        <time>2015-04-07T16:47:13.000Z</time>
      </trkpt>
      <trkpt lat="50.82728" lon="1.59839">
        <ele>19.2</ele>
        <time>2015-04-07T16:47:14.000Z</time>
      </trkpt>
      <trkpt lat="50.82729" lon="1.5984">
        <ele>19.2</ele>
        <time>2015-04-07T16:47:15.000Z</time>
      </trkpt>
      <trkpt lat="50.8273" lon="1.59841">
        <ele>19.3</ele>
        <time>2015-04-07T16:47:16.000Z</time>
      </trkpt>
      <trkpt lat="50.82731" lon="1.59842">
        <ele>19.3</ele>
        <time>2015-04-07T16:47:17.000Z</time>
      </trkpt>
      <trkpt lat="50.82732" lon="1.59843">
        <ele>19.4</ele>
        <time>2015-04-07T16:47:18.000Z</time>
      </trkpt>
      <trkpt lat="50.82734" lon="1.59844">
        <ele>19.4</ele>
        <time>2015-04-07T16:47:19.000Z</time>
      </trkpt>
      <trkpt lat="50.82735" lon="1.59844">
        <ele>19.4</ele>
        <time>2015-04-07T16:47:20.000Z</time>
      </trkpt>
      <trkpt lat="50.82736" lon="1.59845">
        <ele>19.5</ele>
        <time>2015-04-07T16:47:21.000Z</time>
      </trkpt>
      <trkpt lat="50.82737" lon="1.59846">
        <ele>19.5</ele>
        <time>2015-04-07T16:47:22.000Z</time>
      </trkpt>
      <trkpt lat="50.82738" lon="1.59847">
        <ele>19.6</ele>
        <time>2015-04-07T16:47:23.000Z</time>
      </trkpt>
      <trkpt lat="50.82739" lon="1.59848">
        <ele>19.6</ele>
        <time>2015-04-07T16:47:24.000Z</time>
      </trkpt>
      <trkpt lat="50.8274" lon="1.59849">
        <ele>19.6</ele>
        <time>2015-04-07T16:47:25.000Z</time>
      </trkpt>
      <trkpt lat="50.82741" lon="1.59849">
        <ele>19.7</ele>
        <time>2015-04-07T16:47:26.000Z</time>
      </trkpt>
      <trkpt lat="50.82742" lon="1.5985">
        <ele>19.7</ele>
        <time>2015-04-07T16:47:27.000Z</time>
      </trkpt>
      <trkpt lat="50.82743" lon="1.59851">
        <ele>19.8</ele>
        <time>2015-04-07T16:47:28.000Z</time>
      </trkpt>
      <trkpt lat="50.82745" lon="1.59852">
        <ele>19.8</ele>
        <time>2015-04-07T16:47:29.000Z</time>
      </trkpt>
      <trkpt lat="50.82746" lon="1.59853">
        <ele>19.8</ele>
        <time>2015-04-07T16:47:30.000Z</time>
      </trkpt>
      <trkpt lat="50.82747" lon="1.59853">
        <ele>19.9</ele>
        <time>2015-04-07T16:47:31.000Z</time>
      </trkpt>
      <trkpt lat="50.82748" lon="1.59854">
        <ele>19.9</ele>
        <time>2015-04-07T16:47:32.000Z</time>
      </trkpt>
      <trkpt lat="50.82749" lon="1.59855">
        <ele>20</ele>
        <time>2015-04-07T16:47:33.000Z</time>
      </trkpt>
      <trkpt lat="50.8275" lon="1.59856">
        <ele>20</ele>
        <time>2015-04-07T16:47:34.000Z</time>
      </trkpt>
      <trkpt lat="50.82751" lon="1.59856">
        <ele>20</ele>
        <time>2015-04-07T16:47:35.000Z</time>
      </trkpt>
      <trkpt lat="50.82752" lon="1.59857">
        <ele>20.1</ele>
        <time>2015-04-07T16:47:36.000Z</time>
      </trkpt>
      <trkpt lat="50.82753" lon="1.59858">
        <ele>20.1</ele>
        <time>2015-04-07T16:47:37.000Z</time>
      </trkpt>
      <trkpt lat="50.82755" lon="1.59859">
        <ele>20.2</ele>
        <time>2015-04-07T16:47:38.000Z</time>
      </trkpt>
      <trkpt lat="50.82756" lon="1.5986">
        <ele>20.2</ele>
        <time>2015-04-07T16:47:39.000Z</time>
      </trkpt>
      <trkpt lat="50.82757" lon="1.59861">
        <ele>20.3</ele>
        <time>2015-04-07T16:47:40.000Z</time>
      </trkpt>
      <trkpt lat="50.82758" lon="1.59862">
        <ele>20.3</ele>
        <time>2015-04-07T16:47:41.000Z</time>
      </trkpt>
      <trkpt lat="50.82759" lon="1.59862">
        <ele>20.3</ele>
        <time>2015-04-07T16:47:42.000Z</time>
      </trkpt>
      <trkpt lat="50.8276" lon="1.59863">
        <ele>20.4</ele>
        <time>2015-04-07T16:47:43.000Z</time>
      </trkpt>
      <trkpt lat="50.82762" lon="1.59864">
        <ele>20.4</ele>
        <time>2015-04-07T16:47:44.000Z</time>
      </trkpt>
      <trkpt lat="50.82763" lon="1.59865">
        <ele>20.5</ele>
        <time>2015-04-07T16:47:45.000Z</time>
      </trkpt>
      <trkpt lat="50.82764" lon="1.59866">
        <ele>20.5</ele>
        <time>2015-04-07T16:47:46.000Z</time>
      </trkpt>
      <trkpt lat="50.82765" lon="1.59867">
        <ele>20.5</ele>
        <time>2015-04-07T16:47:47.000Z</time>
      </trkpt>
      <trkpt lat="50.82766" lon="1.59868">
        <ele>20.6</ele>
        <time>2015-04-07T16:47:48.000Z</time>
      </trkpt>
      <trkpt lat="50.82767" lon="1.59869">
        <ele>20.6</ele>
        <time>2015-04-07T16:47:49.000Z</time>
      </trkpt>
      <trkpt lat="50.82768" lon="1.5987">
        <ele>20.7</ele>
        <time>2015-04-07T16:47:50.000Z</time>
      </trkpt>
      <trkpt lat="50.8277" lon="1.5987">
        <ele>20.7</ele>
        <time>2015-04-07T16:47:51.000Z</time>
      </trkpt>
      <trkpt lat="50.82771" lon="1.59871">
        <ele>20.7</ele>
        <time>2015-04-07T16:47:52.000Z</time>
      </trkpt>
      <trkpt lat="50.82772" lon="1.59872">
        <ele>20.8</ele>
        <time>2015-04-07T16:47:53.000Z</time>
      </trkpt>
      <trkpt lat="50.82773" lon="1.59873">
        <ele>20.8</ele>
        <time>2015-04-07T16:47:54.000Z</time>
      </trkpt>
      <trkpt lat="50.82774" lon="1.59874">
        <ele>20.9</ele>
        <time>2015-04-07T16:47:55.000Z</time>
      </trkpt>
      <trkpt lat="50.82775" lon="1.59875">
        <ele>20.9</ele>
        <time>2015-04-07T16:47:56.000Z</time>
      </trkpt>
      <trkpt lat="50.82776" lon="1.59876">
        <ele>20.9</ele>
        <time>2015-04-07T16:47:57.000Z</time>
      </trkpt>
      <trkpt lat="50.82777" lon="1.59876">
        <ele>21</ele>
        <time>2015-04-07T16:47:58.000Z</time>
      </trkpt>
      <trkpt lat="50.82778" lon="1.59877">
        <ele>21</ele>
        <time>2015-04-07T16:47:59.000Z</time>
      </trkpt>
      <trkpt lat="50.82779" lon="1.59878">
        <ele>21.1</ele>
        <time>2015-04-07T16:48:00.000Z</time>
      </trkpt>
      <trkpt lat="50.8278" lon="1.59879">
        <ele>21.1</ele>
        <time>2015-04-07T16:48:01.000Z</time>
      </trkpt>
      <trkpt lat="50.82782" lon="1.5988">
        <ele>21.1</ele>
        <time>2015-04-07T16:48:02.000Z</time>
      </trkpt>
      <trkpt lat="50.82783" lon="1.59881">
        <ele>21.2</ele>
        <time>2015-04-07T16:48:03.000Z</time>
      </trkpt>
      <trkpt lat="50.82784" lon="1.59882">
        <ele>21.2</ele>
        <time>2015-04-07T16:48:04.000Z</time>
      </trkpt>
      <trkpt lat="50.82785" lon="1.59883">
        <ele>21.3</ele>
        <time>2015-04-07T16:48:05.000Z</time>
      </trkpt>
      <trkpt lat="50.82786" lon="1.59884">
        <ele>21.3</ele>
        <time>2015-04-07T16:48:06.000Z</time>
      </trkpt>
      <trkpt lat="50.82787" lon="1.59885">
        <ele>21.3</ele>
        <time>2015-04-07T16:48:07.000Z</time>
      </trkpt>
      <trkpt lat="50.82788" lon="1.59886">
        <ele>21.4</ele>
        <time>2015-04-07T16:48:08.000Z</time>
      </trkpt>
      <trkpt lat="50.82789" lon="1.59887">
        <ele>21.4</ele>
        <time>2015-04-07T16:48:09.000Z</time>
      </trkpt>
      <trkpt lat="50.8279" lon="1.59888">
        <ele>21.5</ele>
        <time>2015-04-07T16:48:10.000Z</time>
      </trkpt>
      <trkpt lat="50.82791" lon="1.59889">
        <ele>21.5</ele>
        <time>2015-04-07T16:48:11.000Z</time>
      </trkpt>
      <trkpt lat="50.82793" lon="1.5989">
        <ele>21.5</ele>
        <time>2015-04-07T16:48:12.000Z</time>
      </trkpt>
      <trkpt lat="50.82794" lon="1.59891">
        <ele>21.6</ele>
        <time>2015-04-07T16:48:13.000Z</time>
      </trkpt>
      <trkpt lat="50.82795" lon="1.59892">
        <ele>21.6</ele>
        <time>2015-04-07T16:48:14.000Z</time>
      </trkpt>
      <trkpt lat="50.82796" lon="1.59893">
        <ele>21.7</ele>
        <time>2015-04-07T16:48:15.000Z</time>
      </trkpt>
      <trkpt lat="50.82797" lon="1.59894">
        <ele>21.7</ele>
        <time>2015-04-07T16:48:16.000Z</time>
      </trkpt>
      <trkpt lat="50.82798" lon="1.59895">
        <ele>21.7</ele>
        <time>2015-04-07T16:48:17.000Z</time>
      </trkpt>
      <trkpt lat="50.82799" lon="1.59896">
        <ele>21.8</ele>
        <time>2015-04-07T16:48:18.000Z</time>
      </trkpt>
      <trkpt lat="50.828" lon="1.59897">
        <ele>21.8</ele>
        <time>2015-04-07T16:48:19.000Z</time>
      </trkpt>
      <trkpt lat="50.82801" lon="1.59898">
        <ele>21.8</ele>
        <time>2015-04-07T16:48:20.000Z</time>
      </trkpt>
      <trkpt lat="50.82802" lon="1.59899">
        <ele>21.9</ele>
        <time>2015-04-07T16:48:21.000Z</time>
      </trkpt>
      <trkpt lat="50.82803" lon="1.599">
        <ele>21.9</ele>
        <time>2015-04-07T16:48:22.000Z</time>
      </trkpt>
      <trkpt lat="50.82804" lon="1.59901">
        <ele>22</ele>
        <time>2015-04-07T16:48:23.000Z</time>
      </trkpt>
      <trkpt lat="50.82805" lon="1.59902">
        <ele>22</ele>
        <time>2015-04-07T16:48:24.000Z</time>
      </trkpt>
      <trkpt lat="50.82806" lon="1.59903">
        <ele>22</ele>
        <time>2015-04-07T16:48:25.000Z</time>
      </trkpt>
      <trkpt lat="50.82807" lon="1.59904">
        <ele>22.1</ele>
        <time>2015-04-07T16:48:26.000Z</time>
      </trkpt>
      <trkpt lat="50.82809" lon="1.59905">
        <ele>22.1</ele>
        <time>2015-04-07T16:48:27.000Z</time>
      </trkpt>
      <trkpt lat="50.8281" lon="1.59905">
        <ele>22.1</ele>
        <time>2015-04-07T16:48:28.000Z</time>
      </trkpt>
      <trkpt lat="50.82811" lon="1.59906">
        <ele>22.2</ele>
        <time>2015-04-07T16:48:29.000Z</time>
      </trkpt>
      <trkpt lat="50.82812" lon="1.59907">
        <ele>22.2</ele>
        <time>2015-04-07T16:48:30.000Z</time>
      </trkpt>
      <trkpt lat="50.82813" lon="1.59908">
        <ele>22.3</ele>
        <time>2015-04-07T16:48:31.000Z</time>
      </trkpt>
      <trkpt lat="50.82814" lon="1.59909">
        <ele>22.3</ele>
        <time>2015-04-07T16:48:32.000Z</time>
      </trkpt>
      <trkpt lat="50.82815" lon="1.5991">
        <ele>22.3</ele>
        <time>2015-04-07T16:48:33.000Z</time>
      </trkpt>
      <trkpt lat="50.82816" lon="1.59911">
        <ele>22.4</ele>
        <time>2015-04-07T16:48:34.000Z</time>
      </trkpt>
      <trkpt lat="50.82817" lon="1.59913">
        <ele>22.4</ele>
        <time>2015-04-07T16:48:35.000Z</time>
      </trkpt>
      <trkpt lat="50.82818" lon="1.59914">
        <ele>22.5</ele>
        <time>2015-04-07T16:48:36.000Z</time>
      </trkpt>
      <trkpt lat="50.82819" lon="1.59915">
        <ele>22.5</ele>
        <time>2015-04-07T16:48:37.000Z</time>
      </trkpt>
      <trkpt lat="50.8282" lon="1.59916">
        <ele>22.5</ele>
        <time>2015-04-07T16:48:38.000Z</time>
      </trkpt>
      <trkpt lat="50.82821" lon="1.59917">
        <ele>22.6</ele>
        <time>2015-04-07T16:48:39.000Z</time>
      </trkpt>
      <trkpt lat="50.82823" lon="1.59918">
        <ele>22.6</ele>
        <time>2015-04-07T16:48:40.000Z</time>
      </trkpt>
      <trkpt lat="50.82824" lon="1.59919">
        <ele>22.7</ele>
        <time>2015-04-07T16:48:41.000Z</time>
      </trkpt>
      <trkpt lat="50.82825" lon="1.5992">
        <ele>22.7</ele>
        <time>2015-04-07T16:48:42.000Z</time>
      </trkpt>
      <trkpt lat="50.82826" lon="1.59921">
        <ele>22.7</ele>
        <time>2015-04-07T16:48:43.000Z</time>
      </trkpt>
      <trkpt lat="50.82827" lon="1.59922">
        <ele>22.8</ele>
        <time>2015-04-07T16:48:44.000Z</time>
      </trkpt>
      <trkpt lat="50.82828" lon="1.59923">
        <ele>22.8</ele>
        <time>2015-04-07T16:48:45.000Z</time>
      </trkpt>
      <trkpt lat="50.82829" lon="1.59924">
        <ele>22.9</ele>
        <time>2015-04-07T16:48:46.000Z</time>
      </trkpt>
      <trkpt lat="50.8283" lon="1.59925">
        <ele>22.9</ele>
        <time>2015-04-07T16:48:47.000Z</time>
      </trkpt>
      <trkpt lat="50.82832" lon="1.59925">
        <ele>22.9</ele>
        <time>2015-04-07T16:48:48.000Z</time>
      </trkpt>
      <trkpt lat="50.82833" lon="1.59926">
        <ele>23</ele>
        <time>2015-04-07T16:48:49.000Z</time>
      </trkpt>
      <trkpt lat="50.82834" lon="1.59926">
        <ele>23</ele>
        <time>2015-04-07T16:48:50.000Z</time>
      </trkpt>
      <trkpt lat="50.82835" lon="1.59927">
        <ele>23</ele>
        <time>2015-04-07T16:48:51.000Z</time>
      </trkpt>
      <trkpt lat="50.82836" lon="1.59927">
        <ele>23.1</ele>
        <time>2015-04-07T16:48:52.000Z</time>
      </trkpt>
      <trkpt lat="50.82838" lon="1.59927">
        <ele>23.1</ele>
        <time>2015-04-07T16:48:53.000Z</time>
      </trkpt>
      <trkpt lat="50.82839" lon="1.59927">
        <ele>23.1</ele>
        <time>2015-04-07T16:48:54.000Z</time>
      </trkpt>
      <trkpt lat="50.8284" lon="1.59926">
        <ele>23.2</ele>
        <time>2015-04-07T16:48:55.000Z</time>
      </trkpt>
      <trkpt lat="50.82841" lon="1.59926">
        <ele>23.2</ele>
        <time>2015-04-07T16:48:56.000Z</time>
      </trkpt>
      <trkpt lat="50.82843" lon="1.59925">
        <ele>23.2</ele>
        <time>2015-04-07T16:48:57.000Z</time>
      </trkpt>
      <trkpt lat="50.82844" lon="1.59925">
        <ele>23.3</ele>
        <time>2015-04-07T16:48:58.000Z</time>
      </trkpt>
      <trkpt lat="50.82845" lon="1.59924">
        <ele>23.3</ele>
        <time>2015-04-07T16:48:59.000Z</time>
      </trkpt>
      <trkpt lat="50.82846" lon="1.59923">
        <ele>23.4</ele>
        <time>2015-04-07T16:49:00.000Z</time>
      </trkpt>
      <trkpt lat="50.82847" lon="1.59922">
        <ele>23.4</ele>
        <time>2015-04-07T16:49:01.000Z</time>
      </trkpt>
      <trkpt lat="50.82848" lon="1.59921">
        <ele>23.4</ele>
        <time>2015-04-07T16:49:02.000Z</time>
      </trkpt>
      <trkpt lat="50.82849" lon="1.5992">
        <ele>23.5</ele>
        <time>2015-04-07T16:49:03.000Z</time>
      </trkpt>
      <trkpt lat="50.8285" lon="1.59919">
        <ele>23.6</ele>
        <time>2015-04-07T16:49:04.000Z</time>
      </trkpt>
      <trkpt lat="50.82851" lon="1.59918">
        <ele>23.6</ele>
        <time>2015-04-07T16:49:05.000Z</time>
      </trkpt>
      <trkpt lat="50.82852" lon="1.59916">
        <ele>23.7</ele>
        <time>2015-04-07T16:49:06.000Z</time>
      </trkpt>
      <trkpt lat="50.82853" lon="1.59915">
        <ele>23.7</ele>
        <time>2015-04-07T16:49:07.000Z</time>
      </trkpt>
      <trkpt lat="50.82853" lon="1.59914">
        <ele>23.7</ele>
        <time>2015-04-07T16:49:08.000Z</time>
      </trkpt>
      <trkpt lat="50.82854" lon="1.59913">
        <ele>23.8</ele>
        <time>2015-04-07T16:49:09.000Z</time>
      </trkpt>
      <trkpt lat="50.82855" lon="1.59912">
        <ele>23.8</ele>
        <time>2015-04-07T16:49:10.000Z</time>
      </trkpt>
      <trkpt lat="50.82856" lon="1.5991">
        <ele>23.8</ele>
        <time>2015-04-07T16:49:11.000Z</time>
      </trkpt>
      <trkpt lat="50.82857" lon="1.59909">
        <ele>23.8</ele>
        <time>2015-04-07T16:49:12.000Z</time>
      </trkpt>
      <trkpt lat="50.82858" lon="1.59907">
        <ele>23.9</ele>
        <time>2015-04-07T16:49:13.000Z</time>
      </trkpt>
      <trkpt lat="50.82859" lon="1.59906">
        <ele>23.9</ele>
        <time>2015-04-07T16:49:14.000Z</time>
      </trkpt>
      <trkpt lat="50.8286" lon="1.59904">
        <ele>23.9</ele>
        <time>2015-04-07T16:49:15.000Z</time>
      </trkpt>
      <trkpt lat="50.82861" lon="1.59903">
        <ele>24</ele>
        <time>2015-04-07T16:49:16.000Z</time>
      </trkpt>
      <trkpt lat="50.82862" lon="1.59901">
        <ele>24</ele>
        <time>2015-04-07T16:49:17.000Z</time>
      </trkpt>
      <trkpt lat="50.82863" lon="1.599">
        <ele>24.1</ele>
        <time>2015-04-07T16:49:18.000Z</time>
      </trkpt>
      <trkpt lat="50.82864" lon="1.59898">
        <ele>24.1</ele>
        <time>2015-04-07T16:49:19.000Z</time>
      </trkpt>
      <trkpt lat="50.82864" lon="1.59897">
        <ele>24.1</ele>
        <time>2015-04-07T16:49:20.000Z</time>
      </trkpt>
      <trkpt lat="50.82865" lon="1.59895">
        <ele>24.2</ele>
        <time>2015-04-07T16:49:21.000Z</time>
      </trkpt>
      <trkpt lat="50.82866" lon="1.59894">
        <ele>24.2</ele>
        <time>2015-04-07T16:49:22.000Z</time>
      </trkpt>
      <trkpt lat="50.82867" lon="1.59892">
        <ele>24.2</ele>
        <time>2015-04-07T16:49:23.000Z</time>
      </trkpt>
      <trkpt lat="50.82868" lon="1.59891">
        <ele>24.2</ele>
        <time>2015-04-07T16:49:24.000Z</time>
      </trkpt>
      <trkpt lat="50.82869" lon="1.59889">
        <ele>24.3</ele>
        <time>2015-04-07T16:49:25.000Z</time>
      </trkpt>
      <trkpt lat="50.8287" lon="1.59888">
        <ele>24.3</ele>
        <time>2015-04-07T16:49:26.000Z</time>
      </trkpt>
      <trkpt lat="50.82871" lon="1.59886">
        <ele>24.4</ele>
        <time>2015-04-07T16:49:27.000Z</time>
      </trkpt>
      <trkpt lat="50.82872" lon="1.59884">
        <ele>24.4</ele>
        <time>2015-04-07T16:49:28.000Z</time>
      </trkpt>
      <trkpt lat="50.82873" lon="1.59883">
        <ele>24.4</ele>
        <time>2015-04-07T16:49:29.000Z</time>
      </trkpt>
      <trkpt lat="50.82874" lon="1.59881">
        <ele>24.5</ele>
        <time>2015-04-07T16:49:30.000Z</time>
      </trkpt>
      <trkpt lat="50.82875" lon="1.5988">
        <ele>24.5</ele>
        <time>2015-04-07T16:49:31.000Z</time>
      </trkpt>
      <trkpt lat="50.82875" lon="1.59879">
        <ele>24.5</ele>
        <time>2015-04-07T16:49:32.000Z</time>
      </trkpt>
      <trkpt lat="50.82876" lon="1.59877">
        <ele>24.5</ele>
        <time>2015-04-07T16:49:33.000Z</time>
      </trkpt>
      <trkpt lat="50.82877" lon="1.59876">
        <ele>24.6</ele>
        <time>2015-04-07T16:49:34.000Z</time>
      </trkpt>
      <trkpt lat="50.82878" lon="1.59875">
        <ele>24.6</ele>
        <time>2015-04-07T16:49:35.000Z</time>
      </trkpt>
      <trkpt lat="50.82879" lon="1.59873">
        <ele>24.6</ele>
        <time>2015-04-07T16:49:36.000Z</time>
      </trkpt>
      <trkpt lat="50.8288" lon="1.59872">
        <ele>24.7</ele>
        <time>2015-04-07T16:49:37.000Z</time>
      </trkpt>
      <trkpt lat="50.82881" lon="1.5987">
        <ele>24.7</ele>
        <time>2015-04-07T16:49:38.000Z</time>
      </trkpt>
      <trkpt lat="50.82882" lon="1.59869">
        <ele>24.8</ele>
        <time>2015-04-07T16:49:39.000Z</time>
      </trkpt>
      <trkpt lat="50.82883" lon="1.59867">
        <ele>24.8</ele>
        <time>2015-04-07T16:49:40.000Z</time>
      </trkpt>
      <trkpt lat="50.82884" lon="1.59866">
        <ele>24.8</ele>
        <time>2015-04-07T16:49:41.000Z</time>
      </trkpt>
      <trkpt lat="50.82885" lon="1.59865">
        <ele>24.9</ele>
        <time>2015-04-07T16:49:42.000Z</time>
      </trkpt>
      <trkpt lat="50.82886" lon="1.59863">
        <ele>24.9</ele>
        <time>2015-04-07T16:49:43.000Z</time>
      </trkpt>
      <trkpt lat="50.82887" lon="1.59862">
        <ele>24.9</ele>
        <time>2015-04-07T16:49:44.000Z</time>
      </trkpt>
      <trkpt lat="50.82888" lon="1.59861">
        <ele>25</ele>
        <time>2015-04-07T16:49:45.000Z</time>
      </trkpt>
      <trkpt lat="50.82889" lon="1.59859">
        <ele>25.1</ele>
        <time>2015-04-07T16:49:46.000Z</time>
      </trkpt>
      <trkpt lat="50.8289" lon="1.59858">
        <ele>25.1</ele>
        <time>2015-04-07T16:49:47.000Z</time>
      </trkpt>
      <trkpt lat="50.8289" lon="1.59857">
        <ele>25.2</ele>
        <time>2015-04-07T16:49:48.000Z</time>
      </trkpt>
      <trkpt lat="50.82891" lon="1.59855">
        <ele>25.3</ele>
        <time>2015-04-07T16:49:49.000Z</time>
      </trkpt>
      <trkpt lat="50.82892" lon="1.59854">
        <ele>25.4</ele>
        <time>2015-04-07T16:49:50.000Z</time>
      </trkpt>
      <trkpt lat="50.82893" lon="1.59853">
        <ele>25.5</ele>
        <time>2015-04-07T16:49:51.000Z</time>
      </trkpt>
      <trkpt lat="50.82894" lon="1.59851">
        <ele>25.5</ele>
        <time>2015-04-07T16:49:52.000Z</time>
      </trkpt>
      <trkpt lat="50.82895" lon="1.5985">
        <ele>25.6</ele>
        <time>2015-04-07T16:49:53.000Z</time>
      </trkpt>
      <trkpt lat="50.82896" lon="1.59848">
        <ele>25.7</ele>
        <time>2015-04-07T16:49:54.000Z</time>
      </trkpt>
      <trkpt lat="50.82897" lon="1.59847">
        <ele>25.8</ele>
        <time>2015-04-07T16:49:55.000Z</time>
      </trkpt>
      <trkpt lat="50.82897" lon="1.59845">
        <ele>25.9</ele>
        <time>2015-04-07T16:49:56.000Z</time>
      </trkpt>
      <trkpt lat="50.82898" lon="1.59844">
        <ele>26</ele>
        <time>2015-04-07T16:49:57.000Z</time>
      </trkpt>
      <trkpt lat="50.82899" lon="1.59843">
        <ele>26</ele>
        <time>2015-04-07T16:49:58.000Z</time>
      </trkpt>
      <trkpt lat="50.829" lon="1.59841">
        <ele>26.1</ele>
        <time>2015-04-07T16:49:59.000Z</time>
      </trkpt>
      <trkpt lat="50.82901" lon="1.5984">
        <ele>26.2</ele>
        <time>2015-04-07T16:50:00.000Z</time>
      </trkpt>
      <trkpt lat="50.82902" lon="1.59838">
        <ele>26.3</ele>
        <time>2015-04-07T16:50:01.000Z</time>
      </trkpt>
      <trkpt lat="50.82903" lon="1.59837">
        <ele>26.4</ele>
        <time>2015-04-07T16:50:02.000Z</time>
      </trkpt>
      <trkpt lat="50.82904" lon="1.59835">
        <ele>26.5</ele>
        <time>2015-04-07T16:50:03.000Z</time>
      </trkpt>
      <trkpt lat="50.82904" lon="1.59834">
        <ele>26.5</ele>
        <time>2015-04-07T16:50:04.000Z</time>
      </trkpt>
      <trkpt lat="50.82905" lon="1.59832">
        <ele>26.6</ele>
        <time>2015-04-07T16:50:05.000Z</time>
      </trkpt>
      <trkpt lat="50.82906" lon="1.59831">
        <ele>26.7</ele>
        <time>2015-04-07T16:50:06.000Z</time>
      </trkpt>
      <trkpt lat="50.82907" lon="1.59829">
        <ele>26.8</ele>
        <time>2015-04-07T16:50:07.000Z</time>
      </trkpt>
      <trkpt lat="50.82908" lon="1.59827">
        <ele>26.8</ele>
        <time>2015-04-07T16:50:08.000Z</time>
      </trkpt>
      <trkpt lat="50.82909" lon="1.59826">
        <ele>26.9</ele>
        <time>2015-04-07T16:50:09.000Z</time>
      </trkpt>
      <trkpt lat="50.8291" lon="1.59824">
        <ele>27</ele>
        <time>2015-04-07T16:50:10.000Z</time>
      </trkpt>
      <trkpt lat="50.82911" lon="1.59823">
        <ele>27.1</ele>
        <time>2015-04-07T16:50:11.000Z</time>
      </trkpt>
      <trkpt lat="50.82912" lon="1.59821">
        <ele>27.2</ele>
        <time>2015-04-07T16:50:12.000Z</time>
      </trkpt>
      <trkpt lat="50.82913" lon="1.5982">
        <ele>27.3</ele>
        <time>2015-04-07T16:50:13.000Z</time>
      </trkpt>
      <trkpt lat="50.82913" lon="1.59818">
        <ele>27.4</ele>
        <time>2015-04-07T16:50:14.000Z</time>
      </trkpt>
      <trkpt lat="50.82914" lon="1.59817">
        <ele>27.5</ele>
        <time>2015-04-07T16:50:15.000Z</time>
      </trkpt>
      <trkpt lat="50.82915" lon="1.59815">
        <ele>27.6</ele>
        <time>2015-04-07T16:50:16.000Z</time>
      </trkpt>
      <trkpt lat="50.82916" lon="1.59814">
        <ele>27.7</ele>
        <time>2015-04-07T16:50:17.000Z</time>
      </trkpt>
      <trkpt lat="50.82917" lon="1.59813">
        <ele>27.8</ele>
        <time>2015-04-07T16:50:18.000Z</time>
      </trkpt>
      <trkpt lat="50.82918" lon="1.59812">
        <ele>27.8</ele>
        <time>2015-04-07T16:50:19.000Z</time>
      </trkpt>
      <trkpt lat="50.82919" lon="1.5981">
        <ele>27.9</ele>
        <time>2015-04-07T16:50:20.000Z</time>
      </trkpt>
      <trkpt lat="50.8292" lon="1.59809">
        <ele>28</ele>
        <time>2015-04-07T16:50:21.000Z</time>
      </trkpt>
      <trkpt lat="50.8292" lon="1.59808">
        <ele>28</ele>
        <time>2015-04-07T16:50:22.000Z</time>
      </trkpt>
      <trkpt lat="50.82921" lon="1.59807">
        <ele>28.1</ele>
        <time>2015-04-07T16:50:23.000Z</time>
      </trkpt>
      <trkpt lat="50.82922" lon="1.59805">
        <ele>28.2</ele>
        <time>2015-04-07T16:50:24.000Z</time>
      </trkpt>
      <trkpt lat="50.82923" lon="1.59804">
        <ele>28.2</ele>
        <time>2015-04-07T16:50:25.000Z</time>
      </trkpt>
      <trkpt lat="50.82924" lon="1.59802">
        <ele>28.3</ele>
        <time>2015-04-07T16:50:26.000Z</time>
      </trkpt>
      <trkpt lat="50.82925" lon="1.59801">
        <ele>28.3</ele>
        <time>2015-04-07T16:50:27.000Z</time>
      </trkpt>
      <trkpt lat="50.82926" lon="1.598">
        <ele>28.3</ele>
        <time>2015-04-07T16:50:28.000Z</time>
      </trkpt>
      <trkpt lat="50.82927" lon="1.59798">
        <ele>28.4</ele>
        <time>2015-04-07T16:50:29.000Z</time>
      </trkpt>
      <trkpt lat="50.82927" lon="1.59797">
        <ele>28.4</ele>
        <time>2015-04-07T16:50:30.000Z</time>
      </trkpt>
      <trkpt lat="50.82928" lon="1.59796">
        <ele>28.4</ele>
        <time>2015-04-07T16:50:31.000Z</time>
      </trkpt>
      <trkpt lat="50.82929" lon="1.59794">
        <ele>28.4</ele>
        <time>2015-04-07T16:50:32.000Z</time>
      </trkpt>
      <trkpt lat="50.8293" lon="1.59793">
        <ele>28.5</ele>
        <time>2015-04-07T16:50:33.000Z</time>
      </trkpt>
      <trkpt lat="50.82931" lon="1.59791">
        <ele>28.5</ele>
        <time>2015-04-07T16:50:34.000Z</time>
      </trkpt>
      <trkpt lat="50.82932" lon="1.5979">
        <ele>28.5</ele>
        <time>2015-04-07T16:50:35.000Z</time>
      </trkpt>
      <trkpt lat="50.82933" lon="1.59788">
        <ele>28.6</ele>
        <time>2015-04-07T16:50:36.000Z</time>
      </trkpt>
      <trkpt lat="50.82933" lon="1.59787">
        <ele>28.6</ele>
        <time>2015-04-07T16:50:37.000Z</time>
      </trkpt>
      <trkpt lat="50.82934" lon="1.59785">
        <ele>28.6</ele>
        <time>2015-04-07T16:50:38.000Z</time>
      </trkpt>
      <trkpt lat="50.82935" lon="1.59784">
        <ele>28.7</ele>
        <time>2015-04-07T16:50:39.000Z</time>
      </trkpt>
      <trkpt lat="50.82936" lon="1.59783">
        <ele>28.7</ele>
        <time>2015-04-07T16:50:40.000Z</time>
      </trkpt>
      <trkpt lat="50.82937" lon="1.59781">
        <ele>28.7</ele>
        <time>2015-04-07T16:50:41.000Z</time>
      </trkpt>
      <trkpt lat="50.82938" lon="1.5978">
        <ele>28.8</ele>
        <time>2015-04-07T16:50:42.000Z</time>
      </trkpt>
      <trkpt lat="50.82939" lon="1.59778">
        <ele>28.8</ele>
        <time>2015-04-07T16:50:43.000Z</time>
      </trkpt>
      <trkpt lat="50.82939" lon="1.59777">
        <ele>28.8</ele>
        <time>2015-04-07T16:50:44.000Z</time>
      </trkpt>
      <trkpt lat="50.8294" lon="1.59775">
        <ele>28.8</ele>
        <time>2015-04-07T16:50:45.000Z</time>
      </trkpt>
      <trkpt lat="50.82941" lon="1.59774">
        <ele>28.9</ele>
        <time>2015-04-07T16:50:46.000Z</time>
      </trkpt>
      <trkpt lat="50.82942" lon="1.59772">
        <ele>28.9</ele>
        <time>2015-04-07T16:50:47.000Z</time>
      </trkpt>
      <trkpt lat="50.82943" lon="1.5977">
        <ele>29</ele>
        <time>2015-04-07T16:50:48.000Z</time>
      </trkpt>
      <trkpt lat="50.82944" lon="1.59769">
        <ele>29</ele>
        <time>2015-04-07T16:50:49.000Z</time>
      </trkpt>
      <trkpt lat="50.82945" lon="1.59768">
        <ele>29</ele>
        <time>2015-04-07T16:50:50.000Z</time>
      </trkpt>
      <trkpt lat="50.82946" lon="1.59766">
        <ele>29</ele>
        <time>2015-04-07T16:50:51.000Z</time>
      </trkpt>
      <trkpt lat="50.82947" lon="1.59764">
        <ele>29.1</ele>
        <time>2015-04-07T16:50:52.000Z</time>
      </trkpt>
      <trkpt lat="50.82948" lon="1.59763">
        <ele>29.1</ele>
        <time>2015-04-07T16:50:53.000Z</time>
      </trkpt>
      <trkpt lat="50.82949" lon="1.59761">
        <ele>29.1</ele>
        <time>2015-04-07T16:50:54.000Z</time>
      </trkpt>
      <trkpt lat="50.8295" lon="1.5976">
        <ele>29.2</ele>
        <time>2015-04-07T16:50:55.000Z</time>
      </trkpt>
      <trkpt lat="50.82951" lon="1.59758">
        <ele>29.2</ele>
        <time>2015-04-07T16:50:56.000Z</time>
      </trkpt>
      <trkpt lat="50.82952" lon="1.59757">
        <ele>29.3</ele>
        <time>2015-04-07T16:50:57.000Z</time>
      </trkpt>
      <trkpt lat="50.82953" lon="1.59756">
        <ele>29.3</ele>
        <time>2015-04-07T16:50:58.000Z</time>
      </trkpt>
      <trkpt lat="50.82954" lon="1.59754">
        <ele>29.3</ele>
        <time>2015-04-07T16:50:59.000Z</time>
      </trkpt>
      <trkpt lat="50.82955" lon="1.59753">
        <ele>29.4</ele>
        <time>2015-04-07T16:51:00.000Z</time>
      </trkpt>
      <trkpt lat="50.82956" lon="1.59752">
        <ele>29.4</ele>
        <time>2015-04-07T16:51:01.000Z</time>
      </trkpt>
      <trkpt lat="50.82957" lon="1.59751">
        <ele>29.4</ele>
        <time>2015-04-07T16:51:02.000Z</time>
      </trkpt>
      <trkpt lat="50.82958" lon="1.59751">
        <ele>29.5</ele>
        <time>2015-04-07T16:51:03.000Z</time>
      </trkpt>
      <trkpt lat="50.82959" lon="1.5975">
        <ele>29.5</ele>
        <time>2015-04-07T16:51:04.000Z</time>
      </trkpt>
      <trkpt lat="50.82961" lon="1.5975">
        <ele>29.6</ele>
        <time>2015-04-07T16:51:05.000Z</time>
      </trkpt>
      <trkpt lat="50.82962" lon="1.59749">
        <ele>29.6</ele>
        <time>2015-04-07T16:51:06.000Z</time>
      </trkpt>
      <trkpt lat="50.82963" lon="1.59748">
        <ele>29.7</ele>
        <time>2015-04-07T16:51:07.000Z</time>
      </trkpt>
      <trkpt lat="50.82965" lon="1.59748">
        <ele>29.7</ele>
        <time>2015-04-07T16:51:08.000Z</time>
      </trkpt>
      <trkpt lat="50.82966" lon="1.59748">
        <ele>29.8</ele>
        <time>2015-04-07T16:51:09.000Z</time>
      </trkpt>
      <trkpt lat="50.82967" lon="1.59747">
        <ele>29.8</ele>
        <time>2015-04-07T16:51:10.000Z</time>
      </trkpt>
      <trkpt lat="50.82968" lon="1.59747">
        <ele>29.9</ele>
        <time>2015-04-07T16:51:11.000Z</time>
      </trkpt>
      <trkpt lat="50.82969" lon="1.59746">
        <ele>29.9</ele>
        <time>2015-04-07T16:51:12.000Z</time>
      </trkpt>
      <trkpt lat="50.82971" lon="1.59746">
        <ele>29.9</ele>
        <time>2015-04-07T16:51:13.000Z</time>
      </trkpt>
      <trkpt lat="50.82972" lon="1.59745">
        <ele>30</ele>
        <time>2015-04-07T16:51:14.000Z</time>
      </trkpt>
      <trkpt lat="50.82973" lon="1.59745">
        <ele>30</ele>
        <time>2015-04-07T16:51:15.000Z</time>
      </trkpt>
      <trkpt lat="50.82974" lon="1.59745">
        <ele>30.1</ele>
        <time>2015-04-07T16:51:16.000Z</time>
      </trkpt>
      <trkpt lat="50.82975" lon="1.59744">
        <ele>30.1</ele>
        <time>2015-04-07T16:51:17.000Z</time>
      </trkpt>
      <trkpt lat="50.82976" lon="1.59744">
        <ele>30.1</ele>
        <time>2015-04-07T16:51:18.000Z</time>
      </trkpt>
      <trkpt lat="50.82978" lon="1.59744">
        <ele>30.2</ele>
        <time>2015-04-07T16:51:19.000Z</time>
      </trkpt>
      <trkpt lat="50.82979" lon="1.59743">
        <ele>30.2</ele>
        <time>2015-04-07T16:51:20.000Z</time>
      </trkpt>
      <trkpt lat="50.8298" lon="1.59743">
        <ele>30.2</ele>
        <time>2015-04-07T16:51:21.000Z</time>
      </trkpt>
      <trkpt lat="50.82981" lon="1.59742">
        <ele>30.2</ele>
        <time>2015-04-07T16:51:22.000Z</time>
      </trkpt>
      <trkpt lat="50.82982" lon="1.59742">
        <ele>30.3</ele>
        <time>2015-04-07T16:51:23.000Z</time>
      </trkpt>
      <trkpt lat="50.82983" lon="1.59741">
        <ele>30.3</ele>
        <time>2015-04-07T16:51:24.000Z</time>
      </trkpt>
      <trkpt lat="50.82985" lon="1.59741">
        <ele>30.3</ele>
        <time>2015-04-07T16:51:25.000Z</time>
      </trkpt>
      <trkpt lat="50.82986" lon="1.5974">
        <ele>30.3</ele>
        <time>2015-04-07T16:51:26.000Z</time>
      </trkpt>
      <trkpt lat="50.82987" lon="1.5974">
        <ele>30.3</ele>
        <time>2015-04-07T16:51:27.000Z</time>
      </trkpt>
      <trkpt lat="50.82988" lon="1.59739">
        <ele>30.4</ele>
        <time>2015-04-07T16:51:28.000Z</time>
      </trkpt>
      <trkpt lat="50.8299" lon="1.59739">
        <ele>30.4</ele>
        <time>2015-04-07T16:51:29.000Z</time>
      </trkpt>
      <trkpt lat="50.82991" lon="1.59739">
        <ele>30.4</ele>
        <time>2015-04-07T16:51:30.000Z</time>
      </trkpt>
      <trkpt lat="50.82992" lon="1.59738">
        <ele>30.4</ele>
        <time>2015-04-07T16:51:31.000Z</time>
      </trkpt>
      <trkpt lat="50.82993" lon="1.59738">
        <ele>30.4</ele>
        <time>2015-04-07T16:51:32.000Z</time>
      </trkpt>
      <trkpt lat="50.82994" lon="1.59738">
        <ele>30.4</ele>
        <time>2015-04-07T16:51:33.000Z</time>
      </trkpt>
      <trkpt lat="50.82996" lon="1.59737">
        <ele>30.5</ele>
        <time>2015-04-07T16:51:34.000Z</time>
      </trkpt>
      <trkpt lat="50.82997" lon="1.59737">
        <ele>30.5</ele>
        <time>2015-04-07T16:51:35.000Z</time>
      </trkpt>
      <trkpt lat="50.82998" lon="1.59737">
        <ele>30.5</ele>
        <time>2015-04-07T16:51:36.000Z</time>
      </trkpt>
      <trkpt lat="50.82999" lon="1.59737">
        <ele>30.5</ele>
        <time>2015-04-07T16:51:37.000Z</time>
      </trkpt>
      <trkpt lat="50.83001" lon="1.59736">
        <ele>30.5</ele>
        <time>2015-04-07T16:51:38.000Z</time>
      </trkpt>
      <trkpt lat="50.83002" lon="1.59737">
        <ele>30.6</ele>
        <time>2015-04-07T16:51:39.000Z</time>
      </trkpt>
      <trkpt lat="50.83003" lon="1.59737">
        <ele>30.6</ele>
        <time>2015-04-07T16:51:40.000Z</time>
      </trkpt>
      <trkpt lat="50.83005" lon="1.59737">
        <ele>30.6</ele>
        <time>2015-04-07T16:51:41.000Z</time>
      </trkpt>
      <trkpt lat="50.83006" lon="1.59737">
        <ele>30.6</ele>
        <time>2015-04-07T16:51:42.000Z</time>
      </trkpt>
      <trkpt lat="50.83007" lon="1.59737">
        <ele>30.7</ele>
        <time>2015-04-07T16:51:43.000Z</time>
      </trkpt>
      <trkpt lat="50.83008" lon="1.59738">
        <ele>30.7</ele>
        <time>2015-04-07T16:51:44.000Z</time>
      </trkpt>
      <trkpt lat="50.83009" lon="1.59738">
        <ele>30.7</ele>
        <time>2015-04-07T16:51:45.000Z</time>
      </trkpt>
      <trkpt lat="50.83011" lon="1.59739">
        <ele>30.7</ele>
        <time>2015-04-07T16:51:46.000Z</time>
      </trkpt>
      <trkpt lat="50.83012" lon="1.59739">
        <ele>30.8</ele>
        <time>2015-04-07T16:51:47.000Z</time>
      </trkpt>
      <trkpt lat="50.83013" lon="1.59739">
        <ele>30.8</ele>
        <time>2015-04-07T16:51:48.000Z</time>
      </trkpt>
      <trkpt lat="50.83014" lon="1.5974">
        <ele>30.8</ele>
        <time>2015-04-07T16:51:49.000Z</time>
      </trkpt>
      <trkpt lat="50.83015" lon="1.5974">
        <ele>30.8</ele>
        <time>2015-04-07T16:51:50.000Z</time>
      </trkpt>
      <trkpt lat="50.83017" lon="1.59741">
        <ele>30.9</ele>
        <time>2015-04-07T16:51:51.000Z</time>
      </trkpt>
      <trkpt lat="50.83018" lon="1.59741">
        <ele>30.9</ele>
        <time>2015-04-07T16:51:52.000Z</time>
      </trkpt>
      <trkpt lat="50.83019" lon="1.59742">
        <ele>30.9</ele>
        <time>2015-04-07T16:51:53.000Z</time>
      </trkpt>
      <trkpt lat="50.8302" lon="1.59743">
        <ele>30.9</ele>
        <time>2015-04-07T16:51:54.000Z</time>
      </trkpt>
      <trkpt lat="50.83021" lon="1.59743">
        <ele>30.9</ele>
        <time>2015-04-07T16:51:55.000Z</time>
      </trkpt>
      <trkpt lat="50.83023" lon="1.59744">
        <ele>31</ele>
        <time>2015-04-07T16:51:56.000Z</time>
      </trkpt>
      <trkpt lat="50.83024" lon="1.59745">
        <ele>31</ele>
        <time>2015-04-07T16:51:57.000Z</time>
      </trkpt>
      <trkpt lat="50.83025" lon="1.59746">
        <ele>31</ele>
        <time>2015-04-07T16:51:58.000Z</time>
      </trkpt>
      <trkpt lat="50.83026" lon="1.59747">
        <ele>31</ele>
        <time>2015-04-07T16:51:59.000Z</time>
      </trkpt>
      <trkpt lat="50.83027" lon="1.59748">
        <ele>31</ele>
        <time>2015-04-07T16:52:00.000Z</time>
      </trkpt>
      <trkpt lat="50.83029" lon="1.59749">
        <ele>31</ele>
        <time>2015-04-07T16:52:01.000Z</time>
      </trkpt>
      <trkpt lat="50.8303" lon="1.5975">
        <ele>31</ele>
        <time>2015-04-07T16:52:02.000Z</time>
      </trkpt>
      <trkpt lat="50.83031" lon="1.59751">
        <ele>31</ele>
        <time>2015-04-07T16:52:03.000Z</time>
      </trkpt>
      <trkpt lat="50.83032" lon="1.59752">
        <ele>31</ele>
        <time>2015-04-07T16:52:04.000Z</time>
      </trkpt>
      <trkpt lat="50.83033" lon="1.59753">
        <ele>31</ele>
        <time>2015-04-07T16:52:05.000Z</time>
      </trkpt>
      <trkpt lat="50.83034" lon="1.59754">
        <ele>31</ele>
        <time>2015-04-07T16:52:06.000Z</time>
      </trkpt>
      <trkpt lat="50.83035" lon="1.59755">
        <ele>31.1</ele>
        <time>2015-04-07T16:52:07.000Z</time>
      </trkpt>
      <trkpt lat="50.83036" lon="1.59757">
        <ele>31.1</ele>
        <time>2015-04-07T16:52:08.000Z</time>
      </trkpt>
      <trkpt lat="50.83037" lon="1.59758">
        <ele>31.1</ele>
        <time>2015-04-07T16:52:09.000Z</time>
      </trkpt>
      <trkpt lat="50.83038" lon="1.59759">
        <ele>31.1</ele>
        <time>2015-04-07T16:52:10.000Z</time>
      </trkpt>
      <trkpt lat="50.83039" lon="1.59761">
        <ele>31.2</ele>
        <time>2015-04-07T16:52:11.000Z</time>
      </trkpt>
      <trkpt lat="50.8304" lon="1.59762">
        <ele>31.2</ele>
        <time>2015-04-07T16:52:12.000Z</time>
      </trkpt>
      <trkpt lat="50.83041" lon="1.59763">
        <ele>31.2</ele>
        <time>2015-04-07T16:52:13.000Z</time>
      </trkpt>
      <trkpt lat="50.83042" lon="1.59765">
        <ele>31.3</ele>
        <time>2015-04-07T16:52:14.000Z</time>
      </trkpt>
      <trkpt lat="50.83043" lon="1.59766">
        <ele>31.3</ele>
        <time>2015-04-07T16:52:15.000Z</time>
      </trkpt>
      <trkpt lat="50.83044" lon="1.59767">
        <ele>31.3</ele>
        <time>2015-04-07T16:52:16.000Z</time>
      </trkpt>
      <trkpt lat="50.83045" lon="1.59768">
        <ele>31.4</ele>
        <time>2015-04-07T16:52:17.000Z</time>
      </trkpt>
      <trkpt lat="50.83045" lon="1.5977">
        <ele>31.5</ele>
        <time>2015-04-07T16:52:18.000Z</time>
      </trkpt>
      <trkpt lat="50.83046" lon="1.59771">
        <ele>31.5</ele>
        <time>2015-04-07T16:52:19.000Z</time>
      </trkpt>
      <trkpt lat="50.83047" lon="1.59772">
        <ele>31.6</ele>
        <time>2015-04-07T16:52:20.000Z</time>
      </trkpt>
      <trkpt lat="50.83048" lon="1.59774">
        <ele>31.6</ele>
        <time>2015-04-07T16:52:21.000Z</time>
      </trkpt>
      <trkpt lat="50.83049" lon="1.59775">
        <ele>31.7</ele>
        <time>2015-04-07T16:52:22.000Z</time>
      </trkpt>
      <trkpt lat="50.8305" lon="1.59776">
        <ele>31.8</ele>
        <time>2015-04-07T16:52:23.000Z</time>
      </trkpt>
      <trkpt lat="50.83051" lon="1.59778">
        <ele>31.8</ele>
        <time>2015-04-07T16:52:24.000Z</time>
      </trkpt>
      <trkpt lat="50.83052" lon="1.59779">
        <ele>31.9</ele>
        <time>2015-04-07T16:52:25.000Z</time>
      </trkpt>
      <trkpt lat="50.83053" lon="1.59781">
        <ele>31.9</ele>
        <time>2015-04-07T16:52:26.000Z</time>
      </trkpt>
      <trkpt lat="50.83054" lon="1.59782">
        <ele>31.9</ele>
        <time>2015-04-07T16:52:27.000Z</time>
      </trkpt>
      <trkpt lat="50.83055" lon="1.59783">
        <ele>32</ele>
        <time>2015-04-07T16:52:28.000Z</time>
      </trkpt>
      <trkpt lat="50.83056" lon="1.59785">
        <ele>32</ele>
        <time>2015-04-07T16:52:29.000Z</time>
      </trkpt>
      <trkpt lat="50.83057" lon="1.59787">
        <ele>32</ele>
        <time>2015-04-07T16:52:30.000Z</time>
      </trkpt>
      <trkpt lat="50.83058" lon="1.59788">
        <ele>32</ele>
        <time>2015-04-07T16:52:31.000Z</time>
      </trkpt>
      <trkpt lat="50.83059" lon="1.5979">
        <ele>32</ele>
        <time>2015-04-07T16:52:32.000Z</time>
      </trkpt>
      <trkpt lat="50.83059" lon="1.59791">
        <ele>32</ele>
        <time>2015-04-07T16:52:33.000Z</time>
      </trkpt>
      <trkpt lat="50.8306" lon="1.59793">
        <ele>32</ele>
        <time>2015-04-07T16:52:34.000Z</time>
      </trkpt>
      <trkpt lat="50.83061" lon="1.59794">
        <ele>32</ele>
        <time>2015-04-07T16:52:35.000Z</time>
      </trkpt>
      <trkpt lat="50.83062" lon="1.59796">
        <ele>32</ele>
        <time>2015-04-07T16:52:36.000Z</time>
      </trkpt>
      <trkpt lat="50.83063" lon="1.59797">
        <ele>32</ele>
        <time>2015-04-07T16:52:37.000Z</time>
      </trkpt>
      <trkpt lat="50.83064" lon="1.59798">
        <ele>32</ele>
        <time>2015-04-07T16:52:38.000Z</time>
      </trkpt>
      <trkpt lat="50.83065" lon="1.598">
        <ele>32</ele>
        <time>2015-04-07T16:52:39.000Z</time>
      </trkpt>
      <trkpt lat="50.83066" lon="1.59801">
        <ele>32</ele>
        <time>2015-04-07T16:52:40.000Z</time>
      </trkpt>
      <trkpt lat="50.83067" lon="1.59803">
        <ele>32</ele>
        <time>2015-04-07T16:52:41.000Z</time>
      </trkpt>
      <trkpt lat="50.83068" lon="1.59804">
        <ele>32</ele>
        <time>2015-04-07T16:52:42.000Z</time>
      </trkpt>
      <trkpt lat="50.83069" lon="1.59806">
        <ele>32</ele>
        <time>2015-04-07T16:52:43.000Z</time>
      </trkpt>
      <trkpt lat="50.8307" lon="1.59807">
        <ele>32</ele>
        <time>2015-04-07T16:52:44.000Z</time>
      </trkpt>
      <trkpt lat="50.83071" lon="1.59809">
        <ele>32.1</ele>
        <time>2015-04-07T16:52:45.000Z</time>
      </trkpt>
      <trkpt lat="50.83071" lon="1.5981">
        <ele>32.1</ele>
        <time>2015-04-07T16:52:46.000Z</time>
      </trkpt>
      <trkpt lat="50.83072" lon="1.59811">
        <ele>32.1</ele>
        <time>2015-04-07T16:52:47.000Z</time>
      </trkpt>
      <trkpt lat="50.83073" lon="1.59813">
        <ele>32.2</ele>
        <time>2015-04-07T16:52:48.000Z</time>
      </trkpt>
      <trkpt lat="50.83074" lon="1.59814">
        <ele>32.2</ele>
        <time>2015-04-07T16:52:49.000Z</time>
      </trkpt>
      <trkpt lat="50.83075" lon="1.59816">
        <ele>32.3</ele>
        <time>2015-04-07T16:52:50.000Z</time>
      </trkpt>
      <trkpt lat="50.83076" lon="1.59817">
        <ele>32.3</ele>
        <time>2015-04-07T16:52:51.000Z</time>
      </trkpt>
      <trkpt lat="50.83077" lon="1.59819">
        <ele>32.4</ele>
        <time>2015-04-07T16:52:52.000Z</time>
      </trkpt>
      <trkpt lat="50.83078" lon="1.5982">
        <ele>32.4</ele>
        <time>2015-04-07T16:52:53.000Z</time>
      </trkpt>
      <trkpt lat="50.83079" lon="1.59822">
        <ele>32.5</ele>
        <time>2015-04-07T16:52:54.000Z</time>
      </trkpt>
      <trkpt lat="50.8308" lon="1.59823">
        <ele>32.6</ele>
        <time>2015-04-07T16:52:55.000Z</time>
      </trkpt>
      <trkpt lat="50.83081" lon="1.59824">
        <ele>32.6</ele>
        <time>2015-04-07T16:52:56.000Z</time>
      </trkpt>
      <trkpt lat="50.83082" lon="1.59826">
        <ele>32.7</ele>
        <time>2015-04-07T16:52:57.000Z</time>
      </trkpt>
      <trkpt lat="50.83083" lon="1.59827">
        <ele>32.8</ele>
        <time>2015-04-07T16:52:58.000Z</time>
      </trkpt>
      <trkpt lat="50.83084" lon="1.59829">
        <ele>32.8</ele>
        <time>2015-04-07T16:52:59.000Z</time>
      </trkpt>
      <trkpt lat="50.83085" lon="1.5983">
        <ele>32.9</ele>
        <time>2015-04-07T16:53:00.000Z</time>
      </trkpt>
      <trkpt lat="50.83086" lon="1.59832">
        <ele>32.9</ele>
        <time>2015-04-07T16:53:01.000Z</time>
      </trkpt>
      <trkpt lat="50.83087" lon="1.59833">
        <ele>33</ele>
        <time>2015-04-07T16:53:02.000Z</time>
      </trkpt>
      <trkpt lat="50.83087" lon="1.59834">
        <ele>33</ele>
        <time>2015-04-07T16:53:03.000Z</time>
      </trkpt>
      <trkpt lat="50.83088" lon="1.59836">
        <ele>33</ele>
        <time>2015-04-07T16:53:04.000Z</time>
      </trkpt>
      <trkpt lat="50.83089" lon="1.59837">
        <ele>33</ele>
        <time>2015-04-07T16:53:05.000Z</time>
      </trkpt>
      <trkpt lat="50.8309" lon="1.59838">
        <ele>33</ele>
        <time>2015-04-07T16:53:06.000Z</time>
      </trkpt>
      <trkpt lat="50.83091" lon="1.5984">
        <ele>33.1</ele>
        <time>2015-04-07T16:53:07.000Z</time>
      </trkpt>
      <trkpt lat="50.83092" lon="1.59841">
        <ele>33.1</ele>
        <time>2015-04-07T16:53:08.000Z</time>
      </trkpt>
      <trkpt lat="50.83093" lon="1.59842">
        <ele>33.1</ele>
        <time>2015-04-07T16:53:09.000Z</time>
      </trkpt>
      <trkpt lat="50.83094" lon="1.59844">
        <ele>33.1</ele>
        <time>2015-04-07T16:53:10.000Z</time>
      </trkpt>
      <trkpt lat="50.83095" lon="1.59845">
        <ele>33.2</ele>
        <time>2015-04-07T16:53:11.000Z</time>
      </trkpt>
      <trkpt lat="50.83096" lon="1.59846">
        <ele>33.2</ele>
        <time>2015-04-07T16:53:12.000Z</time>
      </trkpt>
      <trkpt lat="50.83097" lon="1.59848">
        <ele>33.3</ele>
        <time>2015-04-07T16:53:13.000Z</time>
      </trkpt>
      <trkpt lat="50.83098" lon="1.59849">
        <ele>33.3</ele>
        <time>2015-04-07T16:53:14.000Z</time>
      </trkpt>
      <trkpt lat="50.83099" lon="1.5985">
        <ele>33.4</ele>
        <time>2015-04-07T16:53:15.000Z</time>
      </trkpt>
      <trkpt lat="50.831" lon="1.59852">
        <ele>33.4</ele>
        <time>2015-04-07T16:53:16.000Z</time>
      </trkpt>
      <trkpt lat="50.83101" lon="1.59853">
        <ele>33.5</ele>
        <time>2015-04-07T16:53:17.000Z</time>
      </trkpt>
      <trkpt lat="50.83102" lon="1.59854">
        <ele>33.5</ele>
        <time>2015-04-07T16:53:18.000Z</time>
      </trkpt>
      <trkpt lat="50.83104" lon="1.59855">
        <ele>33.6</ele>
        <time>2015-04-07T16:53:19.000Z</time>
      </trkpt>
      <trkpt lat="50.83105" lon="1.59857">
        <ele>33.6</ele>
        <time>2015-04-07T16:53:20.000Z</time>
      </trkpt>
      <trkpt lat="50.83106" lon="1.59858">
        <ele>33.7</ele>
        <time>2015-04-07T16:53:21.000Z</time>
      </trkpt>
      <trkpt lat="50.83107" lon="1.59859">
        <ele>33.8</ele>
        <time>2015-04-07T16:53:22.000Z</time>
      </trkpt>
      <trkpt lat="50.83108" lon="1.5986">
        <ele>33.8</ele>
        <time>2015-04-07T16:53:23.000Z</time>
      </trkpt>
      <trkpt lat="50.83109" lon="1.59862">
        <ele>33.9</ele>
        <time>2015-04-07T16:53:24.000Z</time>
      </trkpt>
      <trkpt lat="50.8311" lon="1.59863">
        <ele>33.9</ele>
        <time>2015-04-07T16:53:25.000Z</time>
      </trkpt>
      <trkpt lat="50.83111" lon="1.59864">
        <ele>33.9</ele>
        <time>2015-04-07T16:53:26.000Z</time>
      </trkpt>
      <trkpt lat="50.83112" lon="1.59865">
        <ele>33.9</ele>
        <time>2015-04-07T16:53:27.000Z</time>
      </trkpt>
      <trkpt lat="50.83113" lon="1.59867">
        <ele>33.8</ele>
        <time>2015-04-07T16:53:28.000Z</time>
      </trkpt>
      <trkpt lat="50.83114" lon="1.59868">
        <ele>33.8</ele>
        <time>2015-04-07T16:53:29.000Z</time>
      </trkpt>
      <trkpt lat="50.83115" lon="1.59869">
        <ele>33.8</ele>
        <time>2015-04-07T16:53:30.000Z</time>
      </trkpt>
      <trkpt lat="50.83116" lon="1.5987">
        <ele>33.7</ele>
        <time>2015-04-07T16:53:31.000Z</time>
      </trkpt>
      <trkpt lat="50.83117" lon="1.59871">
        <ele>33.7</ele>
        <time>2015-04-07T16:53:32.000Z</time>
      </trkpt>
      <trkpt lat="50.83118" lon="1.59873">
        <ele>33.7</ele>
        <time>2015-04-07T16:53:33.000Z</time>
      </trkpt>
      <trkpt lat="50.8312" lon="1.59874">
        <ele>33.7</ele>
        <time>2015-04-07T16:53:34.000Z</time>
      </trkpt>
      <trkpt lat="50.83121" lon="1.59875">
        <ele>33.7</ele>
        <time>2015-04-07T16:53:35.000Z</time>
      </trkpt>
      <trkpt lat="50.83122" lon="1.59877">
        <ele>33.7</ele>
        <time>2015-04-07T16:53:36.000Z</time>
      </trkpt>
      <trkpt lat="50.83123" lon="1.59878">
        <ele>33.7</ele>
        <time>2015-04-07T16:53:37.000Z</time>
      </trkpt>
      <trkpt lat="50.83124" lon="1.59879">
        <ele>33.6</ele>
        <time>2015-04-07T16:53:38.000Z</time>
      </trkpt>
      <trkpt lat="50.83125" lon="1.59881">
        <ele>33.7</ele>
        <time>2015-04-07T16:53:39.000Z</time>
      </trkpt>
      <trkpt lat="50.83126" lon="1.59882">
        <ele>33.7</ele>
        <time>2015-04-07T16:53:40.000Z</time>
      </trkpt>
      <trkpt lat="50.83127" lon="1.59883">
        <ele>33.7</ele>
        <time>2015-04-07T16:53:41.000Z</time>
      </trkpt>
      <trkpt lat="50.83128" lon="1.59884">
        <ele>33.7</ele>
        <time>2015-04-07T16:53:42.000Z</time>
      </trkpt>
      <trkpt lat="50.83129" lon="1.59885">
        <ele>33.7</ele>
        <time>2015-04-07T16:53:43.000Z</time>
      </trkpt>
      <trkpt lat="50.8313" lon="1.59887">
        <ele>33.7</ele>
        <time>2015-04-07T16:53:44.000Z</time>
      </trkpt>
      <trkpt lat="50.83132" lon="1.59888">
        <ele>33.7</ele>
        <time>2015-04-07T16:53:45.000Z</time>
      </trkpt>
      <trkpt lat="50.83133" lon="1.59889">
        <ele>33.8</ele>
        <time>2015-04-07T16:53:46.000Z</time>
      </trkpt>
      <trkpt lat="50.83134" lon="1.59891">
        <ele>33.8</ele>
        <time>2015-04-07T16:53:47.000Z</time>
      </trkpt>
      <trkpt lat="50.83135" lon="1.59892">
        <ele>33.9</ele>
        <time>2015-04-07T16:53:48.000Z</time>
      </trkpt>
      <trkpt lat="50.83136" lon="1.59893">
        <ele>33.9</ele>
        <time>2015-04-07T16:53:49.000Z</time>
      </trkpt>
      <trkpt lat="50.83137" lon="1.59894">
        <ele>33.9</ele>
        <time>2015-04-07T16:53:50.000Z</time>
      </trkpt>
      <trkpt lat="50.83138" lon="1.59896">
        <ele>34</ele>
        <time>2015-04-07T16:53:51.000Z</time>
      </trkpt>
      <trkpt lat="50.83139" lon="1.59897">
        <ele>34</ele>
        <time>2015-04-07T16:53:52.000Z</time>
      </trkpt>
      <trkpt lat="50.8314" lon="1.59898">
        <ele>34</ele>
        <time>2015-04-07T16:53:53.000Z</time>
      </trkpt>
      <trkpt lat="50.83141" lon="1.59899">
        <ele>34</ele>
        <time>2015-04-07T16:53:54.000Z</time>
      </trkpt>
      <trkpt lat="50.83142" lon="1.59901">
        <ele>34.1</ele>
        <time>2015-04-07T16:53:55.000Z</time>
      </trkpt>
      <trkpt lat="50.83143" lon="1.59902">
        <ele>34.1</ele>
        <time>2015-04-07T16:53:56.000Z</time>
      </trkpt>
      <trkpt lat="50.83144" lon="1.59903">
        <ele>34.1</ele>
        <time>2015-04-07T16:53:57.000Z</time>
      </trkpt>
      <trkpt lat="50.83146" lon="1.59905">
        <ele>34.1</ele>
        <time>2015-04-07T16:53:58.000Z</time>
      </trkpt>
      <trkpt lat="50.83147" lon="1.59906">
        <ele>34.2</ele>
        <time>2015-04-07T16:53:59.000Z</time>
      </trkpt>
      <trkpt lat="50.83148" lon="1.59907">
        <ele>34.2</ele>
        <time>2015-04-07T16:54:00.000Z</time>
      </trkpt>
      <trkpt lat="50.83149" lon="1.59909">
        <ele>34.3</ele>
        <time>2015-04-07T16:54:01.000Z</time>
      </trkpt>
      <trkpt lat="50.8315" lon="1.5991">
        <ele>34.3</ele>
        <time>2015-04-07T16:54:02.000Z</time>
      </trkpt>
      <trkpt lat="50.83151" lon="1.59911">
        <ele>34.4</ele>
        <time>2015-04-07T16:54:03.000Z</time>
      </trkpt>
      <trkpt lat="50.83152" lon="1.59912">
        <ele>34.4</ele>
        <time>2015-04-07T16:54:04.000Z</time>
      </trkpt>
      <trkpt lat="50.83153" lon="1.59913">
        <ele>34.5</ele>
        <time>2015-04-07T16:54:05.000Z</time>
      </trkpt>
      <trkpt lat="50.83154" lon="1.59915">
        <ele>34.5</ele>
        <time>2015-04-07T16:54:06.000Z</time>
      </trkpt>
      <trkpt lat="50.83155" lon="1.59916">
        <ele>34.6</ele>
        <time>2015-04-07T16:54:07.000Z</time>
      </trkpt>
      <trkpt lat="50.83156" lon="1.59917">
        <ele>34.6</ele>
        <time>2015-04-07T16:54:08.000Z</time>
      </trkpt>
      <trkpt lat="50.83157" lon="1.59918">
        <ele>34.7</ele>
        <time>2015-04-07T16:54:09.000Z</time>
      </trkpt>
      <trkpt lat="50.83158" lon="1.5992">
        <ele>34.7</ele>
        <time>2015-04-07T16:54:10.000Z</time>
      </trkpt>
      <trkpt lat="50.83159" lon="1.59921">
        <ele>34.7</ele>
        <time>2015-04-07T16:54:11.000Z</time>
      </trkpt>
      <trkpt lat="50.8316" lon="1.59922">
        <ele>34.8</ele>
        <time>2015-04-07T16:54:12.000Z</time>
      </trkpt>
      <trkpt lat="50.83161" lon="1.59923">
        <ele>34.8</ele>
        <time>2015-04-07T16:54:13.000Z</time>
      </trkpt>
      <trkpt lat="50.83162" lon="1.59925">
        <ele>34.8</ele>
        <time>2015-04-07T16:54:14.000Z</time>
      </trkpt>
      <trkpt lat="50.83163" lon="1.59926">
        <ele>34.9</ele>
        <time>2015-04-07T16:54:15.000Z</time>
      </trkpt>
      <trkpt lat="50.83164" lon="1.59927">
        <ele>34.9</ele>
        <time>2015-04-07T16:54:16.000Z</time>
      </trkpt>
      <trkpt lat="50.83165" lon="1.59929">
        <ele>34.9</ele>
        <time>2015-04-07T16:54:17.000Z</time>
      </trkpt>
      <trkpt lat="50.83166" lon="1.5993">
        <ele>35</ele>
        <time>2015-04-07T16:54:18.000Z</time>
      </trkpt>
      <trkpt lat="50.83167" lon="1.59931">
        <ele>35</ele>
        <time>2015-04-07T16:54:19.000Z</time>
      </trkpt>
      <trkpt lat="50.83168" lon="1.59932">
        <ele>35</ele>
        <time>2015-04-07T16:54:20.000Z</time>
      </trkpt>
      <trkpt lat="50.83169" lon="1.59934">
        <ele>35</ele>
        <time>2015-04-07T16:54:21.000Z</time>
      </trkpt>
      <trkpt lat="50.8317" lon="1.59935">
        <ele>35</ele>
        <time>2015-04-07T16:54:22.000Z</time>
      </trkpt>
      <trkpt lat="50.83171" lon="1.59936">
        <ele>35.1</ele>
        <time>2015-04-07T16:54:23.000Z</time>
      </trkpt>
      <trkpt lat="50.83172" lon="1.59937">
        <ele>35.1</ele>
        <time>2015-04-07T16:54:24.000Z</time>
      </trkpt>
      <trkpt lat="50.83173" lon="1.59938">
        <ele>35.1</ele>
        <time>2015-04-07T16:54:25.000Z</time>
      </trkpt>
      <trkpt lat="50.83174" lon="1.5994">
        <ele>35.2</ele>
        <time>2015-04-07T16:54:26.000Z</time>
      </trkpt>
      <trkpt lat="50.83176" lon="1.59941">
        <ele>35.2</ele>
        <time>2015-04-07T16:54:27.000Z</time>
      </trkpt>
      <trkpt lat="50.83177" lon="1.59942">
        <ele>35.3</ele>
        <time>2015-04-07T16:54:28.000Z</time>
      </trkpt>
      <trkpt lat="50.83178" lon="1.59944">
        <ele>35.4</ele>
        <time>2015-04-07T16:54:29.000Z</time>
      </trkpt>
      <trkpt lat="50.83179" lon="1.59945">
        <ele>35.5</ele>
        <time>2015-04-07T16:54:30.000Z</time>
      </trkpt>
      <trkpt lat="50.8318" lon="1.59946">
        <ele>35.5</ele>
        <time>2015-04-07T16:54:31.000Z</time>
      </trkpt>
      <trkpt lat="50.83181" lon="1.59947">
        <ele>35.6</ele>
        <time>2015-04-07T16:54:32.000Z</time>
      </trkpt>
      <trkpt lat="50.83182" lon="1.59949">
        <ele>35.6</ele>
        <time>2015-04-07T16:54:33.000Z</time>
      </trkpt>
      <trkpt lat="50.83183" lon="1.5995">
        <ele>35.7</ele>
        <time>2015-04-07T16:54:34.000Z</time>
      </trkpt>
      <trkpt lat="50.83184" lon="1.59951">
        <ele>35.7</ele>
        <time>2015-04-07T16:54:35.000Z</time>
      </trkpt>
      <trkpt lat="50.83185" lon="1.59952">
        <ele>35.8</ele>
        <time>2015-04-07T16:54:36.000Z</time>
      </trkpt>
      <trkpt lat="50.83187" lon="1.59953">
        <ele>35.8</ele>
        <time>2015-04-07T16:54:37.000Z</time>
      </trkpt>
      <trkpt lat="50.83188" lon="1.59955">
        <ele>35.8</ele>
        <time>2015-04-07T16:54:38.000Z</time>
      </trkpt>
      <trkpt lat="50.83189" lon="1.59956">
        <ele>35.9</ele>
        <time>2015-04-07T16:54:39.000Z</time>
      </trkpt>
      <trkpt lat="50.8319" lon="1.59957">
        <ele>35.9</ele>
        <time>2015-04-07T16:54:40.000Z</time>
      </trkpt>
      <trkpt lat="50.83191" lon="1.59958">
        <ele>35.9</ele>
        <time>2015-04-07T16:54:41.000Z</time>
      </trkpt>
      <trkpt lat="50.83192" lon="1.5996">
        <ele>36</ele>
        <time>2015-04-07T16:54:42.000Z</time>
      </trkpt>
      <trkpt lat="50.83193" lon="1.59961">
        <ele>36</ele>
        <time>2015-04-07T16:54:43.000Z</time>
      </trkpt>
      <trkpt lat="50.83194" lon="1.59962">
        <ele>36</ele>
        <time>2015-04-07T16:54:44.000Z</time>
      </trkpt>
      <trkpt lat="50.83195" lon="1.59963">
        <ele>36</ele>
        <time>2015-04-07T16:54:45.000Z</time>
      </trkpt>
      <trkpt lat="50.83196" lon="1.59965">
        <ele>36</ele>
        <time>2015-04-07T16:54:46.000Z</time>
      </trkpt>
      <trkpt lat="50.83197" lon="1.59966">
        <ele>36</ele>
        <time>2015-04-07T16:54:47.000Z</time>
      </trkpt>
      <trkpt lat="50.83198" lon="1.59967">
        <ele>36</ele>
        <time>2015-04-07T16:54:48.000Z</time>
      </trkpt>
      <trkpt lat="50.83199" lon="1.59968">
        <ele>36</ele>
        <time>2015-04-07T16:54:49.000Z</time>
      </trkpt>
      <trkpt lat="50.832" lon="1.5997">
        <ele>36</ele>
        <time>2015-04-07T16:54:50.000Z</time>
      </trkpt>
      <trkpt lat="50.83201" lon="1.59971">
        <ele>36</ele>
        <time>2015-04-07T16:54:51.000Z</time>
      </trkpt>
      <trkpt lat="50.83202" lon="1.59972">
        <ele>36</ele>
        <time>2015-04-07T16:54:52.000Z</time>
      </trkpt>
      <trkpt lat="50.83203" lon="1.59973">
        <ele>36</ele>
        <time>2015-04-07T16:54:53.000Z</time>
      </trkpt>
      <trkpt lat="50.83204" lon="1.59975">
        <ele>36.1</ele>
        <time>2015-04-07T16:54:54.000Z</time>
      </trkpt>
      <trkpt lat="50.83205" lon="1.59976">
        <ele>36.1</ele>
        <time>2015-04-07T16:54:55.000Z</time>
      </trkpt>
      <trkpt lat="50.83207" lon="1.59977">
        <ele>36.2</ele>
        <time>2015-04-07T16:54:56.000Z</time>
      </trkpt>
      <trkpt lat="50.83208" lon="1.59978">
        <ele>36.2</ele>
        <time>2015-04-07T16:54:57.000Z</time>
      </trkpt>
      <trkpt lat="50.83209" lon="1.5998">
        <ele>36.3</ele>
        <time>2015-04-07T16:54:58.000Z</time>
      </trkpt>
      <trkpt lat="50.8321" lon="1.59981">
        <ele>36.3</ele>
        <time>2015-04-07T16:54:59.000Z</time>
      </trkpt>
      <trkpt lat="50.83211" lon="1.59982">
        <ele>36.4</ele>
        <time>2015-04-07T16:55:00.000Z</time>
      </trkpt>
      <trkpt lat="50.83212" lon="1.59984">
        <ele>36.4</ele>
        <time>2015-04-07T16:55:01.000Z</time>
      </trkpt>
      <trkpt lat="50.83213" lon="1.59985">
        <ele>36.5</ele>
        <time>2015-04-07T16:55:02.000Z</time>
      </trkpt>
      <trkpt lat="50.83214" lon="1.59986">
        <ele>36.5</ele>
        <time>2015-04-07T16:55:03.000Z</time>
      </trkpt>
      <trkpt lat="50.83215" lon="1.59987">
        <ele>36.5</ele>
        <time>2015-04-07T16:55:04.000Z</time>
      </trkpt>
      <trkpt lat="50.83216" lon="1.59989">
        <ele>36.6</ele>
        <time>2015-04-07T16:55:05.000Z</time>
      </trkpt>
      <trkpt lat="50.83217" lon="1.5999">
        <ele>36.6</ele>
        <time>2015-04-07T16:55:06.000Z</time>
      </trkpt>
      <trkpt lat="50.83218" lon="1.59991">
        <ele>36.7</ele>
        <time>2015-04-07T16:55:07.000Z</time>
      </trkpt>
      <trkpt lat="50.8322" lon="1.59992">
        <ele>36.7</ele>
        <time>2015-04-07T16:55:08.000Z</time>
      </trkpt>
      <trkpt lat="50.83221" lon="1.59993">
        <ele>36.8</ele>
        <time>2015-04-07T16:55:09.000Z</time>
      </trkpt>
      <trkpt lat="50.83222" lon="1.59995">
        <ele>36.8</ele>
        <time>2015-04-07T16:55:10.000Z</time>
      </trkpt>
      <trkpt lat="50.83223" lon="1.59996">
        <ele>36.8</ele>
        <time>2015-04-07T16:55:11.000Z</time>
      </trkpt>
      <trkpt lat="50.83224" lon="1.59997">
        <ele>36.8</ele>
        <time>2015-04-07T16:55:12.000Z</time>
      </trkpt>
      <trkpt lat="50.83225" lon="1.59999">
        <ele>36.7</ele>
        <time>2015-04-07T16:55:13.000Z</time>
      </trkpt>
      <trkpt lat="50.83226" lon="1.6">
        <ele>36.7</ele>
        <time>2015-04-07T16:55:14.000Z</time>
      </trkpt>
      <trkpt lat="50.83227" lon="1.60001">
        <ele>36.6</ele>
        <time>2015-04-07T16:55:15.000Z</time>
      </trkpt>
      <trkpt lat="50.83229" lon="1.60002">
        <ele>36.6</ele>
        <time>2015-04-07T16:55:16.000Z</time>
      </trkpt>
      <trkpt lat="50.8323" lon="1.60004">
        <ele>36.5</ele>
        <time>2015-04-07T16:55:17.000Z</time>
      </trkpt>
      <trkpt lat="50.83231" lon="1.60005">
        <ele>36.5</ele>
        <time>2015-04-07T16:55:18.000Z</time>
      </trkpt>
      <trkpt lat="50.83232" lon="1.60006">
        <ele>36.5</ele>
        <time>2015-04-07T16:55:19.000Z</time>
      </trkpt>
      <trkpt lat="50.83233" lon="1.60007">
        <ele>36.4</ele>
        <time>2015-04-07T16:55:20.000Z</time>
      </trkpt>
      <trkpt lat="50.83234" lon="1.60009">
        <ele>36.4</ele>
        <time>2015-04-07T16:55:21.000Z</time>
      </trkpt>
      <trkpt lat="50.83235" lon="1.6001">
        <ele>36.4</ele>
        <time>2015-04-07T16:55:22.000Z</time>
      </trkpt>
      <trkpt lat="50.83236" lon="1.60011">
        <ele>36.4</ele>
        <time>2015-04-07T16:55:23.000Z</time>
      </trkpt>
      <trkpt lat="50.83237" lon="1.60013">
        <ele>36.4</ele>
        <time>2015-04-07T16:55:24.000Z</time>
      </trkpt>
      <trkpt lat="50.83238" lon="1.60014">
        <ele>36.4</ele>
        <time>2015-04-07T16:55:25.000Z</time>
      </trkpt>
      <trkpt lat="50.83239" lon="1.60015">
        <ele>36.4</ele>
        <time>2015-04-07T16:55:26.000Z</time>
      </trkpt>
      <trkpt lat="50.8324" lon="1.60016">
        <ele>36.5</ele>
        <time>2015-04-07T16:55:27.000Z</time>
      </trkpt>
      <trkpt lat="50.83241" lon="1.60018">
        <ele>36.5</ele>
        <time>2015-04-07T16:55:28.000Z</time>
      </trkpt>
      <trkpt lat="50.83242" lon="1.60019">
        <ele>36.5</ele>
        <time>2015-04-07T16:55:29.000Z</time>
      </trkpt>
      <trkpt lat="50.83243" lon="1.6002">
        <ele>36.6</ele>
        <time>2015-04-07T16:55:30.000Z</time>
      </trkpt>
      <trkpt lat="50.83244" lon="1.60021">
        <ele>36.6</ele>
        <time>2015-04-07T16:55:31.000Z</time>
      </trkpt>
      <trkpt lat="50.83245" lon="1.60023">
        <ele>36.7</ele>
        <time>2015-04-07T16:55:32.000Z</time>
      </trkpt>
      <trkpt lat="50.83246" lon="1.60024">
        <ele>36.8</ele>
        <time>2015-04-07T16:55:33.000Z</time>
      </trkpt>
      <trkpt lat="50.83247" lon="1.60025">
        <ele>36.8</ele>
        <time>2015-04-07T16:55:34.000Z</time>
      </trkpt>
      <trkpt lat="50.83248" lon="1.60026">
        <ele>36.9</ele>
        <time>2015-04-07T16:55:35.000Z</time>
      </trkpt>
      <trkpt lat="50.83249" lon="1.60028">
        <ele>37</ele>
        <time>2015-04-07T16:55:36.000Z</time>
      </trkpt>
      <trkpt lat="50.8325" lon="1.60029">
        <ele>37</ele>
        <time>2015-04-07T16:55:37.000Z</time>
      </trkpt>
      <trkpt lat="50.83251" lon="1.6003">
        <ele>37</ele>
        <time>2015-04-07T16:55:38.000Z</time>
      </trkpt>
      <trkpt lat="50.83252" lon="1.60031">
        <ele>37</ele>
        <time>2015-04-07T16:55:39.000Z</time>
      </trkpt>
      <trkpt lat="50.83253" lon="1.60033">
        <ele>37</ele>
        <time>2015-04-07T16:55:40.000Z</time>
      </trkpt>
      <trkpt lat="50.83254" lon="1.60034">
        <ele>37</ele>
        <time>2015-04-07T16:55:41.000Z</time>
      </trkpt>
      <trkpt lat="50.83255" lon="1.60035">
        <ele>37</ele>
        <time>2015-04-07T16:55:42.000Z</time>
      </trkpt>
      <trkpt lat="50.83257" lon="1.60036">
        <ele>37</ele>
        <time>2015-04-07T16:55:43.000Z</time>
      </trkpt>
      <trkpt lat="50.83258" lon="1.60037">
        <ele>37</ele>
        <time>2015-04-07T16:55:44.000Z</time>
      </trkpt>
      <trkpt lat="50.83259" lon="1.60039">
        <ele>37</ele>
        <time>2015-04-07T16:55:45.000Z</time>
      </trkpt>
      <trkpt lat="50.8326" lon="1.6004">
        <ele>37</ele>
        <time>2015-04-07T16:55:46.000Z</time>
      </trkpt>
      <trkpt lat="50.83261" lon="1.60041">
        <ele>37</ele>
        <time>2015-04-07T16:55:47.000Z</time>
      </trkpt>
      <trkpt lat="50.83262" lon="1.60042">
        <ele>37</ele>
        <time>2015-04-07T16:55:48.000Z</time>
      </trkpt>
      <trkpt lat="50.83264" lon="1.60044">
        <ele>37</ele>
        <time>2015-04-07T16:55:49.000Z</time>
      </trkpt>
      <trkpt lat="50.83265" lon="1.60045">
        <ele>37</ele>
        <time>2015-04-07T16:55:50.000Z</time>
      </trkpt>
      <trkpt lat="50.83266" lon="1.60046">
        <ele>37</ele>
        <time>2015-04-07T16:55:51.000Z</time>
      </trkpt>
      <trkpt lat="50.83267" lon="1.60047">
        <ele>37</ele>
        <time>2015-04-07T16:55:52.000Z</time>
      </trkpt>
      <trkpt lat="50.83268" lon="1.60048">
        <ele>37</ele>
        <time>2015-04-07T16:55:53.000Z</time>
      </trkpt>
      <trkpt lat="50.83269" lon="1.6005">
        <ele>37</ele>
        <time>2015-04-07T16:55:54.000Z</time>
      </trkpt>
      <trkpt lat="50.8327" lon="1.60051">
        <ele>37</ele>
        <time>2015-04-07T16:55:55.000Z</time>
      </trkpt>
      <trkpt lat="50.83271" lon="1.60052">
        <ele>37</ele>
        <time>2015-04-07T16:55:56.000Z</time>
      </trkpt>
      <trkpt lat="50.83272" lon="1.60053">
        <ele>37</ele>
        <time>2015-04-07T16:55:57.000Z</time>
      </trkpt>
      <trkpt lat="50.83274" lon="1.60054">
        <ele>37</ele>
        <time>2015-04-07T16:55:58.000Z</time>
      </trkpt>
      <trkpt lat="50.83275" lon="1.60055">
        <ele>37</ele>
        <time>2015-04-07T16:55:59.000Z</time>
      </trkpt>
      <trkpt lat="50.83276" lon="1.60056">
        <ele>37</ele>
        <time>2015-04-07T16:56:00.000Z</time>
      </trkpt>
      <trkpt lat="50.83277" lon="1.60057">
        <ele>37.1</ele>
        <time>2015-04-07T16:56:01.000Z</time>
      </trkpt>
      <trkpt lat="50.83278" lon="1.60058">
        <ele>37.1</ele>
        <time>2015-04-07T16:56:02.000Z</time>
      </trkpt>
      <trkpt lat="50.83279" lon="1.6006">
        <ele>37.1</ele>
        <time>2015-04-07T16:56:03.000Z</time>
      </trkpt>
      <trkpt lat="50.83281" lon="1.60061">
        <ele>37.2</ele>
        <time>2015-04-07T16:56:04.000Z</time>
      </trkpt>
      <trkpt lat="50.83282" lon="1.60062">
        <ele>37.2</ele>
        <time>2015-04-07T16:56:05.000Z</time>
      </trkpt>
      <trkpt lat="50.83283" lon="1.60063">
        <ele>37.3</ele>
        <time>2015-04-07T16:56:06.000Z</time>
      </trkpt>
      <trkpt lat="50.83284" lon="1.60064">
        <ele>37.3</ele>
        <time>2015-04-07T16:56:07.000Z</time>
      </trkpt>
      <trkpt lat="50.83285" lon="1.60065">
        <ele>37.3</ele>
        <time>2015-04-07T16:56:08.000Z</time>
      </trkpt>
      <trkpt lat="50.83286" lon="1.60066">
        <ele>37.4</ele>
        <time>2015-04-07T16:56:09.000Z</time>
      </trkpt>
      <trkpt lat="50.83287" lon="1.60067">
        <ele>37.4</ele>
        <time>2015-04-07T16:56:10.000Z</time>
      </trkpt>
      <trkpt lat="50.83288" lon="1.60068">
        <ele>37.5</ele>
        <time>2015-04-07T16:56:11.000Z</time>
      </trkpt>
      <trkpt lat="50.83289" lon="1.60069">
        <ele>37.5</ele>
        <time>2015-04-07T16:56:12.000Z</time>
      </trkpt>
      <trkpt lat="50.83291" lon="1.6007">
        <ele>37.5</ele>
        <time>2015-04-07T16:56:13.000Z</time>
      </trkpt>
      <trkpt lat="50.83292" lon="1.60071">
        <ele>37.6</ele>
        <time>2015-04-07T16:56:14.000Z</time>
      </trkpt>
      <trkpt lat="50.83293" lon="1.60073">
        <ele>37.6</ele>
        <time>2015-04-07T16:56:15.000Z</time>
      </trkpt>
      <trkpt lat="50.83294" lon="1.60074">
        <ele>37.7</ele>
        <time>2015-04-07T16:56:16.000Z</time>
      </trkpt>
      <trkpt lat="50.83295" lon="1.60075">
        <ele>37.7</ele>
        <time>2015-04-07T16:56:17.000Z</time>
      </trkpt>
      <trkpt lat="50.83297" lon="1.60076">
        <ele>37.7</ele>
        <time>2015-04-07T16:56:18.000Z</time>
      </trkpt>
      <trkpt lat="50.83298" lon="1.60077">
        <ele>37.8</ele>
        <time>2015-04-07T16:56:19.000Z</time>
      </trkpt>
      <trkpt lat="50.83299" lon="1.60078">
        <ele>37.8</ele>
        <time>2015-04-07T16:56:20.000Z</time>
      </trkpt>
      <trkpt lat="50.833" lon="1.6008">
        <ele>37.9</ele>
        <time>2015-04-07T16:56:21.000Z</time>
      </trkpt>
      <trkpt lat="50.83301" lon="1.60081">
        <ele>37.9</ele>
        <time>2015-04-07T16:56:22.000Z</time>
      </trkpt>
      <trkpt lat="50.83302" lon="1.60082">
        <ele>37.9</ele>
        <time>2015-04-07T16:56:23.000Z</time>
      </trkpt>
      <trkpt lat="50.83303" lon="1.60083">
        <ele>38</ele>
        <time>2015-04-07T16:56:24.000Z</time>
      </trkpt>
      <trkpt lat="50.83305" lon="1.60084">
        <ele>38</ele>
        <time>2015-04-07T16:56:25.000Z</time>
      </trkpt>
      <trkpt lat="50.83306" lon="1.60085">
        <ele>38</ele>
        <time>2015-04-07T16:56:26.000Z</time>
      </trkpt>
      <trkpt lat="50.83307" lon="1.60086">
        <ele>38</ele>
        <time>2015-04-07T16:56:27.000Z</time>
      </trkpt>
      <trkpt lat="50.83308" lon="1.60087">
        <ele>38</ele>
        <time>2015-04-07T16:56:28.000Z</time>
      </trkpt>
      <trkpt lat="50.83309" lon="1.60088">
        <ele>38</ele>
        <time>2015-04-07T16:56:29.000Z</time>
      </trkpt>
      <trkpt lat="50.8331" lon="1.60089">
        <ele>38</ele>
        <time>2015-04-07T16:56:30.000Z</time>
      </trkpt>
      <trkpt lat="50.83312" lon="1.6009">
        <ele>38</ele>
        <time>2015-04-07T16:56:31.000Z</time>
      </trkpt>
      <trkpt lat="50.83313" lon="1.60091">
        <ele>38</ele>
        <time>2015-04-07T16:56:32.000Z</time>
      </trkpt>
      <trkpt lat="50.83314" lon="1.60093">
        <ele>38</ele>
        <time>2015-04-07T16:56:33.000Z</time>
      </trkpt>
      <trkpt lat="50.83315" lon="1.60094">
        <ele>38</ele>
        <time>2015-04-07T16:56:34.000Z</time>
      </trkpt>
      <trkpt lat="50.83316" lon="1.60095">
        <ele>38</ele>
        <time>2015-04-07T16:56:35.000Z</time>
      </trkpt>
      <trkpt lat="50.83317" lon="1.60096">
        <ele>38</ele>
        <time>2015-04-07T16:56:36.000Z</time>
      </trkpt>
      <trkpt lat="50.83318" lon="1.60097">
        <ele>38</ele>
        <time>2015-04-07T16:56:37.000Z</time>
      </trkpt>
      <trkpt lat="50.8332" lon="1.60098">
        <ele>38</ele>
        <time>2015-04-07T16:56:38.000Z</time>
      </trkpt>
      <trkpt lat="50.83321" lon="1.601">
        <ele>38</ele>
        <time>2015-04-07T16:56:39.000Z</time>
      </trkpt>
      <trkpt lat="50.83322" lon="1.60101">
        <ele>38</ele>
        <time>2015-04-07T16:56:40.000Z</time>
      </trkpt>
      <trkpt lat="50.83323" lon="1.60102">
        <ele>38</ele>
        <time>2015-04-07T16:56:41.000Z</time>
      </trkpt>
      <trkpt lat="50.83325" lon="1.60103">
        <ele>38</ele>
        <time>2015-04-07T16:56:42.000Z</time>
      </trkpt>
      <trkpt lat="50.83326" lon="1.60104">
        <ele>38</ele>
        <time>2015-04-07T16:56:43.000Z</time>
      </trkpt>
      <trkpt lat="50.83327" lon="1.60105">
        <ele>38</ele>
        <time>2015-04-07T16:56:44.000Z</time>
      </trkpt>
      <trkpt lat="50.83328" lon="1.60107">
        <ele>38</ele>
        <time>2015-04-07T16:56:45.000Z</time>
      </trkpt>
      <trkpt lat="50.83329" lon="1.60108">
        <ele>38</ele>
        <time>2015-04-07T16:56:46.000Z</time>
      </trkpt>
      <trkpt lat="50.8333" lon="1.60109">
        <ele>38</ele>
        <time>2015-04-07T16:56:47.000Z</time>
      </trkpt>
      <trkpt lat="50.83331" lon="1.6011">
        <ele>38</ele>
        <time>2015-04-07T16:56:48.000Z</time>
      </trkpt>
      <trkpt lat="50.83332" lon="1.60111">
        <ele>38</ele>
        <time>2015-04-07T16:56:49.000Z</time>
      </trkpt>
      <trkpt lat="50.83334" lon="1.60113">
        <ele>38.1</ele>
        <time>2015-04-07T16:56:50.000Z</time>
      </trkpt>
      <trkpt lat="50.83335" lon="1.60114">
        <ele>38.1</ele>
        <time>2015-04-07T16:56:51.000Z</time>
      </trkpt>
      <trkpt lat="50.83336" lon="1.60115">
        <ele>38.1</ele>
        <time>2015-04-07T16:56:52.000Z</time>
      </trkpt>
      <trkpt lat="50.83337" lon="1.60117">
        <ele>38.2</ele>
        <time>2015-04-07T16:56:53.000Z</time>
      </trkpt>
      <trkpt lat="50.83338" lon="1.60118">
        <ele>38.2</ele>
        <time>2015-04-07T16:56:54.000Z</time>
      </trkpt>
      <trkpt lat="50.83339" lon="1.60119">
        <ele>38.2</ele>
        <time>2015-04-07T16:56:55.000Z</time>
      </trkpt>
      <trkpt lat="50.8334" lon="1.6012">
        <ele>38.3</ele>
        <time>2015-04-07T16:56:56.000Z</time>
      </trkpt>
      <trkpt lat="50.83341" lon="1.60122">
        <ele>38.3</ele>
        <time>2015-04-07T16:56:57.000Z</time>
      </trkpt>
      <trkpt lat="50.83342" lon="1.60123">
        <ele>38.3</ele>
        <time>2015-04-07T16:56:58.000Z</time>
      </trkpt>
      <trkpt lat="50.83343" lon="1.60124">
        <ele>38.3</ele>
        <time>2015-04-07T16:56:59.000Z</time>
      </trkpt>
      <trkpt lat="50.83344" lon="1.60125">
        <ele>38.3</ele>
        <time>2015-04-07T16:57:00.000Z</time>
      </trkpt>
      <trkpt lat="50.83345" lon="1.60127">
        <ele>38.3</ele>
        <time>2015-04-07T16:57:01.000Z</time>
      </trkpt>
      <trkpt lat="50.83346" lon="1.60128">
        <ele>38.3</ele>
        <time>2015-04-07T16:57:02.000Z</time>
      </trkpt>
      <trkpt lat="50.83347" lon="1.60129">
        <ele>38.3</ele>
        <time>2015-04-07T16:57:03.000Z</time>
      </trkpt>
      <trkpt lat="50.83348" lon="1.6013">
        <ele>38.3</ele>
        <time>2015-04-07T16:57:04.000Z</time>
      </trkpt>
      <trkpt lat="50.83349" lon="1.60132">
        <ele>38.3</ele>
        <time>2015-04-07T16:57:05.000Z</time>
      </trkpt>
      <trkpt lat="50.8335" lon="1.60133">
        <ele>38.3</ele>
        <time>2015-04-07T16:57:06.000Z</time>
      </trkpt>
      <trkpt lat="50.83351" lon="1.60134">
        <ele>38.3</ele>
        <time>2015-04-07T16:57:07.000Z</time>
      </trkpt>
      <trkpt lat="50.83352" lon="1.60135">
        <ele>38.3</ele>
        <time>2015-04-07T16:57:08.000Z</time>
      </trkpt>
      <trkpt lat="50.83353" lon="1.60137">
        <ele>38.3</ele>
        <time>2015-04-07T16:57:09.000Z</time>
      </trkpt>
      <trkpt lat="50.83354" lon="1.60138">
        <ele>38.2</ele>
        <time>2015-04-07T16:57:10.000Z</time>
      </trkpt>
      <trkpt lat="50.83355" lon="1.6014">
        <ele>38.2</ele>
        <time>2015-04-07T16:57:11.000Z</time>
      </trkpt>
      <trkpt lat="50.83356" lon="1.60141">
        <ele>38.3</ele>
        <time>2015-04-07T16:57:12.000Z</time>
      </trkpt>
      <trkpt lat="50.83357" lon="1.60143">
        <ele>38.3</ele>
        <time>2015-04-07T16:57:13.000Z</time>
      </trkpt>
      <trkpt lat="50.83358" lon="1.60144">
        <ele>38.3</ele>
        <time>2015-04-07T16:57:14.000Z</time>
      </trkpt>
      <trkpt lat="50.83359" lon="1.60145">
        <ele>38.3</ele>
        <time>2015-04-07T16:57:15.000Z</time>
      </trkpt>
      <trkpt lat="50.8336" lon="1.60147">
        <ele>38.3</ele>
        <time>2015-04-07T16:57:16.000Z</time>
      </trkpt>
      <trkpt lat="50.83361" lon="1.60148">
        <ele>38.3</ele>
        <time>2015-04-07T16:57:17.000Z</time>
      </trkpt>
      <trkpt lat="50.83362" lon="1.60149">
        <ele>38.4</ele>
        <time>2015-04-07T16:57:18.000Z</time>
      </trkpt>
      <trkpt lat="50.83363" lon="1.60151">
        <ele>38.4</ele>
        <time>2015-04-07T16:57:19.000Z</time>
      </trkpt>
      <trkpt lat="50.83364" lon="1.60152">
        <ele>38.5</ele>
        <time>2015-04-07T16:57:20.000Z</time>
      </trkpt>
      <trkpt lat="50.83365" lon="1.60154">
        <ele>38.5</ele>
        <time>2015-04-07T16:57:21.000Z</time>
      </trkpt>
      <trkpt lat="50.83366" lon="1.60155">
        <ele>38.6</ele>
        <time>2015-04-07T16:57:22.000Z</time>
      </trkpt>
      <trkpt lat="50.83367" lon="1.60157">
        <ele>38.6</ele>
        <time>2015-04-07T16:57:23.000Z</time>
      </trkpt>
      <trkpt lat="50.83368" lon="1.60158">
        <ele>38.7</ele>
        <time>2015-04-07T16:57:24.000Z</time>
      </trkpt>
      <trkpt lat="50.83369" lon="1.60159">
        <ele>38.7</ele>
        <time>2015-04-07T16:57:25.000Z</time>
      </trkpt>
      <trkpt lat="50.8337" lon="1.60161">
        <ele>38.8</ele>
        <time>2015-04-07T16:57:26.000Z</time>
      </trkpt>
      <trkpt lat="50.83371" lon="1.60162">
        <ele>38.8</ele>
        <time>2015-04-07T16:57:27.000Z</time>
      </trkpt>
      <trkpt lat="50.83372" lon="1.60164">
        <ele>38.9</ele>
        <time>2015-04-07T16:57:28.000Z</time>
      </trkpt>
      <trkpt lat="50.83373" lon="1.60165">
        <ele>38.9</ele>
        <time>2015-04-07T16:57:29.000Z</time>
      </trkpt>
      <trkpt lat="50.83374" lon="1.60166">
        <ele>39</ele>
        <time>2015-04-07T16:57:30.000Z</time>
      </trkpt>
      <trkpt lat="50.83375" lon="1.60168">
        <ele>39</ele>
        <time>2015-04-07T16:57:31.000Z</time>
      </trkpt>
      <trkpt lat="50.83376" lon="1.60169">
        <ele>39.1</ele>
        <time>2015-04-07T16:57:32.000Z</time>
      </trkpt>
      <trkpt lat="50.83377" lon="1.60171">
        <ele>39.2</ele>
        <time>2015-04-07T16:57:33.000Z</time>
      </trkpt>
      <trkpt lat="50.83378" lon="1.60173">
        <ele>39.2</ele>
        <time>2015-04-07T16:57:34.000Z</time>
      </trkpt>
      <trkpt lat="50.83379" lon="1.60174">
        <ele>39.3</ele>
        <time>2015-04-07T16:57:35.000Z</time>
      </trkpt>
      <trkpt lat="50.8338" lon="1.60176">
        <ele>39.3</ele>
        <time>2015-04-07T16:57:36.000Z</time>
      </trkpt>
      <trkpt lat="50.83381" lon="1.60178">
        <ele>39.4</ele>
        <time>2015-04-07T16:57:37.000Z</time>
      </trkpt>
      <trkpt lat="50.83382" lon="1.60179">
        <ele>39.5</ele>
        <time>2015-04-07T16:57:38.000Z</time>
      </trkpt>
      <trkpt lat="50.83382" lon="1.60181">
        <ele>39.5</ele>
        <time>2015-04-07T16:57:39.000Z</time>
      </trkpt>
      <trkpt lat="50.83383" lon="1.60183">
        <ele>39.6</ele>
        <time>2015-04-07T16:57:40.000Z</time>
      </trkpt>
      <trkpt lat="50.83384" lon="1.60185">
        <ele>39.6</ele>
        <time>2015-04-07T16:57:41.000Z</time>
      </trkpt>
      <trkpt lat="50.83385" lon="1.60186">
        <ele>39.7</ele>
        <time>2015-04-07T16:57:42.000Z</time>
      </trkpt>
      <trkpt lat="50.83385" lon="1.60188">
        <ele>39.8</ele>
        <time>2015-04-07T16:57:43.000Z</time>
      </trkpt>
      <trkpt lat="50.83386" lon="1.6019">
        <ele>39.8</ele>
        <time>2015-04-07T16:57:44.000Z</time>
      </trkpt>
      <trkpt lat="50.83387" lon="1.60192">
        <ele>39.9</ele>
        <time>2015-04-07T16:57:45.000Z</time>
      </trkpt>
      <trkpt lat="50.83387" lon="1.60194">
        <ele>40</ele>
        <time>2015-04-07T16:57:46.000Z</time>
      </trkpt>
      <trkpt lat="50.83388" lon="1.60196">
        <ele>40</ele>
        <time>2015-04-07T16:57:47.000Z</time>
      </trkpt>
      <trkpt lat="50.83389" lon="1.60198">
        <ele>40</ele>
        <time>2015-04-07T16:57:48.000Z</time>
      </trkpt>
      <trkpt lat="50.8339" lon="1.60199">
        <ele>40</ele>
        <time>2015-04-07T16:57:49.000Z</time>
      </trkpt>
      <trkpt lat="50.83391" lon="1.60201">
        <ele>40</ele>
        <time>2015-04-07T16:57:50.000Z</time>
      </trkpt>
      <trkpt lat="50.83392" lon="1.60202">
        <ele>40</ele>
        <time>2015-04-07T16:57:51.000Z</time>
      </trkpt>
      <trkpt lat="50.83393" lon="1.60204">
        <ele>40</ele>
        <time>2015-04-07T16:57:52.000Z</time>
      </trkpt>
      <trkpt lat="50.83394" lon="1.60205">
        <ele>40</ele>
        <time>2015-04-07T16:57:53.000Z</time>
      </trkpt>
      <trkpt lat="50.83395" lon="1.60207">
        <ele>40</ele>
        <time>2015-04-07T16:57:54.000Z</time>
      </trkpt>
      <trkpt lat="50.83396" lon="1.60208">
        <ele>40</ele>
        <time>2015-04-07T16:57:55.000Z</time>
      </trkpt>
      <trkpt lat="50.83396" lon="1.6021">
        <ele>40</ele>
        <time>2015-04-07T16:57:56.000Z</time>
      </trkpt>
      <trkpt lat="50.83397" lon="1.60212">
        <ele>40</ele>
        <time>2015-04-07T16:57:57.000Z</time>
      </trkpt>
      <trkpt lat="50.83398" lon="1.60213">
        <ele>40</ele>
        <time>2015-04-07T16:57:58.000Z</time>
      </trkpt>
      <trkpt lat="50.83399" lon="1.60215">
        <ele>40</ele>
        <time>2015-04-07T16:57:59.000Z</time>
      </trkpt>
      <trkpt lat="50.834" lon="1.60216">
        <ele>40</ele>
        <time>2015-04-07T16:58:00.000Z</time>
      </trkpt>
      <trkpt lat="50.83401" lon="1.60218">
        <ele>40</ele>
        <time>2015-04-07T16:58:01.000Z</time>
      </trkpt>
      <trkpt lat="50.83401" lon="1.6022">
        <ele>40</ele>
        <time>2015-04-07T16:58:02.000Z</time>
      </trkpt>
      <trkpt lat="50.83402" lon="1.60222">
        <ele>40</ele>
        <time>2015-04-07T16:58:03.000Z</time>
      </trkpt>
      <trkpt lat="50.83403" lon="1.60223">
        <ele>40</ele>
        <time>2015-04-07T16:58:04.000Z</time>
      </trkpt>
      <trkpt lat="50.83404" lon="1.60225">
        <ele>40.1</ele>
        <time>2015-04-07T16:58:05.000Z</time>
      </trkpt>
      <trkpt lat="50.83404" lon="1.60227">
        <ele>40.2</ele>
        <time>2015-04-07T16:58:06.000Z</time>
      </trkpt>
      <trkpt lat="50.83405" lon="1.60229">
        <ele>40.2</ele>
        <time>2015-04-07T16:58:07.000Z</time>
      </trkpt>
      <trkpt lat="50.83406" lon="1.60231">
        <ele>40.3</ele>
        <time>2015-04-07T16:58:08.000Z</time>
      </trkpt>
      <trkpt lat="50.83407" lon="1.60233">
        <ele>40.4</ele>
        <time>2015-04-07T16:58:09.000Z</time>
      </trkpt>
      <trkpt lat="50.83408" lon="1.60234">
        <ele>40.4</ele>
        <time>2015-04-07T16:58:10.000Z</time>
      </trkpt>
      <trkpt lat="50.83408" lon="1.60236">
        <ele>40.5</ele>
        <time>2015-04-07T16:58:11.000Z</time>
      </trkpt>
      <trkpt lat="50.83409" lon="1.60238">
        <ele>40.6</ele>
        <time>2015-04-07T16:58:12.000Z</time>
      </trkpt>
      <trkpt lat="50.8341" lon="1.6024">
        <ele>40.6</ele>
        <time>2015-04-07T16:58:13.000Z</time>
      </trkpt>
      <trkpt lat="50.8341" lon="1.60241">
        <ele>40.7</ele>
        <time>2015-04-07T16:58:14.000Z</time>
      </trkpt>
      <trkpt lat="50.83411" lon="1.60243">
        <ele>40.8</ele>
        <time>2015-04-07T16:58:15.000Z</time>
      </trkpt>
      <trkpt lat="50.83412" lon="1.60245">
        <ele>40.8</ele>
        <time>2015-04-07T16:58:16.000Z</time>
      </trkpt>
      <trkpt lat="50.83412" lon="1.60247">
        <ele>40.9</ele>
        <time>2015-04-07T16:58:17.000Z</time>
      </trkpt>
      <trkpt lat="50.83413" lon="1.60249">
        <ele>41</ele>
        <time>2015-04-07T16:58:18.000Z</time>
      </trkpt>
      <trkpt lat="50.83414" lon="1.60251">
        <ele>41</ele>
        <time>2015-04-07T16:58:19.000Z</time>
      </trkpt>
      <trkpt lat="50.83415" lon="1.60252">
        <ele>41.1</ele>
        <time>2015-04-07T16:58:20.000Z</time>
      </trkpt>
      <trkpt lat="50.83416" lon="1.60254">
        <ele>41.1</ele>
        <time>2015-04-07T16:58:21.000Z</time>
      </trkpt>
      <trkpt lat="50.83416" lon="1.60256">
        <ele>41.2</ele>
        <time>2015-04-07T16:58:22.000Z</time>
      </trkpt>
      <trkpt lat="50.83417" lon="1.60257">
        <ele>41.3</ele>
        <time>2015-04-07T16:58:23.000Z</time>
      </trkpt>
      <trkpt lat="50.83418" lon="1.60259">
        <ele>41.4</ele>
        <time>2015-04-07T16:58:24.000Z</time>
      </trkpt>
      <trkpt lat="50.83419" lon="1.60261">
        <ele>41.4</ele>
        <time>2015-04-07T16:58:25.000Z</time>
      </trkpt>
      <trkpt lat="50.8342" lon="1.60263">
        <ele>41.5</ele>
        <time>2015-04-07T16:58:26.000Z</time>
      </trkpt>
      <trkpt lat="50.83421" lon="1.60265">
        <ele>41.6</ele>
        <time>2015-04-07T16:58:27.000Z</time>
      </trkpt>
      <trkpt lat="50.83421" lon="1.60267">
        <ele>41.7</ele>
        <time>2015-04-07T16:58:28.000Z</time>
      </trkpt>
      <trkpt lat="50.83422" lon="1.60269">
        <ele>41.7</ele>
        <time>2015-04-07T16:58:29.000Z</time>
      </trkpt>
      <trkpt lat="50.83423" lon="1.6027">
        <ele>41.8</ele>
        <time>2015-04-07T16:58:30.000Z</time>
      </trkpt>
      <trkpt lat="50.83424" lon="1.60272">
        <ele>41.8</ele>
        <time>2015-04-07T16:58:31.000Z</time>
      </trkpt>
      <trkpt lat="50.83424" lon="1.60274">
        <ele>41.9</ele>
        <time>2015-04-07T16:58:32.000Z</time>
      </trkpt>
      <trkpt lat="50.83425" lon="1.60276">
        <ele>41.9</ele>
        <time>2015-04-07T16:58:33.000Z</time>
      </trkpt>
      <trkpt lat="50.83426" lon="1.60278">
        <ele>42</ele>
        <time>2015-04-07T16:58:34.000Z</time>
      </trkpt>
      <trkpt lat="50.83427" lon="1.6028">
        <ele>42.1</ele>
        <time>2015-04-07T16:58:35.000Z</time>
      </trkpt>
      <trkpt lat="50.83427" lon="1.60281">
        <ele>42.1</ele>
        <time>2015-04-07T16:58:36.000Z</time>
      </trkpt>
      <trkpt lat="50.83428" lon="1.60283">
        <ele>42.2</ele>
        <time>2015-04-07T16:58:37.000Z</time>
      </trkpt>
      <trkpt lat="50.83429" lon="1.60285">
        <ele>42.3</ele>
        <time>2015-04-07T16:58:38.000Z</time>
      </trkpt>
      <trkpt lat="50.8343" lon="1.60287">
        <ele>42.3</ele>
        <time>2015-04-07T16:58:39.000Z</time>
      </trkpt>
      <trkpt lat="50.83431" lon="1.60289">
        <ele>42.4</ele>
        <time>2015-04-07T16:58:40.000Z</time>
      </trkpt>
      <trkpt lat="50.83431" lon="1.60291">
        <ele>42.5</ele>
        <time>2015-04-07T16:58:41.000Z</time>
      </trkpt>
      <trkpt lat="50.83432" lon="1.60293">
        <ele>42.5</ele>
        <time>2015-04-07T16:58:42.000Z</time>
      </trkpt>
      <trkpt lat="50.83433" lon="1.60294">
        <ele>42.6</ele>
        <time>2015-04-07T16:58:43.000Z</time>
      </trkpt>
      <trkpt lat="50.83434" lon="1.60296">
        <ele>42.7</ele>
        <time>2015-04-07T16:58:44.000Z</time>
      </trkpt>
      <trkpt lat="50.83434" lon="1.60298">
        <ele>42.7</ele>
        <time>2015-04-07T16:58:45.000Z</time>
      </trkpt>
      <trkpt lat="50.83435" lon="1.603">
        <ele>42.8</ele>
        <time>2015-04-07T16:58:46.000Z</time>
      </trkpt>
      <trkpt lat="50.83436" lon="1.60301">
        <ele>42.8</ele>
        <time>2015-04-07T16:58:47.000Z</time>
      </trkpt>
      <trkpt lat="50.83437" lon="1.60303">
        <ele>42.9</ele>
        <time>2015-04-07T16:58:48.000Z</time>
      </trkpt>
      <trkpt lat="50.83437" lon="1.60304">
        <ele>43</ele>
        <time>2015-04-07T16:58:49.000Z</time>
      </trkpt>
      <trkpt lat="50.83438" lon="1.60306">
        <ele>43</ele>
        <time>2015-04-07T16:58:50.000Z</time>
      </trkpt>
      <trkpt lat="50.83439" lon="1.60308">
        <ele>43.1</ele>
        <time>2015-04-07T16:58:51.000Z</time>
      </trkpt>
      <trkpt lat="50.83439" lon="1.60309">
        <ele>43.1</ele>
        <time>2015-04-07T16:58:52.000Z</time>
      </trkpt>
      <trkpt lat="50.8344" lon="1.6031">
        <ele>43.1</ele>
        <time>2015-04-07T16:58:53.000Z</time>
      </trkpt>
      <trkpt lat="50.83441" lon="1.60312">
        <ele>43.2</ele>
        <time>2015-04-07T16:58:54.000Z</time>
      </trkpt>
      <trkpt lat="50.83442" lon="1.60313">
        <ele>43.2</ele>
        <time>2015-04-07T16:58:55.000Z</time>
      </trkpt>
      <trkpt lat="50.83443" lon="1.60314">
        <ele>43.3</ele>
        <time>2015-04-07T16:58:56.000Z</time>
      </trkpt>
      <trkpt lat="50.83443" lon="1.60315">
        <ele>43.3</ele>
        <time>2015-04-07T16:58:57.000Z</time>
      </trkpt>
      <trkpt lat="50.83444" lon="1.60316">
        <ele>43.4</ele>
        <time>2015-04-07T16:58:58.000Z</time>
      </trkpt>
      <trkpt lat="50.83445" lon="1.60318">
        <ele>43.5</ele>
        <time>2015-04-07T16:58:59.000Z</time>
      </trkpt>
      <trkpt lat="50.83446" lon="1.60319">
        <ele>43.5</ele>
        <time>2015-04-07T16:59:00.000Z</time>
      </trkpt>
      <trkpt lat="50.83447" lon="1.6032">
        <ele>43.6</ele>
        <time>2015-04-07T16:59:01.000Z</time>
      </trkpt>
      <trkpt lat="50.83448" lon="1.60322">
        <ele>43.6</ele>
        <time>2015-04-07T16:59:02.000Z</time>
      </trkpt>
      <trkpt lat="50.83449" lon="1.60323">
        <ele>43.7</ele>
        <time>2015-04-07T16:59:03.000Z</time>
      </trkpt>
      <trkpt lat="50.8345" lon="1.60324">
        <ele>43.7</ele>
        <time>2015-04-07T16:59:04.000Z</time>
      </trkpt>
      <trkpt lat="50.83451" lon="1.60325">
        <ele>43.8</ele>
        <time>2015-04-07T16:59:05.000Z</time>
      </trkpt>
      <trkpt lat="50.83452" lon="1.60326">
        <ele>43.8</ele>
        <time>2015-04-07T16:59:06.000Z</time>
      </trkpt>
      <trkpt lat="50.83453" lon="1.60328">
        <ele>43.9</ele>
        <time>2015-04-07T16:59:07.000Z</time>
      </trkpt>
      <trkpt lat="50.83455" lon="1.60329">
        <ele>43.9</ele>
        <time>2015-04-07T16:59:08.000Z</time>
      </trkpt>
      <trkpt lat="50.83456" lon="1.6033">
        <ele>43.9</ele>
        <time>2015-04-07T16:59:09.000Z</time>
      </trkpt>
      <trkpt lat="50.83457" lon="1.60331">
        <ele>44</ele>
        <time>2015-04-07T16:59:10.000Z</time>
      </trkpt>
      <trkpt lat="50.83458" lon="1.60333">
        <ele>44</ele>
        <time>2015-04-07T16:59:11.000Z</time>
      </trkpt>
      <trkpt lat="50.83459" lon="1.60334">
        <ele>44</ele>
        <time>2015-04-07T16:59:12.000Z</time>
      </trkpt>
      <trkpt lat="50.8346" lon="1.60335">
        <ele>44</ele>
        <time>2015-04-07T16:59:13.000Z</time>
      </trkpt>
      <trkpt lat="50.83461" lon="1.60336">
        <ele>44.1</ele>
        <time>2015-04-07T16:59:14.000Z</time>
      </trkpt>
      <trkpt lat="50.83462" lon="1.60337">
        <ele>44.1</ele>
        <time>2015-04-07T16:59:15.000Z</time>
      </trkpt>
      <trkpt lat="50.83463" lon="1.60338">
        <ele>44.1</ele>
        <time>2015-04-07T16:59:16.000Z</time>
      </trkpt>
      <trkpt lat="50.83464" lon="1.60339">
        <ele>44.2</ele>
        <time>2015-04-07T16:59:17.000Z</time>
      </trkpt>
      <trkpt lat="50.83465" lon="1.60341">
        <ele>44.2</ele>
        <time>2015-04-07T16:59:18.000Z</time>
      </trkpt>
      <trkpt lat="50.83466" lon="1.60342">
        <ele>44.2</ele>
        <time>2015-04-07T16:59:19.000Z</time>
      </trkpt>
      <trkpt lat="50.83467" lon="1.60343">
        <ele>44.3</ele>
        <time>2015-04-07T16:59:20.000Z</time>
      </trkpt>
      <trkpt lat="50.83468" lon="1.60345">
        <ele>44.3</ele>
        <time>2015-04-07T16:59:21.000Z</time>
      </trkpt>
      <trkpt lat="50.8347" lon="1.60346">
        <ele>44.4</ele>
        <time>2015-04-07T16:59:22.000Z</time>
      </trkpt>
      <trkpt lat="50.83471" lon="1.60347">
        <ele>44.5</ele>
        <time>2015-04-07T16:59:23.000Z</time>
      </trkpt>
      <trkpt lat="50.83472" lon="1.60348">
        <ele>44.5</ele>
        <time>2015-04-07T16:59:24.000Z</time>
      </trkpt>
      <trkpt lat="50.83473" lon="1.60349">
        <ele>44.6</ele>
        <time>2015-04-07T16:59:25.000Z</time>
      </trkpt>
      <trkpt lat="50.83474" lon="1.60351">
        <ele>44.6</ele>
        <time>2015-04-07T16:59:26.000Z</time>
      </trkpt>
      <trkpt lat="50.83475" lon="1.60352">
        <ele>44.7</ele>
        <time>2015-04-07T16:59:27.000Z</time>
      </trkpt>
      <trkpt lat="50.83476" lon="1.60353">
        <ele>44.8</ele>
        <time>2015-04-07T16:59:28.000Z</time>
      </trkpt>
      <trkpt lat="50.83477" lon="1.60355">
        <ele>44.8</ele>
        <time>2015-04-07T16:59:29.000Z</time>
      </trkpt>
      <trkpt lat="50.83478" lon="1.60356">
        <ele>44.9</ele>
        <time>2015-04-07T16:59:30.000Z</time>
      </trkpt>
      <trkpt lat="50.83479" lon="1.60358">
        <ele>44.9</ele>
        <time>2015-04-07T16:59:31.000Z</time>
      </trkpt>
      <trkpt lat="50.8348" lon="1.60359">
        <ele>44.9</ele>
        <time>2015-04-07T16:59:32.000Z</time>
      </trkpt>
      <trkpt lat="50.83481" lon="1.6036">
        <ele>45</ele>
        <time>2015-04-07T16:59:33.000Z</time>
      </trkpt>
      <trkpt lat="50.83482" lon="1.60362">
        <ele>45</ele>
        <time>2015-04-07T16:59:34.000Z</time>
      </trkpt>
      <trkpt lat="50.83484" lon="1.60363">
        <ele>45.1</ele>
        <time>2015-04-07T16:59:35.000Z</time>
      </trkpt>
      <trkpt lat="50.83485" lon="1.60364">
        <ele>45.1</ele>
        <time>2015-04-07T16:59:36.000Z</time>
      </trkpt>
      <trkpt lat="50.83486" lon="1.60365">
        <ele>45.1</ele>
        <time>2015-04-07T16:59:37.000Z</time>
      </trkpt>
      <trkpt lat="50.83487" lon="1.60366">
        <ele>45.2</ele>
        <time>2015-04-07T16:59:38.000Z</time>
      </trkpt>
      <trkpt lat="50.83488" lon="1.60367">
        <ele>45.2</ele>
        <time>2015-04-07T16:59:39.000Z</time>
      </trkpt>
      <trkpt lat="50.83489" lon="1.60369">
        <ele>45.3</ele>
        <time>2015-04-07T16:59:40.000Z</time>
      </trkpt>
      <trkpt lat="50.8349" lon="1.6037">
        <ele>45.3</ele>
        <time>2015-04-07T16:59:41.000Z</time>
      </trkpt>
      <trkpt lat="50.83491" lon="1.60371">
        <ele>45.4</ele>
        <time>2015-04-07T16:59:42.000Z</time>
      </trkpt>
      <trkpt lat="50.83492" lon="1.60372">
        <ele>45.4</ele>
        <time>2015-04-07T16:59:43.000Z</time>
      </trkpt>
      <trkpt lat="50.83493" lon="1.60374">
        <ele>45.4</ele>
        <time>2015-04-07T16:59:44.000Z</time>
      </trkpt>
      <trkpt lat="50.83494" lon="1.60375">
        <ele>45.5</ele>
        <time>2015-04-07T16:59:45.000Z</time>
      </trkpt>
      <trkpt lat="50.83495" lon="1.60376">
        <ele>45.5</ele>
        <time>2015-04-07T16:59:46.000Z</time>
      </trkpt>
      <trkpt lat="50.83496" lon="1.60377">
        <ele>45.6</ele>
        <time>2015-04-07T16:59:47.000Z</time>
      </trkpt>
      <trkpt lat="50.83497" lon="1.60379">
        <ele>45.6</ele>
        <time>2015-04-07T16:59:48.000Z</time>
      </trkpt>
      <trkpt lat="50.83498" lon="1.6038">
        <ele>45.7</ele>
        <time>2015-04-07T16:59:49.000Z</time>
      </trkpt>
      <trkpt lat="50.83499" lon="1.60381">
        <ele>45.7</ele>
        <time>2015-04-07T16:59:50.000Z</time>
      </trkpt>
      <trkpt lat="50.835" lon="1.60382">
        <ele>45.8</ele>
        <time>2015-04-07T16:59:51.000Z</time>
      </trkpt>
      <trkpt lat="50.83501" lon="1.60383">
        <ele>45.8</ele>
        <time>2015-04-07T16:59:52.000Z</time>
      </trkpt>
      <trkpt lat="50.83502" lon="1.60384">
        <ele>45.9</ele>
        <time>2015-04-07T16:59:53.000Z</time>
      </trkpt>
      <trkpt lat="50.83503" lon="1.60386">
        <ele>46</ele>
        <time>2015-04-07T16:59:54.000Z</time>
      </trkpt>
      <trkpt lat="50.83504" lon="1.60387">
        <ele>46.1</ele>
        <time>2015-04-07T16:59:55.000Z</time>
      </trkpt>
      <trkpt lat="50.83505" lon="1.60388">
        <ele>46.2</ele>
        <time>2015-04-07T16:59:56.000Z</time>
      </trkpt>
      <trkpt lat="50.83506" lon="1.6039">
        <ele>46.2</ele>
        <time>2015-04-07T16:59:57.000Z</time>
      </trkpt>
      <trkpt lat="50.83507" lon="1.60391">
        <ele>46.3</ele>
        <time>2015-04-07T16:59:58.000Z</time>
      </trkpt>
      <trkpt lat="50.83508" lon="1.60393">
        <ele>46.4</ele>
        <time>2015-04-07T16:59:59.000Z</time>
      </trkpt>
      <trkpt lat="50.83509" lon="1.60394">
        <ele>46.5</ele>
        <time>2015-04-07T17:00:00.000Z</time>
      </trkpt>
      <trkpt lat="50.8351" lon="1.60395">
        <ele>46.5</ele>
        <time>2015-04-07T17:00:01.000Z</time>
      </trkpt>
      <trkpt lat="50.83511" lon="1.60397">
        <ele>46.6</ele>
        <time>2015-04-07T17:00:02.000Z</time>
      </trkpt>
      <trkpt lat="50.83512" lon="1.60398">
        <ele>46.6</ele>
        <time>2015-04-07T17:00:03.000Z</time>
      </trkpt>
      <trkpt lat="50.83513" lon="1.60399">
        <ele>46.7</ele>
        <time>2015-04-07T17:00:04.000Z</time>
      </trkpt>
      <trkpt lat="50.83515" lon="1.60401">
        <ele>46.7</ele>
        <time>2015-04-07T17:00:05.000Z</time>
      </trkpt>
      <trkpt lat="50.83516" lon="1.60402">
        <ele>46.8</ele>
        <time>2015-04-07T17:00:06.000Z</time>
      </trkpt>
      <trkpt lat="50.83517" lon="1.60403">
        <ele>46.8</ele>
        <time>2015-04-07T17:00:07.000Z</time>
      </trkpt>
      <trkpt lat="50.83518" lon="1.60405">
        <ele>46.8</ele>
        <time>2015-04-07T17:00:08.000Z</time>
      </trkpt>
      <trkpt lat="50.83519" lon="1.60406">
        <ele>46.9</ele>
        <time>2015-04-07T17:00:09.000Z</time>
      </trkpt>
      <trkpt lat="50.8352" lon="1.60408">
        <ele>46.9</ele>
        <time>2015-04-07T17:00:10.000Z</time>
      </trkpt>
      <trkpt lat="50.83521" lon="1.60409">
        <ele>46.9</ele>
        <time>2015-04-07T17:00:11.000Z</time>
      </trkpt>
      <trkpt lat="50.83522" lon="1.6041">
        <ele>47</ele>
        <time>2015-04-07T17:00:12.000Z</time>
      </trkpt>
      <trkpt lat="50.83523" lon="1.60412">
        <ele>47</ele>
        <time>2015-04-07T17:00:13.000Z</time>
      </trkpt>
      <trkpt lat="50.83524" lon="1.60413">
        <ele>47</ele>
        <time>2015-04-07T17:00:14.000Z</time>
      </trkpt>
      <trkpt lat="50.83525" lon="1.60414">
        <ele>47</ele>
        <time>2015-04-07T17:00:15.000Z</time>
      </trkpt>
      <trkpt lat="50.83526" lon="1.60416">
        <ele>47</ele>
        <time>2015-04-07T17:00:16.000Z</time>
      </trkpt>
      <trkpt lat="50.83527" lon="1.60417">
        <ele>47</ele>
        <time>2015-04-07T17:00:17.000Z</time>
      </trkpt>
      <trkpt lat="50.83529" lon="1.60419">
        <ele>47.1</ele>
        <time>2015-04-07T17:00:18.000Z</time>
      </trkpt>
      <trkpt lat="50.8353" lon="1.6042">
        <ele>47.2</ele>
        <time>2015-04-07T17:00:19.000Z</time>
      </trkpt>
      <trkpt lat="50.83531" lon="1.60422">
        <ele>47.3</ele>
        <time>2015-04-07T17:00:20.000Z</time>
      </trkpt>
      <trkpt lat="50.83532" lon="1.60423">
        <ele>47.3</ele>
        <time>2015-04-07T17:00:21.000Z</time>
      </trkpt>
      <trkpt lat="50.83533" lon="1.60424">
        <ele>47.4</ele>
        <time>2015-04-07T17:00:22.000Z</time>
      </trkpt>
      <trkpt lat="50.83534" lon="1.60426">
        <ele>47.5</ele>
        <time>2015-04-07T17:00:23.000Z</time>
      </trkpt>
      <trkpt lat="50.83535" lon="1.60427">
        <ele>47.5</ele>
        <time>2015-04-07T17:00:24.000Z</time>
      </trkpt>
      <trkpt lat="50.83536" lon="1.60429">
        <ele>47.6</ele>
        <time>2015-04-07T17:00:25.000Z</time>
      </trkpt>
      <trkpt lat="50.83537" lon="1.6043">
        <ele>47.6</ele>
        <time>2015-04-07T17:00:26.000Z</time>
      </trkpt>
      <trkpt lat="50.83538" lon="1.60431">
        <ele>47.7</ele>
        <time>2015-04-07T17:00:27.000Z</time>
      </trkpt>
      <trkpt lat="50.83539" lon="1.60433">
        <ele>47.7</ele>
        <time>2015-04-07T17:00:28.000Z</time>
      </trkpt>
      <trkpt lat="50.8354" lon="1.60434">
        <ele>47.8</ele>
        <time>2015-04-07T17:00:29.000Z</time>
      </trkpt>
      <trkpt lat="50.83541" lon="1.60435">
        <ele>47.8</ele>
        <time>2015-04-07T17:00:30.000Z</time>
      </trkpt>
      <trkpt lat="50.83542" lon="1.60437">
        <ele>47.9</ele>
        <time>2015-04-07T17:00:31.000Z</time>
      </trkpt>
      <trkpt lat="50.83543" lon="1.60438">
        <ele>47.9</ele>
        <time>2015-04-07T17:00:32.000Z</time>
      </trkpt>
      <trkpt lat="50.83544" lon="1.60439">
        <ele>47.9</ele>
        <time>2015-04-07T17:00:33.000Z</time>
      </trkpt>
      <trkpt lat="50.83545" lon="1.60441">
        <ele>47.9</ele>
        <time>2015-04-07T17:00:34.000Z</time>
      </trkpt>
      <trkpt lat="50.83546" lon="1.60442">
        <ele>48</ele>
        <time>2015-04-07T17:00:35.000Z</time>
      </trkpt>
      <trkpt lat="50.83547" lon="1.60444">
        <ele>48</ele>
        <time>2015-04-07T17:00:36.000Z</time>
      </trkpt>
      <trkpt lat="50.83548" lon="1.60445">
        <ele>48</ele>
        <time>2015-04-07T17:00:37.000Z</time>
      </trkpt>
      <trkpt lat="50.83549" lon="1.60446">
        <ele>48.1</ele>
        <time>2015-04-07T17:00:38.000Z</time>
      </trkpt>
      <trkpt lat="50.8355" lon="1.60448">
        <ele>48.1</ele>
        <time>2015-04-07T17:00:39.000Z</time>
      </trkpt>
      <trkpt lat="50.83551" lon="1.60449">
        <ele>48.2</ele>
        <time>2015-04-07T17:00:40.000Z</time>
      </trkpt>
      <trkpt lat="50.83552" lon="1.60451">
        <ele>48.2</ele>
        <time>2015-04-07T17:00:41.000Z</time>
      </trkpt>
      <trkpt lat="50.83553" lon="1.60452">
        <ele>48.3</ele>
        <time>2015-04-07T17:00:42.000Z</time>
      </trkpt>
      <trkpt lat="50.83554" lon="1.60454">
        <ele>48.3</ele>
        <time>2015-04-07T17:00:43.000Z</time>
      </trkpt>
      <trkpt lat="50.83555" lon="1.60455">
        <ele>48.4</ele>
        <time>2015-04-07T17:00:44.000Z</time>
      </trkpt>
      <trkpt lat="50.83556" lon="1.60457">
        <ele>48.5</ele>
        <time>2015-04-07T17:00:45.000Z</time>
      </trkpt>
      <trkpt lat="50.83557" lon="1.60459">
        <ele>48.5</ele>
        <time>2015-04-07T17:00:46.000Z</time>
      </trkpt>
      <trkpt lat="50.83558" lon="1.6046">
        <ele>48.6</ele>
        <time>2015-04-07T17:00:47.000Z</time>
      </trkpt>
      <trkpt lat="50.83558" lon="1.60461">
        <ele>48.7</ele>
        <time>2015-04-07T17:00:48.000Z</time>
      </trkpt>
      <trkpt lat="50.83559" lon="1.60463">
        <ele>48.8</ele>
        <time>2015-04-07T17:00:49.000Z</time>
      </trkpt>
      <trkpt lat="50.8356" lon="1.60464">
        <ele>48.9</ele>
        <time>2015-04-07T17:00:50.000Z</time>
      </trkpt>
      <trkpt lat="50.83561" lon="1.60466">
        <ele>49</ele>
        <time>2015-04-07T17:00:51.000Z</time>
      </trkpt>
      <trkpt lat="50.83562" lon="1.60467">
        <ele>49.1</ele>
        <time>2015-04-07T17:00:52.000Z</time>
      </trkpt>
      <trkpt lat="50.83563" lon="1.60469">
        <ele>49.1</ele>
        <time>2015-04-07T17:00:53.000Z</time>
      </trkpt>
      <trkpt lat="50.83564" lon="1.6047">
        <ele>49.2</ele>
        <time>2015-04-07T17:00:54.000Z</time>
      </trkpt>
      <trkpt lat="50.83565" lon="1.60471">
        <ele>49.3</ele>
        <time>2015-04-07T17:00:55.000Z</time>
      </trkpt>
      <trkpt lat="50.83566" lon="1.60473">
        <ele>49.4</ele>
        <time>2015-04-07T17:00:56.000Z</time>
      </trkpt>
      <trkpt lat="50.83567" lon="1.60474">
        <ele>49.4</ele>
        <time>2015-04-07T17:00:57.000Z</time>
      </trkpt>
      <trkpt lat="50.83568" lon="1.60475">
        <ele>49.5</ele>
        <time>2015-04-07T17:00:58.000Z</time>
      </trkpt>
      <trkpt lat="50.83569" lon="1.60477">
        <ele>49.6</ele>
        <time>2015-04-07T17:00:59.000Z</time>
      </trkpt>
      <trkpt lat="50.8357" lon="1.60478">
        <ele>49.6</ele>
        <time>2015-04-07T17:01:00.000Z</time>
      </trkpt>
      <trkpt lat="50.83571" lon="1.6048">
        <ele>49.7</ele>
        <time>2015-04-07T17:01:01.000Z</time>
      </trkpt>
      <trkpt lat="50.83572" lon="1.60482">
        <ele>49.7</ele>
        <time>2015-04-07T17:01:02.000Z</time>
      </trkpt>
      <trkpt lat="50.83573" lon="1.60483">
        <ele>49.8</ele>
        <time>2015-04-07T17:01:03.000Z</time>
      </trkpt>
      <trkpt lat="50.83574" lon="1.60484">
        <ele>49.8</ele>
        <time>2015-04-07T17:01:04.000Z</time>
      </trkpt>
      <trkpt lat="50.83574" lon="1.60486">
        <ele>49.8</ele>
        <time>2015-04-07T17:01:05.000Z</time>
      </trkpt>
      <trkpt lat="50.83575" lon="1.60487">
        <ele>49.9</ele>
        <time>2015-04-07T17:01:06.000Z</time>
      </trkpt>
      <trkpt lat="50.83576" lon="1.60489">
        <ele>49.9</ele>
        <time>2015-04-07T17:01:07.000Z</time>
      </trkpt>
      <trkpt lat="50.83577" lon="1.6049">
        <ele>49.9</ele>
        <time>2015-04-07T17:01:08.000Z</time>
      </trkpt>
      <trkpt lat="50.83578" lon="1.60492">
        <ele>49.9</ele>
        <time>2015-04-07T17:01:09.000Z</time>
      </trkpt>
      <trkpt lat="50.83579" lon="1.60493">
        <ele>50</ele>
        <time>2015-04-07T17:01:10.000Z</time>
      </trkpt>
      <trkpt lat="50.8358" lon="1.60495">
        <ele>50</ele>
        <time>2015-04-07T17:01:11.000Z</time>
      </trkpt>
      <trkpt lat="50.83581" lon="1.60496">
        <ele>50</ele>
        <time>2015-04-07T17:01:12.000Z</time>
      </trkpt>
      <trkpt lat="50.83582" lon="1.60498">
        <ele>50</ele>
        <time>2015-04-07T17:01:13.000Z</time>
      </trkpt>
      <trkpt lat="50.83583" lon="1.60499">
        <ele>50</ele>
        <time>2015-04-07T17:01:14.000Z</time>
      </trkpt>
      <trkpt lat="50.83584" lon="1.60501">
        <ele>50</ele>
        <time>2015-04-07T17:01:15.000Z</time>
      </trkpt>
      <trkpt lat="50.83584" lon="1.60502">
        <ele>50.1</ele>
        <time>2015-04-07T17:01:16.000Z</time>
      </trkpt>
      <trkpt lat="50.83585" lon="1.60504">
        <ele>50.2</ele>
        <time>2015-04-07T17:01:17.000Z</time>
      </trkpt>
      <trkpt lat="50.83586" lon="1.60505">
        <ele>50.3</ele>
        <time>2015-04-07T17:01:18.000Z</time>
      </trkpt>
      <trkpt lat="50.83587" lon="1.60506">
        <ele>50.4</ele>
        <time>2015-04-07T17:01:19.000Z</time>
      </trkpt>
      <trkpt lat="50.83588" lon="1.60508">
        <ele>50.5</ele>
        <time>2015-04-07T17:01:20.000Z</time>
      </trkpt>
      <trkpt lat="50.83589" lon="1.60509">
        <ele>50.5</ele>
        <time>2015-04-07T17:01:21.000Z</time>
      </trkpt>
      <trkpt lat="50.8359" lon="1.6051">
        <ele>50.6</ele>
        <time>2015-04-07T17:01:22.000Z</time>
      </trkpt>
      <trkpt lat="50.83594" lon="1.60513">
        <ele>50.8</ele>
        <time>2015-04-07T17:01:23.000Z</time>
      </trkpt>
      <trkpt lat="50.83594" lon="1.60513">
        <ele>50.8</ele>
        <time>2015-04-07T17:01:24.000Z</time>
      </trkpt>
      <trkpt lat="50.83594" lon="1.60512">
        <ele>50.8</ele>
        <time>2015-04-07T17:01:25.000Z</time>
      </trkpt>
      <trkpt lat="50.83594" lon="1.60512">
        <ele>50.8</ele>
        <time>2015-04-07T17:01:26.000Z</time>
      </trkpt>
      <trkpt lat="50.83595" lon="1.60512">
        <ele>50.8</ele>
        <time>2015-04-07T17:01:27.000Z</time>
      </trkpt>
      <trkpt lat="50.83595" lon="1.60511">
        <ele>50.8</ele>
        <time>2015-04-07T17:01:28.000Z</time>
      </trkpt>
      <trkpt lat="50.83595" lon="1.6051">
        <ele>50.8</ele>
        <time>2015-04-07T17:01:29.000Z</time>
      </trkpt>
      <trkpt lat="50.83595" lon="1.6051">
        <ele>50.8</ele>
        <time>2015-04-07T17:01:30.000Z</time>
      </trkpt>
      <trkpt lat="50.83596" lon="1.60509">
        <ele>50.8</ele>
        <time>2015-04-07T17:01:31.000Z</time>
      </trkpt>
      <trkpt lat="50.83596" lon="1.60509">
        <ele>50.8</ele>
        <time>2015-04-07T17:01:32.000Z</time>
      </trkpt>
      <trkpt lat="50.83596" lon="1.60509">
        <ele>50.8</ele>
        <time>2015-04-07T17:01:33.000Z</time>
      </trkpt>
      <trkpt lat="50.83596" lon="1.60509">
        <ele>50.8</ele>
        <time>2015-04-07T17:01:34.000Z</time>
      </trkpt>
      <trkpt lat="50.83596" lon="1.60508">
        <ele>50.7</ele>
        <time>2015-04-07T17:01:35.000Z</time>
      </trkpt>
      <trkpt lat="50.83596" lon="1.60508">
        <ele>50.7</ele>
        <time>2015-04-07T17:01:36.000Z</time>
      </trkpt>
      <trkpt lat="50.83596" lon="1.60508">
        <ele>50.7</ele>
        <time>2015-04-07T17:01:37.000Z</time>
      </trkpt>
      <trkpt lat="50.83596" lon="1.60508">
        <ele>50.7</ele>
        <time>2015-04-07T17:01:38.000Z</time>
      </trkpt>
      <trkpt lat="50.83595" lon="1.60508">
        <ele>50.7</ele>
        <time>2015-04-07T17:01:39.000Z</time>
      </trkpt>
      <trkpt lat="50.83596" lon="1.60507">
        <ele>50.7</ele>
        <time>2015-04-07T17:01:40.000Z</time>
      </trkpt>
      <trkpt lat="50.83596" lon="1.60507">
        <ele>50.7</ele>
        <time>2015-04-07T17:01:41.000Z</time>
      </trkpt>
      <trkpt lat="50.83596" lon="1.60507">
        <ele>50.7</ele>
        <time>2015-04-07T17:01:42.000Z</time>
      </trkpt>
      <trkpt lat="50.83596" lon="1.60507">
        <ele>50.7</ele>
        <time>2015-04-07T17:01:43.000Z</time>
      </trkpt>
      <trkpt lat="50.83596" lon="1.60507">
        <ele>50.7</ele>
        <time>2015-04-07T17:01:44.000Z</time>
      </trkpt>
      <trkpt lat="50.83597" lon="1.60506">
        <ele>50.7</ele>
        <time>2015-04-07T17:01:45.000Z</time>
      </trkpt>
      <trkpt lat="50.83597" lon="1.60506">
        <ele>50.7</ele>
        <time>2015-04-07T17:01:46.000Z</time>
      </trkpt>
      <trkpt lat="50.83597" lon="1.60505">
        <ele>50.7</ele>
        <time>2015-04-07T17:01:47.000Z</time>
      </trkpt>
      <trkpt lat="50.83598" lon="1.60504">
        <ele>50.6</ele>
        <time>2015-04-07T17:01:48.000Z</time>
      </trkpt>
      <trkpt lat="50.83598" lon="1.60502">
        <ele>50.6</ele>
        <time>2015-04-07T17:01:49.000Z</time>
      </trkpt>
      <trkpt lat="50.83599" lon="1.60501">
        <ele>50.6</ele>
        <time>2015-04-07T17:01:50.000Z</time>
      </trkpt>
      <trkpt lat="50.83599" lon="1.605">
        <ele>50.6</ele>
        <time>2015-04-07T17:01:51.000Z</time>
      </trkpt>
      <trkpt lat="50.836" lon="1.60498">
        <ele>50.6</ele>
        <time>2015-04-07T17:01:52.000Z</time>
      </trkpt>
      <trkpt lat="50.836" lon="1.60496">
        <ele>50.6</ele>
        <time>2015-04-07T17:01:53.000Z</time>
      </trkpt>
      <trkpt lat="50.83601" lon="1.60494">
        <ele>50.6</ele>
        <time>2015-04-07T17:01:54.000Z</time>
      </trkpt>
      <trkpt lat="50.83602" lon="1.60493">
        <ele>50.7</ele>
        <time>2015-04-07T17:01:55.000Z</time>
      </trkpt>
      <trkpt lat="50.83602" lon="1.60491">
        <ele>50.7</ele>
        <time>2015-04-07T17:01:56.000Z</time>
      </trkpt>
      <trkpt lat="50.83603" lon="1.60489">
        <ele>50.7</ele>
        <time>2015-04-07T17:01:57.000Z</time>
      </trkpt>
      <trkpt lat="50.83603" lon="1.60488">
        <ele>50.7</ele>
        <time>2015-04-07T17:01:58.000Z</time>
      </trkpt>
      <trkpt lat="50.83605" lon="1.60485">
        <ele>50.8</ele>
        <time>2015-04-07T17:01:59.000Z</time>
      </trkpt>
      <trkpt lat="50.83605" lon="1.60485">
        <ele>50.8</ele>
        <time>2015-04-07T17:02:00.000Z</time>
      </trkpt>
      <trkpt lat="50.83605" lon="1.60486">
        <ele>50.8</ele>
        <time>2015-04-07T17:02:01.000Z</time>
      </trkpt>
      <trkpt lat="50.83605" lon="1.60486">
        <ele>50.8</ele>
        <time>2015-04-07T17:02:02.000Z</time>
      </trkpt>
      <trkpt lat="50.83604" lon="1.60487">
        <ele>50.8</ele>
        <time>2015-04-07T17:02:03.000Z</time>
      </trkpt>
      <trkpt lat="50.83604" lon="1.60487">
        <ele>50.8</ele>
        <time>2015-04-07T17:02:04.000Z</time>
      </trkpt>
      <trkpt lat="50.83604" lon="1.60487">
        <ele>50.8</ele>
        <time>2015-04-07T17:02:05.000Z</time>
      </trkpt>
      <trkpt lat="50.83604" lon="1.60488">
        <ele>50.8</ele>
        <time>2015-04-07T17:02:06.000Z</time>
      </trkpt>
      <trkpt lat="50.83604" lon="1.60488">
        <ele>50.7</ele>
        <time>2015-04-07T17:02:07.000Z</time>
      </trkpt>
      <trkpt lat="50.83604" lon="1.60489">
        <ele>50.7</ele>
        <time>2015-04-07T17:02:08.000Z</time>
      </trkpt>
      <trkpt lat="50.83604" lon="1.60489">
        <ele>50.8</ele>
        <time>2015-04-07T17:02:09.000Z</time>
      </trkpt>
      <trkpt lat="50.83604" lon="1.6049">
        <ele>50.8</ele>
        <time>2015-04-07T17:02:10.000Z</time>
      </trkpt>
      <trkpt lat="50.83604" lon="1.6049">
        <ele>50.8</ele>
        <time>2015-04-07T17:02:11.000Z</time>
      </trkpt>
      <trkpt lat="50.83604" lon="1.60491">
        <ele>50.7</ele>
        <time>2015-04-07T17:02:12.000Z</time>
      </trkpt>
      <trkpt lat="50.83604" lon="1.60491">
        <ele>50.7</ele>
        <time>2015-04-07T17:02:13.000Z</time>
      </trkpt>
      <trkpt lat="50.83604" lon="1.60491">
        <ele>50.7</ele>
        <time>2015-04-07T17:02:14.000Z</time>
      </trkpt>
      <trkpt lat="50.83604" lon="1.6049">
        <ele>50.7</ele>
        <time>2015-04-07T17:02:15.000Z</time>
      </trkpt>
      <trkpt lat="50.83604" lon="1.6049">
        <ele>50.7</ele>
        <time>2015-04-07T17:02:16.000Z</time>
      </trkpt>
      <trkpt lat="50.83604" lon="1.60489">
        <ele>50.7</ele>
        <time>2015-04-07T17:02:17.000Z</time>
      </trkpt>
      <trkpt lat="50.83604" lon="1.60489">
        <ele>50.7</ele>
        <time>2015-04-07T17:02:18.000Z</time>
      </trkpt>
      <trkpt lat="50.83604" lon="1.60488">
        <ele>50.7</ele>
        <time>2015-04-07T17:02:19.000Z</time>
      </trkpt>
      <trkpt lat="50.83604" lon="1.60486">
        <ele>50.7</ele>
        <time>2015-04-07T17:02:20.000Z</time>
      </trkpt>
      <trkpt lat="50.83604" lon="1.60486">
        <ele>50.7</ele>
        <time>2015-04-07T17:02:21.000Z</time>
      </trkpt>
      <trkpt lat="50.83604" lon="1.60486">
        <ele>50.7</ele>
        <time>2015-04-07T17:02:22.000Z</time>
      </trkpt>
      <trkpt lat="50.83604" lon="1.60486">
        <ele>50.7</ele>
        <time>2015-04-07T17:02:23.000Z</time>
      </trkpt>
      <trkpt lat="50.83604" lon="1.60486">
        <ele>50.7</ele>
        <time>2015-04-07T17:02:24.000Z</time>
      </trkpt>
      <trkpt lat="50.83604" lon="1.60486">
        <ele>50.7</ele>
        <time>2015-04-07T17:02:25.000Z</time>
      </trkpt>
      <trkpt lat="50.83604" lon="1.60486">
        <ele>50.7</ele>
        <time>2015-04-07T17:02:26.000Z</time>
      </trkpt>
      <trkpt lat="50.83604" lon="1.60486">
        <ele>50.7</ele>
        <time>2015-04-07T17:02:27.000Z</time>
      </trkpt>
      <trkpt lat="50.83604" lon="1.60486">
        <ele>50.7</ele>
        <time>2015-04-07T17:02:28.000Z</time>
      </trkpt>
      <trkpt lat="50.83604" lon="1.60486">
        <ele>50.7</ele>
        <time>2015-04-07T17:02:29.000Z</time>
      </trkpt>
      <trkpt lat="50.83604" lon="1.60486">
        <ele>50.7</ele>
        <time>2015-04-07T17:02:30.000Z</time>
      </trkpt>
      <trkpt lat="50.83604" lon="1.60486">
        <ele>50.7</ele>
        <time>2015-04-07T17:02:31.000Z</time>
      </trkpt>
      <trkpt lat="50.83604" lon="1.60486">
        <ele>50.7</ele>
        <time>2015-04-07T17:02:32.000Z</time>
      </trkpt>
      <trkpt lat="50.83604" lon="1.60486">
        <ele>50.7</ele>
        <time>2015-04-07T17:02:33.000Z</time>
      </trkpt>
      <trkpt lat="50.83604" lon="1.60486">
        <ele>50.7</ele>
        <time>2015-04-07T17:02:34.000Z</time>
      </trkpt>
      <trkpt lat="50.83604" lon="1.60486">
        <ele>50.7</ele>
        <time>2015-04-07T17:02:35.000Z</time>
      </trkpt>
      <trkpt lat="50.83604" lon="1.60486">
        <ele>50.7</ele>
        <time>2015-04-07T17:02:36.000Z</time>
      </trkpt>
      <trkpt lat="50.83604" lon="1.60486">
        <ele>50.7</ele>
        <time>2015-04-07T17:02:37.000Z</time>
      </trkpt>
      <trkpt lat="50.83604" lon="1.60486">
        <ele>50.7</ele>
        <time>2015-04-07T17:02:38.000Z</time>
      </trkpt>
      <trkpt lat="50.83604" lon="1.60486">
        <ele>50.7</ele>
        <time>2015-04-07T17:02:39.000Z</time>
      </trkpt>
      <trkpt lat="50.83604" lon="1.60485">
        <ele>50.7</ele>
        <time>2015-04-07T17:02:40.000Z</time>
      </trkpt>
      <trkpt lat="50.83604" lon="1.60485">
        <ele>50.7</ele>
        <time>2015-04-07T17:02:41.000Z</time>
      </trkpt>
      <trkpt lat="50.83604" lon="1.60485">
        <ele>50.7</ele>
        <time>2015-04-07T17:02:42.000Z</time>
      </trkpt>
      <trkpt lat="50.83604" lon="1.60486">
        <ele>50.7</ele>
        <time>2015-04-07T17:02:43.000Z</time>
      </trkpt>
      <trkpt lat="50.83604" lon="1.60486">
        <ele>50.7</ele>
        <time>2015-04-07T17:02:44.000Z</time>
      </trkpt>
      <trkpt lat="50.83604" lon="1.60486">
        <ele>50.7</ele>
        <time>2015-04-07T17:02:45.000Z</time>
      </trkpt>
      <trkpt lat="50.83604" lon="1.60486">
        <ele>50.7</ele>
        <time>2015-04-07T17:02:46.000Z</time>
      </trkpt>
      <trkpt lat="50.83604" lon="1.60486">
        <ele>50.7</ele>
        <time>2015-04-07T17:02:47.000Z</time>
      </trkpt>
      <trkpt lat="50.83604" lon="1.60486">
        <ele>50.7</ele>
        <time>2015-04-07T17:02:48.000Z</time>
      </trkpt>
      <trkpt lat="50.83604" lon="1.60486">
        <ele>50.7</ele>
        <time>2015-04-07T17:02:49.000Z</time>
      </trkpt>
      <trkpt lat="50.83604" lon="1.60486">
        <ele>50.7</ele>
        <time>2015-04-07T17:02:50.000Z</time>
      </trkpt>
      <trkpt lat="50.83604" lon="1.60486">
        <ele>50.7</ele>
        <time>2015-04-07T17:02:51.000Z</time>
      </trkpt>
      <trkpt lat="50.83604" lon="1.60486">
        <ele>50.7</ele>
        <time>2015-04-07T17:02:52.000Z</time>
      </trkpt>
      <trkpt lat="50.83604" lon="1.60486">
        <ele>50.7</ele>
        <time>2015-04-07T17:02:53.000Z</time>
      </trkpt>
      <trkpt lat="50.83604" lon="1.60486">
        <ele>50.7</ele>
        <time>2015-04-07T17:02:54.000Z</time>
      </trkpt>
      <trkpt lat="50.83604" lon="1.60486">
        <ele>50.7</ele>
        <time>2015-04-07T17:02:55.000Z</time>
      </trkpt>
      <trkpt lat="50.83604" lon="1.60486">
        <ele>50.7</ele>
        <time>2015-04-07T17:02:56.000Z</time>
      </trkpt>
      <trkpt lat="50.83604" lon="1.60486">
        <ele>50.7</ele>
        <time>2015-04-07T17:02:57.000Z</time>
      </trkpt>
      <trkpt lat="50.83604" lon="1.60486">
        <ele>50.7</ele>
        <time>2015-04-07T17:02:58.000Z</time>
      </trkpt>
      <trkpt lat="50.83604" lon="1.60486">
        <ele>50.7</ele>
        <time>2015-04-07T17:02:59.000Z</time>
      </trkpt>
      <trkpt lat="50.83604" lon="1.60486">
        <ele>50.7</ele>
        <time>2015-04-07T17:03:00.000Z</time>
      </trkpt>
      <trkpt lat="50.83604" lon="1.60486">
        <ele>50.7</ele>
        <time>2015-04-07T17:03:01.000Z</time>
      </trkpt>
      <trkpt lat="50.83604" lon="1.60486">
        <ele>50.7</ele>
        <time>2015-04-07T17:03:02.000Z</time>
      </trkpt>
      <trkpt lat="50.83604" lon="1.60486">
        <ele>50.7</ele>
        <time>2015-04-07T17:03:03.000Z</time>
      </trkpt>
      <trkpt lat="50.83604" lon="1.60486">
        <ele>50.7</ele>
        <time>2015-04-07T17:03:04.000Z</time>
      </trkpt>
      <trkpt lat="50.83604" lon="1.60486">
        <ele>50.7</ele>
        <time>2015-04-07T17:03:05.000Z</time>
      </trkpt>
      <trkpt lat="50.83604" lon="1.60486">
        <ele>50.7</ele>
        <time>2015-04-07T17:03:06.000Z</time>
      </trkpt>
      <trkpt lat="50.83604" lon="1.60486">
        <ele>50.7</ele>
        <time>2015-04-07T17:03:07.000Z</time>
      </trkpt>
      <trkpt lat="50.83604" lon="1.60486">
        <ele>50.7</ele>
        <time>2015-04-07T17:03:08.000Z</time>
      </trkpt>
      <trkpt lat="50.83604" lon="1.60486">
        <ele>50.7</ele>
        <time>2015-04-07T17:03:09.000Z</time>
      </trkpt>
      <trkpt lat="50.83604" lon="1.60486">
        <ele>50.7</ele>
        <time>2015-04-07T17:03:10.000Z</time>
      </trkpt>
      <trkpt lat="50.83604" lon="1.60486">
        <ele>50.7</ele>
        <time>2015-04-07T17:03:11.000Z</time>
      </trkpt>
      <trkpt lat="50.83604" lon="1.60486">
        <ele>50.7</ele>
        <time>2015-04-07T17:03:12.000Z</time>
      </trkpt>
      <trkpt lat="50.83604" lon="1.60486">
        <ele>50.7</ele>
        <time>2015-04-07T17:03:13.000Z</time>
      </trkpt>
      <trkpt lat="50.83604" lon="1.60486">
        <ele>50.7</ele>
        <time>2015-04-07T17:03:14.000Z</time>
      </trkpt>
      <trkpt lat="50.83604" lon="1.60486">
        <ele>50.7</ele>
        <time>2015-04-07T17:03:15.000Z</time>
      </trkpt>
      <trkpt lat="50.83604" lon="1.60486">
        <ele>50.7</ele>
        <time>2015-04-07T17:03:16.000Z</time>
      </trkpt>
      <trkpt lat="50.83604" lon="1.60485">
        <ele>50.7</ele>
        <time>2015-04-07T17:03:17.000Z</time>
      </trkpt>
      <trkpt lat="50.83604" lon="1.60485">
        <ele>50.7</ele>
        <time>2015-04-07T17:03:18.000Z</time>
      </trkpt>
      <trkpt lat="50.83604" lon="1.60485">
        <ele>50.7</ele>
        <time>2015-04-07T17:03:19.000Z</time>
      </trkpt>
      <trkpt lat="50.83604" lon="1.60485">
        <ele>50.7</ele>
        <time>2015-04-07T17:03:20.000Z</time>
      </trkpt>
      <trkpt lat="50.83604" lon="1.60485">
        <ele>50.7</ele>
        <time>2015-04-07T17:03:21.000Z</time>
      </trkpt>
      <trkpt lat="50.83604" lon="1.60485">
        <ele>50.7</ele>
        <time>2015-04-07T17:03:22.000Z</time>
      </trkpt>
      <trkpt lat="50.83604" lon="1.60485">
        <ele>50.7</ele>
        <time>2015-04-07T17:03:23.000Z</time>
      </trkpt>
      <trkpt lat="50.83604" lon="1.60485">
        <ele>50.7</ele>
        <time>2015-04-07T17:03:24.000Z</time>
      </trkpt>
      <trkpt lat="50.83604" lon="1.60485">
        <ele>50.7</ele>
        <time>2015-04-07T17:03:25.000Z</time>
      </trkpt>
      <trkpt lat="50.83604" lon="1.60485">
        <ele>50.7</ele>
        <time>2015-04-07T17:03:26.000Z</time>
      </trkpt>
      <trkpt lat="50.83604" lon="1.60486">
        <ele>50.7</ele>
        <time>2015-04-07T17:03:27.000Z</time>
      </trkpt>
      <trkpt lat="50.83604" lon="1.60486">
        <ele>50.7</ele>
        <time>2015-04-07T17:03:28.000Z</time>
      </trkpt>
      <trkpt lat="50.83604" lon="1.60486">
        <ele>50.7</ele>
        <time>2015-04-07T17:03:29.000Z</time>
      </trkpt>
      <trkpt lat="50.83604" lon="1.60486">
        <ele>50.7</ele>
        <time>2015-04-07T17:03:30.000Z</time>
      </trkpt>
      <trkpt lat="50.83604" lon="1.60486">
        <ele>50.7</ele>
        <time>2015-04-07T17:03:31.000Z</time>
      </trkpt>
      <trkpt lat="50.83604" lon="1.60486">
        <ele>50.7</ele>
        <time>2015-04-07T17:03:32.000Z</time>
      </trkpt>
      <trkpt lat="50.83604" lon="1.60486">
        <ele>50.7</ele>
        <time>2015-04-07T17:03:33.000Z</time>
      </trkpt>
      <trkpt lat="50.83604" lon="1.60486">
        <ele>50.7</ele>
        <time>2015-04-07T17:03:34.000Z</time>
      </trkpt>
      <trkpt lat="50.83604" lon="1.60486">
        <ele>50.7</ele>
        <time>2015-04-07T17:03:35.000Z</time>
      </trkpt>
      <trkpt lat="50.83604" lon="1.60485">
        <ele>50.7</ele>
        <time>2015-04-07T17:03:36.000Z</time>
      </trkpt>
      <trkpt lat="50.83604" lon="1.60485">
        <ele>50.7</ele>
        <time>2015-04-07T17:03:37.000Z</time>
      </trkpt>
      <trkpt lat="50.83604" lon="1.60485">
        <ele>50.7</ele>
        <time>2015-04-07T17:03:38.000Z</time>
      </trkpt>
      <trkpt lat="50.83604" lon="1.60485">
        <ele>50.7</ele>
        <time>2015-04-07T17:03:39.000Z</time>
      </trkpt>
      <trkpt lat="50.83604" lon="1.60485">
        <ele>50.7</ele>
        <time>2015-04-07T17:03:40.000Z</time>
      </trkpt>
      <trkpt lat="50.83604" lon="1.60485">
        <ele>50.7</ele>
        <time>2015-04-07T17:03:41.000Z</time>
      </trkpt>
      <trkpt lat="50.83604" lon="1.60485">
        <ele>50.7</ele>
        <time>2015-04-07T17:03:42.000Z</time>
      </trkpt>
      <trkpt lat="50.83604" lon="1.60485">
        <ele>50.7</ele>
        <time>2015-04-07T17:03:43.000Z</time>
      </trkpt>
      <trkpt lat="50.83604" lon="1.60485">
        <ele>50.7</ele>
        <time>2015-04-07T17:03:44.000Z</time>
      </trkpt>
      <trkpt lat="50.83604" lon="1.60485">
        <ele>50.7</ele>
        <time>2015-04-07T17:03:45.000Z</time>
      </trkpt>
      <trkpt lat="50.83604" lon="1.60485">
        <ele>50.7</ele>
        <time>2015-04-07T17:03:46.000Z</time>
      </trkpt>
      <trkpt lat="50.83604" lon="1.60485">
        <ele>50.7</ele>
        <time>2015-04-07T17:03:47.000Z</time>
      </trkpt>
      <trkpt lat="50.83604" lon="1.60485">
        <ele>50.7</ele>
        <time>2015-04-07T17:03:48.000Z</time>
      </trkpt>
      <trkpt lat="50.83604" lon="1.60485">
        <ele>50.7</ele>
        <time>2015-04-07T17:03:49.000Z</time>
      </trkpt>
      <trkpt lat="50.83604" lon="1.60485">
        <ele>50.7</ele>
        <time>2015-04-07T17:03:50.000Z</time>
      </trkpt>
      <trkpt lat="50.83604" lon="1.60485">
        <ele>50.7</ele>
        <time>2015-04-07T17:03:51.000Z</time>
      </trkpt>
      <trkpt lat="50.83604" lon="1.60485">
        <ele>50.7</ele>
        <time>2015-04-07T17:03:52.000Z</time>
      </trkpt>
      <trkpt lat="50.83604" lon="1.60485">
        <ele>50.7</ele>
        <time>2015-04-07T17:03:53.000Z</time>
      </trkpt>
      <trkpt lat="50.83604" lon="1.60485">
        <ele>50.7</ele>
        <time>2015-04-07T17:03:54.000Z</time>
      </trkpt>
      <trkpt lat="50.83604" lon="1.60485">
        <ele>50.7</ele>
        <time>2015-04-07T17:03:55.000Z</time>
      </trkpt>
      <trkpt lat="50.83604" lon="1.60485">
        <ele>50.7</ele>
        <time>2015-04-07T17:03:56.000Z</time>
      </trkpt>
      <trkpt lat="50.83604" lon="1.60485">
        <ele>50.7</ele>
        <time>2015-04-07T17:03:57.000Z</time>
      </trkpt>
      <trkpt lat="50.83604" lon="1.60485">
        <ele>50.7</ele>
        <time>2015-04-07T17:03:58.000Z</time>
      </trkpt>
      <trkpt lat="50.83604" lon="1.60485">
        <ele>50.7</ele>
        <time>2015-04-07T17:03:59.000Z</time>
      </trkpt>
      <trkpt lat="50.83604" lon="1.60485">
        <ele>50.7</ele>
        <time>2015-04-07T17:04:00.000Z</time>
      </trkpt>
      <trkpt lat="50.83604" lon="1.60485">
        <ele>50.7</ele>
        <time>2015-04-07T17:04:01.000Z</time>
      </trkpt>
      <trkpt lat="50.83604" lon="1.60485">
        <ele>50.7</ele>
        <time>2015-04-07T17:04:02.000Z</time>
      </trkpt>
      <trkpt lat="50.83604" lon="1.60485">
        <ele>50.7</ele>
        <time>2015-04-07T17:04:03.000Z</time>
      </trkpt>
      <trkpt lat="50.83604" lon="1.60485">
        <ele>50.7</ele>
        <time>2015-04-07T17:04:04.000Z</time>
      </trkpt>
      <trkpt lat="50.83604" lon="1.60485">
        <ele>50.7</ele>
        <time>2015-04-07T17:04:05.000Z</time>
      </trkpt>
      <trkpt lat="50.83604" lon="1.60485">
        <ele>50.7</ele>
        <time>2015-04-07T17:04:06.000Z</time>
      </trkpt>
      <trkpt lat="50.83604" lon="1.60485">
        <ele>50.7</ele>
        <time>2015-04-07T17:04:07.000Z</time>
      </trkpt>
      <trkpt lat="50.83604" lon="1.60485">
        <ele>50.7</ele>
        <time>2015-04-07T17:04:08.000Z</time>
      </trkpt>
      <trkpt lat="50.83604" lon="1.60485">
        <ele>50.7</ele>
        <time>2015-04-07T17:04:09.000Z</time>
      </trkpt>
      <trkpt lat="50.83604" lon="1.60485">
        <ele>50.7</ele>
        <time>2015-04-07T17:04:10.000Z</time>
      </trkpt>
      <trkpt lat="50.83604" lon="1.60485">
        <ele>50.7</ele>
        <time>2015-04-07T17:04:11.000Z</time>
      </trkpt>
      <trkpt lat="50.83604" lon="1.60485">
        <ele>50.7</ele>
        <time>2015-04-07T17:04:12.000Z</time>
      </trkpt>
      <trkpt lat="50.83604" lon="1.60485">
        <ele>50.7</ele>
        <time>2015-04-07T17:04:13.000Z</time>
      </trkpt>
      <trkpt lat="50.83604" lon="1.60485">
        <ele>50.7</ele>
        <time>2015-04-07T17:04:14.000Z</time>
      </trkpt>
      <trkpt lat="50.83604" lon="1.60485">
        <ele>50.7</ele>
        <time>2015-04-07T17:04:15.000Z</time>
      </trkpt>
      <trkpt lat="50.83604" lon="1.60485">
        <ele>50.7</ele>
        <time>2015-04-07T17:04:16.000Z</time>
      </trkpt>
      <trkpt lat="50.83604" lon="1.60485">
        <ele>50.7</ele>
        <time>2015-04-07T17:04:17.000Z</time>
      </trkpt>
      <trkpt lat="50.83604" lon="1.60485">
        <ele>50.7</ele>
        <time>2015-04-07T17:04:18.000Z</time>
      </trkpt>
      <trkpt lat="50.83604" lon="1.60485">
        <ele>50.7</ele>
        <time>2015-04-07T17:04:19.000Z</time>
      </trkpt>
      <trkpt lat="50.83604" lon="1.60485">
        <ele>50.7</ele>
        <time>2015-04-07T17:04:20.000Z</time>
      </trkpt>
      <trkpt lat="50.83604" lon="1.60484">
        <ele>50.8</ele>
        <time>2015-04-07T17:04:21.000Z</time>
      </trkpt>
      <trkpt lat="50.83604" lon="1.60484">
        <ele>50.8</ele>
        <time>2015-04-07T17:04:22.000Z</time>
      </trkpt>
      <trkpt lat="50.83604" lon="1.60485">
        <ele>50.7</ele>
        <time>2015-04-07T17:04:23.000Z</time>
      </trkpt>
      <trkpt lat="50.83604" lon="1.60485">
        <ele>50.7</ele>
        <time>2015-04-07T17:04:24.000Z</time>
      </trkpt>
      <trkpt lat="50.83604" lon="1.60485">
        <ele>50.7</ele>
        <time>2015-04-07T17:04:25.000Z</time>
      </trkpt>
      <trkpt lat="50.83604" lon="1.60485">
        <ele>50.7</ele>
        <time>2015-04-07T17:04:26.000Z</time>
      </trkpt>
      <trkpt lat="50.83604" lon="1.60484">
        <ele>50.7</ele>
        <time>2015-04-07T17:04:27.000Z</time>
      </trkpt>
      <trkpt lat="50.83604" lon="1.60484">
        <ele>50.7</ele>
        <time>2015-04-07T17:04:28.000Z</time>
      </trkpt>
      <trkpt lat="50.83604" lon="1.60484">
        <ele>50.8</ele>
        <time>2015-04-07T17:04:29.000Z</time>
      </trkpt>
      <trkpt lat="50.83604" lon="1.60484">
        <ele>50.8</ele>
        <time>2015-04-07T17:04:30.000Z</time>
      </trkpt>
      <trkpt lat="50.83604" lon="1.60484">
        <ele>50.8</ele>
        <time>2015-04-07T17:04:31.000Z</time>
      </trkpt>
      <trkpt lat="50.83604" lon="1.60484">
        <ele>50.8</ele>
        <time>2015-04-07T17:04:32.000Z</time>
      </trkpt>
      <trkpt lat="50.83604" lon="1.60484">
        <ele>50.8</ele>
        <time>2015-04-07T17:04:33.000Z</time>
      </trkpt>
      <trkpt lat="50.83604" lon="1.60484">
        <ele>50.8</ele>
        <time>2015-04-07T17:04:34.000Z</time>
      </trkpt>
      <trkpt lat="50.83604" lon="1.60484">
        <ele>50.8</ele>
        <time>2015-04-07T17:04:35.000Z</time>
      </trkpt>
      <trkpt lat="50.83604" lon="1.60484">
        <ele>50.8</ele>
        <time>2015-04-07T17:04:36.000Z</time>
      </trkpt>
      <trkpt lat="50.83604" lon="1.60484">
        <ele>50.8</ele>
        <time>2015-04-07T17:04:37.000Z</time>
      </trkpt>
      <trkpt lat="50.83604" lon="1.60484">
        <ele>50.8</ele>
        <time>2015-04-07T17:04:38.000Z</time>
      </trkpt>
      <trkpt lat="50.83604" lon="1.60484">
        <ele>50.8</ele>
        <time>2015-04-07T17:04:39.000Z</time>
      </trkpt>
      <trkpt lat="50.83604" lon="1.60484">
        <ele>50.8</ele>
        <time>2015-04-07T17:04:40.000Z</time>
      </trkpt>
      <trkpt lat="50.83604" lon="1.60484">
        <ele>50.8</ele>
        <time>2015-04-07T17:04:41.000Z</time>
      </trkpt>
      <trkpt lat="50.83604" lon="1.60484">
        <ele>50.8</ele>
        <time>2015-04-07T17:04:42.000Z</time>
      </trkpt>
      <trkpt lat="50.83604" lon="1.60484">
        <ele>50.8</ele>
        <time>2015-04-07T17:04:43.000Z</time>
      </trkpt>
      <trkpt lat="50.83605" lon="1.60484">
        <ele>50.8</ele>
        <time>2015-04-07T17:04:44.000Z</time>
      </trkpt>
      <trkpt lat="50.83605" lon="1.60483">
        <ele>50.8</ele>
        <time>2015-04-07T17:04:45.000Z</time>
      </trkpt>
      <trkpt lat="50.83605" lon="1.60483">
        <ele>50.8</ele>
        <time>2015-04-07T17:04:46.000Z</time>
      </trkpt>
      <trkpt lat="50.83606" lon="1.60482">
        <ele>50.8</ele>
        <time>2015-04-07T17:04:47.000Z</time>
      </trkpt>
      <trkpt lat="50.83606" lon="1.60482">
        <ele>50.8</ele>
        <time>2015-04-07T17:04:48.000Z</time>
      </trkpt>
      <trkpt lat="50.83606" lon="1.60482">
        <ele>50.8</ele>
        <time>2015-04-07T17:04:49.000Z</time>
      </trkpt>
      <trkpt lat="50.83606" lon="1.60482">
        <ele>50.8</ele>
        <time>2015-04-07T17:04:50.000Z</time>
      </trkpt>
      <trkpt lat="50.83606" lon="1.60482">
        <ele>50.8</ele>
        <time>2015-04-07T17:04:51.000Z</time>
      </trkpt>
      <trkpt lat="50.83606" lon="1.60482">
        <ele>50.8</ele>
        <time>2015-04-07T17:04:52.000Z</time>
      </trkpt>
      <trkpt lat="50.83606" lon="1.60482">
        <ele>50.8</ele>
        <time>2015-04-07T17:04:53.000Z</time>
      </trkpt>
      <trkpt lat="50.83606" lon="1.60482">
        <ele>50.8</ele>
        <time>2015-04-07T17:04:54.000Z</time>
      </trkpt>
      <trkpt lat="50.83606" lon="1.60482">
        <ele>50.8</ele>
        <time>2015-04-07T17:04:55.000Z</time>
      </trkpt>
      <trkpt lat="50.83606" lon="1.60482">
        <ele>50.8</ele>
        <time>2015-04-07T17:04:56.000Z</time>
      </trkpt>
      <trkpt lat="50.83606" lon="1.60482">
        <ele>50.8</ele>
        <time>2015-04-07T17:04:57.000Z</time>
      </trkpt>
      <trkpt lat="50.83606" lon="1.60481">
        <ele>50.8</ele>
        <time>2015-04-07T17:04:58.000Z</time>
      </trkpt>
      <trkpt lat="50.83606" lon="1.6048">
        <ele>50.8</ele>
        <time>2015-04-07T17:04:59.000Z</time>
      </trkpt>
      <trkpt lat="50.83606" lon="1.60479">
        <ele>50.8</ele>
        <time>2015-04-07T17:05:00.000Z</time>
      </trkpt>
      <trkpt lat="50.83607" lon="1.60478">
        <ele>50.8</ele>
        <time>2015-04-07T17:05:01.000Z</time>
      </trkpt>
      <trkpt lat="50.83607" lon="1.60477">
        <ele>50.8</ele>
        <time>2015-04-07T17:05:02.000Z</time>
      </trkpt>
      <trkpt lat="50.83607" lon="1.60476">
        <ele>50.9</ele>
        <time>2015-04-07T17:05:03.000Z</time>
      </trkpt>
      <trkpt lat="50.83608" lon="1.60475">
        <ele>50.9</ele>
        <time>2015-04-07T17:05:04.000Z</time>
      </trkpt>
      <trkpt lat="50.83608" lon="1.60474">
        <ele>50.9</ele>
        <time>2015-04-07T17:05:05.000Z</time>
      </trkpt>
      <trkpt lat="50.83608" lon="1.60473">
        <ele>50.9</ele>
        <time>2015-04-07T17:05:06.000Z</time>
      </trkpt>
      <trkpt lat="50.83609" lon="1.60472">
        <ele>50.9</ele>
        <time>2015-04-07T17:05:07.000Z</time>
      </trkpt>
      <trkpt lat="50.83609" lon="1.60471">
        <ele>50.9</ele>
        <time>2015-04-07T17:05:08.000Z</time>
      </trkpt>
      <trkpt lat="50.83609" lon="1.60469">
        <ele>50.8</ele>
        <time>2015-04-07T17:05:09.000Z</time>
      </trkpt>
      <trkpt lat="50.8361" lon="1.60468">
        <ele>50.8</ele>
        <time>2015-04-07T17:05:10.000Z</time>
      </trkpt>
      <trkpt lat="50.8361" lon="1.60467">
        <ele>50.8</ele>
        <time>2015-04-07T17:05:11.000Z</time>
      </trkpt>
      <trkpt lat="50.83611" lon="1.60466">
        <ele>50.8</ele>
        <time>2015-04-07T17:05:12.000Z</time>
      </trkpt>
      <trkpt lat="50.83611" lon="1.60465">
        <ele>50.7</ele>
        <time>2015-04-07T17:05:13.000Z</time>
      </trkpt>
      <trkpt lat="50.83612" lon="1.60463">
        <ele>50.7</ele>
        <time>2015-04-07T17:05:14.000Z</time>
      </trkpt>
      <trkpt lat="50.83612" lon="1.60462">
        <ele>50.6</ele>
        <time>2015-04-07T17:05:15.000Z</time>
      </trkpt>
      <trkpt lat="50.83613" lon="1.60461">
        <ele>50.6</ele>
        <time>2015-04-07T17:05:16.000Z</time>
      </trkpt>
      <trkpt lat="50.83613" lon="1.60459">
        <ele>50.6</ele>
        <time>2015-04-07T17:05:17.000Z</time>
      </trkpt>
      <trkpt lat="50.83614" lon="1.60458">
        <ele>50.5</ele>
        <time>2015-04-07T17:05:18.000Z</time>
      </trkpt>
      <trkpt lat="50.83614" lon="1.60457">
        <ele>50.5</ele>
        <time>2015-04-07T17:05:19.000Z</time>
      </trkpt>
      <trkpt lat="50.83615" lon="1.60455">
        <ele>50.5</ele>
        <time>2015-04-07T17:05:20.000Z</time>
      </trkpt>
      <trkpt lat="50.83616" lon="1.60454">
        <ele>50.4</ele>
        <time>2015-04-07T17:05:21.000Z</time>
      </trkpt>
      <trkpt lat="50.83616" lon="1.60452">
        <ele>50.4</ele>
        <time>2015-04-07T17:05:22.000Z</time>
      </trkpt>
      <trkpt lat="50.83617" lon="1.60451">
        <ele>50.4</ele>
        <time>2015-04-07T17:05:23.000Z</time>
      </trkpt>
      <trkpt lat="50.83618" lon="1.60449">
        <ele>50.4</ele>
        <time>2015-04-07T17:05:24.000Z</time>
      </trkpt>
      <trkpt lat="50.83618" lon="1.60448">
        <ele>50.3</ele>
        <time>2015-04-07T17:05:25.000Z</time>
      </trkpt>
      <trkpt lat="50.83619" lon="1.60446">
        <ele>50.3</ele>
        <time>2015-04-07T17:05:26.000Z</time>
      </trkpt>
      <trkpt lat="50.83619" lon="1.60445">
        <ele>50.3</ele>
        <time>2015-04-07T17:05:27.000Z</time>
      </trkpt>
      <trkpt lat="50.8362" lon="1.60443">
        <ele>50.3</ele>
        <time>2015-04-07T17:05:28.000Z</time>
      </trkpt>
      <trkpt lat="50.83621" lon="1.60442">
        <ele>50.3</ele>
        <time>2015-04-07T17:05:29.000Z</time>
      </trkpt>
      <trkpt lat="50.83622" lon="1.6044">
        <ele>50.2</ele>
        <time>2015-04-07T17:05:30.000Z</time>
      </trkpt>
      <trkpt lat="50.83622" lon="1.60439">
        <ele>50.2</ele>
        <time>2015-04-07T17:05:31.000Z</time>
      </trkpt>
      <trkpt lat="50.83623" lon="1.60437">
        <ele>50.2</ele>
        <time>2015-04-07T17:05:32.000Z</time>
      </trkpt>
      <trkpt lat="50.83624" lon="1.60436">
        <ele>50.1</ele>
        <time>2015-04-07T17:05:33.000Z</time>
      </trkpt>
      <trkpt lat="50.83624" lon="1.60434">
        <ele>50.1</ele>
        <time>2015-04-07T17:05:34.000Z</time>
      </trkpt>
      <trkpt lat="50.83625" lon="1.60433">
        <ele>50.1</ele>
        <time>2015-04-07T17:05:35.000Z</time>
      </trkpt>
      <trkpt lat="50.83626" lon="1.60431">
        <ele>50.1</ele>
        <time>2015-04-07T17:05:36.000Z</time>
      </trkpt>
      <trkpt lat="50.83627" lon="1.6043">
        <ele>50</ele>
        <time>2015-04-07T17:05:37.000Z</time>
      </trkpt>
      <trkpt lat="50.83627" lon="1.60428">
        <ele>50</ele>
        <time>2015-04-07T17:05:38.000Z</time>
      </trkpt>
      <trkpt lat="50.83628" lon="1.60427">
        <ele>50</ele>
        <time>2015-04-07T17:05:39.000Z</time>
      </trkpt>
      <trkpt lat="50.83629" lon="1.60425">
        <ele>49.9</ele>
        <time>2015-04-07T17:05:40.000Z</time>
      </trkpt>
      <trkpt lat="50.8363" lon="1.60424">
        <ele>49.9</ele>
        <time>2015-04-07T17:05:41.000Z</time>
      </trkpt>
      <trkpt lat="50.8363" lon="1.60422">
        <ele>49.9</ele>
        <time>2015-04-07T17:05:42.000Z</time>
      </trkpt>
      <trkpt lat="50.83631" lon="1.6042">
        <ele>49.8</ele>
        <time>2015-04-07T17:05:43.000Z</time>
      </trkpt>
      <trkpt lat="50.83632" lon="1.60418">
        <ele>49.8</ele>
        <time>2015-04-07T17:05:44.000Z</time>
      </trkpt>
      <trkpt lat="50.83633" lon="1.60417">
        <ele>49.8</ele>
        <time>2015-04-07T17:05:45.000Z</time>
      </trkpt>
      <trkpt lat="50.83633" lon="1.60415">
        <ele>49.7</ele>
        <time>2015-04-07T17:05:46.000Z</time>
      </trkpt>
      <trkpt lat="50.83634" lon="1.60413">
        <ele>49.7</ele>
        <time>2015-04-07T17:05:47.000Z</time>
      </trkpt>
      <trkpt lat="50.83635" lon="1.60412">
        <ele>49.7</ele>
        <time>2015-04-07T17:05:48.000Z</time>
      </trkpt>
      <trkpt lat="50.83635" lon="1.6041">
        <ele>49.7</ele>
        <time>2015-04-07T17:05:49.000Z</time>
      </trkpt>
      <trkpt lat="50.83636" lon="1.60408">
        <ele>49.6</ele>
        <time>2015-04-07T17:05:50.000Z</time>
      </trkpt>
      <trkpt lat="50.83637" lon="1.60406">
        <ele>49.6</ele>
        <time>2015-04-07T17:05:51.000Z</time>
      </trkpt>
      <trkpt lat="50.83637" lon="1.60405">
        <ele>49.5</ele>
        <time>2015-04-07T17:05:52.000Z</time>
      </trkpt>
      <trkpt lat="50.83638" lon="1.60403">
        <ele>49.5</ele>
        <time>2015-04-07T17:05:53.000Z</time>
      </trkpt>
      <trkpt lat="50.83639" lon="1.60401">
        <ele>49.4</ele>
        <time>2015-04-07T17:05:54.000Z</time>
      </trkpt>
      <trkpt lat="50.83639" lon="1.60399">
        <ele>49.4</ele>
        <time>2015-04-07T17:05:55.000Z</time>
      </trkpt>
      <trkpt lat="50.8364" lon="1.60398">
        <ele>49.3</ele>
        <time>2015-04-07T17:05:56.000Z</time>
      </trkpt>
      <trkpt lat="50.83641" lon="1.60396">
        <ele>49.3</ele>
        <time>2015-04-07T17:05:57.000Z</time>
      </trkpt>
      <trkpt lat="50.83641" lon="1.60394">
        <ele>49.3</ele>
        <time>2015-04-07T17:05:58.000Z</time>
      </trkpt>
      <trkpt lat="50.83642" lon="1.60392">
        <ele>49.2</ele>
        <time>2015-04-07T17:05:59.000Z</time>
      </trkpt>
      <trkpt lat="50.83643" lon="1.60391">
        <ele>49.2</ele>
        <time>2015-04-07T17:06:00.000Z</time>
      </trkpt>
      <trkpt lat="50.83643" lon="1.60389">
        <ele>49.2</ele>
        <time>2015-04-07T17:06:01.000Z</time>
      </trkpt>
      <trkpt lat="50.83644" lon="1.60387">
        <ele>49.2</ele>
        <time>2015-04-07T17:06:02.000Z</time>
      </trkpt>
      <trkpt lat="50.83645" lon="1.60385">
        <ele>49.2</ele>
        <time>2015-04-07T17:06:03.000Z</time>
      </trkpt>
      <trkpt lat="50.83645" lon="1.60384">
        <ele>49.2</ele>
        <time>2015-04-07T17:06:04.000Z</time>
      </trkpt>
      <trkpt lat="50.83646" lon="1.60382">
        <ele>49.2</ele>
        <time>2015-04-07T17:06:05.000Z</time>
      </trkpt>
      <trkpt lat="50.83647" lon="1.6038">
        <ele>49.2</ele>
        <time>2015-04-07T17:06:06.000Z</time>
      </trkpt>
      <trkpt lat="50.83648" lon="1.60378">
        <ele>49.2</ele>
        <time>2015-04-07T17:06:07.000Z</time>
      </trkpt>
      <trkpt lat="50.83648" lon="1.60377">
        <ele>49.2</ele>
        <time>2015-04-07T17:06:08.000Z</time>
      </trkpt>
      <trkpt lat="50.83649" lon="1.60375">
        <ele>49.2</ele>
        <time>2015-04-07T17:06:09.000Z</time>
      </trkpt>
      <trkpt lat="50.8365" lon="1.60373">
        <ele>49.2</ele>
        <time>2015-04-07T17:06:10.000Z</time>
      </trkpt>
      <trkpt lat="50.8365" lon="1.60372">
        <ele>49.2</ele>
        <time>2015-04-07T17:06:11.000Z</time>
      </trkpt>
      <trkpt lat="50.83651" lon="1.6037">
        <ele>49.1</ele>
        <time>2015-04-07T17:06:12.000Z</time>
      </trkpt>
      <trkpt lat="50.83652" lon="1.60368">
        <ele>49.1</ele>
        <time>2015-04-07T17:06:13.000Z</time>
      </trkpt>
      <trkpt lat="50.83652" lon="1.60366">
        <ele>49.1</ele>
        <time>2015-04-07T17:06:14.000Z</time>
      </trkpt>
      <trkpt lat="50.83653" lon="1.60365">
        <ele>49.1</ele>
        <time>2015-04-07T17:06:15.000Z</time>
      </trkpt>
      <trkpt lat="50.83654" lon="1.60363">
        <ele>49</ele>
        <time>2015-04-07T17:06:16.000Z</time>
      </trkpt>
      <trkpt lat="50.83655" lon="1.60361">
        <ele>49</ele>
        <time>2015-04-07T17:06:17.000Z</time>
      </trkpt>
      <trkpt lat="50.83655" lon="1.60359">
        <ele>48.9</ele>
        <time>2015-04-07T17:06:18.000Z</time>
      </trkpt>
      <trkpt lat="50.83656" lon="1.60358">
        <ele>48.9</ele>
        <time>2015-04-07T17:06:19.000Z</time>
      </trkpt>
      <trkpt lat="50.83657" lon="1.60356">
        <ele>48.8</ele>
        <time>2015-04-07T17:06:20.000Z</time>
      </trkpt>
      <trkpt lat="50.83657" lon="1.60354">
        <ele>48.7</ele>
        <time>2015-04-07T17:06:21.000Z</time>
      </trkpt>
      <trkpt lat="50.83658" lon="1.60352">
        <ele>48.7</ele>
        <time>2015-04-07T17:06:22.000Z</time>
      </trkpt>
      <trkpt lat="50.83659" lon="1.60351">
        <ele>48.6</ele>
        <time>2015-04-07T17:06:23.000Z</time>
      </trkpt>
      <trkpt lat="50.8366" lon="1.60349">
        <ele>48.6</ele>
        <time>2015-04-07T17:06:24.000Z</time>
      </trkpt>
      <trkpt lat="50.8366" lon="1.60347">
        <ele>48.5</ele>
        <time>2015-04-07T17:06:25.000Z</time>
      </trkpt>
      <trkpt lat="50.83661" lon="1.60345">
        <ele>48.4</ele>
        <time>2015-04-07T17:06:26.000Z</time>
      </trkpt>
      <trkpt lat="50.83662" lon="1.60343">
        <ele>48.4</ele>
        <time>2015-04-07T17:06:27.000Z</time>
      </trkpt>
      <trkpt lat="50.83663" lon="1.60341">
        <ele>48.3</ele>
        <time>2015-04-07T17:06:28.000Z</time>
      </trkpt>
      <trkpt lat="50.83663" lon="1.6034">
        <ele>48.2</ele>
        <time>2015-04-07T17:06:29.000Z</time>
      </trkpt>
      <trkpt lat="50.83664" lon="1.60338">
        <ele>48.2</ele>
        <time>2015-04-07T17:06:30.000Z</time>
      </trkpt>
      <trkpt lat="50.83665" lon="1.60336">
        <ele>48.1</ele>
        <time>2015-04-07T17:06:31.000Z</time>
      </trkpt>
      <trkpt lat="50.83665" lon="1.60335">
        <ele>48</ele>
        <time>2015-04-07T17:06:32.000Z</time>
      </trkpt>
      <trkpt lat="50.83666" lon="1.60333">
        <ele>48</ele>
        <time>2015-04-07T17:06:33.000Z</time>
      </trkpt>
      <trkpt lat="50.83667" lon="1.60331">
        <ele>48</ele>
        <time>2015-04-07T17:06:34.000Z</time>
      </trkpt>
      <trkpt lat="50.83668" lon="1.60329">
        <ele>48</ele>
        <time>2015-04-07T17:06:35.000Z</time>
      </trkpt>
      <trkpt lat="50.83668" lon="1.60328">
        <ele>48.1</ele>
        <time>2015-04-07T17:06:36.000Z</time>
      </trkpt>
      <trkpt lat="50.83669" lon="1.60326">
        <ele>48.1</ele>
        <time>2015-04-07T17:06:37.000Z</time>
      </trkpt>
      <trkpt lat="50.8367" lon="1.60324">
        <ele>48.1</ele>
        <time>2015-04-07T17:06:38.000Z</time>
      </trkpt>
      <trkpt lat="50.83671" lon="1.60322">
        <ele>48.1</ele>
        <time>2015-04-07T17:06:39.000Z</time>
      </trkpt>
      <trkpt lat="50.83672" lon="1.60321">
        <ele>48.1</ele>
        <time>2015-04-07T17:06:40.000Z</time>
      </trkpt>
      <trkpt lat="50.83672" lon="1.60319">
        <ele>48.1</ele>
        <time>2015-04-07T17:06:41.000Z</time>
      </trkpt>
      <trkpt lat="50.83673" lon="1.60317">
        <ele>48.1</ele>
        <time>2015-04-07T17:06:42.000Z</time>
      </trkpt>
      <trkpt lat="50.83674" lon="1.60316">
        <ele>48.1</ele>
        <time>2015-04-07T17:06:43.000Z</time>
      </trkpt>
      <trkpt lat="50.83674" lon="1.60314">
        <ele>48.1</ele>
        <time>2015-04-07T17:06:44.000Z</time>
      </trkpt>
      <trkpt lat="50.83675" lon="1.60312">
        <ele>48.1</ele>
        <time>2015-04-07T17:06:45.000Z</time>
      </trkpt>
      <trkpt lat="50.83676" lon="1.60311">
        <ele>48.1</ele>
        <time>2015-04-07T17:06:46.000Z</time>
      </trkpt>
      <trkpt lat="50.83677" lon="1.60309">
        <ele>48</ele>
        <time>2015-04-07T17:06:47.000Z</time>
      </trkpt>
      <trkpt lat="50.83677" lon="1.60307">
        <ele>48</ele>
        <time>2015-04-07T17:06:48.000Z</time>
      </trkpt>
      <trkpt lat="50.83678" lon="1.60305">
        <ele>48</ele>
        <time>2015-04-07T17:06:49.000Z</time>
      </trkpt>
      <trkpt lat="50.83679" lon="1.60303">
        <ele>47.9</ele>
        <time>2015-04-07T17:06:50.000Z</time>
      </trkpt>
      <trkpt lat="50.8368" lon="1.60302">
        <ele>47.9</ele>
        <time>2015-04-07T17:06:51.000Z</time>
      </trkpt>
      <trkpt lat="50.8368" lon="1.603">
        <ele>47.8</ele>
        <time>2015-04-07T17:06:52.000Z</time>
      </trkpt>
      <trkpt lat="50.83681" lon="1.60298">
        <ele>47.7</ele>
        <time>2015-04-07T17:06:53.000Z</time>
      </trkpt>
      <trkpt lat="50.83682" lon="1.60296">
        <ele>47.7</ele>
        <time>2015-04-07T17:06:54.000Z</time>
      </trkpt>
      <trkpt lat="50.83683" lon="1.60295">
        <ele>47.6</ele>
        <time>2015-04-07T17:06:55.000Z</time>
      </trkpt>
      <trkpt lat="50.83683" lon="1.60293">
        <ele>47.5</ele>
        <time>2015-04-07T17:06:56.000Z</time>
      </trkpt>
      <trkpt lat="50.83684" lon="1.60291">
        <ele>47.5</ele>
        <time>2015-04-07T17:06:57.000Z</time>
      </trkpt>
      <trkpt lat="50.83685" lon="1.6029">
        <ele>47.4</ele>
        <time>2015-04-07T17:06:58.000Z</time>
      </trkpt>
      <trkpt lat="50.83686" lon="1.60288">
        <ele>47.4</ele>
        <time>2015-04-07T17:06:59.000Z</time>
      </trkpt>
      <trkpt lat="50.83686" lon="1.60286">
        <ele>47.3</ele>
        <time>2015-04-07T17:07:00.000Z</time>
      </trkpt>
      <trkpt lat="50.83687" lon="1.60284">
        <ele>47.2</ele>
        <time>2015-04-07T17:07:01.000Z</time>
      </trkpt>
      <trkpt lat="50.83688" lon="1.60282">
        <ele>47.2</ele>
        <time>2015-04-07T17:07:02.000Z</time>
      </trkpt>
      <trkpt lat="50.83689" lon="1.6028">
        <ele>47.1</ele>
        <time>2015-04-07T17:07:03.000Z</time>
      </trkpt>
      <trkpt lat="50.83689" lon="1.60278">
        <ele>47</ele>
        <time>2015-04-07T17:07:04.000Z</time>
      </trkpt>
      <trkpt lat="50.8369" lon="1.60277">
        <ele>47</ele>
        <time>2015-04-07T17:07:05.000Z</time>
      </trkpt>
      <trkpt lat="50.83691" lon="1.60275">
        <ele>47</ele>
        <time>2015-04-07T17:07:06.000Z</time>
      </trkpt>
      <trkpt lat="50.83691" lon="1.60273">
        <ele>47</ele>
        <time>2015-04-07T17:07:07.000Z</time>
      </trkpt>
      <trkpt lat="50.83692" lon="1.60271">
        <ele>47</ele>
        <time>2015-04-07T17:07:08.000Z</time>
      </trkpt>
      <trkpt lat="50.83692" lon="1.6027">
        <ele>47</ele>
        <time>2015-04-07T17:07:09.000Z</time>
      </trkpt>
      <trkpt lat="50.83693" lon="1.60268">
        <ele>47</ele>
        <time>2015-04-07T17:07:10.000Z</time>
      </trkpt>
      <trkpt lat="50.83694" lon="1.60266">
        <ele>47</ele>
        <time>2015-04-07T17:07:11.000Z</time>
      </trkpt>
      <trkpt lat="50.83694" lon="1.60264">
        <ele>47</ele>
        <time>2015-04-07T17:07:12.000Z</time>
      </trkpt>
      <trkpt lat="50.83695" lon="1.60263">
        <ele>47</ele>
        <time>2015-04-07T17:07:13.000Z</time>
      </trkpt>
      <trkpt lat="50.83695" lon="1.60261">
        <ele>47</ele>
        <time>2015-04-07T17:07:14.000Z</time>
      </trkpt>
      <trkpt lat="50.83696" lon="1.60259">
        <ele>47</ele>
        <time>2015-04-07T17:07:15.000Z</time>
      </trkpt>
      <trkpt lat="50.83697" lon="1.60257">
        <ele>47</ele>
        <time>2015-04-07T17:07:16.000Z</time>
      </trkpt>
      <trkpt lat="50.83697" lon="1.60256">
        <ele>47</ele>
        <time>2015-04-07T17:07:17.000Z</time>
      </trkpt>
      <trkpt lat="50.83698" lon="1.60254">
        <ele>47</ele>
        <time>2015-04-07T17:07:18.000Z</time>
      </trkpt>
      <trkpt lat="50.83698" lon="1.60252">
        <ele>47</ele>
        <time>2015-04-07T17:07:19.000Z</time>
      </trkpt>
      <trkpt lat="50.83699" lon="1.60251">
        <ele>47</ele>
        <time>2015-04-07T17:07:20.000Z</time>
      </trkpt>
      <trkpt lat="50.837" lon="1.60249">
        <ele>47</ele>
        <time>2015-04-07T17:07:21.000Z</time>
      </trkpt>
      <trkpt lat="50.837" lon="1.60248">
        <ele>46.9</ele>
        <time>2015-04-07T17:07:22.000Z</time>
      </trkpt>
      <trkpt lat="50.83701" lon="1.60246">
        <ele>46.9</ele>
        <time>2015-04-07T17:07:23.000Z</time>
      </trkpt>
      <trkpt lat="50.83701" lon="1.60245">
        <ele>46.8</ele>
        <time>2015-04-07T17:07:24.000Z</time>
      </trkpt>
      <trkpt lat="50.83702" lon="1.60244">
        <ele>46.8</ele>
        <time>2015-04-07T17:07:25.000Z</time>
      </trkpt>
      <trkpt lat="50.83702" lon="1.60242">
        <ele>46.7</ele>
        <time>2015-04-07T17:07:26.000Z</time>
      </trkpt>
      <trkpt lat="50.83703" lon="1.60241">
        <ele>46.7</ele>
        <time>2015-04-07T17:07:27.000Z</time>
      </trkpt>
      <trkpt lat="50.83703" lon="1.60239">
        <ele>46.6</ele>
        <time>2015-04-07T17:07:28.000Z</time>
      </trkpt>
      <trkpt lat="50.83704" lon="1.60238">
        <ele>46.6</ele>
        <time>2015-04-07T17:07:29.000Z</time>
      </trkpt>
      <trkpt lat="50.83704" lon="1.60236">
        <ele>46.5</ele>
        <time>2015-04-07T17:07:30.000Z</time>
      </trkpt>
      <trkpt lat="50.83705" lon="1.60235">
        <ele>46.4</ele>
        <time>2015-04-07T17:07:31.000Z</time>
      </trkpt>
      <trkpt lat="50.83706" lon="1.60233">
        <ele>46.4</ele>
        <time>2015-04-07T17:07:32.000Z</time>
      </trkpt>
      <trkpt lat="50.83706" lon="1.60231">
        <ele>46.3</ele>
        <time>2015-04-07T17:07:33.000Z</time>
      </trkpt>
      <trkpt lat="50.83707" lon="1.6023">
        <ele>46.3</ele>
        <time>2015-04-07T17:07:34.000Z</time>
      </trkpt>
      <trkpt lat="50.83707" lon="1.60228">
        <ele>46.2</ele>
        <time>2015-04-07T17:07:35.000Z</time>
      </trkpt>
      <trkpt lat="50.83708" lon="1.60227">
        <ele>46.2</ele>
        <time>2015-04-07T17:07:36.000Z</time>
      </trkpt>
      <trkpt lat="50.83708" lon="1.60225">
        <ele>46.1</ele>
        <time>2015-04-07T17:07:37.000Z</time>
      </trkpt>
      <trkpt lat="50.83709" lon="1.60224">
        <ele>46</ele>
        <time>2015-04-07T17:07:38.000Z</time>
      </trkpt>
      <trkpt lat="50.83709" lon="1.60222">
        <ele>46</ele>
        <time>2015-04-07T17:07:39.000Z</time>
      </trkpt>
      <trkpt lat="50.8371" lon="1.6022">
        <ele>45.9</ele>
        <time>2015-04-07T17:07:40.000Z</time>
      </trkpt>
      <trkpt lat="50.83711" lon="1.60219">
        <ele>45.9</ele>
        <time>2015-04-07T17:07:41.000Z</time>
      </trkpt>
      <trkpt lat="50.83711" lon="1.60217">
        <ele>45.8</ele>
        <time>2015-04-07T17:07:42.000Z</time>
      </trkpt>
      <trkpt lat="50.83712" lon="1.60215">
        <ele>45.7</ele>
        <time>2015-04-07T17:07:43.000Z</time>
      </trkpt>
      <trkpt lat="50.83712" lon="1.60213">
        <ele>45.7</ele>
        <time>2015-04-07T17:07:44.000Z</time>
      </trkpt>
      <trkpt lat="50.83713" lon="1.60211">
        <ele>45.6</ele>
        <time>2015-04-07T17:07:45.000Z</time>
      </trkpt>
      <trkpt lat="50.83714" lon="1.60209">
        <ele>45.5</ele>
        <time>2015-04-07T17:07:46.000Z</time>
      </trkpt>
      <trkpt lat="50.83714" lon="1.60208">
        <ele>45.5</ele>
        <time>2015-04-07T17:07:47.000Z</time>
      </trkpt>
      <trkpt lat="50.83715" lon="1.60206">
        <ele>45.4</ele>
        <time>2015-04-07T17:07:48.000Z</time>
      </trkpt>
      <trkpt lat="50.83716" lon="1.60204">
        <ele>45.3</ele>
        <time>2015-04-07T17:07:49.000Z</time>
      </trkpt>
      <trkpt lat="50.83717" lon="1.60202">
        <ele>45.3</ele>
        <time>2015-04-07T17:07:50.000Z</time>
      </trkpt>
      <trkpt lat="50.83717" lon="1.602">
        <ele>45.2</ele>
        <time>2015-04-07T17:07:51.000Z</time>
      </trkpt>
      <trkpt lat="50.83718" lon="1.60199">
        <ele>45.1</ele>
        <time>2015-04-07T17:07:52.000Z</time>
      </trkpt>
      <trkpt lat="50.83719" lon="1.60197">
        <ele>45.1</ele>
        <time>2015-04-07T17:07:53.000Z</time>
      </trkpt>
      <trkpt lat="50.8372" lon="1.60195">
        <ele>45</ele>
        <time>2015-04-07T17:07:54.000Z</time>
      </trkpt>
      <trkpt lat="50.83721" lon="1.60193">
        <ele>45</ele>
        <time>2015-04-07T17:07:55.000Z</time>
      </trkpt>
      <trkpt lat="50.83721" lon="1.60191">
        <ele>45</ele>
        <time>2015-04-07T17:07:56.000Z</time>
      </trkpt>
      <trkpt lat="50.83722" lon="1.60189">
        <ele>45</ele>
        <time>2015-04-07T17:07:57.000Z</time>
      </trkpt>
      <trkpt lat="50.83723" lon="1.60187">
        <ele>45</ele>
        <time>2015-04-07T17:07:58.000Z</time>
      </trkpt>
      <trkpt lat="50.83724" lon="1.60186">
        <ele>45.1</ele>
        <time>2015-04-07T17:07:59.000Z</time>
      </trkpt>
      <trkpt lat="50.83725" lon="1.60184">
        <ele>45.1</ele>
        <time>2015-04-07T17:08:00.000Z</time>
      </trkpt>
      <trkpt lat="50.83725" lon="1.60182">
        <ele>45.1</ele>
        <time>2015-04-07T17:08:01.000Z</time>
      </trkpt>
      <trkpt lat="50.83726" lon="1.60181">
        <ele>45.1</ele>
        <time>2015-04-07T17:08:02.000Z</time>
      </trkpt>
      <trkpt lat="50.83727" lon="1.60179">
        <ele>45.2</ele>
        <time>2015-04-07T17:08:03.000Z</time>
      </trkpt>
      <trkpt lat="50.83727" lon="1.60177">
        <ele>45.2</ele>
        <time>2015-04-07T17:08:04.000Z</time>
      </trkpt>
      <trkpt lat="50.83728" lon="1.60176">
        <ele>45.2</ele>
        <time>2015-04-07T17:08:05.000Z</time>
      </trkpt>
      <trkpt lat="50.83729" lon="1.60174">
        <ele>45.2</ele>
        <time>2015-04-07T17:08:06.000Z</time>
      </trkpt>
      <trkpt lat="50.8373" lon="1.60172">
        <ele>45.3</ele>
        <time>2015-04-07T17:08:07.000Z</time>
      </trkpt>
      <trkpt lat="50.83731" lon="1.60171">
        <ele>45.3</ele>
        <time>2015-04-07T17:08:08.000Z</time>
      </trkpt>
      <trkpt lat="50.83731" lon="1.60169">
        <ele>45.3</ele>
        <time>2015-04-07T17:08:09.000Z</time>
      </trkpt>
      <trkpt lat="50.83732" lon="1.60167">
        <ele>45.4</ele>
        <time>2015-04-07T17:08:10.000Z</time>
      </trkpt>
      <trkpt lat="50.83733" lon="1.60165">
        <ele>45.3</ele>
        <time>2015-04-07T17:08:11.000Z</time>
      </trkpt>
      <trkpt lat="50.83734" lon="1.60163">
        <ele>45.3</ele>
        <time>2015-04-07T17:08:12.000Z</time>
      </trkpt>
      <trkpt lat="50.83735" lon="1.60161">
        <ele>45.3</ele>
        <time>2015-04-07T17:08:13.000Z</time>
      </trkpt>
      <trkpt lat="50.83735" lon="1.60159">
        <ele>45.3</ele>
        <time>2015-04-07T17:08:14.000Z</time>
      </trkpt>
      <trkpt lat="50.83736" lon="1.60157">
        <ele>45.3</ele>
        <time>2015-04-07T17:08:15.000Z</time>
      </trkpt>
      <trkpt lat="50.83737" lon="1.60156">
        <ele>45.3</ele>
        <time>2015-04-07T17:08:16.000Z</time>
      </trkpt>
      <trkpt lat="50.83738" lon="1.60154">
        <ele>45.3</ele>
        <time>2015-04-07T17:08:17.000Z</time>
      </trkpt>
      <trkpt lat="50.83738" lon="1.60152">
        <ele>45.4</ele>
        <time>2015-04-07T17:08:18.000Z</time>
      </trkpt>
      <trkpt lat="50.83739" lon="1.6015">
        <ele>45.4</ele>
        <time>2015-04-07T17:08:19.000Z</time>
      </trkpt>
      <trkpt lat="50.8374" lon="1.60148">
        <ele>45.4</ele>
        <time>2015-04-07T17:08:20.000Z</time>
      </trkpt>
      <trkpt lat="50.83741" lon="1.60146">
        <ele>45.4</ele>
        <time>2015-04-07T17:08:21.000Z</time>
      </trkpt>
      <trkpt lat="50.83741" lon="1.60145">
        <ele>45.4</ele>
        <time>2015-04-07T17:08:22.000Z</time>
      </trkpt>
      <trkpt lat="50.83742" lon="1.60143">
        <ele>45.5</ele>
        <time>2015-04-07T17:08:23.000Z</time>
      </trkpt>
      <trkpt lat="50.83743" lon="1.60141">
        <ele>45.5</ele>
        <time>2015-04-07T17:08:24.000Z</time>
      </trkpt>
      <trkpt lat="50.83744" lon="1.60139">
        <ele>45.5</ele>
        <time>2015-04-07T17:08:25.000Z</time>
      </trkpt>
      <trkpt lat="50.83744" lon="1.60138">
        <ele>45.6</ele>
        <time>2015-04-07T17:08:26.000Z</time>
      </trkpt>
      <trkpt lat="50.83745" lon="1.60136">
        <ele>45.7</ele>
        <time>2015-04-07T17:08:27.000Z</time>
      </trkpt>
      <trkpt lat="50.83746" lon="1.60134">
        <ele>45.7</ele>
        <time>2015-04-07T17:08:28.000Z</time>
      </trkpt>
      <trkpt lat="50.83747" lon="1.60132">
        <ele>45.8</ele>
        <time>2015-04-07T17:08:29.000Z</time>
      </trkpt>
      <trkpt lat="50.83747" lon="1.60131">
        <ele>45.8</ele>
        <time>2015-04-07T17:08:30.000Z</time>
      </trkpt>
      <trkpt lat="50.83748" lon="1.60129">
        <ele>45.9</ele>
        <time>2015-04-07T17:08:31.000Z</time>
      </trkpt>
      <trkpt lat="50.83749" lon="1.60127">
        <ele>45.9</ele>
        <time>2015-04-07T17:08:32.000Z</time>
      </trkpt>
      <trkpt lat="50.8375" lon="1.60125">
        <ele>46</ele>
        <time>2015-04-07T17:08:33.000Z</time>
      </trkpt>
      <trkpt lat="50.83751" lon="1.60124">
        <ele>46.1</ele>
        <time>2015-04-07T17:08:34.000Z</time>
      </trkpt>
      <trkpt lat="50.83751" lon="1.60122">
        <ele>46.1</ele>
        <time>2015-04-07T17:08:35.000Z</time>
      </trkpt>
      <trkpt lat="50.83752" lon="1.6012">
        <ele>46.2</ele>
        <time>2015-04-07T17:08:36.000Z</time>
      </trkpt>
      <trkpt lat="50.83753" lon="1.60119">
        <ele>46.3</ele>
        <time>2015-04-07T17:08:37.000Z</time>
      </trkpt>
      <trkpt lat="50.83754" lon="1.60117">
        <ele>46.4</ele>
        <time>2015-04-07T17:08:38.000Z</time>
      </trkpt>
      <trkpt lat="50.83754" lon="1.60115">
        <ele>46.5</ele>
        <time>2015-04-07T17:08:39.000Z</time>
      </trkpt>
      <trkpt lat="50.83755" lon="1.60113">
        <ele>46.6</ele>
        <time>2015-04-07T17:08:40.000Z</time>
      </trkpt>
      <trkpt lat="50.83756" lon="1.60111">
        <ele>46.7</ele>
        <time>2015-04-07T17:08:41.000Z</time>
      </trkpt>
      <trkpt lat="50.83757" lon="1.60109">
        <ele>46.8</ele>
        <time>2015-04-07T17:08:42.000Z</time>
      </trkpt>
      <trkpt lat="50.83757" lon="1.60107">
        <ele>46.9</ele>
        <time>2015-04-07T17:08:43.000Z</time>
      </trkpt>
      <trkpt lat="50.83758" lon="1.60106">
        <ele>47</ele>
        <time>2015-04-07T17:08:44.000Z</time>
      </trkpt>
      <trkpt lat="50.83759" lon="1.60104">
        <ele>47.1</ele>
        <time>2015-04-07T17:08:45.000Z</time>
      </trkpt>
      <trkpt lat="50.8376" lon="1.60102">
        <ele>47.2</ele>
        <time>2015-04-07T17:08:46.000Z</time>
      </trkpt>
      <trkpt lat="50.8376" lon="1.60101">
        <ele>47.3</ele>
        <time>2015-04-07T17:08:47.000Z</time>
      </trkpt>
      <trkpt lat="50.83761" lon="1.60099">
        <ele>47.5</ele>
        <time>2015-04-07T17:08:48.000Z</time>
      </trkpt>
      <trkpt lat="50.83762" lon="1.60097">
        <ele>47.6</ele>
        <time>2015-04-07T17:08:49.000Z</time>
      </trkpt>
      <trkpt lat="50.83763" lon="1.60095">
        <ele>47.7</ele>
        <time>2015-04-07T17:08:50.000Z</time>
      </trkpt>
      <trkpt lat="50.83763" lon="1.60093">
        <ele>47.8</ele>
        <time>2015-04-07T17:08:51.000Z</time>
      </trkpt>
      <trkpt lat="50.83764" lon="1.60091">
        <ele>47.9</ele>
        <time>2015-04-07T17:08:52.000Z</time>
      </trkpt>
      <trkpt lat="50.83765" lon="1.60089">
        <ele>48</ele>
        <time>2015-04-07T17:08:53.000Z</time>
      </trkpt>
      <trkpt lat="50.83765" lon="1.60087">
        <ele>48</ele>
        <time>2015-04-07T17:08:54.000Z</time>
      </trkpt>
      <trkpt lat="50.83766" lon="1.60086">
        <ele>48.1</ele>
        <time>2015-04-07T17:08:55.000Z</time>
      </trkpt>
      <trkpt lat="50.83767" lon="1.60084">
        <ele>48.2</ele>
        <time>2015-04-07T17:08:56.000Z</time>
      </trkpt>
      <trkpt lat="50.83767" lon="1.60082">
        <ele>48.3</ele>
        <time>2015-04-07T17:08:57.000Z</time>
      </trkpt>
      <trkpt lat="50.83768" lon="1.6008">
        <ele>48.4</ele>
        <time>2015-04-07T17:08:58.000Z</time>
      </trkpt>
      <trkpt lat="50.83769" lon="1.60078">
        <ele>48.5</ele>
        <time>2015-04-07T17:08:59.000Z</time>
      </trkpt>
      <trkpt lat="50.83769" lon="1.60076">
        <ele>48.5</ele>
        <time>2015-04-07T17:09:00.000Z</time>
      </trkpt>
      <trkpt lat="50.8377" lon="1.60075">
        <ele>48.6</ele>
        <time>2015-04-07T17:09:01.000Z</time>
      </trkpt>
      <trkpt lat="50.83771" lon="1.60073">
        <ele>48.7</ele>
        <time>2015-04-07T17:09:02.000Z</time>
      </trkpt>
      <trkpt lat="50.83771" lon="1.60071">
        <ele>48.7</ele>
        <time>2015-04-07T17:09:03.000Z</time>
      </trkpt>
      <trkpt lat="50.83772" lon="1.60069">
        <ele>48.8</ele>
        <time>2015-04-07T17:09:04.000Z</time>
      </trkpt>
      <trkpt lat="50.83773" lon="1.60067">
        <ele>48.8</ele>
        <time>2015-04-07T17:09:05.000Z</time>
      </trkpt>
      <trkpt lat="50.83774" lon="1.60065">
        <ele>48.9</ele>
        <time>2015-04-07T17:09:06.000Z</time>
      </trkpt>
      <trkpt lat="50.83774" lon="1.60063">
        <ele>48.9</ele>
        <time>2015-04-07T17:09:07.000Z</time>
      </trkpt>
      <trkpt lat="50.83775" lon="1.60062">
        <ele>49</ele>
        <time>2015-04-07T17:09:08.000Z</time>
      </trkpt>
      <trkpt lat="50.83776" lon="1.6006">
        <ele>49</ele>
        <time>2015-04-07T17:09:09.000Z</time>
      </trkpt>
      <trkpt lat="50.83777" lon="1.60058">
        <ele>49</ele>
        <time>2015-04-07T17:09:10.000Z</time>
      </trkpt>
      <trkpt lat="50.83777" lon="1.60056">
        <ele>49</ele>
        <time>2015-04-07T17:09:11.000Z</time>
      </trkpt>
      <trkpt lat="50.83778" lon="1.60054">
        <ele>49.1</ele>
        <time>2015-04-07T17:09:12.000Z</time>
      </trkpt>
      <trkpt lat="50.83779" lon="1.60053">
        <ele>49.2</ele>
        <time>2015-04-07T17:09:13.000Z</time>
      </trkpt>
      <trkpt lat="50.8378" lon="1.60051">
        <ele>49.4</ele>
        <time>2015-04-07T17:09:14.000Z</time>
      </trkpt>
      <trkpt lat="50.8378" lon="1.60049">
        <ele>49.5</ele>
        <time>2015-04-07T17:09:15.000Z</time>
      </trkpt>
      <trkpt lat="50.83781" lon="1.60047">
        <ele>49.6</ele>
        <time>2015-04-07T17:09:16.000Z</time>
      </trkpt>
      <trkpt lat="50.83782" lon="1.60045">
        <ele>49.8</ele>
        <time>2015-04-07T17:09:17.000Z</time>
      </trkpt>
      <trkpt lat="50.83783" lon="1.60043">
        <ele>49.9</ele>
        <time>2015-04-07T17:09:18.000Z</time>
      </trkpt>
      <trkpt lat="50.83784" lon="1.60041">
        <ele>50</ele>
        <time>2015-04-07T17:09:19.000Z</time>
      </trkpt>
      <trkpt lat="50.83785" lon="1.6004">
        <ele>50.2</ele>
        <time>2015-04-07T17:09:20.000Z</time>
      </trkpt>
      <trkpt lat="50.83785" lon="1.60038">
        <ele>50.3</ele>
        <time>2015-04-07T17:09:21.000Z</time>
      </trkpt>
      <trkpt lat="50.83786" lon="1.60037">
        <ele>50.4</ele>
        <time>2015-04-07T17:09:22.000Z</time>
      </trkpt>
      <trkpt lat="50.83787" lon="1.60035">
        <ele>50.5</ele>
        <time>2015-04-07T17:09:23.000Z</time>
      </trkpt>
      <trkpt lat="50.83788" lon="1.60033">
        <ele>50.6</ele>
        <time>2015-04-07T17:09:24.000Z</time>
      </trkpt>
      <trkpt lat="50.83788" lon="1.60032">
        <ele>50.7</ele>
        <time>2015-04-07T17:09:25.000Z</time>
      </trkpt>
      <trkpt lat="50.83789" lon="1.6003">
        <ele>50.8</ele>
        <time>2015-04-07T17:09:26.000Z</time>
      </trkpt>
      <trkpt lat="50.8379" lon="1.60028">
        <ele>50.9</ele>
        <time>2015-04-07T17:09:27.000Z</time>
      </trkpt>
      <trkpt lat="50.83791" lon="1.60026">
        <ele>51</ele>
        <time>2015-04-07T17:09:28.000Z</time>
      </trkpt>
      <trkpt lat="50.83792" lon="1.60024">
        <ele>51.1</ele>
        <time>2015-04-07T17:09:29.000Z</time>
      </trkpt>
      <trkpt lat="50.83793" lon="1.60023">
        <ele>51.2</ele>
        <time>2015-04-07T17:09:30.000Z</time>
      </trkpt>
      <trkpt lat="50.83794" lon="1.60021">
        <ele>51.3</ele>
        <time>2015-04-07T17:09:31.000Z</time>
      </trkpt>
      <trkpt lat="50.83794" lon="1.60019">
        <ele>51.3</ele>
        <time>2015-04-07T17:09:32.000Z</time>
      </trkpt>
      <trkpt lat="50.83795" lon="1.60016">
        <ele>51.4</ele>
        <time>2015-04-07T17:09:33.000Z</time>
      </trkpt>
      <trkpt lat="50.83796" lon="1.60014">
        <ele>51.5</ele>
        <time>2015-04-07T17:09:34.000Z</time>
      </trkpt>
      <trkpt lat="50.83797" lon="1.60012">
        <ele>51.6</ele>
        <time>2015-04-07T17:09:35.000Z</time>
      </trkpt>
      <trkpt lat="50.83798" lon="1.6001">
        <ele>51.6</ele>
        <time>2015-04-07T17:09:36.000Z</time>
      </trkpt>
      <trkpt lat="50.83799" lon="1.60008">
        <ele>51.7</ele>
        <time>2015-04-07T17:09:37.000Z</time>
      </trkpt>
      <trkpt lat="50.83799" lon="1.60006">
        <ele>51.7</ele>
        <time>2015-04-07T17:09:38.000Z</time>
      </trkpt>
      <trkpt lat="50.838" lon="1.60005">
        <ele>51.8</ele>
        <time>2015-04-07T17:09:39.000Z</time>
      </trkpt>
      <trkpt lat="50.83801" lon="1.60003">
        <ele>51.8</ele>
        <time>2015-04-07T17:09:40.000Z</time>
      </trkpt>
      <trkpt lat="50.83802" lon="1.60001">
        <ele>51.9</ele>
        <time>2015-04-07T17:09:41.000Z</time>
      </trkpt>
      <trkpt lat="50.83803" lon="1.59999">
        <ele>51.9</ele>
        <time>2015-04-07T17:09:42.000Z</time>
      </trkpt>
      <trkpt lat="50.83803" lon="1.59997">
        <ele>51.9</ele>
        <time>2015-04-07T17:09:43.000Z</time>
      </trkpt>
      <trkpt lat="50.83804" lon="1.59995">
        <ele>51.9</ele>
        <time>2015-04-07T17:09:44.000Z</time>
      </trkpt>
      <trkpt lat="50.83805" lon="1.59994">
        <ele>52</ele>
        <time>2015-04-07T17:09:45.000Z</time>
      </trkpt>
      <trkpt lat="50.83806" lon="1.59992">
        <ele>52</ele>
        <time>2015-04-07T17:09:46.000Z</time>
      </trkpt>
      <trkpt lat="50.83807" lon="1.5999">
        <ele>52.1</ele>
        <time>2015-04-07T17:09:47.000Z</time>
      </trkpt>
      <trkpt lat="50.83808" lon="1.59989">
        <ele>52.1</ele>
        <time>2015-04-07T17:09:48.000Z</time>
      </trkpt>
      <trkpt lat="50.83808" lon="1.59987">
        <ele>52.2</ele>
        <time>2015-04-07T17:09:49.000Z</time>
      </trkpt>
      <trkpt lat="50.83809" lon="1.59985">
        <ele>52.3</ele>
        <time>2015-04-07T17:09:50.000Z</time>
      </trkpt>
      <trkpt lat="50.8381" lon="1.59984">
        <ele>52.4</ele>
        <time>2015-04-07T17:09:51.000Z</time>
      </trkpt>
      <trkpt lat="50.83812" lon="1.59982">
        <ele>52.4</ele>
        <time>2015-04-07T17:09:52.000Z</time>
      </trkpt>
      <trkpt lat="50.83813" lon="1.5998">
        <ele>52.5</ele>
        <time>2015-04-07T17:09:53.000Z</time>
      </trkpt>
      <trkpt lat="50.83814" lon="1.59979">
        <ele>52.6</ele>
        <time>2015-04-07T17:09:54.000Z</time>
      </trkpt>
      <trkpt lat="50.83815" lon="1.59978">
        <ele>52.6</ele>
        <time>2015-04-07T17:09:55.000Z</time>
      </trkpt>
      <trkpt lat="50.83815" lon="1.59976">
        <ele>52.7</ele>
        <time>2015-04-07T17:09:56.000Z</time>
      </trkpt>
      <trkpt lat="50.83816" lon="1.59975">
        <ele>52.8</ele>
        <time>2015-04-07T17:09:57.000Z</time>
      </trkpt>
      <trkpt lat="50.83817" lon="1.59974">
        <ele>52.8</ele>
        <time>2015-04-07T17:09:58.000Z</time>
      </trkpt>
      <trkpt lat="50.83817" lon="1.59973">
        <ele>52.8</ele>
        <time>2015-04-07T17:09:59.000Z</time>
      </trkpt>
      <trkpt lat="50.83818" lon="1.59972">
        <ele>52.9</ele>
        <time>2015-04-07T17:10:00.000Z</time>
      </trkpt>
      <trkpt lat="50.83819" lon="1.5997">
        <ele>52.9</ele>
        <time>2015-04-07T17:10:01.000Z</time>
      </trkpt>
      <trkpt lat="50.83819" lon="1.59969">
        <ele>52.9</ele>
        <time>2015-04-07T17:10:02.000Z</time>
      </trkpt>
      <trkpt lat="50.8382" lon="1.59967">
        <ele>53</ele>
        <time>2015-04-07T17:10:03.000Z</time>
      </trkpt>
      <trkpt lat="50.83821" lon="1.59966">
        <ele>53</ele>
        <time>2015-04-07T17:10:04.000Z</time>
      </trkpt>
      <trkpt lat="50.83822" lon="1.59964">
        <ele>53</ele>
        <time>2015-04-07T17:10:05.000Z</time>
      </trkpt>
      <trkpt lat="50.83823" lon="1.59963">
        <ele>53</ele>
        <time>2015-04-07T17:10:06.000Z</time>
      </trkpt>
      <trkpt lat="50.83823" lon="1.59961">
        <ele>53</ele>
        <time>2015-04-07T17:10:07.000Z</time>
      </trkpt>
      <trkpt lat="50.83824" lon="1.5996">
        <ele>53</ele>
        <time>2015-04-07T17:10:08.000Z</time>
      </trkpt>
      <trkpt lat="50.83825" lon="1.59958">
        <ele>53</ele>
        <time>2015-04-07T17:10:09.000Z</time>
      </trkpt>
      <trkpt lat="50.83826" lon="1.59957">
        <ele>53</ele>
        <time>2015-04-07T17:10:10.000Z</time>
      </trkpt>
      <trkpt lat="50.83826" lon="1.59955">
        <ele>53</ele>
        <time>2015-04-07T17:10:11.000Z</time>
      </trkpt>
      <trkpt lat="50.83827" lon="1.59954">
        <ele>53</ele>
        <time>2015-04-07T17:10:12.000Z</time>
      </trkpt>
      <trkpt lat="50.83827" lon="1.59953">
        <ele>53</ele>
        <time>2015-04-07T17:10:13.000Z</time>
      </trkpt>
      <trkpt lat="50.83828" lon="1.59951">
        <ele>53</ele>
        <time>2015-04-07T17:10:14.000Z</time>
      </trkpt>
      <trkpt lat="50.83829" lon="1.5995">
        <ele>53</ele>
        <time>2015-04-07T17:10:15.000Z</time>
      </trkpt>
      <trkpt lat="50.8383" lon="1.59948">
        <ele>53</ele>
        <time>2015-04-07T17:10:16.000Z</time>
      </trkpt>
      <trkpt lat="50.83831" lon="1.59947">
        <ele>53</ele>
        <time>2015-04-07T17:10:17.000Z</time>
      </trkpt>
      <trkpt lat="50.83831" lon="1.59945">
        <ele>53</ele>
        <time>2015-04-07T17:10:18.000Z</time>
      </trkpt>
      <trkpt lat="50.83832" lon="1.59944">
        <ele>53</ele>
        <time>2015-04-07T17:10:19.000Z</time>
      </trkpt>
      <trkpt lat="50.83833" lon="1.59942">
        <ele>53</ele>
        <time>2015-04-07T17:10:20.000Z</time>
      </trkpt>
      <trkpt lat="50.83833" lon="1.59941">
        <ele>53</ele>
        <time>2015-04-07T17:10:21.000Z</time>
      </trkpt>
      <trkpt lat="50.83834" lon="1.59939">
        <ele>53</ele>
        <time>2015-04-07T17:10:22.000Z</time>
      </trkpt>
      <trkpt lat="50.83835" lon="1.59938">
        <ele>53.1</ele>
        <time>2015-04-07T17:10:23.000Z</time>
      </trkpt>
      <trkpt lat="50.83836" lon="1.59936">
        <ele>53.1</ele>
        <time>2015-04-07T17:10:24.000Z</time>
      </trkpt>
      <trkpt lat="50.83836" lon="1.59935">
        <ele>53.1</ele>
        <time>2015-04-07T17:10:25.000Z</time>
      </trkpt>
      <trkpt lat="50.83837" lon="1.59933">
        <ele>53.1</ele>
        <time>2015-04-07T17:10:26.000Z</time>
      </trkpt>
      <trkpt lat="50.83838" lon="1.59931">
        <ele>53.2</ele>
        <time>2015-04-07T17:10:27.000Z</time>
      </trkpt>
      <trkpt lat="50.83839" lon="1.5993">
        <ele>53.2</ele>
        <time>2015-04-07T17:10:28.000Z</time>
      </trkpt>
      <trkpt lat="50.83839" lon="1.59928">
        <ele>53.2</ele>
        <time>2015-04-07T17:10:29.000Z</time>
      </trkpt>
      <trkpt lat="50.8384" lon="1.59926">
        <ele>53.2</ele>
        <time>2015-04-07T17:10:30.000Z</time>
      </trkpt>
      <trkpt lat="50.83841" lon="1.59925">
        <ele>53.3</ele>
        <time>2015-04-07T17:10:31.000Z</time>
      </trkpt>
      <trkpt lat="50.83841" lon="1.59923">
        <ele>53.3</ele>
        <time>2015-04-07T17:10:32.000Z</time>
      </trkpt>
      <trkpt lat="50.83842" lon="1.59921">
        <ele>53.3</ele>
        <time>2015-04-07T17:10:33.000Z</time>
      </trkpt>
      <trkpt lat="50.83843" lon="1.59919">
        <ele>53.3</ele>
        <time>2015-04-07T17:10:34.000Z</time>
      </trkpt>
      <trkpt lat="50.83844" lon="1.59918">
        <ele>53.4</ele>
        <time>2015-04-07T17:10:35.000Z</time>
      </trkpt>
      <trkpt lat="50.83845" lon="1.59916">
        <ele>53.4</ele>
        <time>2015-04-07T17:10:36.000Z</time>
      </trkpt>
      <trkpt lat="50.83845" lon="1.59914">
        <ele>53.4</ele>
        <time>2015-04-07T17:10:37.000Z</time>
      </trkpt>
      <trkpt lat="50.83846" lon="1.59912">
        <ele>53.5</ele>
        <time>2015-04-07T17:10:38.000Z</time>
      </trkpt>
      <trkpt lat="50.83847" lon="1.59911">
        <ele>53.5</ele>
        <time>2015-04-07T17:10:39.000Z</time>
      </trkpt>
      <trkpt lat="50.83848" lon="1.59909">
        <ele>53.5</ele>
        <time>2015-04-07T17:10:40.000Z</time>
      </trkpt>
      <trkpt lat="50.83849" lon="1.59907">
        <ele>53.6</ele>
        <time>2015-04-07T17:10:41.000Z</time>
      </trkpt>
      <trkpt lat="50.8385" lon="1.59905">
        <ele>53.6</ele>
        <time>2015-04-07T17:10:42.000Z</time>
      </trkpt>
      <trkpt lat="50.8385" lon="1.59904">
        <ele>53.6</ele>
        <time>2015-04-07T17:10:43.000Z</time>
      </trkpt>
      <trkpt lat="50.83851" lon="1.59902">
        <ele>53.6</ele>
        <time>2015-04-07T17:10:44.000Z</time>
      </trkpt>
      <trkpt lat="50.83852" lon="1.599">
        <ele>53.7</ele>
        <time>2015-04-07T17:10:45.000Z</time>
      </trkpt>
      <trkpt lat="50.83853" lon="1.59898">
        <ele>53.7</ele>
        <time>2015-04-07T17:10:46.000Z</time>
      </trkpt>
      <trkpt lat="50.83854" lon="1.59896">
        <ele>53.7</ele>
        <time>2015-04-07T17:10:47.000Z</time>
      </trkpt>
      <trkpt lat="50.83855" lon="1.59894">
        <ele>53.8</ele>
        <time>2015-04-07T17:10:48.000Z</time>
      </trkpt>
      <trkpt lat="50.83856" lon="1.59893">
        <ele>53.8</ele>
        <time>2015-04-07T17:10:49.000Z</time>
      </trkpt>
      <trkpt lat="50.83857" lon="1.59891">
        <ele>53.8</ele>
        <time>2015-04-07T17:10:50.000Z</time>
      </trkpt>
      <trkpt lat="50.83857" lon="1.59889">
        <ele>53.9</ele>
        <time>2015-04-07T17:10:51.000Z</time>
      </trkpt>
      <trkpt lat="50.83858" lon="1.59887">
        <ele>53.8</ele>
        <time>2015-04-07T17:10:52.000Z</time>
      </trkpt>
      <trkpt lat="50.83859" lon="1.59886">
        <ele>53.8</ele>
        <time>2015-04-07T17:10:53.000Z</time>
      </trkpt>
      <trkpt lat="50.8386" lon="1.59884">
        <ele>53.8</ele>
        <time>2015-04-07T17:10:54.000Z</time>
      </trkpt>
      <trkpt lat="50.83861" lon="1.59882">
        <ele>53.7</ele>
        <time>2015-04-07T17:10:55.000Z</time>
      </trkpt>
      <trkpt lat="50.83862" lon="1.5988">
        <ele>53.7</ele>
        <time>2015-04-07T17:10:56.000Z</time>
      </trkpt>
      <trkpt lat="50.83862" lon="1.59878">
        <ele>53.6</ele>
        <time>2015-04-07T17:10:57.000Z</time>
      </trkpt>
      <trkpt lat="50.83863" lon="1.59876">
        <ele>53.5</ele>
        <time>2015-04-07T17:10:58.000Z</time>
      </trkpt>
      <trkpt lat="50.83864" lon="1.59874">
        <ele>53.5</ele>
        <time>2015-04-07T17:10:59.000Z</time>
      </trkpt>
      <trkpt lat="50.83865" lon="1.59873">
        <ele>53.4</ele>
        <time>2015-04-07T17:11:00.000Z</time>
      </trkpt>
      <trkpt lat="50.83866" lon="1.59871">
        <ele>53.3</ele>
        <time>2015-04-07T17:11:01.000Z</time>
      </trkpt>
      <trkpt lat="50.83866" lon="1.59869">
        <ele>53.3</ele>
        <time>2015-04-07T17:11:02.000Z</time>
      </trkpt>
      <trkpt lat="50.83867" lon="1.59867">
        <ele>53.2</ele>
        <time>2015-04-07T17:11:03.000Z</time>
      </trkpt>
      <trkpt lat="50.83868" lon="1.59865">
        <ele>53.2</ele>
        <time>2015-04-07T17:11:04.000Z</time>
      </trkpt>
      <trkpt lat="50.83869" lon="1.59864">
        <ele>53.1</ele>
        <time>2015-04-07T17:11:05.000Z</time>
      </trkpt>
      <trkpt lat="50.83869" lon="1.59862">
        <ele>53</ele>
        <time>2015-04-07T17:11:06.000Z</time>
      </trkpt>
      <trkpt lat="50.8387" lon="1.5986">
        <ele>53</ele>
        <time>2015-04-07T17:11:07.000Z</time>
      </trkpt>
      <trkpt lat="50.83871" lon="1.59858">
        <ele>52.9</ele>
        <time>2015-04-07T17:11:08.000Z</time>
      </trkpt>
      <trkpt lat="50.83872" lon="1.59857">
        <ele>52.9</ele>
        <time>2015-04-07T17:11:09.000Z</time>
      </trkpt>
      <trkpt lat="50.83873" lon="1.59855">
        <ele>52.9</ele>
        <time>2015-04-07T17:11:10.000Z</time>
      </trkpt>
      <trkpt lat="50.83874" lon="1.59853">
        <ele>52.8</ele>
        <time>2015-04-07T17:11:11.000Z</time>
      </trkpt>
      <trkpt lat="50.83874" lon="1.59851">
        <ele>52.8</ele>
        <time>2015-04-07T17:11:12.000Z</time>
      </trkpt>
      <trkpt lat="50.83875" lon="1.59849">
        <ele>52.8</ele>
        <time>2015-04-07T17:11:13.000Z</time>
      </trkpt>
      <trkpt lat="50.83876" lon="1.59848">
        <ele>52.8</ele>
        <time>2015-04-07T17:11:14.000Z</time>
      </trkpt>
      <trkpt lat="50.83877" lon="1.59846">
        <ele>52.8</ele>
        <time>2015-04-07T17:11:15.000Z</time>
      </trkpt>
      <trkpt lat="50.83878" lon="1.59844">
        <ele>52.8</ele>
        <time>2015-04-07T17:11:16.000Z</time>
      </trkpt>
      <trkpt lat="50.83879" lon="1.59843">
        <ele>52.8</ele>
        <time>2015-04-07T17:11:17.000Z</time>
      </trkpt>
      <trkpt lat="50.83879" lon="1.59841">
        <ele>52.8</ele>
        <time>2015-04-07T17:11:18.000Z</time>
      </trkpt>
      <trkpt lat="50.8388" lon="1.59839">
        <ele>52.8</ele>
        <time>2015-04-07T17:11:19.000Z</time>
      </trkpt>
      <trkpt lat="50.83881" lon="1.59838">
        <ele>52.8</ele>
        <time>2015-04-07T17:11:20.000Z</time>
      </trkpt>
      <trkpt lat="50.83882" lon="1.59836">
        <ele>52.8</ele>
        <time>2015-04-07T17:11:21.000Z</time>
      </trkpt>
      <trkpt lat="50.83882" lon="1.59834">
        <ele>52.8</ele>
        <time>2015-04-07T17:11:22.000Z</time>
      </trkpt>
      <trkpt lat="50.83883" lon="1.59833">
        <ele>52.8</ele>
        <time>2015-04-07T17:11:23.000Z</time>
      </trkpt>
      <trkpt lat="50.83884" lon="1.59831">
        <ele>52.8</ele>
        <time>2015-04-07T17:11:24.000Z</time>
      </trkpt>
      <trkpt lat="50.83885" lon="1.59829">
        <ele>52.7</ele>
        <time>2015-04-07T17:11:25.000Z</time>
      </trkpt>
      <trkpt lat="50.83886" lon="1.59828">
        <ele>52.7</ele>
        <time>2015-04-07T17:11:26.000Z</time>
      </trkpt>
      <trkpt lat="50.83887" lon="1.59826">
        <ele>52.7</ele>
        <time>2015-04-07T17:11:27.000Z</time>
      </trkpt>
      <trkpt lat="50.83887" lon="1.59825">
        <ele>52.7</ele>
        <time>2015-04-07T17:11:28.000Z</time>
      </trkpt>
      <trkpt lat="50.83888" lon="1.59823">
        <ele>52.6</ele>
        <time>2015-04-07T17:11:29.000Z</time>
      </trkpt>
      <trkpt lat="50.83889" lon="1.59822">
        <ele>52.6</ele>
        <time>2015-04-07T17:11:30.000Z</time>
      </trkpt>
      <trkpt lat="50.8389" lon="1.5982">
        <ele>52.5</ele>
        <time>2015-04-07T17:11:31.000Z</time>
      </trkpt>
      <trkpt lat="50.83891" lon="1.59819">
        <ele>52.5</ele>
        <time>2015-04-07T17:11:32.000Z</time>
      </trkpt>
      <trkpt lat="50.83892" lon="1.59817">
        <ele>52.4</ele>
        <time>2015-04-07T17:11:33.000Z</time>
      </trkpt>
      <trkpt lat="50.83893" lon="1.59816">
        <ele>52.4</ele>
        <time>2015-04-07T17:11:34.000Z</time>
      </trkpt>
      <trkpt lat="50.83894" lon="1.59815">
        <ele>52.3</ele>
        <time>2015-04-07T17:11:35.000Z</time>
      </trkpt>
      <trkpt lat="50.83896" lon="1.59814">
        <ele>52.3</ele>
        <time>2015-04-07T17:11:36.000Z</time>
      </trkpt>
      <trkpt lat="50.83897" lon="1.59814">
        <ele>52.3</ele>
        <time>2015-04-07T17:11:37.000Z</time>
      </trkpt>
      <trkpt lat="50.83898" lon="1.59814">
        <ele>52.3</ele>
        <time>2015-04-07T17:11:38.000Z</time>
      </trkpt>
      <trkpt lat="50.83899" lon="1.59814">
        <ele>52.3</ele>
        <time>2015-04-07T17:11:39.000Z</time>
      </trkpt>
      <trkpt lat="50.83901" lon="1.59814">
        <ele>52.3</ele>
        <time>2015-04-07T17:11:40.000Z</time>
      </trkpt>
      <trkpt lat="50.83902" lon="1.59814">
        <ele>52.3</ele>
        <time>2015-04-07T17:11:41.000Z</time>
      </trkpt>
      <trkpt lat="50.83903" lon="1.59815">
        <ele>52.3</ele>
        <time>2015-04-07T17:11:42.000Z</time>
      </trkpt>
      <trkpt lat="50.83904" lon="1.59815">
        <ele>52.3</ele>
        <time>2015-04-07T17:11:43.000Z</time>
      </trkpt>
      <trkpt lat="50.83905" lon="1.59816">
        <ele>52.4</ele>
        <time>2015-04-07T17:11:44.000Z</time>
      </trkpt>
      <trkpt lat="50.83906" lon="1.59816">
        <ele>52.4</ele>
        <time>2015-04-07T17:11:45.000Z</time>
      </trkpt>
      <trkpt lat="50.83907" lon="1.59817">
        <ele>52.4</ele>
        <time>2015-04-07T17:11:46.000Z</time>
      </trkpt>
      <trkpt lat="50.83908" lon="1.59817">
        <ele>52.4</ele>
        <time>2015-04-07T17:11:47.000Z</time>
      </trkpt>
      <trkpt lat="50.83909" lon="1.59818">
        <ele>52.4</ele>
        <time>2015-04-07T17:11:48.000Z</time>
      </trkpt>
      <trkpt lat="50.83911" lon="1.59818">
        <ele>52.5</ele>
        <time>2015-04-07T17:11:49.000Z</time>
      </trkpt>
      <trkpt lat="50.83912" lon="1.59819">
        <ele>52.5</ele>
        <time>2015-04-07T17:11:50.000Z</time>
      </trkpt>
      <trkpt lat="50.83913" lon="1.59819">
        <ele>52.5</ele>
        <time>2015-04-07T17:11:51.000Z</time>
      </trkpt>
      <trkpt lat="50.83914" lon="1.5982">
        <ele>52.5</ele>
        <time>2015-04-07T17:11:52.000Z</time>
      </trkpt>
      <trkpt lat="50.83915" lon="1.5982">
        <ele>52.5</ele>
        <time>2015-04-07T17:11:53.000Z</time>
      </trkpt>
      <trkpt lat="50.83916" lon="1.59821">
        <ele>52.6</ele>
        <time>2015-04-07T17:11:54.000Z</time>
      </trkpt>
      <trkpt lat="50.83918" lon="1.59821">
        <ele>52.6</ele>
        <time>2015-04-07T17:11:55.000Z</time>
      </trkpt>
      <trkpt lat="50.83919" lon="1.59822">
        <ele>52.6</ele>
        <time>2015-04-07T17:11:56.000Z</time>
      </trkpt>
      <trkpt lat="50.8392" lon="1.59823">
        <ele>52.7</ele>
        <time>2015-04-07T17:11:57.000Z</time>
      </trkpt>
      <trkpt lat="50.83921" lon="1.59823">
        <ele>52.7</ele>
        <time>2015-04-07T17:11:58.000Z</time>
      </trkpt>
      <trkpt lat="50.83922" lon="1.59824">
        <ele>52.7</ele>
        <time>2015-04-07T17:11:59.000Z</time>
      </trkpt>
      <trkpt lat="50.83923" lon="1.59825">
        <ele>52.8</ele>
        <time>2015-04-07T17:12:00.000Z</time>
      </trkpt>
      <trkpt lat="50.83924" lon="1.59825">
        <ele>52.8</ele>
        <time>2015-04-07T17:12:01.000Z</time>
      </trkpt>
      <trkpt lat="50.83925" lon="1.59826">
        <ele>52.8</ele>
        <time>2015-04-07T17:12:02.000Z</time>
      </trkpt>
      <trkpt lat="50.83926" lon="1.59827">
        <ele>52.8</ele>
        <time>2015-04-07T17:12:03.000Z</time>
      </trkpt>
      <trkpt lat="50.83927" lon="1.59828">
        <ele>52.9</ele>
        <time>2015-04-07T17:12:04.000Z</time>
      </trkpt>
      <trkpt lat="50.83928" lon="1.59829">
        <ele>52.9</ele>
        <time>2015-04-07T17:12:05.000Z</time>
      </trkpt>
      <trkpt lat="50.83929" lon="1.59829">
        <ele>52.9</ele>
        <time>2015-04-07T17:12:06.000Z</time>
      </trkpt>
      <trkpt lat="50.8393" lon="1.5983">
        <ele>52.9</ele>
        <time>2015-04-07T17:12:07.000Z</time>
      </trkpt>
      <trkpt lat="50.83931" lon="1.59832">
        <ele>53</ele>
        <time>2015-04-07T17:12:08.000Z</time>
      </trkpt>
      <trkpt lat="50.83932" lon="1.59833">
        <ele>53</ele>
        <time>2015-04-07T17:12:09.000Z</time>
      </trkpt>
      <trkpt lat="50.83933" lon="1.59834">
        <ele>53</ele>
        <time>2015-04-07T17:12:10.000Z</time>
      </trkpt>
      <trkpt lat="50.83933" lon="1.59835">
        <ele>53.1</ele>
        <time>2015-04-07T17:12:11.000Z</time>
      </trkpt>
      <trkpt lat="50.83934" lon="1.59836">
        <ele>53.1</ele>
        <time>2015-04-07T17:12:12.000Z</time>
      </trkpt>
      <trkpt lat="50.83935" lon="1.59838">
        <ele>53.2</ele>
        <time>2015-04-07T17:12:13.000Z</time>
      </trkpt>
      <trkpt lat="50.83936" lon="1.59841">
        <ele>53.3</ele>
        <time>2015-04-07T17:12:14.000Z</time>
      </trkpt>
      <trkpt lat="50.83936" lon="1.59841">
        <ele>53.3</ele>
        <time>2015-04-07T17:12:15.000Z</time>
      </trkpt>
    </trkseg>
  </trk>
</gpx>